<?xml version="1.0" encoding="UTF-8"?>
<gpx creator="Garmin Connect" version="1.1"
  xsi:schemaLocation="http://www.topografix.com/GPX/1/1 http://www.topografix.com/GPX/11.xsd"
  xmlns:ns3="http://www.garmin.com/xmlschemas/TrackPointExtension/v1"
  xmlns="http://www.topografix.com/GPX/1/1"
  xmlns:xsi="http://www.w3.org/2001/XMLSchema-instance" xmlns:ns2="http://www.garmin.com/xmlschemas/GpxExtensions/v3">
  <metadata>
    <link href="connect.garmin.com">
      <text>Garmin Connect</text>
    </link>
    <time>2021-05-09T06:49:48.000Z</time>
  </metadata>
  <trk>
    <name>Camerino Ciclismo</name>
    <type>cycling</type>
    <trkseg>
      <trkpt lat="43.1433576531708240509033203125" lon="13.05791624821722507476806640625">
        <ele>453.79998779296875</ele>
        <time>2021-05-09T06:49:48.000Z</time>
        <extensions>
          <ns3:TrackPointExtension>
            <ns3:atemp>14.0</ns3:atemp>
          </ns3:TrackPointExtension>
        </extensions>
      </trkpt>
      <trkpt lat="43.14346200786530971527099609375" lon="13.05817508138716220855712890625">
        <ele>452.79998779296875</ele>
        <time>2021-05-09T06:49:54.000Z</time>
        <extensions>
          <ns3:TrackPointExtension>
            <ns3:atemp>14.0</ns3:atemp>
          </ns3:TrackPointExtension>
        </extensions>
      </trkpt>
      <trkpt lat="43.14356376416981220245361328125" lon="13.05843559093773365020751953125">
        <ele>453</ele>
        <time>2021-05-09T06:50:00.000Z</time>
        <extensions>
          <ns3:TrackPointExtension>
            <ns3:atemp>14.0</ns3:atemp>
          </ns3:TrackPointExtension>
        </extensions>
      </trkpt>
      <trkpt lat="43.1435729004442691802978515625" lon="13.05853349156677722930908203125">
        <ele>452.79998779296875</ele>
        <time>2021-05-09T06:50:04.000Z</time>
        <extensions>
          <ns3:TrackPointExtension>
            <ns3:atemp>14.0</ns3:atemp>
          </ns3:TrackPointExtension>
        </extensions>
      </trkpt>
      <trkpt lat="43.1435792706906795501708984375" lon="13.05856819264590740203857421875">
        <ele>452.79998779296875</ele>
        <time>2021-05-09T06:50:10.000Z</time>
        <extensions>
          <ns3:TrackPointExtension>
            <ns3:atemp>14.0</ns3:atemp>
          </ns3:TrackPointExtension>
        </extensions>
      </trkpt>
      <trkpt lat="43.14359008334577083587646484375" lon="13.0585982836782932281494140625">
        <ele>452.79998779296875</ele>
        <time>2021-05-09T06:50:11.000Z</time>
        <extensions>
          <ns3:TrackPointExtension>
            <ns3:atemp>14.0</ns3:atemp>
          </ns3:TrackPointExtension>
        </extensions>
      </trkpt>
      <trkpt lat="43.1437308155000209808349609375" lon="13.05880690924823284149169921875">
        <ele>452.600006103515625</ele>
        <time>2021-05-09T06:50:17.000Z</time>
        <extensions>
          <ns3:TrackPointExtension>
            <ns3:atemp>14.0</ns3:atemp>
          </ns3:TrackPointExtension>
        </extensions>
      </trkpt>
      <trkpt lat="43.1438712961971759796142578125" lon="13.05887346155941486358642578125">
        <ele>452.399993896484375</ele>
        <time>2021-05-09T06:50:21.000Z</time>
        <extensions>
          <ns3:TrackPointExtension>
            <ns3:atemp>14.0</ns3:atemp>
          </ns3:TrackPointExtension>
        </extensions>
      </trkpt>
      <trkpt lat="43.14410707913339138031005859375" lon="13.05888201110064983367919921875">
        <ele>452.399993896484375</ele>
        <time>2021-05-09T06:50:28.000Z</time>
        <extensions>
          <ns3:TrackPointExtension>
            <ns3:atemp>14.0</ns3:atemp>
          </ns3:TrackPointExtension>
        </extensions>
      </trkpt>
      <trkpt lat="43.14426013268530368804931640625" lon="13.058874048292636871337890625">
        <ele>453.399993896484375</ele>
        <time>2021-05-09T06:50:33.000Z</time>
        <extensions>
          <ns3:TrackPointExtension>
            <ns3:atemp>14.0</ns3:atemp>
          </ns3:TrackPointExtension>
        </extensions>
      </trkpt>
      <trkpt lat="43.144326768815517425537109375" lon="13.05886642076075077056884765625">
        <ele>454</ele>
        <time>2021-05-09T06:50:35.000Z</time>
        <extensions>
          <ns3:TrackPointExtension>
            <ns3:atemp>14.0</ns3:atemp>
          </ns3:TrackPointExtension>
        </extensions>
      </trkpt>
      <trkpt lat="43.144450150430202484130859375" lon="13.0588799156248569488525390625">
        <ele>455.20001220703125</ele>
        <time>2021-05-09T06:50:39.000Z</time>
        <extensions>
          <ns3:TrackPointExtension>
            <ns3:atemp>14.0</ns3:atemp>
          </ns3:TrackPointExtension>
        </extensions>
      </trkpt>
      <trkpt lat="43.144470266997814178466796875" lon="13.05890858173370361328125">
        <ele>455.399993896484375</ele>
        <time>2021-05-09T06:50:40.000Z</time>
        <extensions>
          <ns3:TrackPointExtension>
            <ns3:atemp>14.0</ns3:atemp>
          </ns3:TrackPointExtension>
        </extensions>
      </trkpt>
      <trkpt lat="43.1444955803453922271728515625" lon="13.0589783191680908203125">
        <ele>456</ele>
        <time>2021-05-09T06:50:42.000Z</time>
        <extensions>
          <ns3:TrackPointExtension>
            <ns3:atemp>14.0</ns3:atemp>
          </ns3:TrackPointExtension>
        </extensions>
      </trkpt>
      <trkpt lat="43.14450480043888092041015625" lon="13.05901092477142810821533203125">
        <ele>456.399993896484375</ele>
        <time>2021-05-09T06:50:43.000Z</time>
        <extensions>
          <ns3:TrackPointExtension>
            <ns3:atemp>14.0</ns3:atemp>
          </ns3:TrackPointExtension>
        </extensions>
      </trkpt>
      <trkpt lat="43.14455500803887844085693359375" lon="13.059150986373424530029296875">
        <ele>457.600006103515625</ele>
        <time>2021-05-09T06:50:48.000Z</time>
        <extensions>
          <ns3:TrackPointExtension>
            <ns3:atemp>14.0</ns3:atemp>
          </ns3:TrackPointExtension>
        </extensions>
      </trkpt>
      <trkpt lat="43.14456355758011341094970703125" lon="13.05918007157742977142333984375">
        <ele>458</ele>
        <time>2021-05-09T06:50:49.000Z</time>
        <extensions>
          <ns3:TrackPointExtension>
            <ns3:atemp>14.0</ns3:atemp>
          </ns3:TrackPointExtension>
        </extensions>
      </trkpt>
      <trkpt lat="43.1445804052054882049560546875" lon="13.05924025364220142364501953125">
        <ele>459</ele>
        <time>2021-05-09T06:50:51.000Z</time>
        <extensions>
          <ns3:TrackPointExtension>
            <ns3:atemp>14.0</ns3:atemp>
          </ns3:TrackPointExtension>
        </extensions>
      </trkpt>
      <trkpt lat="43.14461183734238147735595703125" lon="13.059323318302631378173828125">
        <ele>460.399993896484375</ele>
        <time>2021-05-09T06:50:54.000Z</time>
        <extensions>
          <ns3:TrackPointExtension>
            <ns3:atemp>14.0</ns3:atemp>
          </ns3:TrackPointExtension>
        </extensions>
      </trkpt>
      <trkpt lat="43.1446437723934650421142578125" lon="13.05940520949661731719970703125">
        <ele>461.399993896484375</ele>
        <time>2021-05-09T06:50:57.000Z</time>
        <extensions>
          <ns3:TrackPointExtension>
            <ns3:atemp>14.0</ns3:atemp>
          </ns3:TrackPointExtension>
        </extensions>
      </trkpt>
      <trkpt lat="43.14465492032468318939208984375" lon="13.05943203158676624298095703125">
        <ele>461.600006103515625</ele>
        <time>2021-05-09T06:50:58.000Z</time>
        <extensions>
          <ns3:TrackPointExtension>
            <ns3:atemp>14.0</ns3:atemp>
          </ns3:TrackPointExtension>
        </extensions>
      </trkpt>
      <trkpt lat="43.14471040852367877960205078125" lon="13.0595326982438564300537109375">
        <ele>462.600006103515625</ele>
        <time>2021-05-09T06:51:02.000Z</time>
        <extensions>
          <ns3:TrackPointExtension>
            <ns3:atemp>14.0</ns3:atemp>
          </ns3:TrackPointExtension>
        </extensions>
      </trkpt>
      <trkpt lat="43.14476489089429378509521484375" lon="13.05960453115403652191162109375">
        <ele>463.600006103515625</ele>
        <time>2021-05-09T06:51:05.000Z</time>
        <extensions>
          <ns3:TrackPointExtension>
            <ns3:atemp>14.0</ns3:atemp>
          </ns3:TrackPointExtension>
        </extensions>
      </trkpt>
      <trkpt lat="43.1447809003293514251708984375" lon="13.0596295930445194244384765625">
        <ele>464</ele>
        <time>2021-05-09T06:51:06.000Z</time>
        <extensions>
          <ns3:TrackPointExtension>
            <ns3:atemp>14.0</ns3:atemp>
          </ns3:TrackPointExtension>
        </extensions>
      </trkpt>
      <trkpt lat="43.1448648869991302490234375" lon="13.05972791276872158050537109375">
        <ele>465.20001220703125</ele>
        <time>2021-05-09T06:51:10.000Z</time>
        <extensions>
          <ns3:TrackPointExtension>
            <ns3:atemp>14.0</ns3:atemp>
          </ns3:TrackPointExtension>
        </extensions>
      </trkpt>
      <trkpt lat="43.14494728110730648040771484375" lon="13.05983997881412506103515625">
        <ele>466.399993896484375</ele>
        <time>2021-05-09T06:51:14.000Z</time>
        <extensions>
          <ns3:TrackPointExtension>
            <ns3:atemp>14.0</ns3:atemp>
          </ns3:TrackPointExtension>
        </extensions>
      </trkpt>
      <trkpt lat="43.14494359306991100311279296875" lon="13.0599873326718807220458984375">
        <ele>467.399993896484375</ele>
        <time>2021-05-09T06:51:18.000Z</time>
        <extensions>
          <ns3:TrackPointExtension>
            <ns3:atemp>15.0</ns3:atemp>
          </ns3:TrackPointExtension>
        </extensions>
      </trkpt>
      <trkpt lat="43.14481652341783046722412109375" lon="13.060110546648502349853515625">
        <ele>468.399993896484375</ele>
        <time>2021-05-09T06:51:23.000Z</time>
        <extensions>
          <ns3:TrackPointExtension>
            <ns3:atemp>15.0</ns3:atemp>
          </ns3:TrackPointExtension>
        </extensions>
      </trkpt>
      <trkpt lat="43.14473412930965423583984375" lon="13.060280196368694305419921875">
        <ele>469</ele>
        <time>2021-05-09T06:51:28.000Z</time>
        <extensions>
          <ns3:TrackPointExtension>
            <ns3:atemp>15.0</ns3:atemp>
          </ns3:TrackPointExtension>
        </extensions>
      </trkpt>
      <trkpt lat="43.14473119564354419708251953125" lon="13.06033140979707241058349609375">
        <ele>469</ele>
        <time>2021-05-09T06:51:29.000Z</time>
        <extensions>
          <ns3:TrackPointExtension>
            <ns3:atemp>15.0</ns3:atemp>
          </ns3:TrackPointExtension>
        </extensions>
      </trkpt>
      <trkpt lat="43.14474561251699924468994140625" lon="13.060563504695892333984375">
        <ele>469</ele>
        <time>2021-05-09T06:51:33.000Z</time>
        <extensions>
          <ns3:TrackPointExtension>
            <ns3:atemp>15.0</ns3:atemp>
          </ns3:TrackPointExtension>
        </extensions>
      </trkpt>
      <trkpt lat="43.14483798108994960784912109375" lon="13.06101688183844089508056640625">
        <ele>468.79998779296875</ele>
        <time>2021-05-09T06:51:40.000Z</time>
        <extensions>
          <ns3:TrackPointExtension>
            <ns3:atemp>15.0</ns3:atemp>
          </ns3:TrackPointExtension>
        </extensions>
      </trkpt>
      <trkpt lat="43.14486949704587459564208984375" lon="13.06123414076864719390869140625">
        <ele>468.600006103515625</ele>
        <time>2021-05-09T06:51:43.000Z</time>
        <extensions>
          <ns3:TrackPointExtension>
            <ns3:atemp>15.0</ns3:atemp>
          </ns3:TrackPointExtension>
        </extensions>
      </trkpt>
      <trkpt lat="43.14486077986657619476318359375" lon="13.0614625476300716400146484375">
        <ele>468.20001220703125</ele>
        <time>2021-05-09T06:51:46.000Z</time>
        <extensions>
          <ns3:TrackPointExtension>
            <ns3:atemp>15.0</ns3:atemp>
          </ns3:TrackPointExtension>
        </extensions>
      </trkpt>
      <trkpt lat="43.1448372267186641693115234375" lon="13.06165642105042934417724609375">
        <ele>467.20001220703125</ele>
        <time>2021-05-09T06:51:49.000Z</time>
        <extensions>
          <ns3:TrackPointExtension>
            <ns3:atemp>15.0</ns3:atemp>
          </ns3:TrackPointExtension>
        </extensions>
      </trkpt>
      <trkpt lat="43.1448063813149929046630859375" lon="13.06175465695559978485107421875">
        <ele>467</ele>
        <time>2021-05-09T06:51:51.000Z</time>
        <extensions>
          <ns3:TrackPointExtension>
            <ns3:atemp>15.0</ns3:atemp>
          </ns3:TrackPointExtension>
        </extensions>
      </trkpt>
      <trkpt lat="43.1447557546198368072509765625" lon="13.0620990693569183349609375">
        <ele>466.79998779296875</ele>
        <time>2021-05-09T06:51:58.000Z</time>
        <extensions>
          <ns3:TrackPointExtension>
            <ns3:atemp>15.0</ns3:atemp>
          </ns3:TrackPointExtension>
        </extensions>
      </trkpt>
      <trkpt lat="43.144670762121677398681640625" lon="13.06244415231049060821533203125">
        <ele>468.20001220703125</ele>
        <time>2021-05-09T06:52:05.000Z</time>
        <extensions>
          <ns3:TrackPointExtension>
            <ns3:atemp>15.0</ns3:atemp>
          </ns3:TrackPointExtension>
        </extensions>
      </trkpt>
      <trkpt lat="43.14465642906725406646728515625" lon="13.06249092333018779754638671875">
        <ele>468.20001220703125</ele>
        <time>2021-05-09T06:52:06.000Z</time>
        <extensions>
          <ns3:TrackPointExtension>
            <ns3:atemp>15.0</ns3:atemp>
          </ns3:TrackPointExtension>
        </extensions>
      </trkpt>
      <trkpt lat="43.14457830972969532012939453125" lon="13.06277775205671787261962890625">
        <ele>469.20001220703125</ele>
        <time>2021-05-09T06:52:12.000Z</time>
        <extensions>
          <ns3:TrackPointExtension>
            <ns3:atemp>15.0</ns3:atemp>
          </ns3:TrackPointExtension>
        </extensions>
      </trkpt>
      <trkpt lat="43.1444821693003177642822265625" lon="13.062995262444019317626953125">
        <ele>470.20001220703125</ele>
        <time>2021-05-09T06:52:17.000Z</time>
        <extensions>
          <ns3:TrackPointExtension>
            <ns3:atemp>15.0</ns3:atemp>
          </ns3:TrackPointExtension>
        </extensions>
      </trkpt>
      <trkpt lat="43.1444120965898036956787109375" lon="13.06310833431780338287353515625">
        <ele>471</ele>
        <time>2021-05-09T06:52:20.000Z</time>
        <extensions>
          <ns3:TrackPointExtension>
            <ns3:atemp>15.0</ns3:atemp>
          </ns3:TrackPointExtension>
        </extensions>
      </trkpt>
      <trkpt lat="43.14438586123287677764892578125" lon="13.0631436221301555633544921875">
        <ele>471.399993896484375</ele>
        <time>2021-05-09T06:52:21.000Z</time>
        <extensions>
          <ns3:TrackPointExtension>
            <ns3:atemp>15.0</ns3:atemp>
          </ns3:TrackPointExtension>
        </extensions>
      </trkpt>
      <trkpt lat="43.1443319655954837799072265625" lon="13.06320673786103725433349609375">
        <ele>472.600006103515625</ele>
        <time>2021-05-09T06:52:23.000Z</time>
        <extensions>
          <ns3:TrackPointExtension>
            <ns3:atemp>15.0</ns3:atemp>
          </ns3:TrackPointExtension>
        </extensions>
      </trkpt>
      <trkpt lat="43.144221492111682891845703125" lon="13.06329910643398761749267578125">
        <ele>473.79998779296875</ele>
        <time>2021-05-09T06:52:27.000Z</time>
        <extensions>
          <ns3:TrackPointExtension>
            <ns3:atemp>15.0</ns3:atemp>
          </ns3:TrackPointExtension>
        </extensions>
      </trkpt>
      <trkpt lat="43.144123256206512451171875" lon="13.0633789859712123870849609375">
        <ele>475</ele>
        <time>2021-05-09T06:52:31.000Z</time>
        <extensions>
          <ns3:TrackPointExtension>
            <ns3:atemp>14.0</ns3:atemp>
          </ns3:TrackPointExtension>
        </extensions>
      </trkpt>
      <trkpt lat="43.1440627388656139373779296875" lon="13.063435815274715423583984375">
        <ele>476</ele>
        <time>2021-05-09T06:52:34.000Z</time>
        <extensions>
          <ns3:TrackPointExtension>
            <ns3:atemp>14.0</ns3:atemp>
          </ns3:TrackPointExtension>
        </extensions>
      </trkpt>
      <trkpt lat="43.1440402753651142120361328125" lon="13.0634560994803905487060546875">
        <ele>476.20001220703125</ele>
        <time>2021-05-09T06:52:35.000Z</time>
        <extensions>
          <ns3:TrackPointExtension>
            <ns3:atemp>14.0</ns3:atemp>
          </ns3:TrackPointExtension>
        </extensions>
      </trkpt>
      <trkpt lat="43.1439735554158687591552734375" lon="13.06351535953581333160400390625">
        <ele>477.399993896484375</ele>
        <time>2021-05-09T06:52:38.000Z</time>
        <extensions>
          <ns3:TrackPointExtension>
            <ns3:atemp>14.0</ns3:atemp>
          </ns3:TrackPointExtension>
        </extensions>
      </trkpt>
      <trkpt lat="43.1439071707427501678466796875" lon="13.0635778047144412994384765625">
        <ele>478.399993896484375</ele>
        <time>2021-05-09T06:52:41.000Z</time>
        <extensions>
          <ns3:TrackPointExtension>
            <ns3:atemp>14.0</ns3:atemp>
          </ns3:TrackPointExtension>
        </extensions>
      </trkpt>
      <trkpt lat="43.14384472556412220001220703125" lon="13.063641674816608428955078125">
        <ele>479.399993896484375</ele>
        <time>2021-05-09T06:52:44.000Z</time>
        <extensions>
          <ns3:TrackPointExtension>
            <ns3:atemp>14.0</ns3:atemp>
          </ns3:TrackPointExtension>
        </extensions>
      </trkpt>
      <trkpt lat="43.14382611773908138275146484375" lon="13.06366120465099811553955078125">
        <ele>479.600006103515625</ele>
        <time>2021-05-09T06:52:45.000Z</time>
        <extensions>
          <ns3:TrackPointExtension>
            <ns3:atemp>14.0</ns3:atemp>
          </ns3:TrackPointExtension>
        </extensions>
      </trkpt>
      <trkpt lat="43.1437613256275653839111328125" lon="13.063748963177204132080078125">
        <ele>480.79998779296875</ele>
        <time>2021-05-09T06:52:49.000Z</time>
        <extensions>
          <ns3:TrackPointExtension>
            <ns3:atemp>14.0</ns3:atemp>
          </ns3:TrackPointExtension>
        </extensions>
      </trkpt>
      <trkpt lat="43.14373441971838474273681640625" lon="13.0637883581221103668212890625">
        <ele>481.600006103515625</ele>
        <time>2021-05-09T06:52:51.000Z</time>
        <extensions>
          <ns3:TrackPointExtension>
            <ns3:atemp>14.0</ns3:atemp>
          </ns3:TrackPointExtension>
        </extensions>
      </trkpt>
      <trkpt lat="43.14372025430202484130859375" lon="13.06380537338554859161376953125">
        <ele>481.79998779296875</ele>
        <time>2021-05-09T06:52:52.000Z</time>
        <extensions>
          <ns3:TrackPointExtension>
            <ns3:atemp>14.0</ns3:atemp>
          </ns3:TrackPointExtension>
        </extensions>
      </trkpt>
      <trkpt lat="43.14367490820586681365966796875" lon="13.0639103986322879791259765625">
        <ele>482.79998779296875</ele>
        <time>2021-05-09T06:52:56.000Z</time>
        <extensions>
          <ns3:TrackPointExtension>
            <ns3:atemp>14.0</ns3:atemp>
          </ns3:TrackPointExtension>
        </extensions>
      </trkpt>
      <trkpt lat="43.14365847967565059661865234375" lon="13.0639792978763580322265625">
        <ele>483.600006103515625</ele>
        <time>2021-05-09T06:52:58.000Z</time>
        <extensions>
          <ns3:TrackPointExtension>
            <ns3:atemp>14.0</ns3:atemp>
          </ns3:TrackPointExtension>
        </extensions>
      </trkpt>
      <trkpt lat="43.14365177415311336517333984375" lon="13.06405046023428440093994140625">
        <ele>484.20001220703125</ele>
        <time>2021-05-09T06:53:00.000Z</time>
        <extensions>
          <ns3:TrackPointExtension>
            <ns3:atemp>14.0</ns3:atemp>
          </ns3:TrackPointExtension>
        </extensions>
      </trkpt>
      <trkpt lat="43.1436342559754848480224609375" lon="13.06415087543427944183349609375">
        <ele>485.20001220703125</ele>
        <time>2021-05-09T06:53:03.000Z</time>
        <extensions>
          <ns3:TrackPointExtension>
            <ns3:atemp>14.0</ns3:atemp>
          </ns3:TrackPointExtension>
        </extensions>
      </trkpt>
      <trkpt lat="43.14362042583525180816650390625" lon="13.06424559094011783599853515625">
        <ele>486</ele>
        <time>2021-05-09T06:53:06.000Z</time>
        <extensions>
          <ns3:TrackPointExtension>
            <ns3:atemp>14.0</ns3:atemp>
          </ns3:TrackPointExtension>
        </extensions>
      </trkpt>
      <trkpt lat="43.14361640252172946929931640625" lon="13.06427643634378910064697265625">
        <ele>486.399993896484375</ele>
        <time>2021-05-09T06:53:07.000Z</time>
        <extensions>
          <ns3:TrackPointExtension>
            <ns3:atemp>14.0</ns3:atemp>
          </ns3:TrackPointExtension>
        </extensions>
      </trkpt>
      <trkpt lat="43.1436057575047016143798828125" lon="13.06440635584294795989990234375">
        <ele>487.399993896484375</ele>
        <time>2021-05-09T06:53:11.000Z</time>
        <extensions>
          <ns3:TrackPointExtension>
            <ns3:atemp>14.0</ns3:atemp>
          </ns3:TrackPointExtension>
        </extensions>
      </trkpt>
      <trkpt lat="43.14361204393208026885986328125" lon="13.06454055011272430419921875">
        <ele>488.79998779296875</ele>
        <time>2021-05-09T06:53:15.000Z</time>
        <extensions>
          <ns3:TrackPointExtension>
            <ns3:atemp>14.0</ns3:atemp>
          </ns3:TrackPointExtension>
        </extensions>
      </trkpt>
      <trkpt lat="43.1436203420162200927734375" lon="13.06467373855412006378173828125">
        <ele>490</ele>
        <time>2021-05-09T06:53:19.000Z</time>
        <extensions>
          <ns3:TrackPointExtension>
            <ns3:atemp>15.0</ns3:atemp>
          </ns3:TrackPointExtension>
        </extensions>
      </trkpt>
      <trkpt lat="43.143629394471645355224609375" lon="13.064736686646938323974609375">
        <ele>491</ele>
        <time>2021-05-09T06:53:21.000Z</time>
        <extensions>
          <ns3:TrackPointExtension>
            <ns3:atemp>15.0</ns3:atemp>
          </ns3:TrackPointExtension>
        </extensions>
      </trkpt>
      <trkpt lat="43.1436563841998577117919921875" lon="13.0648568831384181976318359375">
        <ele>492</ele>
        <time>2021-05-09T06:53:25.000Z</time>
        <extensions>
          <ns3:TrackPointExtension>
            <ns3:atemp>15.0</ns3:atemp>
          </ns3:TrackPointExtension>
        </extensions>
      </trkpt>
      <trkpt lat="43.1436915881931781768798828125" lon="13.0650079250335693359375">
        <ele>493.20001220703125</ele>
        <time>2021-05-09T06:53:30.000Z</time>
        <extensions>
          <ns3:TrackPointExtension>
            <ns3:atemp>15.0</ns3:atemp>
          </ns3:TrackPointExtension>
        </extensions>
      </trkpt>
      <trkpt lat="43.14372017048299312591552734375" lon="13.06509668938815593719482421875">
        <ele>494</ele>
        <time>2021-05-09T06:53:33.000Z</time>
        <extensions>
          <ns3:TrackPointExtension>
            <ns3:atemp>15.0</ns3:atemp>
          </ns3:TrackPointExtension>
        </extensions>
      </trkpt>
      <trkpt lat="43.14374464564025402069091796875" lon="13.06515184231102466583251953125">
        <ele>494.399993896484375</ele>
        <time>2021-05-09T06:53:35.000Z</time>
        <extensions>
          <ns3:TrackPointExtension>
            <ns3:atemp>15.0</ns3:atemp>
          </ns3:TrackPointExtension>
        </extensions>
      </trkpt>
      <trkpt lat="43.14379409886896610260009765625" lon="13.06526047177612781524658203125">
        <ele>495.600006103515625</ele>
        <time>2021-05-09T06:53:39.000Z</time>
        <extensions>
          <ns3:TrackPointExtension>
            <ns3:atemp>15.0</ns3:atemp>
          </ns3:TrackPointExtension>
        </extensions>
      </trkpt>
      <trkpt lat="43.1438659317791461944580078125" lon="13.06538988836109638214111328125">
        <ele>496.79998779296875</ele>
        <time>2021-05-09T06:53:44.000Z</time>
        <extensions>
          <ns3:TrackPointExtension>
            <ns3:atemp>15.0</ns3:atemp>
          </ns3:TrackPointExtension>
        </extensions>
      </trkpt>
      <trkpt lat="43.1438806839287281036376953125" lon="13.065415285527706146240234375">
        <ele>497</ele>
        <time>2021-05-09T06:53:45.000Z</time>
        <extensions>
          <ns3:TrackPointExtension>
            <ns3:atemp>15.0</ns3:atemp>
          </ns3:TrackPointExtension>
        </extensions>
      </trkpt>
      <trkpt lat="43.14393692649900913238525390625" lon="13.065515868365764617919921875">
        <ele>497.79998779296875</ele>
        <time>2021-05-09T06:53:49.000Z</time>
        <extensions>
          <ns3:TrackPointExtension>
            <ns3:atemp>15.0</ns3:atemp>
          </ns3:TrackPointExtension>
        </extensions>
      </trkpt>
      <trkpt lat="43.14400414936244487762451171875" lon="13.06564402766525745391845703125">
        <ele>499.20001220703125</ele>
        <time>2021-05-09T06:53:54.000Z</time>
        <extensions>
          <ns3:TrackPointExtension>
            <ns3:atemp>15.0</ns3:atemp>
          </ns3:TrackPointExtension>
        </extensions>
      </trkpt>
      <trkpt lat="43.144033066928386688232421875" lon="13.0656933970749378204345703125">
        <ele>500</ele>
        <time>2021-05-09T06:53:56.000Z</time>
        <extensions>
          <ns3:TrackPointExtension>
            <ns3:atemp>15.0</ns3:atemp>
          </ns3:TrackPointExtension>
        </extensions>
      </trkpt>
      <trkpt lat="43.144046477973461151123046875" lon="13.06571996770799160003662109375">
        <ele>500.20001220703125</ele>
        <time>2021-05-09T06:53:57.000Z</time>
        <extensions>
          <ns3:TrackPointExtension>
            <ns3:atemp>15.0</ns3:atemp>
          </ns3:TrackPointExtension>
        </extensions>
      </trkpt>
      <trkpt lat="43.14410372637212276458740234375" lon="13.065819628536701202392578125">
        <ele>501.399993896484375</ele>
        <time>2021-05-09T06:54:01.000Z</time>
        <extensions>
          <ns3:TrackPointExtension>
            <ns3:atemp>15.0</ns3:atemp>
          </ns3:TrackPointExtension>
        </extensions>
      </trkpt>
      <trkpt lat="43.1441505812108516693115234375" lon="13.06592322885990142822265625">
        <ele>502.399993896484375</ele>
        <time>2021-05-09T06:54:05.000Z</time>
        <extensions>
          <ns3:TrackPointExtension>
            <ns3:atemp>15.0</ns3:atemp>
          </ns3:TrackPointExtension>
        </extensions>
      </trkpt>
      <trkpt lat="43.14414882101118564605712890625" lon="13.06597762741148471832275390625">
        <ele>502.79998779296875</ele>
        <time>2021-05-09T06:54:07.000Z</time>
        <extensions>
          <ns3:TrackPointExtension>
            <ns3:atemp>15.0</ns3:atemp>
          </ns3:TrackPointExtension>
        </extensions>
      </trkpt>
      <trkpt lat="43.1441277824342250823974609375" lon="13.0660263262689113616943359375">
        <ele>503.399993896484375</ele>
        <time>2021-05-09T06:54:09.000Z</time>
        <extensions>
          <ns3:TrackPointExtension>
            <ns3:atemp>15.0</ns3:atemp>
          </ns3:TrackPointExtension>
        </extensions>
      </trkpt>
      <trkpt lat="43.1441160477697849273681640625" lon="13.0660508014261722564697265625">
        <ele>503.79998779296875</ele>
        <time>2021-05-09T06:54:10.000Z</time>
        <extensions>
          <ns3:TrackPointExtension>
            <ns3:atemp>15.0</ns3:atemp>
          </ns3:TrackPointExtension>
        </extensions>
      </trkpt>
      <trkpt lat="43.14410540275275707244873046875" lon="13.06607653386890888214111328125">
        <ele>504</ele>
        <time>2021-05-09T06:54:11.000Z</time>
        <extensions>
          <ns3:TrackPointExtension>
            <ns3:atemp>15.0</ns3:atemp>
          </ns3:TrackPointExtension>
        </extensions>
      </trkpt>
      <trkpt lat="43.14408428035676479339599609375" lon="13.06612447835505008697509765625">
        <ele>504.600006103515625</ele>
        <time>2021-05-09T06:54:13.000Z</time>
        <extensions>
          <ns3:TrackPointExtension>
            <ns3:atemp>15.0</ns3:atemp>
          </ns3:TrackPointExtension>
        </extensions>
      </trkpt>
      <trkpt lat="43.14404723234474658966064453125" lon="13.06619237177073955535888671875">
        <ele>505.600006103515625</ele>
        <time>2021-05-09T06:54:16.000Z</time>
        <extensions>
          <ns3:TrackPointExtension>
            <ns3:atemp>15.0</ns3:atemp>
          </ns3:TrackPointExtension>
        </extensions>
      </trkpt>
      <trkpt lat="43.14401521347463130950927734375" lon="13.06622556410729885101318359375">
        <ele>506.399993896484375</ele>
        <time>2021-05-09T06:54:18.000Z</time>
        <extensions>
          <ns3:TrackPointExtension>
            <ns3:atemp>15.0</ns3:atemp>
          </ns3:TrackPointExtension>
        </extensions>
      </trkpt>
      <trkpt lat="43.14397414214909076690673828125" lon="13.06624886579811573028564453125">
        <ele>506.600006103515625</ele>
        <time>2021-05-09T06:54:20.000Z</time>
        <extensions>
          <ns3:TrackPointExtension>
            <ns3:atemp>15.0</ns3:atemp>
          </ns3:TrackPointExtension>
        </extensions>
      </trkpt>
      <trkpt lat="43.14389526844024658203125" lon="13.0662942118942737579345703125">
        <ele>507.79998779296875</ele>
        <time>2021-05-09T06:54:24.000Z</time>
        <extensions>
          <ns3:TrackPointExtension>
            <ns3:atemp>15.0</ns3:atemp>
          </ns3:TrackPointExtension>
        </extensions>
      </trkpt>
      <trkpt lat="43.1438555382192134857177734375" lon="13.0663166753947734832763671875">
        <ele>508.600006103515625</ele>
        <time>2021-05-09T06:54:26.000Z</time>
        <extensions>
          <ns3:TrackPointExtension>
            <ns3:atemp>15.0</ns3:atemp>
          </ns3:TrackPointExtension>
        </extensions>
      </trkpt>
      <trkpt lat="43.14383558928966522216796875" lon="13.0663289129734039306640625">
        <ele>509</ele>
        <time>2021-05-09T06:54:27.000Z</time>
        <extensions>
          <ns3:TrackPointExtension>
            <ns3:atemp>15.0</ns3:atemp>
          </ns3:TrackPointExtension>
        </extensions>
      </trkpt>
      <trkpt lat="43.14375721849501132965087890625" lon="13.066378869116306304931640625">
        <ele>510.20001220703125</ele>
        <time>2021-05-09T06:54:31.000Z</time>
        <extensions>
          <ns3:TrackPointExtension>
            <ns3:atemp>15.0</ns3:atemp>
          </ns3:TrackPointExtension>
        </extensions>
      </trkpt>
      <trkpt lat="43.143719248473644256591796875" lon="13.06640678085386753082275390625">
        <ele>510.79998779296875</ele>
        <time>2021-05-09T06:54:33.000Z</time>
        <extensions>
          <ns3:TrackPointExtension>
            <ns3:atemp>15.0</ns3:atemp>
          </ns3:TrackPointExtension>
        </extensions>
      </trkpt>
      <trkpt lat="43.14366769976913928985595703125" lon="13.06645941920578479766845703125">
        <ele>511.399993896484375</ele>
        <time>2021-05-09T06:54:36.000Z</time>
        <extensions>
          <ns3:TrackPointExtension>
            <ns3:atemp>15.0</ns3:atemp>
          </ns3:TrackPointExtension>
        </extensions>
      </trkpt>
      <trkpt lat="43.14362495206296443939208984375" lon="13.06650786660611629486083984375">
        <ele>512.4000244140625</ele>
        <time>2021-05-09T06:54:39.000Z</time>
        <extensions>
          <ns3:TrackPointExtension>
            <ns3:atemp>15.0</ns3:atemp>
          </ns3:TrackPointExtension>
        </extensions>
      </trkpt>
      <trkpt lat="43.14360735006630420684814453125" lon="13.0665211938321590423583984375">
        <ele>512.5999755859375</ele>
        <time>2021-05-09T06:54:40.000Z</time>
        <extensions>
          <ns3:TrackPointExtension>
            <ns3:atemp>15.0</ns3:atemp>
          </ns3:TrackPointExtension>
        </extensions>
      </trkpt>
      <trkpt lat="43.14351028762757778167724609375" lon="13.06659403257071971893310546875">
        <ele>513.5999755859375</ele>
        <time>2021-05-09T06:54:45.000Z</time>
        <extensions>
          <ns3:TrackPointExtension>
            <ns3:atemp>15.0</ns3:atemp>
          </ns3:TrackPointExtension>
        </extensions>
      </trkpt>
      <trkpt lat="43.14345228485763072967529296875" lon="13.06664667092263698577880859375">
        <ele>514.5999755859375</ele>
        <time>2021-05-09T06:54:48.000Z</time>
        <extensions>
          <ns3:TrackPointExtension>
            <ns3:atemp>14.0</ns3:atemp>
          </ns3:TrackPointExtension>
        </extensions>
      </trkpt>
      <trkpt lat="43.1434327550232410430908203125" lon="13.06666544638574123382568359375">
        <ele>514.79998779296875</ele>
        <time>2021-05-09T06:54:49.000Z</time>
        <extensions>
          <ns3:TrackPointExtension>
            <ns3:atemp>14.0</ns3:atemp>
          </ns3:TrackPointExtension>
        </extensions>
      </trkpt>
      <trkpt lat="43.14331448636949062347412109375" lon="13.066783212125301361083984375">
        <ele>515.79998779296875</ele>
        <time>2021-05-09T06:54:55.000Z</time>
        <extensions>
          <ns3:TrackPointExtension>
            <ns3:atemp>14.0</ns3:atemp>
          </ns3:TrackPointExtension>
        </extensions>
      </trkpt>
      <trkpt lat="43.1432684697210788726806640625" lon="13.066821433603763580322265625">
        <ele>516.4000244140625</ele>
        <time>2021-05-09T06:54:57.000Z</time>
        <extensions>
          <ns3:TrackPointExtension>
            <ns3:atemp>14.0</ns3:atemp>
          </ns3:TrackPointExtension>
        </extensions>
      </trkpt>
      <trkpt lat="43.14320418052375316619873046875" lon="13.066871054470539093017578125">
        <ele>517</ele>
        <time>2021-05-09T06:55:00.000Z</time>
        <extensions>
          <ns3:TrackPointExtension>
            <ns3:atemp>14.0</ns3:atemp>
          </ns3:TrackPointExtension>
        </extensions>
      </trkpt>
      <trkpt lat="43.14310091547667980194091796875" lon="13.066989742219448089599609375">
        <ele>517.79998779296875</ele>
        <time>2021-05-09T06:55:05.000Z</time>
        <extensions>
          <ns3:TrackPointExtension>
            <ns3:atemp>14.0</ns3:atemp>
          </ns3:TrackPointExtension>
        </extensions>
      </trkpt>
      <trkpt lat="43.14305062405765056610107421875" lon="13.0670448951423168182373046875">
        <ele>518</ele>
        <time>2021-05-09T06:55:07.000Z</time>
        <extensions>
          <ns3:TrackPointExtension>
            <ns3:atemp>14.0</ns3:atemp>
          </ns3:TrackPointExtension>
        </extensions>
      </trkpt>
      <trkpt lat="43.1429284997284412384033203125" lon="13.067158721387386322021484375">
        <ele>518.5999755859375</ele>
        <time>2021-05-09T06:55:12.000Z</time>
        <extensions>
          <ns3:TrackPointExtension>
            <ns3:atemp>14.0</ns3:atemp>
          </ns3:TrackPointExtension>
        </extensions>
      </trkpt>
      <trkpt lat="43.1428275816142559051513671875" lon="13.06724287569522857666015625">
        <ele>519.20001220703125</ele>
        <time>2021-05-09T06:55:16.000Z</time>
        <extensions>
          <ns3:TrackPointExtension>
            <ns3:atemp>14.0</ns3:atemp>
          </ns3:TrackPointExtension>
        </extensions>
      </trkpt>
      <trkpt lat="43.1427544914186000823974609375" lon="13.0672909878194332122802734375">
        <ele>519.5999755859375</ele>
        <time>2021-05-09T06:55:19.000Z</time>
        <extensions>
          <ns3:TrackPointExtension>
            <ns3:atemp>14.0</ns3:atemp>
          </ns3:TrackPointExtension>
        </extensions>
      </trkpt>
      <trkpt lat="43.14270646311342716217041015625" lon="13.0673308856785297393798828125">
        <ele>520</ele>
        <time>2021-05-09T06:55:21.000Z</time>
        <extensions>
          <ns3:TrackPointExtension>
            <ns3:atemp>14.0</ns3:atemp>
          </ns3:TrackPointExtension>
        </extensions>
      </trkpt>
      <trkpt lat="43.14260604791343212127685546875" lon="13.06746818125247955322265625">
        <ele>521</ele>
        <time>2021-05-09T06:55:26.000Z</time>
        <extensions>
          <ns3:TrackPointExtension>
            <ns3:atemp>14.0</ns3:atemp>
          </ns3:TrackPointExtension>
        </extensions>
      </trkpt>
      <trkpt lat="43.1426337920129299163818359375" lon="13.0675977654755115509033203125">
        <ele>521.5999755859375</ele>
        <time>2021-05-09T06:55:29.000Z</time>
        <extensions>
          <ns3:TrackPointExtension>
            <ns3:atemp>14.0</ns3:atemp>
          </ns3:TrackPointExtension>
        </extensions>
      </trkpt>
      <trkpt lat="43.1427377276122570037841796875" lon="13.0677566863596439361572265625">
        <ele>522</ele>
        <time>2021-05-09T06:55:33.000Z</time>
        <extensions>
          <ns3:TrackPointExtension>
            <ns3:atemp>15.0</ns3:atemp>
          </ns3:TrackPointExtension>
        </extensions>
      </trkpt>
      <trkpt lat="43.14280671067535877227783203125" lon="13.06784293614327907562255859375">
        <ele>522</ele>
        <time>2021-05-09T06:55:35.000Z</time>
        <extensions>
          <ns3:TrackPointExtension>
            <ns3:atemp>15.0</ns3:atemp>
          </ns3:TrackPointExtension>
        </extensions>
      </trkpt>
      <trkpt lat="43.14300066791474819183349609375" lon="13.0680433474481105804443359375">
        <ele>522</ele>
        <time>2021-05-09T06:55:39.000Z</time>
        <extensions>
          <ns3:TrackPointExtension>
            <ns3:atemp>15.0</ns3:atemp>
          </ns3:TrackPointExtension>
        </extensions>
      </trkpt>
      <trkpt lat="43.14306017942726612091064453125" lon="13.06831441819667816162109375">
        <ele>521.79998779296875</ele>
        <time>2021-05-09T06:55:42.000Z</time>
        <extensions>
          <ns3:TrackPointExtension>
            <ns3:atemp>15.0</ns3:atemp>
          </ns3:TrackPointExtension>
        </extensions>
      </trkpt>
      <trkpt lat="43.14311164431273937225341796875" lon="13.0686347745358943939208984375">
        <ele>519.20001220703125</ele>
        <time>2021-05-09T06:55:46.000Z</time>
        <extensions>
          <ns3:TrackPointExtension>
            <ns3:atemp>15.0</ns3:atemp>
          </ns3:TrackPointExtension>
        </extensions>
      </trkpt>
      <trkpt lat="43.14313947223126888275146484375" lon="13.06869797408580780029296875">
        <ele>518.5999755859375</ele>
        <time>2021-05-09T06:55:47.000Z</time>
        <extensions>
          <ns3:TrackPointExtension>
            <ns3:atemp>15.0</ns3:atemp>
          </ns3:TrackPointExtension>
        </extensions>
      </trkpt>
      <trkpt lat="43.1432061083614826202392578125" lon="13.06886921636760234832763671875">
        <ele>518.20001220703125</ele>
        <time>2021-05-09T06:55:50.000Z</time>
        <extensions>
          <ns3:TrackPointExtension>
            <ns3:atemp>15.0</ns3:atemp>
          </ns3:TrackPointExtension>
        </extensions>
      </trkpt>
      <trkpt lat="43.14321608282625675201416015625" lon="13.06892462074756622314453125">
        <ele>518.20001220703125</ele>
        <time>2021-05-09T06:55:51.000Z</time>
        <extensions>
          <ns3:TrackPointExtension>
            <ns3:atemp>15.0</ns3:atemp>
          </ns3:TrackPointExtension>
        </extensions>
      </trkpt>
      <trkpt lat="43.143212981522083282470703125" lon="13.06910038925707340240478515625">
        <ele>518.20001220703125</ele>
        <time>2021-05-09T06:55:54.000Z</time>
        <extensions>
          <ns3:TrackPointExtension>
            <ns3:atemp>15.0</ns3:atemp>
          </ns3:TrackPointExtension>
        </extensions>
      </trkpt>
      <trkpt lat="43.14320149831473827362060546875" lon="13.0692780017852783203125">
        <ele>518.5999755859375</ele>
        <time>2021-05-09T06:55:57.000Z</time>
        <extensions>
          <ns3:TrackPointExtension>
            <ns3:atemp>15.0</ns3:atemp>
          </ns3:TrackPointExtension>
        </extensions>
      </trkpt>
      <trkpt lat="43.14317534677684307098388671875" lon="13.06955619715154170989990234375">
        <ele>520</ele>
        <time>2021-05-09T06:56:02.000Z</time>
        <extensions>
          <ns3:TrackPointExtension>
            <ns3:atemp>15.0</ns3:atemp>
          </ns3:TrackPointExtension>
        </extensions>
      </trkpt>
      <trkpt lat="43.14316227100789546966552734375" lon="13.0697321332991123199462890625">
        <ele>520.5999755859375</ele>
        <time>2021-05-09T06:56:05.000Z</time>
        <extensions>
          <ns3:TrackPointExtension>
            <ns3:atemp>15.0</ns3:atemp>
          </ns3:TrackPointExtension>
        </extensions>
      </trkpt>
      <trkpt lat="43.14314198680222034454345703125" lon="13.06984956376254558563232421875">
        <ele>521.20001220703125</ele>
        <time>2021-05-09T06:56:07.000Z</time>
        <extensions>
          <ns3:TrackPointExtension>
            <ns3:atemp>15.0</ns3:atemp>
          </ns3:TrackPointExtension>
        </extensions>
      </trkpt>
      <trkpt lat="43.14310963265597820281982421875" lon="13.07007906027138233184814453125">
        <ele>522.4000244140625</ele>
        <time>2021-05-09T06:56:11.000Z</time>
        <extensions>
          <ns3:TrackPointExtension>
            <ns3:atemp>15.0</ns3:atemp>
          </ns3:TrackPointExtension>
        </extensions>
      </trkpt>
      <trkpt lat="43.14310695044696331024169921875" lon="13.0701341293752193450927734375">
        <ele>522.5999755859375</ele>
        <time>2021-05-09T06:56:12.000Z</time>
        <extensions>
          <ns3:TrackPointExtension>
            <ns3:atemp>15.0</ns3:atemp>
          </ns3:TrackPointExtension>
        </extensions>
      </trkpt>
      <trkpt lat="43.14310711808502674102783203125" lon="13.07030436582863330841064453125">
        <ele>523.4000244140625</ele>
        <time>2021-05-09T06:56:15.000Z</time>
        <extensions>
          <ns3:TrackPointExtension>
            <ns3:atemp>15.0</ns3:atemp>
          </ns3:TrackPointExtension>
        </extensions>
      </trkpt>
      <trkpt lat="43.1431165896356105804443359375" lon="13.0706437490880489349365234375">
        <ele>524.4000244140625</ele>
        <time>2021-05-09T06:56:21.000Z</time>
        <extensions>
          <ns3:TrackPointExtension>
            <ns3:atemp>15.0</ns3:atemp>
          </ns3:TrackPointExtension>
        </extensions>
      </trkpt>
      <trkpt lat="43.14312287606298923492431640625" lon="13.07070066221058368682861328125">
        <ele>524.4000244140625</ele>
        <time>2021-05-09T06:56:22.000Z</time>
        <extensions>
          <ns3:TrackPointExtension>
            <ns3:atemp>15.0</ns3:atemp>
          </ns3:TrackPointExtension>
        </extensions>
      </trkpt>
      <trkpt lat="43.14319931901991367340087890625" lon="13.07114926166832447052001953125">
        <ele>525.5999755859375</ele>
        <time>2021-05-09T06:56:30.000Z</time>
        <extensions>
          <ns3:TrackPointExtension>
            <ns3:atemp>14.0</ns3:atemp>
          </ns3:TrackPointExtension>
        </extensions>
      </trkpt>
      <trkpt lat="43.143264614045619964599609375" lon="13.07157657109200954437255859375">
        <ele>526.4000244140625</ele>
        <time>2021-05-09T06:56:38.000Z</time>
        <extensions>
          <ns3:TrackPointExtension>
            <ns3:atemp>14.0</ns3:atemp>
          </ns3:TrackPointExtension>
        </extensions>
      </trkpt>
      <trkpt lat="43.14328514970839023590087890625" lon="13.071738593280315399169921875">
        <ele>527.20001220703125</ele>
        <time>2021-05-09T06:56:41.000Z</time>
        <extensions>
          <ns3:TrackPointExtension>
            <ns3:atemp>14.0</ns3:atemp>
          </ns3:TrackPointExtension>
        </extensions>
      </trkpt>
      <trkpt lat="43.14329135231673717498779296875" lon="13.0718483962118625640869140625">
        <ele>527.5999755859375</ele>
        <time>2021-05-09T06:56:43.000Z</time>
        <extensions>
          <ns3:TrackPointExtension>
            <ns3:atemp>14.0</ns3:atemp>
          </ns3:TrackPointExtension>
        </extensions>
      </trkpt>
      <trkpt lat="43.14330811612308025360107421875" lon="13.07206892408430576324462890625">
        <ele>528.5999755859375</ele>
        <time>2021-05-09T06:56:47.000Z</time>
        <extensions>
          <ns3:TrackPointExtension>
            <ns3:atemp>14.0</ns3:atemp>
          </ns3:TrackPointExtension>
        </extensions>
      </trkpt>
      <trkpt lat="43.1433140672743320465087890625" lon="13.07222910225391387939453125">
        <ele>529.20001220703125</ele>
        <time>2021-05-09T06:56:50.000Z</time>
        <extensions>
          <ns3:TrackPointExtension>
            <ns3:atemp>14.0</ns3:atemp>
          </ns3:TrackPointExtension>
        </extensions>
      </trkpt>
      <trkpt lat="43.143318928778171539306640625" lon="13.07239246554672718048095703125">
        <ele>529.79998779296875</ele>
        <time>2021-05-09T06:56:53.000Z</time>
        <extensions>
          <ns3:TrackPointExtension>
            <ns3:atemp>14.0</ns3:atemp>
          </ns3:TrackPointExtension>
        </extensions>
      </trkpt>
      <trkpt lat="43.14332186244428157806396484375" lon="13.072608970105648040771484375">
        <ele>530.79998779296875</ele>
        <time>2021-05-09T06:56:57.000Z</time>
        <extensions>
          <ns3:TrackPointExtension>
            <ns3:atemp>14.0</ns3:atemp>
          </ns3:TrackPointExtension>
        </extensions>
      </trkpt>
      <trkpt lat="43.14332270063459873199462890625" lon="13.07266286574304103851318359375">
        <ele>531.20001220703125</ele>
        <time>2021-05-09T06:56:58.000Z</time>
        <extensions>
          <ns3:TrackPointExtension>
            <ns3:atemp>14.0</ns3:atemp>
          </ns3:TrackPointExtension>
        </extensions>
      </trkpt>
      <trkpt lat="43.143324293196201324462890625" lon="13.07281206361949443817138671875">
        <ele>532.20001220703125</ele>
        <time>2021-05-09T06:57:01.000Z</time>
        <extensions>
          <ns3:TrackPointExtension>
            <ns3:atemp>14.0</ns3:atemp>
          </ns3:TrackPointExtension>
        </extensions>
      </trkpt>
      <trkpt lat="43.14333946444094181060791015625" lon="13.07301306165754795074462890625">
        <ele>532.79998779296875</ele>
        <time>2021-05-09T06:57:05.000Z</time>
        <extensions>
          <ns3:TrackPointExtension>
            <ns3:atemp>14.0</ns3:atemp>
          </ns3:TrackPointExtension>
        </extensions>
      </trkpt>
      <trkpt lat="43.14335287548601627349853515625" lon="13.07311750017106533050537109375">
        <ele>533.4000244140625</ele>
        <time>2021-05-09T06:57:07.000Z</time>
        <extensions>
          <ns3:TrackPointExtension>
            <ns3:atemp>14.0</ns3:atemp>
          </ns3:TrackPointExtension>
        </extensions>
      </trkpt>
      <trkpt lat="43.143396042287349700927734375" lon="13.07348764501512050628662109375">
        <ele>534.5999755859375</ele>
        <time>2021-05-09T06:57:14.000Z</time>
        <extensions>
          <ns3:TrackPointExtension>
            <ns3:atemp>14.0</ns3:atemp>
          </ns3:TrackPointExtension>
        </extensions>
      </trkpt>
      <trkpt lat="43.143434263765811920166015625" lon="13.0737557820975780487060546875">
        <ele>535.5999755859375</ele>
        <time>2021-05-09T06:57:19.000Z</time>
        <extensions>
          <ns3:TrackPointExtension>
            <ns3:atemp>14.0</ns3:atemp>
          </ns3:TrackPointExtension>
        </extensions>
      </trkpt>
      <trkpt lat="43.1434515304863452911376953125" lon="13.07391755282878875732421875">
        <ele>536.20001220703125</ele>
        <time>2021-05-09T06:57:22.000Z</time>
        <extensions>
          <ns3:TrackPointExtension>
            <ns3:atemp>14.0</ns3:atemp>
          </ns3:TrackPointExtension>
        </extensions>
      </trkpt>
      <trkpt lat="43.14344943501055240631103515625" lon="13.07407873682677745819091796875">
        <ele>536.5999755859375</ele>
        <time>2021-05-09T06:57:25.000Z</time>
        <extensions>
          <ns3:TrackPointExtension>
            <ns3:atemp>14.0</ns3:atemp>
          </ns3:TrackPointExtension>
        </extensions>
      </trkpt>
      <trkpt lat="43.14341356046497821807861328125" lon="13.07428501546382904052734375">
        <ele>537.20001220703125</ele>
        <time>2021-05-09T06:57:29.000Z</time>
        <extensions>
          <ns3:TrackPointExtension>
            <ns3:atemp>14.0</ns3:atemp>
          </ns3:TrackPointExtension>
        </extensions>
      </trkpt>
      <trkpt lat="43.1433888338506221771240234375" lon="13.0743844248354434967041015625">
        <ele>537.79998779296875</ele>
        <time>2021-05-09T06:57:31.000Z</time>
        <extensions>
          <ns3:TrackPointExtension>
            <ns3:atemp>14.0</ns3:atemp>
          </ns3:TrackPointExtension>
        </extensions>
      </trkpt>
      <trkpt lat="43.14332135953009128570556640625" lon="13.07461467571556568145751953125">
        <ele>539</ele>
        <time>2021-05-09T06:57:36.000Z</time>
        <extensions>
          <ns3:TrackPointExtension>
            <ns3:atemp>14.0</ns3:atemp>
          </ns3:TrackPointExtension>
        </extensions>
      </trkpt>
      <trkpt lat="43.1433092057704925537109375" lon="13.07465977035462856292724609375">
        <ele>539.20001220703125</ele>
        <time>2021-05-09T06:57:37.000Z</time>
        <extensions>
          <ns3:TrackPointExtension>
            <ns3:atemp>14.0</ns3:atemp>
          </ns3:TrackPointExtension>
        </extensions>
      </trkpt>
      <trkpt lat="43.143254555761814117431640625" lon="13.07483394630253314971923828125">
        <ele>540.20001220703125</ele>
        <time>2021-05-09T06:57:41.000Z</time>
        <extensions>
          <ns3:TrackPointExtension>
            <ns3:atemp>14.0</ns3:atemp>
          </ns3:TrackPointExtension>
        </extensions>
      </trkpt>
      <trkpt lat="43.143198229372501373291015625" lon="13.07505019940435886383056640625">
        <ele>541.20001220703125</ele>
        <time>2021-05-09T06:57:46.000Z</time>
        <extensions>
          <ns3:TrackPointExtension>
            <ns3:atemp>14.0</ns3:atemp>
          </ns3:TrackPointExtension>
        </extensions>
      </trkpt>
      <trkpt lat="43.14314818941056728363037109375" lon="13.07524784468114376068115234375">
        <ele>542.4000244140625</ele>
        <time>2021-05-09T06:57:51.000Z</time>
        <extensions>
          <ns3:TrackPointExtension>
            <ns3:atemp>14.0</ns3:atemp>
          </ns3:TrackPointExtension>
        </extensions>
      </trkpt>
      <trkpt lat="43.1431294977664947509765625" lon="13.07532579638063907623291015625">
        <ele>542.79998779296875</ele>
        <time>2021-05-09T06:57:53.000Z</time>
        <extensions>
          <ns3:TrackPointExtension>
            <ns3:atemp>14.0</ns3:atemp>
          </ns3:TrackPointExtension>
        </extensions>
      </trkpt>
      <trkpt lat="43.143111728131771087646484375" lon="13.0754522792994976043701171875">
        <ele>543.4000244140625</ele>
        <time>2021-05-09T06:57:56.000Z</time>
        <extensions>
          <ns3:TrackPointExtension>
            <ns3:atemp>14.0</ns3:atemp>
          </ns3:TrackPointExtension>
        </extensions>
      </trkpt>
      <trkpt lat="43.1431122310459613800048828125" lon="13.07559334672987461090087890625">
        <ele>544.20001220703125</ele>
        <time>2021-05-09T06:57:59.000Z</time>
        <extensions>
          <ns3:TrackPointExtension>
            <ns3:atemp>14.0</ns3:atemp>
          </ns3:TrackPointExtension>
        </extensions>
      </trkpt>
      <trkpt lat="43.14310912974178791046142578125" lon="13.0756363458931446075439453125">
        <ele>544.4000244140625</ele>
        <time>2021-05-09T06:58:00.000Z</time>
        <extensions>
          <ns3:TrackPointExtension>
            <ns3:atemp>14.0</ns3:atemp>
          </ns3:TrackPointExtension>
        </extensions>
      </trkpt>
      <trkpt lat="43.1430865824222564697265625" lon="13.0757676064968109130859375">
        <ele>545.4000244140625</ele>
        <time>2021-05-09T06:58:04.000Z</time>
        <extensions>
          <ns3:TrackPointExtension>
            <ns3:atemp>14.0</ns3:atemp>
          </ns3:TrackPointExtension>
        </extensions>
      </trkpt>
      <trkpt lat="43.143078200519084930419921875" lon="13.07578210718929767608642578125">
        <ele>545.5999755859375</ele>
        <time>2021-05-09T06:58:05.000Z</time>
        <extensions>
          <ns3:TrackPointExtension>
            <ns3:atemp>14.0</ns3:atemp>
          </ns3:TrackPointExtension>
        </extensions>
      </trkpt>
      <trkpt lat="43.14306579530239105224609375" lon="13.07579501532018184661865234375">
        <ele>545.5999755859375</ele>
        <time>2021-05-09T06:58:06.000Z</time>
        <extensions>
          <ns3:TrackPointExtension>
            <ns3:atemp>14.0</ns3:atemp>
          </ns3:TrackPointExtension>
        </extensions>
      </trkpt>
      <trkpt lat="43.1430423259735107421875" lon="13.075825273990631103515625">
        <ele>545.79998779296875</ele>
        <time>2021-05-09T06:58:08.000Z</time>
        <extensions>
          <ns3:TrackPointExtension>
            <ns3:atemp>14.0</ns3:atemp>
          </ns3:TrackPointExtension>
        </extensions>
      </trkpt>
      <trkpt lat="43.1430243887007236480712890625" lon="13.07585067115724086761474609375">
        <ele>546.4000244140625</ele>
        <time>2021-05-09T06:58:11.000Z</time>
        <extensions>
          <ns3:TrackPointExtension>
            <ns3:atemp>14.0</ns3:atemp>
          </ns3:TrackPointExtension>
        </extensions>
      </trkpt>
      <trkpt lat="43.1430087983608245849609375" lon="13.07586106471717357635498046875">
        <ele>547.4000244140625</ele>
        <time>2021-05-09T06:58:15.000Z</time>
        <extensions>
          <ns3:TrackPointExtension>
            <ns3:atemp>14.0</ns3:atemp>
          </ns3:TrackPointExtension>
        </extensions>
      </trkpt>
      <trkpt lat="43.14300569705665111541748046875" lon="13.07586525566875934600830078125">
        <ele>547.4000244140625</ele>
        <time>2021-05-09T06:58:16.000Z</time>
        <extensions>
          <ns3:TrackPointExtension>
            <ns3:atemp>14.0</ns3:atemp>
          </ns3:TrackPointExtension>
        </extensions>
      </trkpt>
      <trkpt lat="43.14299312420189380645751953125" lon="13.0759176425635814666748046875">
        <ele>548</ele>
        <time>2021-05-09T06:58:27.000Z</time>
        <extensions>
          <ns3:TrackPointExtension>
            <ns3:atemp>14.0</ns3:atemp>
          </ns3:TrackPointExtension>
        </extensions>
      </trkpt>
      <trkpt lat="43.14297954551875591278076171875" lon="13.0759151279926300048828125">
        <ele>548</ele>
        <time>2021-05-09T06:58:41.000Z</time>
        <extensions>
          <ns3:TrackPointExtension>
            <ns3:atemp>14.0</ns3:atemp>
          </ns3:TrackPointExtension>
        </extensions>
      </trkpt>
      <trkpt lat="43.14299044199287891387939453125" lon="13.0758710391819477081298828125">
        <ele>548</ele>
        <time>2021-05-09T06:58:54.000Z</time>
        <extensions>
          <ns3:TrackPointExtension>
            <ns3:atemp>14.0</ns3:atemp>
          </ns3:TrackPointExtension>
        </extensions>
      </trkpt>
      <trkpt lat="43.14299010671675205230712890625" lon="13.0758194066584110260009765625">
        <ele>548</ele>
        <time>2021-05-09T06:59:03.000Z</time>
        <extensions>
          <ns3:TrackPointExtension>
            <ns3:atemp>14.0</ns3:atemp>
          </ns3:TrackPointExtension>
        </extensions>
      </trkpt>
      <trkpt lat="43.14298675395548343658447265625" lon="13.0758254416286945343017578125">
        <ele>547.4000244140625</ele>
        <time>2021-05-09T06:59:15.000Z</time>
        <extensions>
          <ns3:TrackPointExtension>
            <ns3:atemp>14.0</ns3:atemp>
          </ns3:TrackPointExtension>
        </extensions>
      </trkpt>
      <trkpt lat="43.142980299890041351318359375" lon="13.07582703419029712677001953125">
        <ele>547.5999755859375</ele>
        <time>2021-05-09T06:59:36.000Z</time>
        <extensions>
          <ns3:TrackPointExtension>
            <ns3:atemp>14.0</ns3:atemp>
          </ns3:TrackPointExtension>
        </extensions>
      </trkpt>
      <trkpt lat="43.14298122189939022064208984375" lon="13.075830973684787750244140625">
        <ele>547.5999755859375</ele>
        <time>2021-05-09T07:00:11.000Z</time>
        <extensions>
          <ns3:TrackPointExtension>
            <ns3:atemp>14.0</ns3:atemp>
          </ns3:TrackPointExtension>
        </extensions>
      </trkpt>
      <trkpt lat="43.14298130571842193603515625" lon="13.07583323679864406585693359375">
        <ele>547.79998779296875</ele>
        <time>2021-05-09T07:00:26.000Z</time>
        <extensions>
          <ns3:TrackPointExtension>
            <ns3:atemp>14.0</ns3:atemp>
          </ns3:TrackPointExtension>
        </extensions>
      </trkpt>
      <trkpt lat="43.1429814733564853668212890625" lon="13.0758344940841197967529296875">
        <ele>547.5999755859375</ele>
        <time>2021-05-09T07:00:37.000Z</time>
        <extensions>
          <ns3:TrackPointExtension>
            <ns3:atemp>14.0</ns3:atemp>
          </ns3:TrackPointExtension>
        </extensions>
      </trkpt>
      <trkpt lat="43.14299228601157665252685546875" lon="13.07581898756325244903564453125">
        <ele>547.5999755859375</ele>
        <time>2021-05-09T07:00:54.000Z</time>
        <extensions>
          <ns3:TrackPointExtension>
            <ns3:atemp>14.0</ns3:atemp>
          </ns3:TrackPointExtension>
        </extensions>
      </trkpt>
      <trkpt lat="43.1429774500429630279541015625" lon="13.07584631256759166717529296875">
        <ele>547.5999755859375</ele>
        <time>2021-05-09T07:01:07.000Z</time>
        <extensions>
          <ns3:TrackPointExtension>
            <ns3:atemp>14.0</ns3:atemp>
          </ns3:TrackPointExtension>
        </extensions>
      </trkpt>
      <trkpt lat="43.1429751031100749969482421875" lon="13.07584363035857677459716796875">
        <ele>547.79998779296875</ele>
        <time>2021-05-09T07:01:17.000Z</time>
        <extensions>
          <ns3:TrackPointExtension>
            <ns3:atemp>14.0</ns3:atemp>
          </ns3:TrackPointExtension>
        </extensions>
      </trkpt>
      <trkpt lat="43.14298742450773715972900390625" lon="13.075836338102817535400390625">
        <ele>547.5999755859375</ele>
        <time>2021-05-09T07:01:34.000Z</time>
        <extensions>
          <ns3:TrackPointExtension>
            <ns3:atemp>13.0</ns3:atemp>
          </ns3:TrackPointExtension>
        </extensions>
      </trkpt>
      <trkpt lat="43.14297518692910671234130859375" lon="13.0758626572787761688232421875">
        <ele>547.5999755859375</ele>
        <time>2021-05-09T07:01:54.000Z</time>
        <extensions>
          <ns3:TrackPointExtension>
            <ns3:atemp>13.0</ns3:atemp>
          </ns3:TrackPointExtension>
        </extensions>
      </trkpt>
      <trkpt lat="43.143007121980190277099609375" lon="13.07580390013754367828369140625">
        <ele>547.79998779296875</ele>
        <time>2021-05-09T07:02:11.000Z</time>
        <extensions>
          <ns3:TrackPointExtension>
            <ns3:atemp>13.0</ns3:atemp>
          </ns3:TrackPointExtension>
        </extensions>
      </trkpt>
      <trkpt lat="43.14300335012376308441162109375" lon="13.0758029781281948089599609375">
        <ele>547.5999755859375</ele>
        <time>2021-05-09T07:02:21.000Z</time>
        <extensions>
          <ns3:TrackPointExtension>
            <ns3:atemp>13.0</ns3:atemp>
          </ns3:TrackPointExtension>
        </extensions>
      </trkpt>
      <trkpt lat="43.14306856133043766021728515625" lon="13.0758251063525676727294921875">
        <ele>547.79998779296875</ele>
        <time>2021-05-09T07:02:35.000Z</time>
        <extensions>
          <ns3:TrackPointExtension>
            <ns3:atemp>13.0</ns3:atemp>
          </ns3:TrackPointExtension>
        </extensions>
      </trkpt>
      <trkpt lat="43.14307007007300853729248046875" lon="13.07584337890148162841796875">
        <ele>547.79998779296875</ele>
        <time>2021-05-09T07:02:36.000Z</time>
        <extensions>
          <ns3:TrackPointExtension>
            <ns3:atemp>13.0</ns3:atemp>
          </ns3:TrackPointExtension>
        </extensions>
      </trkpt>
      <trkpt lat="43.14306654967367649078369140625" lon="13.07594572193920612335205078125">
        <ele>547.79998779296875</ele>
        <time>2021-05-09T07:02:40.000Z</time>
        <extensions>
          <ns3:TrackPointExtension>
            <ns3:atemp>13.0</ns3:atemp>
          </ns3:TrackPointExtension>
        </extensions>
      </trkpt>
      <trkpt lat="43.1430552341043949127197265625" lon="13.07613314129412174224853515625">
        <ele>547.79998779296875</ele>
        <time>2021-05-09T07:02:46.000Z</time>
        <extensions>
          <ns3:TrackPointExtension>
            <ns3:atemp>13.0</ns3:atemp>
          </ns3:TrackPointExtension>
        </extensions>
      </trkpt>
      <trkpt lat="43.14304609782993793487548828125" lon="13.0763843469321727752685546875">
        <ele>548.20001220703125</ele>
        <time>2021-05-09T07:02:53.000Z</time>
        <extensions>
          <ns3:TrackPointExtension>
            <ns3:atemp>14.0</ns3:atemp>
          </ns3:TrackPointExtension>
        </extensions>
      </trkpt>
      <trkpt lat="43.14303629100322723388671875" lon="13.07667846791446208953857421875">
        <ele>549.20001220703125</ele>
        <time>2021-05-09T07:03:01.000Z</time>
        <extensions>
          <ns3:TrackPointExtension>
            <ns3:atemp>14.0</ns3:atemp>
          </ns3:TrackPointExtension>
        </extensions>
      </trkpt>
      <trkpt lat="43.14303318969905376434326171875" lon="13.076716102659702301025390625">
        <ele>549.4000244140625</ele>
        <time>2021-05-09T07:03:02.000Z</time>
        <extensions>
          <ns3:TrackPointExtension>
            <ns3:atemp>14.0</ns3:atemp>
          </ns3:TrackPointExtension>
        </extensions>
      </trkpt>
      <trkpt lat="43.143021874129772186279296875" lon="13.07691114954650402069091796875">
        <ele>550.20001220703125</ele>
        <time>2021-05-09T07:03:07.000Z</time>
        <extensions>
          <ns3:TrackPointExtension>
            <ns3:atemp>14.0</ns3:atemp>
          </ns3:TrackPointExtension>
        </extensions>
      </trkpt>
      <trkpt lat="43.14301374368369579315185546875" lon="13.07707074098289012908935546875">
        <ele>550.79998779296875</ele>
        <time>2021-05-09T07:03:11.000Z</time>
        <extensions>
          <ns3:TrackPointExtension>
            <ns3:atemp>14.0</ns3:atemp>
          </ns3:TrackPointExtension>
        </extensions>
      </trkpt>
      <trkpt lat="43.1430087983608245849609375" lon="13.077229075133800506591796875">
        <ele>551.4000244140625</ele>
        <time>2021-05-09T07:03:15.000Z</time>
        <extensions>
          <ns3:TrackPointExtension>
            <ns3:atemp>14.0</ns3:atemp>
          </ns3:TrackPointExtension>
        </extensions>
      </trkpt>
      <trkpt lat="43.1429831497371196746826171875" lon="13.07742563076317310333251953125">
        <ele>552.4000244140625</ele>
        <time>2021-05-09T07:03:20.000Z</time>
        <extensions>
          <ns3:TrackPointExtension>
            <ns3:atemp>14.0</ns3:atemp>
          </ns3:TrackPointExtension>
        </extensions>
      </trkpt>
      <trkpt lat="43.14295372925698757171630859375" lon="13.07757072150707244873046875">
        <ele>553.20001220703125</ele>
        <time>2021-05-09T07:03:24.000Z</time>
        <extensions>
          <ns3:TrackPointExtension>
            <ns3:atemp>14.0</ns3:atemp>
          </ns3:TrackPointExtension>
        </extensions>
      </trkpt>
      <trkpt lat="43.1429256498813629150390625" lon="13.07764071039855480194091796875">
        <ele>553.5999755859375</ele>
        <time>2021-05-09T07:03:26.000Z</time>
        <extensions>
          <ns3:TrackPointExtension>
            <ns3:atemp>14.0</ns3:atemp>
          </ns3:TrackPointExtension>
        </extensions>
      </trkpt>
      <trkpt lat="43.14286353997886180877685546875" lon="13.0777345038950443267822265625">
        <ele>554</ele>
        <time>2021-05-09T07:03:29.000Z</time>
        <extensions>
          <ns3:TrackPointExtension>
            <ns3:atemp>14.0</ns3:atemp>
          </ns3:TrackPointExtension>
        </extensions>
      </trkpt>
      <trkpt lat="43.14275264739990234375" lon="13.0777978710830211639404296875">
        <ele>554.5999755859375</ele>
        <time>2021-05-09T07:03:33.000Z</time>
        <extensions>
          <ns3:TrackPointExtension>
            <ns3:atemp>14.0</ns3:atemp>
          </ns3:TrackPointExtension>
        </extensions>
      </trkpt>
      <trkpt lat="43.142722807824611663818359375" lon="13.07781103067100048065185546875">
        <ele>555</ele>
        <time>2021-05-09T07:03:34.000Z</time>
        <extensions>
          <ns3:TrackPointExtension>
            <ns3:atemp>14.0</ns3:atemp>
          </ns3:TrackPointExtension>
        </extensions>
      </trkpt>
      <trkpt lat="43.14263303764164447784423828125" lon="13.0778203345835208892822265625">
        <ele>555.79998779296875</ele>
        <time>2021-05-09T07:03:37.000Z</time>
        <extensions>
          <ns3:TrackPointExtension>
            <ns3:atemp>14.0</ns3:atemp>
          </ns3:TrackPointExtension>
        </extensions>
      </trkpt>
      <trkpt lat="43.1425234861671924591064453125" lon="13.07783097960054874420166015625">
        <ele>556.5999755859375</ele>
        <time>2021-05-09T07:03:41.000Z</time>
        <extensions>
          <ns3:TrackPointExtension>
            <ns3:atemp>14.0</ns3:atemp>
          </ns3:TrackPointExtension>
        </extensions>
      </trkpt>
      <trkpt lat="43.14244444482028484344482421875" lon="13.07787473313510417938232421875">
        <ele>557.79998779296875</ele>
        <time>2021-05-09T07:03:45.000Z</time>
        <extensions>
          <ns3:TrackPointExtension>
            <ns3:atemp>14.0</ns3:atemp>
          </ns3:TrackPointExtension>
        </extensions>
      </trkpt>
      <trkpt lat="43.14243405126035213470458984375" lon="13.07786886580288410186767578125">
        <ele>558</ele>
        <time>2021-05-09T07:03:46.000Z</time>
        <extensions>
          <ns3:TrackPointExtension>
            <ns3:atemp>14.0</ns3:atemp>
          </ns3:TrackPointExtension>
        </extensions>
      </trkpt>
      <trkpt lat="43.14242349006235599517822265625" lon="13.0778649263083934783935546875">
        <ele>558.79998779296875</ele>
        <time>2021-05-09T07:03:49.000Z</time>
        <extensions>
          <ns3:TrackPointExtension>
            <ns3:atemp>14.0</ns3:atemp>
          </ns3:TrackPointExtension>
        </extensions>
      </trkpt>
      <trkpt lat="43.14242877066135406494140625" lon="13.07787423022091388702392578125">
        <ele>559.4000244140625</ele>
        <time>2021-05-09T07:03:51.000Z</time>
        <extensions>
          <ns3:TrackPointExtension>
            <ns3:atemp>14.0</ns3:atemp>
          </ns3:TrackPointExtension>
        </extensions>
      </trkpt>
      <trkpt lat="43.14243740402162075042724609375" lon="13.0779091827571392059326171875">
        <ele>559.5999755859375</ele>
        <time>2021-05-09T07:03:59.000Z</time>
        <extensions>
          <ns3:TrackPointExtension>
            <ns3:atemp>14.0</ns3:atemp>
          </ns3:TrackPointExtension>
        </extensions>
      </trkpt>
      <trkpt lat="43.14242072403430938720703125" lon="13.07793608866631984710693359375">
        <ele>559.5999755859375</ele>
        <time>2021-05-09T07:04:04.000Z</time>
        <extensions>
          <ns3:TrackPointExtension>
            <ns3:atemp>14.0</ns3:atemp>
          </ns3:TrackPointExtension>
        </extensions>
      </trkpt>
      <trkpt lat="43.14241309650242328643798828125" lon="13.0779252760112285614013671875">
        <ele>559.5999755859375</ele>
        <time>2021-05-09T07:04:10.000Z</time>
        <extensions>
          <ns3:TrackPointExtension>
            <ns3:atemp>14.0</ns3:atemp>
          </ns3:TrackPointExtension>
        </extensions>
      </trkpt>
      <trkpt lat="43.14241527579724788665771484375" lon="13.0779085122048854827880859375">
        <ele>559.5999755859375</ele>
        <time>2021-05-09T07:04:19.000Z</time>
        <extensions>
          <ns3:TrackPointExtension>
            <ns3:atemp>14.0</ns3:atemp>
          </ns3:TrackPointExtension>
        </extensions>
      </trkpt>
      <trkpt lat="43.142415694892406463623046875" lon="13.07790599763393402099609375">
        <ele>559.5999755859375</ele>
        <time>2021-05-09T07:04:32.000Z</time>
        <extensions>
          <ns3:TrackPointExtension>
            <ns3:atemp>14.0</ns3:atemp>
          </ns3:TrackPointExtension>
        </extensions>
      </trkpt>
      <trkpt lat="43.1424168683588504791259765625" lon="13.07790742255747318267822265625">
        <ele>559.5999755859375</ele>
        <time>2021-05-09T07:04:46.000Z</time>
        <extensions>
          <ns3:TrackPointExtension>
            <ns3:atemp>14.0</ns3:atemp>
          </ns3:TrackPointExtension>
        </extensions>
      </trkpt>
      <trkpt lat="43.14241795800626277923583984375" lon="13.07790725491940975189208984375">
        <ele>559.4000244140625</ele>
        <time>2021-05-09T07:04:57.000Z</time>
        <extensions>
          <ns3:TrackPointExtension>
            <ns3:atemp>14.0</ns3:atemp>
          </ns3:TrackPointExtension>
        </extensions>
      </trkpt>
      <trkpt lat="43.14241879619657993316650390625" lon="13.0779065005481243133544921875">
        <ele>559.5999755859375</ele>
        <time>2021-05-09T07:05:28.000Z</time>
        <extensions>
          <ns3:TrackPointExtension>
            <ns3:atemp>15.0</ns3:atemp>
          </ns3:TrackPointExtension>
        </extensions>
      </trkpt>
      <trkpt lat="43.14241946674883365631103515625" lon="13.0779039859771728515625">
        <ele>559.5999755859375</ele>
        <time>2021-05-09T07:05:40.000Z</time>
        <extensions>
          <ns3:TrackPointExtension>
            <ns3:atemp>15.0</ns3:atemp>
          </ns3:TrackPointExtension>
        </extensions>
      </trkpt>
      <trkpt lat="43.1424182094633579254150390625" lon="13.0779004655778408050537109375">
        <ele>559.20001220703125</ele>
        <time>2021-05-09T07:05:54.000Z</time>
        <extensions>
          <ns3:TrackPointExtension>
            <ns3:atemp>15.0</ns3:atemp>
          </ns3:TrackPointExtension>
        </extensions>
      </trkpt>
      <trkpt lat="43.14241938292980194091796875" lon="13.07789904065430164337158203125">
        <ele>559.4000244140625</ele>
        <time>2021-05-09T07:06:08.000Z</time>
        <extensions>
          <ns3:TrackPointExtension>
            <ns3:atemp>16.0</ns3:atemp>
          </ns3:TrackPointExtension>
        </extensions>
      </trkpt>
      <trkpt lat="43.1424195505678653717041015625" lon="13.07789887301623821258544921875">
        <ele>559.4000244140625</ele>
        <time>2021-05-09T07:06:10.000Z</time>
        <extensions>
          <ns3:TrackPointExtension>
            <ns3:atemp>16.0</ns3:atemp>
          </ns3:TrackPointExtension>
        </extensions>
      </trkpt>
      <trkpt lat="43.14242030493915081024169921875" lon="13.0778981186449527740478515625">
        <ele>559.20001220703125</ele>
        <time>2021-05-09T07:06:28.000Z</time>
        <extensions>
          <ns3:TrackPointExtension>
            <ns3:atemp>16.0</ns3:atemp>
          </ns3:TrackPointExtension>
        </extensions>
      </trkpt>
      <trkpt lat="43.1424195505678653717041015625" lon="13.07789853774011135101318359375">
        <ele>559.20001220703125</ele>
        <time>2021-05-09T07:06:35.000Z</time>
        <extensions>
          <ns3:TrackPointExtension>
            <ns3:atemp>16.0</ns3:atemp>
          </ns3:TrackPointExtension>
        </extensions>
      </trkpt>
      <trkpt lat="43.142441175878047943115234375" lon="13.07788856327533721923828125">
        <ele>559.20001220703125</ele>
        <time>2021-05-09T07:06:46.000Z</time>
        <extensions>
          <ns3:TrackPointExtension>
            <ns3:atemp>16.0</ns3:atemp>
          </ns3:TrackPointExtension>
        </extensions>
      </trkpt>
      <trkpt lat="43.14245416782796382904052734375" lon="13.0779024772346019744873046875">
        <ele>559.20001220703125</ele>
        <time>2021-05-09T07:06:47.000Z</time>
        <extensions>
          <ns3:TrackPointExtension>
            <ns3:atemp>16.0</ns3:atemp>
          </ns3:TrackPointExtension>
        </extensions>
      </trkpt>
      <trkpt lat="43.14253413118422031402587890625" lon="13.0779712088406085968017578125">
        <ele>559.4000244140625</ele>
        <time>2021-05-09T07:06:51.000Z</time>
        <extensions>
          <ns3:TrackPointExtension>
            <ns3:atemp>16.0</ns3:atemp>
          </ns3:TrackPointExtension>
        </extensions>
      </trkpt>
      <trkpt lat="43.14259297214448451995849609375" lon="13.07795972563326358795166015625">
        <ele>559.4000244140625</ele>
        <time>2021-05-09T07:06:53.000Z</time>
        <extensions>
          <ns3:TrackPointExtension>
            <ns3:atemp>16.0</ns3:atemp>
          </ns3:TrackPointExtension>
        </extensions>
      </trkpt>
      <trkpt lat="43.14269472844898700714111328125" lon="13.07791949249804019927978515625">
        <ele>559.20001220703125</ele>
        <time>2021-05-09T07:06:56.000Z</time>
        <extensions>
          <ns3:TrackPointExtension>
            <ns3:atemp>16.0</ns3:atemp>
          </ns3:TrackPointExtension>
        </extensions>
      </trkpt>
      <trkpt lat="43.14289824105799198150634765625" lon="13.0777899920940399169921875">
        <ele>558.20001220703125</ele>
        <time>2021-05-09T07:07:02.000Z</time>
        <extensions>
          <ns3:TrackPointExtension>
            <ns3:atemp>16.0</ns3:atemp>
          </ns3:TrackPointExtension>
        </extensions>
      </trkpt>
      <trkpt lat="43.14292741008102893829345703125" lon="13.0777505971491336822509765625">
        <ele>557.5999755859375</ele>
        <time>2021-05-09T07:07:03.000Z</time>
        <extensions>
          <ns3:TrackPointExtension>
            <ns3:atemp>16.0</ns3:atemp>
          </ns3:TrackPointExtension>
        </extensions>
      </trkpt>
      <trkpt lat="43.14299161545932292938232421875" lon="13.0776154808700084686279296875">
        <ele>557</ele>
        <time>2021-05-09T07:07:06.000Z</time>
        <extensions>
          <ns3:TrackPointExtension>
            <ns3:atemp>16.0</ns3:atemp>
          </ns3:TrackPointExtension>
        </extensions>
      </trkpt>
      <trkpt lat="43.14301307313144207000732421875" lon="13.07751263491809368133544921875">
        <ele>556.5999755859375</ele>
        <time>2021-05-09T07:07:08.000Z</time>
        <extensions>
          <ns3:TrackPointExtension>
            <ns3:atemp>16.0</ns3:atemp>
          </ns3:TrackPointExtension>
        </extensions>
      </trkpt>
      <trkpt lat="43.1430337764322757720947265625" lon="13.077341727912425994873046875">
        <ele>555.5999755859375</ele>
        <time>2021-05-09T07:07:11.000Z</time>
        <extensions>
          <ns3:TrackPointExtension>
            <ns3:atemp>16.0</ns3:atemp>
          </ns3:TrackPointExtension>
        </extensions>
      </trkpt>
      <trkpt lat="43.14304433763027191162109375" lon="13.0771709047257900238037109375">
        <ele>554.79998779296875</ele>
        <time>2021-05-09T07:07:14.000Z</time>
        <extensions>
          <ns3:TrackPointExtension>
            <ns3:atemp>16.0</ns3:atemp>
          </ns3:TrackPointExtension>
        </extensions>
      </trkpt>
      <trkpt lat="43.14304727129638195037841796875" lon="13.07711608707904815673828125">
        <ele>554.5999755859375</ele>
        <time>2021-05-09T07:07:15.000Z</time>
        <extensions>
          <ns3:TrackPointExtension>
            <ns3:atemp>16.0</ns3:atemp>
          </ns3:TrackPointExtension>
        </extensions>
      </trkpt>
      <trkpt lat="43.14304928295314311981201171875" lon="13.0768512189388275146484375">
        <ele>553.4000244140625</ele>
        <time>2021-05-09T07:07:20.000Z</time>
        <extensions>
          <ns3:TrackPointExtension>
            <ns3:atemp>16.0</ns3:atemp>
          </ns3:TrackPointExtension>
        </extensions>
      </trkpt>
      <trkpt lat="43.14306587912142276763916015625" lon="13.07658341713249683380126953125">
        <ele>552.20001220703125</ele>
        <time>2021-05-09T07:07:24.000Z</time>
        <extensions>
          <ns3:TrackPointExtension>
            <ns3:atemp>16.0</ns3:atemp>
          </ns3:TrackPointExtension>
        </extensions>
      </trkpt>
      <trkpt lat="43.14307384192943572998046875" lon="13.07651066221296787261962890625">
        <ele>552.20001220703125</ele>
        <time>2021-05-09T07:07:25.000Z</time>
        <extensions>
          <ns3:TrackPointExtension>
            <ns3:atemp>16.0</ns3:atemp>
          </ns3:TrackPointExtension>
        </extensions>
      </trkpt>
      <trkpt lat="43.1430852413177490234375" lon="13.07627194561064243316650390625">
        <ele>551.20001220703125</ele>
        <time>2021-05-09T07:07:28.000Z</time>
        <extensions>
          <ns3:TrackPointExtension>
            <ns3:atemp>16.0</ns3:atemp>
          </ns3:TrackPointExtension>
        </extensions>
      </trkpt>
      <trkpt lat="43.14309664070606231689453125" lon="13.0760986916720867156982421875">
        <ele>550.5999755859375</ele>
        <time>2021-05-09T07:07:30.000Z</time>
        <extensions>
          <ns3:TrackPointExtension>
            <ns3:atemp>16.0</ns3:atemp>
          </ns3:TrackPointExtension>
        </extensions>
      </trkpt>
      <trkpt lat="43.14311499707400798797607421875" lon="13.07584874331951141357421875">
        <ele>550</ele>
        <time>2021-05-09T07:07:33.000Z</time>
        <extensions>
          <ns3:TrackPointExtension>
            <ns3:atemp>16.0</ns3:atemp>
          </ns3:TrackPointExtension>
        </extensions>
      </trkpt>
      <trkpt lat="43.1431268155574798583984375" lon="13.0756869725883007049560546875">
        <ele>548.79998779296875</ele>
        <time>2021-05-09T07:07:35.000Z</time>
        <extensions>
          <ns3:TrackPointExtension>
            <ns3:atemp>16.0</ns3:atemp>
          </ns3:TrackPointExtension>
        </extensions>
      </trkpt>
      <trkpt lat="43.1431407295167446136474609375" lon="13.0755221843719482421875">
        <ele>547.5999755859375</ele>
        <time>2021-05-09T07:07:37.000Z</time>
        <extensions>
          <ns3:TrackPointExtension>
            <ns3:atemp>16.0</ns3:atemp>
          </ns3:TrackPointExtension>
        </extensions>
      </trkpt>
      <trkpt lat="43.143153302371501922607421875" lon="13.075437359511852264404296875">
        <ele>547.20001220703125</ele>
        <time>2021-05-09T07:07:38.000Z</time>
        <extensions>
          <ns3:TrackPointExtension>
            <ns3:atemp>16.0</ns3:atemp>
          </ns3:TrackPointExtension>
        </extensions>
      </trkpt>
      <trkpt lat="43.14316797070205211639404296875" lon="13.07535253465175628662109375">
        <ele>547</ele>
        <time>2021-05-09T07:07:39.000Z</time>
        <extensions>
          <ns3:TrackPointExtension>
            <ns3:atemp>16.0</ns3:atemp>
          </ns3:TrackPointExtension>
        </extensions>
      </trkpt>
      <trkpt lat="43.14320669509470462799072265625" lon="13.07518179528415203094482421875">
        <ele>546.5999755859375</ele>
        <time>2021-05-09T07:07:41.000Z</time>
        <extensions>
          <ns3:TrackPointExtension>
            <ns3:atemp>16.0</ns3:atemp>
          </ns3:TrackPointExtension>
        </extensions>
      </trkpt>
      <trkpt lat="43.14324961043894290924072265625" lon="13.075014911592006683349609375">
        <ele>545.4000244140625</ele>
        <time>2021-05-09T07:07:43.000Z</time>
        <extensions>
          <ns3:TrackPointExtension>
            <ns3:atemp>16.0</ns3:atemp>
          </ns3:TrackPointExtension>
        </extensions>
      </trkpt>
      <trkpt lat="43.14331591129302978515625" lon="13.0747632868587970733642578125">
        <ele>544.20001220703125</ele>
        <time>2021-05-09T07:07:46.000Z</time>
        <extensions>
          <ns3:TrackPointExtension>
            <ns3:atemp>16.0</ns3:atemp>
          </ns3:TrackPointExtension>
        </extensions>
      </trkpt>
      <trkpt lat="43.14338724128901958465576171875" lon="13.074509985744953155517578125">
        <ele>543</ele>
        <time>2021-05-09T07:07:49.000Z</time>
        <extensions>
          <ns3:TrackPointExtension>
            <ns3:atemp>16.0</ns3:atemp>
          </ns3:TrackPointExtension>
        </extensions>
      </trkpt>
      <trkpt lat="43.1434294022619724273681640625" lon="13.07433706708252429962158203125">
        <ele>542.20001220703125</ele>
        <time>2021-05-09T07:07:51.000Z</time>
        <extensions>
          <ns3:TrackPointExtension>
            <ns3:atemp>16.0</ns3:atemp>
          </ns3:TrackPointExtension>
        </extensions>
      </trkpt>
      <trkpt lat="43.143447674810886383056640625" lon="13.07424905709922313690185546875">
        <ele>541.79998779296875</ele>
        <time>2021-05-09T07:07:52.000Z</time>
        <extensions>
          <ns3:TrackPointExtension>
            <ns3:atemp>16.0</ns3:atemp>
          </ns3:TrackPointExtension>
        </extensions>
      </trkpt>
      <trkpt lat="43.1434830464422702789306640625" lon="13.07397664524614810943603515625">
        <ele>541</ele>
        <time>2021-05-09T07:07:55.000Z</time>
        <extensions>
          <ns3:TrackPointExtension>
            <ns3:atemp>16.0</ns3:atemp>
          </ns3:TrackPointExtension>
        </extensions>
      </trkpt>
      <trkpt lat="43.1434837169945240020751953125" lon="13.07388410903513431549072265625">
        <ele>540.4000244140625</ele>
        <time>2021-05-09T07:07:56.000Z</time>
        <extensions>
          <ns3:TrackPointExtension>
            <ns3:atemp>16.0</ns3:atemp>
          </ns3:TrackPointExtension>
        </extensions>
      </trkpt>
      <trkpt lat="43.14347927458584308624267578125" lon="13.0737940035760402679443359375">
        <ele>539.5999755859375</ele>
        <time>2021-05-09T07:07:57.000Z</time>
        <extensions>
          <ns3:TrackPointExtension>
            <ns3:atemp>16.0</ns3:atemp>
          </ns3:TrackPointExtension>
        </extensions>
      </trkpt>
      <trkpt lat="43.14347072504460811614990234375" lon="13.07370691560208797454833984375">
        <ele>539.4000244140625</ele>
        <time>2021-05-09T07:07:58.000Z</time>
        <extensions>
          <ns3:TrackPointExtension>
            <ns3:atemp>16.0</ns3:atemp>
          </ns3:TrackPointExtension>
        </extensions>
      </trkpt>
      <trkpt lat="43.14344021491706371307373046875" lon="13.07334548793733119964599609375">
        <ele>538</ele>
        <time>2021-05-09T07:08:02.000Z</time>
        <extensions>
          <ns3:TrackPointExtension>
            <ns3:atemp>16.0</ns3:atemp>
          </ns3:TrackPointExtension>
        </extensions>
      </trkpt>
      <trkpt lat="43.14340375363826751708984375" lon="13.07304709218442440032958984375">
        <ele>537</ele>
        <time>2021-05-09T07:08:05.000Z</time>
        <extensions>
          <ns3:TrackPointExtension>
            <ns3:atemp>16.0</ns3:atemp>
          </ns3:TrackPointExtension>
        </extensions>
      </trkpt>
      <trkpt lat="43.143362514674663543701171875" lon="13.072618357837200164794921875">
        <ele>535.79998779296875</ele>
        <time>2021-05-09T07:08:09.000Z</time>
        <extensions>
          <ns3:TrackPointExtension>
            <ns3:atemp>16.0</ns3:atemp>
          </ns3:TrackPointExtension>
        </extensions>
      </trkpt>
      <trkpt lat="43.1433566473424434661865234375" lon="13.07250830344855785369873046875">
        <ele>535.5999755859375</ele>
        <time>2021-05-09T07:08:10.000Z</time>
        <extensions>
          <ns3:TrackPointExtension>
            <ns3:atemp>16.0</ns3:atemp>
          </ns3:TrackPointExtension>
        </extensions>
      </trkpt>
      <trkpt lat="43.14333443529903888702392578125" lon="13.0718306265771389007568359375">
        <ele>534.20001220703125</ele>
        <time>2021-05-09T07:08:16.000Z</time>
        <extensions>
          <ns3:TrackPointExtension>
            <ns3:atemp>16.0</ns3:atemp>
          </ns3:TrackPointExtension>
        </extensions>
      </trkpt>
      <trkpt lat="43.1433247961103916168212890625" lon="13.07171277701854705810546875">
        <ele>534</ele>
        <time>2021-05-09T07:08:17.000Z</time>
        <extensions>
          <ns3:TrackPointExtension>
            <ns3:atemp>16.0</ns3:atemp>
          </ns3:TrackPointExtension>
        </extensions>
      </trkpt>
      <trkpt lat="43.14329051412642002105712890625" lon="13.0714822746813297271728515625">
        <ele>533.20001220703125</ele>
        <time>2021-05-09T07:08:19.000Z</time>
        <extensions>
          <ns3:TrackPointExtension>
            <ns3:atemp>16.0</ns3:atemp>
          </ns3:TrackPointExtension>
        </extensions>
      </trkpt>
      <trkpt lat="43.1432279013097286224365234375" lon="13.07112269103527069091796875">
        <ele>531.5999755859375</ele>
        <time>2021-05-09T07:08:22.000Z</time>
        <extensions>
          <ns3:TrackPointExtension>
            <ns3:atemp>16.0</ns3:atemp>
          </ns3:TrackPointExtension>
        </extensions>
      </trkpt>
      <trkpt lat="43.14318758435547351837158203125" lon="13.070881627500057220458984375">
        <ele>530.4000244140625</ele>
        <time>2021-05-09T07:08:24.000Z</time>
        <extensions>
          <ns3:TrackPointExtension>
            <ns3:atemp>16.0</ns3:atemp>
          </ns3:TrackPointExtension>
        </extensions>
      </trkpt>
      <trkpt lat="43.1431685574352741241455078125" lon="13.0707626044750213623046875">
        <ele>528.20001220703125</ele>
        <time>2021-05-09T07:08:25.000Z</time>
        <extensions>
          <ns3:TrackPointExtension>
            <ns3:atemp>16.0</ns3:atemp>
          </ns3:TrackPointExtension>
        </extensions>
      </trkpt>
      <trkpt lat="43.1431424058973789215087890625" lon="13.0705267377197742462158203125">
        <ele>527.20001220703125</ele>
        <time>2021-05-09T07:08:27.000Z</time>
        <extensions>
          <ns3:TrackPointExtension>
            <ns3:atemp>16.0</ns3:atemp>
          </ns3:TrackPointExtension>
        </extensions>
      </trkpt>
      <trkpt lat="43.1431402266025543212890625" lon="13.07040796615183353424072265625">
        <ele>526.79998779296875</ele>
        <time>2021-05-09T07:08:28.000Z</time>
        <extensions>
          <ns3:TrackPointExtension>
            <ns3:atemp>16.0</ns3:atemp>
          </ns3:TrackPointExtension>
        </extensions>
      </trkpt>
      <trkpt lat="43.1431484408676624298095703125" lon="13.07017209939658641815185546875">
        <ele>525.5999755859375</ele>
        <time>2021-05-09T07:08:30.000Z</time>
        <extensions>
          <ns3:TrackPointExtension>
            <ns3:atemp>16.0</ns3:atemp>
          </ns3:TrackPointExtension>
        </extensions>
      </trkpt>
      <trkpt lat="43.1431670486927032470703125" lon="13.0699463747441768646240234375">
        <ele>524.20001220703125</ele>
        <time>2021-05-09T07:08:32.000Z</time>
        <extensions>
          <ns3:TrackPointExtension>
            <ns3:atemp>16.0</ns3:atemp>
          </ns3:TrackPointExtension>
        </extensions>
      </trkpt>
      <trkpt lat="43.143185488879680633544921875" lon="13.0697317980229854583740234375">
        <ele>523.4000244140625</ele>
        <time>2021-05-09T07:08:34.000Z</time>
        <extensions>
          <ns3:TrackPointExtension>
            <ns3:atemp>16.0</ns3:atemp>
          </ns3:TrackPointExtension>
        </extensions>
      </trkpt>
      <trkpt lat="43.1431965529918670654296875" lon="13.06962844915688037872314453125">
        <ele>523</ele>
        <time>2021-05-09T07:08:35.000Z</time>
        <extensions>
          <ns3:TrackPointExtension>
            <ns3:atemp>16.0</ns3:atemp>
          </ns3:TrackPointExtension>
        </extensions>
      </trkpt>
      <trkpt lat="43.1432339362800121307373046875" lon="13.0692158080637454986572265625">
        <ele>522</ele>
        <time>2021-05-09T07:08:39.000Z</time>
        <extensions>
          <ns3:TrackPointExtension>
            <ns3:atemp>15.0</ns3:atemp>
          </ns3:TrackPointExtension>
        </extensions>
      </trkpt>
      <trkpt lat="43.14324759878218173980712890625" lon="13.06900248862802982330322265625">
        <ele>521.79998779296875</ele>
        <time>2021-05-09T07:08:41.000Z</time>
        <extensions>
          <ns3:TrackPointExtension>
            <ns3:atemp>15.0</ns3:atemp>
          </ns3:TrackPointExtension>
        </extensions>
      </trkpt>
      <trkpt lat="43.1432728283107280731201171875" lon="13.0687970481812953948974609375">
        <ele>521.5999755859375</ele>
        <time>2021-05-09T07:08:43.000Z</time>
        <extensions>
          <ns3:TrackPointExtension>
            <ns3:atemp>15.0</ns3:atemp>
          </ns3:TrackPointExtension>
        </extensions>
      </trkpt>
      <trkpt lat="43.1433432362973690032958984375" lon="13.068610467016696929931640625">
        <ele>521.4000244140625</ele>
        <time>2021-05-09T07:08:45.000Z</time>
        <extensions>
          <ns3:TrackPointExtension>
            <ns3:atemp>15.0</ns3:atemp>
          </ns3:TrackPointExtension>
        </extensions>
      </trkpt>
      <trkpt lat="43.14337936230003833770751953125" lon="13.0685174278914928436279296875">
        <ele>521.20001220703125</ele>
        <time>2021-05-09T07:08:46.000Z</time>
        <extensions>
          <ns3:TrackPointExtension>
            <ns3:atemp>15.0</ns3:atemp>
          </ns3:TrackPointExtension>
        </extensions>
      </trkpt>
      <trkpt lat="43.14339864067733287811279296875" lon="13.06841810233891010284423828125">
        <ele>520.79998779296875</ele>
        <time>2021-05-09T07:08:47.000Z</time>
        <extensions>
          <ns3:TrackPointExtension>
            <ns3:atemp>15.0</ns3:atemp>
          </ns3:TrackPointExtension>
        </extensions>
      </trkpt>
      <trkpt lat="43.14339126460254192352294921875" lon="13.06831852532923221588134765625">
        <ele>520.4000244140625</ele>
        <time>2021-05-09T07:08:48.000Z</time>
        <extensions>
          <ns3:TrackPointExtension>
            <ns3:atemp>15.0</ns3:atemp>
          </ns3:TrackPointExtension>
        </extensions>
      </trkpt>
      <trkpt lat="43.1433147378265857696533203125" lon="13.0681622028350830078125">
        <ele>519.4000244140625</ele>
        <time>2021-05-09T07:08:50.000Z</time>
        <extensions>
          <ns3:TrackPointExtension>
            <ns3:atemp>15.0</ns3:atemp>
          </ns3:TrackPointExtension>
        </extensions>
      </trkpt>
      <trkpt lat="43.1432590819895267486572265625" lon="13.06811635382473468780517578125">
        <ele>518.79998779296875</ele>
        <time>2021-05-09T07:08:51.000Z</time>
        <extensions>
          <ns3:TrackPointExtension>
            <ns3:atemp>15.0</ns3:atemp>
          </ns3:TrackPointExtension>
        </extensions>
      </trkpt>
      <trkpt lat="43.14314668066799640655517578125" lon="13.06806036271154880523681640625">
        <ele>518</ele>
        <time>2021-05-09T07:08:53.000Z</time>
        <extensions>
          <ns3:TrackPointExtension>
            <ns3:atemp>15.0</ns3:atemp>
          </ns3:TrackPointExtension>
        </extensions>
      </trkpt>
      <trkpt lat="43.1430589221417903900146484375" lon="13.06799414567649364471435546875">
        <ele>517.5999755859375</ele>
        <time>2021-05-09T07:08:55.000Z</time>
        <extensions>
          <ns3:TrackPointExtension>
            <ns3:atemp>15.0</ns3:atemp>
          </ns3:TrackPointExtension>
        </extensions>
      </trkpt>
      <trkpt lat="43.1430253945291042327880859375" lon="13.06796229444444179534912109375">
        <ele>517.5999755859375</ele>
        <time>2021-05-09T07:08:56.000Z</time>
        <extensions>
          <ns3:TrackPointExtension>
            <ns3:atemp>15.0</ns3:atemp>
          </ns3:TrackPointExtension>
        </extensions>
      </trkpt>
      <trkpt lat="43.14292238093912601470947265625" lon="13.06787587702274322509765625">
        <ele>517.5999755859375</ele>
        <time>2021-05-09T07:09:00.000Z</time>
        <extensions>
          <ns3:TrackPointExtension>
            <ns3:atemp>15.0</ns3:atemp>
          </ns3:TrackPointExtension>
        </extensions>
      </trkpt>
      <trkpt lat="43.14279816113412380218505859375" lon="13.06777395308017730712890625">
        <ele>519.4000244140625</ele>
        <time>2021-05-09T07:09:05.000Z</time>
        <extensions>
          <ns3:TrackPointExtension>
            <ns3:atemp>15.0</ns3:atemp>
          </ns3:TrackPointExtension>
        </extensions>
      </trkpt>
      <trkpt lat="43.142752312123775482177734375" lon="13.0677194707095623016357421875">
        <ele>520.20001220703125</ele>
        <time>2021-05-09T07:09:07.000Z</time>
        <extensions>
          <ns3:TrackPointExtension>
            <ns3:atemp>15.0</ns3:atemp>
          </ns3:TrackPointExtension>
        </extensions>
      </trkpt>
      <trkpt lat="43.14273864962160587310791015625" lon="13.06768099777400493621826171875">
        <ele>520.4000244140625</ele>
        <time>2021-05-09T07:09:08.000Z</time>
        <extensions>
          <ns3:TrackPointExtension>
            <ns3:atemp>15.0</ns3:atemp>
          </ns3:TrackPointExtension>
        </extensions>
      </trkpt>
      <trkpt lat="43.1427459418773651123046875" lon="13.06759583763778209686279296875">
        <ele>521</ele>
        <time>2021-05-09T07:09:10.000Z</time>
        <extensions>
          <ns3:TrackPointExtension>
            <ns3:atemp>15.0</ns3:atemp>
          </ns3:TrackPointExtension>
        </extensions>
      </trkpt>
      <trkpt lat="43.14281157217919826507568359375" lon="13.06746223010122776031494140625">
        <ele>521.5999755859375</ele>
        <time>2021-05-09T07:09:13.000Z</time>
        <extensions>
          <ns3:TrackPointExtension>
            <ns3:atemp>15.0</ns3:atemp>
          </ns3:TrackPointExtension>
        </extensions>
      </trkpt>
      <trkpt lat="43.1428483687341213226318359375" lon="13.067423589527606964111328125">
        <ele>521.5999755859375</ele>
        <time>2021-05-09T07:09:14.000Z</time>
        <extensions>
          <ns3:TrackPointExtension>
            <ns3:atemp>15.0</ns3:atemp>
          </ns3:TrackPointExtension>
        </extensions>
      </trkpt>
      <trkpt lat="43.14289011061191558837890625" lon="13.067384026944637298583984375">
        <ele>521.5999755859375</ele>
        <time>2021-05-09T07:09:15.000Z</time>
        <extensions>
          <ns3:TrackPointExtension>
            <ns3:atemp>15.0</ns3:atemp>
          </ns3:TrackPointExtension>
        </extensions>
      </trkpt>
      <trkpt lat="43.14311952330172061920166015625" lon="13.06716584600508213043212890625">
        <ele>521.5999755859375</ele>
        <time>2021-05-09T07:09:20.000Z</time>
        <extensions>
          <ns3:TrackPointExtension>
            <ns3:atemp>15.0</ns3:atemp>
          </ns3:TrackPointExtension>
        </extensions>
      </trkpt>
      <trkpt lat="43.1431641988456249237060546875" lon="13.06711471639573574066162109375">
        <ele>521.5999755859375</ele>
        <time>2021-05-09T07:09:21.000Z</time>
        <extensions>
          <ns3:TrackPointExtension>
            <ns3:atemp>15.0</ns3:atemp>
          </ns3:TrackPointExtension>
        </extensions>
      </trkpt>
      <trkpt lat="43.14329118467867374420166015625" lon="13.06694204919040203094482421875">
        <ele>520.20001220703125</ele>
        <time>2021-05-09T07:09:24.000Z</time>
        <extensions>
          <ns3:TrackPointExtension>
            <ns3:atemp>15.0</ns3:atemp>
          </ns3:TrackPointExtension>
        </extensions>
      </trkpt>
      <trkpt lat="43.14333125017583370208740234375" lon="13.06688538752496242523193359375">
        <ele>519.79998779296875</ele>
        <time>2021-05-09T07:09:25.000Z</time>
        <extensions>
          <ns3:TrackPointExtension>
            <ns3:atemp>15.0</ns3:atemp>
          </ns3:TrackPointExtension>
        </extensions>
      </trkpt>
      <trkpt lat="43.143458068370819091796875" lon="13.06671179831027984619140625">
        <ele>519</ele>
        <time>2021-05-09T07:09:28.000Z</time>
        <extensions>
          <ns3:TrackPointExtension>
            <ns3:atemp>15.0</ns3:atemp>
          </ns3:TrackPointExtension>
        </extensions>
      </trkpt>
      <trkpt lat="43.1435058452188968658447265625" lon="13.0666586570441722869873046875">
        <ele>518.79998779296875</ele>
        <time>2021-05-09T07:09:29.000Z</time>
        <extensions>
          <ns3:TrackPointExtension>
            <ns3:atemp>15.0</ns3:atemp>
          </ns3:TrackPointExtension>
        </extensions>
      </trkpt>
      <trkpt lat="43.1436104513704776763916015625" lon="13.0665631033480167388916015625">
        <ele>518</ele>
        <time>2021-05-09T07:09:31.000Z</time>
        <extensions>
          <ns3:TrackPointExtension>
            <ns3:atemp>15.0</ns3:atemp>
          </ns3:TrackPointExtension>
        </extensions>
      </trkpt>
      <trkpt lat="43.1438317336142063140869140625" lon="13.06640191935002803802490234375">
        <ele>516.5999755859375</ele>
        <time>2021-05-09T07:09:35.000Z</time>
        <extensions>
          <ns3:TrackPointExtension>
            <ns3:atemp>15.0</ns3:atemp>
          </ns3:TrackPointExtension>
        </extensions>
      </trkpt>
      <trkpt lat="43.1440010480582714080810546875" lon="13.06630267761647701263427734375">
        <ele>515</ele>
        <time>2021-05-09T07:09:38.000Z</time>
        <extensions>
          <ns3:TrackPointExtension>
            <ns3:atemp>15.0</ns3:atemp>
          </ns3:TrackPointExtension>
        </extensions>
      </trkpt>
      <trkpt lat="43.1441170535981655120849609375" lon="13.06623226962983608245849609375">
        <ele>513.79998779296875</ele>
        <time>2021-05-09T07:09:40.000Z</time>
        <extensions>
          <ns3:TrackPointExtension>
            <ns3:atemp>15.0</ns3:atemp>
          </ns3:TrackPointExtension>
        </extensions>
      </trkpt>
      <trkpt lat="43.1442293711006641387939453125" lon="13.0661451816558837890625">
        <ele>512.20001220703125</ele>
        <time>2021-05-09T07:09:42.000Z</time>
        <extensions>
          <ns3:TrackPointExtension>
            <ns3:atemp>15.0</ns3:atemp>
          </ns3:TrackPointExtension>
        </extensions>
      </trkpt>
      <trkpt lat="43.144259713590145111083984375" lon="13.065983913838863372802734375">
        <ele>511.20001220703125</ele>
        <time>2021-05-09T07:09:44.000Z</time>
        <extensions>
          <ns3:TrackPointExtension>
            <ns3:atemp>15.0</ns3:atemp>
          </ns3:TrackPointExtension>
        </extensions>
      </trkpt>
      <trkpt lat="43.144186623394489288330078125" lon="13.06581971235573291778564453125">
        <ele>509.600006103515625</ele>
        <time>2021-05-09T07:09:46.000Z</time>
        <extensions>
          <ns3:TrackPointExtension>
            <ns3:atemp>15.0</ns3:atemp>
          </ns3:TrackPointExtension>
        </extensions>
      </trkpt>
      <trkpt lat="43.14413943327963352203369140625" lon="13.06574075482785701751708984375">
        <ele>508.79998779296875</ele>
        <time>2021-05-09T07:09:47.000Z</time>
        <extensions>
          <ns3:TrackPointExtension>
            <ns3:atemp>15.0</ns3:atemp>
          </ns3:TrackPointExtension>
        </extensions>
      </trkpt>
      <trkpt lat="43.14408830367028713226318359375" lon="13.065660037100315093994140625">
        <ele>508.20001220703125</ele>
        <time>2021-05-09T07:09:48.000Z</time>
        <extensions>
          <ns3:TrackPointExtension>
            <ns3:atemp>15.0</ns3:atemp>
          </ns3:TrackPointExtension>
        </extensions>
      </trkpt>
      <trkpt lat="43.1439851224422454833984375" lon="13.06548812426626682281494140625">
        <ele>506.600006103515625</ele>
        <time>2021-05-09T07:09:50.000Z</time>
        <extensions>
          <ns3:TrackPointExtension>
            <ns3:atemp>15.0</ns3:atemp>
          </ns3:TrackPointExtension>
        </extensions>
      </trkpt>
      <trkpt lat="43.143886215984821319580078125" lon="13.06531168520450592041015625">
        <ele>504.399993896484375</ele>
        <time>2021-05-09T07:09:52.000Z</time>
        <extensions>
          <ns3:TrackPointExtension>
            <ns3:atemp>15.0</ns3:atemp>
          </ns3:TrackPointExtension>
        </extensions>
      </trkpt>
      <trkpt lat="43.1438391096889972686767578125" lon="13.06522208265960216522216796875">
        <ele>504.20001220703125</ele>
        <time>2021-05-09T07:09:53.000Z</time>
        <extensions>
          <ns3:TrackPointExtension>
            <ns3:atemp>15.0</ns3:atemp>
          </ns3:TrackPointExtension>
        </extensions>
      </trkpt>
      <trkpt lat="43.14379661343991756439208984375" lon="13.06512820534408092498779296875">
        <ele>503.79998779296875</ele>
        <time>2021-05-09T07:09:54.000Z</time>
        <extensions>
          <ns3:TrackPointExtension>
            <ns3:atemp>15.0</ns3:atemp>
          </ns3:TrackPointExtension>
        </extensions>
      </trkpt>
      <trkpt lat="43.14375990070402622222900390625" lon="13.06502879597246646881103515625">
        <ele>503.20001220703125</ele>
        <time>2021-05-09T07:09:55.000Z</time>
        <extensions>
          <ns3:TrackPointExtension>
            <ns3:atemp>15.0</ns3:atemp>
          </ns3:TrackPointExtension>
        </extensions>
      </trkpt>
      <trkpt lat="43.14370189793407917022705078125" lon="13.064822517335414886474609375">
        <ele>501.20001220703125</ele>
        <time>2021-05-09T07:09:57.000Z</time>
        <extensions>
          <ns3:TrackPointExtension>
            <ns3:atemp>15.0</ns3:atemp>
          </ns3:TrackPointExtension>
        </extensions>
      </trkpt>
      <trkpt lat="43.14367759041488170623779296875" lon="13.0647170729935169219970703125">
        <ele>500</ele>
        <time>2021-05-09T07:09:58.000Z</time>
        <extensions>
          <ns3:TrackPointExtension>
            <ns3:atemp>15.0</ns3:atemp>
          </ns3:TrackPointExtension>
        </extensions>
      </trkpt>
      <trkpt lat="43.1436510197818279266357421875" lon="13.06449763476848602294921875">
        <ele>498.20001220703125</ele>
        <time>2021-05-09T07:10:00.000Z</time>
        <extensions>
          <ns3:TrackPointExtension>
            <ns3:atemp>15.0</ns3:atemp>
          </ns3:TrackPointExtension>
        </extensions>
      </trkpt>
      <trkpt lat="43.1436513550579547882080078125" lon="13.06438473053276538848876953125">
        <ele>497.399993896484375</ele>
        <time>2021-05-09T07:10:01.000Z</time>
        <extensions>
          <ns3:TrackPointExtension>
            <ns3:atemp>15.0</ns3:atemp>
          </ns3:TrackPointExtension>
        </extensions>
      </trkpt>
      <trkpt lat="43.143660239875316619873046875" lon="13.06427207775413990020751953125">
        <ele>496.399993896484375</ele>
        <time>2021-05-09T07:10:02.000Z</time>
        <extensions>
          <ns3:TrackPointExtension>
            <ns3:atemp>15.0</ns3:atemp>
          </ns3:TrackPointExtension>
        </extensions>
      </trkpt>
      <trkpt lat="43.143699131906032562255859375" lon="13.064053393900394439697265625">
        <ele>494.600006103515625</ele>
        <time>2021-05-09T07:10:04.000Z</time>
        <extensions>
          <ns3:TrackPointExtension>
            <ns3:atemp>14.0</ns3:atemp>
          </ns3:TrackPointExtension>
        </extensions>
      </trkpt>
      <trkpt lat="43.14372888766229152679443359375" lon="13.06394652463495731353759765625">
        <ele>493.600006103515625</ele>
        <time>2021-05-09T07:10:05.000Z</time>
        <extensions>
          <ns3:TrackPointExtension>
            <ns3:atemp>14.0</ns3:atemp>
          </ns3:TrackPointExtension>
        </extensions>
      </trkpt>
      <trkpt lat="43.14377247355878353118896484375" lon="13.06384007446467876434326171875">
        <ele>492.600006103515625</ele>
        <time>2021-05-09T07:10:06.000Z</time>
        <extensions>
          <ns3:TrackPointExtension>
            <ns3:atemp>14.0</ns3:atemp>
          </ns3:TrackPointExtension>
        </extensions>
      </trkpt>
      <trkpt lat="43.14383064396679401397705078125" lon="13.06373856961727142333984375">
        <ele>491.600006103515625</ele>
        <time>2021-05-09T07:10:07.000Z</time>
        <extensions>
          <ns3:TrackPointExtension>
            <ns3:atemp>14.0</ns3:atemp>
          </ns3:TrackPointExtension>
        </extensions>
      </trkpt>
      <trkpt lat="43.1439018063247203826904296875" lon="13.06364662013947963714599609375">
        <ele>490.399993896484375</ele>
        <time>2021-05-09T07:10:08.000Z</time>
        <extensions>
          <ns3:TrackPointExtension>
            <ns3:atemp>14.0</ns3:atemp>
          </ns3:TrackPointExtension>
        </extensions>
      </trkpt>
      <trkpt lat="43.14398185350000858306884765625" lon="13.06356095708906650543212890625">
        <ele>489.20001220703125</ele>
        <time>2021-05-09T07:10:09.000Z</time>
        <extensions>
          <ns3:TrackPointExtension>
            <ns3:atemp>14.0</ns3:atemp>
          </ns3:TrackPointExtension>
        </extensions>
      </trkpt>
      <trkpt lat="43.14406835474073886871337890625" lon="13.06347982026636600494384765625">
        <ele>488.20001220703125</ele>
        <time>2021-05-09T07:10:10.000Z</time>
        <extensions>
          <ns3:TrackPointExtension>
            <ns3:atemp>14.0</ns3:atemp>
          </ns3:TrackPointExtension>
        </extensions>
      </trkpt>
      <trkpt lat="43.14416005276143550872802734375" lon="13.06339935399591922760009765625">
        <ele>487</ele>
        <time>2021-05-09T07:10:11.000Z</time>
        <extensions>
          <ns3:TrackPointExtension>
            <ns3:atemp>14.0</ns3:atemp>
          </ns3:TrackPointExtension>
        </extensions>
      </trkpt>
      <trkpt lat="43.14425711520016193389892578125" lon="13.06331855244934558868408203125">
        <ele>485.79998779296875</ele>
        <time>2021-05-09T07:10:12.000Z</time>
        <extensions>
          <ns3:TrackPointExtension>
            <ns3:atemp>14.0</ns3:atemp>
          </ns3:TrackPointExtension>
        </extensions>
      </trkpt>
      <trkpt lat="43.14435602165758609771728515625" lon="13.0632314644753932952880859375">
        <ele>484.79998779296875</ele>
        <time>2021-05-09T07:10:13.000Z</time>
        <extensions>
          <ns3:TrackPointExtension>
            <ns3:atemp>14.0</ns3:atemp>
          </ns3:TrackPointExtension>
        </extensions>
      </trkpt>
      <trkpt lat="43.14444989897310733795166015625" lon="13.06312995962798595428466796875">
        <ele>483.600006103515625</ele>
        <time>2021-05-09T07:10:14.000Z</time>
        <extensions>
          <ns3:TrackPointExtension>
            <ns3:atemp>14.0</ns3:atemp>
          </ns3:TrackPointExtension>
        </extensions>
      </trkpt>
      <trkpt lat="43.14453237690031528472900390625" lon="13.06301026605069637298583984375">
        <ele>482</ele>
        <time>2021-05-09T07:10:15.000Z</time>
        <extensions>
          <ns3:TrackPointExtension>
            <ns3:atemp>14.0</ns3:atemp>
          </ns3:TrackPointExtension>
        </extensions>
      </trkpt>
      <trkpt lat="43.14460194669663906097412109375" lon="13.062875904142856597900390625">
        <ele>480.600006103515625</ele>
        <time>2021-05-09T07:10:16.000Z</time>
        <extensions>
          <ns3:TrackPointExtension>
            <ns3:atemp>14.0</ns3:atemp>
          </ns3:TrackPointExtension>
        </extensions>
      </trkpt>
      <trkpt lat="43.14465894363820552825927734375" lon="13.0627315677702426910400390625">
        <ele>479.20001220703125</ele>
        <time>2021-05-09T07:10:17.000Z</time>
        <extensions>
          <ns3:TrackPointExtension>
            <ns3:atemp>14.0</ns3:atemp>
          </ns3:TrackPointExtension>
        </extensions>
      </trkpt>
      <trkpt lat="43.14470864832401275634765625" lon="13.06258195079863071441650390625">
        <ele>477.79998779296875</ele>
        <time>2021-05-09T07:10:18.000Z</time>
        <extensions>
          <ns3:TrackPointExtension>
            <ns3:atemp>14.0</ns3:atemp>
          </ns3:TrackPointExtension>
        </extensions>
      </trkpt>
      <trkpt lat="43.14475365914404392242431640625" lon="13.06242906488478183746337890625">
        <ele>476.600006103515625</ele>
        <time>2021-05-09T07:10:19.000Z</time>
        <extensions>
          <ns3:TrackPointExtension>
            <ns3:atemp>14.0</ns3:atemp>
          </ns3:TrackPointExtension>
        </extensions>
      </trkpt>
      <trkpt lat="43.1447929702699184417724609375" lon="13.0622745864093303680419921875">
        <ele>473.600006103515625</ele>
        <time>2021-05-09T07:10:20.000Z</time>
        <extensions>
          <ns3:TrackPointExtension>
            <ns3:atemp>14.0</ns3:atemp>
          </ns3:TrackPointExtension>
        </extensions>
      </trkpt>
      <trkpt lat="43.14482792280614376068115234375" lon="13.06211960501968860626220703125">
        <ele>472.20001220703125</ele>
        <time>2021-05-09T07:10:21.000Z</time>
        <extensions>
          <ns3:TrackPointExtension>
            <ns3:atemp>14.0</ns3:atemp>
          </ns3:TrackPointExtension>
        </extensions>
      </trkpt>
      <trkpt lat="43.14485751092433929443359375" lon="13.06196420453488826751708984375">
        <ele>471.20001220703125</ele>
        <time>2021-05-09T07:10:22.000Z</time>
        <extensions>
          <ns3:TrackPointExtension>
            <ns3:atemp>14.0</ns3:atemp>
          </ns3:TrackPointExtension>
        </extensions>
      </trkpt>
      <trkpt lat="43.1448809802532196044921875" lon="13.06180913932621479034423828125">
        <ele>470.600006103515625</ele>
        <time>2021-05-09T07:10:23.000Z</time>
        <extensions>
          <ns3:TrackPointExtension>
            <ns3:atemp>14.0</ns3:atemp>
          </ns3:TrackPointExtension>
        </extensions>
      </trkpt>
      <trkpt lat="43.144920207560062408447265625" lon="13.0615068040788173675537109375">
        <ele>469</ele>
        <time>2021-05-09T07:10:25.000Z</time>
        <extensions>
          <ns3:TrackPointExtension>
            <ns3:atemp>14.0</ns3:atemp>
          </ns3:TrackPointExtension>
        </extensions>
      </trkpt>
      <trkpt lat="43.14493889920413494110107421875" lon="13.0613619647920131683349609375">
        <ele>467.79998779296875</ele>
        <time>2021-05-09T07:10:26.000Z</time>
        <extensions>
          <ns3:TrackPointExtension>
            <ns3:atemp>14.0</ns3:atemp>
          </ns3:TrackPointExtension>
        </extensions>
      </trkpt>
      <trkpt lat="43.1449518911540508270263671875" lon="13.06122072972357273101806640625">
        <ele>466.399993896484375</ele>
        <time>2021-05-09T07:10:27.000Z</time>
        <extensions>
          <ns3:TrackPointExtension>
            <ns3:atemp>14.0</ns3:atemp>
          </ns3:TrackPointExtension>
        </extensions>
      </trkpt>
      <trkpt lat="43.144954741001129150390625" lon="13.061085529625415802001953125">
        <ele>465</ele>
        <time>2021-05-09T07:10:28.000Z</time>
        <extensions>
          <ns3:TrackPointExtension>
            <ns3:atemp>14.0</ns3:atemp>
          </ns3:TrackPointExtension>
        </extensions>
      </trkpt>
      <trkpt lat="43.1449300982058048248291015625" lon="13.06084983050823211669921875">
        <ele>464</ele>
        <time>2021-05-09T07:10:30.000Z</time>
        <extensions>
          <ns3:TrackPointExtension>
            <ns3:atemp>14.0</ns3:atemp>
          </ns3:TrackPointExtension>
        </extensions>
      </trkpt>
      <trkpt lat="43.1448720954358577728271484375" lon="13.0604758299887180328369140625">
        <ele>463.600006103515625</ele>
        <time>2021-05-09T07:10:34.000Z</time>
        <extensions>
          <ns3:TrackPointExtension>
            <ns3:atemp>14.0</ns3:atemp>
          </ns3:TrackPointExtension>
        </extensions>
      </trkpt>
      <trkpt lat="43.14486145041882991790771484375" lon="13.0602592416107654571533203125">
        <ele>463.600006103515625</ele>
        <time>2021-05-09T07:10:37.000Z</time>
        <extensions>
          <ns3:TrackPointExtension>
            <ns3:atemp>14.0</ns3:atemp>
          </ns3:TrackPointExtension>
        </extensions>
      </trkpt>
      <trkpt lat="43.144867904484272003173828125" lon="13.06019931100308895111083984375">
        <ele>464.20001220703125</ele>
        <time>2021-05-09T07:10:38.000Z</time>
        <extensions>
          <ns3:TrackPointExtension>
            <ns3:atemp>14.0</ns3:atemp>
          </ns3:TrackPointExtension>
        </extensions>
      </trkpt>
      <trkpt lat="43.1449051201343536376953125" lon="13.06009805761277675628662109375">
        <ele>465.79998779296875</ele>
        <time>2021-05-09T07:10:40.000Z</time>
        <extensions>
          <ns3:TrackPointExtension>
            <ns3:atemp>14.0</ns3:atemp>
          </ns3:TrackPointExtension>
        </extensions>
      </trkpt>
      <trkpt lat="43.1449354626238346099853515625" lon="13.06006000377237796783447265625">
        <ele>466.600006103515625</ele>
        <time>2021-05-09T07:10:41.000Z</time>
        <extensions>
          <ns3:TrackPointExtension>
            <ns3:atemp>14.0</ns3:atemp>
          </ns3:TrackPointExtension>
        </extensions>
      </trkpt>
      <trkpt lat="43.1449730135500431060791015625" lon="13.060031421482563018798828125">
        <ele>467.20001220703125</ele>
        <time>2021-05-09T07:10:42.000Z</time>
        <extensions>
          <ns3:TrackPointExtension>
            <ns3:atemp>14.0</ns3:atemp>
          </ns3:TrackPointExtension>
        </extensions>
      </trkpt>
      <trkpt lat="43.14511240459978580474853515625" lon="13.05999127216637134552001953125">
        <ele>468.600006103515625</ele>
        <time>2021-05-09T07:10:45.000Z</time>
        <extensions>
          <ns3:TrackPointExtension>
            <ns3:atemp>14.0</ns3:atemp>
          </ns3:TrackPointExtension>
        </extensions>
      </trkpt>
      <trkpt lat="43.1451607681810855865478515625" lon="13.0599843151867389678955078125">
        <ele>469</ele>
        <time>2021-05-09T07:10:46.000Z</time>
        <extensions>
          <ns3:TrackPointExtension>
            <ns3:atemp>14.0</ns3:atemp>
          </ns3:TrackPointExtension>
        </extensions>
      </trkpt>
      <trkpt lat="43.14530150033533573150634765625" lon="13.05994986556470394134521484375">
        <ele>469.399993896484375</ele>
        <time>2021-05-09T07:10:49.000Z</time>
        <extensions>
          <ns3:TrackPointExtension>
            <ns3:atemp>14.0</ns3:atemp>
          </ns3:TrackPointExtension>
        </extensions>
      </trkpt>
      <trkpt lat="43.14538699574768543243408203125" lon="13.059887923300266265869140625">
        <ele>469.399993896484375</ele>
        <time>2021-05-09T07:10:51.000Z</time>
        <extensions>
          <ns3:TrackPointExtension>
            <ns3:atemp>14.0</ns3:atemp>
          </ns3:TrackPointExtension>
        </extensions>
      </trkpt>
      <trkpt lat="43.14553703181445598602294921875" lon="13.05971014313399791717529296875">
        <ele>469.399993896484375</ele>
        <time>2021-05-09T07:10:54.000Z</time>
        <extensions>
          <ns3:TrackPointExtension>
            <ns3:atemp>14.0</ns3:atemp>
          </ns3:TrackPointExtension>
        </extensions>
      </trkpt>
      <trkpt lat="43.145596794784069061279296875" lon="13.05963772349059581756591796875">
        <ele>469.399993896484375</ele>
        <time>2021-05-09T07:10:55.000Z</time>
        <extensions>
          <ns3:TrackPointExtension>
            <ns3:atemp>14.0</ns3:atemp>
          </ns3:TrackPointExtension>
        </extensions>
      </trkpt>
      <trkpt lat="43.1459369324147701263427734375" lon="13.05920354090631008148193359375">
        <ele>468</ele>
        <time>2021-05-09T07:11:00.000Z</time>
        <extensions>
          <ns3:TrackPointExtension>
            <ns3:atemp>14.0</ns3:atemp>
          </ns3:TrackPointExtension>
        </extensions>
      </trkpt>
      <trkpt lat="43.14600457437336444854736328125" lon="13.05910815484821796417236328125">
        <ele>467</ele>
        <time>2021-05-09T07:11:01.000Z</time>
        <extensions>
          <ns3:TrackPointExtension>
            <ns3:atemp>14.0</ns3:atemp>
          </ns3:TrackPointExtension>
        </extensions>
      </trkpt>
      <trkpt lat="43.14607263542711734771728515625" lon="13.05901410989463329315185546875">
        <ele>466</ele>
        <time>2021-05-09T07:11:02.000Z</time>
        <extensions>
          <ns3:TrackPointExtension>
            <ns3:atemp>14.0</ns3:atemp>
          </ns3:TrackPointExtension>
        </extensions>
      </trkpt>
      <trkpt lat="43.14613960683345794677734375" lon="13.0589208193123340606689453125">
        <ele>464.79998779296875</ele>
        <time>2021-05-09T07:11:03.000Z</time>
        <extensions>
          <ns3:TrackPointExtension>
            <ns3:atemp>14.0</ns3:atemp>
          </ns3:TrackPointExtension>
        </extensions>
      </trkpt>
      <trkpt lat="43.1462061591446399688720703125" lon="13.05882870219647884368896484375">
        <ele>463.20001220703125</ele>
        <time>2021-05-09T07:11:04.000Z</time>
        <extensions>
          <ns3:TrackPointExtension>
            <ns3:atemp>14.0</ns3:atemp>
          </ns3:TrackPointExtension>
        </extensions>
      </trkpt>
      <trkpt lat="43.14626793377101421356201171875" lon="13.05873516015708446502685546875">
        <ele>461.79998779296875</ele>
        <time>2021-05-09T07:11:05.000Z</time>
        <extensions>
          <ns3:TrackPointExtension>
            <ns3:atemp>14.0</ns3:atemp>
          </ns3:TrackPointExtension>
        </extensions>
      </trkpt>
      <trkpt lat="43.14632643945515155792236328125" lon="13.058642707765102386474609375">
        <ele>460</ele>
        <time>2021-05-09T07:11:06.000Z</time>
        <extensions>
          <ns3:TrackPointExtension>
            <ns3:atemp>14.0</ns3:atemp>
          </ns3:TrackPointExtension>
        </extensions>
      </trkpt>
      <trkpt lat="43.14638578332960605621337890625" lon="13.058558888733386993408203125">
        <ele>458.600006103515625</ele>
        <time>2021-05-09T07:11:07.000Z</time>
        <extensions>
          <ns3:TrackPointExtension>
            <ns3:atemp>14.0</ns3:atemp>
          </ns3:TrackPointExtension>
        </extensions>
      </trkpt>
      <trkpt lat="43.14650170505046844482421875" lon="13.05841974914073944091796875">
        <ele>457.20001220703125</ele>
        <time>2021-05-09T07:11:09.000Z</time>
        <extensions>
          <ns3:TrackPointExtension>
            <ns3:atemp>14.0</ns3:atemp>
          </ns3:TrackPointExtension>
        </extensions>
      </trkpt>
      <trkpt lat="43.1466571055352687835693359375" lon="13.058246411383152008056640625">
        <ele>456.79998779296875</ele>
        <time>2021-05-09T07:11:12.000Z</time>
        <extensions>
          <ns3:TrackPointExtension>
            <ns3:atemp>14.0</ns3:atemp>
          </ns3:TrackPointExtension>
        </extensions>
      </trkpt>
      <trkpt lat="43.14695097506046295166015625" lon="13.057907782495021820068359375">
        <ele>457.600006103515625</ele>
        <time>2021-05-09T07:11:19.000Z</time>
        <extensions>
          <ns3:TrackPointExtension>
            <ns3:atemp>14.0</ns3:atemp>
          </ns3:TrackPointExtension>
        </extensions>
      </trkpt>
      <trkpt lat="43.14703538082540035247802734375" lon="13.057822622358798980712890625">
        <ele>458.20001220703125</ele>
        <time>2021-05-09T07:11:21.000Z</time>
        <extensions>
          <ns3:TrackPointExtension>
            <ns3:atemp>14.0</ns3:atemp>
          </ns3:TrackPointExtension>
        </extensions>
      </trkpt>
      <trkpt lat="43.14712372608482837677001953125" lon="13.05773084051907062530517578125">
        <ele>458.399993896484375</ele>
        <time>2021-05-09T07:11:23.000Z</time>
        <extensions>
          <ns3:TrackPointExtension>
            <ns3:atemp>14.0</ns3:atemp>
          </ns3:TrackPointExtension>
        </extensions>
      </trkpt>
      <trkpt lat="43.14715658314526081085205078125" lon="13.05765707977116107940673828125">
        <ele>458.399993896484375</ele>
        <time>2021-05-09T07:11:24.000Z</time>
        <extensions>
          <ns3:TrackPointExtension>
            <ns3:atemp>14.0</ns3:atemp>
          </ns3:TrackPointExtension>
        </extensions>
      </trkpt>
      <trkpt lat="43.1472408212721347808837890625" lon="13.05738165043294429779052734375">
        <ele>458.399993896484375</ele>
        <time>2021-05-09T07:11:27.000Z</time>
        <extensions>
          <ns3:TrackPointExtension>
            <ns3:atemp>14.0</ns3:atemp>
          </ns3:TrackPointExtension>
        </extensions>
      </trkpt>
      <trkpt lat="43.147258423268795013427734375" lon="13.057279475033283233642578125">
        <ele>458.399993896484375</ele>
        <time>2021-05-09T07:11:28.000Z</time>
        <extensions>
          <ns3:TrackPointExtension>
            <ns3:atemp>14.0</ns3:atemp>
          </ns3:TrackPointExtension>
        </extensions>
      </trkpt>
      <trkpt lat="43.14727946184575557708740234375" lon="13.05718014948070049285888671875">
        <ele>458.399993896484375</ele>
        <time>2021-05-09T07:11:29.000Z</time>
        <extensions>
          <ns3:TrackPointExtension>
            <ns3:atemp>14.0</ns3:atemp>
          </ns3:TrackPointExtension>
        </extensions>
      </trkpt>
      <trkpt lat="43.1473715789616107940673828125" lon="13.0570322088897228240966796875">
        <ele>458.20001220703125</ele>
        <time>2021-05-09T07:11:31.000Z</time>
        <extensions>
          <ns3:TrackPointExtension>
            <ns3:atemp>13.0</ns3:atemp>
          </ns3:TrackPointExtension>
        </extensions>
      </trkpt>
      <trkpt lat="43.14749948680400848388671875" lon="13.0569561012089252471923828125">
        <ele>456.600006103515625</ele>
        <time>2021-05-09T07:11:33.000Z</time>
        <extensions>
          <ns3:TrackPointExtension>
            <ns3:atemp>13.0</ns3:atemp>
          </ns3:TrackPointExtension>
        </extensions>
      </trkpt>
      <trkpt lat="43.14756344072520732879638671875" lon="13.05691963993012905120849609375">
        <ele>455.600006103515625</ele>
        <time>2021-05-09T07:11:34.000Z</time>
        <extensions>
          <ns3:TrackPointExtension>
            <ns3:atemp>13.0</ns3:atemp>
          </ns3:TrackPointExtension>
        </extensions>
      </trkpt>
      <trkpt lat="43.1476250477135181427001953125" lon="13.05687923915684223175048828125">
        <ele>454.399993896484375</ele>
        <time>2021-05-09T07:11:35.000Z</time>
        <extensions>
          <ns3:TrackPointExtension>
            <ns3:atemp>13.0</ns3:atemp>
          </ns3:TrackPointExtension>
        </extensions>
      </trkpt>
      <trkpt lat="43.14768279902637004852294921875" lon="13.05683766491711139678955078125">
        <ele>453.399993896484375</ele>
        <time>2021-05-09T07:11:36.000Z</time>
        <extensions>
          <ns3:TrackPointExtension>
            <ns3:atemp>13.0</ns3:atemp>
          </ns3:TrackPointExtension>
        </extensions>
      </trkpt>
      <trkpt lat="43.1477876566350460052490234375" lon="13.056753762066364288330078125">
        <ele>451.399993896484375</ele>
        <time>2021-05-09T07:11:38.000Z</time>
        <extensions>
          <ns3:TrackPointExtension>
            <ns3:atemp>13.0</ns3:atemp>
          </ns3:TrackPointExtension>
        </extensions>
      </trkpt>
      <trkpt lat="43.147836439311504364013671875" lon="13.05670858360826969146728515625">
        <ele>450.399993896484375</ele>
        <time>2021-05-09T07:11:39.000Z</time>
        <extensions>
          <ns3:TrackPointExtension>
            <ns3:atemp>13.0</ns3:atemp>
          </ns3:TrackPointExtension>
        </extensions>
      </trkpt>
      <trkpt lat="43.1479348428547382354736328125" lon="13.05660699494183063507080078125">
        <ele>448.399993896484375</ele>
        <time>2021-05-09T07:11:41.000Z</time>
        <extensions>
          <ns3:TrackPointExtension>
            <ns3:atemp>13.0</ns3:atemp>
          </ns3:TrackPointExtension>
        </extensions>
      </trkpt>
      <trkpt lat="43.14798421226441860198974609375" lon="13.0565534345805644989013671875">
        <ele>447.399993896484375</ele>
        <time>2021-05-09T07:11:42.000Z</time>
        <extensions>
          <ns3:TrackPointExtension>
            <ns3:atemp>13.0</ns3:atemp>
          </ns3:TrackPointExtension>
        </extensions>
      </trkpt>
      <trkpt lat="43.1480826996266841888427734375" lon="13.0564323998987674713134765625">
        <ele>445.600006103515625</ele>
        <time>2021-05-09T07:11:44.000Z</time>
        <extensions>
          <ns3:TrackPointExtension>
            <ns3:atemp>13.0</ns3:atemp>
          </ns3:TrackPointExtension>
        </extensions>
      </trkpt>
      <trkpt lat="43.1481759063899517059326171875" lon="13.0562902428209781646728515625">
        <ele>444.20001220703125</ele>
        <time>2021-05-09T07:11:46.000Z</time>
        <extensions>
          <ns3:TrackPointExtension>
            <ns3:atemp>13.0</ns3:atemp>
          </ns3:TrackPointExtension>
        </extensions>
      </trkpt>
      <trkpt lat="43.14822158776223659515380859375" lon="13.0562205053865909576416015625">
        <ele>442.600006103515625</ele>
        <time>2021-05-09T07:11:47.000Z</time>
        <extensions>
          <ns3:TrackPointExtension>
            <ns3:atemp>13.0</ns3:atemp>
          </ns3:TrackPointExtension>
        </extensions>
      </trkpt>
      <trkpt lat="43.14830951392650604248046875" lon="13.05610097944736480712890625">
        <ele>441.20001220703125</ele>
        <time>2021-05-09T07:11:49.000Z</time>
        <extensions>
          <ns3:TrackPointExtension>
            <ns3:atemp>13.0</ns3:atemp>
          </ns3:TrackPointExtension>
        </extensions>
      </trkpt>
      <trkpt lat="43.14837547950446605682373046875" lon="13.056010119616985321044921875">
        <ele>439.600006103515625</ele>
        <time>2021-05-09T07:11:51.000Z</time>
        <extensions>
          <ns3:TrackPointExtension>
            <ns3:atemp>13.0</ns3:atemp>
          </ns3:TrackPointExtension>
        </extensions>
      </trkpt>
      <trkpt lat="43.1484132818877696990966796875" lon="13.05594138801097869873046875">
        <ele>437.79998779296875</ele>
        <time>2021-05-09T07:11:53.000Z</time>
        <extensions>
          <ns3:TrackPointExtension>
            <ns3:atemp>13.0</ns3:atemp>
          </ns3:TrackPointExtension>
        </extensions>
      </trkpt>
      <trkpt lat="43.14843825995922088623046875" lon="13.055894114077091217041015625">
        <ele>436.399993896484375</ele>
        <time>2021-05-09T07:11:55.000Z</time>
        <extensions>
          <ns3:TrackPointExtension>
            <ns3:atemp>13.0</ns3:atemp>
          </ns3:TrackPointExtension>
        </extensions>
      </trkpt>
      <trkpt lat="43.14844907261431217193603515625" lon="13.05586972273886203765869140625">
        <ele>435</ele>
        <time>2021-05-09T07:11:57.000Z</time>
        <extensions>
          <ns3:TrackPointExtension>
            <ns3:atemp>13.0</ns3:atemp>
          </ns3:TrackPointExtension>
        </extensions>
      </trkpt>
      <trkpt lat="43.1484488211572170257568359375" lon="13.05586871691048145294189453125">
        <ele>434</ele>
        <time>2021-05-09T07:11:59.000Z</time>
        <extensions>
          <ns3:TrackPointExtension>
            <ns3:atemp>13.0</ns3:atemp>
          </ns3:TrackPointExtension>
        </extensions>
      </trkpt>
      <trkpt lat="43.14844907261431217193603515625" lon="13.05586955510079860687255859375">
        <ele>433.79998779296875</ele>
        <time>2021-05-09T07:12:00.000Z</time>
        <extensions>
          <ns3:TrackPointExtension>
            <ns3:atemp>13.0</ns3:atemp>
          </ns3:TrackPointExtension>
        </extensions>
      </trkpt>
      <trkpt lat="43.14846038818359375" lon="13.055860586464405059814453125">
        <ele>433.20001220703125</ele>
        <time>2021-05-09T07:12:08.000Z</time>
        <extensions>
          <ns3:TrackPointExtension>
            <ns3:atemp>13.0</ns3:atemp>
          </ns3:TrackPointExtension>
        </extensions>
      </trkpt>
      <trkpt lat="43.14843666739761829376220703125" lon="13.05579646490514278411865234375">
        <ele>433.20001220703125</ele>
        <time>2021-05-09T07:12:15.000Z</time>
        <extensions>
          <ns3:TrackPointExtension>
            <ns3:atemp>13.0</ns3:atemp>
          </ns3:TrackPointExtension>
        </extensions>
      </trkpt>
      <trkpt lat="43.14841805957257747650146484375" lon="13.055710382759571075439453125">
        <ele>433</ele>
        <time>2021-05-09T07:12:17.000Z</time>
        <extensions>
          <ns3:TrackPointExtension>
            <ns3:atemp>13.0</ns3:atemp>
          </ns3:TrackPointExtension>
        </extensions>
      </trkpt>
      <trkpt lat="43.1483938358724117279052734375" lon="13.05559161119163036346435546875">
        <ele>433</ele>
        <time>2021-05-09T07:12:19.000Z</time>
        <extensions>
          <ns3:TrackPointExtension>
            <ns3:atemp>13.0</ns3:atemp>
          </ns3:TrackPointExtension>
        </extensions>
      </trkpt>
      <trkpt lat="43.14834748394787311553955078125" lon="13.0554567463696002960205078125">
        <ele>433</ele>
        <time>2021-05-09T07:12:21.000Z</time>
        <extensions>
          <ns3:TrackPointExtension>
            <ns3:atemp>13.0</ns3:atemp>
          </ns3:TrackPointExtension>
        </extensions>
      </trkpt>
      <trkpt lat="43.1483090110123157501220703125" lon="13.055312745273113250732421875">
        <ele>432.600006103515625</ele>
        <time>2021-05-09T07:12:23.000Z</time>
        <extensions>
          <ns3:TrackPointExtension>
            <ns3:atemp>13.0</ns3:atemp>
          </ns3:TrackPointExtension>
        </extensions>
      </trkpt>
      <trkpt lat="43.14829668961465358734130859375" lon="13.05524108000099658966064453125">
        <ele>432.399993896484375</ele>
        <time>2021-05-09T07:12:24.000Z</time>
        <extensions>
          <ns3:TrackPointExtension>
            <ns3:atemp>13.0</ns3:atemp>
          </ns3:TrackPointExtension>
        </extensions>
      </trkpt>
      <trkpt lat="43.14824924804270267486572265625" lon="13.0548143573105335235595703125">
        <ele>432.20001220703125</ele>
        <time>2021-05-09T07:12:30.000Z</time>
        <extensions>
          <ns3:TrackPointExtension>
            <ns3:atemp>13.0</ns3:atemp>
          </ns3:TrackPointExtension>
        </extensions>
      </trkpt>
      <trkpt lat="43.14823013730347156524658203125" lon="13.05473967455327510833740234375">
        <ele>432.20001220703125</ele>
        <time>2021-05-09T07:12:31.000Z</time>
        <extensions>
          <ns3:TrackPointExtension>
            <ns3:atemp>13.0</ns3:atemp>
          </ns3:TrackPointExtension>
        </extensions>
      </trkpt>
      <trkpt lat="43.1481309793889522552490234375" lon="13.0545558594167232513427734375">
        <ele>432.20001220703125</ele>
        <time>2021-05-09T07:12:34.000Z</time>
        <extensions>
          <ns3:TrackPointExtension>
            <ns3:atemp>13.0</ns3:atemp>
          </ns3:TrackPointExtension>
        </extensions>
      </trkpt>
      <trkpt lat="43.14800784923136234283447265625" lon="13.0544586293399333953857421875">
        <ele>432</ele>
        <time>2021-05-09T07:12:37.000Z</time>
        <extensions>
          <ns3:TrackPointExtension>
            <ns3:atemp>13.0</ns3:atemp>
          </ns3:TrackPointExtension>
        </extensions>
      </trkpt>
      <trkpt lat="43.14797063358128070831298828125" lon="13.05443608202040195465087890625">
        <ele>431.79998779296875</ele>
        <time>2021-05-09T07:12:38.000Z</time>
        <extensions>
          <ns3:TrackPointExtension>
            <ns3:atemp>13.0</ns3:atemp>
          </ns3:TrackPointExtension>
        </extensions>
      </trkpt>
      <trkpt lat="43.14793827943503856658935546875" lon="13.0544113554060459136962890625">
        <ele>431.79998779296875</ele>
        <time>2021-05-09T07:12:39.000Z</time>
        <extensions>
          <ns3:TrackPointExtension>
            <ns3:atemp>13.0</ns3:atemp>
          </ns3:TrackPointExtension>
        </extensions>
      </trkpt>
      <trkpt lat="43.147869296371936798095703125" lon="13.05434882640838623046875">
        <ele>431.79998779296875</ele>
        <time>2021-05-09T07:12:42.000Z</time>
        <extensions>
          <ns3:TrackPointExtension>
            <ns3:atemp>13.0</ns3:atemp>
          </ns3:TrackPointExtension>
        </extensions>
      </trkpt>
      <trkpt lat="43.147844485938549041748046875" lon="13.0542893148958683013916015625">
        <ele>431.79998779296875</ele>
        <time>2021-05-09T07:12:44.000Z</time>
        <extensions>
          <ns3:TrackPointExtension>
            <ns3:atemp>13.0</ns3:atemp>
          </ns3:TrackPointExtension>
        </extensions>
      </trkpt>
      <trkpt lat="43.14783602021634578704833984375" lon="13.0541780032217502593994140625">
        <ele>431.600006103515625</ele>
        <time>2021-05-09T07:12:46.000Z</time>
        <extensions>
          <ns3:TrackPointExtension>
            <ns3:atemp>13.0</ns3:atemp>
          </ns3:TrackPointExtension>
        </extensions>
      </trkpt>
      <trkpt lat="43.1478362716734409332275390625" lon="13.0541055835783481597900390625">
        <ele>431.399993896484375</ele>
        <time>2021-05-09T07:12:47.000Z</time>
        <extensions>
          <ns3:TrackPointExtension>
            <ns3:atemp>13.0</ns3:atemp>
          </ns3:TrackPointExtension>
        </extensions>
      </trkpt>
      <trkpt lat="43.1478423066437244415283203125" lon="13.05397826246917247772216796875">
        <ele>431.20001220703125</ele>
        <time>2021-05-09T07:12:49.000Z</time>
        <extensions>
          <ns3:TrackPointExtension>
            <ns3:atemp>13.0</ns3:atemp>
          </ns3:TrackPointExtension>
        </extensions>
      </trkpt>
      <trkpt lat="43.14784809015691280364990234375" lon="13.05394104681909084320068359375">
        <ele>431.20001220703125</ele>
        <time>2021-05-09T07:12:50.000Z</time>
        <extensions>
          <ns3:TrackPointExtension>
            <ns3:atemp>13.0</ns3:atemp>
          </ns3:TrackPointExtension>
        </extensions>
      </trkpt>
      <trkpt lat="43.1478439830243587493896484375" lon="13.05392344482243061065673828125">
        <ele>431.399993896484375</ele>
        <time>2021-05-09T07:12:51.000Z</time>
        <extensions>
          <ns3:TrackPointExtension>
            <ns3:atemp>13.0</ns3:atemp>
          </ns3:TrackPointExtension>
        </extensions>
      </trkpt>
      <trkpt lat="43.14781196415424346923828125" lon="13.0538323335349559783935546875">
        <ele>431.79998779296875</ele>
        <time>2021-05-09T07:12:54.000Z</time>
        <extensions>
          <ns3:TrackPointExtension>
            <ns3:atemp>13.0</ns3:atemp>
          </ns3:TrackPointExtension>
        </extensions>
      </trkpt>
      <trkpt lat="43.14779947511851787567138671875" lon="13.05378145538270473480224609375">
        <ele>431.79998779296875</ele>
        <time>2021-05-09T07:12:55.000Z</time>
        <extensions>
          <ns3:TrackPointExtension>
            <ns3:atemp>13.0</ns3:atemp>
          </ns3:TrackPointExtension>
        </extensions>
      </trkpt>
      <trkpt lat="43.14772521145641803741455078125" lon="13.053572662174701690673828125">
        <ele>432</ele>
        <time>2021-05-09T07:12:59.000Z</time>
        <extensions>
          <ns3:TrackPointExtension>
            <ns3:atemp>13.0</ns3:atemp>
          </ns3:TrackPointExtension>
        </extensions>
      </trkpt>
      <trkpt lat="43.1475412286818027496337890625" lon="13.0532844923436641693115234375">
        <ele>432</ele>
        <time>2021-05-09T07:13:06.000Z</time>
        <extensions>
          <ns3:TrackPointExtension>
            <ns3:atemp>13.0</ns3:atemp>
          </ns3:TrackPointExtension>
        </extensions>
      </trkpt>
      <trkpt lat="43.14748473465442657470703125" lon="13.0532050319015979766845703125">
        <ele>432.399993896484375</ele>
        <time>2021-05-09T07:13:08.000Z</time>
        <extensions>
          <ns3:TrackPointExtension>
            <ns3:atemp>13.0</ns3:atemp>
          </ns3:TrackPointExtension>
        </extensions>
      </trkpt>
      <trkpt lat="43.1473638676106929779052734375" lon="13.0530273355543613433837890625">
        <ele>433.79998779296875</ele>
        <time>2021-05-09T07:13:13.000Z</time>
        <extensions>
          <ns3:TrackPointExtension>
            <ns3:atemp>13.0</ns3:atemp>
          </ns3:TrackPointExtension>
        </extensions>
      </trkpt>
      <trkpt lat="43.1473405659198760986328125" lon="13.05299188010394573211669921875">
        <ele>434</ele>
        <time>2021-05-09T07:13:14.000Z</time>
        <extensions>
          <ns3:TrackPointExtension>
            <ns3:atemp>13.0</ns3:atemp>
          </ns3:TrackPointExtension>
        </extensions>
      </trkpt>
      <trkpt lat="43.1471844948828220367431640625" lon="13.05276607163250446319580078125">
        <ele>434.20001220703125</ele>
        <time>2021-05-09T07:13:19.000Z</time>
        <extensions>
          <ns3:TrackPointExtension>
            <ns3:atemp>13.0</ns3:atemp>
          </ns3:TrackPointExtension>
        </extensions>
      </trkpt>
      <trkpt lat="43.14690747298300266265869140625" lon="13.0523899756371974945068359375">
        <ele>433.20001220703125</ele>
        <time>2021-05-09T07:13:26.000Z</time>
        <extensions>
          <ns3:TrackPointExtension>
            <ns3:atemp>13.0</ns3:atemp>
          </ns3:TrackPointExtension>
        </extensions>
      </trkpt>
      <trkpt lat="43.14686204306781291961669921875" lon="13.0523229204118251800537109375">
        <ele>432.600006103515625</ele>
        <time>2021-05-09T07:13:27.000Z</time>
        <extensions>
          <ns3:TrackPointExtension>
            <ns3:atemp>13.0</ns3:atemp>
          </ns3:TrackPointExtension>
        </extensions>
      </trkpt>
      <trkpt lat="43.146764896810054779052734375" lon="13.05217715911567211151123046875">
        <ele>430.79998779296875</ele>
        <time>2021-05-09T07:13:29.000Z</time>
        <extensions>
          <ns3:TrackPointExtension>
            <ns3:atemp>13.0</ns3:atemp>
          </ns3:TrackPointExtension>
        </extensions>
      </trkpt>
      <trkpt lat="43.14666154794394969940185546875" lon="13.0520201660692691802978515625">
        <ele>429.399993896484375</ele>
        <time>2021-05-09T07:13:31.000Z</time>
        <extensions>
          <ns3:TrackPointExtension>
            <ns3:atemp>13.0</ns3:atemp>
          </ns3:TrackPointExtension>
        </extensions>
      </trkpt>
      <trkpt lat="43.146608658134937286376953125" lon="13.05193777196109294891357421875">
        <ele>428.600006103515625</ele>
        <time>2021-05-09T07:13:32.000Z</time>
        <extensions>
          <ns3:TrackPointExtension>
            <ns3:atemp>13.0</ns3:atemp>
          </ns3:TrackPointExtension>
        </extensions>
      </trkpt>
      <trkpt lat="43.14655744470655918121337890625" lon="13.05185395292937755584716796875">
        <ele>427.79998779296875</ele>
        <time>2021-05-09T07:13:33.000Z</time>
        <extensions>
          <ns3:TrackPointExtension>
            <ns3:atemp>13.0</ns3:atemp>
          </ns3:TrackPointExtension>
        </extensions>
      </trkpt>
      <trkpt lat="43.1464634835720062255859375" lon="13.0516909249126911163330078125">
        <ele>425.79998779296875</ele>
        <time>2021-05-09T07:13:35.000Z</time>
        <extensions>
          <ns3:TrackPointExtension>
            <ns3:atemp>13.0</ns3:atemp>
          </ns3:TrackPointExtension>
        </extensions>
      </trkpt>
      <trkpt lat="43.1464204005897045135498046875" lon="13.05161540396511554718017578125">
        <ele>424.600006103515625</ele>
        <time>2021-05-09T07:13:36.000Z</time>
        <extensions>
          <ns3:TrackPointExtension>
            <ns3:atemp>13.0</ns3:atemp>
          </ns3:TrackPointExtension>
        </extensions>
      </trkpt>
      <trkpt lat="43.1463803350925445556640625" lon="13.05154432542622089385986328125">
        <ele>423.600006103515625</ele>
        <time>2021-05-09T07:13:37.000Z</time>
        <extensions>
          <ns3:TrackPointExtension>
            <ns3:atemp>13.0</ns3:atemp>
          </ns3:TrackPointExtension>
        </extensions>
      </trkpt>
      <trkpt lat="43.14634320326149463653564453125" lon="13.05147676728665828704833984375">
        <ele>422.399993896484375</ele>
        <time>2021-05-09T07:13:38.000Z</time>
        <extensions>
          <ns3:TrackPointExtension>
            <ns3:atemp>13.0</ns3:atemp>
          </ns3:TrackPointExtension>
        </extensions>
      </trkpt>
      <trkpt lat="43.146241195499897003173828125" lon="13.0512986518442630767822265625">
        <ele>421.399993896484375</ele>
        <time>2021-05-09T07:13:41.000Z</time>
        <extensions>
          <ns3:TrackPointExtension>
            <ns3:atemp>13.0</ns3:atemp>
          </ns3:TrackPointExtension>
        </extensions>
      </trkpt>
      <trkpt lat="43.1461121141910552978515625" lon="13.05108348838984966278076171875">
        <ele>421.20001220703125</ele>
        <time>2021-05-09T07:13:45.000Z</time>
        <extensions>
          <ns3:TrackPointExtension>
            <ns3:atemp>13.0</ns3:atemp>
          </ns3:TrackPointExtension>
        </extensions>
      </trkpt>
      <trkpt lat="43.145873062312602996826171875" lon="13.0506797321140766143798828125">
        <ele>421.600006103515625</ele>
        <time>2021-05-09T07:13:53.000Z</time>
        <extensions>
          <ns3:TrackPointExtension>
            <ns3:atemp>13.0</ns3:atemp>
          </ns3:TrackPointExtension>
        </extensions>
      </trkpt>
      <trkpt lat="43.14570249058306217193603515625" lon="13.05039281956851482391357421875">
        <ele>422</ele>
        <time>2021-05-09T07:14:00.000Z</time>
        <extensions>
          <ns3:TrackPointExtension>
            <ns3:atemp>13.0</ns3:atemp>
          </ns3:TrackPointExtension>
        </extensions>
      </trkpt>
      <trkpt lat="43.1456573121249675750732421875" lon="13.05031034164130687713623046875">
        <ele>422.399993896484375</ele>
        <time>2021-05-09T07:14:02.000Z</time>
        <extensions>
          <ns3:TrackPointExtension>
            <ns3:atemp>13.0</ns3:atemp>
          </ns3:TrackPointExtension>
        </extensions>
      </trkpt>
      <trkpt lat="43.14556066878139972686767578125" lon="13.0501255206763744354248046875">
        <ele>422.79998779296875</ele>
        <time>2021-05-09T07:14:06.000Z</time>
        <extensions>
          <ns3:TrackPointExtension>
            <ns3:atemp>13.0</ns3:atemp>
          </ns3:TrackPointExtension>
        </extensions>
      </trkpt>
      <trkpt lat="43.145372159779071807861328125" lon="13.0497421324253082275390625">
        <ele>422.79998779296875</ele>
        <time>2021-05-09T07:14:14.000Z</time>
        <extensions>
          <ns3:TrackPointExtension>
            <ns3:atemp>13.0</ns3:atemp>
          </ns3:TrackPointExtension>
        </extensions>
      </trkpt>
      <trkpt lat="43.14529781229794025421142578125" lon="13.04958145134150981903076171875">
        <ele>422.79998779296875</ele>
        <time>2021-05-09T07:14:18.000Z</time>
        <extensions>
          <ns3:TrackPointExtension>
            <ns3:atemp>13.0</ns3:atemp>
          </ns3:TrackPointExtension>
        </extensions>
      </trkpt>
      <trkpt lat="43.14527132548391819000244140625" lon="13.04955094121396541595458984375">
        <ele>422.79998779296875</ele>
        <time>2021-05-09T07:14:20.000Z</time>
        <extensions>
          <ns3:TrackPointExtension>
            <ns3:atemp>13.0</ns3:atemp>
          </ns3:TrackPointExtension>
        </extensions>
      </trkpt>
      <trkpt lat="43.14526512287557125091552734375" lon="13.04956376552581787109375">
        <ele>422.79998779296875</ele>
        <time>2021-05-09T07:14:22.000Z</time>
        <extensions>
          <ns3:TrackPointExtension>
            <ns3:atemp>13.0</ns3:atemp>
          </ns3:TrackPointExtension>
        </extensions>
      </trkpt>
      <trkpt lat="43.14529563300311565399169921875" lon="13.04967013187706470489501953125">
        <ele>422.79998779296875</ele>
        <time>2021-05-09T07:14:29.000Z</time>
        <extensions>
          <ns3:TrackPointExtension>
            <ns3:atemp>13.0</ns3:atemp>
          </ns3:TrackPointExtension>
        </extensions>
      </trkpt>
      <trkpt lat="43.14529228024184703826904296875" lon="13.04970659315586090087890625">
        <ele>422.79998779296875</ele>
        <time>2021-05-09T07:14:31.000Z</time>
        <extensions>
          <ns3:TrackPointExtension>
            <ns3:atemp>13.0</ns3:atemp>
          </ns3:TrackPointExtension>
        </extensions>
      </trkpt>
      <trkpt lat="43.14526093192398548126220703125" lon="13.04974858649075031280517578125">
        <ele>422.79998779296875</ele>
        <time>2021-05-09T07:14:33.000Z</time>
        <extensions>
          <ns3:TrackPointExtension>
            <ns3:atemp>13.0</ns3:atemp>
          </ns3:TrackPointExtension>
        </extensions>
      </trkpt>
      <trkpt lat="43.1450699083507061004638671875" lon="13.04996944963932037353515625">
        <ele>422.399993896484375</ele>
        <time>2021-05-09T07:14:40.000Z</time>
        <extensions>
          <ns3:TrackPointExtension>
            <ns3:atemp>13.0</ns3:atemp>
          </ns3:TrackPointExtension>
        </extensions>
      </trkpt>
      <trkpt lat="43.1449555791914463043212890625" lon="13.05003692395985126495361328125">
        <ele>421</ele>
        <time>2021-05-09T07:14:43.000Z</time>
        <extensions>
          <ns3:TrackPointExtension>
            <ns3:atemp>13.0</ns3:atemp>
          </ns3:TrackPointExtension>
        </extensions>
      </trkpt>
      <trkpt lat="43.14482306130230426788330078125" lon="13.0500983633100986480712890625">
        <ele>419.399993896484375</ele>
        <time>2021-05-09T07:14:46.000Z</time>
        <extensions>
          <ns3:TrackPointExtension>
            <ns3:atemp>13.0</ns3:atemp>
          </ns3:TrackPointExtension>
        </extensions>
      </trkpt>
      <trkpt lat="43.144723065197467803955078125" lon="13.05013180710375308990478515625">
        <ele>418</ele>
        <time>2021-05-09T07:14:48.000Z</time>
        <extensions>
          <ns3:TrackPointExtension>
            <ns3:atemp>13.0</ns3:atemp>
          </ns3:TrackPointExtension>
        </extensions>
      </trkpt>
      <trkpt lat="43.1446301937103271484375" lon="13.0501714535057544708251953125">
        <ele>416.600006103515625</ele>
        <time>2021-05-09T07:14:50.000Z</time>
        <extensions>
          <ns3:TrackPointExtension>
            <ns3:atemp>13.0</ns3:atemp>
          </ns3:TrackPointExtension>
        </extensions>
      </trkpt>
      <trkpt lat="43.14459205605089664459228515625" lon="13.0501992814242839813232421875">
        <ele>415.600006103515625</ele>
        <time>2021-05-09T07:14:51.000Z</time>
        <extensions>
          <ns3:TrackPointExtension>
            <ns3:atemp>13.0</ns3:atemp>
          </ns3:TrackPointExtension>
        </extensions>
      </trkpt>
      <trkpt lat="43.14455852843821048736572265625" lon="13.05022434331476688385009765625">
        <ele>414.600006103515625</ele>
        <time>2021-05-09T07:14:52.000Z</time>
        <extensions>
          <ns3:TrackPointExtension>
            <ns3:atemp>13.0</ns3:atemp>
          </ns3:TrackPointExtension>
        </extensions>
      </trkpt>
      <trkpt lat="43.14452852122485637664794921875" lon="13.05024378933012485504150390625">
        <ele>413.600006103515625</ele>
        <time>2021-05-09T07:14:53.000Z</time>
        <extensions>
          <ns3:TrackPointExtension>
            <ns3:atemp>13.0</ns3:atemp>
          </ns3:TrackPointExtension>
        </extensions>
      </trkpt>
      <trkpt lat="43.1445006094872951507568359375" lon="13.050258792936801910400390625">
        <ele>412.399993896484375</ele>
        <time>2021-05-09T07:14:54.000Z</time>
        <extensions>
          <ns3:TrackPointExtension>
            <ns3:atemp>13.0</ns3:atemp>
          </ns3:TrackPointExtension>
        </extensions>
      </trkpt>
      <trkpt lat="43.14447554759681224822998046875" lon="13.05027781985700130462646484375">
        <ele>411.399993896484375</ele>
        <time>2021-05-09T07:14:55.000Z</time>
        <extensions>
          <ns3:TrackPointExtension>
            <ns3:atemp>13.0</ns3:atemp>
          </ns3:TrackPointExtension>
        </extensions>
      </trkpt>
      <trkpt lat="43.144450485706329345703125" lon="13.050301373004913330078125">
        <ele>410.600006103515625</ele>
        <time>2021-05-09T07:14:56.000Z</time>
        <extensions>
          <ns3:TrackPointExtension>
            <ns3:atemp>13.0</ns3:atemp>
          </ns3:TrackPointExtension>
        </extensions>
      </trkpt>
      <trkpt lat="43.14442609436810016632080078125" lon="13.05032827891409397125244140625">
        <ele>409.79998779296875</ele>
        <time>2021-05-09T07:14:57.000Z</time>
        <extensions>
          <ns3:TrackPointExtension>
            <ns3:atemp>13.0</ns3:atemp>
          </ns3:TrackPointExtension>
        </extensions>
      </trkpt>
      <trkpt lat="43.14438686706125736236572265625" lon="13.05038946680724620819091796875">
        <ele>408.600006103515625</ele>
        <time>2021-05-09T07:14:59.000Z</time>
        <extensions>
          <ns3:TrackPointExtension>
            <ns3:atemp>13.0</ns3:atemp>
          </ns3:TrackPointExtension>
        </extensions>
      </trkpt>
      <trkpt lat="43.14436540938913822174072265625" lon="13.050473369657993316650390625">
        <ele>408</ele>
        <time>2021-05-09T07:15:01.000Z</time>
        <extensions>
          <ns3:TrackPointExtension>
            <ns3:atemp>13.0</ns3:atemp>
          </ns3:TrackPointExtension>
        </extensions>
      </trkpt>
      <trkpt lat="43.1443584524095058441162109375" lon="13.05058124475181102752685546875">
        <ele>407.399993896484375</ele>
        <time>2021-05-09T07:15:03.000Z</time>
        <extensions>
          <ns3:TrackPointExtension>
            <ns3:atemp>13.0</ns3:atemp>
          </ns3:TrackPointExtension>
        </extensions>
      </trkpt>
      <trkpt lat="43.14435987733304500579833984375" lon="13.05076044984161853790283203125">
        <ele>405.79998779296875</ele>
        <time>2021-05-09T07:15:06.000Z</time>
        <extensions>
          <ns3:TrackPointExtension>
            <ns3:atemp>13.0</ns3:atemp>
          </ns3:TrackPointExtension>
        </extensions>
      </trkpt>
      <trkpt lat="43.14436976797878742218017578125" lon="13.05093211121857166290283203125">
        <ele>404.20001220703125</ele>
        <time>2021-05-09T07:15:09.000Z</time>
        <extensions>
          <ns3:TrackPointExtension>
            <ns3:atemp>13.0</ns3:atemp>
          </ns3:TrackPointExtension>
        </extensions>
      </trkpt>
      <trkpt lat="43.1443789042532444000244140625" lon="13.05112942121922969818115234375">
        <ele>403.79998779296875</ele>
        <time>2021-05-09T07:15:12.000Z</time>
        <extensions>
          <ns3:TrackPointExtension>
            <ns3:atemp>13.0</ns3:atemp>
          </ns3:TrackPointExtension>
        </extensions>
      </trkpt>
      <trkpt lat="43.14434789121150970458984375" lon="13.0515735782682895660400390625">
        <ele>403</ele>
        <time>2021-05-09T07:15:19.000Z</time>
        <extensions>
          <ns3:TrackPointExtension>
            <ns3:atemp>13.0</ns3:atemp>
          </ns3:TrackPointExtension>
        </extensions>
      </trkpt>
      <trkpt lat="43.14430765807628631591796875" lon="13.05175085552036762237548828125">
        <ele>401.79998779296875</ele>
        <time>2021-05-09T07:15:23.000Z</time>
        <extensions>
          <ns3:TrackPointExtension>
            <ns3:atemp>14.0</ns3:atemp>
          </ns3:TrackPointExtension>
        </extensions>
      </trkpt>
      <trkpt lat="43.144273124635219573974609375" lon="13.051792345941066741943359375">
        <ele>401.79998779296875</ele>
        <time>2021-05-09T07:15:25.000Z</time>
        <extensions>
          <ns3:TrackPointExtension>
            <ns3:atemp>14.0</ns3:atemp>
          </ns3:TrackPointExtension>
        </extensions>
      </trkpt>
      <trkpt lat="43.14424035139381885528564453125" lon="13.0517408810555934906005859375">
        <ele>401.600006103515625</ele>
        <time>2021-05-09T07:15:28.000Z</time>
        <extensions>
          <ns3:TrackPointExtension>
            <ns3:atemp>14.0</ns3:atemp>
          </ns3:TrackPointExtension>
        </extensions>
      </trkpt>
      <trkpt lat="43.14424621872603893280029296875" lon="13.05170617997646331787109375">
        <ele>401.399993896484375</ele>
        <time>2021-05-09T07:15:29.000Z</time>
        <extensions>
          <ns3:TrackPointExtension>
            <ns3:atemp>14.0</ns3:atemp>
          </ns3:TrackPointExtension>
        </extensions>
      </trkpt>
      <trkpt lat="43.14425627700984477996826171875" lon="13.0515370331704616546630859375">
        <ele>401</ele>
        <time>2021-05-09T07:15:33.000Z</time>
        <extensions>
          <ns3:TrackPointExtension>
            <ns3:atemp>14.0</ns3:atemp>
          </ns3:TrackPointExtension>
        </extensions>
      </trkpt>
      <trkpt lat="43.1442588753998279571533203125" lon="13.051486909389495849609375">
        <ele>400.79998779296875</ele>
        <time>2021-05-09T07:15:34.000Z</time>
        <extensions>
          <ns3:TrackPointExtension>
            <ns3:atemp>14.0</ns3:atemp>
          </ns3:TrackPointExtension>
        </extensions>
      </trkpt>
      <trkpt lat="43.14425669610500335693359375" lon="13.05126629769802093505859375">
        <ele>399.79998779296875</ele>
        <time>2021-05-09T07:15:38.000Z</time>
        <extensions>
          <ns3:TrackPointExtension>
            <ns3:atemp>14.0</ns3:atemp>
          </ns3:TrackPointExtension>
        </extensions>
      </trkpt>
      <trkpt lat="43.14425376243889331817626953125" lon="13.05120402015745639801025390625">
        <ele>399.600006103515625</ele>
        <time>2021-05-09T07:15:39.000Z</time>
        <extensions>
          <ns3:TrackPointExtension>
            <ns3:atemp>14.0</ns3:atemp>
          </ns3:TrackPointExtension>
        </extensions>
      </trkpt>
      <trkpt lat="43.1442367471754550933837890625" lon="13.0508084781467914581298828125">
        <ele>399</ele>
        <time>2021-05-09T07:15:44.000Z</time>
        <extensions>
          <ns3:TrackPointExtension>
            <ns3:atemp>14.0</ns3:atemp>
          </ns3:TrackPointExtension>
        </extensions>
      </trkpt>
      <trkpt lat="43.1442224979400634765625" lon="13.05055023171007633209228515625">
        <ele>398.600006103515625</ele>
        <time>2021-05-09T07:15:47.000Z</time>
        <extensions>
          <ns3:TrackPointExtension>
            <ns3:atemp>14.0</ns3:atemp>
          </ns3:TrackPointExtension>
        </extensions>
      </trkpt>
      <trkpt lat="43.14422844909131526947021484375" lon="13.05020070634782314300537109375">
        <ele>397.399993896484375</ele>
        <time>2021-05-09T07:15:51.000Z</time>
        <extensions>
          <ns3:TrackPointExtension>
            <ns3:atemp>14.0</ns3:atemp>
          </ns3:TrackPointExtension>
        </extensions>
      </trkpt>
      <trkpt lat="43.144230879843235015869140625" lon="13.05011403746902942657470703125">
        <ele>397</ele>
        <time>2021-05-09T07:15:52.000Z</time>
        <extensions>
          <ns3:TrackPointExtension>
            <ns3:atemp>14.0</ns3:atemp>
          </ns3:TrackPointExtension>
        </extensions>
      </trkpt>
      <trkpt lat="43.14422962255775928497314453125" lon="13.04976970888674259185791015625">
        <ele>396</ele>
        <time>2021-05-09T07:15:56.000Z</time>
        <extensions>
          <ns3:TrackPointExtension>
            <ns3:atemp>14.0</ns3:atemp>
          </ns3:TrackPointExtension>
        </extensions>
      </trkpt>
      <trkpt lat="43.144222833216190338134765625" lon="13.04950567893683910369873046875">
        <ele>394.79998779296875</ele>
        <time>2021-05-09T07:15:59.000Z</time>
        <extensions>
          <ns3:TrackPointExtension>
            <ns3:atemp>14.0</ns3:atemp>
          </ns3:TrackPointExtension>
        </extensions>
      </trkpt>
      <trkpt lat="43.1442050635814666748046875" lon="13.0489661358296871185302734375">
        <ele>393.79998779296875</ele>
        <time>2021-05-09T07:16:05.000Z</time>
        <extensions>
          <ns3:TrackPointExtension>
            <ns3:atemp>14.0</ns3:atemp>
          </ns3:TrackPointExtension>
        </extensions>
      </trkpt>
      <trkpt lat="43.14420883543789386749267578125" lon="13.04877829737961292266845703125">
        <ele>393</ele>
        <time>2021-05-09T07:16:07.000Z</time>
        <extensions>
          <ns3:TrackPointExtension>
            <ns3:atemp>14.0</ns3:atemp>
          </ns3:TrackPointExtension>
        </extensions>
      </trkpt>
      <trkpt lat="43.14422057010233402252197265625" lon="13.048590458929538726806640625">
        <ele>392.600006103515625</ele>
        <time>2021-05-09T07:16:09.000Z</time>
        <extensions>
          <ns3:TrackPointExtension>
            <ns3:atemp>14.0</ns3:atemp>
          </ns3:TrackPointExtension>
        </extensions>
      </trkpt>
      <trkpt lat="43.1442535109817981719970703125" lon="13.04840438067913055419921875">
        <ele>391.79998779296875</ele>
        <time>2021-05-09T07:16:11.000Z</time>
        <extensions>
          <ns3:TrackPointExtension>
            <ns3:atemp>14.0</ns3:atemp>
          </ns3:TrackPointExtension>
        </extensions>
      </trkpt>
      <trkpt lat="43.1442783214151859283447265625" lon="13.04831427522003650665283203125">
        <ele>391.600006103515625</ele>
        <time>2021-05-09T07:16:12.000Z</time>
        <extensions>
          <ns3:TrackPointExtension>
            <ns3:atemp>14.0</ns3:atemp>
          </ns3:TrackPointExtension>
        </extensions>
      </trkpt>
      <trkpt lat="43.1443064846098423004150390625" lon="13.04822458885610103607177734375">
        <ele>391.399993896484375</ele>
        <time>2021-05-09T07:16:13.000Z</time>
        <extensions>
          <ns3:TrackPointExtension>
            <ns3:atemp>14.0</ns3:atemp>
          </ns3:TrackPointExtension>
        </extensions>
      </trkpt>
      <trkpt lat="43.14437345601618289947509765625" lon="13.04805175401270389556884765625">
        <ele>390.600006103515625</ele>
        <time>2021-05-09T07:16:15.000Z</time>
        <extensions>
          <ns3:TrackPointExtension>
            <ns3:atemp>14.0</ns3:atemp>
          </ns3:TrackPointExtension>
        </extensions>
      </trkpt>
      <trkpt lat="43.1444633938372135162353515625" lon="13.04789383895695209503173828125">
        <ele>390.20001220703125</ele>
        <time>2021-05-09T07:16:17.000Z</time>
        <extensions>
          <ns3:TrackPointExtension>
            <ns3:atemp>14.0</ns3:atemp>
          </ns3:TrackPointExtension>
        </extensions>
      </trkpt>
      <trkpt lat="43.14470169134438037872314453125" lon="13.0476404540240764617919921875">
        <ele>388.600006103515625</ele>
        <time>2021-05-09T07:16:21.000Z</time>
        <extensions>
          <ns3:TrackPointExtension>
            <ns3:atemp>14.0</ns3:atemp>
          </ns3:TrackPointExtension>
        </extensions>
      </trkpt>
      <trkpt lat="43.14477243460714817047119140625" lon="13.04759091697633266448974609375">
        <ele>388</ele>
        <time>2021-05-09T07:16:22.000Z</time>
        <extensions>
          <ns3:TrackPointExtension>
            <ns3:atemp>14.0</ns3:atemp>
          </ns3:TrackPointExtension>
        </extensions>
      </trkpt>
      <trkpt lat="43.14492196775972843170166015625" lon="13.0475083552300930023193359375">
        <ele>387.399993896484375</ele>
        <time>2021-05-09T07:16:24.000Z</time>
        <extensions>
          <ns3:TrackPointExtension>
            <ns3:atemp>14.0</ns3:atemp>
          </ns3:TrackPointExtension>
        </extensions>
      </trkpt>
      <trkpt lat="43.14515632577240467071533203125" lon="13.04736443795263767242431640625">
        <ele>386</ele>
        <time>2021-05-09T07:16:27.000Z</time>
        <extensions>
          <ns3:TrackPointExtension>
            <ns3:atemp>14.0</ns3:atemp>
          </ns3:TrackPointExtension>
        </extensions>
      </trkpt>
      <trkpt lat="43.14540677703917026519775390625" lon="13.0472183413803577423095703125">
        <ele>384.600006103515625</ele>
        <time>2021-05-09T07:16:30.000Z</time>
        <extensions>
          <ns3:TrackPointExtension>
            <ns3:atemp>14.0</ns3:atemp>
          </ns3:TrackPointExtension>
        </extensions>
      </trkpt>
      <trkpt lat="43.1455724872648715972900390625" lon="13.0471180938184261322021484375">
        <ele>383.399993896484375</ele>
        <time>2021-05-09T07:16:32.000Z</time>
        <extensions>
          <ns3:TrackPointExtension>
            <ns3:atemp>14.0</ns3:atemp>
          </ns3:TrackPointExtension>
        </extensions>
      </trkpt>
      <trkpt lat="43.14573249779641628265380859375" lon="13.047024048864841461181640625">
        <ele>382.399993896484375</ele>
        <time>2021-05-09T07:16:34.000Z</time>
        <extensions>
          <ns3:TrackPointExtension>
            <ns3:atemp>14.0</ns3:atemp>
          </ns3:TrackPointExtension>
        </extensions>
      </trkpt>
      <trkpt lat="43.14580776728689670562744140625" lon="13.04697987623512744903564453125">
        <ele>381.79998779296875</ele>
        <time>2021-05-09T07:16:35.000Z</time>
        <extensions>
          <ns3:TrackPointExtension>
            <ns3:atemp>14.0</ns3:atemp>
          </ns3:TrackPointExtension>
        </extensions>
      </trkpt>
      <trkpt lat="43.14587851054966449737548828125" lon="13.04693612270057201385498046875">
        <ele>380</ele>
        <time>2021-05-09T07:16:36.000Z</time>
        <extensions>
          <ns3:TrackPointExtension>
            <ns3:atemp>14.0</ns3:atemp>
          </ns3:TrackPointExtension>
        </extensions>
      </trkpt>
      <trkpt lat="43.146010525524616241455078125" lon="13.0468533933162689208984375">
        <ele>378.79998779296875</ele>
        <time>2021-05-09T07:16:38.000Z</time>
        <extensions>
          <ns3:TrackPointExtension>
            <ns3:atemp>14.0</ns3:atemp>
          </ns3:TrackPointExtension>
        </extensions>
      </trkpt>
      <trkpt lat="43.1461404450237751007080078125" lon="13.04677552543580532073974609375">
        <ele>378.399993896484375</ele>
        <time>2021-05-09T07:16:40.000Z</time>
        <extensions>
          <ns3:TrackPointExtension>
            <ns3:atemp>14.0</ns3:atemp>
          </ns3:TrackPointExtension>
        </extensions>
      </trkpt>
      <trkpt lat="43.1464237533509731292724609375" lon="13.04660218767821788787841796875">
        <ele>378.20001220703125</ele>
        <time>2021-05-09T07:16:45.000Z</time>
        <extensions>
          <ns3:TrackPointExtension>
            <ns3:atemp>14.0</ns3:atemp>
          </ns3:TrackPointExtension>
        </extensions>
      </trkpt>
      <trkpt lat="43.14678476192057132720947265625" lon="13.04638375528156757354736328125">
        <ele>380</ele>
        <time>2021-05-09T07:16:52.000Z</time>
        <extensions>
          <ns3:TrackPointExtension>
            <ns3:atemp>13.0</ns3:atemp>
          </ns3:TrackPointExtension>
        </extensions>
      </trkpt>
      <trkpt lat="43.14683823846280574798583984375" lon="13.0463543348014354705810546875">
        <ele>380.399993896484375</ele>
        <time>2021-05-09T07:16:53.000Z</time>
        <extensions>
          <ns3:TrackPointExtension>
            <ns3:atemp>13.0</ns3:atemp>
          </ns3:TrackPointExtension>
        </extensions>
      </trkpt>
      <trkpt lat="43.1469960696995258331298828125" lon="13.0462606251239776611328125">
        <ele>381</ele>
        <time>2021-05-09T07:16:56.000Z</time>
        <extensions>
          <ns3:TrackPointExtension>
            <ns3:atemp>13.0</ns3:atemp>
          </ns3:TrackPointExtension>
        </extensions>
      </trkpt>
      <trkpt lat="43.14725817181169986724853515625" lon="13.04610681720077991485595703125">
        <ele>382</ele>
        <time>2021-05-09T07:17:01.000Z</time>
        <extensions>
          <ns3:TrackPointExtension>
            <ns3:atemp>13.0</ns3:atemp>
          </ns3:TrackPointExtension>
        </extensions>
      </trkpt>
      <trkpt lat="43.1476465053856372833251953125" lon="13.0458758957684040069580078125">
        <ele>382.20001220703125</ele>
        <time>2021-05-09T07:17:08.000Z</time>
        <extensions>
          <ns3:TrackPointExtension>
            <ns3:atemp>13.0</ns3:atemp>
          </ns3:TrackPointExtension>
        </extensions>
      </trkpt>
      <trkpt lat="43.14804791472852230072021484375" lon="13.045688308775424957275390625">
        <ele>381.79998779296875</ele>
        <time>2021-05-09T07:17:14.000Z</time>
        <extensions>
          <ns3:TrackPointExtension>
            <ns3:atemp>13.0</ns3:atemp>
          </ns3:TrackPointExtension>
        </extensions>
      </trkpt>
      <trkpt lat="43.14827523194253444671630859375" lon="13.0456093512475490570068359375">
        <ele>380.600006103515625</ele>
        <time>2021-05-09T07:17:17.000Z</time>
        <extensions>
          <ns3:TrackPointExtension>
            <ns3:atemp>13.0</ns3:atemp>
          </ns3:TrackPointExtension>
        </extensions>
      </trkpt>
      <trkpt lat="43.1485091708600521087646484375" lon="13.0455659329891204833984375">
        <ele>379</ele>
        <time>2021-05-09T07:17:20.000Z</time>
        <extensions>
          <ns3:TrackPointExtension>
            <ns3:atemp>13.0</ns3:atemp>
          </ns3:TrackPointExtension>
        </extensions>
      </trkpt>
      <trkpt lat="43.148579411208629608154296875" lon="13.04556836374104022979736328125">
        <ele>378.600006103515625</ele>
        <time>2021-05-09T07:17:21.000Z</time>
        <extensions>
          <ns3:TrackPointExtension>
            <ns3:atemp>13.0</ns3:atemp>
          </ns3:TrackPointExtension>
        </extensions>
      </trkpt>
      <trkpt lat="43.14872869290411472320556640625" lon="13.04558261297643184661865234375">
        <ele>377.600006103515625</ele>
        <time>2021-05-09T07:17:23.000Z</time>
        <extensions>
          <ns3:TrackPointExtension>
            <ns3:atemp>13.0</ns3:atemp>
          </ns3:TrackPointExtension>
        </extensions>
      </trkpt>
      <trkpt lat="43.1488035432994365692138671875" lon="13.0456008017063140869140625">
        <ele>377.20001220703125</ele>
        <time>2021-05-09T07:17:24.000Z</time>
        <extensions>
          <ns3:TrackPointExtension>
            <ns3:atemp>13.0</ns3:atemp>
          </ns3:TrackPointExtension>
        </extensions>
      </trkpt>
      <trkpt lat="43.14895584248006343841552734375" lon="13.045662157237529754638671875">
        <ele>376.399993896484375</ele>
        <time>2021-05-09T07:17:26.000Z</time>
        <extensions>
          <ns3:TrackPointExtension>
            <ns3:atemp>13.0</ns3:atemp>
          </ns3:TrackPointExtension>
        </extensions>
      </trkpt>
      <trkpt lat="43.14918701536953449249267578125" lon="13.0457649193704128265380859375">
        <ele>375.399993896484375</ele>
        <time>2021-05-09T07:17:29.000Z</time>
        <extensions>
          <ns3:TrackPointExtension>
            <ns3:atemp>13.0</ns3:atemp>
          </ns3:TrackPointExtension>
        </extensions>
      </trkpt>
      <trkpt lat="43.14942455850541591644287109375" lon="13.04588310420513153076171875">
        <ele>374.20001220703125</ele>
        <time>2021-05-09T07:17:32.000Z</time>
        <extensions>
          <ns3:TrackPointExtension>
            <ns3:atemp>13.0</ns3:atemp>
          </ns3:TrackPointExtension>
        </extensions>
      </trkpt>
      <trkpt lat="43.14950418658554553985595703125" lon="13.045917637646198272705078125">
        <ele>373.79998779296875</ele>
        <time>2021-05-09T07:17:33.000Z</time>
        <extensions>
          <ns3:TrackPointExtension>
            <ns3:atemp>13.0</ns3:atemp>
          </ns3:TrackPointExtension>
        </extensions>
      </trkpt>
      <trkpt lat="43.1495827250182628631591796875" lon="13.0459535121917724609375">
        <ele>373.20001220703125</ele>
        <time>2021-05-09T07:17:34.000Z</time>
        <extensions>
          <ns3:TrackPointExtension>
            <ns3:atemp>13.0</ns3:atemp>
          </ns3:TrackPointExtension>
        </extensions>
      </trkpt>
      <trkpt lat="43.14966327510774135589599609375" lon="13.04598930291831493377685546875">
        <ele>372</ele>
        <time>2021-05-09T07:17:35.000Z</time>
        <extensions>
          <ns3:TrackPointExtension>
            <ns3:atemp>13.0</ns3:atemp>
          </ns3:TrackPointExtension>
        </extensions>
      </trkpt>
      <trkpt lat="43.1498189270496368408203125" lon="13.04604495875537395477294921875">
        <ele>371</ele>
        <time>2021-05-09T07:17:37.000Z</time>
        <extensions>
          <ns3:TrackPointExtension>
            <ns3:atemp>13.0</ns3:atemp>
          </ns3:TrackPointExtension>
        </extensions>
      </trkpt>
      <trkpt lat="43.14989260397851467132568359375" lon="13.04606993682682514190673828125">
        <ele>370.399993896484375</ele>
        <time>2021-05-09T07:17:38.000Z</time>
        <extensions>
          <ns3:TrackPointExtension>
            <ns3:atemp>13.0</ns3:atemp>
          </ns3:TrackPointExtension>
        </extensions>
      </trkpt>
      <trkpt lat="43.1499646045267581939697265625" lon="13.04610279388725757598876953125">
        <ele>369.600006103515625</ele>
        <time>2021-05-09T07:17:39.000Z</time>
        <extensions>
          <ns3:TrackPointExtension>
            <ns3:atemp>13.0</ns3:atemp>
          </ns3:TrackPointExtension>
        </extensions>
      </trkpt>
      <trkpt lat="43.15010198391973972320556640625" lon="13.04617186076939105987548828125">
        <ele>368</ele>
        <time>2021-05-09T07:17:41.000Z</time>
        <extensions>
          <ns3:TrackPointExtension>
            <ns3:atemp>13.0</ns3:atemp>
          </ns3:TrackPointExtension>
        </extensions>
      </trkpt>
      <trkpt lat="43.15016199834644794464111328125" lon="13.04617756046354770660400390625">
        <ele>367</ele>
        <time>2021-05-09T07:17:42.000Z</time>
        <extensions>
          <ns3:TrackPointExtension>
            <ns3:atemp>13.0</ns3:atemp>
          </ns3:TrackPointExtension>
        </extensions>
      </trkpt>
      <trkpt lat="43.150220252573490142822265625" lon="13.0461441166698932647705078125">
        <ele>366.399993896484375</ele>
        <time>2021-05-09T07:17:43.000Z</time>
        <extensions>
          <ns3:TrackPointExtension>
            <ns3:atemp>13.0</ns3:atemp>
          </ns3:TrackPointExtension>
        </extensions>
      </trkpt>
      <trkpt lat="43.150259815156459808349609375" lon="13.0460851080715656280517578125">
        <ele>366.20001220703125</ele>
        <time>2021-05-09T07:17:44.000Z</time>
        <extensions>
          <ns3:TrackPointExtension>
            <ns3:atemp>13.0</ns3:atemp>
          </ns3:TrackPointExtension>
        </extensions>
      </trkpt>
      <trkpt lat="43.15025486983358860015869140625" lon="13.04594479501247406005859375">
        <ele>365.600006103515625</ele>
        <time>2021-05-09T07:17:46.000Z</time>
        <extensions>
          <ns3:TrackPointExtension>
            <ns3:atemp>13.0</ns3:atemp>
          </ns3:TrackPointExtension>
        </extensions>
      </trkpt>
      <trkpt lat="43.15011086873710155487060546875" lon="13.04568864405155181884765625">
        <ele>365.399993896484375</ele>
        <time>2021-05-09T07:17:50.000Z</time>
        <extensions>
          <ns3:TrackPointExtension>
            <ns3:atemp>13.0</ns3:atemp>
          </ns3:TrackPointExtension>
        </extensions>
      </trkpt>
      <trkpt lat="43.15006099641323089599609375" lon="13.04564572870731353759765625">
        <ele>365.20001220703125</ele>
        <time>2021-05-09T07:17:51.000Z</time>
        <extensions>
          <ns3:TrackPointExtension>
            <ns3:atemp>13.0</ns3:atemp>
          </ns3:TrackPointExtension>
        </extensions>
      </trkpt>
      <trkpt lat="43.14990676939487457275390625" lon="13.0455791763961315155029296875">
        <ele>365.20001220703125</ele>
        <time>2021-05-09T07:17:54.000Z</time>
        <extensions>
          <ns3:TrackPointExtension>
            <ns3:atemp>13.0</ns3:atemp>
          </ns3:TrackPointExtension>
        </extensions>
      </trkpt>
      <trkpt lat="43.149809539318084716796875" lon="13.04557909257709980010986328125">
        <ele>365.20001220703125</ele>
        <time>2021-05-09T07:17:56.000Z</time>
        <extensions>
          <ns3:TrackPointExtension>
            <ns3:atemp>13.0</ns3:atemp>
          </ns3:TrackPointExtension>
        </extensions>
      </trkpt>
      <trkpt lat="43.14970820210874080657958984375" lon="13.0455766618251800537109375">
        <ele>365.399993896484375</ele>
        <time>2021-05-09T07:17:58.000Z</time>
        <extensions>
          <ns3:TrackPointExtension>
            <ns3:atemp>13.0</ns3:atemp>
          </ns3:TrackPointExtension>
        </extensions>
      </trkpt>
      <trkpt lat="43.1496159173548221588134765625" lon="13.04555126465857028961181640625">
        <ele>365.399993896484375</ele>
        <time>2021-05-09T07:18:00.000Z</time>
        <extensions>
          <ns3:TrackPointExtension>
            <ns3:atemp>13.0</ns3:atemp>
          </ns3:TrackPointExtension>
        </extensions>
      </trkpt>
      <trkpt lat="43.14940762706100940704345703125" lon="13.0454452335834503173828125">
        <ele>366.20001220703125</ele>
        <time>2021-05-09T07:18:05.000Z</time>
        <extensions>
          <ns3:TrackPointExtension>
            <ns3:atemp>13.0</ns3:atemp>
          </ns3:TrackPointExtension>
        </extensions>
      </trkpt>
      <trkpt lat="43.1493279151618480682373046875" lon="13.0453706346452236175537109375">
        <ele>366.399993896484375</ele>
        <time>2021-05-09T07:18:07.000Z</time>
        <extensions>
          <ns3:TrackPointExtension>
            <ns3:atemp>13.0</ns3:atemp>
          </ns3:TrackPointExtension>
        </extensions>
      </trkpt>
      <trkpt lat="43.1492771208286285400390625" lon="13.04525622166693210601806640625">
        <ele>366.600006103515625</ele>
        <time>2021-05-09T07:18:09.000Z</time>
        <extensions>
          <ns3:TrackPointExtension>
            <ns3:atemp>13.0</ns3:atemp>
          </ns3:TrackPointExtension>
        </extensions>
      </trkpt>
      <trkpt lat="43.1492471136152744293212890625" lon="13.045124374330043792724609375">
        <ele>367</ele>
        <time>2021-05-09T07:18:11.000Z</time>
        <extensions>
          <ns3:TrackPointExtension>
            <ns3:atemp>13.0</ns3:atemp>
          </ns3:TrackPointExtension>
        </extensions>
      </trkpt>
      <trkpt lat="43.1492145918309688568115234375" lon="13.04491625167429447174072265625">
        <ele>367.399993896484375</ele>
        <time>2021-05-09T07:18:14.000Z</time>
        <extensions>
          <ns3:TrackPointExtension>
            <ns3:atemp>13.0</ns3:atemp>
          </ns3:TrackPointExtension>
        </extensions>
      </trkpt>
      <trkpt lat="43.14917184412479400634765625" lon="13.04453370161354541778564453125">
        <ele>368.600006103515625</ele>
        <time>2021-05-09T07:18:20.000Z</time>
        <extensions>
          <ns3:TrackPointExtension>
            <ns3:atemp>13.0</ns3:atemp>
          </ns3:TrackPointExtension>
        </extensions>
      </trkpt>
      <trkpt lat="43.149160109460353851318359375" lon="13.04441585205495357513427734375">
        <ele>369.20001220703125</ele>
        <time>2021-05-09T07:18:22.000Z</time>
        <extensions>
          <ns3:TrackPointExtension>
            <ns3:atemp>13.0</ns3:atemp>
          </ns3:TrackPointExtension>
        </extensions>
      </trkpt>
      <trkpt lat="43.14914829097688198089599609375" lon="13.044298924505710601806640625">
        <ele>370</ele>
        <time>2021-05-09T07:18:24.000Z</time>
        <extensions>
          <ns3:TrackPointExtension>
            <ns3:atemp>13.0</ns3:atemp>
          </ns3:TrackPointExtension>
        </extensions>
      </trkpt>
      <trkpt lat="43.14912817440927028656005859375" lon="13.0441257543861865997314453125">
        <ele>371.399993896484375</ele>
        <time>2021-05-09T07:18:27.000Z</time>
        <extensions>
          <ns3:TrackPointExtension>
            <ns3:atemp>13.0</ns3:atemp>
          </ns3:TrackPointExtension>
        </extensions>
      </trkpt>
      <trkpt lat="43.14910638146102428436279296875" lon="13.04395266808569431304931640625">
        <ele>372.600006103515625</ele>
        <time>2021-05-09T07:18:30.000Z</time>
        <extensions>
          <ns3:TrackPointExtension>
            <ns3:atemp>13.0</ns3:atemp>
          </ns3:TrackPointExtension>
        </extensions>
      </trkpt>
      <trkpt lat="43.14909297041594982147216796875" lon="13.04384219460189342498779296875">
        <ele>373.399993896484375</ele>
        <time>2021-05-09T07:18:32.000Z</time>
        <extensions>
          <ns3:TrackPointExtension>
            <ns3:atemp>13.0</ns3:atemp>
          </ns3:TrackPointExtension>
        </extensions>
      </trkpt>
      <trkpt lat="43.149084337055683135986328125" lon="13.0437876284122467041015625">
        <ele>374.399993896484375</ele>
        <time>2021-05-09T07:18:33.000Z</time>
        <extensions>
          <ns3:TrackPointExtension>
            <ns3:atemp>13.0</ns3:atemp>
          </ns3:TrackPointExtension>
        </extensions>
      </trkpt>
      <trkpt lat="43.14906212501227855682373046875" lon="13.04368042387068271636962890625">
        <ele>375</ele>
        <time>2021-05-09T07:18:35.000Z</time>
        <extensions>
          <ns3:TrackPointExtension>
            <ns3:atemp>13.0</ns3:atemp>
          </ns3:TrackPointExtension>
        </extensions>
      </trkpt>
      <trkpt lat="43.1490466184914112091064453125" lon="13.0436268635094165802001953125">
        <ele>375.399993896484375</ele>
        <time>2021-05-09T07:18:36.000Z</time>
        <extensions>
          <ns3:TrackPointExtension>
            <ns3:atemp>13.0</ns3:atemp>
          </ns3:TrackPointExtension>
        </extensions>
      </trkpt>
      <trkpt lat="43.1490278430283069610595703125" lon="13.04357565008103847503662109375">
        <ele>375.600006103515625</ele>
        <time>2021-05-09T07:18:37.000Z</time>
        <extensions>
          <ns3:TrackPointExtension>
            <ns3:atemp>13.0</ns3:atemp>
          </ns3:TrackPointExtension>
        </extensions>
      </trkpt>
      <trkpt lat="43.1489755399525165557861328125" lon="13.04348445497453212738037109375">
        <ele>376.20001220703125</ele>
        <time>2021-05-09T07:18:39.000Z</time>
        <extensions>
          <ns3:TrackPointExtension>
            <ns3:atemp>13.0</ns3:atemp>
          </ns3:TrackPointExtension>
        </extensions>
      </trkpt>
      <trkpt lat="43.1489433534443378448486328125" lon="13.04344522766768932342529296875">
        <ele>376.399993896484375</ele>
        <time>2021-05-09T07:18:40.000Z</time>
        <extensions>
          <ns3:TrackPointExtension>
            <ns3:atemp>13.0</ns3:atemp>
          </ns3:TrackPointExtension>
        </extensions>
      </trkpt>
      <trkpt lat="43.14872550778090953826904296875" lon="13.04317474365234375">
        <ele>377.600006103515625</ele>
        <time>2021-05-09T07:18:47.000Z</time>
        <extensions>
          <ns3:TrackPointExtension>
            <ns3:atemp>13.0</ns3:atemp>
          </ns3:TrackPointExtension>
        </extensions>
      </trkpt>
      <trkpt lat="43.14855736680328845977783203125" lon="13.04291498847305774688720703125">
        <ele>378.600006103515625</ele>
        <time>2021-05-09T07:18:53.000Z</time>
        <extensions>
          <ns3:TrackPointExtension>
            <ns3:atemp>13.0</ns3:atemp>
          </ns3:TrackPointExtension>
        </extensions>
      </trkpt>
      <trkpt lat="43.14850120805203914642333984375" lon="13.0428349412977695465087890625">
        <ele>379</ele>
        <time>2021-05-09T07:18:55.000Z</time>
        <extensions>
          <ns3:TrackPointExtension>
            <ns3:atemp>13.0</ns3:atemp>
          </ns3:TrackPointExtension>
        </extensions>
      </trkpt>
      <trkpt lat="43.14842711202800273895263671875" lon="13.04272673092782497406005859375">
        <ele>379.600006103515625</ele>
        <time>2021-05-09T07:18:58.000Z</time>
        <extensions>
          <ns3:TrackPointExtension>
            <ns3:atemp>13.0</ns3:atemp>
          </ns3:TrackPointExtension>
        </extensions>
      </trkpt>
      <trkpt lat="43.14832694828510284423828125" lon="13.04258490912616252899169921875">
        <ele>380.399993896484375</ele>
        <time>2021-05-09T07:19:02.000Z</time>
        <extensions>
          <ns3:TrackPointExtension>
            <ns3:atemp>13.0</ns3:atemp>
          </ns3:TrackPointExtension>
        </extensions>
      </trkpt>
      <trkpt lat="43.1483016349375247955322265625" lon="13.0425466038286685943603515625">
        <ele>380.79998779296875</ele>
        <time>2021-05-09T07:19:03.000Z</time>
        <extensions>
          <ns3:TrackPointExtension>
            <ns3:atemp>13.0</ns3:atemp>
          </ns3:TrackPointExtension>
        </extensions>
      </trkpt>
      <trkpt lat="43.14811564050614833831787109375" lon="13.04225533269345760345458984375">
        <ele>381.79998779296875</ele>
        <time>2021-05-09T07:19:10.000Z</time>
        <extensions>
          <ns3:TrackPointExtension>
            <ns3:atemp>13.0</ns3:atemp>
          </ns3:TrackPointExtension>
        </extensions>
      </trkpt>
      <trkpt lat="43.148085884749889373779296875" lon="13.04221451282501220703125">
        <ele>381.79998779296875</ele>
        <time>2021-05-09T07:19:11.000Z</time>
        <extensions>
          <ns3:TrackPointExtension>
            <ns3:atemp>13.0</ns3:atemp>
          </ns3:TrackPointExtension>
        </extensions>
      </trkpt>
      <trkpt lat="43.14783115871250629425048828125" lon="13.04182986728847026824951171875">
        <ele>383</ele>
        <time>2021-05-09T07:19:20.000Z</time>
        <extensions>
          <ns3:TrackPointExtension>
            <ns3:atemp>13.0</ns3:atemp>
          </ns3:TrackPointExtension>
        </extensions>
      </trkpt>
      <trkpt lat="43.147605098783969879150390625" lon="13.041561730206012725830078125">
        <ele>384</ele>
        <time>2021-05-09T07:19:27.000Z</time>
        <extensions>
          <ns3:TrackPointExtension>
            <ns3:atemp>13.0</ns3:atemp>
          </ns3:TrackPointExtension>
        </extensions>
      </trkpt>
      <trkpt lat="43.147568888962268829345703125" lon="13.0415283702313899993896484375">
        <ele>384.20001220703125</ele>
        <time>2021-05-09T07:19:28.000Z</time>
        <extensions>
          <ns3:TrackPointExtension>
            <ns3:atemp>13.0</ns3:atemp>
          </ns3:TrackPointExtension>
        </extensions>
      </trkpt>
      <trkpt lat="43.147343583405017852783203125" lon="13.0413298867642879486083984375">
        <ele>385.20001220703125</ele>
        <time>2021-05-09T07:19:34.000Z</time>
        <extensions>
          <ns3:TrackPointExtension>
            <ns3:atemp>13.0</ns3:atemp>
          </ns3:TrackPointExtension>
        </extensions>
      </trkpt>
      <trkpt lat="43.14722313545644283294677734375" lon="13.04124849848449230194091796875">
        <ele>385.600006103515625</ele>
        <time>2021-05-09T07:19:37.000Z</time>
        <extensions>
          <ns3:TrackPointExtension>
            <ns3:atemp>13.0</ns3:atemp>
          </ns3:TrackPointExtension>
        </extensions>
      </trkpt>
      <trkpt lat="43.1469384022057056427001953125" lon="13.04108329117298126220703125">
        <ele>386.20001220703125</ele>
        <time>2021-05-09T07:19:44.000Z</time>
        <extensions>
          <ns3:TrackPointExtension>
            <ns3:atemp>13.0</ns3:atemp>
          </ns3:TrackPointExtension>
        </extensions>
      </trkpt>
      <trkpt lat="43.14655845053493976593017578125" lon="13.04085304029285907745361328125">
        <ele>387</ele>
        <time>2021-05-09T07:19:53.000Z</time>
        <extensions>
          <ns3:TrackPointExtension>
            <ns3:atemp>13.0</ns3:atemp>
          </ns3:TrackPointExtension>
        </extensions>
      </trkpt>
      <trkpt lat="43.14648116938769817352294921875" lon="13.04078464396297931671142578125">
        <ele>387</ele>
        <time>2021-05-09T07:19:55.000Z</time>
        <extensions>
          <ns3:TrackPointExtension>
            <ns3:atemp>13.0</ns3:atemp>
          </ns3:TrackPointExtension>
        </extensions>
      </trkpt>
      <trkpt lat="43.1464147008955478668212890625" lon="13.04069478996098041534423828125">
        <ele>387.20001220703125</ele>
        <time>2021-05-09T07:19:57.000Z</time>
        <extensions>
          <ns3:TrackPointExtension>
            <ns3:atemp>13.0</ns3:atemp>
          </ns3:TrackPointExtension>
        </extensions>
      </trkpt>
      <trkpt lat="43.14638544805347919464111328125" lon="13.04064340889453887939453125">
        <ele>387.399993896484375</ele>
        <time>2021-05-09T07:19:58.000Z</time>
        <extensions>
          <ns3:TrackPointExtension>
            <ns3:atemp>13.0</ns3:atemp>
          </ns3:TrackPointExtension>
        </extensions>
      </trkpt>
      <trkpt lat="43.14631168730556964874267578125" lon="13.0404092185199260711669921875">
        <ele>388</ele>
        <time>2021-05-09T07:20:02.000Z</time>
        <extensions>
          <ns3:TrackPointExtension>
            <ns3:atemp>13.0</ns3:atemp>
          </ns3:TrackPointExtension>
        </extensions>
      </trkpt>
      <trkpt lat="43.146300874650478363037109375" lon="13.040348701179027557373046875">
        <ele>388.20001220703125</ele>
        <time>2021-05-09T07:20:03.000Z</time>
        <extensions>
          <ns3:TrackPointExtension>
            <ns3:atemp>13.0</ns3:atemp>
          </ns3:TrackPointExtension>
        </extensions>
      </trkpt>
      <trkpt lat="43.14629073254764080047607421875" lon="13.0402871780097484588623046875">
        <ele>388.20001220703125</ele>
        <time>2021-05-09T07:20:04.000Z</time>
        <extensions>
          <ns3:TrackPointExtension>
            <ns3:atemp>13.0</ns3:atemp>
          </ns3:TrackPointExtension>
        </extensions>
      </trkpt>
      <trkpt lat="43.1462435424327850341796875" lon="13.0399250797927379608154296875">
        <ele>389</ele>
        <time>2021-05-09T07:20:10.000Z</time>
        <extensions>
          <ns3:TrackPointExtension>
            <ns3:atemp>13.0</ns3:atemp>
          </ns3:TrackPointExtension>
        </extensions>
      </trkpt>
      <trkpt lat="43.1462269462645053863525390625" lon="13.0398060567677021026611328125">
        <ele>389.399993896484375</ele>
        <time>2021-05-09T07:20:12.000Z</time>
        <extensions>
          <ns3:TrackPointExtension>
            <ns3:atemp>13.0</ns3:atemp>
          </ns3:TrackPointExtension>
        </extensions>
      </trkpt>
      <trkpt lat="43.14615645445883274078369140625" lon="13.0395147018134593963623046875">
        <ele>389.79998779296875</ele>
        <time>2021-05-09T07:20:17.000Z</time>
        <extensions>
          <ns3:TrackPointExtension>
            <ns3:atemp>13.0</ns3:atemp>
          </ns3:TrackPointExtension>
        </extensions>
      </trkpt>
      <trkpt lat="43.14607833512127399444580078125" lon="13.03929559886455535888671875">
        <ele>390.399993896484375</ele>
        <time>2021-05-09T07:20:21.000Z</time>
        <extensions>
          <ns3:TrackPointExtension>
            <ns3:atemp>13.0</ns3:atemp>
          </ns3:TrackPointExtension>
        </extensions>
      </trkpt>
      <trkpt lat="43.1460147164762020111083984375" lon="13.03913977928459644317626953125">
        <ele>390.600006103515625</ele>
        <time>2021-05-09T07:20:24.000Z</time>
        <extensions>
          <ns3:TrackPointExtension>
            <ns3:atemp>13.0</ns3:atemp>
          </ns3:TrackPointExtension>
        </extensions>
      </trkpt>
      <trkpt lat="43.14584531821310520172119140625" lon="13.03871355950832366943359375">
        <ele>391.20001220703125</ele>
        <time>2021-05-09T07:20:32.000Z</time>
        <extensions>
          <ns3:TrackPointExtension>
            <ns3:atemp>13.0</ns3:atemp>
          </ns3:TrackPointExtension>
        </extensions>
      </trkpt>
      <trkpt lat="43.14574322663247585296630859375" lon="13.0384528823196887969970703125">
        <ele>391.600006103515625</ele>
        <time>2021-05-09T07:20:37.000Z</time>
        <extensions>
          <ns3:TrackPointExtension>
            <ns3:atemp>13.0</ns3:atemp>
          </ns3:TrackPointExtension>
        </extensions>
      </trkpt>
      <trkpt lat="43.14568304456770420074462890625" lon="13.03828935138881206512451171875">
        <ele>391.79998779296875</ele>
        <time>2021-05-09T07:20:40.000Z</time>
        <extensions>
          <ns3:TrackPointExtension>
            <ns3:atemp>13.0</ns3:atemp>
          </ns3:TrackPointExtension>
        </extensions>
      </trkpt>
      <trkpt lat="43.1454816274344921112060546875" lon="13.03779850713908672332763671875">
        <ele>392.399993896484375</ele>
        <time>2021-05-09T07:20:49.000Z</time>
        <extensions>
          <ns3:TrackPointExtension>
            <ns3:atemp>13.0</ns3:atemp>
          </ns3:TrackPointExtension>
        </extensions>
      </trkpt>
      <trkpt lat="43.1454293243587017059326171875" lon="13.03769691847264766693115234375">
        <ele>392.600006103515625</ele>
        <time>2021-05-09T07:20:51.000Z</time>
        <extensions>
          <ns3:TrackPointExtension>
            <ns3:atemp>13.0</ns3:atemp>
          </ns3:TrackPointExtension>
        </extensions>
      </trkpt>
      <trkpt lat="43.1453193537890911102294921875" lon="13.03750044666230678558349609375">
        <ele>393</ele>
        <time>2021-05-09T07:20:55.000Z</time>
        <extensions>
          <ns3:TrackPointExtension>
            <ns3:atemp>14.0</ns3:atemp>
          </ns3:TrackPointExtension>
        </extensions>
      </trkpt>
      <trkpt lat="43.145260512828826904296875" lon="13.0374141968786716461181640625">
        <ele>393.20001220703125</ele>
        <time>2021-05-09T07:20:57.000Z</time>
        <extensions>
          <ns3:TrackPointExtension>
            <ns3:atemp>13.0</ns3:atemp>
          </ns3:TrackPointExtension>
        </extensions>
      </trkpt>
      <trkpt lat="43.14508893527090549468994140625" lon="13.0371379293501377105712890625">
        <ele>393.20001220703125</ele>
        <time>2021-05-09T07:21:02.000Z</time>
        <extensions>
          <ns3:TrackPointExtension>
            <ns3:atemp>13.0</ns3:atemp>
          </ns3:TrackPointExtension>
        </extensions>
      </trkpt>
      <trkpt lat="43.14498650841414928436279296875" lon="13.03693919442594051361083984375">
        <ele>393.20001220703125</ele>
        <time>2021-05-09T07:21:05.000Z</time>
        <extensions>
          <ns3:TrackPointExtension>
            <ns3:atemp>13.0</ns3:atemp>
          </ns3:TrackPointExtension>
        </extensions>
      </trkpt>
      <trkpt lat="43.14494258724153041839599609375" lon="13.0367811955511569976806640625">
        <ele>393</ele>
        <time>2021-05-09T07:21:07.000Z</time>
        <extensions>
          <ns3:TrackPointExtension>
            <ns3:atemp>13.0</ns3:atemp>
          </ns3:TrackPointExtension>
        </extensions>
      </trkpt>
      <trkpt lat="43.1449767015874385833740234375" lon="13.03651951253414154052734375">
        <ele>391.20001220703125</ele>
        <time>2021-05-09T07:21:10.000Z</time>
        <extensions>
          <ns3:TrackPointExtension>
            <ns3:atemp>13.0</ns3:atemp>
          </ns3:TrackPointExtension>
        </extensions>
      </trkpt>
      <trkpt lat="43.1450692377984523773193359375" lon="13.03640074096620082855224609375">
        <ele>390.20001220703125</ele>
        <time>2021-05-09T07:21:12.000Z</time>
        <extensions>
          <ns3:TrackPointExtension>
            <ns3:atemp>13.0</ns3:atemp>
          </ns3:TrackPointExtension>
        </extensions>
      </trkpt>
      <trkpt lat="43.145116008818149566650390625" lon="13.03635120391845703125">
        <ele>389.399993896484375</ele>
        <time>2021-05-09T07:21:13.000Z</time>
        <extensions>
          <ns3:TrackPointExtension>
            <ns3:atemp>13.0</ns3:atemp>
          </ns3:TrackPointExtension>
        </extensions>
      </trkpt>
      <trkpt lat="43.14515934325754642486572265625" lon="13.03629999049007892608642578125">
        <ele>388.79998779296875</ele>
        <time>2021-05-09T07:21:14.000Z</time>
        <extensions>
          <ns3:TrackPointExtension>
            <ns3:atemp>13.0</ns3:atemp>
          </ns3:TrackPointExtension>
        </extensions>
      </trkpt>
      <trkpt lat="43.14525288529694080352783203125" lon="13.0361545644700527191162109375">
        <ele>387.79998779296875</ele>
        <time>2021-05-09T07:21:17.000Z</time>
        <extensions>
          <ns3:TrackPointExtension>
            <ns3:atemp>13.0</ns3:atemp>
          </ns3:TrackPointExtension>
        </extensions>
      </trkpt>
      <trkpt lat="43.14536042511463165283203125" lon="13.035928420722484588623046875">
        <ele>387.79998779296875</ele>
        <time>2021-05-09T07:21:23.000Z</time>
        <extensions>
          <ns3:TrackPointExtension>
            <ns3:atemp>13.0</ns3:atemp>
          </ns3:TrackPointExtension>
        </extensions>
      </trkpt>
      <trkpt lat="43.14539889805018901824951171875" lon="13.0357777141034603118896484375">
        <ele>390</ele>
        <time>2021-05-09T07:21:27.000Z</time>
        <extensions>
          <ns3:TrackPointExtension>
            <ns3:atemp>13.0</ns3:atemp>
          </ns3:TrackPointExtension>
        </extensions>
      </trkpt>
      <trkpt lat="43.14541012980043888092041015625" lon="13.03569850511848926544189453125">
        <ele>391</ele>
        <time>2021-05-09T07:21:29.000Z</time>
        <extensions>
          <ns3:TrackPointExtension>
            <ns3:atemp>13.0</ns3:atemp>
          </ns3:TrackPointExtension>
        </extensions>
      </trkpt>
      <trkpt lat="43.145406357944011688232421875" lon="13.0356211401522159576416015625">
        <ele>392</ele>
        <time>2021-05-09T07:21:31.000Z</time>
        <extensions>
          <ns3:TrackPointExtension>
            <ns3:atemp>13.0</ns3:atemp>
          </ns3:TrackPointExtension>
        </extensions>
      </trkpt>
      <trkpt lat="43.1453941203653812408447265625" lon="13.03558182902634143829345703125">
        <ele>392.399993896484375</ele>
        <time>2021-05-09T07:21:32.000Z</time>
        <extensions>
          <ns3:TrackPointExtension>
            <ns3:atemp>13.0</ns3:atemp>
          </ns3:TrackPointExtension>
        </extensions>
      </trkpt>
      <trkpt lat="43.14538951031863689422607421875" lon="13.0355410091578960418701171875">
        <ele>392.79998779296875</ele>
        <time>2021-05-09T07:21:33.000Z</time>
        <extensions>
          <ns3:TrackPointExtension>
            <ns3:atemp>13.0</ns3:atemp>
          </ns3:TrackPointExtension>
        </extensions>
      </trkpt>
      <trkpt lat="43.14537844620645046234130859375" lon="13.03542441688477993011474609375">
        <ele>393.600006103515625</ele>
        <time>2021-05-09T07:21:36.000Z</time>
        <extensions>
          <ns3:TrackPointExtension>
            <ns3:atemp>13.0</ns3:atemp>
          </ns3:TrackPointExtension>
        </extensions>
      </trkpt>
      <trkpt lat="43.145339302718639373779296875" lon="13.0353118479251861572265625">
        <ele>394</ele>
        <time>2021-05-09T07:21:39.000Z</time>
        <extensions>
          <ns3:TrackPointExtension>
            <ns3:atemp>13.0</ns3:atemp>
          </ns3:TrackPointExtension>
        </extensions>
      </trkpt>
      <trkpt lat="43.145220614969730377197265625" lon="13.0351886339485645294189453125">
        <ele>394</ele>
        <time>2021-05-09T07:21:43.000Z</time>
        <extensions>
          <ns3:TrackPointExtension>
            <ns3:atemp>13.0</ns3:atemp>
          </ns3:TrackPointExtension>
        </extensions>
      </trkpt>
      <trkpt lat="43.1449689902365207672119140625" lon="13.03494899533689022064208984375">
        <ele>394.399993896484375</ele>
        <time>2021-05-09T07:21:51.000Z</time>
        <extensions>
          <ns3:TrackPointExtension>
            <ns3:atemp>13.0</ns3:atemp>
          </ns3:TrackPointExtension>
        </extensions>
      </trkpt>
      <trkpt lat="43.1447440199553966522216796875" lon="13.03480063565075397491455078125">
        <ele>394.399993896484375</ele>
        <time>2021-05-09T07:21:58.000Z</time>
        <extensions>
          <ns3:TrackPointExtension>
            <ns3:atemp>13.0</ns3:atemp>
          </ns3:TrackPointExtension>
        </extensions>
      </trkpt>
      <trkpt lat="43.1446320377290248870849609375" lon="13.03474523127079010009765625">
        <ele>394.600006103515625</ele>
        <time>2021-05-09T07:22:01.000Z</time>
        <extensions>
          <ns3:TrackPointExtension>
            <ns3:atemp>13.0</ns3:atemp>
          </ns3:TrackPointExtension>
        </extensions>
      </trkpt>
      <trkpt lat="43.14444755204021930694580078125" lon="13.0346679501235485076904296875">
        <ele>394.79998779296875</ele>
        <time>2021-05-09T07:22:06.000Z</time>
        <extensions>
          <ns3:TrackPointExtension>
            <ns3:atemp>13.0</ns3:atemp>
          </ns3:TrackPointExtension>
        </extensions>
      </trkpt>
      <trkpt lat="43.14420464448630809783935546875" lon="13.03457482717931270599365234375">
        <ele>395.399993896484375</ele>
        <time>2021-05-09T07:22:12.000Z</time>
        <extensions>
          <ns3:TrackPointExtension>
            <ns3:atemp>13.0</ns3:atemp>
          </ns3:TrackPointExtension>
        </extensions>
      </trkpt>
      <trkpt lat="43.144084028899669647216796875" lon="13.03451590240001678466796875">
        <ele>395.600006103515625</ele>
        <time>2021-05-09T07:22:15.000Z</time>
        <extensions>
          <ns3:TrackPointExtension>
            <ns3:atemp>13.0</ns3:atemp>
          </ns3:TrackPointExtension>
        </extensions>
      </trkpt>
      <trkpt lat="43.14400884322822093963623046875" lon="13.03447860293090343475341796875">
        <ele>395.79998779296875</ele>
        <time>2021-05-09T07:22:17.000Z</time>
        <extensions>
          <ns3:TrackPointExtension>
            <ns3:atemp>13.0</ns3:atemp>
          </ns3:TrackPointExtension>
        </extensions>
      </trkpt>
      <trkpt lat="43.143940530717372894287109375" lon="13.03443904034793376922607421875">
        <ele>396</ele>
        <time>2021-05-09T07:22:19.000Z</time>
        <extensions>
          <ns3:TrackPointExtension>
            <ns3:atemp>13.0</ns3:atemp>
          </ns3:TrackPointExtension>
        </extensions>
      </trkpt>
      <trkpt lat="43.14384489320218563079833984375" lon="13.03438053466379642486572265625">
        <ele>396.399993896484375</ele>
        <time>2021-05-09T07:22:22.000Z</time>
        <extensions>
          <ns3:TrackPointExtension>
            <ns3:atemp>14.0</ns3:atemp>
          </ns3:TrackPointExtension>
        </extensions>
      </trkpt>
      <trkpt lat="43.1437785923480987548828125" lon="13.0343232862651348114013671875">
        <ele>396.600006103515625</ele>
        <time>2021-05-09T07:22:24.000Z</time>
        <extensions>
          <ns3:TrackPointExtension>
            <ns3:atemp>14.0</ns3:atemp>
          </ns3:TrackPointExtension>
        </extensions>
      </trkpt>
      <trkpt lat="43.1437432207167148590087890625" lon="13.0342857353389263153076171875">
        <ele>396.600006103515625</ele>
        <time>2021-05-09T07:22:25.000Z</time>
        <extensions>
          <ns3:TrackPointExtension>
            <ns3:atemp>14.0</ns3:atemp>
          </ns3:TrackPointExtension>
        </extensions>
      </trkpt>
      <trkpt lat="43.143705837428569793701171875" lon="13.03424759767949581146240234375">
        <ele>396.79998779296875</ele>
        <time>2021-05-09T07:22:26.000Z</time>
        <extensions>
          <ns3:TrackPointExtension>
            <ns3:atemp>14.0</ns3:atemp>
          </ns3:TrackPointExtension>
        </extensions>
      </trkpt>
      <trkpt lat="43.14360416494309902191162109375" lon="13.0341117270290851593017578125">
        <ele>397.20001220703125</ele>
        <time>2021-05-09T07:22:29.000Z</time>
        <extensions>
          <ns3:TrackPointExtension>
            <ns3:atemp>14.0</ns3:atemp>
          </ns3:TrackPointExtension>
        </extensions>
      </trkpt>
      <trkpt lat="43.143546245992183685302734375" lon="13.03400619886815547943115234375">
        <ele>397.79998779296875</ele>
        <time>2021-05-09T07:22:31.000Z</time>
        <extensions>
          <ns3:TrackPointExtension>
            <ns3:atemp>14.0</ns3:atemp>
          </ns3:TrackPointExtension>
        </extensions>
      </trkpt>
      <trkpt lat="43.1434743292629718780517578125" lon="13.03389773704111576080322265625">
        <ele>398</ele>
        <time>2021-05-09T07:22:33.000Z</time>
        <extensions>
          <ns3:TrackPointExtension>
            <ns3:atemp>14.0</ns3:atemp>
          </ns3:TrackPointExtension>
        </extensions>
      </trkpt>
      <trkpt lat="43.1433526240289211273193359375" lon="13.03376345895230770111083984375">
        <ele>398.399993896484375</ele>
        <time>2021-05-09T07:22:36.000Z</time>
        <extensions>
          <ns3:TrackPointExtension>
            <ns3:atemp>14.0</ns3:atemp>
          </ns3:TrackPointExtension>
        </extensions>
      </trkpt>
      <trkpt lat="43.14313394017517566680908203125" lon="13.0336128361523151397705078125">
        <ele>398.79998779296875</ele>
        <time>2021-05-09T07:22:42.000Z</time>
        <extensions>
          <ns3:TrackPointExtension>
            <ns3:atemp>14.0</ns3:atemp>
          </ns3:TrackPointExtension>
        </extensions>
      </trkpt>
      <trkpt lat="43.143064118921756744384765625" lon="13.03356380201876163482666015625">
        <ele>399.20001220703125</ele>
        <time>2021-05-09T07:22:44.000Z</time>
        <extensions>
          <ns3:TrackPointExtension>
            <ns3:atemp>14.0</ns3:atemp>
          </ns3:TrackPointExtension>
        </extensions>
      </trkpt>
      <trkpt lat="43.14293428324162960052490234375" lon="13.0334653146564960479736328125">
        <ele>399.79998779296875</ele>
        <time>2021-05-09T07:22:48.000Z</time>
        <extensions>
          <ns3:TrackPointExtension>
            <ns3:atemp>14.0</ns3:atemp>
          </ns3:TrackPointExtension>
        </extensions>
      </trkpt>
      <trkpt lat="43.14264879561960697174072265625" lon="13.033237494528293609619140625">
        <ele>400.20001220703125</ele>
        <time>2021-05-09T07:22:56.000Z</time>
        <extensions>
          <ns3:TrackPointExtension>
            <ns3:atemp>14.0</ns3:atemp>
          </ns3:TrackPointExtension>
        </extensions>
      </trkpt>
      <trkpt lat="43.14261292107403278350830078125" lon="13.0332111753523349761962890625">
        <ele>400.20001220703125</ele>
        <time>2021-05-09T07:22:57.000Z</time>
        <extensions>
          <ns3:TrackPointExtension>
            <ns3:atemp>14.0</ns3:atemp>
          </ns3:TrackPointExtension>
        </extensions>
      </trkpt>
      <trkpt lat="43.14244947396218776702880859375" lon="13.03309500217437744140625">
        <ele>400.399993896484375</ele>
        <time>2021-05-09T07:23:01.000Z</time>
        <extensions>
          <ns3:TrackPointExtension>
            <ns3:atemp>14.0</ns3:atemp>
          </ns3:TrackPointExtension>
        </extensions>
      </trkpt>
      <trkpt lat="43.14235760830342769622802734375" lon="13.03306357003748416900634765625">
        <ele>400.399993896484375</ele>
        <time>2021-05-09T07:23:03.000Z</time>
        <extensions>
          <ns3:TrackPointExtension>
            <ns3:atemp>14.0</ns3:atemp>
          </ns3:TrackPointExtension>
        </extensions>
      </trkpt>
      <trkpt lat="43.1422604620456695556640625" lon="13.0330505780875682830810546875">
        <ele>400.600006103515625</ele>
        <time>2021-05-09T07:23:05.000Z</time>
        <extensions>
          <ns3:TrackPointExtension>
            <ns3:atemp>14.0</ns3:atemp>
          </ns3:TrackPointExtension>
        </extensions>
      </trkpt>
      <trkpt lat="43.1420135311782360076904296875" lon="13.0330539308488368988037109375">
        <ele>400.600006103515625</ele>
        <time>2021-05-09T07:23:10.000Z</time>
        <extensions>
          <ns3:TrackPointExtension>
            <ns3:atemp>14.0</ns3:atemp>
          </ns3:TrackPointExtension>
        </extensions>
      </trkpt>
      <trkpt lat="43.14162435941398143768310546875" lon="13.0330606363713741302490234375">
        <ele>400.600006103515625</ele>
        <time>2021-05-09T07:23:18.000Z</time>
        <extensions>
          <ns3:TrackPointExtension>
            <ns3:atemp>14.0</ns3:atemp>
          </ns3:TrackPointExtension>
        </extensions>
      </trkpt>
      <trkpt lat="43.141334094107151031494140625" lon="13.03305552341043949127197265625">
        <ele>401.20001220703125</ele>
        <time>2021-05-09T07:23:25.000Z</time>
        <extensions>
          <ns3:TrackPointExtension>
            <ns3:atemp>14.0</ns3:atemp>
          </ns3:TrackPointExtension>
        </extensions>
      </trkpt>
      <trkpt lat="43.141172826290130615234375" lon="13.03304135799407958984375">
        <ele>402.399993896484375</ele>
        <time>2021-05-09T07:23:29.000Z</time>
        <extensions>
          <ns3:TrackPointExtension>
            <ns3:atemp>14.0</ns3:atemp>
          </ns3:TrackPointExtension>
        </extensions>
      </trkpt>
      <trkpt lat="43.14093218185007572174072265625" lon="13.0329982750117778778076171875">
        <ele>403.79998779296875</ele>
        <time>2021-05-09T07:23:35.000Z</time>
        <extensions>
          <ns3:TrackPointExtension>
            <ns3:atemp>14.0</ns3:atemp>
          </ns3:TrackPointExtension>
        </extensions>
      </trkpt>
      <trkpt lat="43.1406590156257152557373046875" lon="13.032898195087909698486328125">
        <ele>404.79998779296875</ele>
        <time>2021-05-09T07:23:42.000Z</time>
        <extensions>
          <ns3:TrackPointExtension>
            <ns3:atemp>14.0</ns3:atemp>
          </ns3:TrackPointExtension>
        </extensions>
      </trkpt>
      <trkpt lat="43.1403985060751438140869140625" lon="13.03275905549526214599609375">
        <ele>405.600006103515625</ele>
        <time>2021-05-09T07:23:50.000Z</time>
        <extensions>
          <ns3:TrackPointExtension>
            <ns3:atemp>14.0</ns3:atemp>
          </ns3:TrackPointExtension>
        </extensions>
      </trkpt>
      <trkpt lat="43.1402503140270709991455078125" lon="13.0326542817056179046630859375">
        <ele>405.600006103515625</ele>
        <time>2021-05-09T07:23:56.000Z</time>
        <extensions>
          <ns3:TrackPointExtension>
            <ns3:atemp>14.0</ns3:atemp>
          </ns3:TrackPointExtension>
        </extensions>
      </trkpt>
      <trkpt lat="43.14018887467682361602783203125" lon="13.03261597640812397003173828125">
        <ele>405.79998779296875</ele>
        <time>2021-05-09T07:23:59.000Z</time>
        <extensions>
          <ns3:TrackPointExtension>
            <ns3:atemp>14.0</ns3:atemp>
          </ns3:TrackPointExtension>
        </extensions>
      </trkpt>
      <trkpt lat="43.14014109782874584197998046875" lon="13.0325530283153057098388671875">
        <ele>405.79998779296875</ele>
        <time>2021-05-09T07:24:02.000Z</time>
        <extensions>
          <ns3:TrackPointExtension>
            <ns3:atemp>14.0</ns3:atemp>
          </ns3:TrackPointExtension>
        </extensions>
      </trkpt>
      <trkpt lat="43.14007203094661235809326171875" lon="13.03243811242282390594482421875">
        <ele>406</ele>
        <time>2021-05-09T07:24:08.000Z</time>
        <extensions>
          <ns3:TrackPointExtension>
            <ns3:atemp>14.0</ns3:atemp>
          </ns3:TrackPointExtension>
        </extensions>
      </trkpt>
      <trkpt lat="43.14002551138401031494140625" lon="13.03240366280078887939453125">
        <ele>406.399993896484375</ele>
        <time>2021-05-09T07:24:12.000Z</time>
        <extensions>
          <ns3:TrackPointExtension>
            <ns3:atemp>14.0</ns3:atemp>
          </ns3:TrackPointExtension>
        </extensions>
      </trkpt>
      <trkpt lat="43.14000480808317661285400390625" lon="13.03239695727825164794921875">
        <ele>406.600006103515625</ele>
        <time>2021-05-09T07:24:13.000Z</time>
        <extensions>
          <ns3:TrackPointExtension>
            <ns3:atemp>14.0</ns3:atemp>
          </ns3:TrackPointExtension>
        </extensions>
      </trkpt>
      <trkpt lat="43.13993222080171108245849609375" lon="13.03237617015838623046875">
        <ele>406.79998779296875</ele>
        <time>2021-05-09T07:24:16.000Z</time>
        <extensions>
          <ns3:TrackPointExtension>
            <ns3:atemp>14.0</ns3:atemp>
          </ns3:TrackPointExtension>
        </extensions>
      </trkpt>
      <trkpt lat="43.1398835219442844390869140625" lon="13.03236342966556549072265625">
        <ele>407</ele>
        <time>2021-05-09T07:24:18.000Z</time>
        <extensions>
          <ns3:TrackPointExtension>
            <ns3:atemp>14.0</ns3:atemp>
          </ns3:TrackPointExtension>
        </extensions>
      </trkpt>
      <trkpt lat="43.13966651447117328643798828125" lon="13.03230903111398220062255859375">
        <ele>407.20001220703125</ele>
        <time>2021-05-09T07:24:25.000Z</time>
        <extensions>
          <ns3:TrackPointExtension>
            <ns3:atemp>14.0</ns3:atemp>
          </ns3:TrackPointExtension>
        </extensions>
      </trkpt>
      <trkpt lat="43.13950960524380207061767578125" lon="13.03224834613502025604248046875">
        <ele>407.79998779296875</ele>
        <time>2021-05-09T07:24:30.000Z</time>
        <extensions>
          <ns3:TrackPointExtension>
            <ns3:atemp>14.0</ns3:atemp>
          </ns3:TrackPointExtension>
        </extensions>
      </trkpt>
      <trkpt lat="43.13943584449589252471923828125" lon="13.032228983938694000244140625">
        <ele>407.79998779296875</ele>
        <time>2021-05-09T07:24:32.000Z</time>
        <extensions>
          <ns3:TrackPointExtension>
            <ns3:atemp>14.0</ns3:atemp>
          </ns3:TrackPointExtension>
        </extensions>
      </trkpt>
      <trkpt lat="43.139214813709259033203125" lon="13.03216385655105113983154296875">
        <ele>408</ele>
        <time>2021-05-09T07:24:38.000Z</time>
        <extensions>
          <ns3:TrackPointExtension>
            <ns3:atemp>14.0</ns3:atemp>
          </ns3:TrackPointExtension>
        </extensions>
      </trkpt>
      <trkpt lat="43.138944916427135467529296875" lon="13.03208992816507816314697265625">
        <ele>408.600006103515625</ele>
        <time>2021-05-09T07:24:45.000Z</time>
        <extensions>
          <ns3:TrackPointExtension>
            <ns3:atemp>14.0</ns3:atemp>
          </ns3:TrackPointExtension>
        </extensions>
      </trkpt>
      <trkpt lat="43.13890459947288036346435546875" lon="13.0320823006331920623779296875">
        <ele>408.79998779296875</ele>
        <time>2021-05-09T07:24:46.000Z</time>
        <extensions>
          <ns3:TrackPointExtension>
            <ns3:atemp>14.0</ns3:atemp>
          </ns3:TrackPointExtension>
        </extensions>
      </trkpt>
      <trkpt lat="43.13868549652397632598876953125" lon="13.03202723152935504913330078125">
        <ele>409.20001220703125</ele>
        <time>2021-05-09T07:24:52.000Z</time>
        <extensions>
          <ns3:TrackPointExtension>
            <ns3:atemp>14.0</ns3:atemp>
          </ns3:TrackPointExtension>
        </extensions>
      </trkpt>
      <trkpt lat="43.1383846700191497802734375" lon="13.03186344914138317108154296875">
        <ele>409.79998779296875</ele>
        <time>2021-05-09T07:25:01.000Z</time>
        <extensions>
          <ns3:TrackPointExtension>
            <ns3:atemp>14.0</ns3:atemp>
          </ns3:TrackPointExtension>
        </extensions>
      </trkpt>
      <trkpt lat="43.1383513100445270538330078125" lon="13.03184232674539089202880859375">
        <ele>409.79998779296875</ele>
        <time>2021-05-09T07:25:02.000Z</time>
        <extensions>
          <ns3:TrackPointExtension>
            <ns3:atemp>14.0</ns3:atemp>
          </ns3:TrackPointExtension>
        </extensions>
      </trkpt>
      <trkpt lat="43.1380985118448734283447265625" lon="13.0316809751093387603759765625">
        <ele>410.79998779296875</ele>
        <time>2021-05-09T07:25:10.000Z</time>
        <extensions>
          <ns3:TrackPointExtension>
            <ns3:atemp>14.0</ns3:atemp>
          </ns3:TrackPointExtension>
        </extensions>
      </trkpt>
      <trkpt lat="43.13806758262217044830322265625" lon="13.0316568352282047271728515625">
        <ele>411</ele>
        <time>2021-05-09T07:25:11.000Z</time>
        <extensions>
          <ns3:TrackPointExtension>
            <ns3:atemp>14.0</ns3:atemp>
          </ns3:TrackPointExtension>
        </extensions>
      </trkpt>
      <trkpt lat="43.1378892995417118072509765625" lon="13.0315378122031688690185546875">
        <ele>411.79998779296875</ele>
        <time>2021-05-09T07:25:17.000Z</time>
        <extensions>
          <ns3:TrackPointExtension>
            <ns3:atemp>14.0</ns3:atemp>
          </ns3:TrackPointExtension>
        </extensions>
      </trkpt>
      <trkpt lat="43.137847222387790679931640625" lon="13.031527586281299591064453125">
        <ele>411.79998779296875</ele>
        <time>2021-05-09T07:25:18.000Z</time>
        <extensions>
          <ns3:TrackPointExtension>
            <ns3:atemp>14.0</ns3:atemp>
          </ns3:TrackPointExtension>
        </extensions>
      </trkpt>
      <trkpt lat="43.137703724205493927001953125" lon="13.03152817301452159881591796875">
        <ele>411.79998779296875</ele>
        <time>2021-05-09T07:25:21.000Z</time>
        <extensions>
          <ns3:TrackPointExtension>
            <ns3:atemp>14.0</ns3:atemp>
          </ns3:TrackPointExtension>
        </extensions>
      </trkpt>
      <trkpt lat="43.1373974494636058807373046875" lon="13.031594641506671905517578125">
        <ele>411.600006103515625</ele>
        <time>2021-05-09T07:25:27.000Z</time>
        <extensions>
          <ns3:TrackPointExtension>
            <ns3:atemp>14.0</ns3:atemp>
          </ns3:TrackPointExtension>
        </extensions>
      </trkpt>
      <trkpt lat="43.13730751164257526397705078125" lon="13.03160796873271465301513671875">
        <ele>410.79998779296875</ele>
        <time>2021-05-09T07:25:29.000Z</time>
        <extensions>
          <ns3:TrackPointExtension>
            <ns3:atemp>14.0</ns3:atemp>
          </ns3:TrackPointExtension>
        </extensions>
      </trkpt>
      <trkpt lat="43.1371915899217128753662109375" lon="13.0315916240215301513671875">
        <ele>410.600006103515625</ele>
        <time>2021-05-09T07:25:32.000Z</time>
        <extensions>
          <ns3:TrackPointExtension>
            <ns3:atemp>14.0</ns3:atemp>
          </ns3:TrackPointExtension>
        </extensions>
      </trkpt>
      <trkpt lat="43.1370544619858264923095703125" lon="13.03153605200350284576416015625">
        <ele>410.600006103515625</ele>
        <time>2021-05-09T07:25:36.000Z</time>
        <extensions>
          <ns3:TrackPointExtension>
            <ns3:atemp>14.0</ns3:atemp>
          </ns3:TrackPointExtension>
        </extensions>
      </trkpt>
      <trkpt lat="43.1369783543050289154052734375" lon="13.031512834131717681884765625">
        <ele>410.600006103515625</ele>
        <time>2021-05-09T07:25:38.000Z</time>
        <extensions>
          <ns3:TrackPointExtension>
            <ns3:atemp>14.0</ns3:atemp>
          </ns3:TrackPointExtension>
        </extensions>
      </trkpt>
      <trkpt lat="43.13674986362457275390625" lon="13.03144083358347415924072265625">
        <ele>412</ele>
        <time>2021-05-09T07:25:44.000Z</time>
        <extensions>
          <ns3:TrackPointExtension>
            <ns3:atemp>14.0</ns3:atemp>
          </ns3:TrackPointExtension>
        </extensions>
      </trkpt>
      <trkpt lat="43.13666596077382564544677734375" lon="13.031412251293659210205078125">
        <ele>412.20001220703125</ele>
        <time>2021-05-09T07:25:46.000Z</time>
        <extensions>
          <ns3:TrackPointExtension>
            <ns3:atemp>14.0</ns3:atemp>
          </ns3:TrackPointExtension>
        </extensions>
      </trkpt>
      <trkpt lat="43.13629749231040477752685546875" lon="13.03127990104258060455322265625">
        <ele>412.399993896484375</ele>
        <time>2021-05-09T07:25:54.000Z</time>
        <extensions>
          <ns3:TrackPointExtension>
            <ns3:atemp>14.0</ns3:atemp>
          </ns3:TrackPointExtension>
        </extensions>
      </trkpt>
      <trkpt lat="43.13597009517252445220947265625" lon="13.03116582334041595458984375">
        <ele>412.20001220703125</ele>
        <time>2021-05-09T07:26:01.000Z</time>
        <extensions>
          <ns3:TrackPointExtension>
            <ns3:atemp>14.0</ns3:atemp>
          </ns3:TrackPointExtension>
        </extensions>
      </trkpt>
      <trkpt lat="43.135659210383892059326171875" lon="13.03107873536646366119384765625">
        <ele>412.20001220703125</ele>
        <time>2021-05-09T07:26:08.000Z</time>
        <extensions>
          <ns3:TrackPointExtension>
            <ns3:atemp>14.0</ns3:atemp>
          </ns3:TrackPointExtension>
        </extensions>
      </trkpt>
      <trkpt lat="43.13538067974150180816650390625" lon="13.031015284359455108642578125">
        <ele>412.399993896484375</ele>
        <time>2021-05-09T07:26:15.000Z</time>
        <extensions>
          <ns3:TrackPointExtension>
            <ns3:atemp>14.0</ns3:atemp>
          </ns3:TrackPointExtension>
        </extensions>
      </trkpt>
      <trkpt lat="43.13523709774017333984375" lon="13.03098251111805438995361328125">
        <ele>413.20001220703125</ele>
        <time>2021-05-09T07:26:19.000Z</time>
        <extensions>
          <ns3:TrackPointExtension>
            <ns3:atemp>14.0</ns3:atemp>
          </ns3:TrackPointExtension>
        </extensions>
      </trkpt>
      <trkpt lat="43.1351205892860889434814453125" lon="13.030959628522396087646484375">
        <ele>413.79998779296875</ele>
        <time>2021-05-09T07:26:22.000Z</time>
        <extensions>
          <ns3:TrackPointExtension>
            <ns3:atemp>14.0</ns3:atemp>
          </ns3:TrackPointExtension>
        </extensions>
      </trkpt>
      <trkpt lat="43.13504657708108425140380859375" lon="13.03094856441020965576171875">
        <ele>414.399993896484375</ele>
        <time>2021-05-09T07:26:24.000Z</time>
        <extensions>
          <ns3:TrackPointExtension>
            <ns3:atemp>15.0</ns3:atemp>
          </ns3:TrackPointExtension>
        </extensions>
      </trkpt>
      <trkpt lat="43.1348624266684055328369140625" lon="13.03090673871338367462158203125">
        <ele>415.600006103515625</ele>
        <time>2021-05-09T07:26:29.000Z</time>
        <extensions>
          <ns3:TrackPointExtension>
            <ns3:atemp>15.0</ns3:atemp>
          </ns3:TrackPointExtension>
        </extensions>
      </trkpt>
      <trkpt lat="43.13482470810413360595703125" lon="13.03090036846697330474853515625">
        <ele>415.79998779296875</ele>
        <time>2021-05-09T07:26:30.000Z</time>
        <extensions>
          <ns3:TrackPointExtension>
            <ns3:atemp>15.0</ns3:atemp>
          </ns3:TrackPointExtension>
        </extensions>
      </trkpt>
      <trkpt lat="43.1346740014851093292236328125" lon="13.03087371401488780975341796875">
        <ele>416.600006103515625</ele>
        <time>2021-05-09T07:26:34.000Z</time>
        <extensions>
          <ns3:TrackPointExtension>
            <ns3:atemp>15.0</ns3:atemp>
          </ns3:TrackPointExtension>
        </extensions>
      </trkpt>
      <trkpt lat="43.1344510428607463836669921875" lon="13.03082920610904693603515625">
        <ele>417.600006103515625</ele>
        <time>2021-05-09T07:26:40.000Z</time>
        <extensions>
          <ns3:TrackPointExtension>
            <ns3:atemp>15.0</ns3:atemp>
          </ns3:TrackPointExtension>
        </extensions>
      </trkpt>
      <trkpt lat="43.1344123184680938720703125" lon="13.0308223329484462738037109375">
        <ele>417.79998779296875</ele>
        <time>2021-05-09T07:26:41.000Z</time>
        <extensions>
          <ns3:TrackPointExtension>
            <ns3:atemp>15.0</ns3:atemp>
          </ns3:TrackPointExtension>
        </extensions>
      </trkpt>
      <trkpt lat="43.13417988829314708709716796875" lon="13.03079157136380672454833984375">
        <ele>418.79998779296875</ele>
        <time>2021-05-09T07:26:47.000Z</time>
        <extensions>
          <ns3:TrackPointExtension>
            <ns3:atemp>15.0</ns3:atemp>
          </ns3:TrackPointExtension>
        </extensions>
      </trkpt>
      <trkpt lat="43.1340597756206989288330078125" lon="13.0307784117758274078369140625">
        <ele>419.20001220703125</ele>
        <time>2021-05-09T07:26:50.000Z</time>
        <extensions>
          <ns3:TrackPointExtension>
            <ns3:atemp>15.0</ns3:atemp>
          </ns3:TrackPointExtension>
        </extensions>
      </trkpt>
      <trkpt lat="43.1338240765035152435302734375" lon="13.03076273761689662933349609375">
        <ele>419.79998779296875</ele>
        <time>2021-05-09T07:26:56.000Z</time>
        <extensions>
          <ns3:TrackPointExtension>
            <ns3:atemp>15.0</ns3:atemp>
          </ns3:TrackPointExtension>
        </extensions>
      </trkpt>
      <trkpt lat="43.1337444484233856201171875" lon="13.0307546071708202362060546875">
        <ele>420</ele>
        <time>2021-05-09T07:26:58.000Z</time>
        <extensions>
          <ns3:TrackPointExtension>
            <ns3:atemp>15.0</ns3:atemp>
          </ns3:TrackPointExtension>
        </extensions>
      </trkpt>
      <trkpt lat="43.1333919055759906768798828125" lon="13.030761145055294036865234375">
        <ele>420.600006103515625</ele>
        <time>2021-05-09T07:27:07.000Z</time>
        <extensions>
          <ns3:TrackPointExtension>
            <ns3:atemp>15.0</ns3:atemp>
          </ns3:TrackPointExtension>
        </extensions>
      </trkpt>
      <trkpt lat="43.1332289613783359527587890625" lon="13.03077556192874908447265625">
        <ele>421.20001220703125</ele>
        <time>2021-05-09T07:27:11.000Z</time>
        <extensions>
          <ns3:TrackPointExtension>
            <ns3:atemp>15.0</ns3:atemp>
          </ns3:TrackPointExtension>
        </extensions>
      </trkpt>
      <trkpt lat="43.13302720896899700164794921875" lon="13.03079123608767986297607421875">
        <ele>422.20001220703125</ele>
        <time>2021-05-09T07:27:16.000Z</time>
        <extensions>
          <ns3:TrackPointExtension>
            <ns3:atemp>15.0</ns3:atemp>
          </ns3:TrackPointExtension>
        </extensions>
      </trkpt>
      <trkpt lat="43.1329865567386150360107421875" lon="13.03079375065863132476806640625">
        <ele>422.600006103515625</ele>
        <time>2021-05-09T07:27:17.000Z</time>
        <extensions>
          <ns3:TrackPointExtension>
            <ns3:atemp>15.0</ns3:atemp>
          </ns3:TrackPointExtension>
        </extensions>
      </trkpt>
      <trkpt lat="43.13286527059972286224365234375" lon="13.03079743869602680206298828125">
        <ele>423.399993896484375</ele>
        <time>2021-05-09T07:27:20.000Z</time>
        <extensions>
          <ns3:TrackPointExtension>
            <ns3:atemp>15.0</ns3:atemp>
          </ns3:TrackPointExtension>
        </extensions>
      </trkpt>
      <trkpt lat="43.13262286596000194549560546875" lon="13.03081512451171875">
        <ele>424</ele>
        <time>2021-05-09T07:27:26.000Z</time>
        <extensions>
          <ns3:TrackPointExtension>
            <ns3:atemp>15.0</ns3:atemp>
          </ns3:TrackPointExtension>
        </extensions>
      </trkpt>
      <trkpt lat="43.13237660564482212066650390625" lon="13.03082928992807865142822265625">
        <ele>424.399993896484375</ele>
        <time>2021-05-09T07:27:32.000Z</time>
        <extensions>
          <ns3:TrackPointExtension>
            <ns3:atemp>15.0</ns3:atemp>
          </ns3:TrackPointExtension>
        </extensions>
      </trkpt>
      <trkpt lat="43.13228993676602840423583984375" lon="13.03084052167832851409912109375">
        <ele>424.600006103515625</ele>
        <time>2021-05-09T07:27:34.000Z</time>
        <extensions>
          <ns3:TrackPointExtension>
            <ns3:atemp>15.0</ns3:atemp>
          </ns3:TrackPointExtension>
        </extensions>
      </trkpt>
      <trkpt lat="43.132045604288578033447265625" lon="13.03087639622390270233154296875">
        <ele>425</ele>
        <time>2021-05-09T07:27:40.000Z</time>
        <extensions>
          <ns3:TrackPointExtension>
            <ns3:atemp>15.0</ns3:atemp>
          </ns3:TrackPointExtension>
        </extensions>
      </trkpt>
      <trkpt lat="43.13180722296237945556640625" lon="13.03092232905328273773193359375">
        <ele>425.399993896484375</ele>
        <time>2021-05-09T07:27:47.000Z</time>
        <extensions>
          <ns3:TrackPointExtension>
            <ns3:atemp>15.0</ns3:atemp>
          </ns3:TrackPointExtension>
        </extensions>
      </trkpt>
      <trkpt lat="43.131658025085926055908203125" lon="13.03095317445695400238037109375">
        <ele>425.399993896484375</ele>
        <time>2021-05-09T07:27:51.000Z</time>
        <extensions>
          <ns3:TrackPointExtension>
            <ns3:atemp>15.0</ns3:atemp>
          </ns3:TrackPointExtension>
        </extensions>
      </trkpt>
      <trkpt lat="43.1315428577363491058349609375" lon="13.0309760570526123046875">
        <ele>425.399993896484375</ele>
        <time>2021-05-09T07:27:54.000Z</time>
        <extensions>
          <ns3:TrackPointExtension>
            <ns3:atemp>15.0</ns3:atemp>
          </ns3:TrackPointExtension>
        </extensions>
      </trkpt>
      <trkpt lat="43.13121671788394451141357421875" lon="13.0310095846652984619140625">
        <ele>425.399993896484375</ele>
        <time>2021-05-09T07:28:02.000Z</time>
        <extensions>
          <ns3:TrackPointExtension>
            <ns3:atemp>15.0</ns3:atemp>
          </ns3:TrackPointExtension>
        </extensions>
      </trkpt>
      <trkpt lat="43.1310845352709293365478515625" lon="13.0309961736202239990234375">
        <ele>425.399993896484375</ele>
        <time>2021-05-09T07:28:05.000Z</time>
        <extensions>
          <ns3:TrackPointExtension>
            <ns3:atemp>15.0</ns3:atemp>
          </ns3:TrackPointExtension>
        </extensions>
      </trkpt>
      <trkpt lat="43.13098504208028316497802734375" lon="13.03101134486496448516845703125">
        <ele>425.20001220703125</ele>
        <time>2021-05-09T07:28:07.000Z</time>
        <extensions>
          <ns3:TrackPointExtension>
            <ns3:atemp>15.0</ns3:atemp>
          </ns3:TrackPointExtension>
        </extensions>
      </trkpt>
      <trkpt lat="43.130670301616191864013671875" lon="13.031094409525394439697265625">
        <ele>424</ele>
        <time>2021-05-09T07:28:13.000Z</time>
        <extensions>
          <ns3:TrackPointExtension>
            <ns3:atemp>15.0</ns3:atemp>
          </ns3:TrackPointExtension>
        </extensions>
      </trkpt>
      <trkpt lat="43.13061942346394062042236328125" lon="13.0311079882085323333740234375">
        <ele>423.600006103515625</ele>
        <time>2021-05-09T07:28:14.000Z</time>
        <extensions>
          <ns3:TrackPointExtension>
            <ns3:atemp>15.0</ns3:atemp>
          </ns3:TrackPointExtension>
        </extensions>
      </trkpt>
      <trkpt lat="43.1302978098392486572265625" lon="13.031204044818878173828125">
        <ele>423.399993896484375</ele>
        <time>2021-05-09T07:28:21.000Z</time>
        <extensions>
          <ns3:TrackPointExtension>
            <ns3:atemp>15.0</ns3:atemp>
          </ns3:TrackPointExtension>
        </extensions>
      </trkpt>
      <trkpt lat="43.13001341186463832855224609375" lon="13.031284511089324951171875">
        <ele>425</ele>
        <time>2021-05-09T07:28:28.000Z</time>
        <extensions>
          <ns3:TrackPointExtension>
            <ns3:atemp>15.0</ns3:atemp>
          </ns3:TrackPointExtension>
        </extensions>
      </trkpt>
      <trkpt lat="43.1299732625484466552734375" lon="13.0312964133918285369873046875">
        <ele>425.399993896484375</ele>
        <time>2021-05-09T07:28:29.000Z</time>
        <extensions>
          <ns3:TrackPointExtension>
            <ns3:atemp>15.0</ns3:atemp>
          </ns3:TrackPointExtension>
        </extensions>
      </trkpt>
      <trkpt lat="43.12985801137983798980712890625" lon="13.031337149441242218017578125">
        <ele>426</ele>
        <time>2021-05-09T07:28:32.000Z</time>
        <extensions>
          <ns3:TrackPointExtension>
            <ns3:atemp>15.0</ns3:atemp>
          </ns3:TrackPointExtension>
        </extensions>
      </trkpt>
      <trkpt lat="43.1297518126666545867919921875" lon="13.03140529431402683258056640625">
        <ele>427</ele>
        <time>2021-05-09T07:28:35.000Z</time>
        <extensions>
          <ns3:TrackPointExtension>
            <ns3:atemp>15.0</ns3:atemp>
          </ns3:TrackPointExtension>
        </extensions>
      </trkpt>
      <trkpt lat="43.12971652485430240631103515625" lon="13.03142976947128772735595703125">
        <ele>427.20001220703125</ele>
        <time>2021-05-09T07:28:36.000Z</time>
        <extensions>
          <ns3:TrackPointExtension>
            <ns3:atemp>15.0</ns3:atemp>
          </ns3:TrackPointExtension>
        </extensions>
      </trkpt>
      <trkpt lat="43.12957135029137134552001953125" lon="13.03154041059315204620361328125">
        <ele>428.399993896484375</ele>
        <time>2021-05-09T07:28:40.000Z</time>
        <extensions>
          <ns3:TrackPointExtension>
            <ns3:atemp>15.0</ns3:atemp>
          </ns3:TrackPointExtension>
        </extensions>
      </trkpt>
      <trkpt lat="43.12945232726633548736572265625" lon="13.03160930983722209930419921875">
        <ele>429</ele>
        <time>2021-05-09T07:28:43.000Z</time>
        <extensions>
          <ns3:TrackPointExtension>
            <ns3:atemp>15.0</ns3:atemp>
          </ns3:TrackPointExtension>
        </extensions>
      </trkpt>
      <trkpt lat="43.12941108830273151397705078125" lon="13.0316293425858020782470703125">
        <ele>429.399993896484375</ele>
        <time>2021-05-09T07:28:44.000Z</time>
        <extensions>
          <ns3:TrackPointExtension>
            <ns3:atemp>15.0</ns3:atemp>
          </ns3:TrackPointExtension>
        </extensions>
      </trkpt>
      <trkpt lat="43.12924747355282306671142578125" lon="13.0316742695868015289306640625">
        <ele>430.600006103515625</ele>
        <time>2021-05-09T07:28:48.000Z</time>
        <extensions>
          <ns3:TrackPointExtension>
            <ns3:atemp>15.0</ns3:atemp>
          </ns3:TrackPointExtension>
        </extensions>
      </trkpt>
      <trkpt lat="43.12915862537920475006103515625" lon="13.03168080747127532958984375">
        <ele>431</ele>
        <time>2021-05-09T07:28:50.000Z</time>
        <extensions>
          <ns3:TrackPointExtension>
            <ns3:atemp>15.0</ns3:atemp>
          </ns3:TrackPointExtension>
        </extensions>
      </trkpt>
      <trkpt lat="43.128912113606929779052734375" lon="13.0316747725009918212890625">
        <ele>431.600006103515625</ele>
        <time>2021-05-09T07:28:56.000Z</time>
        <extensions>
          <ns3:TrackPointExtension>
            <ns3:atemp>15.0</ns3:atemp>
          </ns3:TrackPointExtension>
        </extensions>
      </trkpt>
      <trkpt lat="43.1288713775575160980224609375" lon="13.03167519159615039825439453125">
        <ele>431.79998779296875</ele>
        <time>2021-05-09T07:28:57.000Z</time>
        <extensions>
          <ns3:TrackPointExtension>
            <ns3:atemp>15.0</ns3:atemp>
          </ns3:TrackPointExtension>
        </extensions>
      </trkpt>
      <trkpt lat="43.12857474200427532196044921875" lon="13.03167670033872127532958984375">
        <ele>432.600006103515625</ele>
        <time>2021-05-09T07:29:04.000Z</time>
        <extensions>
          <ns3:TrackPointExtension>
            <ns3:atemp>15.0</ns3:atemp>
          </ns3:TrackPointExtension>
        </extensions>
      </trkpt>
      <trkpt lat="43.12848907895386219024658203125" lon="13.031671755015850067138671875">
        <ele>432.79998779296875</ele>
        <time>2021-05-09T07:29:06.000Z</time>
        <extensions>
          <ns3:TrackPointExtension>
            <ns3:atemp>15.0</ns3:atemp>
          </ns3:TrackPointExtension>
        </extensions>
      </trkpt>
      <trkpt lat="43.12815313227474689483642578125" lon="13.03167452104389667510986328125">
        <ele>433.79998779296875</ele>
        <time>2021-05-09T07:29:14.000Z</time>
        <extensions>
          <ns3:TrackPointExtension>
            <ns3:atemp>16.0</ns3:atemp>
          </ns3:TrackPointExtension>
        </extensions>
      </trkpt>
      <trkpt lat="43.12811071984469890594482421875" lon="13.031676448881626129150390625">
        <ele>434</ele>
        <time>2021-05-09T07:29:15.000Z</time>
        <extensions>
          <ns3:TrackPointExtension>
            <ns3:atemp>16.0</ns3:atemp>
          </ns3:TrackPointExtension>
        </extensions>
      </trkpt>
      <trkpt lat="43.127857334911823272705078125" lon="13.03168524987995624542236328125">
        <ele>434.79998779296875</ele>
        <time>2021-05-09T07:29:21.000Z</time>
        <extensions>
          <ns3:TrackPointExtension>
            <ns3:atemp>16.0</ns3:atemp>
          </ns3:TrackPointExtension>
        </extensions>
      </trkpt>
      <trkpt lat="43.1277341209352016448974609375" lon="13.03167100064456462860107421875">
        <ele>435.20001220703125</ele>
        <time>2021-05-09T07:29:24.000Z</time>
        <extensions>
          <ns3:TrackPointExtension>
            <ns3:atemp>16.0</ns3:atemp>
          </ns3:TrackPointExtension>
        </extensions>
      </trkpt>
      <trkpt lat="43.12769581563770771026611328125" lon="13.03165893070399761199951171875">
        <ele>435.20001220703125</ele>
        <time>2021-05-09T07:29:25.000Z</time>
        <extensions>
          <ns3:TrackPointExtension>
            <ns3:atemp>16.0</ns3:atemp>
          </ns3:TrackPointExtension>
        </extensions>
      </trkpt>
      <trkpt lat="43.1275000981986522674560546875" lon="13.0315569229423999786376953125">
        <ele>436</ele>
        <time>2021-05-09T07:29:30.000Z</time>
        <extensions>
          <ns3:TrackPointExtension>
            <ns3:atemp>16.0</ns3:atemp>
          </ns3:TrackPointExtension>
        </extensions>
      </trkpt>
      <trkpt lat="43.12742340378463268280029296875" lon="13.0315123312175273895263671875">
        <ele>436.399993896484375</ele>
        <time>2021-05-09T07:29:32.000Z</time>
        <extensions>
          <ns3:TrackPointExtension>
            <ns3:atemp>16.0</ns3:atemp>
          </ns3:TrackPointExtension>
        </extensions>
      </trkpt>
      <trkpt lat="43.1273505650460720062255859375" lon="13.0314690805971622467041015625">
        <ele>436.79998779296875</ele>
        <time>2021-05-09T07:29:34.000Z</time>
        <extensions>
          <ns3:TrackPointExtension>
            <ns3:atemp>16.0</ns3:atemp>
          </ns3:TrackPointExtension>
        </extensions>
      </trkpt>
      <trkpt lat="43.1272399239242076873779296875" lon="13.031400181353092193603515625">
        <ele>437</ele>
        <time>2021-05-09T07:29:37.000Z</time>
        <extensions>
          <ns3:TrackPointExtension>
            <ns3:atemp>16.0</ns3:atemp>
          </ns3:TrackPointExtension>
        </extensions>
      </trkpt>
      <trkpt lat="43.1271279416978359222412109375" lon="13.03133639506995677947998046875">
        <ele>437.20001220703125</ele>
        <time>2021-05-09T07:29:40.000Z</time>
        <extensions>
          <ns3:TrackPointExtension>
            <ns3:atemp>16.0</ns3:atemp>
          </ns3:TrackPointExtension>
        </extensions>
      </trkpt>
      <trkpt lat="43.12697329558432102203369140625" lon="13.03124939091503620147705078125">
        <ele>438</ele>
        <time>2021-05-09T07:29:44.000Z</time>
        <extensions>
          <ns3:TrackPointExtension>
            <ns3:atemp>16.0</ns3:atemp>
          </ns3:TrackPointExtension>
        </extensions>
      </trkpt>
      <trkpt lat="43.1269334815442562103271484375" lon="13.03123296238481998443603515625">
        <ele>438.20001220703125</ele>
        <time>2021-05-09T07:29:45.000Z</time>
        <extensions>
          <ns3:TrackPointExtension>
            <ns3:atemp>16.0</ns3:atemp>
          </ns3:TrackPointExtension>
        </extensions>
      </trkpt>
      <trkpt lat="43.12671815045177936553955078125" lon="13.03118987940251827239990234375">
        <ele>438.600006103515625</ele>
        <time>2021-05-09T07:29:50.000Z</time>
        <extensions>
          <ns3:TrackPointExtension>
            <ns3:atemp>16.0</ns3:atemp>
          </ns3:TrackPointExtension>
        </extensions>
      </trkpt>
      <trkpt lat="43.1265911646187305450439453125" lon="13.03118568845093250274658203125">
        <ele>439.20001220703125</ele>
        <time>2021-05-09T07:29:53.000Z</time>
        <extensions>
          <ns3:TrackPointExtension>
            <ns3:atemp>16.0</ns3:atemp>
          </ns3:TrackPointExtension>
        </extensions>
      </trkpt>
      <trkpt lat="43.1265485845506191253662109375" lon="13.0311794020235538482666015625">
        <ele>439.399993896484375</ele>
        <time>2021-05-09T07:29:54.000Z</time>
        <extensions>
          <ns3:TrackPointExtension>
            <ns3:atemp>16.0</ns3:atemp>
          </ns3:TrackPointExtension>
        </extensions>
      </trkpt>
      <trkpt lat="43.12642159871757030487060546875" lon="13.0311663262546062469482421875">
        <ele>439.600006103515625</ele>
        <time>2021-05-09T07:29:57.000Z</time>
        <extensions>
          <ns3:TrackPointExtension>
            <ns3:atemp>16.0</ns3:atemp>
          </ns3:TrackPointExtension>
        </extensions>
      </trkpt>
      <trkpt lat="43.12609001062810420989990234375" lon="13.03114813752472400665283203125">
        <ele>440</ele>
        <time>2021-05-09T07:30:05.000Z</time>
        <extensions>
          <ns3:TrackPointExtension>
            <ns3:atemp>16.0</ns3:atemp>
          </ns3:TrackPointExtension>
        </extensions>
      </trkpt>
      <trkpt lat="43.125739395618438720703125" lon="13.0311089940369129180908203125">
        <ele>440.20001220703125</ele>
        <time>2021-05-09T07:30:13.000Z</time>
        <extensions>
          <ns3:TrackPointExtension>
            <ns3:atemp>16.0</ns3:atemp>
          </ns3:TrackPointExtension>
        </extensions>
      </trkpt>
      <trkpt lat="43.125698156654834747314453125" lon="13.031102456152439117431640625">
        <ele>440.20001220703125</ele>
        <time>2021-05-09T07:30:14.000Z</time>
        <extensions>
          <ns3:TrackPointExtension>
            <ns3:atemp>16.0</ns3:atemp>
          </ns3:TrackPointExtension>
        </extensions>
      </trkpt>
      <trkpt lat="43.12554015778005123138427734375" lon="13.03103095851838588714599609375">
        <ele>440.20001220703125</ele>
        <time>2021-05-09T07:30:18.000Z</time>
        <extensions>
          <ns3:TrackPointExtension>
            <ns3:atemp>16.0</ns3:atemp>
          </ns3:TrackPointExtension>
        </extensions>
      </trkpt>
      <trkpt lat="43.125221394002437591552734375" lon="13.030836917459964752197265625">
        <ele>439.600006103515625</ele>
        <time>2021-05-09T07:30:25.000Z</time>
        <extensions>
          <ns3:TrackPointExtension>
            <ns3:atemp>16.0</ns3:atemp>
          </ns3:TrackPointExtension>
        </extensions>
      </trkpt>
      <trkpt lat="43.124957866966724395751953125" lon="13.030695430934429168701171875">
        <ele>438.600006103515625</ele>
        <time>2021-05-09T07:30:30.000Z</time>
        <extensions>
          <ns3:TrackPointExtension>
            <ns3:atemp>16.0</ns3:atemp>
          </ns3:TrackPointExtension>
        </extensions>
      </trkpt>
      <trkpt lat="43.12490497715771198272705078125" lon="13.0306875519454479217529296875">
        <ele>438.20001220703125</ele>
        <time>2021-05-09T07:30:31.000Z</time>
        <extensions>
          <ns3:TrackPointExtension>
            <ns3:atemp>16.0</ns3:atemp>
          </ns3:TrackPointExtension>
        </extensions>
      </trkpt>
      <trkpt lat="43.12474706210196018218994140625" lon="13.030678331851959228515625">
        <ele>437.399993896484375</ele>
        <time>2021-05-09T07:30:34.000Z</time>
        <extensions>
          <ns3:TrackPointExtension>
            <ns3:atemp>16.0</ns3:atemp>
          </ns3:TrackPointExtension>
        </extensions>
      </trkpt>
      <trkpt lat="43.12466408126056194305419921875" lon="13.0306288786232471466064453125">
        <ele>437.399993896484375</ele>
        <time>2021-05-09T07:30:36.000Z</time>
        <extensions>
          <ns3:TrackPointExtension>
            <ns3:atemp>16.0</ns3:atemp>
          </ns3:TrackPointExtension>
        </extensions>
      </trkpt>
      <trkpt lat="43.1245981156826019287109375" lon="13.0304907448589801788330078125">
        <ele>437.399993896484375</ele>
        <time>2021-05-09T07:30:39.000Z</time>
        <extensions>
          <ns3:TrackPointExtension>
            <ns3:atemp>16.0</ns3:atemp>
          </ns3:TrackPointExtension>
        </extensions>
      </trkpt>
      <trkpt lat="43.1245268695056438446044921875" lon="13.03030508570373058319091796875">
        <ele>437.399993896484375</ele>
        <time>2021-05-09T07:30:44.000Z</time>
        <extensions>
          <ns3:TrackPointExtension>
            <ns3:atemp>16.0</ns3:atemp>
          </ns3:TrackPointExtension>
        </extensions>
      </trkpt>
      <trkpt lat="43.124483115971088409423828125" lon="13.03026099689304828643798828125">
        <ele>437.79998779296875</ele>
        <time>2021-05-09T07:30:46.000Z</time>
        <extensions>
          <ns3:TrackPointExtension>
            <ns3:atemp>16.0</ns3:atemp>
          </ns3:TrackPointExtension>
        </extensions>
      </trkpt>
      <trkpt lat="43.12439619563519954681396484375" lon="13.03018438629806041717529296875">
        <ele>439.399993896484375</ele>
        <time>2021-05-09T07:30:49.000Z</time>
        <extensions>
          <ns3:TrackPointExtension>
            <ns3:atemp>16.0</ns3:atemp>
          </ns3:TrackPointExtension>
        </extensions>
      </trkpt>
      <trkpt lat="43.12433115206658840179443359375" lon="13.03013359196484088897705078125">
        <ele>440.600006103515625</ele>
        <time>2021-05-09T07:30:51.000Z</time>
        <extensions>
          <ns3:TrackPointExtension>
            <ns3:atemp>16.0</ns3:atemp>
          </ns3:TrackPointExtension>
        </extensions>
      </trkpt>
      <trkpt lat="43.124265857040882110595703125" lon="13.03008279763162136077880859375">
        <ele>441.600006103515625</ele>
        <time>2021-05-09T07:30:53.000Z</time>
        <extensions>
          <ns3:TrackPointExtension>
            <ns3:atemp>16.0</ns3:atemp>
          </ns3:TrackPointExtension>
        </extensions>
      </trkpt>
      <trkpt lat="43.12416586093604564666748046875" lon="13.03003636188805103302001953125">
        <ele>442.79998779296875</ele>
        <time>2021-05-09T07:30:56.000Z</time>
        <extensions>
          <ns3:TrackPointExtension>
            <ns3:atemp>16.0</ns3:atemp>
          </ns3:TrackPointExtension>
        </extensions>
      </trkpt>
      <trkpt lat="43.124131746590137481689453125" lon="13.03002479486167430877685546875">
        <ele>443.20001220703125</ele>
        <time>2021-05-09T07:30:57.000Z</time>
        <extensions>
          <ns3:TrackPointExtension>
            <ns3:atemp>16.0</ns3:atemp>
          </ns3:TrackPointExtension>
        </extensions>
      </trkpt>
      <trkpt lat="43.12403409741818904876708984375" lon="13.02999545820057392120361328125">
        <ele>444.20001220703125</ele>
        <time>2021-05-09T07:31:00.000Z</time>
        <extensions>
          <ns3:TrackPointExtension>
            <ns3:atemp>16.0</ns3:atemp>
          </ns3:TrackPointExtension>
        </extensions>
      </trkpt>
      <trkpt lat="43.12390333972871303558349609375" lon="13.029963858425617218017578125">
        <ele>445.399993896484375</ele>
        <time>2021-05-09T07:31:04.000Z</time>
        <extensions>
          <ns3:TrackPointExtension>
            <ns3:atemp>16.0</ns3:atemp>
          </ns3:TrackPointExtension>
        </extensions>
      </trkpt>
      <trkpt lat="43.1238712370395660400390625" lon="13.029952459037303924560546875">
        <ele>445.600006103515625</ele>
        <time>2021-05-09T07:31:05.000Z</time>
        <extensions>
          <ns3:TrackPointExtension>
            <ns3:atemp>16.0</ns3:atemp>
          </ns3:TrackPointExtension>
        </extensions>
      </trkpt>
      <trkpt lat="43.12373134307563304901123046875" lon="13.02989353425800800323486328125">
        <ele>446.399993896484375</ele>
        <time>2021-05-09T07:31:10.000Z</time>
        <extensions>
          <ns3:TrackPointExtension>
            <ns3:atemp>16.0</ns3:atemp>
          </ns3:TrackPointExtension>
        </extensions>
      </trkpt>
      <trkpt lat="43.1236967258155345916748046875" lon="13.02983636967837810516357421875">
        <ele>447</ele>
        <time>2021-05-09T07:31:12.000Z</time>
        <extensions>
          <ns3:TrackPointExtension>
            <ns3:atemp>16.0</ns3:atemp>
          </ns3:TrackPointExtension>
        </extensions>
      </trkpt>
      <trkpt lat="43.1236688978970050811767578125" lon="13.0297677218914031982421875">
        <ele>447.600006103515625</ele>
        <time>2021-05-09T07:31:14.000Z</time>
        <extensions>
          <ns3:TrackPointExtension>
            <ns3:atemp>16.0</ns3:atemp>
          </ns3:TrackPointExtension>
        </extensions>
      </trkpt>
      <trkpt lat="43.12365054152905941009521484375" lon="13.0296492017805576324462890625">
        <ele>448.600006103515625</ele>
        <time>2021-05-09T07:31:17.000Z</time>
        <extensions>
          <ns3:TrackPointExtension>
            <ns3:atemp>16.0</ns3:atemp>
          </ns3:TrackPointExtension>
        </extensions>
      </trkpt>
      <trkpt lat="43.123646937310695648193359375" lon="13.02960854955017566680908203125">
        <ele>449</ele>
        <time>2021-05-09T07:31:18.000Z</time>
        <extensions>
          <ns3:TrackPointExtension>
            <ns3:atemp>16.0</ns3:atemp>
          </ns3:TrackPointExtension>
        </extensions>
      </trkpt>
      <trkpt lat="43.12364316545426845550537109375" lon="13.02952623926103115081787109375">
        <ele>449.79998779296875</ele>
        <time>2021-05-09T07:31:20.000Z</time>
        <extensions>
          <ns3:TrackPointExtension>
            <ns3:atemp>16.0</ns3:atemp>
          </ns3:TrackPointExtension>
        </extensions>
      </trkpt>
      <trkpt lat="43.12359605915844440460205078125" lon="13.02923865616321563720703125">
        <ele>450.79998779296875</ele>
        <time>2021-05-09T07:31:26.000Z</time>
        <extensions>
          <ns3:TrackPointExtension>
            <ns3:atemp>16.0</ns3:atemp>
          </ns3:TrackPointExtension>
        </extensions>
      </trkpt>
      <trkpt lat="43.123476617038249969482421875" lon="13.028991222381591796875">
        <ele>450.79998779296875</ele>
        <time>2021-05-09T07:31:32.000Z</time>
        <extensions>
          <ns3:TrackPointExtension>
            <ns3:atemp>16.0</ns3:atemp>
          </ns3:TrackPointExtension>
        </extensions>
      </trkpt>
      <trkpt lat="43.123341500759124755859375" lon="13.028713278472423553466796875">
        <ele>450.600006103515625</ele>
        <time>2021-05-09T07:31:39.000Z</time>
        <extensions>
          <ns3:TrackPointExtension>
            <ns3:atemp>16.0</ns3:atemp>
          </ns3:TrackPointExtension>
        </extensions>
      </trkpt>
      <trkpt lat="43.123234547674655914306640625" lon="13.02838797681033611297607421875">
        <ele>450.399993896484375</ele>
        <time>2021-05-09T07:31:46.000Z</time>
        <extensions>
          <ns3:TrackPointExtension>
            <ns3:atemp>16.0</ns3:atemp>
          </ns3:TrackPointExtension>
        </extensions>
      </trkpt>
      <trkpt lat="43.1231052987277507781982421875" lon="13.0280351825058460235595703125">
        <ele>450.20001220703125</ele>
        <time>2021-05-09T07:31:52.000Z</time>
        <extensions>
          <ns3:TrackPointExtension>
            <ns3:atemp>16.0</ns3:atemp>
          </ns3:TrackPointExtension>
        </extensions>
      </trkpt>
      <trkpt lat="43.12298409640789031982421875" lon="13.0277381278574466705322265625">
        <ele>449.399993896484375</ele>
        <time>2021-05-09T07:31:56.000Z</time>
        <extensions>
          <ns3:TrackPointExtension>
            <ns3:atemp>16.0</ns3:atemp>
          </ns3:TrackPointExtension>
        </extensions>
      </trkpt>
      <trkpt lat="43.12296289019286632537841796875" lon="13.02766294218599796295166015625">
        <ele>449</ele>
        <time>2021-05-09T07:31:57.000Z</time>
        <extensions>
          <ns3:TrackPointExtension>
            <ns3:atemp>16.0</ns3:atemp>
          </ns3:TrackPointExtension>
        </extensions>
      </trkpt>
      <trkpt lat="43.12294176779687404632568359375" lon="13.02758633159101009368896484375">
        <ele>448.399993896484375</ele>
        <time>2021-05-09T07:31:58.000Z</time>
        <extensions>
          <ns3:TrackPointExtension>
            <ns3:atemp>16.0</ns3:atemp>
          </ns3:TrackPointExtension>
        </extensions>
      </trkpt>
      <trkpt lat="43.1228457950055599212646484375" lon="13.02727938629686832427978515625">
        <ele>447.600006103515625</ele>
        <time>2021-05-09T07:32:03.000Z</time>
        <extensions>
          <ns3:TrackPointExtension>
            <ns3:atemp>16.0</ns3:atemp>
          </ns3:TrackPointExtension>
        </extensions>
      </trkpt>
      <trkpt lat="43.1227556057274341583251953125" lon="13.02695634774863719940185546875">
        <ele>448.20001220703125</ele>
        <time>2021-05-09T07:32:10.000Z</time>
        <extensions>
          <ns3:TrackPointExtension>
            <ns3:atemp>16.0</ns3:atemp>
          </ns3:TrackPointExtension>
        </extensions>
      </trkpt>
      <trkpt lat="43.1226882152259349822998046875" lon="13.02672634832561016082763671875">
        <ele>449.79998779296875</ele>
        <time>2021-05-09T07:32:15.000Z</time>
        <extensions>
          <ns3:TrackPointExtension>
            <ns3:atemp>16.0</ns3:atemp>
          </ns3:TrackPointExtension>
        </extensions>
      </trkpt>
      <trkpt lat="43.12266047112643718719482421875" lon="13.02663850598037242889404296875">
        <ele>450.600006103515625</ele>
        <time>2021-05-09T07:32:17.000Z</time>
        <extensions>
          <ns3:TrackPointExtension>
            <ns3:atemp>16.0</ns3:atemp>
          </ns3:TrackPointExtension>
        </extensions>
      </trkpt>
      <trkpt lat="43.12264789827167987823486328125" lon="13.0265955068171024322509765625">
        <ele>451</ele>
        <time>2021-05-09T07:32:18.000Z</time>
        <extensions>
          <ns3:TrackPointExtension>
            <ns3:atemp>16.0</ns3:atemp>
          </ns3:TrackPointExtension>
        </extensions>
      </trkpt>
      <trkpt lat="43.1226084195077419281005859375" lon="13.0264630727469921112060546875">
        <ele>452</ele>
        <time>2021-05-09T07:32:21.000Z</time>
        <extensions>
          <ns3:TrackPointExtension>
            <ns3:atemp>16.0</ns3:atemp>
          </ns3:TrackPointExtension>
        </extensions>
      </trkpt>
      <trkpt lat="43.1225671805441379547119140625" lon="13.026334159076213836669921875">
        <ele>453.20001220703125</ele>
        <time>2021-05-09T07:32:24.000Z</time>
        <extensions>
          <ns3:TrackPointExtension>
            <ns3:atemp>16.0</ns3:atemp>
          </ns3:TrackPointExtension>
        </extensions>
      </trkpt>
      <trkpt lat="43.12255284748971462249755859375" lon="13.0262904055416584014892578125">
        <ele>453.600006103515625</ele>
        <time>2021-05-09T07:32:25.000Z</time>
        <extensions>
          <ns3:TrackPointExtension>
            <ns3:atemp>16.0</ns3:atemp>
          </ns3:TrackPointExtension>
        </extensions>
      </trkpt>
      <trkpt lat="43.122525773942470550537109375" lon="13.0262028984725475311279296875">
        <ele>454.399993896484375</ele>
        <time>2021-05-09T07:32:27.000Z</time>
        <extensions>
          <ns3:TrackPointExtension>
            <ns3:atemp>16.0</ns3:atemp>
          </ns3:TrackPointExtension>
        </extensions>
      </trkpt>
      <trkpt lat="43.1224843673408031463623046875" lon="13.0260805226862430572509765625">
        <ele>455.399993896484375</ele>
        <time>2021-05-09T07:32:30.000Z</time>
        <extensions>
          <ns3:TrackPointExtension>
            <ns3:atemp>16.0</ns3:atemp>
          </ns3:TrackPointExtension>
        </extensions>
      </trkpt>
      <trkpt lat="43.1224451400339603424072265625" lon="13.02595538087189197540283203125">
        <ele>456.600006103515625</ele>
        <time>2021-05-09T07:32:33.000Z</time>
        <extensions>
          <ns3:TrackPointExtension>
            <ns3:atemp>16.0</ns3:atemp>
          </ns3:TrackPointExtension>
        </extensions>
      </trkpt>
      <trkpt lat="43.1224330700933933258056640625" lon="13.0259152315557003021240234375">
        <ele>457</ele>
        <time>2021-05-09T07:32:34.000Z</time>
        <extensions>
          <ns3:TrackPointExtension>
            <ns3:atemp>15.0</ns3:atemp>
          </ns3:TrackPointExtension>
        </extensions>
      </trkpt>
      <trkpt lat="43.12240951694548130035400390625" lon="13.0258377827703952789306640625">
        <ele>457.600006103515625</ele>
        <time>2021-05-09T07:32:36.000Z</time>
        <extensions>
          <ns3:TrackPointExtension>
            <ns3:atemp>15.0</ns3:atemp>
          </ns3:TrackPointExtension>
        </extensions>
      </trkpt>
      <trkpt lat="43.1223852932453155517578125" lon="13.0257599987089633941650390625">
        <ele>458.79998779296875</ele>
        <time>2021-05-09T07:32:38.000Z</time>
        <extensions>
          <ns3:TrackPointExtension>
            <ns3:atemp>15.0</ns3:atemp>
          </ns3:TrackPointExtension>
        </extensions>
      </trkpt>
      <trkpt lat="43.122347407042980194091796875" lon="13.02564491517841815948486328125">
        <ele>459.79998779296875</ele>
        <time>2021-05-09T07:32:41.000Z</time>
        <extensions>
          <ns3:TrackPointExtension>
            <ns3:atemp>15.0</ns3:atemp>
          </ns3:TrackPointExtension>
        </extensions>
      </trkpt>
      <trkpt lat="43.12231144867837429046630859375" lon="13.025533854961395263671875">
        <ele>460.600006103515625</ele>
        <time>2021-05-09T07:32:44.000Z</time>
        <extensions>
          <ns3:TrackPointExtension>
            <ns3:atemp>15.0</ns3:atemp>
          </ns3:TrackPointExtension>
        </extensions>
      </trkpt>
      <trkpt lat="43.122299797832965850830078125" lon="13.02549689076840877532958984375">
        <ele>461</ele>
        <time>2021-05-09T07:32:45.000Z</time>
        <extensions>
          <ns3:TrackPointExtension>
            <ns3:atemp>15.0</ns3:atemp>
          </ns3:TrackPointExtension>
        </extensions>
      </trkpt>
      <trkpt lat="43.1222538650035858154296875" lon="13.02535121329128742218017578125">
        <ele>462.20001220703125</ele>
        <time>2021-05-09T07:32:49.000Z</time>
        <extensions>
          <ns3:TrackPointExtension>
            <ns3:atemp>15.0</ns3:atemp>
          </ns3:TrackPointExtension>
        </extensions>
      </trkpt>
      <trkpt lat="43.12221924774348735809326171875" lon="13.0252450145781040191650390625">
        <ele>463.399993896484375</ele>
        <time>2021-05-09T07:32:52.000Z</time>
        <extensions>
          <ns3:TrackPointExtension>
            <ns3:atemp>15.0</ns3:atemp>
          </ns3:TrackPointExtension>
        </extensions>
      </trkpt>
      <trkpt lat="43.1221953593194484710693359375" lon="13.02517569623887538909912109375">
        <ele>464</ele>
        <time>2021-05-09T07:32:54.000Z</time>
        <extensions>
          <ns3:TrackPointExtension>
            <ns3:atemp>15.0</ns3:atemp>
          </ns3:TrackPointExtension>
        </extensions>
      </trkpt>
      <trkpt lat="43.1221728958189487457275390625" lon="13.02510780282318592071533203125">
        <ele>464.600006103515625</ele>
        <time>2021-05-09T07:32:56.000Z</time>
        <extensions>
          <ns3:TrackPointExtension>
            <ns3:atemp>15.0</ns3:atemp>
          </ns3:TrackPointExtension>
        </extensions>
      </trkpt>
      <trkpt lat="43.1221333332359790802001953125" lon="13.02497033961117267608642578125">
        <ele>465.79998779296875</ele>
        <time>2021-05-09T07:33:00.000Z</time>
        <extensions>
          <ns3:TrackPointExtension>
            <ns3:atemp>15.0</ns3:atemp>
          </ns3:TrackPointExtension>
        </extensions>
      </trkpt>
      <trkpt lat="43.1220897473394870758056640625" lon="13.02483472041785717010498046875">
        <ele>467</ele>
        <time>2021-05-09T07:33:04.000Z</time>
        <extensions>
          <ns3:TrackPointExtension>
            <ns3:atemp>15.0</ns3:atemp>
          </ns3:TrackPointExtension>
        </extensions>
      </trkpt>
      <trkpt lat="43.12205747701227664947509765625" lon="13.0247317068278789520263671875">
        <ele>468</ele>
        <time>2021-05-09T07:33:07.000Z</time>
        <extensions>
          <ns3:TrackPointExtension>
            <ns3:atemp>15.0</ns3:atemp>
          </ns3:TrackPointExtension>
        </extensions>
      </trkpt>
      <trkpt lat="43.1220116280019283294677734375" lon="13.02459885366261005401611328125">
        <ele>469</ele>
        <time>2021-05-09T07:33:11.000Z</time>
        <extensions>
          <ns3:TrackPointExtension>
            <ns3:atemp>15.0</ns3:atemp>
          </ns3:TrackPointExtension>
        </extensions>
      </trkpt>
      <trkpt lat="43.12197625637054443359375" lon="13.024502210319042205810546875">
        <ele>470</ele>
        <time>2021-05-09T07:33:14.000Z</time>
        <extensions>
          <ns3:TrackPointExtension>
            <ns3:atemp>15.0</ns3:atemp>
          </ns3:TrackPointExtension>
        </extensions>
      </trkpt>
      <trkpt lat="43.12196628190577030181884765625" lon="13.02446876652538776397705078125">
        <ele>470.20001220703125</ele>
        <time>2021-05-09T07:33:15.000Z</time>
        <extensions>
          <ns3:TrackPointExtension>
            <ns3:atemp>15.0</ns3:atemp>
          </ns3:TrackPointExtension>
        </extensions>
      </trkpt>
      <trkpt lat="43.12192998826503753662109375" lon="13.024337254464626312255859375">
        <ele>471.399993896484375</ele>
        <time>2021-05-09T07:33:19.000Z</time>
        <extensions>
          <ns3:TrackPointExtension>
            <ns3:atemp>15.0</ns3:atemp>
          </ns3:TrackPointExtension>
        </extensions>
      </trkpt>
      <trkpt lat="43.1218983046710491180419921875" lon="13.024241030216217041015625">
        <ele>472.600006103515625</ele>
        <time>2021-05-09T07:33:22.000Z</time>
        <extensions>
          <ns3:TrackPointExtension>
            <ns3:atemp>15.0</ns3:atemp>
          </ns3:TrackPointExtension>
        </extensions>
      </trkpt>
      <trkpt lat="43.12187768518924713134765625" lon="13.024176657199859619140625">
        <ele>473.20001220703125</ele>
        <time>2021-05-09T07:33:24.000Z</time>
        <extensions>
          <ns3:TrackPointExtension>
            <ns3:atemp>15.0</ns3:atemp>
          </ns3:TrackPointExtension>
        </extensions>
      </trkpt>
      <trkpt lat="43.12185480259358882904052734375" lon="13.0241137929260730743408203125">
        <ele>473.79998779296875</ele>
        <time>2021-05-09T07:33:26.000Z</time>
        <extensions>
          <ns3:TrackPointExtension>
            <ns3:atemp>15.0</ns3:atemp>
          </ns3:TrackPointExtension>
        </extensions>
      </trkpt>
      <trkpt lat="43.121816329658031463623046875" lon="13.02398278377950191497802734375">
        <ele>475</ele>
        <time>2021-05-09T07:33:30.000Z</time>
        <extensions>
          <ns3:TrackPointExtension>
            <ns3:atemp>15.0</ns3:atemp>
          </ns3:TrackPointExtension>
        </extensions>
      </trkpt>
      <trkpt lat="43.121793530881404876708984375" lon="13.02388102747499942779541015625">
        <ele>475.79998779296875</ele>
        <time>2021-05-09T07:33:33.000Z</time>
        <extensions>
          <ns3:TrackPointExtension>
            <ns3:atemp>15.0</ns3:atemp>
          </ns3:TrackPointExtension>
        </extensions>
      </trkpt>
      <trkpt lat="43.12178757973015308380126953125" lon="13.0238472484052181243896484375">
        <ele>476.20001220703125</ele>
        <time>2021-05-09T07:33:34.000Z</time>
        <extensions>
          <ns3:TrackPointExtension>
            <ns3:atemp>15.0</ns3:atemp>
          </ns3:TrackPointExtension>
        </extensions>
      </trkpt>
      <trkpt lat="43.1217712350189685821533203125" lon="13.02375647239387035369873046875">
        <ele>477.20001220703125</ele>
        <time>2021-05-09T07:33:37.000Z</time>
        <extensions>
          <ns3:TrackPointExtension>
            <ns3:atemp>15.0</ns3:atemp>
          </ns3:TrackPointExtension>
        </extensions>
      </trkpt>
      <trkpt lat="43.121765367686748504638671875" lon="13.02367064170539379119873046875">
        <ele>477.79998779296875</ele>
        <time>2021-05-09T07:33:40.000Z</time>
        <extensions>
          <ns3:TrackPointExtension>
            <ns3:atemp>15.0</ns3:atemp>
          </ns3:TrackPointExtension>
        </extensions>
      </trkpt>
      <trkpt lat="43.12176913954317569732666015625" lon="13.02361381240189075469970703125">
        <ele>478.399993896484375</ele>
        <time>2021-05-09T07:33:42.000Z</time>
        <extensions>
          <ns3:TrackPointExtension>
            <ns3:atemp>15.0</ns3:atemp>
          </ns3:TrackPointExtension>
        </extensions>
      </trkpt>
      <trkpt lat="43.1217853166162967681884765625" lon="13.0234995670616626739501953125">
        <ele>479.399993896484375</ele>
        <time>2021-05-09T07:33:46.000Z</time>
        <extensions>
          <ns3:TrackPointExtension>
            <ns3:atemp>15.0</ns3:atemp>
          </ns3:TrackPointExtension>
        </extensions>
      </trkpt>
      <trkpt lat="43.12180216424167156219482421875" lon="13.02338196896016597747802734375">
        <ele>480.399993896484375</ele>
        <time>2021-05-09T07:33:50.000Z</time>
        <extensions>
          <ns3:TrackPointExtension>
            <ns3:atemp>15.0</ns3:atemp>
          </ns3:TrackPointExtension>
        </extensions>
      </trkpt>
      <trkpt lat="43.12182060442864894866943359375" lon="13.02324794232845306396484375">
        <ele>481.20001220703125</ele>
        <time>2021-05-09T07:33:54.000Z</time>
        <extensions>
          <ns3:TrackPointExtension>
            <ns3:atemp>15.0</ns3:atemp>
          </ns3:TrackPointExtension>
        </extensions>
      </trkpt>
      <trkpt lat="43.12182940542697906494140625" lon="13.02317954599857330322265625">
        <ele>481.600006103515625</ele>
        <time>2021-05-09T07:33:56.000Z</time>
        <extensions>
          <ns3:TrackPointExtension>
            <ns3:atemp>15.0</ns3:atemp>
          </ns3:TrackPointExtension>
        </extensions>
      </trkpt>
      <trkpt lat="43.12185530550777912139892578125" lon="13.02305524237453937530517578125">
        <ele>482.600006103515625</ele>
        <time>2021-05-09T07:34:00.000Z</time>
        <extensions>
          <ns3:TrackPointExtension>
            <ns3:atemp>15.0</ns3:atemp>
          </ns3:TrackPointExtension>
        </extensions>
      </trkpt>
      <trkpt lat="43.1218624301254749298095703125" lon="13.0230264924466609954833984375">
        <ele>482.79998779296875</ele>
        <time>2021-05-09T07:34:01.000Z</time>
        <extensions>
          <ns3:TrackPointExtension>
            <ns3:atemp>15.0</ns3:atemp>
          </ns3:TrackPointExtension>
        </extensions>
      </trkpt>
      <trkpt lat="43.1219160743057727813720703125" lon="13.02291627041995525360107421875">
        <ele>484</ele>
        <time>2021-05-09T07:34:05.000Z</time>
        <extensions>
          <ns3:TrackPointExtension>
            <ns3:atemp>15.0</ns3:atemp>
          </ns3:TrackPointExtension>
        </extensions>
      </trkpt>
      <trkpt lat="43.12193811871111392974853515625" lon="13.02289883606135845184326171875">
        <ele>484.20001220703125</ele>
        <time>2021-05-09T07:34:06.000Z</time>
        <extensions>
          <ns3:TrackPointExtension>
            <ns3:atemp>15.0</ns3:atemp>
          </ns3:TrackPointExtension>
        </extensions>
      </trkpt>
      <trkpt lat="43.1220461614429950714111328125" lon="13.02291275002062320709228515625">
        <ele>485.20001220703125</ele>
        <time>2021-05-09T07:34:10.000Z</time>
        <extensions>
          <ns3:TrackPointExtension>
            <ns3:atemp>15.0</ns3:atemp>
          </ns3:TrackPointExtension>
        </extensions>
      </trkpt>
      <trkpt lat="43.1221326626837253570556640625" lon="13.0230246484279632568359375">
        <ele>486.20001220703125</ele>
        <time>2021-05-09T07:34:14.000Z</time>
        <extensions>
          <ns3:TrackPointExtension>
            <ns3:atemp>15.0</ns3:atemp>
          </ns3:TrackPointExtension>
        </extensions>
      </trkpt>
      <trkpt lat="43.122167699038982391357421875" lon="13.023095391690731048583984375">
        <ele>486.600006103515625</ele>
        <time>2021-05-09T07:34:16.000Z</time>
        <extensions>
          <ns3:TrackPointExtension>
            <ns3:atemp>15.0</ns3:atemp>
          </ns3:TrackPointExtension>
        </extensions>
      </trkpt>
      <trkpt lat="43.12222226522862911224365234375" lon="13.0231958068907260894775390625">
        <ele>487.399993896484375</ele>
        <time>2021-05-09T07:34:19.000Z</time>
        <extensions>
          <ns3:TrackPointExtension>
            <ns3:atemp>15.0</ns3:atemp>
          </ns3:TrackPointExtension>
        </extensions>
      </trkpt>
      <trkpt lat="43.12233055941760540008544921875" lon="13.02332279272377490997314453125">
        <ele>487.79998779296875</ele>
        <time>2021-05-09T07:34:24.000Z</time>
        <extensions>
          <ns3:TrackPointExtension>
            <ns3:atemp>15.0</ns3:atemp>
          </ns3:TrackPointExtension>
        </extensions>
      </trkpt>
      <trkpt lat="43.122464083135128021240234375" lon="13.02341130562126636505126953125">
        <ele>488.399993896484375</ele>
        <time>2021-05-09T07:34:29.000Z</time>
        <extensions>
          <ns3:TrackPointExtension>
            <ns3:atemp>15.0</ns3:atemp>
          </ns3:TrackPointExtension>
        </extensions>
      </trkpt>
      <trkpt lat="43.12255133874714374542236328125" lon="13.0234449170529842376708984375">
        <ele>488.399993896484375</ele>
        <time>2021-05-09T07:34:32.000Z</time>
        <extensions>
          <ns3:TrackPointExtension>
            <ns3:atemp>15.0</ns3:atemp>
          </ns3:TrackPointExtension>
        </extensions>
      </trkpt>
      <trkpt lat="43.1226412765681743621826171875" lon="13.02346662618219852447509765625">
        <ele>489.20001220703125</ele>
        <time>2021-05-09T07:34:35.000Z</time>
        <extensions>
          <ns3:TrackPointExtension>
            <ns3:atemp>15.0</ns3:atemp>
          </ns3:TrackPointExtension>
        </extensions>
      </trkpt>
      <trkpt lat="43.12278636731207370758056640625" lon="13.02348406054079532623291015625">
        <ele>489.79998779296875</ele>
        <time>2021-05-09T07:34:40.000Z</time>
        <extensions>
          <ns3:TrackPointExtension>
            <ns3:atemp>15.0</ns3:atemp>
          </ns3:TrackPointExtension>
        </extensions>
      </trkpt>
      <trkpt lat="43.12284596264362335205078125" lon="13.02348875440657138824462890625">
        <ele>490.20001220703125</ele>
        <time>2021-05-09T07:34:42.000Z</time>
        <extensions>
          <ns3:TrackPointExtension>
            <ns3:atemp>15.0</ns3:atemp>
          </ns3:TrackPointExtension>
        </extensions>
      </trkpt>
      <trkpt lat="43.12301225960254669189453125" lon="13.0234928615391254425048828125">
        <ele>491.399993896484375</ele>
        <time>2021-05-09T07:34:48.000Z</time>
        <extensions>
          <ns3:TrackPointExtension>
            <ns3:atemp>15.0</ns3:atemp>
          </ns3:TrackPointExtension>
        </extensions>
      </trkpt>
      <trkpt lat="43.12312365509569644927978515625" lon="13.02346528507769107818603515625">
        <ele>492.399993896484375</ele>
        <time>2021-05-09T07:34:52.000Z</time>
        <extensions>
          <ns3:TrackPointExtension>
            <ns3:atemp>15.0</ns3:atemp>
          </ns3:TrackPointExtension>
        </extensions>
      </trkpt>
      <trkpt lat="43.12320345081388950347900390625" lon="13.023421280086040496826171875">
        <ele>493.399993896484375</ele>
        <time>2021-05-09T07:34:55.000Z</time>
        <extensions>
          <ns3:TrackPointExtension>
            <ns3:atemp>15.0</ns3:atemp>
          </ns3:TrackPointExtension>
        </extensions>
      </trkpt>
      <trkpt lat="43.1232283450663089752197265625" lon="13.0234028398990631103515625">
        <ele>493.79998779296875</ele>
        <time>2021-05-09T07:34:56.000Z</time>
        <extensions>
          <ns3:TrackPointExtension>
            <ns3:atemp>15.0</ns3:atemp>
          </ns3:TrackPointExtension>
        </extensions>
      </trkpt>
      <trkpt lat="43.12332968227565288543701171875" lon="13.02332530729472637176513671875">
        <ele>494.79998779296875</ele>
        <time>2021-05-09T07:35:00.000Z</time>
        <extensions>
          <ns3:TrackPointExtension>
            <ns3:atemp>15.0</ns3:atemp>
          </ns3:TrackPointExtension>
        </extensions>
      </trkpt>
      <trkpt lat="43.1234221346676349639892578125" lon="13.02323394455015659332275390625">
        <ele>496</ele>
        <time>2021-05-09T07:35:04.000Z</time>
        <extensions>
          <ns3:TrackPointExtension>
            <ns3:atemp>15.0</ns3:atemp>
          </ns3:TrackPointExtension>
        </extensions>
      </trkpt>
      <trkpt lat="43.12346513383090496063232421875" lon="13.02318382076919078826904296875">
        <ele>496.600006103515625</ele>
        <time>2021-05-09T07:35:06.000Z</time>
        <extensions>
          <ns3:TrackPointExtension>
            <ns3:atemp>15.0</ns3:atemp>
          </ns3:TrackPointExtension>
        </extensions>
      </trkpt>
      <trkpt lat="43.12353638000786304473876953125" lon="13.023110143840312957763671875">
        <ele>497.20001220703125</ele>
        <time>2021-05-09T07:35:09.000Z</time>
        <extensions>
          <ns3:TrackPointExtension>
            <ns3:atemp>15.0</ns3:atemp>
          </ns3:TrackPointExtension>
        </extensions>
      </trkpt>
      <trkpt lat="43.12362438999116420745849609375" lon="13.02300998009741306304931640625">
        <ele>498.20001220703125</ele>
        <time>2021-05-09T07:35:13.000Z</time>
        <extensions>
          <ns3:TrackPointExtension>
            <ns3:atemp>15.0</ns3:atemp>
          </ns3:TrackPointExtension>
        </extensions>
      </trkpt>
      <trkpt lat="43.12364702112972736358642578125" lon="13.02298508584499359130859375">
        <ele>498.399993896484375</ele>
        <time>2021-05-09T07:35:14.000Z</time>
        <extensions>
          <ns3:TrackPointExtension>
            <ns3:atemp>15.0</ns3:atemp>
          </ns3:TrackPointExtension>
        </extensions>
      </trkpt>
      <trkpt lat="43.123744167387485504150390625" lon="13.022890873253345489501953125">
        <ele>499.399993896484375</ele>
        <time>2021-05-09T07:35:18.000Z</time>
        <extensions>
          <ns3:TrackPointExtension>
            <ns3:atemp>15.0</ns3:atemp>
          </ns3:TrackPointExtension>
        </extensions>
      </trkpt>
      <trkpt lat="43.1238422356545925140380859375" lon="13.02278953604400157928466796875">
        <ele>500.20001220703125</ele>
        <time>2021-05-09T07:35:22.000Z</time>
        <extensions>
          <ns3:TrackPointExtension>
            <ns3:atemp>15.0</ns3:atemp>
          </ns3:TrackPointExtension>
        </extensions>
      </trkpt>
      <trkpt lat="43.12389311380684375762939453125" lon="13.02274494431912899017333984375">
        <ele>500.600006103515625</ele>
        <time>2021-05-09T07:35:24.000Z</time>
        <extensions>
          <ns3:TrackPointExtension>
            <ns3:atemp>15.0</ns3:atemp>
          </ns3:TrackPointExtension>
        </extensions>
      </trkpt>
      <trkpt lat="43.12401532195508480072021484375" lon="13.0226224847137928009033203125">
        <ele>501.600006103515625</ele>
        <time>2021-05-09T07:35:29.000Z</time>
        <extensions>
          <ns3:TrackPointExtension>
            <ns3:atemp>15.0</ns3:atemp>
          </ns3:TrackPointExtension>
        </extensions>
      </trkpt>
      <trkpt lat="43.12408053316175937652587890625" lon="13.02254998125135898590087890625">
        <ele>502.79998779296875</ele>
        <time>2021-05-09T07:35:32.000Z</time>
        <extensions>
          <ns3:TrackPointExtension>
            <ns3:atemp>15.0</ns3:atemp>
          </ns3:TrackPointExtension>
        </extensions>
      </trkpt>
      <trkpt lat="43.12414993532001972198486328125" lon="13.022483177483081817626953125">
        <ele>504</ele>
        <time>2021-05-09T07:35:35.000Z</time>
        <extensions>
          <ns3:TrackPointExtension>
            <ns3:atemp>15.0</ns3:atemp>
          </ns3:TrackPointExtension>
        </extensions>
      </trkpt>
      <trkpt lat="43.12421950511634349822998046875" lon="13.02241302095353603363037109375">
        <ele>505</ele>
        <time>2021-05-09T07:35:38.000Z</time>
        <extensions>
          <ns3:TrackPointExtension>
            <ns3:atemp>15.0</ns3:atemp>
          </ns3:TrackPointExtension>
        </extensions>
      </trkpt>
      <trkpt lat="43.12430282123386859893798828125" lon="13.02231319248676300048828125">
        <ele>506.20001220703125</ele>
        <time>2021-05-09T07:35:42.000Z</time>
        <extensions>
          <ns3:TrackPointExtension>
            <ns3:atemp>15.0</ns3:atemp>
          </ns3:TrackPointExtension>
        </extensions>
      </trkpt>
      <trkpt lat="43.1243619136512279510498046875" lon="13.022241778671741485595703125">
        <ele>507.20001220703125</ele>
        <time>2021-05-09T07:35:45.000Z</time>
        <extensions>
          <ns3:TrackPointExtension>
            <ns3:atemp>15.0</ns3:atemp>
          </ns3:TrackPointExtension>
        </extensions>
      </trkpt>
      <trkpt lat="43.1244236044585704803466796875" lon="13.022128455340862274169921875">
        <ele>508.399993896484375</ele>
        <time>2021-05-09T07:35:49.000Z</time>
        <extensions>
          <ns3:TrackPointExtension>
            <ns3:atemp>15.0</ns3:atemp>
          </ns3:TrackPointExtension>
        </extensions>
      </trkpt>
      <trkpt lat="43.12445889227092266082763671875" lon="13.02203021943569183349609375">
        <ele>509.399993896484375</ele>
        <time>2021-05-09T07:35:52.000Z</time>
        <extensions>
          <ns3:TrackPointExtension>
            <ns3:atemp>15.0</ns3:atemp>
          </ns3:TrackPointExtension>
        </extensions>
      </trkpt>
      <trkpt lat="43.124466352164745330810546875" lon="13.02199543453752994537353515625">
        <ele>509.79998779296875</ele>
        <time>2021-05-09T07:35:53.000Z</time>
        <extensions>
          <ns3:TrackPointExtension>
            <ns3:atemp>15.0</ns3:atemp>
          </ns3:TrackPointExtension>
        </extensions>
      </trkpt>
      <trkpt lat="43.12448571436107158660888671875" lon="13.0218889005482196807861328125">
        <ele>510.600006103515625</ele>
        <time>2021-05-09T07:35:56.000Z</time>
        <extensions>
          <ns3:TrackPointExtension>
            <ns3:atemp>15.0</ns3:atemp>
          </ns3:TrackPointExtension>
        </extensions>
      </trkpt>
      <trkpt lat="43.1244883127510547637939453125" lon="13.0217437259852886199951171875">
        <ele>512</ele>
        <time>2021-05-09T07:36:00.000Z</time>
        <extensions>
          <ns3:TrackPointExtension>
            <ns3:atemp>15.0</ns3:atemp>
          </ns3:TrackPointExtension>
        </extensions>
      </trkpt>
      <trkpt lat="43.124475739896297454833984375" lon="13.0216699652373790740966796875">
        <ele>513.20001220703125</ele>
        <time>2021-05-09T07:36:02.000Z</time>
        <extensions>
          <ns3:TrackPointExtension>
            <ns3:atemp>15.0</ns3:atemp>
          </ns3:TrackPointExtension>
        </extensions>
      </trkpt>
      <trkpt lat="43.12445436604321002960205078125" lon="13.0215197615325450897216796875">
        <ele>514.4000244140625</ele>
        <time>2021-05-09T07:36:06.000Z</time>
        <extensions>
          <ns3:TrackPointExtension>
            <ns3:atemp>15.0</ns3:atemp>
          </ns3:TrackPointExtension>
        </extensions>
      </trkpt>
      <trkpt lat="43.12442871741950511932373046875" lon="13.02133410237729549407958984375">
        <ele>515.5999755859375</ele>
        <time>2021-05-09T07:36:11.000Z</time>
        <extensions>
          <ns3:TrackPointExtension>
            <ns3:atemp>15.0</ns3:atemp>
          </ns3:TrackPointExtension>
        </extensions>
      </trkpt>
      <trkpt lat="43.12440273351967334747314453125" lon="13.0211533047258853912353515625">
        <ele>516.79998779296875</ele>
        <time>2021-05-09T07:36:16.000Z</time>
        <extensions>
          <ns3:TrackPointExtension>
            <ns3:atemp>15.0</ns3:atemp>
          </ns3:TrackPointExtension>
        </extensions>
      </trkpt>
      <trkpt lat="43.1243840418756008148193359375" lon="13.02103780210018157958984375">
        <ele>517.79998779296875</ele>
        <time>2021-05-09T07:36:19.000Z</time>
        <extensions>
          <ns3:TrackPointExtension>
            <ns3:atemp>15.0</ns3:atemp>
          </ns3:TrackPointExtension>
        </extensions>
      </trkpt>
      <trkpt lat="43.12437809072434902191162109375" lon="13.02099849097430706024169921875">
        <ele>518</ele>
        <time>2021-05-09T07:36:20.000Z</time>
        <extensions>
          <ns3:TrackPointExtension>
            <ns3:atemp>15.0</ns3:atemp>
          </ns3:TrackPointExtension>
        </extensions>
      </trkpt>
      <trkpt lat="43.12436685897409915924072265625" lon="13.020883910357952117919921875">
        <ele>519</ele>
        <time>2021-05-09T07:36:23.000Z</time>
        <extensions>
          <ns3:TrackPointExtension>
            <ns3:atemp>15.0</ns3:atemp>
          </ns3:TrackPointExtension>
        </extensions>
      </trkpt>
      <trkpt lat="43.1243511848151683807373046875" lon="13.02073697559535503387451171875">
        <ele>520</ele>
        <time>2021-05-09T07:36:27.000Z</time>
        <extensions>
          <ns3:TrackPointExtension>
            <ns3:atemp>15.0</ns3:atemp>
          </ns3:TrackPointExtension>
        </extensions>
      </trkpt>
      <trkpt lat="43.1243501789867877960205078125" lon="13.0205846764147281646728515625">
        <ele>521</ele>
        <time>2021-05-09T07:36:31.000Z</time>
        <extensions>
          <ns3:TrackPointExtension>
            <ns3:atemp>15.0</ns3:atemp>
          </ns3:TrackPointExtension>
        </extensions>
      </trkpt>
      <trkpt lat="43.12436887063086032867431640625" lon="13.0204331316053867340087890625">
        <ele>522</ele>
        <time>2021-05-09T07:36:35.000Z</time>
        <extensions>
          <ns3:TrackPointExtension>
            <ns3:atemp>15.0</ns3:atemp>
          </ns3:TrackPointExtension>
        </extensions>
      </trkpt>
      <trkpt lat="43.12437457032501697540283203125" lon="13.02039532922208309173583984375">
        <ele>522.20001220703125</ele>
        <time>2021-05-09T07:36:36.000Z</time>
        <extensions>
          <ns3:TrackPointExtension>
            <ns3:atemp>15.0</ns3:atemp>
          </ns3:TrackPointExtension>
        </extensions>
      </trkpt>
      <trkpt lat="43.12440097332000732421875" lon="13.0202453769743442535400390625">
        <ele>523.20001220703125</ele>
        <time>2021-05-09T07:36:40.000Z</time>
        <extensions>
          <ns3:TrackPointExtension>
            <ns3:atemp>15.0</ns3:atemp>
          </ns3:TrackPointExtension>
        </extensions>
      </trkpt>
      <trkpt lat="43.12442469410598278045654296875" lon="13.0201010406017303466796875">
        <ele>523.79998779296875</ele>
        <time>2021-05-09T07:36:44.000Z</time>
        <extensions>
          <ns3:TrackPointExtension>
            <ns3:atemp>15.0</ns3:atemp>
          </ns3:TrackPointExtension>
        </extensions>
      </trkpt>
      <trkpt lat="43.12444296665489673614501953125" lon="13.020030297338962554931640625">
        <ele>524.20001220703125</ele>
        <time>2021-05-09T07:36:46.000Z</time>
        <extensions>
          <ns3:TrackPointExtension>
            <ns3:atemp>15.0</ns3:atemp>
          </ns3:TrackPointExtension>
        </extensions>
      </trkpt>
      <trkpt lat="43.12446467578411102294921875" lon="13.019804656505584716796875">
        <ele>525.4000244140625</ele>
        <time>2021-05-09T07:36:52.000Z</time>
        <extensions>
          <ns3:TrackPointExtension>
            <ns3:atemp>15.0</ns3:atemp>
          </ns3:TrackPointExtension>
        </extensions>
      </trkpt>
      <trkpt lat="43.1244640052318572998046875" lon="13.019766770303249359130859375">
        <ele>525.5999755859375</ele>
        <time>2021-05-09T07:36:53.000Z</time>
        <extensions>
          <ns3:TrackPointExtension>
            <ns3:atemp>15.0</ns3:atemp>
          </ns3:TrackPointExtension>
        </extensions>
      </trkpt>
      <trkpt lat="43.12445797026157379150390625" lon="13.0196070112287998199462890625">
        <ele>526.5999755859375</ele>
        <time>2021-05-09T07:36:57.000Z</time>
        <extensions>
          <ns3:TrackPointExtension>
            <ns3:atemp>15.0</ns3:atemp>
          </ns3:TrackPointExtension>
        </extensions>
      </trkpt>
      <trkpt lat="43.124450929462909698486328125" lon="13.01952612586319446563720703125">
        <ele>527.20001220703125</ele>
        <time>2021-05-09T07:36:59.000Z</time>
        <extensions>
          <ns3:TrackPointExtension>
            <ns3:atemp>15.0</ns3:atemp>
          </ns3:TrackPointExtension>
        </extensions>
      </trkpt>
      <trkpt lat="43.12444531358778476715087890625" lon="13.01944649778306484222412109375">
        <ele>527.5999755859375</ele>
        <time>2021-05-09T07:37:01.000Z</time>
        <extensions>
          <ns3:TrackPointExtension>
            <ns3:atemp>15.0</ns3:atemp>
          </ns3:TrackPointExtension>
        </extensions>
      </trkpt>
      <trkpt lat="43.1244232691824436187744140625" lon="13.019285984337329864501953125">
        <ele>528.5999755859375</ele>
        <time>2021-05-09T07:37:05.000Z</time>
        <extensions>
          <ns3:TrackPointExtension>
            <ns3:atemp>15.0</ns3:atemp>
          </ns3:TrackPointExtension>
        </extensions>
      </trkpt>
      <trkpt lat="43.12442041933536529541015625" lon="13.01924801431596279144287109375">
        <ele>528.79998779296875</ele>
        <time>2021-05-09T07:37:06.000Z</time>
        <extensions>
          <ns3:TrackPointExtension>
            <ns3:atemp>15.0</ns3:atemp>
          </ns3:TrackPointExtension>
        </extensions>
      </trkpt>
      <trkpt lat="43.12440725974738597869873046875" lon="13.019098229706287384033203125">
        <ele>530</ele>
        <time>2021-05-09T07:37:10.000Z</time>
        <extensions>
          <ns3:TrackPointExtension>
            <ns3:atemp>15.0</ns3:atemp>
          </ns3:TrackPointExtension>
        </extensions>
      </trkpt>
      <trkpt lat="43.124400638043880462646484375" lon="13.0189857445657253265380859375">
        <ele>530.5999755859375</ele>
        <time>2021-05-09T07:37:13.000Z</time>
        <extensions>
          <ns3:TrackPointExtension>
            <ns3:atemp>15.0</ns3:atemp>
          </ns3:TrackPointExtension>
        </extensions>
      </trkpt>
      <trkpt lat="43.12439225614070892333984375" lon="13.0189128220081329345703125">
        <ele>531.20001220703125</ele>
        <time>2021-05-09T07:37:15.000Z</time>
        <extensions>
          <ns3:TrackPointExtension>
            <ns3:atemp>15.0</ns3:atemp>
          </ns3:TrackPointExtension>
        </extensions>
      </trkpt>
      <trkpt lat="43.124375157058238983154296875" lon="13.01876462996006011962890625">
        <ele>532.4000244140625</ele>
        <time>2021-05-09T07:37:19.000Z</time>
        <extensions>
          <ns3:TrackPointExtension>
            <ns3:atemp>15.0</ns3:atemp>
          </ns3:TrackPointExtension>
        </extensions>
      </trkpt>
      <trkpt lat="43.124360740184783935546875" lon="13.0186177790164947509765625">
        <ele>533.4000244140625</ele>
        <time>2021-05-09T07:37:23.000Z</time>
        <extensions>
          <ns3:TrackPointExtension>
            <ns3:atemp>15.0</ns3:atemp>
          </ns3:TrackPointExtension>
        </extensions>
      </trkpt>
      <trkpt lat="43.12433701939880847930908203125" lon="13.0184291861951351165771484375">
        <ele>534.5999755859375</ele>
        <time>2021-05-09T07:37:28.000Z</time>
        <extensions>
          <ns3:TrackPointExtension>
            <ns3:atemp>15.0</ns3:atemp>
          </ns3:TrackPointExtension>
        </extensions>
      </trkpt>
      <trkpt lat="43.12432914040982723236083984375" lon="13.01831644959747791290283203125">
        <ele>535.4000244140625</ele>
        <time>2021-05-09T07:37:31.000Z</time>
        <extensions>
          <ns3:TrackPointExtension>
            <ns3:atemp>15.0</ns3:atemp>
          </ns3:TrackPointExtension>
        </extensions>
      </trkpt>
      <trkpt lat="43.12432562001049518585205078125" lon="13.01827940158545970916748046875">
        <ele>535.5999755859375</ele>
        <time>2021-05-09T07:37:32.000Z</time>
        <extensions>
          <ns3:TrackPointExtension>
            <ns3:atemp>15.0</ns3:atemp>
          </ns3:TrackPointExtension>
        </extensions>
      </trkpt>
      <trkpt lat="43.12430198304355144500732421875" lon="13.01809064112603664398193359375">
        <ele>536.79998779296875</ele>
        <time>2021-05-09T07:37:37.000Z</time>
        <extensions>
          <ns3:TrackPointExtension>
            <ns3:atemp>15.0</ns3:atemp>
          </ns3:TrackPointExtension>
        </extensions>
      </trkpt>
      <trkpt lat="43.12428873963654041290283203125" lon="13.01794261671602725982666015625">
        <ele>537.79998779296875</ele>
        <time>2021-05-09T07:37:41.000Z</time>
        <extensions>
          <ns3:TrackPointExtension>
            <ns3:atemp>15.0</ns3:atemp>
          </ns3:TrackPointExtension>
        </extensions>
      </trkpt>
      <trkpt lat="43.1242851354181766510009765625" lon="13.017908670008182525634765625">
        <ele>538</ele>
        <time>2021-05-09T07:37:42.000Z</time>
        <extensions>
          <ns3:TrackPointExtension>
            <ns3:atemp>15.0</ns3:atemp>
          </ns3:TrackPointExtension>
        </extensions>
      </trkpt>
      <trkpt lat="43.1242975406348705291748046875" lon="13.01776424981653690338134765625">
        <ele>539</ele>
        <time>2021-05-09T07:37:46.000Z</time>
        <extensions>
          <ns3:TrackPointExtension>
            <ns3:atemp>15.0</ns3:atemp>
          </ns3:TrackPointExtension>
        </extensions>
      </trkpt>
      <trkpt lat="43.1243039108812808990478515625" lon="13.01772921346127986907958984375">
        <ele>539.20001220703125</ele>
        <time>2021-05-09T07:37:47.000Z</time>
        <extensions>
          <ns3:TrackPointExtension>
            <ns3:atemp>15.0</ns3:atemp>
          </ns3:TrackPointExtension>
        </extensions>
      </trkpt>
      <trkpt lat="43.124298043549060821533203125" lon="13.01753844134509563446044921875">
        <ele>540.20001220703125</ele>
        <time>2021-05-09T07:37:52.000Z</time>
        <extensions>
          <ns3:TrackPointExtension>
            <ns3:atemp>15.0</ns3:atemp>
          </ns3:TrackPointExtension>
        </extensions>
      </trkpt>
      <trkpt lat="43.1242827884852886199951171875" lon="13.0173469148576259613037109375">
        <ele>542</ele>
        <time>2021-05-09T07:37:57.000Z</time>
        <extensions>
          <ns3:TrackPointExtension>
            <ns3:atemp>15.0</ns3:atemp>
          </ns3:TrackPointExtension>
        </extensions>
      </trkpt>
      <trkpt lat="43.124276585876941680908203125" lon="13.01723250187933444976806640625">
        <ele>542.4000244140625</ele>
        <time>2021-05-09T07:38:00.000Z</time>
        <extensions>
          <ns3:TrackPointExtension>
            <ns3:atemp>15.0</ns3:atemp>
          </ns3:TrackPointExtension>
        </extensions>
      </trkpt>
      <trkpt lat="43.1242730654776096343994140625" lon="13.01715773530304431915283203125">
        <ele>543</ele>
        <time>2021-05-09T07:38:02.000Z</time>
        <extensions>
          <ns3:TrackPointExtension>
            <ns3:atemp>15.0</ns3:atemp>
          </ns3:TrackPointExtension>
        </extensions>
      </trkpt>
      <trkpt lat="43.1242640130221843719482421875" lon="13.0170119740068912506103515625">
        <ele>544</ele>
        <time>2021-05-09T07:38:06.000Z</time>
        <extensions>
          <ns3:TrackPointExtension>
            <ns3:atemp>15.0</ns3:atemp>
          </ns3:TrackPointExtension>
        </extensions>
      </trkpt>
      <trkpt lat="43.12425537966191768646240234375" lon="13.01690585911273956298828125">
        <ele>544.79998779296875</ele>
        <time>2021-05-09T07:38:09.000Z</time>
        <extensions>
          <ns3:TrackPointExtension>
            <ns3:atemp>15.0</ns3:atemp>
          </ns3:TrackPointExtension>
        </extensions>
      </trkpt>
      <trkpt lat="43.12424414791166782379150390625" lon="13.01683318801224231719970703125">
        <ele>545.4000244140625</ele>
        <time>2021-05-09T07:38:11.000Z</time>
        <extensions>
          <ns3:TrackPointExtension>
            <ns3:atemp>15.0</ns3:atemp>
          </ns3:TrackPointExtension>
        </extensions>
      </trkpt>
      <trkpt lat="43.124178014695644378662109375" lon="13.01665968261659145355224609375">
        <ele>546.20001220703125</ele>
        <time>2021-05-09T07:38:16.000Z</time>
        <extensions>
          <ns3:TrackPointExtension>
            <ns3:atemp>15.0</ns3:atemp>
          </ns3:TrackPointExtension>
        </extensions>
      </trkpt>
      <trkpt lat="43.124086819589138031005859375" lon="13.01657284609973430633544921875">
        <ele>547.4000244140625</ele>
        <time>2021-05-09T07:38:20.000Z</time>
        <extensions>
          <ns3:TrackPointExtension>
            <ns3:atemp>15.0</ns3:atemp>
          </ns3:TrackPointExtension>
        </extensions>
      </trkpt>
      <trkpt lat="43.1240594945847988128662109375" lon="13.01655138842761516571044921875">
        <ele>547.5999755859375</ele>
        <time>2021-05-09T07:38:21.000Z</time>
        <extensions>
          <ns3:TrackPointExtension>
            <ns3:atemp>15.0</ns3:atemp>
          </ns3:TrackPointExtension>
        </extensions>
      </trkpt>
      <trkpt lat="43.12398078851401805877685546875" lon="13.0164936371147632598876953125">
        <ele>548.5999755859375</ele>
        <time>2021-05-09T07:38:24.000Z</time>
        <extensions>
          <ns3:TrackPointExtension>
            <ns3:atemp>15.0</ns3:atemp>
          </ns3:TrackPointExtension>
        </extensions>
      </trkpt>
      <trkpt lat="43.123902417719364166259765625" lon="13.01643521524965763092041015625">
        <ele>549.5999755859375</ele>
        <time>2021-05-09T07:38:27.000Z</time>
        <extensions>
          <ns3:TrackPointExtension>
            <ns3:atemp>15.0</ns3:atemp>
          </ns3:TrackPointExtension>
        </extensions>
      </trkpt>
      <trkpt lat="43.12382631003856658935546875" lon="13.01638408564031124114990234375">
        <ele>550.20001220703125</ele>
        <time>2021-05-09T07:38:30.000Z</time>
        <extensions>
          <ns3:TrackPointExtension>
            <ns3:atemp>15.0</ns3:atemp>
          </ns3:TrackPointExtension>
        </extensions>
      </trkpt>
      <trkpt lat="43.1237825565040111541748046875" lon="13.0163544975221157073974609375">
        <ele>550.5999755859375</ele>
        <time>2021-05-09T07:38:32.000Z</time>
        <extensions>
          <ns3:TrackPointExtension>
            <ns3:atemp>15.0</ns3:atemp>
          </ns3:TrackPointExtension>
        </extensions>
      </trkpt>
      <trkpt lat="43.12366965226829051971435546875" lon="13.01626774482429027557373046875">
        <ele>551.4000244140625</ele>
        <time>2021-05-09T07:38:37.000Z</time>
        <extensions>
          <ns3:TrackPointExtension>
            <ns3:atemp>15.0</ns3:atemp>
          </ns3:TrackPointExtension>
        </extensions>
      </trkpt>
      <trkpt lat="43.123647272586822509765625" lon="13.01625098101794719696044921875">
        <ele>551.5999755859375</ele>
        <time>2021-05-09T07:38:38.000Z</time>
        <extensions>
          <ns3:TrackPointExtension>
            <ns3:atemp>15.0</ns3:atemp>
          </ns3:TrackPointExtension>
        </extensions>
      </trkpt>
      <trkpt lat="43.12355532310903072357177734375" lon="13.016188703477382659912109375">
        <ele>552.5999755859375</ele>
        <time>2021-05-09T07:38:42.000Z</time>
        <extensions>
          <ns3:TrackPointExtension>
            <ns3:atemp>15.0</ns3:atemp>
          </ns3:TrackPointExtension>
        </extensions>
      </trkpt>
      <trkpt lat="43.1234737671911716461181640625" lon="13.0161285214126110076904296875">
        <ele>553.79998779296875</ele>
        <time>2021-05-09T07:38:46.000Z</time>
        <extensions>
          <ns3:TrackPointExtension>
            <ns3:atemp>15.0</ns3:atemp>
          </ns3:TrackPointExtension>
        </extensions>
      </trkpt>
      <trkpt lat="43.12334979884326457977294921875" lon="13.01602902822196483612060546875">
        <ele>555</ele>
        <time>2021-05-09T07:38:51.000Z</time>
        <extensions>
          <ns3:TrackPointExtension>
            <ns3:atemp>15.0</ns3:atemp>
          </ns3:TrackPointExtension>
        </extensions>
      </trkpt>
      <trkpt lat="43.12330218963325023651123046875" lon="13.01598276011645793914794921875">
        <ele>555.5999755859375</ele>
        <time>2021-05-09T07:38:53.000Z</time>
        <extensions>
          <ns3:TrackPointExtension>
            <ns3:atemp>15.0</ns3:atemp>
          </ns3:TrackPointExtension>
        </extensions>
      </trkpt>
      <trkpt lat="43.12326413579285144805908203125" lon="13.01593179814517498016357421875">
        <ele>556.20001220703125</ele>
        <time>2021-05-09T07:38:55.000Z</time>
        <extensions>
          <ns3:TrackPointExtension>
            <ns3:atemp>15.0</ns3:atemp>
          </ns3:TrackPointExtension>
        </extensions>
      </trkpt>
      <trkpt lat="43.12319272197782993316650390625" lon="13.015830628573894500732421875">
        <ele>556.5999755859375</ele>
        <time>2021-05-09T07:38:59.000Z</time>
        <extensions>
          <ns3:TrackPointExtension>
            <ns3:atemp>15.0</ns3:atemp>
          </ns3:TrackPointExtension>
        </extensions>
      </trkpt>
      <trkpt lat="43.1231207214295864105224609375" lon="13.015706241130828857421875">
        <ele>557.20001220703125</ele>
        <time>2021-05-09T07:39:03.000Z</time>
        <extensions>
          <ns3:TrackPointExtension>
            <ns3:atemp>15.0</ns3:atemp>
          </ns3:TrackPointExtension>
        </extensions>
      </trkpt>
      <trkpt lat="43.12307369895279407501220703125" lon="13.015615381300449371337890625">
        <ele>557.79998779296875</ele>
        <time>2021-05-09T07:39:06.000Z</time>
        <extensions>
          <ns3:TrackPointExtension>
            <ns3:atemp>15.0</ns3:atemp>
          </ns3:TrackPointExtension>
        </extensions>
      </trkpt>
      <trkpt lat="43.12298619188368320465087890625" lon="13.015459813177585601806640625">
        <ele>558.4000244140625</ele>
        <time>2021-05-09T07:39:11.000Z</time>
        <extensions>
          <ns3:TrackPointExtension>
            <ns3:atemp>15.0</ns3:atemp>
          </ns3:TrackPointExtension>
        </extensions>
      </trkpt>
      <trkpt lat="43.122912347316741943359375" lon="13.0153399519622325897216796875">
        <ele>559.20001220703125</ele>
        <time>2021-05-09T07:39:15.000Z</time>
        <extensions>
          <ns3:TrackPointExtension>
            <ns3:atemp>15.0</ns3:atemp>
          </ns3:TrackPointExtension>
        </extensions>
      </trkpt>
      <trkpt lat="43.12289692461490631103515625" lon="13.0153084360063076019287109375">
        <ele>559.5999755859375</ele>
        <time>2021-05-09T07:39:16.000Z</time>
        <extensions>
          <ns3:TrackPointExtension>
            <ns3:atemp>15.0</ns3:atemp>
          </ns3:TrackPointExtension>
        </extensions>
      </trkpt>
      <trkpt lat="43.12281184829771518707275390625" lon="13.01516233943402767181396484375">
        <ele>560.5999755859375</ele>
        <time>2021-05-09T07:39:21.000Z</time>
        <extensions>
          <ns3:TrackPointExtension>
            <ns3:atemp>15.0</ns3:atemp>
          </ns3:TrackPointExtension>
        </extensions>
      </trkpt>
      <trkpt lat="43.1227807514369487762451171875" lon="13.01509645767509937286376953125">
        <ele>561.20001220703125</ele>
        <time>2021-05-09T07:39:23.000Z</time>
        <extensions>
          <ns3:TrackPointExtension>
            <ns3:atemp>15.0</ns3:atemp>
          </ns3:TrackPointExtension>
        </extensions>
      </trkpt>
      <trkpt lat="43.12274579890072345733642578125" lon="13.015030324459075927734375">
        <ele>561.79998779296875</ele>
        <time>2021-05-09T07:39:25.000Z</time>
        <extensions>
          <ns3:TrackPointExtension>
            <ns3:atemp>15.0</ns3:atemp>
          </ns3:TrackPointExtension>
        </extensions>
      </trkpt>
      <trkpt lat="43.12267438508570194244384765625" lon="13.0149010755121707916259765625">
        <ele>562.5999755859375</ele>
        <time>2021-05-09T07:39:29.000Z</time>
        <extensions>
          <ns3:TrackPointExtension>
            <ns3:atemp>15.0</ns3:atemp>
          </ns3:TrackPointExtension>
        </extensions>
      </trkpt>
      <trkpt lat="43.122617639601230621337890625" lon="13.01481482572853565216064453125">
        <ele>563</ele>
        <time>2021-05-09T07:39:32.000Z</time>
        <extensions>
          <ns3:TrackPointExtension>
            <ns3:atemp>15.0</ns3:atemp>
          </ns3:TrackPointExtension>
        </extensions>
      </trkpt>
      <trkpt lat="43.1225688569247722625732421875" lon="13.014736957848072052001953125">
        <ele>563.5999755859375</ele>
        <time>2021-05-09T07:39:35.000Z</time>
        <extensions>
          <ns3:TrackPointExtension>
            <ns3:atemp>15.0</ns3:atemp>
          </ns3:TrackPointExtension>
        </extensions>
      </trkpt>
      <trkpt lat="43.122537173330783843994140625" lon="13.01468540914356708526611328125">
        <ele>564</ele>
        <time>2021-05-09T07:39:37.000Z</time>
        <extensions>
          <ns3:TrackPointExtension>
            <ns3:atemp>15.0</ns3:atemp>
          </ns3:TrackPointExtension>
        </extensions>
      </trkpt>
      <trkpt lat="43.12247707508504390716552734375" lon="13.01456831395626068115234375">
        <ele>565.20001220703125</ele>
        <time>2021-05-09T07:39:41.000Z</time>
        <extensions>
          <ns3:TrackPointExtension>
            <ns3:atemp>15.0</ns3:atemp>
          </ns3:TrackPointExtension>
        </extensions>
      </trkpt>
      <trkpt lat="43.12244304455816745758056640625" lon="13.0145098082721233367919921875">
        <ele>565.5999755859375</ele>
        <time>2021-05-09T07:39:43.000Z</time>
        <extensions>
          <ns3:TrackPointExtension>
            <ns3:atemp>15.0</ns3:atemp>
          </ns3:TrackPointExtension>
        </extensions>
      </trkpt>
      <trkpt lat="43.12239040620625019073486328125" lon="13.01441903226077556610107421875">
        <ele>566.4000244140625</ele>
        <time>2021-05-09T07:39:46.000Z</time>
        <extensions>
          <ns3:TrackPointExtension>
            <ns3:atemp>15.0</ns3:atemp>
          </ns3:TrackPointExtension>
        </extensions>
      </trkpt>
      <trkpt lat="43.122336007654666900634765625" lon="13.0143341235816478729248046875">
        <ele>567</ele>
        <time>2021-05-09T07:39:49.000Z</time>
        <extensions>
          <ns3:TrackPointExtension>
            <ns3:atemp>15.0</ns3:atemp>
          </ns3:TrackPointExtension>
        </extensions>
      </trkpt>
      <trkpt lat="43.1222902424633502960205078125" lon="13.01424887962639331817626953125">
        <ele>567.4000244140625</ele>
        <time>2021-05-09T07:39:52.000Z</time>
        <extensions>
          <ns3:TrackPointExtension>
            <ns3:atemp>16.0</ns3:atemp>
          </ns3:TrackPointExtension>
        </extensions>
      </trkpt>
      <trkpt lat="43.12225713394582271575927734375" lon="13.01415768451988697052001953125">
        <ele>568.4000244140625</ele>
        <time>2021-05-09T07:39:55.000Z</time>
        <extensions>
          <ns3:TrackPointExtension>
            <ns3:atemp>16.0</ns3:atemp>
          </ns3:TrackPointExtension>
        </extensions>
      </trkpt>
      <trkpt lat="43.12224724330008029937744140625" lon="13.0141255818307399749755859375">
        <ele>568.5999755859375</ele>
        <time>2021-05-09T07:39:56.000Z</time>
        <extensions>
          <ns3:TrackPointExtension>
            <ns3:atemp>16.0</ns3:atemp>
          </ns3:TrackPointExtension>
        </extensions>
      </trkpt>
      <trkpt lat="43.12218136154115200042724609375" lon="13.01392734982073307037353515625">
        <ele>569.5999755859375</ele>
        <time>2021-05-09T07:40:02.000Z</time>
        <extensions>
          <ns3:TrackPointExtension>
            <ns3:atemp>16.0</ns3:atemp>
          </ns3:TrackPointExtension>
        </extensions>
      </trkpt>
      <trkpt lat="43.12217482365667819976806640625" lon="13.01389348693192005157470703125">
        <ele>570</ele>
        <time>2021-05-09T07:40:03.000Z</time>
        <extensions>
          <ns3:TrackPointExtension>
            <ns3:atemp>16.0</ns3:atemp>
          </ns3:TrackPointExtension>
        </extensions>
      </trkpt>
      <trkpt lat="43.12215303070843219757080078125" lon="13.01375426352024078369140625">
        <ele>570.79998779296875</ele>
        <time>2021-05-09T07:40:07.000Z</time>
        <extensions>
          <ns3:TrackPointExtension>
            <ns3:atemp>16.0</ns3:atemp>
          </ns3:TrackPointExtension>
        </extensions>
      </trkpt>
      <trkpt lat="43.1221393682062625885009765625" lon="13.01368326880037784576416015625">
        <ele>571.20001220703125</ele>
        <time>2021-05-09T07:40:09.000Z</time>
        <extensions>
          <ns3:TrackPointExtension>
            <ns3:atemp>16.0</ns3:atemp>
          </ns3:TrackPointExtension>
        </extensions>
      </trkpt>
      <trkpt lat="43.12211581505835056304931640625" lon="13.013545386493206024169921875">
        <ele>571.79998779296875</ele>
        <time>2021-05-09T07:40:13.000Z</time>
        <extensions>
          <ns3:TrackPointExtension>
            <ns3:atemp>16.0</ns3:atemp>
          </ns3:TrackPointExtension>
        </extensions>
      </trkpt>
      <trkpt lat="43.12208279035985469818115234375" lon="13.01337162964046001434326171875">
        <ele>572.5999755859375</ele>
        <time>2021-05-09T07:40:18.000Z</time>
        <extensions>
          <ns3:TrackPointExtension>
            <ns3:atemp>16.0</ns3:atemp>
          </ns3:TrackPointExtension>
        </extensions>
      </trkpt>
      <trkpt lat="43.12206552363932132720947265625" lon="13.013303987681865692138671875">
        <ele>573</ele>
        <time>2021-05-09T07:40:20.000Z</time>
        <extensions>
          <ns3:TrackPointExtension>
            <ns3:atemp>16.0</ns3:atemp>
          </ns3:TrackPointExtension>
        </extensions>
      </trkpt>
      <trkpt lat="43.12202814035117626190185546875" lon="13.01321245729923248291015625">
        <ele>574</ele>
        <time>2021-05-09T07:40:23.000Z</time>
        <extensions>
          <ns3:TrackPointExtension>
            <ns3:atemp>16.0</ns3:atemp>
          </ns3:TrackPointExtension>
        </extensions>
      </trkpt>
      <trkpt lat="43.122002743184566497802734375" lon="13.01314917393028736114501953125">
        <ele>574.4000244140625</ele>
        <time>2021-05-09T07:40:25.000Z</time>
        <extensions>
          <ns3:TrackPointExtension>
            <ns3:atemp>16.0</ns3:atemp>
          </ns3:TrackPointExtension>
        </extensions>
      </trkpt>
      <trkpt lat="43.12197734601795673370361328125" lon="13.0130915902554988861083984375">
        <ele>575</ele>
        <time>2021-05-09T07:40:27.000Z</time>
        <extensions>
          <ns3:TrackPointExtension>
            <ns3:atemp>16.0</ns3:atemp>
          </ns3:TrackPointExtension>
        </extensions>
      </trkpt>
      <trkpt lat="43.12190073542296886444091796875" lon="13.01296167075634002685546875">
        <ele>576.20001220703125</ele>
        <time>2021-05-09T07:40:32.000Z</time>
        <extensions>
          <ns3:TrackPointExtension>
            <ns3:atemp>16.0</ns3:atemp>
          </ns3:TrackPointExtension>
        </extensions>
      </trkpt>
      <trkpt lat="43.12188447453081607818603515625" lon="13.01293510012328624725341796875">
        <ele>576.4000244140625</ele>
        <time>2021-05-09T07:40:33.000Z</time>
        <extensions>
          <ns3:TrackPointExtension>
            <ns3:atemp>16.0</ns3:atemp>
          </ns3:TrackPointExtension>
        </extensions>
      </trkpt>
      <trkpt lat="43.12183208763599395751953125" lon="13.01286200992763042449951171875">
        <ele>577</ele>
        <time>2021-05-09T07:40:36.000Z</time>
        <extensions>
          <ns3:TrackPointExtension>
            <ns3:atemp>16.0</ns3:atemp>
          </ns3:TrackPointExtension>
        </extensions>
      </trkpt>
      <trkpt lat="43.12174332328140735626220703125" lon="13.01275321282446384429931640625">
        <ele>578</ele>
        <time>2021-05-09T07:40:41.000Z</time>
        <extensions>
          <ns3:TrackPointExtension>
            <ns3:atemp>16.0</ns3:atemp>
          </ns3:TrackPointExtension>
        </extensions>
      </trkpt>
      <trkpt lat="43.12172404490411281585693359375" lon="13.0127345211803913116455078125">
        <ele>578.20001220703125</ele>
        <time>2021-05-09T07:40:42.000Z</time>
        <extensions>
          <ns3:TrackPointExtension>
            <ns3:atemp>16.0</ns3:atemp>
          </ns3:TrackPointExtension>
        </extensions>
      </trkpt>
      <trkpt lat="43.1216307543218135833740234375" lon="13.01266067661345005035400390625">
        <ele>579.20001220703125</ele>
        <time>2021-05-09T07:40:47.000Z</time>
        <extensions>
          <ns3:TrackPointExtension>
            <ns3:atemp>16.0</ns3:atemp>
          </ns3:TrackPointExtension>
        </extensions>
      </trkpt>
      <trkpt lat="43.121609129011631011962890625" lon="13.0126419849693775177001953125">
        <ele>579.4000244140625</ele>
        <time>2021-05-09T07:40:48.000Z</time>
        <extensions>
          <ns3:TrackPointExtension>
            <ns3:atemp>16.0</ns3:atemp>
          </ns3:TrackPointExtension>
        </extensions>
      </trkpt>
      <trkpt lat="43.12151969410479068756103515625" lon="13.0125695653259754180908203125">
        <ele>580.5999755859375</ele>
        <time>2021-05-09T07:40:52.000Z</time>
        <extensions>
          <ns3:TrackPointExtension>
            <ns3:atemp>16.0</ns3:atemp>
          </ns3:TrackPointExtension>
        </extensions>
      </trkpt>
      <trkpt lat="43.12145364470779895782470703125" lon="13.01252572797238826751708984375">
        <ele>581.79998779296875</ele>
        <time>2021-05-09T07:40:55.000Z</time>
        <extensions>
          <ns3:TrackPointExtension>
            <ns3:atemp>16.0</ns3:atemp>
          </ns3:TrackPointExtension>
        </extensions>
      </trkpt>
      <trkpt lat="43.1214329414069652557373046875" lon="13.01250862888991832733154296875">
        <ele>582</ele>
        <time>2021-05-09T07:40:56.000Z</time>
        <extensions>
          <ns3:TrackPointExtension>
            <ns3:atemp>16.0</ns3:atemp>
          </ns3:TrackPointExtension>
        </extensions>
      </trkpt>
      <trkpt lat="43.12136806547641754150390625" lon="13.0124619416892528533935546875">
        <ele>582.79998779296875</ele>
        <time>2021-05-09T07:40:59.000Z</time>
        <extensions>
          <ns3:TrackPointExtension>
            <ns3:atemp>16.0</ns3:atemp>
          </ns3:TrackPointExtension>
        </extensions>
      </trkpt>
      <trkpt lat="43.12131199054419994354248046875" lon="13.0124441720545291900634765625">
        <ele>583.4000244140625</ele>
        <time>2021-05-09T07:41:01.000Z</time>
        <extensions>
          <ns3:TrackPointExtension>
            <ns3:atemp>16.0</ns3:atemp>
          </ns3:TrackPointExtension>
        </extensions>
      </trkpt>
      <trkpt lat="43.12123822979629039764404296875" lon="13.01241139881312847137451171875">
        <ele>584</ele>
        <time>2021-05-09T07:41:04.000Z</time>
        <extensions>
          <ns3:TrackPointExtension>
            <ns3:atemp>16.0</ns3:atemp>
          </ns3:TrackPointExtension>
        </extensions>
      </trkpt>
      <trkpt lat="43.121168576180934906005859375" lon="13.01238507963716983795166015625">
        <ele>584.4000244140625</ele>
        <time>2021-05-09T07:41:07.000Z</time>
        <extensions>
          <ns3:TrackPointExtension>
            <ns3:atemp>16.0</ns3:atemp>
          </ns3:TrackPointExtension>
        </extensions>
      </trkpt>
      <trkpt lat="43.12109313905239105224609375" lon="13.012363873422145843505859375">
        <ele>585</ele>
        <time>2021-05-09T07:41:10.000Z</time>
        <extensions>
          <ns3:TrackPointExtension>
            <ns3:atemp>16.0</ns3:atemp>
          </ns3:TrackPointExtension>
        </extensions>
      </trkpt>
      <trkpt lat="43.12103371135890483856201171875" lon="13.01232288591563701629638671875">
        <ele>585.5999755859375</ele>
        <time>2021-05-09T07:41:13.000Z</time>
        <extensions>
          <ns3:TrackPointExtension>
            <ns3:atemp>16.0</ns3:atemp>
          </ns3:TrackPointExtension>
        </extensions>
      </trkpt>
      <trkpt lat="43.12103815376758575439453125" lon="13.012265972793102264404296875">
        <ele>586</ele>
        <time>2021-05-09T07:41:15.000Z</time>
        <extensions>
          <ns3:TrackPointExtension>
            <ns3:atemp>16.0</ns3:atemp>
          </ns3:TrackPointExtension>
        </extensions>
      </trkpt>
      <trkpt lat="43.12105558812618255615234375" lon="13.0122383125126361846923828125">
        <ele>586.4000244140625</ele>
        <time>2021-05-09T07:41:16.000Z</time>
        <extensions>
          <ns3:TrackPointExtension>
            <ns3:atemp>16.0</ns3:atemp>
          </ns3:TrackPointExtension>
        </extensions>
      </trkpt>
      <trkpt lat="43.12115977518260478973388671875" lon="13.01221090368926525115966796875">
        <ele>587.4000244140625</ele>
        <time>2021-05-09T07:41:20.000Z</time>
        <extensions>
          <ns3:TrackPointExtension>
            <ns3:atemp>16.0</ns3:atemp>
          </ns3:TrackPointExtension>
        </extensions>
      </trkpt>
      <trkpt lat="43.12134970910847187042236328125" lon="13.01221869885921478271484375">
        <ele>588.4000244140625</ele>
        <time>2021-05-09T07:41:28.000Z</time>
        <extensions>
          <ns3:TrackPointExtension>
            <ns3:atemp>16.0</ns3:atemp>
          </ns3:TrackPointExtension>
        </extensions>
      </trkpt>
      <trkpt lat="43.12153059057891368865966796875" lon="13.01224107854068279266357421875">
        <ele>589</ele>
        <time>2021-05-09T07:41:36.000Z</time>
        <extensions>
          <ns3:TrackPointExtension>
            <ns3:atemp>16.0</ns3:atemp>
          </ns3:TrackPointExtension>
        </extensions>
      </trkpt>
      <trkpt lat="43.1215761043131351470947265625" lon="13.0122540704905986785888671875">
        <ele>589.4000244140625</ele>
        <time>2021-05-09T07:41:38.000Z</time>
        <extensions>
          <ns3:TrackPointExtension>
            <ns3:atemp>16.0</ns3:atemp>
          </ns3:TrackPointExtension>
        </extensions>
      </trkpt>
      <trkpt lat="43.1216745078563690185546875" lon="13.0122689902782440185546875">
        <ele>590</ele>
        <time>2021-05-09T07:41:42.000Z</time>
        <extensions>
          <ns3:TrackPointExtension>
            <ns3:atemp>16.0</ns3:atemp>
          </ns3:TrackPointExtension>
        </extensions>
      </trkpt>
      <trkpt lat="43.121817000210285186767578125" lon="13.0122976563870906829833984375">
        <ele>590.5999755859375</ele>
        <time>2021-05-09T07:41:48.000Z</time>
        <extensions>
          <ns3:TrackPointExtension>
            <ns3:atemp>17.0</ns3:atemp>
          </ns3:TrackPointExtension>
        </extensions>
      </trkpt>
      <trkpt lat="43.1218421459197998046875" lon="13.01230343990027904510498046875">
        <ele>591</ele>
        <time>2021-05-09T07:41:49.000Z</time>
        <extensions>
          <ns3:TrackPointExtension>
            <ns3:atemp>17.0</ns3:atemp>
          </ns3:TrackPointExtension>
        </extensions>
      </trkpt>
      <trkpt lat="43.12193074263632297515869140625" lon="13.012339733541011810302734375">
        <ele>592</ele>
        <time>2021-05-09T07:41:53.000Z</time>
        <extensions>
          <ns3:TrackPointExtension>
            <ns3:atemp>17.0</ns3:atemp>
          </ns3:TrackPointExtension>
        </extensions>
      </trkpt>
      <trkpt lat="43.121975921094417572021484375" lon="13.0123650468885898590087890625">
        <ele>592.4000244140625</ele>
        <time>2021-05-09T07:41:55.000Z</time>
        <extensions>
          <ns3:TrackPointExtension>
            <ns3:atemp>17.0</ns3:atemp>
          </ns3:TrackPointExtension>
        </extensions>
      </trkpt>
      <trkpt lat="43.12204532325267791748046875" lon="13.0124084651470184326171875">
        <ele>593</ele>
        <time>2021-05-09T07:41:58.000Z</time>
        <extensions>
          <ns3:TrackPointExtension>
            <ns3:atemp>17.0</ns3:atemp>
          </ns3:TrackPointExtension>
        </extensions>
      </trkpt>
      <trkpt lat="43.1221340037882328033447265625" lon="13.0124760232865810394287109375">
        <ele>593.79998779296875</ele>
        <time>2021-05-09T07:42:02.000Z</time>
        <extensions>
          <ns3:TrackPointExtension>
            <ns3:atemp>17.0</ns3:atemp>
          </ns3:TrackPointExtension>
        </extensions>
      </trkpt>
      <trkpt lat="43.122155629098415374755859375" lon="13.012497313320636749267578125">
        <ele>594</ele>
        <time>2021-05-09T07:42:03.000Z</time>
        <extensions>
          <ns3:TrackPointExtension>
            <ns3:atemp>17.0</ns3:atemp>
          </ns3:TrackPointExtension>
        </extensions>
      </trkpt>
      <trkpt lat="43.122224695980548858642578125" lon="13.01255221478641033172607421875">
        <ele>594.4000244140625</ele>
        <time>2021-05-09T07:42:06.000Z</time>
        <extensions>
          <ns3:TrackPointExtension>
            <ns3:atemp>17.0</ns3:atemp>
          </ns3:TrackPointExtension>
        </extensions>
      </trkpt>
      <trkpt lat="43.12229602597653865814208984375" lon="13.01260468550026416778564453125">
        <ele>595</ele>
        <time>2021-05-09T07:42:09.000Z</time>
        <extensions>
          <ns3:TrackPointExtension>
            <ns3:atemp>17.0</ns3:atemp>
          </ns3:TrackPointExtension>
        </extensions>
      </trkpt>
      <trkpt lat="43.122341372072696685791015625" lon="13.01263821311295032501220703125">
        <ele>595.4000244140625</ele>
        <time>2021-05-09T07:42:11.000Z</time>
        <extensions>
          <ns3:TrackPointExtension>
            <ns3:atemp>17.0</ns3:atemp>
          </ns3:TrackPointExtension>
        </extensions>
      </trkpt>
      <trkpt lat="43.122481517493724822998046875" lon="13.01272018812596797943115234375">
        <ele>596.20001220703125</ele>
        <time>2021-05-09T07:42:17.000Z</time>
        <extensions>
          <ns3:TrackPointExtension>
            <ns3:atemp>17.0</ns3:atemp>
          </ns3:TrackPointExtension>
        </extensions>
      </trkpt>
      <trkpt lat="43.12252971343696117401123046875" lon="13.01273728720843791961669921875">
        <ele>596.5999755859375</ele>
        <time>2021-05-09T07:42:19.000Z</time>
        <extensions>
          <ns3:TrackPointExtension>
            <ns3:atemp>17.0</ns3:atemp>
          </ns3:TrackPointExtension>
        </extensions>
      </trkpt>
      <trkpt lat="43.1226025521755218505859375" lon="13.012738712131977081298828125">
        <ele>597.4000244140625</ele>
        <time>2021-05-09T07:42:22.000Z</time>
        <extensions>
          <ns3:TrackPointExtension>
            <ns3:atemp>17.0</ns3:atemp>
          </ns3:TrackPointExtension>
        </extensions>
      </trkpt>
      <trkpt lat="43.12266952358186244964599609375" lon="13.01270929165184497833251953125">
        <ele>598</ele>
        <time>2021-05-09T07:42:25.000Z</time>
        <extensions>
          <ns3:TrackPointExtension>
            <ns3:atemp>17.0</ns3:atemp>
          </ns3:TrackPointExtension>
        </extensions>
      </trkpt>
      <trkpt lat="43.12271629460155963897705078125" lon="13.012679703533649444580078125">
        <ele>598.4000244140625</ele>
        <time>2021-05-09T07:42:27.000Z</time>
        <extensions>
          <ns3:TrackPointExtension>
            <ns3:atemp>17.0</ns3:atemp>
          </ns3:TrackPointExtension>
        </extensions>
      </trkpt>
      <trkpt lat="43.12282324768602848052978515625" lon="13.01258389838039875030517578125">
        <ele>599.4000244140625</ele>
        <time>2021-05-09T07:42:32.000Z</time>
        <extensions>
          <ns3:TrackPointExtension>
            <ns3:atemp>17.0</ns3:atemp>
          </ns3:TrackPointExtension>
        </extensions>
      </trkpt>
      <trkpt lat="43.12284520827233791351318359375" lon="13.01256160251796245574951171875">
        <ele>599.5999755859375</ele>
        <time>2021-05-09T07:42:33.000Z</time>
        <extensions>
          <ns3:TrackPointExtension>
            <ns3:atemp>17.0</ns3:atemp>
          </ns3:TrackPointExtension>
        </extensions>
      </trkpt>
      <trkpt lat="43.1229262612760066986083984375" lon="13.01247417926788330078125">
        <ele>600.4000244140625</ele>
        <time>2021-05-09T07:42:37.000Z</time>
        <extensions>
          <ns3:TrackPointExtension>
            <ns3:atemp>17.0</ns3:atemp>
          </ns3:TrackPointExtension>
        </extensions>
      </trkpt>
      <trkpt lat="43.122989796102046966552734375" lon="13.01241676323115825653076171875">
        <ele>601</ele>
        <time>2021-05-09T07:42:40.000Z</time>
        <extensions>
          <ns3:TrackPointExtension>
            <ns3:atemp>17.0</ns3:atemp>
          </ns3:TrackPointExtension>
        </extensions>
      </trkpt>
      <trkpt lat="43.123057521879673004150390625" lon="13.01236680708825588226318359375">
        <ele>601.5999755859375</ele>
        <time>2021-05-09T07:42:43.000Z</time>
        <extensions>
          <ns3:TrackPointExtension>
            <ns3:atemp>17.0</ns3:atemp>
          </ns3:TrackPointExtension>
        </extensions>
      </trkpt>
      <trkpt lat="43.1231723539531230926513671875" lon="13.01230050623416900634765625">
        <ele>602.5999755859375</ele>
        <time>2021-05-09T07:42:48.000Z</time>
        <extensions>
          <ns3:TrackPointExtension>
            <ns3:atemp>17.0</ns3:atemp>
          </ns3:TrackPointExtension>
        </extensions>
      </trkpt>
      <trkpt lat="43.1231971643865108489990234375" lon="13.012286759912967681884765625">
        <ele>602.5999755859375</ele>
        <time>2021-05-09T07:42:49.000Z</time>
        <extensions>
          <ns3:TrackPointExtension>
            <ns3:atemp>17.0</ns3:atemp>
          </ns3:TrackPointExtension>
        </extensions>
      </trkpt>
      <trkpt lat="43.12333504669368267059326171875" lon="13.01220688037574291229248046875">
        <ele>603.79998779296875</ele>
        <time>2021-05-09T07:42:55.000Z</time>
        <extensions>
          <ns3:TrackPointExtension>
            <ns3:atemp>17.0</ns3:atemp>
          </ns3:TrackPointExtension>
        </extensions>
      </trkpt>
      <trkpt lat="43.12343898229300975799560546875" lon="13.01213152706623077392578125">
        <ele>604.79998779296875</ele>
        <time>2021-05-09T07:43:00.000Z</time>
        <extensions>
          <ns3:TrackPointExtension>
            <ns3:atemp>17.0</ns3:atemp>
          </ns3:TrackPointExtension>
        </extensions>
      </trkpt>
      <trkpt lat="43.123479969799518585205078125" lon="13.0120971612632274627685546875">
        <ele>605.20001220703125</ele>
        <time>2021-05-09T07:43:02.000Z</time>
        <extensions>
          <ns3:TrackPointExtension>
            <ns3:atemp>17.0</ns3:atemp>
          </ns3:TrackPointExtension>
        </extensions>
      </trkpt>
      <trkpt lat="43.123567812144756317138671875" lon="13.0120160244405269622802734375">
        <ele>606</ele>
        <time>2021-05-09T07:43:06.000Z</time>
        <extensions>
          <ns3:TrackPointExtension>
            <ns3:atemp>17.0</ns3:atemp>
          </ns3:TrackPointExtension>
        </extensions>
      </trkpt>
      <trkpt lat="43.123656995594501495361328125" lon="13.0119198001921176910400390625">
        <ele>607</ele>
        <time>2021-05-09T07:43:10.000Z</time>
        <extensions>
          <ns3:TrackPointExtension>
            <ns3:atemp>17.0</ns3:atemp>
          </ns3:TrackPointExtension>
        </extensions>
      </trkpt>
      <trkpt lat="43.1237403117120265960693359375" lon="13.011784516274929046630859375">
        <ele>608.20001220703125</ele>
        <time>2021-05-09T07:43:15.000Z</time>
        <extensions>
          <ns3:TrackPointExtension>
            <ns3:atemp>17.0</ns3:atemp>
          </ns3:TrackPointExtension>
        </extensions>
      </trkpt>
      <trkpt lat="43.12376302666962146759033203125" lon="13.011719472706317901611328125">
        <ele>608.5999755859375</ele>
        <time>2021-05-09T07:43:17.000Z</time>
        <extensions>
          <ns3:TrackPointExtension>
            <ns3:atemp>17.0</ns3:atemp>
          </ns3:TrackPointExtension>
        </extensions>
      </trkpt>
      <trkpt lat="43.12379286624491214752197265625" lon="13.01157806999981403350830078125">
        <ele>609.20001220703125</ele>
        <time>2021-05-09T07:43:21.000Z</time>
        <extensions>
          <ns3:TrackPointExtension>
            <ns3:atemp>17.0</ns3:atemp>
          </ns3:TrackPointExtension>
        </extensions>
      </trkpt>
      <trkpt lat="43.1238070316612720489501953125" lon="13.0114695243537425994873046875">
        <ele>609.5999755859375</ele>
        <time>2021-05-09T07:43:24.000Z</time>
        <extensions>
          <ns3:TrackPointExtension>
            <ns3:atemp>17.0</ns3:atemp>
          </ns3:TrackPointExtension>
        </extensions>
      </trkpt>
      <trkpt lat="43.123817928135395050048828125" lon="13.0113637447357177734375">
        <ele>610.20001220703125</ele>
        <time>2021-05-09T07:43:27.000Z</time>
        <extensions>
          <ns3:TrackPointExtension>
            <ns3:atemp>17.0</ns3:atemp>
          </ns3:TrackPointExtension>
        </extensions>
      </trkpt>
      <trkpt lat="43.12382019124925136566162109375" lon="13.0112194083631038665771484375">
        <ele>610.79998779296875</ele>
        <time>2021-05-09T07:43:31.000Z</time>
        <extensions>
          <ns3:TrackPointExtension>
            <ns3:atemp>17.0</ns3:atemp>
          </ns3:TrackPointExtension>
        </extensions>
      </trkpt>
      <trkpt lat="43.12381532974541187286376953125" lon="13.011116646230220794677734375">
        <ele>611.20001220703125</ele>
        <time>2021-05-09T07:43:34.000Z</time>
        <extensions>
          <ns3:TrackPointExtension>
            <ns3:atemp>17.0</ns3:atemp>
          </ns3:TrackPointExtension>
        </extensions>
      </trkpt>
      <trkpt lat="43.12377828173339366912841796875" lon="13.01102318800985813140869140625">
        <ele>611.5999755859375</ele>
        <time>2021-05-09T07:43:37.000Z</time>
        <extensions>
          <ns3:TrackPointExtension>
            <ns3:atemp>17.0</ns3:atemp>
          </ns3:TrackPointExtension>
        </extensions>
      </trkpt>
      <trkpt lat="43.12372195534408092498779296875" lon="13.0109545402228832244873046875">
        <ele>612.20001220703125</ele>
        <time>2021-05-09T07:43:40.000Z</time>
        <extensions>
          <ns3:TrackPointExtension>
            <ns3:atemp>17.0</ns3:atemp>
          </ns3:TrackPointExtension>
        </extensions>
      </trkpt>
      <trkpt lat="43.12365657649934291839599609375" lon="13.01091439090669155120849609375">
        <ele>613</ele>
        <time>2021-05-09T07:43:43.000Z</time>
        <extensions>
          <ns3:TrackPointExtension>
            <ns3:atemp>17.0</ns3:atemp>
          </ns3:TrackPointExtension>
        </extensions>
      </trkpt>
      <trkpt lat="43.12360846437513828277587890625" lon="13.01089100539684295654296875">
        <ele>613.4000244140625</ele>
        <time>2021-05-09T07:43:45.000Z</time>
        <extensions>
          <ns3:TrackPointExtension>
            <ns3:atemp>17.0</ns3:atemp>
          </ns3:TrackPointExtension>
        </extensions>
      </trkpt>
      <trkpt lat="43.12353931367397308349609375" lon="13.0108465813100337982177734375">
        <ele>614.79998779296875</ele>
        <time>2021-05-09T07:43:48.000Z</time>
        <extensions>
          <ns3:TrackPointExtension>
            <ns3:atemp>17.0</ns3:atemp>
          </ns3:TrackPointExtension>
        </extensions>
      </trkpt>
      <trkpt lat="43.12349413521587848663330078125" lon="13.01081531681120395660400390625">
        <ele>615.20001220703125</ele>
        <time>2021-05-09T07:43:50.000Z</time>
        <extensions>
          <ns3:TrackPointExtension>
            <ns3:atemp>17.0</ns3:atemp>
          </ns3:TrackPointExtension>
        </extensions>
      </trkpt>
      <trkpt lat="43.1234274990856647491455078125" lon="13.01076049916446208953857421875">
        <ele>616</ele>
        <time>2021-05-09T07:43:53.000Z</time>
        <extensions>
          <ns3:TrackPointExtension>
            <ns3:atemp>17.0</ns3:atemp>
          </ns3:TrackPointExtension>
        </extensions>
      </trkpt>
      <trkpt lat="43.1233423389494419097900390625" lon="13.01066100597381591796875">
        <ele>617</ele>
        <time>2021-05-09T07:43:57.000Z</time>
        <extensions>
          <ns3:TrackPointExtension>
            <ns3:atemp>17.0</ns3:atemp>
          </ns3:TrackPointExtension>
        </extensions>
      </trkpt>
      <trkpt lat="43.123324401676654815673828125" lon="13.0106326751410961151123046875">
        <ele>617.20001220703125</ele>
        <time>2021-05-09T07:43:58.000Z</time>
        <extensions>
          <ns3:TrackPointExtension>
            <ns3:atemp>17.0</ns3:atemp>
          </ns3:TrackPointExtension>
        </extensions>
      </trkpt>
      <trkpt lat="43.12325893901288509368896484375" lon="13.01052077673375606536865234375">
        <ele>618.20001220703125</ele>
        <time>2021-05-09T07:44:02.000Z</time>
        <extensions>
          <ns3:TrackPointExtension>
            <ns3:atemp>17.0</ns3:atemp>
          </ns3:TrackPointExtension>
        </extensions>
      </trkpt>
      <trkpt lat="43.1231968291103839874267578125" lon="13.0104120634496212005615234375">
        <ele>619.4000244140625</ele>
        <time>2021-05-09T07:44:06.000Z</time>
        <extensions>
          <ns3:TrackPointExtension>
            <ns3:atemp>17.0</ns3:atemp>
          </ns3:TrackPointExtension>
        </extensions>
      </trkpt>
      <trkpt lat="43.12318115495145320892333984375" lon="13.010387085378170013427734375">
        <ele>619.79998779296875</ele>
        <time>2021-05-09T07:44:07.000Z</time>
        <extensions>
          <ns3:TrackPointExtension>
            <ns3:atemp>17.0</ns3:atemp>
          </ns3:TrackPointExtension>
        </extensions>
      </trkpt>
      <trkpt lat="43.123126588761806488037109375" lon="13.0103269033133983612060546875">
        <ele>620.5999755859375</ele>
        <time>2021-05-09T07:44:10.000Z</time>
        <extensions>
          <ns3:TrackPointExtension>
            <ns3:atemp>17.0</ns3:atemp>
          </ns3:TrackPointExtension>
        </extensions>
      </trkpt>
      <trkpt lat="43.12305961735546588897705078125" lon="13.010287843644618988037109375">
        <ele>621.4000244140625</ele>
        <time>2021-05-09T07:44:13.000Z</time>
        <extensions>
          <ns3:TrackPointExtension>
            <ns3:atemp>17.0</ns3:atemp>
          </ns3:TrackPointExtension>
        </extensions>
      </trkpt>
      <trkpt lat="43.1230338849127292633056640625" lon="13.01028080284595489501953125">
        <ele>621.79998779296875</ele>
        <time>2021-05-09T07:44:14.000Z</time>
        <extensions>
          <ns3:TrackPointExtension>
            <ns3:atemp>17.0</ns3:atemp>
          </ns3:TrackPointExtension>
        </extensions>
      </trkpt>
      <trkpt lat="43.1229550950229167938232421875" lon="13.0102766118943691253662109375">
        <ele>622.79998779296875</ele>
        <time>2021-05-09T07:44:17.000Z</time>
        <extensions>
          <ns3:TrackPointExtension>
            <ns3:atemp>17.0</ns3:atemp>
          </ns3:TrackPointExtension>
        </extensions>
      </trkpt>
      <trkpt lat="43.12290170229971408843994140625" lon="13.010277450084686279296875">
        <ele>623.20001220703125</ele>
        <time>2021-05-09T07:44:19.000Z</time>
        <extensions>
          <ns3:TrackPointExtension>
            <ns3:atemp>18.0</ns3:atemp>
          </ns3:TrackPointExtension>
        </extensions>
      </trkpt>
      <trkpt lat="43.12277019023895263671875" lon="13.01029848866164684295654296875">
        <ele>624</ele>
        <time>2021-05-09T07:44:24.000Z</time>
        <extensions>
          <ns3:TrackPointExtension>
            <ns3:atemp>18.0</ns3:atemp>
          </ns3:TrackPointExtension>
        </extensions>
      </trkpt>
      <trkpt lat="43.12272015027701854705810546875" lon="13.01031106151640415191650390625">
        <ele>624.5999755859375</ele>
        <time>2021-05-09T07:44:26.000Z</time>
        <extensions>
          <ns3:TrackPointExtension>
            <ns3:atemp>18.0</ns3:atemp>
          </ns3:TrackPointExtension>
        </extensions>
      </trkpt>
      <trkpt lat="43.12264219857752323150634765625" lon="13.01032581366598606109619140625">
        <ele>625</ele>
        <time>2021-05-09T07:44:29.000Z</time>
        <extensions>
          <ns3:TrackPointExtension>
            <ns3:atemp>18.0</ns3:atemp>
          </ns3:TrackPointExtension>
        </extensions>
      </trkpt>
      <trkpt lat="43.12249350361526012420654296875" lon="13.01036051474511623382568359375">
        <ele>626</ele>
        <time>2021-05-09T07:44:35.000Z</time>
        <extensions>
          <ns3:TrackPointExtension>
            <ns3:atemp>18.0</ns3:atemp>
          </ns3:TrackPointExtension>
        </extensions>
      </trkpt>
      <trkpt lat="43.1224702857434749603271484375" lon="13.01036369986832141876220703125">
        <ele>626.20001220703125</ele>
        <time>2021-05-09T07:44:36.000Z</time>
        <extensions>
          <ns3:TrackPointExtension>
            <ns3:atemp>18.0</ns3:atemp>
          </ns3:TrackPointExtension>
        </extensions>
      </trkpt>
      <trkpt lat="43.1223562918603420257568359375" lon="13.01038448698818683624267578125">
        <ele>627.4000244140625</ele>
        <time>2021-05-09T07:44:41.000Z</time>
        <extensions>
          <ns3:TrackPointExtension>
            <ns3:atemp>18.0</ns3:atemp>
          </ns3:TrackPointExtension>
        </extensions>
      </trkpt>
      <trkpt lat="43.12233558855950832366943359375" lon="13.0103879235684871673583984375">
        <ele>627.79998779296875</ele>
        <time>2021-05-09T07:44:42.000Z</time>
        <extensions>
          <ns3:TrackPointExtension>
            <ns3:atemp>18.0</ns3:atemp>
          </ns3:TrackPointExtension>
        </extensions>
      </trkpt>
      <trkpt lat="43.1222748197615146636962890625" lon="13.01040058024227619171142578125">
        <ele>629</ele>
        <time>2021-05-09T07:44:45.000Z</time>
        <extensions>
          <ns3:TrackPointExtension>
            <ns3:atemp>18.0</ns3:atemp>
          </ns3:TrackPointExtension>
        </extensions>
      </trkpt>
      <trkpt lat="43.12219125218689441680908203125" lon="13.01040812395513057708740234375">
        <ele>630.20001220703125</ele>
        <time>2021-05-09T07:44:50.000Z</time>
        <extensions>
          <ns3:TrackPointExtension>
            <ns3:atemp>18.0</ns3:atemp>
          </ns3:TrackPointExtension>
        </extensions>
      </trkpt>
      <trkpt lat="43.1221692077815532684326171875" lon="13.01040158607065677642822265625">
        <ele>631.20001220703125</ele>
        <time>2021-05-09T07:44:54.000Z</time>
        <extensions>
          <ns3:TrackPointExtension>
            <ns3:atemp>18.0</ns3:atemp>
          </ns3:TrackPointExtension>
        </extensions>
      </trkpt>
      <trkpt lat="43.122167028486728668212890625" lon="13.010399825870990753173828125">
        <ele>631.79998779296875</ele>
        <time>2021-05-09T07:44:56.000Z</time>
        <extensions>
          <ns3:TrackPointExtension>
            <ns3:atemp>18.0</ns3:atemp>
          </ns3:TrackPointExtension>
        </extensions>
      </trkpt>
      <trkpt lat="43.12216660939157009124755859375" lon="13.010399825870990753173828125">
        <ele>632.4000244140625</ele>
        <time>2021-05-09T07:44:59.000Z</time>
        <extensions>
          <ns3:TrackPointExtension>
            <ns3:atemp>18.0</ns3:atemp>
          </ns3:TrackPointExtension>
        </extensions>
      </trkpt>
      <trkpt lat="43.12216660939157009124755859375" lon="13.010399825870990753173828125">
        <ele>632.79998779296875</ele>
        <time>2021-05-09T07:45:10.000Z</time>
        <extensions>
          <ns3:TrackPointExtension>
            <ns3:atemp>18.0</ns3:atemp>
          </ns3:TrackPointExtension>
        </extensions>
      </trkpt>
      <trkpt lat="43.12216258607804775238037109375" lon="13.01040359772741794586181640625">
        <ele>632.79998779296875</ele>
        <time>2021-05-09T07:45:20.000Z</time>
        <extensions>
          <ns3:TrackPointExtension>
            <ns3:atemp>18.0</ns3:atemp>
          </ns3:TrackPointExtension>
        </extensions>
      </trkpt>
      <trkpt lat="43.1221621669828891754150390625" lon="13.010403178632259368896484375">
        <ele>632.79998779296875</ele>
        <time>2021-05-09T07:45:38.000Z</time>
        <extensions>
          <ns3:TrackPointExtension>
            <ns3:atemp>18.0</ns3:atemp>
          </ns3:TrackPointExtension>
        </extensions>
      </trkpt>
      <trkpt lat="43.12216107733547687530517578125" lon="13.01040343008935451507568359375">
        <ele>632.79998779296875</ele>
        <time>2021-05-09T07:45:53.000Z</time>
        <extensions>
          <ns3:TrackPointExtension>
            <ns3:atemp>18.0</ns3:atemp>
          </ns3:TrackPointExtension>
        </extensions>
      </trkpt>
      <trkpt lat="43.122161328792572021484375" lon="13.01040351390838623046875">
        <ele>632.5999755859375</ele>
        <time>2021-05-09T07:46:11.000Z</time>
        <extensions>
          <ns3:TrackPointExtension>
            <ns3:atemp>18.0</ns3:atemp>
          </ns3:TrackPointExtension>
        </extensions>
      </trkpt>
      <trkpt lat="43.12216174788773059844970703125" lon="13.0104016698896884918212890625">
        <ele>632.4000244140625</ele>
        <time>2021-05-09T07:46:26.000Z</time>
        <extensions>
          <ns3:TrackPointExtension>
            <ns3:atemp>18.0</ns3:atemp>
          </ns3:TrackPointExtension>
        </extensions>
      </trkpt>
      <trkpt lat="43.1221581436693668365478515625" lon="13.01039655692875385284423828125">
        <ele>632.5999755859375</ele>
        <time>2021-05-09T07:46:35.000Z</time>
        <extensions>
          <ns3:TrackPointExtension>
            <ns3:atemp>18.0</ns3:atemp>
          </ns3:TrackPointExtension>
        </extensions>
      </trkpt>
      <trkpt lat="43.12215772457420825958251953125" lon="13.010396473109722137451171875">
        <ele>632.5999755859375</ele>
        <time>2021-05-09T07:46:43.000Z</time>
        <extensions>
          <ns3:TrackPointExtension>
            <ns3:atemp>18.0</ns3:atemp>
          </ns3:TrackPointExtension>
        </extensions>
      </trkpt>
      <trkpt lat="43.12215537764132022857666015625" lon="13.01039789803326129913330078125">
        <ele>632.5999755859375</ele>
        <time>2021-05-09T07:46:56.000Z</time>
        <extensions>
          <ns3:TrackPointExtension>
            <ns3:atemp>18.0</ns3:atemp>
          </ns3:TrackPointExtension>
        </extensions>
      </trkpt>
      <trkpt lat="43.1221541203558444976806640625" lon="13.0103986524045467376708984375">
        <ele>632.5999755859375</ele>
        <time>2021-05-09T07:47:05.000Z</time>
        <extensions>
          <ns3:TrackPointExtension>
            <ns3:atemp>18.0</ns3:atemp>
          </ns3:TrackPointExtension>
        </extensions>
      </trkpt>
      <trkpt lat="43.12215386889874935150146484375" lon="13.01038943231105804443359375">
        <ele>632.5999755859375</ele>
        <time>2021-05-09T07:47:13.000Z</time>
        <extensions>
          <ns3:TrackPointExtension>
            <ns3:atemp>18.0</ns3:atemp>
          </ns3:TrackPointExtension>
        </extensions>
      </trkpt>
      <trkpt lat="43.1221537850797176361083984375" lon="13.01038851030170917510986328125">
        <ele>632.5999755859375</ele>
        <time>2021-05-09T07:47:28.000Z</time>
        <extensions>
          <ns3:TrackPointExtension>
            <ns3:atemp>18.0</ns3:atemp>
          </ns3:TrackPointExtension>
        </extensions>
      </trkpt>
      <trkpt lat="43.1221531145274639129638671875" lon="13.010387085378170013427734375">
        <ele>632.4000244140625</ele>
        <time>2021-05-09T07:47:40.000Z</time>
        <extensions>
          <ns3:TrackPointExtension>
            <ns3:atemp>18.0</ns3:atemp>
          </ns3:TrackPointExtension>
        </extensions>
      </trkpt>
      <trkpt lat="43.12215336598455905914306640625" lon="13.01038683392107486724853515625">
        <ele>632.4000244140625</ele>
        <time>2021-05-09T07:47:43.000Z</time>
        <extensions>
          <ns3:TrackPointExtension>
            <ns3:atemp>18.0</ns3:atemp>
          </ns3:TrackPointExtension>
        </extensions>
      </trkpt>
      <trkpt lat="43.1221537850797176361083984375" lon="13.0103845708072185516357421875">
        <ele>632.5999755859375</ele>
        <time>2021-05-09T07:48:02.000Z</time>
        <extensions>
          <ns3:TrackPointExtension>
            <ns3:atemp>18.0</ns3:atemp>
          </ns3:TrackPointExtension>
        </extensions>
      </trkpt>
      <trkpt lat="43.1221521086990833282470703125" lon="13.01038046367466449737548828125">
        <ele>632.5999755859375</ele>
        <time>2021-05-09T07:48:26.000Z</time>
        <extensions>
          <ns3:TrackPointExtension>
            <ns3:atemp>18.0</ns3:atemp>
          </ns3:TrackPointExtension>
        </extensions>
      </trkpt>
      <trkpt lat="43.1221511028707027435302734375" lon="13.0103792063891887664794921875">
        <ele>632.4000244140625</ele>
        <time>2021-05-09T07:48:41.000Z</time>
        <extensions>
          <ns3:TrackPointExtension>
            <ns3:atemp>19.0</ns3:atemp>
          </ns3:TrackPointExtension>
        </extensions>
      </trkpt>
      <trkpt lat="43.12215101905167102813720703125" lon="13.0103778652846813201904296875">
        <ele>632.4000244140625</ele>
        <time>2021-05-09T07:48:47.000Z</time>
        <extensions>
          <ns3:TrackPointExtension>
            <ns3:atemp>19.0</ns3:atemp>
          </ns3:TrackPointExtension>
        </extensions>
      </trkpt>
      <trkpt lat="43.1221504323184490203857421875" lon="13.01037694327533245086669921875">
        <ele>632.5999755859375</ele>
        <time>2021-05-09T07:48:53.000Z</time>
        <extensions>
          <ns3:TrackPointExtension>
            <ns3:atemp>19.0</ns3:atemp>
          </ns3:TrackPointExtension>
        </extensions>
      </trkpt>
      <trkpt lat="43.12214992940425872802734375" lon="13.01037576980888843536376953125">
        <ele>632.5999755859375</ele>
        <time>2021-05-09T07:49:11.000Z</time>
        <extensions>
          <ns3:TrackPointExtension>
            <ns3:atemp>19.0</ns3:atemp>
          </ns3:TrackPointExtension>
        </extensions>
      </trkpt>
      <trkpt lat="43.12215370126068592071533203125" lon="13.0103674717247486114501953125">
        <ele>632.5999755859375</ele>
        <time>2021-05-09T07:49:19.000Z</time>
        <extensions>
          <ns3:TrackPointExtension>
            <ns3:atemp>20.0</ns3:atemp>
          </ns3:TrackPointExtension>
        </extensions>
      </trkpt>
      <trkpt lat="43.122169710695743560791015625" lon="13.01027803681790828704833984375">
        <ele>632.5999755859375</ele>
        <time>2021-05-09T07:49:24.000Z</time>
        <extensions>
          <ns3:TrackPointExtension>
            <ns3:atemp>20.0</ns3:atemp>
          </ns3:TrackPointExtension>
        </extensions>
      </trkpt>
      <trkpt lat="43.12225596047937870025634765625" lon="13.01007485948503017425537109375">
        <ele>632.79998779296875</ele>
        <time>2021-05-09T07:49:32.000Z</time>
        <extensions>
          <ns3:TrackPointExtension>
            <ns3:atemp>20.0</ns3:atemp>
          </ns3:TrackPointExtension>
        </extensions>
      </trkpt>
      <trkpt lat="43.1222994625568389892578125" lon="13.0099943093955516815185546875">
        <ele>633.4000244140625</ele>
        <time>2021-05-09T07:49:35.000Z</time>
        <extensions>
          <ns3:TrackPointExtension>
            <ns3:atemp>20.0</ns3:atemp>
          </ns3:TrackPointExtension>
        </extensions>
      </trkpt>
      <trkpt lat="43.12236894853413105010986328125" lon="13.00986916758120059967041015625">
        <ele>634.20001220703125</ele>
        <time>2021-05-09T07:49:40.000Z</time>
        <extensions>
          <ns3:TrackPointExtension>
            <ns3:atemp>20.0</ns3:atemp>
          </ns3:TrackPointExtension>
        </extensions>
      </trkpt>
      <trkpt lat="43.12240582890808582305908203125" lon="13.00975081510841846466064453125">
        <ele>635.4000244140625</ele>
        <time>2021-05-09T07:49:44.000Z</time>
        <extensions>
          <ns3:TrackPointExtension>
            <ns3:atemp>20.0</ns3:atemp>
          </ns3:TrackPointExtension>
        </extensions>
      </trkpt>
      <trkpt lat="43.12240415252745151519775390625" lon="13.0096902139484882354736328125">
        <ele>635.79998779296875</ele>
        <time>2021-05-09T07:49:46.000Z</time>
        <extensions>
          <ns3:TrackPointExtension>
            <ns3:atemp>20.0</ns3:atemp>
          </ns3:TrackPointExtension>
        </extensions>
      </trkpt>
      <trkpt lat="43.1223703734576702117919921875" lon="13.00961234606802463531494140625">
        <ele>636.4000244140625</ele>
        <time>2021-05-09T07:49:49.000Z</time>
        <extensions>
          <ns3:TrackPointExtension>
            <ns3:atemp>20.0</ns3:atemp>
          </ns3:TrackPointExtension>
        </extensions>
      </trkpt>
      <trkpt lat="43.12233793549239635467529296875" lon="13.0095825903117656707763671875">
        <ele>637.20001220703125</ele>
        <time>2021-05-09T07:49:51.000Z</time>
        <extensions>
          <ns3:TrackPointExtension>
            <ns3:atemp>20.0</ns3:atemp>
          </ns3:TrackPointExtension>
        </extensions>
      </trkpt>
      <trkpt lat="43.12231781892478466033935546875" lon="13.0095732025802135467529296875">
        <ele>637.5999755859375</ele>
        <time>2021-05-09T07:49:52.000Z</time>
        <extensions>
          <ns3:TrackPointExtension>
            <ns3:atemp>20.0</ns3:atemp>
          </ns3:TrackPointExtension>
        </extensions>
      </trkpt>
      <trkpt lat="43.12227305956184864044189453125" lon="13.00957730971276760101318359375">
        <ele>638.20001220703125</ele>
        <time>2021-05-09T07:49:54.000Z</time>
        <extensions>
          <ns3:TrackPointExtension>
            <ns3:atemp>20.0</ns3:atemp>
          </ns3:TrackPointExtension>
        </extensions>
      </trkpt>
      <trkpt lat="43.12225093133747577667236328125" lon="13.00958083011209964752197265625">
        <ele>638.5999755859375</ele>
        <time>2021-05-09T07:49:55.000Z</time>
        <extensions>
          <ns3:TrackPointExtension>
            <ns3:atemp>20.0</ns3:atemp>
          </ns3:TrackPointExtension>
        </extensions>
      </trkpt>
      <trkpt lat="43.12223115004599094390869140625" lon="13.00958133302628993988037109375">
        <ele>638.79998779296875</ele>
        <time>2021-05-09T07:49:56.000Z</time>
        <extensions>
          <ns3:TrackPointExtension>
            <ns3:atemp>20.0</ns3:atemp>
          </ns3:TrackPointExtension>
        </extensions>
      </trkpt>
      <trkpt lat="43.1221410445868968963623046875" lon="13.009613938629627227783203125">
        <ele>640</ele>
        <time>2021-05-09T07:50:00.000Z</time>
        <extensions>
          <ns3:TrackPointExtension>
            <ns3:atemp>20.0</ns3:atemp>
          </ns3:TrackPointExtension>
        </extensions>
      </trkpt>
      <trkpt lat="43.12211573123931884765625" lon="13.009624667465686798095703125">
        <ele>640.20001220703125</ele>
        <time>2021-05-09T07:50:01.000Z</time>
        <extensions>
          <ns3:TrackPointExtension>
            <ns3:atemp>20.0</ns3:atemp>
          </ns3:TrackPointExtension>
        </extensions>
      </trkpt>
      <trkpt lat="43.122018836438655853271484375" lon="13.009666912257671356201171875">
        <ele>641</ele>
        <time>2021-05-09T07:50:05.000Z</time>
        <extensions>
          <ns3:TrackPointExtension>
            <ns3:atemp>20.0</ns3:atemp>
          </ns3:TrackPointExtension>
        </extensions>
      </trkpt>
      <trkpt lat="43.12193845398724079132080078125" lon="13.00969817675650119781494140625">
        <ele>641.20001220703125</ele>
        <time>2021-05-09T07:50:08.000Z</time>
        <extensions>
          <ns3:TrackPointExtension>
            <ns3:atemp>20.0</ns3:atemp>
          </ns3:TrackPointExtension>
        </extensions>
      </trkpt>
      <trkpt lat="43.1218332611024379730224609375" lon="13.00973807461559772491455078125">
        <ele>642</ele>
        <time>2021-05-09T07:50:12.000Z</time>
        <extensions>
          <ns3:TrackPointExtension>
            <ns3:atemp>20.0</ns3:atemp>
          </ns3:TrackPointExtension>
        </extensions>
      </trkpt>
      <trkpt lat="43.12176310457289218902587890625" lon="13.00974260084331035614013671875">
        <ele>642.4000244140625</ele>
        <time>2021-05-09T07:50:15.000Z</time>
        <extensions>
          <ns3:TrackPointExtension>
            <ns3:atemp>20.0</ns3:atemp>
          </ns3:TrackPointExtension>
        </extensions>
      </trkpt>
      <trkpt lat="43.1217273138463497161865234375" lon="13.00966783426702022552490234375">
        <ele>643.20001220703125</ele>
        <time>2021-05-09T07:50:19.000Z</time>
        <extensions>
          <ns3:TrackPointExtension>
            <ns3:atemp>20.0</ns3:atemp>
          </ns3:TrackPointExtension>
        </extensions>
      </trkpt>
      <trkpt lat="43.12173158861696720123291015625" lon="13.0096392519772052764892578125">
        <ele>643.5999755859375</ele>
        <time>2021-05-09T07:50:20.000Z</time>
        <extensions>
          <ns3:TrackPointExtension>
            <ns3:atemp>20.0</ns3:atemp>
          </ns3:TrackPointExtension>
        </extensions>
      </trkpt>
      <trkpt lat="43.12175371684134006500244140625" lon="13.0095856077969074249267578125">
        <ele>644</ele>
        <time>2021-05-09T07:50:22.000Z</time>
        <extensions>
          <ns3:TrackPointExtension>
            <ns3:atemp>20.0</ns3:atemp>
          </ns3:TrackPointExtension>
        </extensions>
      </trkpt>
      <trkpt lat="43.1217668764293193817138671875" lon="13.00956037826836109161376953125">
        <ele>644.4000244140625</ele>
        <time>2021-05-09T07:50:23.000Z</time>
        <extensions>
          <ns3:TrackPointExtension>
            <ns3:atemp>20.0</ns3:atemp>
          </ns3:TrackPointExtension>
        </extensions>
      </trkpt>
      <trkpt lat="43.12181591056287288665771484375" lon="13.009490557014942169189453125">
        <ele>645.4000244140625</ele>
        <time>2021-05-09T07:50:26.000Z</time>
        <extensions>
          <ns3:TrackPointExtension>
            <ns3:atemp>20.0</ns3:atemp>
          </ns3:TrackPointExtension>
        </extensions>
      </trkpt>
      <trkpt lat="43.12182999216020107269287109375" lon="13.009463064372539520263671875">
        <ele>645.79998779296875</ele>
        <time>2021-05-09T07:50:27.000Z</time>
        <extensions>
          <ns3:TrackPointExtension>
            <ns3:atemp>20.0</ns3:atemp>
          </ns3:TrackPointExtension>
        </extensions>
      </trkpt>
      <trkpt lat="43.1218676269054412841796875" lon="13.009377233684062957763671875">
        <ele>646.4000244140625</ele>
        <time>2021-05-09T07:50:30.000Z</time>
        <extensions>
          <ns3:TrackPointExtension>
            <ns3:atemp>20.0</ns3:atemp>
          </ns3:TrackPointExtension>
        </extensions>
      </trkpt>
      <trkpt lat="43.12192588113248348236083984375" lon="13.0092640779912471771240234375">
        <ele>648.20001220703125</ele>
        <time>2021-05-09T07:50:34.000Z</time>
        <extensions>
          <ns3:TrackPointExtension>
            <ns3:atemp>20.0</ns3:atemp>
          </ns3:TrackPointExtension>
        </extensions>
      </trkpt>
      <trkpt lat="43.12198941595852375030517578125" lon="13.00912921316921710968017578125">
        <ele>649.20001220703125</ele>
        <time>2021-05-09T07:50:39.000Z</time>
        <extensions>
          <ns3:TrackPointExtension>
            <ns3:atemp>20.0</ns3:atemp>
          </ns3:TrackPointExtension>
        </extensions>
      </trkpt>
      <trkpt lat="43.12208714894950389862060546875" lon="13.0089475773274898529052734375">
        <ele>650.20001220703125</ele>
        <time>2021-05-09T07:50:46.000Z</time>
        <extensions>
          <ns3:TrackPointExtension>
            <ns3:atemp>20.0</ns3:atemp>
          </ns3:TrackPointExtension>
        </extensions>
      </trkpt>
      <trkpt lat="43.12210273928940296173095703125" lon="13.008924610912799835205078125">
        <ele>650.4000244140625</ele>
        <time>2021-05-09T07:50:47.000Z</time>
        <extensions>
          <ns3:TrackPointExtension>
            <ns3:atemp>20.0</ns3:atemp>
          </ns3:TrackPointExtension>
        </extensions>
      </trkpt>
      <trkpt lat="43.12215856276452541351318359375" lon="13.0088241957128047943115234375">
        <ele>651.5999755859375</ele>
        <time>2021-05-09T07:50:51.000Z</time>
        <extensions>
          <ns3:TrackPointExtension>
            <ns3:atemp>20.0</ns3:atemp>
          </ns3:TrackPointExtension>
        </extensions>
      </trkpt>
      <trkpt lat="43.12221254222095012664794921875" lon="13.0087262950837612152099609375">
        <ele>652.20001220703125</ele>
        <time>2021-05-09T07:50:55.000Z</time>
        <extensions>
          <ns3:TrackPointExtension>
            <ns3:atemp>20.0</ns3:atemp>
          </ns3:TrackPointExtension>
        </extensions>
      </trkpt>
      <trkpt lat="43.12224087305366992950439453125" lon="13.0086817033588886260986328125">
        <ele>652.5999755859375</ele>
        <time>2021-05-09T07:50:57.000Z</time>
        <extensions>
          <ns3:TrackPointExtension>
            <ns3:atemp>20.0</ns3:atemp>
          </ns3:TrackPointExtension>
        </extensions>
      </trkpt>
      <trkpt lat="43.12230013310909271240234375" lon="13.0085975490510463714599609375">
        <ele>653.5999755859375</ele>
        <time>2021-05-09T07:51:01.000Z</time>
        <extensions>
          <ns3:TrackPointExtension>
            <ns3:atemp>20.0</ns3:atemp>
          </ns3:TrackPointExtension>
        </extensions>
      </trkpt>
      <trkpt lat="43.122342042624950408935546875" lon="13.0085368640720844268798828125">
        <ele>654.79998779296875</ele>
        <time>2021-05-09T07:51:04.000Z</time>
        <extensions>
          <ns3:TrackPointExtension>
            <ns3:atemp>20.0</ns3:atemp>
          </ns3:TrackPointExtension>
        </extensions>
      </trkpt>
      <trkpt lat="43.12240339815616607666015625" lon="13.0084671266376972198486328125">
        <ele>655.79998779296875</ele>
        <time>2021-05-09T07:51:08.000Z</time>
        <extensions>
          <ns3:TrackPointExtension>
            <ns3:atemp>20.0</ns3:atemp>
          </ns3:TrackPointExtension>
        </extensions>
      </trkpt>
      <trkpt lat="43.12246534042060375213623046875" lon="13.0084111355245113372802734375">
        <ele>657</ele>
        <time>2021-05-09T07:51:12.000Z</time>
        <extensions>
          <ns3:TrackPointExtension>
            <ns3:atemp>20.0</ns3:atemp>
          </ns3:TrackPointExtension>
        </extensions>
      </trkpt>
      <trkpt lat="43.12248193658888339996337890625" lon="13.00839881412684917449951171875">
        <ele>657.20001220703125</ele>
        <time>2021-05-09T07:51:13.000Z</time>
        <extensions>
          <ns3:TrackPointExtension>
            <ns3:atemp>20.0</ns3:atemp>
          </ns3:TrackPointExtension>
        </extensions>
      </trkpt>
      <trkpt lat="43.12253524549305438995361328125" lon="13.00836847163736820220947265625">
        <ele>658</ele>
        <time>2021-05-09T07:51:16.000Z</time>
        <extensions>
          <ns3:TrackPointExtension>
            <ns3:atemp>20.0</ns3:atemp>
          </ns3:TrackPointExtension>
        </extensions>
      </trkpt>
      <trkpt lat="43.12260246835649013519287109375" lon="13.0083206109702587127685546875">
        <ele>659</ele>
        <time>2021-05-09T07:51:20.000Z</time>
        <extensions>
          <ns3:TrackPointExtension>
            <ns3:atemp>19.0</ns3:atemp>
          </ns3:TrackPointExtension>
        </extensions>
      </trkpt>
      <trkpt lat="43.122637085616588592529296875" lon="13.0083092115819454193115234375">
        <ele>659.5999755859375</ele>
        <time>2021-05-09T07:51:22.000Z</time>
        <extensions>
          <ns3:TrackPointExtension>
            <ns3:atemp>19.0</ns3:atemp>
          </ns3:TrackPointExtension>
        </extensions>
      </trkpt>
      <trkpt lat="43.12268192879855632781982421875" lon="13.00831281580030918121337890625">
        <ele>660.20001220703125</ele>
        <time>2021-05-09T07:51:24.000Z</time>
        <extensions>
          <ns3:TrackPointExtension>
            <ns3:atemp>19.0</ns3:atemp>
          </ns3:TrackPointExtension>
        </extensions>
      </trkpt>
      <trkpt lat="43.1227643229067325592041015625" lon="13.00829001702368259429931640625">
        <ele>661.20001220703125</ele>
        <time>2021-05-09T07:51:28.000Z</time>
        <extensions>
          <ns3:TrackPointExtension>
            <ns3:atemp>19.0</ns3:atemp>
          </ns3:TrackPointExtension>
        </extensions>
      </trkpt>
      <trkpt lat="43.12280698679387569427490234375" lon="13.008283562958240509033203125">
        <ele>661.79998779296875</ele>
        <time>2021-05-09T07:51:30.000Z</time>
        <extensions>
          <ns3:TrackPointExtension>
            <ns3:atemp>19.0</ns3:atemp>
          </ns3:TrackPointExtension>
        </extensions>
      </trkpt>
      <trkpt lat="43.122849650681018829345703125" lon="13.00827853381633758544921875">
        <ele>662.4000244140625</ele>
        <time>2021-05-09T07:51:32.000Z</time>
        <extensions>
          <ns3:TrackPointExtension>
            <ns3:atemp>19.0</ns3:atemp>
          </ns3:TrackPointExtension>
        </extensions>
      </trkpt>
      <trkpt lat="43.12289650551974773406982421875" lon="13.00827157683670520782470703125">
        <ele>663</ele>
        <time>2021-05-09T07:51:36.000Z</time>
        <extensions>
          <ns3:TrackPointExtension>
            <ns3:atemp>19.0</ns3:atemp>
          </ns3:TrackPointExtension>
        </extensions>
      </trkpt>
      <trkpt lat="43.12289583496749401092529296875" lon="13.008269481360912322998046875">
        <ele>663.4000244140625</ele>
        <time>2021-05-09T07:51:37.000Z</time>
        <extensions>
          <ns3:TrackPointExtension>
            <ns3:atemp>19.0</ns3:atemp>
          </ns3:TrackPointExtension>
        </extensions>
      </trkpt>
      <trkpt lat="43.1228873692452907562255859375" lon="13.00824190489947795867919921875">
        <ele>664.5999755859375</ele>
        <time>2021-05-09T07:51:41.000Z</time>
        <extensions>
          <ns3:TrackPointExtension>
            <ns3:atemp>19.0</ns3:atemp>
          </ns3:TrackPointExtension>
        </extensions>
      </trkpt>
      <trkpt lat="43.1228863634169101715087890625" lon="13.00824274308979511260986328125">
        <ele>665</ele>
        <time>2021-05-09T07:51:43.000Z</time>
        <extensions>
          <ns3:TrackPointExtension>
            <ns3:atemp>19.0</ns3:atemp>
          </ns3:TrackPointExtension>
        </extensions>
      </trkpt>
      <trkpt lat="43.12291796319186687469482421875" lon="13.0082334391772747039794921875">
        <ele>665.20001220703125</ele>
        <time>2021-05-09T07:51:52.000Z</time>
        <extensions>
          <ns3:TrackPointExtension>
            <ns3:atemp>20.0</ns3:atemp>
          </ns3:TrackPointExtension>
        </extensions>
      </trkpt>
      <trkpt lat="43.1229993514716625213623046875" lon="13.0082310922443866729736328125">
        <ele>665.4000244140625</ele>
        <time>2021-05-09T07:51:59.000Z</time>
        <extensions>
          <ns3:TrackPointExtension>
            <ns3:atemp>20.0</ns3:atemp>
          </ns3:TrackPointExtension>
        </extensions>
      </trkpt>
      <trkpt lat="43.1230858527123928070068359375" lon="13.0082347802817821502685546875">
        <ele>665.4000244140625</ele>
        <time>2021-05-09T07:52:03.000Z</time>
        <extensions>
          <ns3:TrackPointExtension>
            <ns3:atemp>20.0</ns3:atemp>
          </ns3:TrackPointExtension>
        </extensions>
      </trkpt>
      <trkpt lat="43.12314796261489391326904296875" lon="13.0082274042069911956787109375">
        <ele>665.5999755859375</ele>
        <time>2021-05-09T07:52:06.000Z</time>
        <extensions>
          <ns3:TrackPointExtension>
            <ns3:atemp>20.0</ns3:atemp>
          </ns3:TrackPointExtension>
        </extensions>
      </trkpt>
      <trkpt lat="43.1232390739023685455322265625" lon="13.0082096345722675323486328125">
        <ele>666.5999755859375</ele>
        <time>2021-05-09T07:52:11.000Z</time>
        <extensions>
          <ns3:TrackPointExtension>
            <ns3:atemp>20.0</ns3:atemp>
          </ns3:TrackPointExtension>
        </extensions>
      </trkpt>
      <trkpt lat="43.1232967413961887359619140625" lon="13.00818993709981441497802734375">
        <ele>667.4000244140625</ele>
        <time>2021-05-09T07:52:14.000Z</time>
        <extensions>
          <ns3:TrackPointExtension>
            <ns3:atemp>20.0</ns3:atemp>
          </ns3:TrackPointExtension>
        </extensions>
      </trkpt>
      <trkpt lat="43.123334459960460662841796875" lon="13.00817552022635936737060546875">
        <ele>667.79998779296875</ele>
        <time>2021-05-09T07:52:16.000Z</time>
        <extensions>
          <ns3:TrackPointExtension>
            <ns3:atemp>20.0</ns3:atemp>
          </ns3:TrackPointExtension>
        </extensions>
      </trkpt>
      <trkpt lat="43.123410232365131378173828125" lon="13.00816319882869720458984375">
        <ele>669</ele>
        <time>2021-05-09T07:52:20.000Z</time>
        <extensions>
          <ns3:TrackPointExtension>
            <ns3:atemp>20.0</ns3:atemp>
          </ns3:TrackPointExtension>
        </extensions>
      </trkpt>
      <trkpt lat="43.12348759733140468597412109375" lon="13.008120954036712646484375">
        <ele>670</ele>
        <time>2021-05-09T07:52:24.000Z</time>
        <extensions>
          <ns3:TrackPointExtension>
            <ns3:atemp>20.0</ns3:atemp>
          </ns3:TrackPointExtension>
        </extensions>
      </trkpt>
      <trkpt lat="43.12355213798582553863525390625" lon="13.00811064429581165313720703125">
        <ele>670.5999755859375</ele>
        <time>2021-05-09T07:52:27.000Z</time>
        <extensions>
          <ns3:TrackPointExtension>
            <ns3:atemp>20.0</ns3:atemp>
          </ns3:TrackPointExtension>
        </extensions>
      </trkpt>
      <trkpt lat="43.1235927902162075042724609375" lon="13.00810142420232295989990234375">
        <ele>671.4000244140625</ele>
        <time>2021-05-09T07:52:29.000Z</time>
        <extensions>
          <ns3:TrackPointExtension>
            <ns3:atemp>20.0</ns3:atemp>
          </ns3:TrackPointExtension>
        </extensions>
      </trkpt>
      <trkpt lat="43.12367334030568599700927734375" lon="13.0080818943679332733154296875">
        <ele>672.5999755859375</ele>
        <time>2021-05-09T07:52:33.000Z</time>
        <extensions>
          <ns3:TrackPointExtension>
            <ns3:atemp>20.0</ns3:atemp>
          </ns3:TrackPointExtension>
        </extensions>
      </trkpt>
      <trkpt lat="43.12369395978748798370361328125" lon="13.00807627849280834197998046875">
        <ele>672.79998779296875</ele>
        <time>2021-05-09T07:52:34.000Z</time>
        <extensions>
          <ns3:TrackPointExtension>
            <ns3:atemp>20.0</ns3:atemp>
          </ns3:TrackPointExtension>
        </extensions>
      </trkpt>
      <trkpt lat="43.12375598587095737457275390625" lon="13.0080627836287021636962890625">
        <ele>673.5999755859375</ele>
        <time>2021-05-09T07:52:37.000Z</time>
        <extensions>
          <ns3:TrackPointExtension>
            <ns3:atemp>20.0</ns3:atemp>
          </ns3:TrackPointExtension>
        </extensions>
      </trkpt>
      <trkpt lat="43.1238375417888164520263671875" lon="13.008047528564929962158203125">
        <ele>674.5999755859375</ele>
        <time>2021-05-09T07:52:41.000Z</time>
        <extensions>
          <ns3:TrackPointExtension>
            <ns3:atemp>20.0</ns3:atemp>
          </ns3:TrackPointExtension>
        </extensions>
      </trkpt>
      <trkpt lat="43.12385447323322296142578125" lon="13.00804425962269306182861328125">
        <ele>675</ele>
        <time>2021-05-09T07:52:42.000Z</time>
        <extensions>
          <ns3:TrackPointExtension>
            <ns3:atemp>20.0</ns3:atemp>
          </ns3:TrackPointExtension>
        </extensions>
      </trkpt>
      <trkpt lat="43.1239079497754573822021484375" lon="13.00801827572286128997802734375">
        <ele>676</ele>
        <time>2021-05-09T07:52:45.000Z</time>
        <extensions>
          <ns3:TrackPointExtension>
            <ns3:atemp>20.0</ns3:atemp>
          </ns3:TrackPointExtension>
        </extensions>
      </trkpt>
      <trkpt lat="43.12396670691668987274169921875" lon="13.008002601563930511474609375">
        <ele>676.79998779296875</ele>
        <time>2021-05-09T07:52:48.000Z</time>
        <extensions>
          <ns3:TrackPointExtension>
            <ns3:atemp>20.0</ns3:atemp>
          </ns3:TrackPointExtension>
        </extensions>
      </trkpt>
      <trkpt lat="43.12403862364590167999267578125" lon="13.00796203315258026123046875">
        <ele>678</ele>
        <time>2021-05-09T07:52:53.000Z</time>
        <extensions>
          <ns3:TrackPointExtension>
            <ns3:atemp>20.0</ns3:atemp>
          </ns3:TrackPointExtension>
        </extensions>
      </trkpt>
      <trkpt lat="43.1240670382976531982421875" lon="13.00794661045074462890625">
        <ele>678.20001220703125</ele>
        <time>2021-05-09T07:52:55.000Z</time>
        <extensions>
          <ns3:TrackPointExtension>
            <ns3:atemp>20.0</ns3:atemp>
          </ns3:TrackPointExtension>
        </extensions>
      </trkpt>
      <trkpt lat="43.12411598861217498779296875" lon="13.00786891020834445953369140625">
        <ele>679</ele>
        <time>2021-05-09T07:52:59.000Z</time>
        <extensions>
          <ns3:TrackPointExtension>
            <ns3:atemp>20.0</ns3:atemp>
          </ns3:TrackPointExtension>
        </extensions>
      </trkpt>
      <trkpt lat="43.124140799045562744140625" lon="13.0078264139592647552490234375">
        <ele>679.4000244140625</ele>
        <time>2021-05-09T07:53:01.000Z</time>
        <extensions>
          <ns3:TrackPointExtension>
            <ns3:atemp>20.0</ns3:atemp>
          </ns3:TrackPointExtension>
        </extensions>
      </trkpt>
      <trkpt lat="43.12418036162853240966796875" lon="13.00774368457496166229248046875">
        <ele>680.20001220703125</ele>
        <time>2021-05-09T07:53:05.000Z</time>
        <extensions>
          <ns3:TrackPointExtension>
            <ns3:atemp>20.0</ns3:atemp>
          </ns3:TrackPointExtension>
        </extensions>
      </trkpt>
      <trkpt lat="43.1242038309574127197265625" lon="13.00764955580234527587890625">
        <ele>681.20001220703125</ele>
        <time>2021-05-09T07:53:09.000Z</time>
        <extensions>
          <ns3:TrackPointExtension>
            <ns3:atemp>20.0</ns3:atemp>
          </ns3:TrackPointExtension>
        </extensions>
      </trkpt>
      <trkpt lat="43.12420542351901531219482421875" lon="13.00762047059834003448486328125">
        <ele>681.4000244140625</ele>
        <time>2021-05-09T07:53:10.000Z</time>
        <extensions>
          <ns3:TrackPointExtension>
            <ns3:atemp>20.0</ns3:atemp>
          </ns3:TrackPointExtension>
        </extensions>
      </trkpt>
      <trkpt lat="43.12421514652669429779052734375" lon="13.00742818973958492279052734375">
        <ele>682.4000244140625</ele>
        <time>2021-05-09T07:53:16.000Z</time>
        <extensions>
          <ns3:TrackPointExtension>
            <ns3:atemp>20.0</ns3:atemp>
          </ns3:TrackPointExtension>
        </extensions>
      </trkpt>
      <trkpt lat="43.1242187507450580596923828125" lon="13.0073962546885013580322265625">
        <ele>682.5999755859375</ele>
        <time>2021-05-09T07:53:17.000Z</time>
        <extensions>
          <ns3:TrackPointExtension>
            <ns3:atemp>20.0</ns3:atemp>
          </ns3:TrackPointExtension>
        </extensions>
      </trkpt>
      <trkpt lat="43.124226294457912445068359375" lon="13.00727262161672115325927734375">
        <ele>683.5999755859375</ele>
        <time>2021-05-09T07:53:21.000Z</time>
        <extensions>
          <ns3:TrackPointExtension>
            <ns3:atemp>20.0</ns3:atemp>
          </ns3:TrackPointExtension>
        </extensions>
      </trkpt>
      <trkpt lat="43.12422134913504123687744140625" lon="13.00720565021038055419921875">
        <ele>684</ele>
        <time>2021-05-09T07:53:23.000Z</time>
        <extensions>
          <ns3:TrackPointExtension>
            <ns3:atemp>20.0</ns3:atemp>
          </ns3:TrackPointExtension>
        </extensions>
      </trkpt>
      <trkpt lat="43.12420978210866451263427734375" lon="13.00706139765679836273193359375">
        <ele>684.79998779296875</ele>
        <time>2021-05-09T07:53:27.000Z</time>
        <extensions>
          <ns3:TrackPointExtension>
            <ns3:atemp>20.0</ns3:atemp>
          </ns3:TrackPointExtension>
        </extensions>
      </trkpt>
      <trkpt lat="43.1241848878562450408935546875" lon="13.0070063285529613494873046875">
        <ele>685.20001220703125</ele>
        <time>2021-05-09T07:53:29.000Z</time>
        <extensions>
          <ns3:TrackPointExtension>
            <ns3:atemp>20.0</ns3:atemp>
          </ns3:TrackPointExtension>
        </extensions>
      </trkpt>
      <trkpt lat="43.12409746460616588592529296875" lon="13.00698143430054187774658203125">
        <ele>685.79998779296875</ele>
        <time>2021-05-09T07:53:33.000Z</time>
        <extensions>
          <ns3:TrackPointExtension>
            <ns3:atemp>20.0</ns3:atemp>
          </ns3:TrackPointExtension>
        </extensions>
      </trkpt>
      <trkpt lat="43.12402772717177867889404296875" lon="13.00705737434327602386474609375">
        <ele>686.79998779296875</ele>
        <time>2021-05-09T07:53:37.000Z</time>
        <extensions>
          <ns3:TrackPointExtension>
            <ns3:atemp>20.0</ns3:atemp>
          </ns3:TrackPointExtension>
        </extensions>
      </trkpt>
      <trkpt lat="43.124018423259258270263671875" lon="13.007085621356964111328125">
        <ele>687</ele>
        <time>2021-05-09T07:53:38.000Z</time>
        <extensions>
          <ns3:TrackPointExtension>
            <ns3:atemp>20.0</ns3:atemp>
          </ns3:TrackPointExtension>
        </extensions>
      </trkpt>
      <trkpt lat="43.12400090508162975311279296875" lon="13.00718553364276885986328125">
        <ele>687.79998779296875</ele>
        <time>2021-05-09T07:53:41.000Z</time>
        <extensions>
          <ns3:TrackPointExtension>
            <ns3:atemp>20.0</ns3:atemp>
          </ns3:TrackPointExtension>
        </extensions>
      </trkpt>
      <trkpt lat="43.123978860676288604736328125" lon="13.00729910843074321746826171875">
        <ele>688.5999755859375</ele>
        <time>2021-05-09T07:53:45.000Z</time>
        <extensions>
          <ns3:TrackPointExtension>
            <ns3:atemp>20.0</ns3:atemp>
          </ns3:TrackPointExtension>
        </extensions>
      </trkpt>
      <trkpt lat="43.1239756755530834197998046875" lon="13.00732844509184360504150390625">
        <ele>688.79998779296875</ele>
        <time>2021-05-09T07:53:46.000Z</time>
        <extensions>
          <ns3:TrackPointExtension>
            <ns3:atemp>20.0</ns3:atemp>
          </ns3:TrackPointExtension>
        </extensions>
      </trkpt>
      <trkpt lat="43.1239361129701137542724609375" lon="13.0074693448841571807861328125">
        <ele>689.5999755859375</ele>
        <time>2021-05-09T07:53:51.000Z</time>
        <extensions>
          <ns3:TrackPointExtension>
            <ns3:atemp>20.0</ns3:atemp>
          </ns3:TrackPointExtension>
        </extensions>
      </trkpt>
      <trkpt lat="43.12390401028096675872802734375" lon="13.00751251168549060821533203125">
        <ele>689.79998779296875</ele>
        <time>2021-05-09T07:53:53.000Z</time>
        <extensions>
          <ns3:TrackPointExtension>
            <ns3:atemp>20.0</ns3:atemp>
          </ns3:TrackPointExtension>
        </extensions>
      </trkpt>
      <trkpt lat="43.12384332530200481414794921875" lon="13.00753396935760974884033203125">
        <ele>690.20001220703125</ele>
        <time>2021-05-09T07:53:56.000Z</time>
        <extensions>
          <ns3:TrackPointExtension>
            <ns3:atemp>20.0</ns3:atemp>
          </ns3:TrackPointExtension>
        </extensions>
      </trkpt>
      <trkpt lat="43.12379521317780017852783203125" lon="13.007482588291168212890625">
        <ele>690.79998779296875</ele>
        <time>2021-05-09T07:53:59.000Z</time>
        <extensions>
          <ns3:TrackPointExtension>
            <ns3:atemp>20.0</ns3:atemp>
          </ns3:TrackPointExtension>
        </extensions>
      </trkpt>
      <trkpt lat="43.1237827241420745849609375" lon="13.007424585521221160888671875">
        <ele>691.20001220703125</ele>
        <time>2021-05-09T07:54:01.000Z</time>
        <extensions>
          <ns3:TrackPointExtension>
            <ns3:atemp>20.0</ns3:atemp>
          </ns3:TrackPointExtension>
        </extensions>
      </trkpt>
      <trkpt lat="43.123781718313694000244140625" lon="13.007300533354282379150390625">
        <ele>692</ele>
        <time>2021-05-09T07:54:05.000Z</time>
        <extensions>
          <ns3:TrackPointExtension>
            <ns3:atemp>20.0</ns3:atemp>
          </ns3:TrackPointExtension>
        </extensions>
      </trkpt>
      <trkpt lat="43.1237912736833095550537109375" lon="13.0072410218417644500732421875">
        <ele>692.4000244140625</ele>
        <time>2021-05-09T07:54:07.000Z</time>
        <extensions>
          <ns3:TrackPointExtension>
            <ns3:atemp>20.0</ns3:atemp>
          </ns3:TrackPointExtension>
        </extensions>
      </trkpt>
      <trkpt lat="43.12379487790167331695556640625" lon="13.00721109844744205474853515625">
        <ele>692.79998779296875</ele>
        <time>2021-05-09T07:54:08.000Z</time>
        <extensions>
          <ns3:TrackPointExtension>
            <ns3:atemp>20.0</ns3:atemp>
          </ns3:TrackPointExtension>
        </extensions>
      </trkpt>
      <trkpt lat="43.123801834881305694580078125" lon="13.00715795718133449554443359375">
        <ele>693.20001220703125</ele>
        <time>2021-05-09T07:54:10.000Z</time>
        <extensions>
          <ns3:TrackPointExtension>
            <ns3:atemp>20.0</ns3:atemp>
          </ns3:TrackPointExtension>
        </extensions>
      </trkpt>
      <trkpt lat="43.123813569545745849609375" lon="13.00703759305179119110107421875">
        <ele>693.79998779296875</ele>
        <time>2021-05-09T07:54:14.000Z</time>
        <extensions>
          <ns3:TrackPointExtension>
            <ns3:atemp>20.0</ns3:atemp>
          </ns3:TrackPointExtension>
        </extensions>
      </trkpt>
      <trkpt lat="43.123820610344409942626953125" lon="13.00697724334895610809326171875">
        <ele>694.20001220703125</ele>
        <time>2021-05-09T07:54:16.000Z</time>
        <extensions>
          <ns3:TrackPointExtension>
            <ns3:atemp>20.0</ns3:atemp>
          </ns3:TrackPointExtension>
        </extensions>
      </trkpt>
      <trkpt lat="43.123842068016529083251953125" lon="13.0067972838878631591796875">
        <ele>695.4000244140625</ele>
        <time>2021-05-09T07:54:22.000Z</time>
        <extensions>
          <ns3:TrackPointExtension>
            <ns3:atemp>20.0</ns3:atemp>
          </ns3:TrackPointExtension>
        </extensions>
      </trkpt>
      <trkpt lat="43.12386612407863140106201171875" lon="13.00664800219237804412841796875">
        <ele>696.4000244140625</ele>
        <time>2021-05-09T07:54:27.000Z</time>
        <extensions>
          <ns3:TrackPointExtension>
            <ns3:atemp>20.0</ns3:atemp>
          </ns3:TrackPointExtension>
        </extensions>
      </trkpt>
      <trkpt lat="43.12389797531068325042724609375" lon="13.006540797650814056396484375">
        <ele>697.20001220703125</ele>
        <time>2021-05-09T07:54:31.000Z</time>
        <extensions>
          <ns3:TrackPointExtension>
            <ns3:atemp>20.0</ns3:atemp>
          </ns3:TrackPointExtension>
        </extensions>
      </trkpt>
      <trkpt lat="43.12392312102019786834716796875" lon="13.0064936913549900054931640625">
        <ele>697.5999755859375</ele>
        <time>2021-05-09T07:54:33.000Z</time>
        <extensions>
          <ns3:TrackPointExtension>
            <ns3:atemp>20.0</ns3:atemp>
          </ns3:TrackPointExtension>
        </extensions>
      </trkpt>
      <trkpt lat="43.1239384599030017852783203125" lon="13.00647248513996601104736328125">
        <ele>697.79998779296875</ele>
        <time>2021-05-09T07:54:34.000Z</time>
        <extensions>
          <ns3:TrackPointExtension>
            <ns3:atemp>20.0</ns3:atemp>
          </ns3:TrackPointExtension>
        </extensions>
      </trkpt>
      <trkpt lat="43.123997636139392852783203125" lon="13.0064333416521549224853515625">
        <ele>698.20001220703125</ele>
        <time>2021-05-09T07:54:37.000Z</time>
        <extensions>
          <ns3:TrackPointExtension>
            <ns3:atemp>20.0</ns3:atemp>
          </ns3:TrackPointExtension>
        </extensions>
      </trkpt>
      <trkpt lat="43.1240655295550823211669921875" lon="13.0064152367413043975830078125">
        <ele>698.79998779296875</ele>
        <time>2021-05-09T07:54:40.000Z</time>
        <extensions>
          <ns3:TrackPointExtension>
            <ns3:atemp>20.0</ns3:atemp>
          </ns3:TrackPointExtension>
        </extensions>
      </trkpt>
      <trkpt lat="43.12414926476776599884033203125" lon="13.0064175836741924285888671875">
        <ele>699.5999755859375</ele>
        <time>2021-05-09T07:54:44.000Z</time>
        <extensions>
          <ns3:TrackPointExtension>
            <ns3:atemp>20.0</ns3:atemp>
          </ns3:TrackPointExtension>
        </extensions>
      </trkpt>
      <trkpt lat="43.12419100664556026458740234375" lon="13.0064212717115879058837890625">
        <ele>700</ele>
        <time>2021-05-09T07:54:46.000Z</time>
        <extensions>
          <ns3:TrackPointExtension>
            <ns3:atemp>20.0</ns3:atemp>
          </ns3:TrackPointExtension>
        </extensions>
      </trkpt>
      <trkpt lat="43.1243015639483928680419921875" lon="13.006439208984375">
        <ele>701.20001220703125</ele>
        <time>2021-05-09T07:54:51.000Z</time>
        <extensions>
          <ns3:TrackPointExtension>
            <ns3:atemp>20.0</ns3:atemp>
          </ns3:TrackPointExtension>
        </extensions>
      </trkpt>
      <trkpt lat="43.12434841878712177276611328125" lon="13.0064383707940578460693359375">
        <ele>701.5999755859375</ele>
        <time>2021-05-09T07:54:53.000Z</time>
        <extensions>
          <ns3:TrackPointExtension>
            <ns3:atemp>20.0</ns3:atemp>
          </ns3:TrackPointExtension>
        </extensions>
      </trkpt>
      <trkpt lat="43.12443693168461322784423828125" lon="13.00644163973629474639892578125">
        <ele>702.20001220703125</ele>
        <time>2021-05-09T07:54:57.000Z</time>
        <extensions>
          <ns3:TrackPointExtension>
            <ns3:atemp>20.0</ns3:atemp>
          </ns3:TrackPointExtension>
        </extensions>
      </trkpt>
      <trkpt lat="43.1245221756398677825927734375" lon="13.006425462663173675537109375">
        <ele>703.20001220703125</ele>
        <time>2021-05-09T07:55:01.000Z</time>
        <extensions>
          <ns3:TrackPointExtension>
            <ns3:atemp>20.0</ns3:atemp>
          </ns3:TrackPointExtension>
        </extensions>
      </trkpt>
      <trkpt lat="43.12460037879645824432373046875" lon="13.00641305744647979736328125">
        <ele>704.4000244140625</ele>
        <time>2021-05-09T07:55:05.000Z</time>
        <extensions>
          <ns3:TrackPointExtension>
            <ns3:atemp>20.0</ns3:atemp>
          </ns3:TrackPointExtension>
        </extensions>
      </trkpt>
      <trkpt lat="43.12465787865221500396728515625" lon="13.00640358589589595794677734375">
        <ele>705</ele>
        <time>2021-05-09T07:55:08.000Z</time>
        <extensions>
          <ns3:TrackPointExtension>
            <ns3:atemp>20.0</ns3:atemp>
          </ns3:TrackPointExtension>
        </extensions>
      </trkpt>
      <trkpt lat="43.12471680343151092529296875" lon="13.00639369525015354156494140625">
        <ele>705.5999755859375</ele>
        <time>2021-05-09T07:55:11.000Z</time>
        <extensions>
          <ns3:TrackPointExtension>
            <ns3:atemp>20.0</ns3:atemp>
          </ns3:TrackPointExtension>
        </extensions>
      </trkpt>
      <trkpt lat="43.1247957609593868255615234375" lon="13.00636972300708293914794921875">
        <ele>706.5999755859375</ele>
        <time>2021-05-09T07:55:15.000Z</time>
        <extensions>
          <ns3:TrackPointExtension>
            <ns3:atemp>20.0</ns3:atemp>
          </ns3:TrackPointExtension>
        </extensions>
      </trkpt>
      <trkpt lat="43.124815039336681365966796875" lon="13.00636301748454570770263671875">
        <ele>706.79998779296875</ele>
        <time>2021-05-09T07:55:16.000Z</time>
        <extensions>
          <ns3:TrackPointExtension>
            <ns3:atemp>20.0</ns3:atemp>
          </ns3:TrackPointExtension>
        </extensions>
      </trkpt>
      <trkpt lat="43.12491788528859615325927734375" lon="13.006328232586383819580078125">
        <ele>707.79998779296875</ele>
        <time>2021-05-09T07:55:21.000Z</time>
        <extensions>
          <ns3:TrackPointExtension>
            <ns3:atemp>20.0</ns3:atemp>
          </ns3:TrackPointExtension>
        </extensions>
      </trkpt>
      <trkpt lat="43.1249602138996124267578125" lon="13.006312139332294464111328125">
        <ele>708.20001220703125</ele>
        <time>2021-05-09T07:55:23.000Z</time>
        <extensions>
          <ns3:TrackPointExtension>
            <ns3:atemp>20.0</ns3:atemp>
          </ns3:TrackPointExtension>
        </extensions>
      </trkpt>
      <trkpt lat="43.125036992132663726806640625" lon="13.00626821815967559814453125">
        <ele>708.79998779296875</ele>
        <time>2021-05-09T07:55:27.000Z</time>
        <extensions>
          <ns3:TrackPointExtension>
            <ns3:atemp>20.0</ns3:atemp>
          </ns3:TrackPointExtension>
        </extensions>
      </trkpt>
      <trkpt lat="43.1251130998134613037109375" lon="13.00621583126485347747802734375">
        <ele>709.5999755859375</ele>
        <time>2021-05-09T07:55:31.000Z</time>
        <extensions>
          <ns3:TrackPointExtension>
            <ns3:atemp>20.0</ns3:atemp>
          </ns3:TrackPointExtension>
        </extensions>
      </trkpt>
      <trkpt lat="43.12513296492397785186767578125" lon="13.0062036775052547454833984375">
        <ele>709.79998779296875</ele>
        <time>2021-05-09T07:55:32.000Z</time>
        <extensions>
          <ns3:TrackPointExtension>
            <ns3:atemp>20.0</ns3:atemp>
          </ns3:TrackPointExtension>
        </extensions>
      </trkpt>
      <trkpt lat="43.125233463943004608154296875" lon="13.00613033585250377655029296875">
        <ele>711</ele>
        <time>2021-05-09T07:55:37.000Z</time>
        <extensions>
          <ns3:TrackPointExtension>
            <ns3:atemp>20.0</ns3:atemp>
          </ns3:TrackPointExtension>
        </extensions>
      </trkpt>
      <trkpt lat="43.12525249086320400238037109375" lon="13.0061144940555095672607421875">
        <ele>711</ele>
        <time>2021-05-09T07:55:38.000Z</time>
        <extensions>
          <ns3:TrackPointExtension>
            <ns3:atemp>20.0</ns3:atemp>
          </ns3:TrackPointExtension>
        </extensions>
      </trkpt>
      <trkpt lat="43.1254257448017597198486328125" lon="13.00596504472196102142333984375">
        <ele>712</ele>
        <time>2021-05-09T07:55:47.000Z</time>
        <extensions>
          <ns3:TrackPointExtension>
            <ns3:atemp>20.0</ns3:atemp>
          </ns3:TrackPointExtension>
        </extensions>
      </trkpt>
      <trkpt lat="43.12554032541811466217041015625" lon="13.00585247576236724853515625">
        <ele>713</ele>
        <time>2021-05-09T07:55:54.000Z</time>
        <extensions>
          <ns3:TrackPointExtension>
            <ns3:atemp>20.0</ns3:atemp>
          </ns3:TrackPointExtension>
        </extensions>
      </trkpt>
      <trkpt lat="43.12555440701544284820556640625" lon="13.00583235919475555419921875">
        <ele>713.20001220703125</ele>
        <time>2021-05-09T07:55:55.000Z</time>
        <extensions>
          <ns3:TrackPointExtension>
            <ns3:atemp>20.0</ns3:atemp>
          </ns3:TrackPointExtension>
        </extensions>
      </trkpt>
      <trkpt lat="43.125641830265522003173828125" lon="13.0057192035019397735595703125">
        <ele>714</ele>
        <time>2021-05-09T07:56:01.000Z</time>
        <extensions>
          <ns3:TrackPointExtension>
            <ns3:atemp>20.0</ns3:atemp>
          </ns3:TrackPointExtension>
        </extensions>
      </trkpt>
      <trkpt lat="43.1257412396371364593505859375" lon="13.0055797286331653594970703125">
        <ele>715</ele>
        <time>2021-05-09T07:56:08.000Z</time>
        <extensions>
          <ns3:TrackPointExtension>
            <ns3:atemp>20.0</ns3:atemp>
          </ns3:TrackPointExtension>
        </extensions>
      </trkpt>
      <trkpt lat="43.125753141939640045166015625" lon="13.00555952824652194976806640625">
        <ele>715</ele>
        <time>2021-05-09T07:56:09.000Z</time>
        <extensions>
          <ns3:TrackPointExtension>
            <ns3:atemp>20.0</ns3:atemp>
          </ns3:TrackPointExtension>
        </extensions>
      </trkpt>
      <trkpt lat="43.1258461810648441314697265625" lon="13.00542600452899932861328125">
        <ele>716</ele>
        <time>2021-05-09T07:56:16.000Z</time>
        <extensions>
          <ns3:TrackPointExtension>
            <ns3:atemp>20.0</ns3:atemp>
          </ns3:TrackPointExtension>
        </extensions>
      </trkpt>
      <trkpt lat="43.125861100852489471435546875" lon="13.00540496595203876495361328125">
        <ele>716.20001220703125</ele>
        <time>2021-05-09T07:56:17.000Z</time>
        <extensions>
          <ns3:TrackPointExtension>
            <ns3:atemp>20.0</ns3:atemp>
          </ns3:TrackPointExtension>
        </extensions>
      </trkpt>
      <trkpt lat="43.12594969756901264190673828125" lon="13.0052786506712436676025390625">
        <ele>717.4000244140625</ele>
        <time>2021-05-09T07:56:23.000Z</time>
        <extensions>
          <ns3:TrackPointExtension>
            <ns3:atemp>20.0</ns3:atemp>
          </ns3:TrackPointExtension>
        </extensions>
      </trkpt>
      <trkpt lat="43.125962354242801666259765625" lon="13.00525660626590251922607421875">
        <ele>717.4000244140625</ele>
        <time>2021-05-09T07:56:24.000Z</time>
        <extensions>
          <ns3:TrackPointExtension>
            <ns3:atemp>20.0</ns3:atemp>
          </ns3:TrackPointExtension>
        </extensions>
      </trkpt>
      <trkpt lat="43.1260268948972225189208984375" lon="13.00510087050497531890869140625">
        <ele>718.4000244140625</ele>
        <time>2021-05-09T07:56:30.000Z</time>
        <extensions>
          <ns3:TrackPointExtension>
            <ns3:atemp>20.0</ns3:atemp>
          </ns3:TrackPointExtension>
        </extensions>
      </trkpt>
      <trkpt lat="43.12603787519037723541259765625" lon="13.0050734616816043853759765625">
        <ele>718.5999755859375</ele>
        <time>2021-05-09T07:56:31.000Z</time>
        <extensions>
          <ns3:TrackPointExtension>
            <ns3:atemp>20.0</ns3:atemp>
          </ns3:TrackPointExtension>
        </extensions>
      </trkpt>
      <trkpt lat="43.126118592917919158935546875" lon="13.00486617721617221832275390625">
        <ele>719.4000244140625</ele>
        <time>2021-05-09T07:56:39.000Z</time>
        <extensions>
          <ns3:TrackPointExtension>
            <ns3:atemp>20.0</ns3:atemp>
          </ns3:TrackPointExtension>
        </extensions>
      </trkpt>
      <trkpt lat="43.12612772919237613677978515625" lon="13.00484203733503818511962890625">
        <ele>719.5999755859375</ele>
        <time>2021-05-09T07:56:40.000Z</time>
        <extensions>
          <ns3:TrackPointExtension>
            <ns3:atemp>20.0</ns3:atemp>
          </ns3:TrackPointExtension>
        </extensions>
      </trkpt>
      <trkpt lat="43.12618908472359180450439453125" lon="13.004703819751739501953125">
        <ele>720.5999755859375</ele>
        <time>2021-05-09T07:56:46.000Z</time>
        <extensions>
          <ns3:TrackPointExtension>
            <ns3:atemp>20.0</ns3:atemp>
          </ns3:TrackPointExtension>
        </extensions>
      </trkpt>
      <trkpt lat="43.12622562982141971588134765625" lon="13.0046407878398895263671875">
        <ele>721</ele>
        <time>2021-05-09T07:56:49.000Z</time>
        <extensions>
          <ns3:TrackPointExtension>
            <ns3:atemp>20.0</ns3:atemp>
          </ns3:TrackPointExtension>
        </extensions>
      </trkpt>
      <trkpt lat="43.12624926678836345672607421875" lon="13.004609607160091400146484375">
        <ele>721.4000244140625</ele>
        <time>2021-05-09T07:56:51.000Z</time>
        <extensions>
          <ns3:TrackPointExtension>
            <ns3:atemp>20.0</ns3:atemp>
          </ns3:TrackPointExtension>
        </extensions>
      </trkpt>
      <trkpt lat="43.12629302032291889190673828125" lon="13.0045417137444019317626953125">
        <ele>722.4000244140625</ele>
        <time>2021-05-09T07:56:55.000Z</time>
        <extensions>
          <ns3:TrackPointExtension>
            <ns3:atemp>20.0</ns3:atemp>
          </ns3:TrackPointExtension>
        </extensions>
      </trkpt>
      <trkpt lat="43.126306347548961639404296875" lon="13.00452620722353458404541015625">
        <ele>722.5999755859375</ele>
        <time>2021-05-09T07:56:56.000Z</time>
        <extensions>
          <ns3:TrackPointExtension>
            <ns3:atemp>20.0</ns3:atemp>
          </ns3:TrackPointExtension>
        </extensions>
      </trkpt>
      <trkpt lat="43.126383125782012939453125" lon="13.00445747561752796173095703125">
        <ele>723.79998779296875</ele>
        <time>2021-05-09T07:57:01.000Z</time>
        <extensions>
          <ns3:TrackPointExtension>
            <ns3:atemp>20.0</ns3:atemp>
          </ns3:TrackPointExtension>
        </extensions>
      </trkpt>
      <trkpt lat="43.126420676708221435546875" lon="13.0044324137270450592041015625">
        <ele>724.20001220703125</ele>
        <time>2021-05-09T07:57:03.000Z</time>
        <extensions>
          <ns3:TrackPointExtension>
            <ns3:atemp>20.0</ns3:atemp>
          </ns3:TrackPointExtension>
        </extensions>
      </trkpt>
      <trkpt lat="43.1264771707355976104736328125" lon="13.00441171042621135711669921875">
        <ele>724.79998779296875</ele>
        <time>2021-05-09T07:57:06.000Z</time>
        <extensions>
          <ns3:TrackPointExtension>
            <ns3:atemp>20.0</ns3:atemp>
          </ns3:TrackPointExtension>
        </extensions>
      </trkpt>
      <trkpt lat="43.1265355087816715240478515625" lon="13.0043921805918216705322265625">
        <ele>725.5999755859375</ele>
        <time>2021-05-09T07:57:09.000Z</time>
        <extensions>
          <ns3:TrackPointExtension>
            <ns3:atemp>20.0</ns3:atemp>
          </ns3:TrackPointExtension>
        </extensions>
      </trkpt>
      <trkpt lat="43.126577921211719512939453125" lon="13.00437717698514461517333984375">
        <ele>726</ele>
        <time>2021-05-09T07:57:11.000Z</time>
        <extensions>
          <ns3:TrackPointExtension>
            <ns3:atemp>20.0</ns3:atemp>
          </ns3:TrackPointExtension>
        </extensions>
      </trkpt>
      <trkpt lat="43.126643635332584381103515625" lon="13.0043603293597698211669921875">
        <ele>726.5999755859375</ele>
        <time>2021-05-09T07:57:14.000Z</time>
        <extensions>
          <ns3:TrackPointExtension>
            <ns3:atemp>20.0</ns3:atemp>
          </ns3:TrackPointExtension>
        </extensions>
      </trkpt>
      <trkpt lat="43.12671345658600330352783203125" lon="13.00435286946594715118408203125">
        <ele>727.20001220703125</ele>
        <time>2021-05-09T07:57:17.000Z</time>
        <extensions>
          <ns3:TrackPointExtension>
            <ns3:atemp>20.0</ns3:atemp>
          </ns3:TrackPointExtension>
        </extensions>
      </trkpt>
      <trkpt lat="43.126798532903194427490234375" lon="13.00434566102921962738037109375">
        <ele>727.79998779296875</ele>
        <time>2021-05-09T07:57:21.000Z</time>
        <extensions>
          <ns3:TrackPointExtension>
            <ns3:atemp>20.0</ns3:atemp>
          </ns3:TrackPointExtension>
        </extensions>
      </trkpt>
      <trkpt lat="43.12681839801371097564697265625" lon="13.004345409572124481201171875">
        <ele>728.4000244140625</ele>
        <time>2021-05-09T07:57:22.000Z</time>
        <extensions>
          <ns3:TrackPointExtension>
            <ns3:atemp>20.0</ns3:atemp>
          </ns3:TrackPointExtension>
        </extensions>
      </trkpt>
      <trkpt lat="43.1269710324704647064208984375" lon="13.00435354001820087432861328125">
        <ele>729.4000244140625</ele>
        <time>2021-05-09T07:57:29.000Z</time>
        <extensions>
          <ns3:TrackPointExtension>
            <ns3:atemp>20.0</ns3:atemp>
          </ns3:TrackPointExtension>
        </extensions>
      </trkpt>
      <trkpt lat="43.12711260281503200531005859375" lon="13.0043422244489192962646484375">
        <ele>730.4000244140625</ele>
        <time>2021-05-09T07:57:35.000Z</time>
        <extensions>
          <ns3:TrackPointExtension>
            <ns3:atemp>20.0</ns3:atemp>
          </ns3:TrackPointExtension>
        </extensions>
      </trkpt>
      <trkpt lat="43.1271349824965000152587890625" lon="13.00433660857379436492919921875">
        <ele>730.5999755859375</ele>
        <time>2021-05-09T07:57:36.000Z</time>
        <extensions>
          <ns3:TrackPointExtension>
            <ns3:atemp>20.0</ns3:atemp>
          </ns3:TrackPointExtension>
        </extensions>
      </trkpt>
      <trkpt lat="43.1272429414093494415283203125" lon="13.00431062467396259307861328125">
        <ele>731.4000244140625</ele>
        <time>2021-05-09T07:57:41.000Z</time>
        <extensions>
          <ns3:TrackPointExtension>
            <ns3:atemp>20.0</ns3:atemp>
          </ns3:TrackPointExtension>
        </extensions>
      </trkpt>
      <trkpt lat="43.1273032911121845245361328125" lon="13.0042760074138641357421875">
        <ele>732</ele>
        <time>2021-05-09T07:57:44.000Z</time>
        <extensions>
          <ns3:TrackPointExtension>
            <ns3:atemp>20.0</ns3:atemp>
          </ns3:TrackPointExtension>
        </extensions>
      </trkpt>
      <trkpt lat="43.1273720227181911468505859375" lon="13.00421825610101222991943359375">
        <ele>732.5999755859375</ele>
        <time>2021-05-09T07:57:48.000Z</time>
        <extensions>
          <ns3:TrackPointExtension>
            <ns3:atemp>20.0</ns3:atemp>
          </ns3:TrackPointExtension>
        </extensions>
      </trkpt>
      <trkpt lat="43.12741971574723720550537109375" lon="13.004166372120380401611328125">
        <ele>733</ele>
        <time>2021-05-09T07:57:51.000Z</time>
        <extensions>
          <ns3:TrackPointExtension>
            <ns3:atemp>20.0</ns3:atemp>
          </ns3:TrackPointExtension>
        </extensions>
      </trkpt>
      <trkpt lat="43.127452321350574493408203125" lon="13.00413259305059909820556640625">
        <ele>733.5999755859375</ele>
        <time>2021-05-09T07:57:53.000Z</time>
        <extensions>
          <ns3:TrackPointExtension>
            <ns3:atemp>20.0</ns3:atemp>
          </ns3:TrackPointExtension>
        </extensions>
      </trkpt>
      <trkpt lat="43.12753370963037014007568359375" lon="13.00405615009367465972900390625">
        <ele>734.5999755859375</ele>
        <time>2021-05-09T07:57:58.000Z</time>
        <extensions>
          <ns3:TrackPointExtension>
            <ns3:atemp>20.0</ns3:atemp>
          </ns3:TrackPointExtension>
        </extensions>
      </trkpt>
      <trkpt lat="43.1276043690741062164306640625" lon="13.00399831496179103851318359375">
        <ele>735.79998779296875</ele>
        <time>2021-05-09T07:58:02.000Z</time>
        <extensions>
          <ns3:TrackPointExtension>
            <ns3:atemp>20.0</ns3:atemp>
          </ns3:TrackPointExtension>
        </extensions>
      </trkpt>
      <trkpt lat="43.12767796218395233154296875" lon="13.00394148565828800201416015625">
        <ele>736.79998779296875</ele>
        <time>2021-05-09T07:58:06.000Z</time>
        <extensions>
          <ns3:TrackPointExtension>
            <ns3:atemp>20.0</ns3:atemp>
          </ns3:TrackPointExtension>
        </extensions>
      </trkpt>
      <trkpt lat="43.1276992522180080413818359375" lon="13.00392757169902324676513671875">
        <ele>737</ele>
        <time>2021-05-09T07:58:07.000Z</time>
        <extensions>
          <ns3:TrackPointExtension>
            <ns3:atemp>20.0</ns3:atemp>
          </ns3:TrackPointExtension>
        </extensions>
      </trkpt>
      <trkpt lat="43.12778583727777004241943359375" lon="13.0038718320429325103759765625">
        <ele>737.79998779296875</ele>
        <time>2021-05-09T07:58:11.000Z</time>
        <extensions>
          <ns3:TrackPointExtension>
            <ns3:atemp>20.0</ns3:atemp>
          </ns3:TrackPointExtension>
        </extensions>
      </trkpt>
      <trkpt lat="43.12785632908344268798828125" lon="13.003819026052951812744140625">
        <ele>738.5999755859375</ele>
        <time>2021-05-09T07:58:15.000Z</time>
        <extensions>
          <ns3:TrackPointExtension>
            <ns3:atemp>20.0</ns3:atemp>
          </ns3:TrackPointExtension>
        </extensions>
      </trkpt>
      <trkpt lat="43.1278883479535579681396484375" lon="13.00378994084894657135009765625">
        <ele>738.79998779296875</ele>
        <time>2021-05-09T07:58:17.000Z</time>
        <extensions>
          <ns3:TrackPointExtension>
            <ns3:atemp>20.0</ns3:atemp>
          </ns3:TrackPointExtension>
        </extensions>
      </trkpt>
      <trkpt lat="43.127974011003971099853515625" lon="13.003735877573490142822265625">
        <ele>739.79998779296875</ele>
        <time>2021-05-09T07:58:21.000Z</time>
        <extensions>
          <ns3:TrackPointExtension>
            <ns3:atemp>20.0</ns3:atemp>
          </ns3:TrackPointExtension>
        </extensions>
      </trkpt>
      <trkpt lat="43.12799370847642421722412109375" lon="13.0037202872335910797119140625">
        <ele>740</ele>
        <time>2021-05-09T07:58:22.000Z</time>
        <extensions>
          <ns3:TrackPointExtension>
            <ns3:atemp>20.0</ns3:atemp>
          </ns3:TrackPointExtension>
        </extensions>
      </trkpt>
      <trkpt lat="43.128107450902462005615234375" lon="13.00362146459519863128662109375">
        <ele>741.20001220703125</ele>
        <time>2021-05-09T07:58:28.000Z</time>
        <extensions>
          <ns3:TrackPointExtension>
            <ns3:atemp>20.0</ns3:atemp>
          </ns3:TrackPointExtension>
        </extensions>
      </trkpt>
      <trkpt lat="43.1281252205371856689453125" lon="13.00360587425529956817626953125">
        <ele>741.4000244140625</ele>
        <time>2021-05-09T07:58:29.000Z</time>
        <extensions>
          <ns3:TrackPointExtension>
            <ns3:atemp>20.0</ns3:atemp>
          </ns3:TrackPointExtension>
        </extensions>
      </trkpt>
      <trkpt lat="43.12819160521030426025390625" lon="13.00352490507066249847412109375">
        <ele>742.20001220703125</ele>
        <time>2021-05-09T07:58:33.000Z</time>
        <extensions>
          <ns3:TrackPointExtension>
            <ns3:atemp>20.0</ns3:atemp>
          </ns3:TrackPointExtension>
        </extensions>
      </trkpt>
      <trkpt lat="43.128257654607295989990234375" lon="13.00344091840088367462158203125">
        <ele>743</ele>
        <time>2021-05-09T07:58:37.000Z</time>
        <extensions>
          <ns3:TrackPointExtension>
            <ns3:atemp>20.0</ns3:atemp>
          </ns3:TrackPointExtension>
        </extensions>
      </trkpt>
      <trkpt lat="43.128274418413639068603515625" lon="13.0034212209284305572509765625">
        <ele>743.4000244140625</ele>
        <time>2021-05-09T07:58:38.000Z</time>
        <extensions>
          <ns3:TrackPointExtension>
            <ns3:atemp>20.0</ns3:atemp>
          </ns3:TrackPointExtension>
        </extensions>
      </trkpt>
      <trkpt lat="43.12834138981997966766357421875" lon="13.0033291876316070556640625">
        <ele>744.20001220703125</ele>
        <time>2021-05-09T07:58:42.000Z</time>
        <extensions>
          <ns3:TrackPointExtension>
            <ns3:atemp>20.0</ns3:atemp>
          </ns3:TrackPointExtension>
        </extensions>
      </trkpt>
      <trkpt lat="43.12837692908942699432373046875" lon="13.00328082405030727386474609375">
        <ele>744.4000244140625</ele>
        <time>2021-05-09T07:58:44.000Z</time>
        <extensions>
          <ns3:TrackPointExtension>
            <ns3:atemp>20.0</ns3:atemp>
          </ns3:TrackPointExtension>
        </extensions>
      </trkpt>
      <trkpt lat="43.12849746085703372955322265625" lon="13.00312357954680919647216796875">
        <ele>745.5999755859375</ele>
        <time>2021-05-09T07:58:51.000Z</time>
        <extensions>
          <ns3:TrackPointExtension>
            <ns3:atemp>20.0</ns3:atemp>
          </ns3:TrackPointExtension>
        </extensions>
      </trkpt>
      <trkpt lat="43.1285947747528553009033203125" lon="13.0030131898820400238037109375">
        <ele>746.4000244140625</ele>
        <time>2021-05-09T07:58:56.000Z</time>
        <extensions>
          <ns3:TrackPointExtension>
            <ns3:atemp>20.0</ns3:atemp>
          </ns3:TrackPointExtension>
        </extensions>
      </trkpt>
      <trkpt lat="43.1286557950079441070556640625" lon="13.00296365283429622650146484375">
        <ele>747.20001220703125</ele>
        <time>2021-05-09T07:58:59.000Z</time>
        <extensions>
          <ns3:TrackPointExtension>
            <ns3:atemp>20.0</ns3:atemp>
          </ns3:TrackPointExtension>
        </extensions>
      </trkpt>
      <trkpt lat="43.12869560904800891876220703125" lon="13.00293766893446445465087890625">
        <ele>747.4000244140625</ele>
        <time>2021-05-09T07:59:01.000Z</time>
        <extensions>
          <ns3:TrackPointExtension>
            <ns3:atemp>20.0</ns3:atemp>
          </ns3:TrackPointExtension>
        </extensions>
      </trkpt>
      <trkpt lat="43.12880851328372955322265625" lon="13.00288771279156208038330078125">
        <ele>748.20001220703125</ele>
        <time>2021-05-09T07:59:06.000Z</time>
        <extensions>
          <ns3:TrackPointExtension>
            <ns3:atemp>20.0</ns3:atemp>
          </ns3:TrackPointExtension>
        </extensions>
      </trkpt>
      <trkpt lat="43.12890415079891681671142578125" lon="13.0028592981398105621337890625">
        <ele>748.5999755859375</ele>
        <time>2021-05-09T07:59:10.000Z</time>
        <extensions>
          <ns3:TrackPointExtension>
            <ns3:atemp>20.0</ns3:atemp>
          </ns3:TrackPointExtension>
        </extensions>
      </trkpt>
      <trkpt lat="43.1289984472095966339111328125" lon="13.002807162702083587646484375">
        <ele>749.20001220703125</ele>
        <time>2021-05-09T07:59:14.000Z</time>
        <extensions>
          <ns3:TrackPointExtension>
            <ns3:atemp>20.0</ns3:atemp>
          </ns3:TrackPointExtension>
        </extensions>
      </trkpt>
      <trkpt lat="43.12907581217586994171142578125" lon="13.00271638669073581695556640625">
        <ele>749.79998779296875</ele>
        <time>2021-05-09T07:59:18.000Z</time>
        <extensions>
          <ns3:TrackPointExtension>
            <ns3:atemp>20.0</ns3:atemp>
          </ns3:TrackPointExtension>
        </extensions>
      </trkpt>
      <trkpt lat="43.12911319546401500701904296875" lon="13.002627789974212646484375">
        <ele>750.4000244140625</ele>
        <time>2021-05-09T07:59:21.000Z</time>
        <extensions>
          <ns3:TrackPointExtension>
            <ns3:atemp>20.0</ns3:atemp>
          </ns3:TrackPointExtension>
        </extensions>
      </trkpt>
      <trkpt lat="43.12912878580391407012939453125" lon="13.00252712331712245941162109375">
        <ele>750.79998779296875</ele>
        <time>2021-05-09T07:59:24.000Z</time>
        <extensions>
          <ns3:TrackPointExtension>
            <ns3:atemp>20.0</ns3:atemp>
          </ns3:TrackPointExtension>
        </extensions>
      </trkpt>
      <trkpt lat="43.12911721877753734588623046875" lon="13.00242637284100055694580078125">
        <ele>751.4000244140625</ele>
        <time>2021-05-09T07:59:27.000Z</time>
        <extensions>
          <ns3:TrackPointExtension>
            <ns3:atemp>20.0</ns3:atemp>
          </ns3:TrackPointExtension>
        </extensions>
      </trkpt>
      <trkpt lat="43.12908117659389972686767578125" lon="13.00233299843966960906982421875">
        <ele>752</ele>
        <time>2021-05-09T07:59:30.000Z</time>
        <extensions>
          <ns3:TrackPointExtension>
            <ns3:atemp>20.0</ns3:atemp>
          </ns3:TrackPointExtension>
        </extensions>
      </trkpt>
      <trkpt lat="43.12905418686568737030029296875" lon="13.00228119827806949615478515625">
        <ele>752.4000244140625</ele>
        <time>2021-05-09T07:59:32.000Z</time>
        <extensions>
          <ns3:TrackPointExtension>
            <ns3:atemp>20.0</ns3:atemp>
          </ns3:TrackPointExtension>
        </extensions>
      </trkpt>
      <trkpt lat="43.12896634452044963836669921875" lon="13.00217055715620517730712890625">
        <ele>753</ele>
        <time>2021-05-09T07:59:37.000Z</time>
        <extensions>
          <ns3:TrackPointExtension>
            <ns3:atemp>20.0</ns3:atemp>
          </ns3:TrackPointExtension>
        </extensions>
      </trkpt>
      <trkpt lat="43.1289233453571796417236328125" lon="13.0021357722580432891845703125">
        <ele>753.4000244140625</ele>
        <time>2021-05-09T07:59:39.000Z</time>
        <extensions>
          <ns3:TrackPointExtension>
            <ns3:atemp>20.0</ns3:atemp>
          </ns3:TrackPointExtension>
        </extensions>
      </trkpt>
      <trkpt lat="43.12885670922696590423583984375" lon="13.0020975507795810699462890625">
        <ele>754.20001220703125</ele>
        <time>2021-05-09T07:59:42.000Z</time>
        <extensions>
          <ns3:TrackPointExtension>
            <ns3:atemp>20.0</ns3:atemp>
          </ns3:TrackPointExtension>
        </extensions>
      </trkpt>
      <trkpt lat="43.1287701241672039031982421875" lon="13.00206108950078487396240234375">
        <ele>755.20001220703125</ele>
        <time>2021-05-09T07:59:46.000Z</time>
        <extensions>
          <ns3:TrackPointExtension>
            <ns3:atemp>20.0</ns3:atemp>
          </ns3:TrackPointExtension>
        </extensions>
      </trkpt>
      <trkpt lat="43.1287258677184581756591796875" lon="13.00205287523567676544189453125">
        <ele>755.79998779296875</ele>
        <time>2021-05-09T07:59:48.000Z</time>
        <extensions>
          <ns3:TrackPointExtension>
            <ns3:atemp>20.0</ns3:atemp>
          </ns3:TrackPointExtension>
        </extensions>
      </trkpt>
      <trkpt lat="43.12863408587872982025146484375" lon="13.00203979946672916412353515625">
        <ele>756.4000244140625</ele>
        <time>2021-05-09T07:59:52.000Z</time>
        <extensions>
          <ns3:TrackPointExtension>
            <ns3:atemp>20.0</ns3:atemp>
          </ns3:TrackPointExtension>
        </extensions>
      </trkpt>
      <trkpt lat="43.12856451608240604400634765625" lon="13.0020336806774139404296875">
        <ele>757</ele>
        <time>2021-05-09T07:59:55.000Z</time>
        <extensions>
          <ns3:TrackPointExtension>
            <ns3:atemp>20.0</ns3:atemp>
          </ns3:TrackPointExtension>
        </extensions>
      </trkpt>
      <trkpt lat="43.1284935213625431060791015625" lon="13.00203208811581134796142578125">
        <ele>757.5999755859375</ele>
        <time>2021-05-09T07:59:58.000Z</time>
        <extensions>
          <ns3:TrackPointExtension>
            <ns3:atemp>20.0</ns3:atemp>
          </ns3:TrackPointExtension>
        </extensions>
      </trkpt>
      <trkpt lat="43.12840224243700504302978515625" lon="13.0020573176443576812744140625">
        <ele>758.4000244140625</ele>
        <time>2021-05-09T08:00:02.000Z</time>
        <extensions>
          <ns3:TrackPointExtension>
            <ns3:atemp>20.0</ns3:atemp>
          </ns3:TrackPointExtension>
        </extensions>
      </trkpt>
      <trkpt lat="43.1283801980316638946533203125" lon="13.00206846557557582855224609375">
        <ele>758.79998779296875</ele>
        <time>2021-05-09T08:00:03.000Z</time>
        <extensions>
          <ns3:TrackPointExtension>
            <ns3:atemp>20.0</ns3:atemp>
          </ns3:TrackPointExtension>
        </extensions>
      </trkpt>
      <trkpt lat="43.128277100622653961181640625" lon="13.00214432179927825927734375">
        <ele>759.79998779296875</ele>
        <time>2021-05-09T08:00:08.000Z</time>
        <extensions>
          <ns3:TrackPointExtension>
            <ns3:atemp>20.0</ns3:atemp>
          </ns3:TrackPointExtension>
        </extensions>
      </trkpt>
      <trkpt lat="43.1282400526106357574462890625" lon="13.00217910669744014739990234375">
        <ele>760</ele>
        <time>2021-05-09T08:00:10.000Z</time>
        <extensions>
          <ns3:TrackPointExtension>
            <ns3:atemp>20.0</ns3:atemp>
          </ns3:TrackPointExtension>
        </extensions>
      </trkpt>
      <trkpt lat="43.1281498633325099945068359375" lon="13.0022618360817432403564453125">
        <ele>760.79998779296875</ele>
        <time>2021-05-09T08:00:15.000Z</time>
        <extensions>
          <ns3:TrackPointExtension>
            <ns3:atemp>20.0</ns3:atemp>
          </ns3:TrackPointExtension>
        </extensions>
      </trkpt>
      <trkpt lat="43.12810518778860569000244140625" lon="13.002337776124477386474609375">
        <ele>761.5999755859375</ele>
        <time>2021-05-09T08:00:18.000Z</time>
        <extensions>
          <ns3:TrackPointExtension>
            <ns3:atemp>20.0</ns3:atemp>
          </ns3:TrackPointExtension>
        </extensions>
      </trkpt>
      <trkpt lat="43.128092698752880096435546875" lon="13.00236853770911693572998046875">
        <ele>761.79998779296875</ele>
        <time>2021-05-09T08:00:19.000Z</time>
        <extensions>
          <ns3:TrackPointExtension>
            <ns3:atemp>20.0</ns3:atemp>
          </ns3:TrackPointExtension>
        </extensions>
      </trkpt>
      <trkpt lat="43.1280677206814289093017578125" lon="13.00253936089575290679931640625">
        <ele>763</ele>
        <time>2021-05-09T08:00:24.000Z</time>
        <extensions>
          <ns3:TrackPointExtension>
            <ns3:atemp>20.0</ns3:atemp>
          </ns3:TrackPointExtension>
        </extensions>
      </trkpt>
      <trkpt lat="43.1280854903161525726318359375" lon="13.00269911997020244598388671875">
        <ele>764.20001220703125</ele>
        <time>2021-05-09T08:00:29.000Z</time>
        <extensions>
          <ns3:TrackPointExtension>
            <ns3:atemp>20.0</ns3:atemp>
          </ns3:TrackPointExtension>
        </extensions>
      </trkpt>
      <trkpt lat="43.12808758579194545745849609375" lon="13.0027302168309688568115234375">
        <ele>764.5999755859375</ele>
        <time>2021-05-09T08:00:30.000Z</time>
        <extensions>
          <ns3:TrackPointExtension>
            <ns3:atemp>20.0</ns3:atemp>
          </ns3:TrackPointExtension>
        </extensions>
      </trkpt>
      <trkpt lat="43.12806512229144573211669921875" lon="13.0028894729912281036376953125">
        <ele>765.4000244140625</ele>
        <time>2021-05-09T08:00:35.000Z</time>
        <extensions>
          <ns3:TrackPointExtension>
            <ns3:atemp>20.0</ns3:atemp>
          </ns3:TrackPointExtension>
        </extensions>
      </trkpt>
      <trkpt lat="43.1280536390841007232666015625" lon="13.00292023457586765289306640625">
        <ele>765.5999755859375</ele>
        <time>2021-05-09T08:00:36.000Z</time>
        <extensions>
          <ns3:TrackPointExtension>
            <ns3:atemp>20.0</ns3:atemp>
          </ns3:TrackPointExtension>
        </extensions>
      </trkpt>
      <trkpt lat="43.1279535591602325439453125" lon="13.00305618904531002044677734375">
        <ele>766.4000244140625</ele>
        <time>2021-05-09T08:00:42.000Z</time>
        <extensions>
          <ns3:TrackPointExtension>
            <ns3:atemp>20.0</ns3:atemp>
          </ns3:TrackPointExtension>
        </extensions>
      </trkpt>
      <trkpt lat="43.12779086641967296600341796875" lon="13.0031576938927173614501953125">
        <ele>767</ele>
        <time>2021-05-09T08:00:50.000Z</time>
        <extensions>
          <ns3:TrackPointExtension>
            <ns3:atemp>20.0</ns3:atemp>
          </ns3:TrackPointExtension>
        </extensions>
      </trkpt>
      <trkpt lat="43.12770319171249866485595703125" lon="13.00319214351475238800048828125">
        <ele>767.79998779296875</ele>
        <time>2021-05-09T08:00:54.000Z</time>
        <extensions>
          <ns3:TrackPointExtension>
            <ns3:atemp>20.0</ns3:atemp>
          </ns3:TrackPointExtension>
        </extensions>
      </trkpt>
      <trkpt lat="43.12763563357293605804443359375" lon="13.00322047434747219085693359375">
        <ele>768.20001220703125</ele>
        <time>2021-05-09T08:00:57.000Z</time>
        <extensions>
          <ns3:TrackPointExtension>
            <ns3:atemp>20.0</ns3:atemp>
          </ns3:TrackPointExtension>
        </extensions>
      </trkpt>
      <trkpt lat="43.12756354920566082000732421875" lon="13.00323589704930782318115234375">
        <ele>768.79998779296875</ele>
        <time>2021-05-09T08:01:00.000Z</time>
        <extensions>
          <ns3:TrackPointExtension>
            <ns3:atemp>20.0</ns3:atemp>
          </ns3:TrackPointExtension>
        </extensions>
      </trkpt>
      <trkpt lat="43.1274957396090030670166015625" lon="13.00325618125498294830322265625">
        <ele>769.4000244140625</ele>
        <time>2021-05-09T08:01:03.000Z</time>
        <extensions>
          <ns3:TrackPointExtension>
            <ns3:atemp>20.0</ns3:atemp>
          </ns3:TrackPointExtension>
        </extensions>
      </trkpt>
      <trkpt lat="43.12745123170316219329833984375" lon="13.00326590426266193389892578125">
        <ele>770</ele>
        <time>2021-05-09T08:01:05.000Z</time>
        <extensions>
          <ns3:TrackPointExtension>
            <ns3:atemp>20.0</ns3:atemp>
          </ns3:TrackPointExtension>
        </extensions>
      </trkpt>
      <trkpt lat="43.12736204825341701507568359375" lon="13.0032653175294399261474609375">
        <ele>770.79998779296875</ele>
        <time>2021-05-09T08:01:09.000Z</time>
        <extensions>
          <ns3:TrackPointExtension>
            <ns3:atemp>20.0</ns3:atemp>
          </ns3:TrackPointExtension>
        </extensions>
      </trkpt>
      <trkpt lat="43.1273425184190273284912109375" lon="13.00326523371040821075439453125">
        <ele>771.20001220703125</ele>
        <time>2021-05-09T08:01:10.000Z</time>
        <extensions>
          <ns3:TrackPointExtension>
            <ns3:atemp>20.0</ns3:atemp>
          </ns3:TrackPointExtension>
        </extensions>
      </trkpt>
      <trkpt lat="43.12720312736928462982177734375" lon="13.00325316376984119415283203125">
        <ele>772.5999755859375</ele>
        <time>2021-05-09T08:01:16.000Z</time>
        <extensions>
          <ns3:TrackPointExtension>
            <ns3:atemp>20.0</ns3:atemp>
          </ns3:TrackPointExtension>
        </extensions>
      </trkpt>
      <trkpt lat="43.12707446515560150146484375" lon="13.0032120086252689361572265625">
        <ele>773.5999755859375</ele>
        <time>2021-05-09T08:01:22.000Z</time>
        <extensions>
          <ns3:TrackPointExtension>
            <ns3:atemp>20.0</ns3:atemp>
          </ns3:TrackPointExtension>
        </extensions>
      </trkpt>
      <trkpt lat="43.12703314237296581268310546875" lon="13.003201447427272796630859375">
        <ele>774</ele>
        <time>2021-05-09T08:01:24.000Z</time>
        <extensions>
          <ns3:TrackPointExtension>
            <ns3:atemp>20.0</ns3:atemp>
          </ns3:TrackPointExtension>
        </extensions>
      </trkpt>
      <trkpt lat="43.12694840133190155029296875" lon="13.00318770110607147216796875">
        <ele>774.79998779296875</ele>
        <time>2021-05-09T08:01:28.000Z</time>
        <extensions>
          <ns3:TrackPointExtension>
            <ns3:atemp>20.0</ns3:atemp>
          </ns3:TrackPointExtension>
        </extensions>
      </trkpt>
      <trkpt lat="43.1268610619008541107177734375" lon="13.0031979270279407501220703125">
        <ele>775.5999755859375</ele>
        <time>2021-05-09T08:01:32.000Z</time>
        <extensions>
          <ns3:TrackPointExtension>
            <ns3:atemp>20.0</ns3:atemp>
          </ns3:TrackPointExtension>
        </extensions>
      </trkpt>
      <trkpt lat="43.12684220261871814727783203125" lon="13.00319834612309932708740234375">
        <ele>775.79998779296875</ele>
        <time>2021-05-09T08:01:33.000Z</time>
        <extensions>
          <ns3:TrackPointExtension>
            <ns3:atemp>20.0</ns3:atemp>
          </ns3:TrackPointExtension>
        </extensions>
      </trkpt>
      <trkpt lat="43.12673642300069332122802734375" lon="13.00320102833211421966552734375">
        <ele>776.79998779296875</ele>
        <time>2021-05-09T08:01:38.000Z</time>
        <extensions>
          <ns3:TrackPointExtension>
            <ns3:atemp>20.0</ns3:atemp>
          </ns3:TrackPointExtension>
        </extensions>
      </trkpt>
      <trkpt lat="43.12669484876096248626708984375" lon="13.003204800188541412353515625">
        <ele>777.4000244140625</ele>
        <time>2021-05-09T08:01:40.000Z</time>
        <extensions>
          <ns3:TrackPointExtension>
            <ns3:atemp>20.0</ns3:atemp>
          </ns3:TrackPointExtension>
        </extensions>
      </trkpt>
      <trkpt lat="43.12661186791956424713134765625" lon="13.0032009445130825042724609375">
        <ele>778</ele>
        <time>2021-05-09T08:01:44.000Z</time>
        <extensions>
          <ns3:TrackPointExtension>
            <ns3:atemp>20.0</ns3:atemp>
          </ns3:TrackPointExtension>
        </extensions>
      </trkpt>
      <trkpt lat="43.12657096423208713531494140625" lon="13.0032099969685077667236328125">
        <ele>778.5999755859375</ele>
        <time>2021-05-09T08:01:46.000Z</time>
        <extensions>
          <ns3:TrackPointExtension>
            <ns3:atemp>20.0</ns3:atemp>
          </ns3:TrackPointExtension>
        </extensions>
      </trkpt>
      <trkpt lat="43.12650709412992000579833984375" lon="13.0032173730432987213134765625">
        <ele>779.20001220703125</ele>
        <time>2021-05-09T08:01:49.000Z</time>
        <extensions>
          <ns3:TrackPointExtension>
            <ns3:atemp>20.0</ns3:atemp>
          </ns3:TrackPointExtension>
        </extensions>
      </trkpt>
      <trkpt lat="43.12644523568451404571533203125" lon="13.00323036499321460723876953125">
        <ele>780</ele>
        <time>2021-05-09T08:01:52.000Z</time>
        <extensions>
          <ns3:TrackPointExtension>
            <ns3:atemp>20.0</ns3:atemp>
          </ns3:TrackPointExtension>
        </extensions>
      </trkpt>
      <trkpt lat="43.12642092816531658172607421875" lon="13.003233969211578369140625">
        <ele>780.20001220703125</ele>
        <time>2021-05-09T08:01:53.000Z</time>
        <extensions>
          <ns3:TrackPointExtension>
            <ns3:atemp>20.0</ns3:atemp>
          </ns3:TrackPointExtension>
        </extensions>
      </trkpt>
      <trkpt lat="43.12626670114696025848388671875" lon="13.00327780656516551971435546875">
        <ele>781.4000244140625</ele>
        <time>2021-05-09T08:01:59.000Z</time>
        <extensions>
          <ns3:TrackPointExtension>
            <ns3:atemp>20.0</ns3:atemp>
          </ns3:TrackPointExtension>
        </extensions>
      </trkpt>
      <trkpt lat="43.12624390237033367156982421875" lon="13.0032850988209247589111328125">
        <ele>781.5999755859375</ele>
        <time>2021-05-09T08:02:00.000Z</time>
        <extensions>
          <ns3:TrackPointExtension>
            <ns3:atemp>20.0</ns3:atemp>
          </ns3:TrackPointExtension>
        </extensions>
      </trkpt>
      <trkpt lat="43.12613527290523052215576171875" lon="13.00332172773778438568115234375">
        <ele>782.20001220703125</ele>
        <time>2021-05-09T08:02:05.000Z</time>
        <extensions>
          <ns3:TrackPointExtension>
            <ns3:atemp>20.0</ns3:atemp>
          </ns3:TrackPointExtension>
        </extensions>
      </trkpt>
      <trkpt lat="43.126075677573680877685546875" lon="13.0033571831881999969482421875">
        <ele>782.79998779296875</ele>
        <time>2021-05-09T08:02:08.000Z</time>
        <extensions>
          <ns3:TrackPointExtension>
            <ns3:atemp>20.0</ns3:atemp>
          </ns3:TrackPointExtension>
        </extensions>
      </trkpt>
      <trkpt lat="43.12601440586149692535400390625" lon="13.00340487621724605560302734375">
        <ele>783.4000244140625</ele>
        <time>2021-05-09T08:02:11.000Z</time>
        <extensions>
          <ns3:TrackPointExtension>
            <ns3:atemp>20.0</ns3:atemp>
          </ns3:TrackPointExtension>
        </extensions>
      </trkpt>
      <trkpt lat="43.12592756934463977813720703125" lon="13.003446198999881744384765625">
        <ele>784.4000244140625</ele>
        <time>2021-05-09T08:02:15.000Z</time>
        <extensions>
          <ns3:TrackPointExtension>
            <ns3:atemp>20.0</ns3:atemp>
          </ns3:TrackPointExtension>
        </extensions>
      </trkpt>
      <trkpt lat="43.12590778805315494537353515625" lon="13.00345734693109989166259765625">
        <ele>784.5999755859375</ele>
        <time>2021-05-09T08:02:16.000Z</time>
        <extensions>
          <ns3:TrackPointExtension>
            <ns3:atemp>20.0</ns3:atemp>
          </ns3:TrackPointExtension>
        </extensions>
      </trkpt>
      <trkpt lat="43.12578809447586536407470703125" lon="13.00353772938251495361328125">
        <ele>785.5999755859375</ele>
        <time>2021-05-09T08:02:22.000Z</time>
        <extensions>
          <ns3:TrackPointExtension>
            <ns3:atemp>20.0</ns3:atemp>
          </ns3:TrackPointExtension>
        </extensions>
      </trkpt>
      <trkpt lat="43.12576848082244396209716796875" lon="13.00355223007500171661376953125">
        <ele>785.79998779296875</ele>
        <time>2021-05-09T08:02:23.000Z</time>
        <extensions>
          <ns3:TrackPointExtension>
            <ns3:atemp>20.0</ns3:atemp>
          </ns3:TrackPointExtension>
        </extensions>
      </trkpt>
      <trkpt lat="43.1256436742842197418212890625" lon="13.00365440547466278076171875">
        <ele>786.79998779296875</ele>
        <time>2021-05-09T08:02:29.000Z</time>
        <extensions>
          <ns3:TrackPointExtension>
            <ns3:atemp>20.0</ns3:atemp>
          </ns3:TrackPointExtension>
        </extensions>
      </trkpt>
      <trkpt lat="43.12548525631427764892578125" lon="13.00367309711873531341552734375">
        <ele>788</ele>
        <time>2021-05-09T08:02:36.000Z</time>
        <extensions>
          <ns3:TrackPointExtension>
            <ns3:atemp>20.0</ns3:atemp>
          </ns3:TrackPointExtension>
        </extensions>
      </trkpt>
      <trkpt lat="43.125377632677555084228515625" lon="13.00365515984594821929931640625">
        <ele>789</ele>
        <time>2021-05-09T08:02:41.000Z</time>
        <extensions>
          <ns3:TrackPointExtension>
            <ns3:atemp>20.0</ns3:atemp>
          </ns3:TrackPointExtension>
        </extensions>
      </trkpt>
      <trkpt lat="43.12532189302146434783935546875" lon="13.0036428384482860565185546875">
        <ele>789.79998779296875</ele>
        <time>2021-05-09T08:02:44.000Z</time>
        <extensions>
          <ns3:TrackPointExtension>
            <ns3:atemp>20.0</ns3:atemp>
          </ns3:TrackPointExtension>
        </extensions>
      </trkpt>
      <trkpt lat="43.12528467737138271331787109375" lon="13.00362984649837017059326171875">
        <ele>790</ele>
        <time>2021-05-09T08:02:46.000Z</time>
        <extensions>
          <ns3:TrackPointExtension>
            <ns3:atemp>20.0</ns3:atemp>
          </ns3:TrackPointExtension>
        </extensions>
      </trkpt>
      <trkpt lat="43.12519985251128673553466796875" lon="13.0036324448883533477783203125">
        <ele>791.20001220703125</ele>
        <time>2021-05-09T08:02:51.000Z</time>
        <extensions>
          <ns3:TrackPointExtension>
            <ns3:atemp>20.0</ns3:atemp>
          </ns3:TrackPointExtension>
        </extensions>
      </trkpt>
      <trkpt lat="43.12508837319910526275634765625" lon="13.0036049522459506988525390625">
        <ele>792.20001220703125</ele>
        <time>2021-05-09T08:02:57.000Z</time>
        <extensions>
          <ns3:TrackPointExtension>
            <ns3:atemp>20.0</ns3:atemp>
          </ns3:TrackPointExtension>
        </extensions>
      </trkpt>
      <trkpt lat="43.12496482394635677337646484375" lon="13.0035684071481227874755859375">
        <ele>793.20001220703125</ele>
        <time>2021-05-09T08:03:03.000Z</time>
        <extensions>
          <ns3:TrackPointExtension>
            <ns3:atemp>20.0</ns3:atemp>
          </ns3:TrackPointExtension>
        </extensions>
      </trkpt>
      <trkpt lat="43.12494453974068164825439453125" lon="13.003560863435268402099609375">
        <ele>793.4000244140625</ele>
        <time>2021-05-09T08:03:04.000Z</time>
        <extensions>
          <ns3:TrackPointExtension>
            <ns3:atemp>20.0</ns3:atemp>
          </ns3:TrackPointExtension>
        </extensions>
      </trkpt>
      <trkpt lat="43.124829120934009552001953125" lon="13.003513924777507781982421875">
        <ele>794.4000244140625</ele>
        <time>2021-05-09T08:03:09.000Z</time>
        <extensions>
          <ns3:TrackPointExtension>
            <ns3:atemp>20.0</ns3:atemp>
          </ns3:TrackPointExtension>
        </extensions>
      </trkpt>
      <trkpt lat="43.12477849423885345458984375" lon="13.00349338911473751068115234375">
        <ele>794.79998779296875</ele>
        <time>2021-05-09T08:03:11.000Z</time>
        <extensions>
          <ns3:TrackPointExtension>
            <ns3:atemp>20.0</ns3:atemp>
          </ns3:TrackPointExtension>
        </extensions>
      </trkpt>
      <trkpt lat="43.124707750976085662841796875" lon="13.00346254371106624603271484375">
        <ele>795.4000244140625</ele>
        <time>2021-05-09T08:03:14.000Z</time>
        <extensions>
          <ns3:TrackPointExtension>
            <ns3:atemp>20.0</ns3:atemp>
          </ns3:TrackPointExtension>
        </extensions>
      </trkpt>
      <trkpt lat="43.12461345456540584564208984375" lon="13.00343370996415615081787109375">
        <ele>796.4000244140625</ele>
        <time>2021-05-09T08:03:18.000Z</time>
        <extensions>
          <ns3:TrackPointExtension>
            <ns3:atemp>20.0</ns3:atemp>
          </ns3:TrackPointExtension>
        </extensions>
      </trkpt>
      <trkpt lat="43.12458663247525691986083984375" lon="13.00343018956482410430908203125">
        <ele>796.5999755859375</ele>
        <time>2021-05-09T08:03:19.000Z</time>
        <extensions>
          <ns3:TrackPointExtension>
            <ns3:atemp>20.0</ns3:atemp>
          </ns3:TrackPointExtension>
        </extensions>
      </trkpt>
      <trkpt lat="43.12446794472634792327880859375" lon="13.00340940244495868682861328125">
        <ele>797.5999755859375</ele>
        <time>2021-05-09T08:03:24.000Z</time>
        <extensions>
          <ns3:TrackPointExtension>
            <ns3:atemp>20.0</ns3:atemp>
          </ns3:TrackPointExtension>
        </extensions>
      </trkpt>
      <trkpt lat="43.1243585608899593353271484375" lon="13.00339934416115283966064453125">
        <ele>798.20001220703125</ele>
        <time>2021-05-09T08:03:29.000Z</time>
        <extensions>
          <ns3:TrackPointExtension>
            <ns3:atemp>20.0</ns3:atemp>
          </ns3:TrackPointExtension>
        </extensions>
      </trkpt>
      <trkpt lat="43.124309442937374114990234375" lon="13.00338610075414180755615234375">
        <ele>798.5999755859375</ele>
        <time>2021-05-09T08:03:31.000Z</time>
        <extensions>
          <ns3:TrackPointExtension>
            <ns3:atemp>20.0</ns3:atemp>
          </ns3:TrackPointExtension>
        </extensions>
      </trkpt>
      <trkpt lat="43.124212883412837982177734375" lon="13.00338308326900005340576171875">
        <ele>799.20001220703125</ele>
        <time>2021-05-09T08:03:35.000Z</time>
        <extensions>
          <ns3:TrackPointExtension>
            <ns3:atemp>20.0</ns3:atemp>
          </ns3:TrackPointExtension>
        </extensions>
      </trkpt>
      <trkpt lat="43.1241439841687679290771484375" lon="13.003367073833942413330078125">
        <ele>799.79998779296875</ele>
        <time>2021-05-09T08:03:38.000Z</time>
        <extensions>
          <ns3:TrackPointExtension>
            <ns3:atemp>20.0</ns3:atemp>
          </ns3:TrackPointExtension>
        </extensions>
      </trkpt>
      <trkpt lat="43.12404365278780460357666015625" lon="13.00332994200289249420166015625">
        <ele>800.79998779296875</ele>
        <time>2021-05-09T08:03:42.000Z</time>
        <extensions>
          <ns3:TrackPointExtension>
            <ns3:atemp>20.0</ns3:atemp>
          </ns3:TrackPointExtension>
        </extensions>
      </trkpt>
      <trkpt lat="43.12401750124990940093994140625" lon="13.0033162795007228851318359375">
        <ele>801</ele>
        <time>2021-05-09T08:03:43.000Z</time>
        <extensions>
          <ns3:TrackPointExtension>
            <ns3:atemp>20.0</ns3:atemp>
          </ns3:TrackPointExtension>
        </extensions>
      </trkpt>
      <trkpt lat="43.12389479018747806549072265625" lon="13.00327126868069171905517578125">
        <ele>802</ele>
        <time>2021-05-09T08:03:48.000Z</time>
        <extensions>
          <ns3:TrackPointExtension>
            <ns3:atemp>20.0</ns3:atemp>
          </ns3:TrackPointExtension>
        </extensions>
      </trkpt>
      <trkpt lat="43.12377777881920337677001953125" lon="13.0032405070960521697998046875">
        <ele>803</ele>
        <time>2021-05-09T08:03:53.000Z</time>
        <extensions>
          <ns3:TrackPointExtension>
            <ns3:atemp>20.0</ns3:atemp>
          </ns3:TrackPointExtension>
        </extensions>
      </trkpt>
      <trkpt lat="43.1237285770475864410400390625" lon="13.003230281174182891845703125">
        <ele>803.4000244140625</ele>
        <time>2021-05-09T08:03:55.000Z</time>
        <extensions>
          <ns3:TrackPointExtension>
            <ns3:atemp>20.0</ns3:atemp>
          </ns3:TrackPointExtension>
        </extensions>
      </trkpt>
      <trkpt lat="43.12365422956645488739013671875" lon="13.0032130144536495208740234375">
        <ele>804</ele>
        <time>2021-05-09T08:03:58.000Z</time>
        <extensions>
          <ns3:TrackPointExtension>
            <ns3:atemp>20.0</ns3:atemp>
          </ns3:TrackPointExtension>
        </extensions>
      </trkpt>
      <trkpt lat="43.12357686460018157958984375" lon="13.00319516099989414215087890625">
        <ele>804.5999755859375</ele>
        <time>2021-05-09T08:04:01.000Z</time>
        <extensions>
          <ns3:TrackPointExtension>
            <ns3:atemp>20.0</ns3:atemp>
          </ns3:TrackPointExtension>
        </extensions>
      </trkpt>
      <trkpt lat="43.123527579009532928466796875" lon="13.00318493507802486419677734375">
        <ele>804.79998779296875</ele>
        <time>2021-05-09T08:04:03.000Z</time>
        <extensions>
          <ns3:TrackPointExtension>
            <ns3:atemp>20.0</ns3:atemp>
          </ns3:TrackPointExtension>
        </extensions>
      </trkpt>
      <trkpt lat="43.12342188321053981781005859375" lon="13.00315953791141510009765625">
        <ele>805.4000244140625</ele>
        <time>2021-05-09T08:04:07.000Z</time>
        <extensions>
          <ns3:TrackPointExtension>
            <ns3:atemp>21.0</ns3:atemp>
          </ns3:TrackPointExtension>
        </extensions>
      </trkpt>
      <trkpt lat="43.12334309332072734832763671875" lon="13.0031439475715160369873046875">
        <ele>806.20001220703125</ele>
        <time>2021-05-09T08:04:10.000Z</time>
        <extensions>
          <ns3:TrackPointExtension>
            <ns3:atemp>21.0</ns3:atemp>
          </ns3:TrackPointExtension>
        </extensions>
      </trkpt>
      <trkpt lat="43.12324829399585723876953125" lon="13.00312693230807781219482421875">
        <ele>806.79998779296875</ele>
        <time>2021-05-09T08:04:14.000Z</time>
        <extensions>
          <ns3:TrackPointExtension>
            <ns3:atemp>21.0</ns3:atemp>
          </ns3:TrackPointExtension>
        </extensions>
      </trkpt>
      <trkpt lat="43.123199008405208587646484375" lon="13.00312223844230175018310546875">
        <ele>807.4000244140625</ele>
        <time>2021-05-09T08:04:16.000Z</time>
        <extensions>
          <ns3:TrackPointExtension>
            <ns3:atemp>21.0</ns3:atemp>
          </ns3:TrackPointExtension>
        </extensions>
      </trkpt>
      <trkpt lat="43.123053498566150665283203125" lon="13.0031038820743560791015625">
        <ele>808.4000244140625</ele>
        <time>2021-05-09T08:04:22.000Z</time>
        <extensions>
          <ns3:TrackPointExtension>
            <ns3:atemp>21.0</ns3:atemp>
          </ns3:TrackPointExtension>
        </extensions>
      </trkpt>
      <trkpt lat="43.122912347316741943359375" lon="13.00308301113545894622802734375">
        <ele>809.79998779296875</ele>
        <time>2021-05-09T08:04:28.000Z</time>
        <extensions>
          <ns3:TrackPointExtension>
            <ns3:atemp>21.0</ns3:atemp>
          </ns3:TrackPointExtension>
        </extensions>
      </trkpt>
      <trkpt lat="43.12289013527333736419677734375" lon="13.0030809156596660614013671875">
        <ele>810</ele>
        <time>2021-05-09T08:04:29.000Z</time>
        <extensions>
          <ns3:TrackPointExtension>
            <ns3:atemp>21.0</ns3:atemp>
          </ns3:TrackPointExtension>
        </extensions>
      </trkpt>
      <trkpt lat="43.1228045560419559478759765625" lon="13.0030596256256103515625">
        <ele>810.79998779296875</ele>
        <time>2021-05-09T08:04:33.000Z</time>
        <extensions>
          <ns3:TrackPointExtension>
            <ns3:atemp>21.0</ns3:atemp>
          </ns3:TrackPointExtension>
        </extensions>
      </trkpt>
      <trkpt lat="43.12270573340356349945068359375" lon="13.00303657539188861846923828125">
        <ele>811.4000244140625</ele>
        <time>2021-05-09T08:04:37.000Z</time>
        <extensions>
          <ns3:TrackPointExtension>
            <ns3:atemp>21.0</ns3:atemp>
          </ns3:TrackPointExtension>
        </extensions>
      </trkpt>
      <trkpt lat="43.12265728600323200225830078125" lon="13.00303875468671321868896484375">
        <ele>811.79998779296875</ele>
        <time>2021-05-09T08:04:39.000Z</time>
        <extensions>
          <ns3:TrackPointExtension>
            <ns3:atemp>21.0</ns3:atemp>
          </ns3:TrackPointExtension>
        </extensions>
      </trkpt>
      <trkpt lat="43.122539855539798736572265625" lon="13.0030260980129241943359375">
        <ele>812.4000244140625</ele>
        <time>2021-05-09T08:04:44.000Z</time>
        <extensions>
          <ns3:TrackPointExtension>
            <ns3:atemp>21.0</ns3:atemp>
          </ns3:TrackPointExtension>
        </extensions>
      </trkpt>
      <trkpt lat="43.12249367125332355499267578125" lon="13.0030209012329578399658203125">
        <ele>812.5999755859375</ele>
        <time>2021-05-09T08:04:46.000Z</time>
        <extensions>
          <ns3:TrackPointExtension>
            <ns3:atemp>21.0</ns3:atemp>
          </ns3:TrackPointExtension>
        </extensions>
      </trkpt>
      <trkpt lat="43.1223747320473194122314453125" lon="13.0030363239347934722900390625">
        <ele>813.79998779296875</ele>
        <time>2021-05-09T08:04:51.000Z</time>
        <extensions>
          <ns3:TrackPointExtension>
            <ns3:atemp>21.0</ns3:atemp>
          </ns3:TrackPointExtension>
        </extensions>
      </trkpt>
      <trkpt lat="43.122349418699741363525390625" lon="13.0030353181064128875732421875">
        <ele>814</ele>
        <time>2021-05-09T08:04:52.000Z</time>
        <extensions>
          <ns3:TrackPointExtension>
            <ns3:atemp>21.0</ns3:atemp>
          </ns3:TrackPointExtension>
        </extensions>
      </trkpt>
      <trkpt lat="43.1222543679177761077880859375" lon="13.00305400975048542022705078125">
        <ele>814.79998779296875</ele>
        <time>2021-05-09T08:04:56.000Z</time>
        <extensions>
          <ns3:TrackPointExtension>
            <ns3:atemp>21.0</ns3:atemp>
          </ns3:TrackPointExtension>
        </extensions>
      </trkpt>
      <trkpt lat="43.1221873126924037933349609375" lon="13.003086782991886138916015625">
        <ele>815.5999755859375</ele>
        <time>2021-05-09T08:04:59.000Z</time>
        <extensions>
          <ns3:TrackPointExtension>
            <ns3:atemp>21.0</ns3:atemp>
          </ns3:TrackPointExtension>
        </extensions>
      </trkpt>
      <trkpt lat="43.1221640110015869140625" lon="13.00309340469539165496826171875">
        <ele>816</ele>
        <time>2021-05-09T08:05:00.000Z</time>
        <extensions>
          <ns3:TrackPointExtension>
            <ns3:atemp>21.0</ns3:atemp>
          </ns3:TrackPointExtension>
        </extensions>
      </trkpt>
      <trkpt lat="43.12204741872847080230712890625" lon="13.00313648767769336700439453125">
        <ele>817</ele>
        <time>2021-05-09T08:05:05.000Z</time>
        <extensions>
          <ns3:TrackPointExtension>
            <ns3:atemp>21.0</ns3:atemp>
          </ns3:TrackPointExtension>
        </extensions>
      </trkpt>
      <trkpt lat="43.12202646397054195404052734375" lon="13.0031436122953891754150390625">
        <ele>817.20001220703125</ele>
        <time>2021-05-09T08:05:06.000Z</time>
        <extensions>
          <ns3:TrackPointExtension>
            <ns3:atemp>21.0</ns3:atemp>
          </ns3:TrackPointExtension>
        </extensions>
      </trkpt>
      <trkpt lat="43.1219599954783916473388671875" lon="13.0031597055494785308837890625">
        <ele>818</ele>
        <time>2021-05-09T08:05:09.000Z</time>
        <extensions>
          <ns3:TrackPointExtension>
            <ns3:atemp>21.0</ns3:atemp>
          </ns3:TrackPointExtension>
        </extensions>
      </trkpt>
      <trkpt lat="43.12189151532948017120361328125" lon="13.00316247157752513885498046875">
        <ele>818.5999755859375</ele>
        <time>2021-05-09T08:05:12.000Z</time>
        <extensions>
          <ns3:TrackPointExtension>
            <ns3:atemp>21.0</ns3:atemp>
          </ns3:TrackPointExtension>
        </extensions>
      </trkpt>
      <trkpt lat="43.121821694076061248779296875" lon="13.0031694285571575164794921875">
        <ele>819.4000244140625</ele>
        <time>2021-05-09T08:05:15.000Z</time>
        <extensions>
          <ns3:TrackPointExtension>
            <ns3:atemp>21.0</ns3:atemp>
          </ns3:TrackPointExtension>
        </extensions>
      </trkpt>
      <trkpt lat="43.12179780565202236175537109375" lon="13.0031763017177581787109375">
        <ele>819.5999755859375</ele>
        <time>2021-05-09T08:05:16.000Z</time>
        <extensions>
          <ns3:TrackPointExtension>
            <ns3:atemp>21.0</ns3:atemp>
          </ns3:TrackPointExtension>
        </extensions>
      </trkpt>
      <trkpt lat="43.12175564467906951904296875" lon="13.00318904221057891845703125">
        <ele>820</ele>
        <time>2021-05-09T08:05:18.000Z</time>
        <extensions>
          <ns3:TrackPointExtension>
            <ns3:atemp>21.0</ns3:atemp>
          </ns3:TrackPointExtension>
        </extensions>
      </trkpt>
      <trkpt lat="43.12171113677322864532470703125" lon="13.00319298170506954193115234375">
        <ele>820.4000244140625</ele>
        <time>2021-05-09T08:05:20.000Z</time>
        <extensions>
          <ns3:TrackPointExtension>
            <ns3:atemp>21.0</ns3:atemp>
          </ns3:TrackPointExtension>
        </extensions>
      </trkpt>
      <trkpt lat="43.12159228138625621795654296875" lon="13.0031942389905452728271484375">
        <ele>821.4000244140625</ele>
        <time>2021-05-09T08:05:25.000Z</time>
        <extensions>
          <ns3:TrackPointExtension>
            <ns3:atemp>21.0</ns3:atemp>
          </ns3:TrackPointExtension>
        </extensions>
      </trkpt>
      <trkpt lat="43.12156629748642444610595703125" lon="13.0031949095427989959716796875">
        <ele>821.79998779296875</ele>
        <time>2021-05-09T08:05:26.000Z</time>
        <extensions>
          <ns3:TrackPointExtension>
            <ns3:atemp>21.0</ns3:atemp>
          </ns3:TrackPointExtension>
        </extensions>
      </trkpt>
      <trkpt lat="43.12147007323801517486572265625" lon="13.00319013185799121856689453125">
        <ele>822.5999755859375</ele>
        <time>2021-05-09T08:05:30.000Z</time>
        <extensions>
          <ns3:TrackPointExtension>
            <ns3:atemp>21.0</ns3:atemp>
          </ns3:TrackPointExtension>
        </extensions>
      </trkpt>
      <trkpt lat="43.121382482349872589111328125" lon="13.00317940302193164825439453125">
        <ele>823.20001220703125</ele>
        <time>2021-05-09T08:05:34.000Z</time>
        <extensions>
          <ns3:TrackPointExtension>
            <ns3:atemp>21.0</ns3:atemp>
          </ns3:TrackPointExtension>
        </extensions>
      </trkpt>
      <trkpt lat="43.12133881263434886932373046875" lon="13.00317655317485332489013671875">
        <ele>823.79998779296875</ele>
        <time>2021-05-09T08:05:36.000Z</time>
        <extensions>
          <ns3:TrackPointExtension>
            <ns3:atemp>21.0</ns3:atemp>
          </ns3:TrackPointExtension>
        </extensions>
      </trkpt>
      <trkpt lat="43.12123202718794345855712890625" lon="13.00320454873144626617431640625">
        <ele>825</ele>
        <time>2021-05-09T08:05:41.000Z</time>
        <extensions>
          <ns3:TrackPointExtension>
            <ns3:atemp>21.0</ns3:atemp>
          </ns3:TrackPointExtension>
        </extensions>
      </trkpt>
      <trkpt lat="43.1211345456540584564208984375" lon="13.00319918431341648101806640625">
        <ele>826</ele>
        <time>2021-05-09T08:05:45.000Z</time>
        <extensions>
          <ns3:TrackPointExtension>
            <ns3:atemp>21.0</ns3:atemp>
          </ns3:TrackPointExtension>
        </extensions>
      </trkpt>
      <trkpt lat="43.1210876069962978363037109375" lon="13.00319968722760677337646484375">
        <ele>826.5999755859375</ele>
        <time>2021-05-09T08:05:47.000Z</time>
        <extensions>
          <ns3:TrackPointExtension>
            <ns3:atemp>21.0</ns3:atemp>
          </ns3:TrackPointExtension>
        </extensions>
      </trkpt>
      <trkpt lat="43.12099456787109375" lon="13.003218211233615875244140625">
        <ele>827.20001220703125</ele>
        <time>2021-05-09T08:05:51.000Z</time>
        <extensions>
          <ns3:TrackPointExtension>
            <ns3:atemp>21.0</ns3:atemp>
          </ns3:TrackPointExtension>
        </extensions>
      </trkpt>
      <trkpt lat="43.12090530060231685638427734375" lon="13.00323086790740489959716796875">
        <ele>828</ele>
        <time>2021-05-09T08:05:55.000Z</time>
        <extensions>
          <ns3:TrackPointExtension>
            <ns3:atemp>21.0</ns3:atemp>
          </ns3:TrackPointExtension>
        </extensions>
      </trkpt>
      <trkpt lat="43.1208646483719348907470703125" lon="13.00323489122092723846435546875">
        <ele>828.20001220703125</ele>
        <time>2021-05-09T08:05:57.000Z</time>
        <extensions>
          <ns3:TrackPointExtension>
            <ns3:atemp>21.0</ns3:atemp>
          </ns3:TrackPointExtension>
        </extensions>
      </trkpt>
      <trkpt lat="43.12075342051684856414794921875" lon="13.00324662588536739349365234375">
        <ele>829.4000244140625</ele>
        <time>2021-05-09T08:06:02.000Z</time>
        <extensions>
          <ns3:TrackPointExtension>
            <ns3:atemp>21.0</ns3:atemp>
          </ns3:TrackPointExtension>
        </extensions>
      </trkpt>
      <trkpt lat="43.1207315437495708465576171875" lon="13.00325098447501659393310546875">
        <ele>829.4000244140625</ele>
        <time>2021-05-09T08:06:03.000Z</time>
        <extensions>
          <ns3:TrackPointExtension>
            <ns3:atemp>21.0</ns3:atemp>
          </ns3:TrackPointExtension>
        </extensions>
      </trkpt>
      <trkpt lat="43.12066842801868915557861328125" lon="13.00328023731708526611328125">
        <ele>830.20001220703125</ele>
        <time>2021-05-09T08:06:06.000Z</time>
        <extensions>
          <ns3:TrackPointExtension>
            <ns3:atemp>21.0</ns3:atemp>
          </ns3:TrackPointExtension>
        </extensions>
      </trkpt>
      <trkpt lat="43.12061193399131298065185546875" lon="13.0033001862466335296630859375">
        <ele>831.20001220703125</ele>
        <time>2021-05-09T08:06:09.000Z</time>
        <extensions>
          <ns3:TrackPointExtension>
            <ns3:atemp>21.0</ns3:atemp>
          </ns3:TrackPointExtension>
        </extensions>
      </trkpt>
      <trkpt lat="43.1205558590590953826904296875" lon="13.0033192969858646392822265625">
        <ele>831.79998779296875</ele>
        <time>2021-05-09T08:06:12.000Z</time>
        <extensions>
          <ns3:TrackPointExtension>
            <ns3:atemp>21.0</ns3:atemp>
          </ns3:TrackPointExtension>
        </extensions>
      </trkpt>
      <trkpt lat="43.120514787733554840087890625" lon="13.00333228893578052520751953125">
        <ele>832.4000244140625</ele>
        <time>2021-05-09T08:06:14.000Z</time>
        <extensions>
          <ns3:TrackPointExtension>
            <ns3:atemp>21.0</ns3:atemp>
          </ns3:TrackPointExtension>
        </extensions>
      </trkpt>
      <trkpt lat="43.12040288932621479034423828125" lon="13.0033498071134090423583984375">
        <ele>833.20001220703125</ele>
        <time>2021-05-09T08:06:19.000Z</time>
        <extensions>
          <ns3:TrackPointExtension>
            <ns3:atemp>21.0</ns3:atemp>
          </ns3:TrackPointExtension>
        </extensions>
      </trkpt>
      <trkpt lat="43.12036366201937198638916015625" lon="13.00336045213043689727783203125">
        <ele>833.4000244140625</ele>
        <time>2021-05-09T08:06:21.000Z</time>
        <extensions>
          <ns3:TrackPointExtension>
            <ns3:atemp>21.0</ns3:atemp>
          </ns3:TrackPointExtension>
        </extensions>
      </trkpt>
      <trkpt lat="43.1202671863138675689697265625" lon="13.00337621010839939117431640625">
        <ele>834.5999755859375</ele>
        <time>2021-05-09T08:06:26.000Z</time>
        <extensions>
          <ns3:TrackPointExtension>
            <ns3:atemp>21.0</ns3:atemp>
          </ns3:TrackPointExtension>
        </extensions>
      </trkpt>
      <trkpt lat="43.12022938393056392669677734375" lon="13.0033801496028900146484375">
        <ele>835</ele>
        <time>2021-05-09T08:06:28.000Z</time>
        <extensions>
          <ns3:TrackPointExtension>
            <ns3:atemp>21.0</ns3:atemp>
          </ns3:TrackPointExtension>
        </extensions>
      </trkpt>
      <trkpt lat="43.120166771113872528076171875" lon="13.00337570719420909881591796875">
        <ele>835.4000244140625</ele>
        <time>2021-05-09T08:06:31.000Z</time>
        <extensions>
          <ns3:TrackPointExtension>
            <ns3:atemp>21.0</ns3:atemp>
          </ns3:TrackPointExtension>
        </extensions>
      </trkpt>
      <trkpt lat="43.12010767869651317596435546875" lon="13.0033772997558116912841796875">
        <ele>835.79998779296875</ele>
        <time>2021-05-09T08:06:34.000Z</time>
        <extensions>
          <ns3:TrackPointExtension>
            <ns3:atemp>21.0</ns3:atemp>
          </ns3:TrackPointExtension>
        </extensions>
      </trkpt>
      <trkpt lat="43.12006543390452861785888671875" lon="13.00339146517217159271240234375">
        <ele>836.5999755859375</ele>
        <time>2021-05-09T08:06:36.000Z</time>
        <extensions>
          <ns3:TrackPointExtension>
            <ns3:atemp>21.0</ns3:atemp>
          </ns3:TrackPointExtension>
        </extensions>
      </trkpt>
      <trkpt lat="43.119985722005367279052734375" lon="13.00338559783995151519775390625">
        <ele>837.20001220703125</ele>
        <time>2021-05-09T08:06:40.000Z</time>
        <extensions>
          <ns3:TrackPointExtension>
            <ns3:atemp>21.0</ns3:atemp>
          </ns3:TrackPointExtension>
        </extensions>
      </trkpt>
      <trkpt lat="43.11994708143174648284912109375" lon="13.00339364446699619293212890625">
        <ele>837.5999755859375</ele>
        <time>2021-05-09T08:06:42.000Z</time>
        <extensions>
          <ns3:TrackPointExtension>
            <ns3:atemp>21.0</ns3:atemp>
          </ns3:TrackPointExtension>
        </extensions>
      </trkpt>
      <trkpt lat="43.11986736953258514404296875" lon="13.0034064687788486480712890625">
        <ele>838.5999755859375</ele>
        <time>2021-05-09T08:06:46.000Z</time>
        <extensions>
          <ns3:TrackPointExtension>
            <ns3:atemp>21.0</ns3:atemp>
          </ns3:TrackPointExtension>
        </extensions>
      </trkpt>
      <trkpt lat="43.11984616331756114959716796875" lon="13.00341191701591014862060546875">
        <ele>838.79998779296875</ele>
        <time>2021-05-09T08:06:47.000Z</time>
        <extensions>
          <ns3:TrackPointExtension>
            <ns3:atemp>21.0</ns3:atemp>
          </ns3:TrackPointExtension>
        </extensions>
      </trkpt>
      <trkpt lat="43.11974373646080493927001953125" lon="13.0034393258392810821533203125">
        <ele>839.79998779296875</ele>
        <time>2021-05-09T08:06:52.000Z</time>
        <extensions>
          <ns3:TrackPointExtension>
            <ns3:atemp>21.0</ns3:atemp>
          </ns3:TrackPointExtension>
        </extensions>
      </trkpt>
      <trkpt lat="43.11970300041139125823974609375" lon="13.00344142131507396697998046875">
        <ele>840.20001220703125</ele>
        <time>2021-05-09T08:06:54.000Z</time>
        <extensions>
          <ns3:TrackPointExtension>
            <ns3:atemp>21.0</ns3:atemp>
          </ns3:TrackPointExtension>
        </extensions>
      </trkpt>
      <trkpt lat="43.1196197681128978729248046875" lon="13.003457598388195037841796875">
        <ele>841</ele>
        <time>2021-05-09T08:06:58.000Z</time>
        <extensions>
          <ns3:TrackPointExtension>
            <ns3:atemp>21.0</ns3:atemp>
          </ns3:TrackPointExtension>
        </extensions>
      </trkpt>
      <trkpt lat="43.119573332369327545166015625" lon="13.003465645015239715576171875">
        <ele>841.4000244140625</ele>
        <time>2021-05-09T08:07:00.000Z</time>
        <extensions>
          <ns3:TrackPointExtension>
            <ns3:atemp>21.0</ns3:atemp>
          </ns3:TrackPointExtension>
        </extensions>
      </trkpt>
      <trkpt lat="43.1195032596588134765625" lon="13.00348903052508831024169921875">
        <ele>842</ele>
        <time>2021-05-09T08:07:03.000Z</time>
        <extensions>
          <ns3:TrackPointExtension>
            <ns3:atemp>21.0</ns3:atemp>
          </ns3:TrackPointExtension>
        </extensions>
      </trkpt>
      <trkpt lat="43.1194601766765117645263671875" lon="13.00352004356682300567626953125">
        <ele>842.5999755859375</ele>
        <time>2021-05-09T08:07:05.000Z</time>
        <extensions>
          <ns3:TrackPointExtension>
            <ns3:atemp>21.0</ns3:atemp>
          </ns3:TrackPointExtension>
        </extensions>
      </trkpt>
      <trkpt lat="43.1193803809583187103271484375" lon="13.00354032777249813079833984375">
        <ele>842.79998779296875</ele>
        <time>2021-05-09T08:07:09.000Z</time>
        <extensions>
          <ns3:TrackPointExtension>
            <ns3:atemp>22.0</ns3:atemp>
          </ns3:TrackPointExtension>
        </extensions>
      </trkpt>
      <trkpt lat="43.119368143379688262939453125" lon="13.00353236496448516845703125">
        <ele>843</ele>
        <time>2021-05-09T08:07:10.000Z</time>
        <extensions>
          <ns3:TrackPointExtension>
            <ns3:atemp>22.0</ns3:atemp>
          </ns3:TrackPointExtension>
        </extensions>
      </trkpt>
      <trkpt lat="43.11938054859638214111328125" lon="13.00347260199487209320068359375">
        <ele>843.5999755859375</ele>
        <time>2021-05-09T08:07:14.000Z</time>
        <extensions>
          <ns3:TrackPointExtension>
            <ns3:atemp>22.0</ns3:atemp>
          </ns3:TrackPointExtension>
        </extensions>
      </trkpt>
      <trkpt lat="43.119411058723926544189453125" lon="13.0034537427127361297607421875">
        <ele>844</ele>
        <time>2021-05-09T08:07:16.000Z</time>
        <extensions>
          <ns3:TrackPointExtension>
            <ns3:atemp>22.0</ns3:atemp>
          </ns3:TrackPointExtension>
        </extensions>
      </trkpt>
      <trkpt lat="43.11946914531290531158447265625" lon="13.0034493841230869293212890625">
        <ele>844.79998779296875</ele>
        <time>2021-05-09T08:07:19.000Z</time>
        <extensions>
          <ns3:TrackPointExtension>
            <ns3:atemp>22.0</ns3:atemp>
          </ns3:TrackPointExtension>
        </extensions>
      </trkpt>
      <trkpt lat="43.11951088719069957733154296875" lon="13.00344058312475681304931640625">
        <ele>845.20001220703125</ele>
        <time>2021-05-09T08:07:21.000Z</time>
        <extensions>
          <ns3:TrackPointExtension>
            <ns3:atemp>22.0</ns3:atemp>
          </ns3:TrackPointExtension>
        </extensions>
      </trkpt>
      <trkpt lat="43.11959386803209781646728515625" lon="13.00343069247901439666748046875">
        <ele>845.4000244140625</ele>
        <time>2021-05-09T08:07:25.000Z</time>
        <extensions>
          <ns3:TrackPointExtension>
            <ns3:atemp>22.0</ns3:atemp>
          </ns3:TrackPointExtension>
        </extensions>
      </trkpt>
      <trkpt lat="43.11973887495696544647216796875" lon="13.00337813794612884521484375">
        <ele>846</ele>
        <time>2021-05-09T08:07:32.000Z</time>
        <extensions>
          <ns3:TrackPointExtension>
            <ns3:atemp>22.0</ns3:atemp>
          </ns3:TrackPointExtension>
        </extensions>
      </trkpt>
      <trkpt lat="43.1197605840861797332763671875" lon="13.00337067805230617523193359375">
        <ele>846.20001220703125</ele>
        <time>2021-05-09T08:07:33.000Z</time>
        <extensions>
          <ns3:TrackPointExtension>
            <ns3:atemp>22.0</ns3:atemp>
          </ns3:TrackPointExtension>
        </extensions>
      </trkpt>
      <trkpt lat="43.11981414444744586944580078125" lon="13.00333178602159023284912109375">
        <ele>847.20001220703125</ele>
        <time>2021-05-09T08:07:36.000Z</time>
        <extensions>
          <ns3:TrackPointExtension>
            <ns3:atemp>22.0</ns3:atemp>
          </ns3:TrackPointExtension>
        </extensions>
      </trkpt>
      <trkpt lat="43.11986845917999744415283203125" lon="13.00329096615314483642578125">
        <ele>847.5999755859375</ele>
        <time>2021-05-09T08:07:39.000Z</time>
        <extensions>
          <ns3:TrackPointExtension>
            <ns3:atemp>22.0</ns3:atemp>
          </ns3:TrackPointExtension>
        </extensions>
      </trkpt>
      <trkpt lat="43.11992235481739044189453125" lon="13.00324645824730396270751953125">
        <ele>848.4000244140625</ele>
        <time>2021-05-09T08:07:42.000Z</time>
        <extensions>
          <ns3:TrackPointExtension>
            <ns3:atemp>22.0</ns3:atemp>
          </ns3:TrackPointExtension>
        </extensions>
      </trkpt>
      <trkpt lat="43.11998010613024234771728515625" lon="13.00322164781391620635986328125">
        <ele>849</ele>
        <time>2021-05-09T08:07:45.000Z</time>
        <extensions>
          <ns3:TrackPointExtension>
            <ns3:atemp>22.0</ns3:atemp>
          </ns3:TrackPointExtension>
        </extensions>
      </trkpt>
      <trkpt lat="43.1200214289128780364990234375" lon="13.00320102833211421966552734375">
        <ele>849.4000244140625</ele>
        <time>2021-05-09T08:07:47.000Z</time>
        <extensions>
          <ns3:TrackPointExtension>
            <ns3:atemp>22.0</ns3:atemp>
          </ns3:TrackPointExtension>
        </extensions>
      </trkpt>
      <trkpt lat="43.12004062347114086151123046875" lon="13.00318560563027858734130859375">
        <ele>849.5999755859375</ele>
        <time>2021-05-09T08:07:48.000Z</time>
        <extensions>
          <ns3:TrackPointExtension>
            <ns3:atemp>22.0</ns3:atemp>
          </ns3:TrackPointExtension>
        </extensions>
      </trkpt>
      <trkpt lat="43.12014154158532619476318359375" lon="13.00313397310674190521240234375">
        <ele>850.5999755859375</ele>
        <time>2021-05-09T08:07:53.000Z</time>
        <extensions>
          <ns3:TrackPointExtension>
            <ns3:atemp>22.0</ns3:atemp>
          </ns3:TrackPointExtension>
        </extensions>
      </trkpt>
      <trkpt lat="43.12023156322538852691650390625" lon="13.00307563506066799163818359375">
        <ele>851.5999755859375</ele>
        <time>2021-05-09T08:07:58.000Z</time>
        <extensions>
          <ns3:TrackPointExtension>
            <ns3:atemp>22.0</ns3:atemp>
          </ns3:TrackPointExtension>
        </extensions>
      </trkpt>
      <trkpt lat="43.12030264176428318023681640625" lon="13.00303942523896694183349609375">
        <ele>852.4000244140625</ele>
        <time>2021-05-09T08:08:02.000Z</time>
        <extensions>
          <ns3:TrackPointExtension>
            <ns3:atemp>22.0</ns3:atemp>
          </ns3:TrackPointExtension>
        </extensions>
      </trkpt>
      <trkpt lat="43.1203218363225460052490234375" lon="13.003027439117431640625">
        <ele>852.5999755859375</ele>
        <time>2021-05-09T08:08:03.000Z</time>
        <extensions>
          <ns3:TrackPointExtension>
            <ns3:atemp>22.0</ns3:atemp>
          </ns3:TrackPointExtension>
        </extensions>
      </trkpt>
      <trkpt lat="43.120412863790988922119140625" lon="13.0029779858887195587158203125">
        <ele>853.4000244140625</ele>
        <time>2021-05-09T08:08:08.000Z</time>
        <extensions>
          <ns3:TrackPointExtension>
            <ns3:atemp>22.0</ns3:atemp>
          </ns3:TrackPointExtension>
        </extensions>
      </trkpt>
      <trkpt lat="43.12042929232120513916015625" lon="13.0029659159481525421142578125">
        <ele>853.5999755859375</ele>
        <time>2021-05-09T08:08:09.000Z</time>
        <extensions>
          <ns3:TrackPointExtension>
            <ns3:atemp>22.0</ns3:atemp>
          </ns3:TrackPointExtension>
        </extensions>
      </trkpt>
      <trkpt lat="43.12055594287812709808349609375" lon="13.0029095895588397979736328125">
        <ele>854.79998779296875</ele>
        <time>2021-05-09T08:08:15.000Z</time>
        <extensions>
          <ns3:TrackPointExtension>
            <ns3:atemp>22.0</ns3:atemp>
          </ns3:TrackPointExtension>
        </extensions>
      </trkpt>
      <trkpt lat="43.120673708617687225341796875" lon="13.0028244294226169586181640625">
        <ele>855.79998779296875</ele>
        <time>2021-05-09T08:08:21.000Z</time>
        <extensions>
          <ns3:TrackPointExtension>
            <ns3:atemp>22.0</ns3:atemp>
          </ns3:TrackPointExtension>
        </extensions>
      </trkpt>
      <trkpt lat="43.12077932059764862060546875" lon="13.00277757458388805389404296875">
        <ele>857</ele>
        <time>2021-05-09T08:08:26.000Z</time>
        <extensions>
          <ns3:TrackPointExtension>
            <ns3:atemp>22.0</ns3:atemp>
          </ns3:TrackPointExtension>
        </extensions>
      </trkpt>
      <trkpt lat="43.12079767696559429168701171875" lon="13.002775646746158599853515625">
        <ele>857.20001220703125</ele>
        <time>2021-05-09T08:08:27.000Z</time>
        <extensions>
          <ns3:TrackPointExtension>
            <ns3:atemp>22.0</ns3:atemp>
          </ns3:TrackPointExtension>
        </extensions>
      </trkpt>
      <trkpt lat="43.12086305581033229827880859375" lon="13.002767600119113922119140625">
        <ele>858</ele>
        <time>2021-05-09T08:08:30.000Z</time>
        <extensions>
          <ns3:TrackPointExtension>
            <ns3:atemp>22.0</ns3:atemp>
          </ns3:TrackPointExtension>
        </extensions>
      </trkpt>
      <trkpt lat="43.1209283508360385894775390625" lon="13.002761565148830413818359375">
        <ele>859</ele>
        <time>2021-05-09T08:08:33.000Z</time>
        <extensions>
          <ns3:TrackPointExtension>
            <ns3:atemp>22.0</ns3:atemp>
          </ns3:TrackPointExtension>
        </extensions>
      </trkpt>
      <trkpt lat="43.12094737775623798370361328125" lon="13.0027506686747074127197265625">
        <ele>859.20001220703125</ele>
        <time>2021-05-09T08:08:34.000Z</time>
        <extensions>
          <ns3:TrackPointExtension>
            <ns3:atemp>22.0</ns3:atemp>
          </ns3:TrackPointExtension>
        </extensions>
      </trkpt>
      <trkpt lat="43.12105215154588222503662109375" lon="13.00269015133380889892578125">
        <ele>860.20001220703125</ele>
        <time>2021-05-09T08:08:39.000Z</time>
        <extensions>
          <ns3:TrackPointExtension>
            <ns3:atemp>22.0</ns3:atemp>
          </ns3:TrackPointExtension>
        </extensions>
      </trkpt>
      <trkpt lat="43.12115357257425785064697265625" lon="13.00264463759958744049072265625">
        <ele>861.20001220703125</ele>
        <time>2021-05-09T08:08:44.000Z</time>
        <extensions>
          <ns3:TrackPointExtension>
            <ns3:atemp>22.0</ns3:atemp>
          </ns3:TrackPointExtension>
        </extensions>
      </trkpt>
      <trkpt lat="43.12119011767208576202392578125" lon="13.0026185698807239532470703125">
        <ele>861.5999755859375</ele>
        <time>2021-05-09T08:08:46.000Z</time>
        <extensions>
          <ns3:TrackPointExtension>
            <ns3:atemp>22.0</ns3:atemp>
          </ns3:TrackPointExtension>
        </extensions>
      </trkpt>
      <trkpt lat="43.12126236967742443084716796875" lon="13.00257808528840541839599609375">
        <ele>862.4000244140625</ele>
        <time>2021-05-09T08:08:50.000Z</time>
        <extensions>
          <ns3:TrackPointExtension>
            <ns3:atemp>23.0</ns3:atemp>
          </ns3:TrackPointExtension>
        </extensions>
      </trkpt>
      <trkpt lat="43.1212971545755863189697265625" lon="13.0025374330580234527587890625">
        <ele>862.79998779296875</ele>
        <time>2021-05-09T08:08:52.000Z</time>
        <extensions>
          <ns3:TrackPointExtension>
            <ns3:atemp>23.0</ns3:atemp>
          </ns3:TrackPointExtension>
        </extensions>
      </trkpt>
      <trkpt lat="43.12138223089277744293212890625" lon="13.0024462379515171051025390625">
        <ele>863.4000244140625</ele>
        <time>2021-05-09T08:08:57.000Z</time>
        <extensions>
          <ns3:TrackPointExtension>
            <ns3:atemp>23.0</ns3:atemp>
          </ns3:TrackPointExtension>
        </extensions>
      </trkpt>
      <trkpt lat="43.12146420590579509735107421875" lon="13.002359904348850250244140625">
        <ele>864.4000244140625</ele>
        <time>2021-05-09T08:09:02.000Z</time>
        <extensions>
          <ns3:TrackPointExtension>
            <ns3:atemp>23.0</ns3:atemp>
          </ns3:TrackPointExtension>
        </extensions>
      </trkpt>
      <trkpt lat="43.12148281373083591461181640625" lon="13.0023466609418392181396484375">
        <ele>864.5999755859375</ele>
        <time>2021-05-09T08:09:03.000Z</time>
        <extensions>
          <ns3:TrackPointExtension>
            <ns3:atemp>23.0</ns3:atemp>
          </ns3:TrackPointExtension>
        </extensions>
      </trkpt>
      <trkpt lat="43.12158188782632350921630859375" lon="13.0022903345525264739990234375">
        <ele>865.5999755859375</ele>
        <time>2021-05-09T08:09:08.000Z</time>
        <extensions>
          <ns3:TrackPointExtension>
            <ns3:atemp>23.0</ns3:atemp>
          </ns3:TrackPointExtension>
        </extensions>
      </trkpt>
      <trkpt lat="43.12162932939827442169189453125" lon="13.0022692121565341949462890625">
        <ele>866</ele>
        <time>2021-05-09T08:09:10.000Z</time>
        <extensions>
          <ns3:TrackPointExtension>
            <ns3:atemp>23.0</ns3:atemp>
          </ns3:TrackPointExtension>
        </extensions>
      </trkpt>
      <trkpt lat="43.121737539768218994140625" lon="13.00220157019793987274169921875">
        <ele>866.79998779296875</ele>
        <time>2021-05-09T08:09:15.000Z</time>
        <extensions>
          <ns3:TrackPointExtension>
            <ns3:atemp>23.0</ns3:atemp>
          </ns3:TrackPointExtension>
        </extensions>
      </trkpt>
      <trkpt lat="43.12186603434383869171142578125" lon="13.0021340958774089813232421875">
        <ele>867.79998779296875</ele>
        <time>2021-05-09T08:09:21.000Z</time>
        <extensions>
          <ns3:TrackPointExtension>
            <ns3:atemp>23.0</ns3:atemp>
          </ns3:TrackPointExtension>
        </extensions>
      </trkpt>
      <trkpt lat="43.12203048728406429290771484375" lon="13.002069890499114990234375">
        <ele>869</ele>
        <time>2021-05-09T08:09:28.000Z</time>
        <extensions>
          <ns3:TrackPointExtension>
            <ns3:atemp>23.0</ns3:atemp>
          </ns3:TrackPointExtension>
        </extensions>
      </trkpt>
      <trkpt lat="43.1221331655979156494140625" lon="13.00203091464936733245849609375">
        <ele>870</ele>
        <time>2021-05-09T08:09:33.000Z</time>
        <extensions>
          <ns3:TrackPointExtension>
            <ns3:atemp>23.0</ns3:atemp>
          </ns3:TrackPointExtension>
        </extensions>
      </trkpt>
      <trkpt lat="43.1221993826329708099365234375" lon="13.00200484693050384521484375">
        <ele>870.5999755859375</ele>
        <time>2021-05-09T08:09:36.000Z</time>
        <extensions>
          <ns3:TrackPointExtension>
            <ns3:atemp>23.0</ns3:atemp>
          </ns3:TrackPointExtension>
        </extensions>
      </trkpt>
      <trkpt lat="43.12224187888205051422119140625" lon="13.00198850221931934356689453125">
        <ele>871</ele>
        <time>2021-05-09T08:09:38.000Z</time>
        <extensions>
          <ns3:TrackPointExtension>
            <ns3:atemp>23.0</ns3:atemp>
          </ns3:TrackPointExtension>
        </extensions>
      </trkpt>
      <trkpt lat="43.122368194162845611572265625" lon="13.00194005481898784637451171875">
        <ele>872</ele>
        <time>2021-05-09T08:09:44.000Z</time>
        <extensions>
          <ns3:TrackPointExtension>
            <ns3:atemp>23.0</ns3:atemp>
          </ns3:TrackPointExtension>
        </extensions>
      </trkpt>
      <trkpt lat="43.12238772399723529815673828125" lon="13.0019346065819263458251953125">
        <ele>872.20001220703125</ele>
        <time>2021-05-09T08:09:45.000Z</time>
        <extensions>
          <ns3:TrackPointExtension>
            <ns3:atemp>23.0</ns3:atemp>
          </ns3:TrackPointExtension>
        </extensions>
      </trkpt>
      <trkpt lat="43.1225326471030712127685546875" lon="13.00188540481030941009521484375">
        <ele>873.20001220703125</ele>
        <time>2021-05-09T08:09:52.000Z</time>
        <extensions>
          <ns3:TrackPointExtension>
            <ns3:atemp>23.0</ns3:atemp>
          </ns3:TrackPointExtension>
        </extensions>
      </trkpt>
      <trkpt lat="43.1225547753274440765380859375" lon="13.00187769345939159393310546875">
        <ele>873.20001220703125</ele>
        <time>2021-05-09T08:09:53.000Z</time>
        <extensions>
          <ns3:TrackPointExtension>
            <ns3:atemp>23.0</ns3:atemp>
          </ns3:TrackPointExtension>
        </extensions>
      </trkpt>
      <trkpt lat="43.1226825155317783355712890625" lon="13.00183410756289958953857421875">
        <ele>874.4000244140625</ele>
        <time>2021-05-09T08:09:59.000Z</time>
        <extensions>
          <ns3:TrackPointExtension>
            <ns3:atemp>23.0</ns3:atemp>
          </ns3:TrackPointExtension>
        </extensions>
      </trkpt>
      <trkpt lat="43.1228171288967132568359375" lon="13.0017976462841033935546875">
        <ele>875.20001220703125</ele>
        <time>2021-05-09T08:10:05.000Z</time>
        <extensions>
          <ns3:TrackPointExtension>
            <ns3:atemp>23.0</ns3:atemp>
          </ns3:TrackPointExtension>
        </extensions>
      </trkpt>
      <trkpt lat="43.122924081981182098388671875" lon="13.0017589218914508819580078125">
        <ele>876.20001220703125</ele>
        <time>2021-05-09T08:10:10.000Z</time>
        <extensions>
          <ns3:TrackPointExtension>
            <ns3:atemp>23.0</ns3:atemp>
          </ns3:TrackPointExtension>
        </extensions>
      </trkpt>
      <trkpt lat="43.12298937700688838958740234375" lon="13.00175540149211883544921875">
        <ele>876.79998779296875</ele>
        <time>2021-05-09T08:10:13.000Z</time>
        <extensions>
          <ns3:TrackPointExtension>
            <ns3:atemp>23.0</ns3:atemp>
          </ns3:TrackPointExtension>
        </extensions>
      </trkpt>
      <trkpt lat="43.123030364513397216796875" lon="13.00175280310213565826416015625">
        <ele>877.4000244140625</ele>
        <time>2021-05-09T08:10:15.000Z</time>
        <extensions>
          <ns3:TrackPointExtension>
            <ns3:atemp>23.0</ns3:atemp>
          </ns3:TrackPointExtension>
        </extensions>
      </trkpt>
      <trkpt lat="43.1231019459664821624755859375" lon="13.00175799988210201263427734375">
        <ele>878.4000244140625</ele>
        <time>2021-05-09T08:10:18.000Z</time>
        <extensions>
          <ns3:TrackPointExtension>
            <ns3:atemp>23.0</ns3:atemp>
          </ns3:TrackPointExtension>
        </extensions>
      </trkpt>
      <trkpt lat="43.1231700070202350616455078125" lon="13.00176353193819522857666015625">
        <ele>879</ele>
        <time>2021-05-09T08:10:21.000Z</time>
        <extensions>
          <ns3:TrackPointExtension>
            <ns3:atemp>23.0</ns3:atemp>
          </ns3:TrackPointExtension>
        </extensions>
      </trkpt>
      <trkpt lat="43.1232145987451076507568359375" lon="13.0017703212797641754150390625">
        <ele>879.4000244140625</ele>
        <time>2021-05-09T08:10:23.000Z</time>
        <extensions>
          <ns3:TrackPointExtension>
            <ns3:atemp>23.0</ns3:atemp>
          </ns3:TrackPointExtension>
        </extensions>
      </trkpt>
      <trkpt lat="43.123310990631580352783203125" lon="13.0017626099288463592529296875">
        <ele>880.20001220703125</ele>
        <time>2021-05-09T08:10:28.000Z</time>
        <extensions>
          <ns3:TrackPointExtension>
            <ns3:atemp>23.0</ns3:atemp>
          </ns3:TrackPointExtension>
        </extensions>
      </trkpt>
      <trkpt lat="43.12332716770470142364501953125" lon="13.0017622746527194976806640625">
        <ele>880.5999755859375</ele>
        <time>2021-05-09T08:10:29.000Z</time>
        <extensions>
          <ns3:TrackPointExtension>
            <ns3:atemp>23.0</ns3:atemp>
          </ns3:TrackPointExtension>
        </extensions>
      </trkpt>
      <trkpt lat="43.12344820238649845123291015625" lon="13.00176068209111690521240234375">
        <ele>881.79998779296875</ele>
        <time>2021-05-09T08:10:35.000Z</time>
        <extensions>
          <ns3:TrackPointExtension>
            <ns3:atemp>23.0</ns3:atemp>
          </ns3:TrackPointExtension>
        </extensions>
      </trkpt>
      <trkpt lat="43.12357627786695957183837890625" lon="13.00176889635622501373291015625">
        <ele>882.79998779296875</ele>
        <time>2021-05-09T08:10:41.000Z</time>
        <extensions>
          <ns3:TrackPointExtension>
            <ns3:atemp>23.0</ns3:atemp>
          </ns3:TrackPointExtension>
        </extensions>
      </trkpt>
      <trkpt lat="43.12359756790101528167724609375" lon="13.0017708241939544677734375">
        <ele>883</ele>
        <time>2021-05-09T08:10:42.000Z</time>
        <extensions>
          <ns3:TrackPointExtension>
            <ns3:atemp>23.0</ns3:atemp>
          </ns3:TrackPointExtension>
        </extensions>
      </trkpt>
      <trkpt lat="43.12369647435843944549560546875" lon="13.0017803795635700225830078125">
        <ele>884</ele>
        <time>2021-05-09T08:10:47.000Z</time>
        <extensions>
          <ns3:TrackPointExtension>
            <ns3:atemp>23.0</ns3:atemp>
          </ns3:TrackPointExtension>
        </extensions>
      </trkpt>
      <trkpt lat="43.1237175129354000091552734375" lon="13.0017807148396968841552734375">
        <ele>884.20001220703125</ele>
        <time>2021-05-09T08:10:48.000Z</time>
        <extensions>
          <ns3:TrackPointExtension>
            <ns3:atemp>23.0</ns3:atemp>
          </ns3:TrackPointExtension>
        </extensions>
      </trkpt>
      <trkpt lat="43.1238180957734584808349609375" lon="13.001780547201633453369140625">
        <ele>885.20001220703125</ele>
        <time>2021-05-09T08:10:53.000Z</time>
        <extensions>
          <ns3:TrackPointExtension>
            <ns3:atemp>23.0</ns3:atemp>
          </ns3:TrackPointExtension>
        </extensions>
      </trkpt>
      <trkpt lat="43.123858161270618438720703125" lon="13.0017766915261745452880859375">
        <ele>885.4000244140625</ele>
        <time>2021-05-09T08:10:55.000Z</time>
        <extensions>
          <ns3:TrackPointExtension>
            <ns3:atemp>23.0</ns3:atemp>
          </ns3:TrackPointExtension>
        </extensions>
      </trkpt>
      <trkpt lat="43.123946674168109893798828125" lon="13.0017706565558910369873046875">
        <ele>886.20001220703125</ele>
        <time>2021-05-09T08:10:59.000Z</time>
        <extensions>
          <ns3:TrackPointExtension>
            <ns3:atemp>23.0</ns3:atemp>
          </ns3:TrackPointExtension>
        </extensions>
      </trkpt>
      <trkpt lat="43.123990930616855621337890625" lon="13.001774847507476806640625">
        <ele>886.5999755859375</ele>
        <time>2021-05-09T08:11:01.000Z</time>
        <extensions>
          <ns3:TrackPointExtension>
            <ns3:atemp>23.0</ns3:atemp>
          </ns3:TrackPointExtension>
        </extensions>
      </trkpt>
      <trkpt lat="43.1240467540919780731201171875" lon="13.0017776973545551300048828125">
        <ele>887.4000244140625</ele>
        <time>2021-05-09T08:11:04.000Z</time>
        <extensions>
          <ns3:TrackPointExtension>
            <ns3:atemp>23.0</ns3:atemp>
          </ns3:TrackPointExtension>
        </extensions>
      </trkpt>
      <trkpt lat="43.124104924499988555908203125" lon="13.00178415141999721527099609375">
        <ele>888</ele>
        <time>2021-05-09T08:11:07.000Z</time>
        <extensions>
          <ns3:TrackPointExtension>
            <ns3:atemp>23.0</ns3:atemp>
          </ns3:TrackPointExtension>
        </extensions>
      </trkpt>
      <trkpt lat="43.12416820786893367767333984375" lon="13.00178448669612407684326171875">
        <ele>888.4000244140625</ele>
        <time>2021-05-09T08:11:10.000Z</time>
        <extensions>
          <ns3:TrackPointExtension>
            <ns3:atemp>23.0</ns3:atemp>
          </ns3:TrackPointExtension>
        </extensions>
      </trkpt>
      <trkpt lat="43.124273233115673065185546875" lon="13.00177744589745998382568359375">
        <ele>889.5999755859375</ele>
        <time>2021-05-09T08:11:15.000Z</time>
        <extensions>
          <ns3:TrackPointExtension>
            <ns3:atemp>23.0</ns3:atemp>
          </ns3:TrackPointExtension>
        </extensions>
      </trkpt>
      <trkpt lat="43.1243860535323619842529296875" lon="13.001751713454723358154296875">
        <ele>890.5999755859375</ele>
        <time>2021-05-09T08:11:21.000Z</time>
        <extensions>
          <ns3:TrackPointExtension>
            <ns3:atemp>23.0</ns3:atemp>
          </ns3:TrackPointExtension>
        </extensions>
      </trkpt>
      <trkpt lat="43.124531395733356475830078125" lon="13.00172447226941585540771484375">
        <ele>891.79998779296875</ele>
        <time>2021-05-09T08:11:28.000Z</time>
        <extensions>
          <ns3:TrackPointExtension>
            <ns3:atemp>23.0</ns3:atemp>
          </ns3:TrackPointExtension>
        </extensions>
      </trkpt>
      <trkpt lat="43.1245500035583972930908203125" lon="13.00171776674687862396240234375">
        <ele>892.79998779296875</ele>
        <time>2021-05-09T08:11:32.000Z</time>
        <extensions>
          <ns3:TrackPointExtension>
            <ns3:atemp>23.0</ns3:atemp>
          </ns3:TrackPointExtension>
        </extensions>
      </trkpt>
      <trkpt lat="43.1245525181293487548828125" lon="13.00171625800430774688720703125">
        <ele>893</ele>
        <time>2021-05-09T08:11:34.000Z</time>
        <extensions>
          <ns3:TrackPointExtension>
            <ns3:atemp>23.0</ns3:atemp>
          </ns3:TrackPointExtension>
        </extensions>
      </trkpt>
      <trkpt lat="43.1245546974241733551025390625" lon="13.00171625800430774688720703125">
        <ele>893.79998779296875</ele>
        <time>2021-05-09T08:11:37.000Z</time>
        <extensions>
          <ns3:TrackPointExtension>
            <ns3:atemp>23.0</ns3:atemp>
          </ns3:TrackPointExtension>
        </extensions>
      </trkpt>
      <trkpt lat="43.12455452978610992431640625" lon="13.00171709619462490081787109375">
        <ele>894.4000244140625</ele>
        <time>2021-05-09T08:12:05.000Z</time>
        <extensions>
          <ns3:TrackPointExtension>
            <ns3:atemp>23.0</ns3:atemp>
          </ns3:TrackPointExtension>
        </extensions>
      </trkpt>
      <trkpt lat="43.1245553679764270782470703125" lon="13.001715838909149169921875">
        <ele>894.20001220703125</ele>
        <time>2021-05-09T08:12:44.000Z</time>
        <extensions>
          <ns3:TrackPointExtension>
            <ns3:atemp>24.0</ns3:atemp>
          </ns3:TrackPointExtension>
        </extensions>
      </trkpt>
      <trkpt lat="43.1245560385286808013916015625" lon="13.0017144978046417236328125">
        <ele>894.20001220703125</ele>
        <time>2021-05-09T08:13:16.000Z</time>
        <extensions>
          <ns3:TrackPointExtension>
            <ns3:atemp>24.0</ns3:atemp>
          </ns3:TrackPointExtension>
        </extensions>
      </trkpt>
      <trkpt lat="43.12455779872834682464599609375" lon="13.00171206705272197723388671875">
        <ele>894.20001220703125</ele>
        <time>2021-05-09T08:14:04.000Z</time>
        <extensions>
          <ns3:TrackPointExtension>
            <ns3:atemp>25.0</ns3:atemp>
          </ns3:TrackPointExtension>
        </extensions>
      </trkpt>
      <trkpt lat="43.1245580501854419708251953125" lon="13.0017119832336902618408203125">
        <ele>894.4000244140625</ele>
        <time>2021-05-09T08:14:11.000Z</time>
        <extensions>
          <ns3:TrackPointExtension>
            <ns3:atemp>25.0</ns3:atemp>
          </ns3:TrackPointExtension>
        </extensions>
      </trkpt>
      <trkpt lat="43.124558217823505401611328125" lon="13.0017116479575634002685546875">
        <ele>894.4000244140625</ele>
        <time>2021-05-09T08:14:22.000Z</time>
        <extensions>
          <ns3:TrackPointExtension>
            <ns3:atemp>25.0</ns3:atemp>
          </ns3:TrackPointExtension>
        </extensions>
      </trkpt>
      <trkpt lat="43.1245583854615688323974609375" lon="13.00170737318694591522216796875">
        <ele>894</ele>
        <time>2021-05-09T08:15:22.000Z</time>
        <extensions>
          <ns3:TrackPointExtension>
            <ns3:atemp>26.0</ns3:atemp>
          </ns3:TrackPointExtension>
        </extensions>
      </trkpt>
      <trkpt lat="43.124568276107311248779296875" lon="13.00168390385806560516357421875">
        <ele>894</ele>
        <time>2021-05-09T08:15:28.000Z</time>
        <extensions>
          <ns3:TrackPointExtension>
            <ns3:atemp>26.0</ns3:atemp>
          </ns3:TrackPointExtension>
        </extensions>
      </trkpt>
      <trkpt lat="43.1245754845440387725830078125" lon="13.00164652056992053985595703125">
        <ele>894</ele>
        <time>2021-05-09T08:15:31.000Z</time>
        <extensions>
          <ns3:TrackPointExtension>
            <ns3:atemp>26.0</ns3:atemp>
          </ns3:TrackPointExtension>
        </extensions>
      </trkpt>
      <trkpt lat="43.12456601299345493316650390625" lon="13.001610897481441497802734375">
        <ele>894</ele>
        <time>2021-05-09T08:15:33.000Z</time>
        <extensions>
          <ns3:TrackPointExtension>
            <ns3:atemp>26.0</ns3:atemp>
          </ns3:TrackPointExtension>
        </extensions>
      </trkpt>
      <trkpt lat="43.12452234327793121337890625" lon="13.001553229987621307373046875">
        <ele>894.20001220703125</ele>
        <time>2021-05-09T08:15:38.000Z</time>
        <extensions>
          <ns3:TrackPointExtension>
            <ns3:atemp>26.0</ns3:atemp>
          </ns3:TrackPointExtension>
        </extensions>
      </trkpt>
      <trkpt lat="43.1244507618248462677001953125" lon="13.00143931992352008819580078125">
        <ele>894.5999755859375</ele>
        <time>2021-05-09T08:15:44.000Z</time>
        <extensions>
          <ns3:TrackPointExtension>
            <ns3:atemp>26.0</ns3:atemp>
          </ns3:TrackPointExtension>
        </extensions>
      </trkpt>
      <trkpt lat="43.12443961389362812042236328125" lon="13.00142054446041584014892578125">
        <ele>894.5999755859375</ele>
        <time>2021-05-09T08:15:45.000Z</time>
        <extensions>
          <ns3:TrackPointExtension>
            <ns3:atemp>26.0</ns3:atemp>
          </ns3:TrackPointExtension>
        </extensions>
      </trkpt>
      <trkpt lat="43.1243558786809444427490234375" lon="13.00132691860198974609375">
        <ele>895.4000244140625</ele>
        <time>2021-05-09T08:15:51.000Z</time>
        <extensions>
          <ns3:TrackPointExtension>
            <ns3:atemp>26.0</ns3:atemp>
          </ns3:TrackPointExtension>
        </extensions>
      </trkpt>
      <trkpt lat="43.12428672797977924346923828125" lon="13.0012422613799571990966796875">
        <ele>896.4000244140625</ele>
        <time>2021-05-09T08:15:56.000Z</time>
        <extensions>
          <ns3:TrackPointExtension>
            <ns3:atemp>26.0</ns3:atemp>
          </ns3:TrackPointExtension>
        </extensions>
      </trkpt>
      <trkpt lat="43.12426007352769374847412109375" lon="13.0012026987969875335693359375">
        <ele>896.79998779296875</ele>
        <time>2021-05-09T08:15:58.000Z</time>
        <extensions>
          <ns3:TrackPointExtension>
            <ns3:atemp>26.0</ns3:atemp>
          </ns3:TrackPointExtension>
        </extensions>
      </trkpt>
      <trkpt lat="43.12417323701083660125732421875" lon="13.001077137887477874755859375">
        <ele>897.5999755859375</ele>
        <time>2021-05-09T08:16:04.000Z</time>
        <extensions>
          <ns3:TrackPointExtension>
            <ns3:atemp>26.0</ns3:atemp>
          </ns3:TrackPointExtension>
        </extensions>
      </trkpt>
      <trkpt lat="43.12413082458078861236572265625" lon="13.0010209791362285614013671875">
        <ele>898</ele>
        <time>2021-05-09T08:16:07.000Z</time>
        <extensions>
          <ns3:TrackPointExtension>
            <ns3:atemp>26.0</ns3:atemp>
          </ns3:TrackPointExtension>
        </extensions>
      </trkpt>
      <trkpt lat="43.12409092672169208526611328125" lon="13.00096574239432811737060546875">
        <ele>898.5999755859375</ele>
        <time>2021-05-09T08:16:10.000Z</time>
        <extensions>
          <ns3:TrackPointExtension>
            <ns3:atemp>26.0</ns3:atemp>
          </ns3:TrackPointExtension>
        </extensions>
      </trkpt>
      <trkpt lat="43.124063014984130859375" lon="13.00091109238564968109130859375">
        <ele>899</ele>
        <time>2021-05-09T08:16:13.000Z</time>
        <extensions>
          <ns3:TrackPointExtension>
            <ns3:atemp>26.0</ns3:atemp>
          </ns3:TrackPointExtension>
        </extensions>
      </trkpt>
      <trkpt lat="43.124018423259258270263671875" lon="13.0008281953632831573486328125">
        <ele>899.79998779296875</ele>
        <time>2021-05-09T08:16:17.000Z</time>
        <extensions>
          <ns3:TrackPointExtension>
            <ns3:atemp>26.0</ns3:atemp>
          </ns3:TrackPointExtension>
        </extensions>
      </trkpt>
      <trkpt lat="43.12396846711635589599609375" lon="13.0007473938167095184326171875">
        <ele>900.5999755859375</ele>
        <time>2021-05-09T08:16:21.000Z</time>
        <extensions>
          <ns3:TrackPointExtension>
            <ns3:atemp>26.0</ns3:atemp>
          </ns3:TrackPointExtension>
        </extensions>
      </trkpt>
      <trkpt lat="43.12396050430834293365478515625" lon="13.00072610378265380859375">
        <ele>900.79998779296875</ele>
        <time>2021-05-09T08:16:22.000Z</time>
        <extensions>
          <ns3:TrackPointExtension>
            <ns3:atemp>26.0</ns3:atemp>
          </ns3:TrackPointExtension>
        </extensions>
      </trkpt>
      <trkpt lat="43.12389311380684375762939453125" lon="13.000643961131572723388671875">
        <ele>901.4000244140625</ele>
        <time>2021-05-09T08:16:27.000Z</time>
        <extensions>
          <ns3:TrackPointExtension>
            <ns3:atemp>25.0</ns3:atemp>
          </ns3:TrackPointExtension>
        </extensions>
      </trkpt>
      <trkpt lat="43.12386788427829742431640625" lon="13.000603057444095611572265625">
        <ele>901.79998779296875</ele>
        <time>2021-05-09T08:16:29.000Z</time>
        <extensions>
          <ns3:TrackPointExtension>
            <ns3:atemp>25.0</ns3:atemp>
          </ns3:TrackPointExtension>
        </extensions>
      </trkpt>
      <trkpt lat="43.12376461923122406005859375" lon="13.00045159645378589630126953125">
        <ele>902.79998779296875</ele>
        <time>2021-05-09T08:16:36.000Z</time>
        <extensions>
          <ns3:TrackPointExtension>
            <ns3:atemp>25.0</ns3:atemp>
          </ns3:TrackPointExtension>
        </extensions>
      </trkpt>
      <trkpt lat="43.1236715801060199737548828125" lon="13.00031631253659725189208984375">
        <ele>904</ele>
        <time>2021-05-09T08:16:42.000Z</time>
        <extensions>
          <ns3:TrackPointExtension>
            <ns3:atemp>25.0</ns3:atemp>
          </ns3:TrackPointExtension>
        </extensions>
      </trkpt>
      <trkpt lat="43.123577535152435302734375" lon="13.0001958645880222320556640625">
        <ele>905</ele>
        <time>2021-05-09T08:16:47.000Z</time>
        <extensions>
          <ns3:TrackPointExtension>
            <ns3:atemp>25.0</ns3:atemp>
          </ns3:TrackPointExtension>
        </extensions>
      </trkpt>
      <trkpt lat="43.12354593537747859954833984375" lon="13.00014532171189785003662109375">
        <ele>905.4000244140625</ele>
        <time>2021-05-09T08:16:49.000Z</time>
        <extensions>
          <ns3:TrackPointExtension>
            <ns3:atemp>25.0</ns3:atemp>
          </ns3:TrackPointExtension>
        </extensions>
      </trkpt>
      <trkpt lat="43.123500756919384002685546875" lon="13.00006334669888019561767578125">
        <ele>906.20001220703125</ele>
        <time>2021-05-09T08:16:52.000Z</time>
        <extensions>
          <ns3:TrackPointExtension>
            <ns3:atemp>25.0</ns3:atemp>
          </ns3:TrackPointExtension>
        </extensions>
      </trkpt>
      <trkpt lat="43.12343738973140716552734375" lon="12.9999200999736785888671875">
        <ele>907.20001220703125</ele>
        <time>2021-05-09T08:16:57.000Z</time>
        <extensions>
          <ns3:TrackPointExtension>
            <ns3:atemp>25.0</ns3:atemp>
          </ns3:TrackPointExtension>
        </extensions>
      </trkpt>
      <trkpt lat="43.12334309332072734832763671875" lon="12.999762184917926788330078125">
        <ele>908.20001220703125</ele>
        <time>2021-05-09T08:17:03.000Z</time>
        <extensions>
          <ns3:TrackPointExtension>
            <ns3:atemp>25.0</ns3:atemp>
          </ns3:TrackPointExtension>
        </extensions>
      </trkpt>
      <trkpt lat="43.1232300214469432830810546875" lon="12.999616004526615142822265625">
        <ele>909.20001220703125</ele>
        <time>2021-05-09T08:17:09.000Z</time>
        <extensions>
          <ns3:TrackPointExtension>
            <ns3:atemp>24.0</ns3:atemp>
          </ns3:TrackPointExtension>
        </extensions>
      </trkpt>
      <trkpt lat="43.12312650494277477264404296875" lon="12.99945565871894359588623046875">
        <ele>910</ele>
        <time>2021-05-09T08:17:15.000Z</time>
        <extensions>
          <ns3:TrackPointExtension>
            <ns3:atemp>24.0</ns3:atemp>
          </ns3:TrackPointExtension>
        </extensions>
      </trkpt>
      <trkpt lat="43.1231116689741611480712890625" lon="12.999430596828460693359375">
        <ele>910.4000244140625</ele>
        <time>2021-05-09T08:17:16.000Z</time>
        <extensions>
          <ns3:TrackPointExtension>
            <ns3:atemp>24.0</ns3:atemp>
          </ns3:TrackPointExtension>
        </extensions>
      </trkpt>
      <trkpt lat="43.12304637394845485687255859375" lon="12.9993300139904022216796875">
        <ele>911.20001220703125</ele>
        <time>2021-05-09T08:17:20.000Z</time>
        <extensions>
          <ns3:TrackPointExtension>
            <ns3:atemp>24.0</ns3:atemp>
          </ns3:TrackPointExtension>
        </extensions>
      </trkpt>
      <trkpt lat="43.12301217578351497650146484375" lon="12.9992825724184513092041015625">
        <ele>911.5999755859375</ele>
        <time>2021-05-09T08:17:22.000Z</time>
        <extensions>
          <ns3:TrackPointExtension>
            <ns3:atemp>24.0</ns3:atemp>
          </ns3:TrackPointExtension>
        </extensions>
      </trkpt>
      <trkpt lat="43.12296574003994464874267578125" lon="12.99920856021344661712646484375">
        <ele>911.79998779296875</ele>
        <time>2021-05-09T08:17:25.000Z</time>
        <extensions>
          <ns3:TrackPointExtension>
            <ns3:atemp>24.0</ns3:atemp>
          </ns3:TrackPointExtension>
        </extensions>
      </trkpt>
      <trkpt lat="43.12292014248669147491455078125" lon="12.999133206903934478759765625">
        <ele>912.20001220703125</ele>
        <time>2021-05-09T08:17:28.000Z</time>
        <extensions>
          <ns3:TrackPointExtension>
            <ns3:atemp>24.0</ns3:atemp>
          </ns3:TrackPointExtension>
        </extensions>
      </trkpt>
      <trkpt lat="43.12290723435580730438232421875" lon="12.9991114139556884765625">
        <ele>912.4000244140625</ele>
        <time>2021-05-09T08:17:29.000Z</time>
        <extensions>
          <ns3:TrackPointExtension>
            <ns3:atemp>24.0</ns3:atemp>
          </ns3:TrackPointExtension>
        </extensions>
      </trkpt>
      <trkpt lat="43.12285509891808032989501953125" lon="12.99901242367923259735107421875">
        <ele>913.20001220703125</ele>
        <time>2021-05-09T08:17:33.000Z</time>
        <extensions>
          <ns3:TrackPointExtension>
            <ns3:atemp>24.0</ns3:atemp>
          </ns3:TrackPointExtension>
        </extensions>
      </trkpt>
      <trkpt lat="43.12280581332743167877197265625" lon="12.99893966875970363616943359375">
        <ele>913.5999755859375</ele>
        <time>2021-05-09T08:17:36.000Z</time>
        <extensions>
          <ns3:TrackPointExtension>
            <ns3:atemp>24.0</ns3:atemp>
          </ns3:TrackPointExtension>
        </extensions>
      </trkpt>
      <trkpt lat="43.12273867428302764892578125" lon="12.99882374703884124755859375">
        <ele>914.20001220703125</ele>
        <time>2021-05-09T08:17:40.000Z</time>
        <extensions>
          <ns3:TrackPointExtension>
            <ns3:atemp>23.0</ns3:atemp>
          </ns3:TrackPointExtension>
        </extensions>
      </trkpt>
      <trkpt lat="43.12270120717585086822509765625" lon="12.9987635649740695953369140625">
        <ele>914.5999755859375</ele>
        <time>2021-05-09T08:17:42.000Z</time>
        <extensions>
          <ns3:TrackPointExtension>
            <ns3:atemp>23.0</ns3:atemp>
          </ns3:TrackPointExtension>
        </extensions>
      </trkpt>
      <trkpt lat="43.12258042395114898681640625" lon="12.9986165463924407958984375">
        <ele>915.5999755859375</ele>
        <time>2021-05-09T08:17:47.000Z</time>
        <extensions>
          <ns3:TrackPointExtension>
            <ns3:atemp>23.0</ns3:atemp>
          </ns3:TrackPointExtension>
        </extensions>
      </trkpt>
      <trkpt lat="43.12255921773612499237060546875" lon="12.9985872097313404083251953125">
        <ele>915.79998779296875</ele>
        <time>2021-05-09T08:17:48.000Z</time>
        <extensions>
          <ns3:TrackPointExtension>
            <ns3:atemp>23.0</ns3:atemp>
          </ns3:TrackPointExtension>
        </extensions>
      </trkpt>
      <trkpt lat="43.12247405759990215301513671875" lon="12.998445890843868255615234375">
        <ele>916.5999755859375</ele>
        <time>2021-05-09T08:17:53.000Z</time>
        <extensions>
          <ns3:TrackPointExtension>
            <ns3:atemp>23.0</ns3:atemp>
          </ns3:TrackPointExtension>
        </extensions>
      </trkpt>
      <trkpt lat="43.1224464811384677886962890625" lon="12.9983944259583950042724609375">
        <ele>916.5999755859375</ele>
        <time>2021-05-09T08:17:55.000Z</time>
        <extensions>
          <ns3:TrackPointExtension>
            <ns3:atemp>23.0</ns3:atemp>
          </ns3:TrackPointExtension>
        </extensions>
      </trkpt>
      <trkpt lat="43.12238470651209354400634765625" lon="12.998284958302974700927734375">
        <ele>917.20001220703125</ele>
        <time>2021-05-09T08:17:59.000Z</time>
        <extensions>
          <ns3:TrackPointExtension>
            <ns3:atemp>23.0</ns3:atemp>
          </ns3:TrackPointExtension>
        </extensions>
      </trkpt>
      <trkpt lat="43.12234975397586822509765625" lon="12.99820658750832080841064453125">
        <ele>917.5999755859375</ele>
        <time>2021-05-09T08:18:01.000Z</time>
        <extensions>
          <ns3:TrackPointExtension>
            <ns3:atemp>23.0</ns3:atemp>
          </ns3:TrackPointExtension>
        </extensions>
      </trkpt>
      <trkpt lat="43.1222878955304622650146484375" lon="12.99804900772869586944580078125">
        <ele>918.20001220703125</ele>
        <time>2021-05-09T08:18:05.000Z</time>
        <extensions>
          <ns3:TrackPointExtension>
            <ns3:atemp>23.0</ns3:atemp>
          </ns3:TrackPointExtension>
        </extensions>
      </trkpt>
      <trkpt lat="43.12224171124398708343505859375" lon="12.997918166220188140869140625">
        <ele>918.79998779296875</ele>
        <time>2021-05-09T08:18:09.000Z</time>
        <extensions>
          <ns3:TrackPointExtension>
            <ns3:atemp>22.0</ns3:atemp>
          </ns3:TrackPointExtension>
        </extensions>
      </trkpt>
      <trkpt lat="43.12223416753113269805908203125" lon="12.99788824282586574554443359375">
        <ele>919</ele>
        <time>2021-05-09T08:18:10.000Z</time>
        <extensions>
          <ns3:TrackPointExtension>
            <ns3:atemp>22.0</ns3:atemp>
          </ns3:TrackPointExtension>
        </extensions>
      </trkpt>
      <trkpt lat="43.12215722166001796722412109375" lon="12.997702248394489288330078125">
        <ele>920.20001220703125</ele>
        <time>2021-05-09T08:18:16.000Z</time>
        <extensions>
          <ns3:TrackPointExtension>
            <ns3:atemp>22.0</ns3:atemp>
          </ns3:TrackPointExtension>
        </extensions>
      </trkpt>
      <trkpt lat="43.1220843829214572906494140625" lon="12.99754693172872066497802734375">
        <ele>921.20001220703125</ele>
        <time>2021-05-09T08:18:21.000Z</time>
        <extensions>
          <ns3:TrackPointExtension>
            <ns3:atemp>22.0</ns3:atemp>
          </ns3:TrackPointExtension>
        </extensions>
      </trkpt>
      <trkpt lat="43.12206736765801906585693359375" lon="12.997505106031894683837890625">
        <ele>921.4000244140625</ele>
        <time>2021-05-09T08:18:22.000Z</time>
        <extensions>
          <ns3:TrackPointExtension>
            <ns3:atemp>22.0</ns3:atemp>
          </ns3:TrackPointExtension>
        </extensions>
      </trkpt>
      <trkpt lat="43.12201824970543384552001953125" lon="12.99735582433640956878662109375">
        <ele>922</ele>
        <time>2021-05-09T08:18:26.000Z</time>
        <extensions>
          <ns3:TrackPointExtension>
            <ns3:atemp>22.0</ns3:atemp>
          </ns3:TrackPointExtension>
        </extensions>
      </trkpt>
      <trkpt lat="43.12200198881328105926513671875" lon="12.9973077960312366485595703125">
        <ele>922.20001220703125</ele>
        <time>2021-05-09T08:18:27.000Z</time>
        <extensions>
          <ns3:TrackPointExtension>
            <ns3:atemp>22.0</ns3:atemp>
          </ns3:TrackPointExtension>
        </extensions>
      </trkpt>
      <trkpt lat="43.1219910085201263427734375" lon="12.997260354459285736083984375">
        <ele>922.4000244140625</ele>
        <time>2021-05-09T08:18:28.000Z</time>
        <extensions>
          <ns3:TrackPointExtension>
            <ns3:atemp>22.0</ns3:atemp>
          </ns3:TrackPointExtension>
        </extensions>
      </trkpt>
      <trkpt lat="43.12195639126002788543701171875" lon="12.997018285095691680908203125">
        <ele>923.20001220703125</ele>
        <time>2021-05-09T08:18:33.000Z</time>
        <extensions>
          <ns3:TrackPointExtension>
            <ns3:atemp>22.0</ns3:atemp>
          </ns3:TrackPointExtension>
        </extensions>
      </trkpt>
      <trkpt lat="43.12195303849875926971435546875" lon="12.99696740694344043731689453125">
        <ele>923.4000244140625</ele>
        <time>2021-05-09T08:18:34.000Z</time>
        <extensions>
          <ns3:TrackPointExtension>
            <ns3:atemp>22.0</ns3:atemp>
          </ns3:TrackPointExtension>
        </extensions>
      </trkpt>
      <trkpt lat="43.12194331549108028411865234375" lon="12.99669868312776088714599609375">
        <ele>924.4000244140625</ele>
        <time>2021-05-09T08:18:40.000Z</time>
        <extensions>
          <ns3:TrackPointExtension>
            <ns3:atemp>21.0</ns3:atemp>
          </ns3:TrackPointExtension>
        </extensions>
      </trkpt>
      <trkpt lat="43.1219387054443359375" lon="12.996657192707061767578125">
        <ele>924.5999755859375</ele>
        <time>2021-05-09T08:18:41.000Z</time>
        <extensions>
          <ns3:TrackPointExtension>
            <ns3:atemp>21.0</ns3:atemp>
          </ns3:TrackPointExtension>
        </extensions>
      </trkpt>
      <trkpt lat="43.121904842555522918701171875" lon="12.99648494459688663482666015625">
        <ele>925.5999755859375</ele>
        <time>2021-05-09T08:18:45.000Z</time>
        <extensions>
          <ns3:TrackPointExtension>
            <ns3:atemp>21.0</ns3:atemp>
          </ns3:TrackPointExtension>
        </extensions>
      </trkpt>
      <trkpt lat="43.1218971312046051025390625" lon="12.996398694813251495361328125">
        <ele>926</ele>
        <time>2021-05-09T08:18:47.000Z</time>
        <extensions>
          <ns3:TrackPointExtension>
            <ns3:atemp>21.0</ns3:atemp>
          </ns3:TrackPointExtension>
        </extensions>
      </trkpt>
      <trkpt lat="43.12190509401261806488037109375" lon="12.9962687753140926361083984375">
        <ele>926.5999755859375</ele>
        <time>2021-05-09T08:18:50.000Z</time>
        <extensions>
          <ns3:TrackPointExtension>
            <ns3:atemp>21.0</ns3:atemp>
          </ns3:TrackPointExtension>
        </extensions>
      </trkpt>
      <trkpt lat="43.1219435669481754302978515625" lon="12.996153943240642547607421875">
        <ele>926.79998779296875</ele>
        <time>2021-05-09T08:18:53.000Z</time>
        <extensions>
          <ns3:TrackPointExtension>
            <ns3:atemp>21.0</ns3:atemp>
          </ns3:TrackPointExtension>
        </extensions>
      </trkpt>
      <trkpt lat="43.12202244065701961517333984375" lon="12.9960377700626850128173828125">
        <ele>927.79998779296875</ele>
        <time>2021-05-09T08:18:57.000Z</time>
        <extensions>
          <ns3:TrackPointExtension>
            <ns3:atemp>21.0</ns3:atemp>
          </ns3:TrackPointExtension>
        </extensions>
      </trkpt>
      <trkpt lat="43.12208957970142364501953125" lon="12.9959619976580142974853515625">
        <ele>928</ele>
        <time>2021-05-09T08:19:00.000Z</time>
        <extensions>
          <ns3:TrackPointExtension>
            <ns3:atemp>21.0</ns3:atemp>
          </ns3:TrackPointExtension>
        </extensions>
      </trkpt>
      <trkpt lat="43.1221832893788814544677734375" lon="12.99587608315050601959228515625">
        <ele>928.5999755859375</ele>
        <time>2021-05-09T08:19:04.000Z</time>
        <extensions>
          <ns3:TrackPointExtension>
            <ns3:atemp>21.0</ns3:atemp>
          </ns3:TrackPointExtension>
        </extensions>
      </trkpt>
      <trkpt lat="43.1222101114690303802490234375" lon="12.99586049281060695648193359375">
        <ele>928.79998779296875</ele>
        <time>2021-05-09T08:19:05.000Z</time>
        <extensions>
          <ns3:TrackPointExtension>
            <ns3:atemp>21.0</ns3:atemp>
          </ns3:TrackPointExtension>
        </extensions>
      </trkpt>
      <trkpt lat="43.12228730879724025726318359375" lon="12.99580869264900684356689453125">
        <ele>929.20001220703125</ele>
        <time>2021-05-09T08:19:08.000Z</time>
        <extensions>
          <ns3:TrackPointExtension>
            <ns3:atemp>21.0</ns3:atemp>
          </ns3:TrackPointExtension>
        </extensions>
      </trkpt>
      <trkpt lat="43.122338019311428070068359375" lon="12.99576996825635433197021484375">
        <ele>929.5999755859375</ele>
        <time>2021-05-09T08:19:10.000Z</time>
        <extensions>
          <ns3:TrackPointExtension>
            <ns3:atemp>21.0</ns3:atemp>
          </ns3:TrackPointExtension>
        </extensions>
      </trkpt>
      <trkpt lat="43.12242577783763408660888671875" lon="12.9956682957708835601806640625">
        <ele>930.5999755859375</ele>
        <time>2021-05-09T08:19:14.000Z</time>
        <extensions>
          <ns3:TrackPointExtension>
            <ns3:atemp>21.0</ns3:atemp>
          </ns3:TrackPointExtension>
        </extensions>
      </trkpt>
      <trkpt lat="43.1224555335938930511474609375" lon="12.99560182727873325347900390625">
        <ele>930.79998779296875</ele>
        <time>2021-05-09T08:19:16.000Z</time>
        <extensions>
          <ns3:TrackPointExtension>
            <ns3:atemp>21.0</ns3:atemp>
          </ns3:TrackPointExtension>
        </extensions>
      </trkpt>
      <trkpt lat="43.12248042784631252288818359375" lon="12.99537451006472110748291015625">
        <ele>931.5999755859375</ele>
        <time>2021-05-09T08:19:22.000Z</time>
        <extensions>
          <ns3:TrackPointExtension>
            <ns3:atemp>21.0</ns3:atemp>
          </ns3:TrackPointExtension>
        </extensions>
      </trkpt>
      <trkpt lat="43.12247447669506072998046875" lon="12.99533553421497344970703125">
        <ele>931.79998779296875</ele>
        <time>2021-05-09T08:19:23.000Z</time>
        <extensions>
          <ns3:TrackPointExtension>
            <ns3:atemp>21.0</ns3:atemp>
          </ns3:TrackPointExtension>
        </extensions>
      </trkpt>
      <trkpt lat="43.1224236823618412017822265625" lon="12.99516261555254459381103515625">
        <ele>932.4000244140625</ele>
        <time>2021-05-09T08:19:28.000Z</time>
        <extensions>
          <ns3:TrackPointExtension>
            <ns3:atemp>20.0</ns3:atemp>
          </ns3:TrackPointExtension>
        </extensions>
      </trkpt>
      <trkpt lat="43.1223827786743640899658203125" lon="12.9951137490570545196533203125">
        <ele>932.79998779296875</ele>
        <time>2021-05-09T08:19:30.000Z</time>
        <extensions>
          <ns3:TrackPointExtension>
            <ns3:atemp>20.0</ns3:atemp>
          </ns3:TrackPointExtension>
        </extensions>
      </trkpt>
      <trkpt lat="43.122289739549160003662109375" lon="12.99503504298627376556396484375">
        <ele>933.20001220703125</ele>
        <time>2021-05-09T08:19:34.000Z</time>
        <extensions>
          <ns3:TrackPointExtension>
            <ns3:atemp>20.0</ns3:atemp>
          </ns3:TrackPointExtension>
        </extensions>
      </trkpt>
      <trkpt lat="43.12213023193180561065673828125" lon="12.9949633777141571044921875">
        <ele>933.79998779296875</ele>
        <time>2021-05-09T08:19:40.000Z</time>
        <extensions>
          <ns3:TrackPointExtension>
            <ns3:atemp>20.0</ns3:atemp>
          </ns3:TrackPointExtension>
        </extensions>
      </trkpt>
      <trkpt lat="43.1220776773989200592041015625" lon="12.99495692364871501922607421875">
        <ele>934</ele>
        <time>2021-05-09T08:19:42.000Z</time>
        <extensions>
          <ns3:TrackPointExtension>
            <ns3:atemp>20.0</ns3:atemp>
          </ns3:TrackPointExtension>
        </extensions>
      </trkpt>
      <trkpt lat="43.12191749922931194305419921875" lon="12.99490143544971942901611328125">
        <ele>935</ele>
        <time>2021-05-09T08:19:48.000Z</time>
        <extensions>
          <ns3:TrackPointExtension>
            <ns3:atemp>20.0</ns3:atemp>
          </ns3:TrackPointExtension>
        </extensions>
      </trkpt>
      <trkpt lat="43.121863268315792083740234375" lon="12.9948797263205051422119140625">
        <ele>935.20001220703125</ele>
        <time>2021-05-09T08:19:50.000Z</time>
        <extensions>
          <ns3:TrackPointExtension>
            <ns3:atemp>20.0</ns3:atemp>
          </ns3:TrackPointExtension>
        </extensions>
      </trkpt>
      <trkpt lat="43.121706359088420867919921875" lon="12.9948173649609088897705078125">
        <ele>936</ele>
        <time>2021-05-09T08:19:56.000Z</time>
        <extensions>
          <ns3:TrackPointExtension>
            <ns3:atemp>20.0</ns3:atemp>
          </ns3:TrackPointExtension>
        </extensions>
      </trkpt>
      <trkpt lat="43.12167945317924022674560546875" lon="12.99480806104838848114013671875">
        <ele>936.20001220703125</ele>
        <time>2021-05-09T08:19:57.000Z</time>
        <extensions>
          <ns3:TrackPointExtension>
            <ns3:atemp>20.0</ns3:atemp>
          </ns3:TrackPointExtension>
        </extensions>
      </trkpt>
      <trkpt lat="43.121475018560886383056640625" lon="12.99472575075924396514892578125">
        <ele>937</ele>
        <time>2021-05-09T08:20:04.000Z</time>
        <extensions>
          <ns3:TrackPointExtension>
            <ns3:atemp>20.0</ns3:atemp>
          </ns3:TrackPointExtension>
        </extensions>
      </trkpt>
      <trkpt lat="43.12144811265170574188232421875" lon="12.99471569247543811798095703125">
        <ele>937</ele>
        <time>2021-05-09T08:20:05.000Z</time>
        <extensions>
          <ns3:TrackPointExtension>
            <ns3:atemp>20.0</ns3:atemp>
          </ns3:TrackPointExtension>
        </extensions>
      </trkpt>
      <trkpt lat="43.1212572567164897918701171875" lon="12.99464595504105091094970703125">
        <ele>938.20001220703125</ele>
        <time>2021-05-09T08:20:12.000Z</time>
        <extensions>
          <ns3:TrackPointExtension>
            <ns3:atemp>20.0</ns3:atemp>
          </ns3:TrackPointExtension>
        </extensions>
      </trkpt>
      <trkpt lat="43.1211120821535587310791015625" lon="12.9945920594036579132080078125">
        <ele>938.79998779296875</ele>
        <time>2021-05-09T08:20:18.000Z</time>
        <extensions>
          <ns3:TrackPointExtension>
            <ns3:atemp>20.0</ns3:atemp>
          </ns3:TrackPointExtension>
        </extensions>
      </trkpt>
      <trkpt lat="43.121029771864414215087890625" lon="12.99456682987511157989501953125">
        <ele>939.20001220703125</ele>
        <time>2021-05-09T08:20:21.000Z</time>
        <extensions>
          <ns3:TrackPointExtension>
            <ns3:atemp>20.0</ns3:atemp>
          </ns3:TrackPointExtension>
        </extensions>
      </trkpt>
      <trkpt lat="43.1208911351859569549560546875" lon="12.99451000057160854339599609375">
        <ele>939.5999755859375</ele>
        <time>2021-05-09T08:20:26.000Z</time>
        <extensions>
          <ns3:TrackPointExtension>
            <ns3:atemp>20.0</ns3:atemp>
          </ns3:TrackPointExtension>
        </extensions>
      </trkpt>
      <trkpt lat="43.12072089873254299163818359375" lon="12.99443154595792293548583984375">
        <ele>940.20001220703125</ele>
        <time>2021-05-09T08:20:33.000Z</time>
        <extensions>
          <ns3:TrackPointExtension>
            <ns3:atemp>20.0</ns3:atemp>
          </ns3:TrackPointExtension>
        </extensions>
      </trkpt>
      <trkpt lat="43.120607323944568634033203125" lon="12.99434169195592403411865234375">
        <ele>941.20001220703125</ele>
        <time>2021-05-09T08:20:39.000Z</time>
        <extensions>
          <ns3:TrackPointExtension>
            <ns3:atemp>20.0</ns3:atemp>
          </ns3:TrackPointExtension>
        </extensions>
      </trkpt>
      <trkpt lat="43.12058829702436923980712890625" lon="12.99432207830250263214111328125">
        <ele>941.4000244140625</ele>
        <time>2021-05-09T08:20:40.000Z</time>
        <extensions>
          <ns3:TrackPointExtension>
            <ns3:atemp>20.0</ns3:atemp>
          </ns3:TrackPointExtension>
        </extensions>
      </trkpt>
      <trkpt lat="43.12051353044807910919189453125" lon="12.99422685988247394561767578125">
        <ele>942.20001220703125</ele>
        <time>2021-05-09T08:20:44.000Z</time>
        <extensions>
          <ns3:TrackPointExtension>
            <ns3:atemp>20.0</ns3:atemp>
          </ns3:TrackPointExtension>
        </extensions>
      </trkpt>
      <trkpt lat="43.1204975210130214691162109375" lon="12.99419769085943698883056640625">
        <ele>942.4000244140625</ele>
        <time>2021-05-09T08:20:45.000Z</time>
        <extensions>
          <ns3:TrackPointExtension>
            <ns3:atemp>20.0</ns3:atemp>
          </ns3:TrackPointExtension>
        </extensions>
      </trkpt>
      <trkpt lat="43.12041990458965301513671875" lon="12.994061149656772613525390625">
        <ele>943.4000244140625</ele>
        <time>2021-05-09T08:20:50.000Z</time>
        <extensions>
          <ns3:TrackPointExtension>
            <ns3:atemp>20.0</ns3:atemp>
          </ns3:TrackPointExtension>
        </extensions>
      </trkpt>
      <trkpt lat="43.12040473334491252899169921875" lon="12.99403357319533824920654296875">
        <ele>943.4000244140625</ele>
        <time>2021-05-09T08:20:51.000Z</time>
        <extensions>
          <ns3:TrackPointExtension>
            <ns3:atemp>20.0</ns3:atemp>
          </ns3:TrackPointExtension>
        </extensions>
      </trkpt>
      <trkpt lat="43.12034924514591693878173828125" lon="12.9938675276935100555419921875">
        <ele>944.5999755859375</ele>
        <time>2021-05-09T08:20:56.000Z</time>
        <extensions>
          <ns3:TrackPointExtension>
            <ns3:atemp>20.0</ns3:atemp>
          </ns3:TrackPointExtension>
        </extensions>
      </trkpt>
      <trkpt lat="43.12034606002271175384521484375" lon="12.9938296414911746978759765625">
        <ele>944.79998779296875</ele>
        <time>2021-05-09T08:20:57.000Z</time>
        <extensions>
          <ns3:TrackPointExtension>
            <ns3:atemp>20.0</ns3:atemp>
          </ns3:TrackPointExtension>
        </extensions>
      </trkpt>
      <trkpt lat="43.12034748494625091552734375" lon="12.99366745166480541229248046875">
        <ele>945.5999755859375</ele>
        <time>2021-05-09T08:21:01.000Z</time>
        <extensions>
          <ns3:TrackPointExtension>
            <ns3:atemp>20.0</ns3:atemp>
          </ns3:TrackPointExtension>
        </extensions>
      </trkpt>
      <trkpt lat="43.1203603930771350860595703125" lon="12.99359268508851528167724609375">
        <ele>945.79998779296875</ele>
        <time>2021-05-09T08:21:03.000Z</time>
        <extensions>
          <ns3:TrackPointExtension>
            <ns3:atemp>20.0</ns3:atemp>
          </ns3:TrackPointExtension>
        </extensions>
      </trkpt>
      <trkpt lat="43.1203996203839778900146484375" lon="12.99349025823175907135009765625">
        <ele>946.4000244140625</ele>
        <time>2021-05-09T08:21:06.000Z</time>
        <extensions>
          <ns3:TrackPointExtension>
            <ns3:atemp>20.0</ns3:atemp>
          </ns3:TrackPointExtension>
        </extensions>
      </trkpt>
      <trkpt lat="43.1204452179372310638427734375" lon="12.99335396848618984222412109375">
        <ele>947.5999755859375</ele>
        <time>2021-05-09T08:21:10.000Z</time>
        <extensions>
          <ns3:TrackPointExtension>
            <ns3:atemp>20.0</ns3:atemp>
          </ns3:TrackPointExtension>
        </extensions>
      </trkpt>
      <trkpt lat="43.1204173900187015533447265625" lon="12.99318012781441211700439453125">
        <ele>948.20001220703125</ele>
        <time>2021-05-09T08:21:15.000Z</time>
        <extensions>
          <ns3:TrackPointExtension>
            <ns3:atemp>20.0</ns3:atemp>
          </ns3:TrackPointExtension>
        </extensions>
      </trkpt>
      <trkpt lat="43.12036064453423023223876953125" lon="12.993111312389373779296875">
        <ele>948.79998779296875</ele>
        <time>2021-05-09T08:21:18.000Z</time>
        <extensions>
          <ns3:TrackPointExtension>
            <ns3:atemp>20.0</ns3:atemp>
          </ns3:TrackPointExtension>
        </extensions>
      </trkpt>
      <trkpt lat="43.12028856016695499420166015625" lon="12.99305699765682220458984375">
        <ele>949</ele>
        <time>2021-05-09T08:21:21.000Z</time>
        <extensions>
          <ns3:TrackPointExtension>
            <ns3:atemp>20.0</ns3:atemp>
          </ns3:TrackPointExtension>
        </extensions>
      </trkpt>
      <trkpt lat="43.1201850436627864837646484375" lon="12.99298851750791072845458984375">
        <ele>949.79998779296875</ele>
        <time>2021-05-09T08:21:25.000Z</time>
        <extensions>
          <ns3:TrackPointExtension>
            <ns3:atemp>20.0</ns3:atemp>
          </ns3:TrackPointExtension>
        </extensions>
      </trkpt>
      <trkpt lat="43.12008823268115520477294921875" lon="12.9929166845977306365966796875">
        <ele>950.20001220703125</ele>
        <time>2021-05-09T08:21:29.000Z</time>
        <extensions>
          <ns3:TrackPointExtension>
            <ns3:atemp>20.0</ns3:atemp>
          </ns3:TrackPointExtension>
        </extensions>
      </trkpt>
      <trkpt lat="43.11992009170353412628173828125" lon="12.9927876032888889312744140625">
        <ele>951</ele>
        <time>2021-05-09T08:21:36.000Z</time>
        <extensions>
          <ns3:TrackPointExtension>
            <ns3:atemp>20.0</ns3:atemp>
          </ns3:TrackPointExtension>
        </extensions>
      </trkpt>
      <trkpt lat="43.119895868003368377685546875" lon="12.9927654750645160675048828125">
        <ele>951.20001220703125</ele>
        <time>2021-05-09T08:21:37.000Z</time>
        <extensions>
          <ns3:TrackPointExtension>
            <ns3:atemp>20.0</ns3:atemp>
          </ns3:TrackPointExtension>
        </extensions>
      </trkpt>
      <trkpt lat="43.11979671008884906768798828125" lon="12.9926311969757080078125">
        <ele>951.79998779296875</ele>
        <time>2021-05-09T08:21:43.000Z</time>
        <extensions>
          <ns3:TrackPointExtension>
            <ns3:atemp>20.0</ns3:atemp>
          </ns3:TrackPointExtension>
        </extensions>
      </trkpt>
      <trkpt lat="43.11978430487215518951416015625" lon="12.992597334086894989013671875">
        <ele>951.79998779296875</ele>
        <time>2021-05-09T08:21:44.000Z</time>
        <extensions>
          <ns3:TrackPointExtension>
            <ns3:atemp>20.0</ns3:atemp>
          </ns3:TrackPointExtension>
        </extensions>
      </trkpt>
      <trkpt lat="43.11979067511856555938720703125" lon="12.9924791492521762847900390625">
        <ele>952.20001220703125</ele>
        <time>2021-05-09T08:21:47.000Z</time>
        <extensions>
          <ns3:TrackPointExtension>
            <ns3:atemp>20.0</ns3:atemp>
          </ns3:TrackPointExtension>
        </extensions>
      </trkpt>
      <trkpt lat="43.1198987178504467010498046875" lon="12.9924194701015949249267578125">
        <ele>952.5999755859375</ele>
        <time>2021-05-09T08:21:51.000Z</time>
        <extensions>
          <ns3:TrackPointExtension>
            <ns3:atemp>20.0</ns3:atemp>
          </ns3:TrackPointExtension>
        </extensions>
      </trkpt>
      <trkpt lat="43.1200073473155498504638671875" lon="12.9924260079860687255859375">
        <ele>952.5999755859375</ele>
        <time>2021-05-09T08:21:54.000Z</time>
        <extensions>
          <ns3:TrackPointExtension>
            <ns3:atemp>20.0</ns3:atemp>
          </ns3:TrackPointExtension>
        </extensions>
      </trkpt>
      <trkpt lat="43.12012628652155399322509765625" lon="12.992445118725299835205078125">
        <ele>952.5999755859375</ele>
        <time>2021-05-09T08:21:57.000Z</time>
        <extensions>
          <ns3:TrackPointExtension>
            <ns3:atemp>20.0</ns3:atemp>
          </ns3:TrackPointExtension>
        </extensions>
      </trkpt>
      <trkpt lat="43.1202598102390766143798828125" lon="12.99245023168623447418212890625">
        <ele>952.4000244140625</ele>
        <time>2021-05-09T08:22:00.000Z</time>
        <extensions>
          <ns3:TrackPointExtension>
            <ns3:atemp>20.0</ns3:atemp>
          </ns3:TrackPointExtension>
        </extensions>
      </trkpt>
      <trkpt lat="43.12036584131419658660888671875" lon="12.99243732355535030364990234375">
        <ele>952.20001220703125</ele>
        <time>2021-05-09T08:22:02.000Z</time>
        <extensions>
          <ns3:TrackPointExtension>
            <ns3:atemp>20.0</ns3:atemp>
          </ns3:TrackPointExtension>
        </extensions>
      </trkpt>
      <trkpt lat="43.1204183958470821380615234375" lon="12.99242625944316387176513671875">
        <ele>952</ele>
        <time>2021-05-09T08:22:03.000Z</time>
        <extensions>
          <ns3:TrackPointExtension>
            <ns3:atemp>20.0</ns3:atemp>
          </ns3:TrackPointExtension>
        </extensions>
      </trkpt>
      <trkpt lat="43.12054932117462158203125" lon="12.9923235811293125152587890625">
        <ele>951.4000244140625</ele>
        <time>2021-05-09T08:22:06.000Z</time>
        <extensions>
          <ns3:TrackPointExtension>
            <ns3:atemp>20.0</ns3:atemp>
          </ns3:TrackPointExtension>
        </extensions>
      </trkpt>
      <trkpt lat="43.1206203997135162353515625" lon="12.9922028817236423492431640625">
        <ele>950.4000244140625</ele>
        <time>2021-05-09T08:22:08.000Z</time>
        <extensions>
          <ns3:TrackPointExtension>
            <ns3:atemp>20.0</ns3:atemp>
          </ns3:TrackPointExtension>
        </extensions>
      </trkpt>
      <trkpt lat="43.12068452127277851104736328125" lon="12.99207690171897411346435546875">
        <ele>949.20001220703125</ele>
        <time>2021-05-09T08:22:10.000Z</time>
        <extensions>
          <ns3:TrackPointExtension>
            <ns3:atemp>20.0</ns3:atemp>
          </ns3:TrackPointExtension>
        </extensions>
      </trkpt>
      <trkpt lat="43.12074453569948673248291015625" lon="12.99195997416973114013671875">
        <ele>948</ele>
        <time>2021-05-09T08:22:12.000Z</time>
        <extensions>
          <ns3:TrackPointExtension>
            <ns3:atemp>20.0</ns3:atemp>
          </ns3:TrackPointExtension>
        </extensions>
      </trkpt>
      <trkpt lat="43.12079449184238910675048828125" lon="12.99183684401214122772216796875">
        <ele>947.4000244140625</ele>
        <time>2021-05-09T08:22:14.000Z</time>
        <extensions>
          <ns3:TrackPointExtension>
            <ns3:atemp>20.0</ns3:atemp>
          </ns3:TrackPointExtension>
        </extensions>
      </trkpt>
      <trkpt lat="43.12086087651550769805908203125" lon="12.9916630871593952178955078125">
        <ele>947.20001220703125</ele>
        <time>2021-05-09T08:22:17.000Z</time>
        <extensions>
          <ns3:TrackPointExtension>
            <ns3:atemp>20.0</ns3:atemp>
          </ns3:TrackPointExtension>
        </extensions>
      </trkpt>
      <trkpt lat="43.1208797357976436614990234375" lon="12.991603910923004150390625">
        <ele>947</ele>
        <time>2021-05-09T08:22:18.000Z</time>
        <extensions>
          <ns3:TrackPointExtension>
            <ns3:atemp>20.0</ns3:atemp>
          </ns3:TrackPointExtension>
        </extensions>
      </trkpt>
      <trkpt lat="43.12097319401800632476806640625" lon="12.99114181660115718841552734375">
        <ele>946.5999755859375</ele>
        <time>2021-05-09T08:22:25.000Z</time>
        <extensions>
          <ns3:TrackPointExtension>
            <ns3:atemp>20.0</ns3:atemp>
          </ns3:TrackPointExtension>
        </extensions>
      </trkpt>
      <trkpt lat="43.12098023481667041778564453125" lon="12.9909978993237018585205078125">
        <ele>946</ele>
        <time>2021-05-09T08:22:27.000Z</time>
        <extensions>
          <ns3:TrackPointExtension>
            <ns3:atemp>20.0</ns3:atemp>
          </ns3:TrackPointExtension>
        </extensions>
      </trkpt>
      <trkpt lat="43.12098853290081024169921875" lon="12.99076010473072528839111328125">
        <ele>944.5999755859375</ele>
        <time>2021-05-09T08:22:30.000Z</time>
        <extensions>
          <ns3:TrackPointExtension>
            <ns3:atemp>20.0</ns3:atemp>
          </ns3:TrackPointExtension>
        </extensions>
      </trkpt>
      <trkpt lat="43.1209779717028141021728515625" lon="12.9905385710299015045166015625">
        <ele>943.4000244140625</ele>
        <time>2021-05-09T08:22:33.000Z</time>
        <extensions>
          <ns3:TrackPointExtension>
            <ns3:atemp>20.0</ns3:atemp>
          </ns3:TrackPointExtension>
        </extensions>
      </trkpt>
      <trkpt lat="43.1209690868854522705078125" lon="12.99034788273274898529052734375">
        <ele>942.79998779296875</ele>
        <time>2021-05-09T08:22:36.000Z</time>
        <extensions>
          <ns3:TrackPointExtension>
            <ns3:atemp>20.0</ns3:atemp>
          </ns3:TrackPointExtension>
        </extensions>
      </trkpt>
      <trkpt lat="43.1209729425609111785888671875" lon="12.99028267152607440948486328125">
        <ele>942</ele>
        <time>2021-05-09T08:22:37.000Z</time>
        <extensions>
          <ns3:TrackPointExtension>
            <ns3:atemp>20.0</ns3:atemp>
          </ns3:TrackPointExtension>
        </extensions>
      </trkpt>
      <trkpt lat="43.1210051290690898895263671875" lon="12.98999852500855922698974609375">
        <ele>941</ele>
        <time>2021-05-09T08:22:41.000Z</time>
        <extensions>
          <ns3:TrackPointExtension>
            <ns3:atemp>20.0</ns3:atemp>
          </ns3:TrackPointExtension>
        </extensions>
      </trkpt>
      <trkpt lat="43.12102532945573329925537109375" lon="12.989849410951137542724609375">
        <ele>940.79998779296875</ele>
        <time>2021-05-09T08:22:43.000Z</time>
        <extensions>
          <ns3:TrackPointExtension>
            <ns3:atemp>20.0</ns3:atemp>
          </ns3:TrackPointExtension>
        </extensions>
      </trkpt>
      <trkpt lat="43.121063970029354095458984375" lon="12.98953802324831485748291015625">
        <ele>939.5999755859375</ele>
        <time>2021-05-09T08:22:47.000Z</time>
        <extensions>
          <ns3:TrackPointExtension>
            <ns3:atemp>20.0</ns3:atemp>
          </ns3:TrackPointExtension>
        </extensions>
      </trkpt>
      <trkpt lat="43.121094815433025360107421875" lon="12.98930634744465351104736328125">
        <ele>938.79998779296875</ele>
        <time>2021-05-09T08:22:50.000Z</time>
        <extensions>
          <ns3:TrackPointExtension>
            <ns3:atemp>20.0</ns3:atemp>
          </ns3:TrackPointExtension>
        </extensions>
      </trkpt>
      <trkpt lat="43.12112188898026943206787109375" lon="12.9890791140496730804443359375">
        <ele>938.4000244140625</ele>
        <time>2021-05-09T08:22:53.000Z</time>
        <extensions>
          <ns3:TrackPointExtension>
            <ns3:atemp>20.0</ns3:atemp>
          </ns3:TrackPointExtension>
        </extensions>
      </trkpt>
      <trkpt lat="43.121147453784942626953125" lon="12.988861016929149627685546875">
        <ele>937.5999755859375</ele>
        <time>2021-05-09T08:22:56.000Z</time>
        <extensions>
          <ns3:TrackPointExtension>
            <ns3:atemp>20.0</ns3:atemp>
          </ns3:TrackPointExtension>
        </extensions>
      </trkpt>
      <trkpt lat="43.121155835688114166259765625" lon="12.9887916147708892822265625">
        <ele>937.4000244140625</ele>
        <time>2021-05-09T08:22:57.000Z</time>
        <extensions>
          <ns3:TrackPointExtension>
            <ns3:atemp>20.0</ns3:atemp>
          </ns3:TrackPointExtension>
        </extensions>
      </trkpt>
      <trkpt lat="43.12117620371282100677490234375" lon="12.98865423537790775299072265625">
        <ele>937.4000244140625</ele>
        <time>2021-05-09T08:22:59.000Z</time>
        <extensions>
          <ns3:TrackPointExtension>
            <ns3:atemp>20.0</ns3:atemp>
          </ns3:TrackPointExtension>
        </extensions>
      </trkpt>
      <trkpt lat="43.1212042830884456634521484375" lon="12.9883901216089725494384765625">
        <ele>936.79998779296875</ele>
        <time>2021-05-09T08:23:03.000Z</time>
        <extensions>
          <ns3:TrackPointExtension>
            <ns3:atemp>20.0</ns3:atemp>
          </ns3:TrackPointExtension>
        </extensions>
      </trkpt>
      <trkpt lat="43.12121140770614147186279296875" lon="12.9883311130106449127197265625">
        <ele>936.79998779296875</ele>
        <time>2021-05-09T08:23:04.000Z</time>
        <extensions>
          <ns3:TrackPointExtension>
            <ns3:atemp>20.0</ns3:atemp>
          </ns3:TrackPointExtension>
        </extensions>
      </trkpt>
      <trkpt lat="43.1212413311004638671875" lon="12.98811125569045543670654296875">
        <ele>936.5999755859375</ele>
        <time>2021-05-09T08:23:09.000Z</time>
        <extensions>
          <ns3:TrackPointExtension>
            <ns3:atemp>20.0</ns3:atemp>
          </ns3:TrackPointExtension>
        </extensions>
      </trkpt>
      <trkpt lat="43.12125616706907749176025390625" lon="12.9880467988550662994384765625">
        <ele>936.4000244140625</ele>
        <time>2021-05-09T08:23:14.000Z</time>
        <extensions>
          <ns3:TrackPointExtension>
            <ns3:atemp>20.0</ns3:atemp>
          </ns3:TrackPointExtension>
        </extensions>
      </trkpt>
      <trkpt lat="43.12129053287208080291748046875" lon="12.98793272115290164947509765625">
        <ele>936.79998779296875</ele>
        <time>2021-05-09T08:23:20.000Z</time>
        <extensions>
          <ns3:TrackPointExtension>
            <ns3:atemp>20.0</ns3:atemp>
          </ns3:TrackPointExtension>
        </extensions>
      </trkpt>
      <trkpt lat="43.12131115235388278961181640625" lon="12.98778402619063854217529296875">
        <ele>936.79998779296875</ele>
        <time>2021-05-09T08:23:25.000Z</time>
        <extensions>
          <ns3:TrackPointExtension>
            <ns3:atemp>19.0</ns3:atemp>
          </ns3:TrackPointExtension>
        </extensions>
      </trkpt>
      <trkpt lat="43.121334202587604522705078125" lon="12.98751354217529296875">
        <ele>937</ele>
        <time>2021-05-09T08:23:32.000Z</time>
        <extensions>
          <ns3:TrackPointExtension>
            <ns3:atemp>19.0</ns3:atemp>
          </ns3:TrackPointExtension>
        </extensions>
      </trkpt>
      <trkpt lat="43.1213660538196563720703125" lon="12.98725546337664127349853515625">
        <ele>937.20001220703125</ele>
        <time>2021-05-09T08:23:38.000Z</time>
        <extensions>
          <ns3:TrackPointExtension>
            <ns3:atemp>19.0</ns3:atemp>
          </ns3:TrackPointExtension>
        </extensions>
      </trkpt>
      <trkpt lat="43.1213873438537120819091796875" lon="12.9869977198541164398193359375">
        <ele>937.4000244140625</ele>
        <time>2021-05-09T08:23:44.000Z</time>
        <extensions>
          <ns3:TrackPointExtension>
            <ns3:atemp>19.0</ns3:atemp>
          </ns3:TrackPointExtension>
        </extensions>
      </trkpt>
      <trkpt lat="43.12137267552316188812255859375" lon="12.98677300103008747100830078125">
        <ele>937.4000244140625</ele>
        <time>2021-05-09T08:23:49.000Z</time>
        <extensions>
          <ns3:TrackPointExtension>
            <ns3:atemp>19.0</ns3:atemp>
          </ns3:TrackPointExtension>
        </extensions>
      </trkpt>
      <trkpt lat="43.1213360466063022613525390625" lon="12.9864404909312725067138671875">
        <ele>938</ele>
        <time>2021-05-09T08:23:56.000Z</time>
        <extensions>
          <ns3:TrackPointExtension>
            <ns3:atemp>19.0</ns3:atemp>
          </ns3:TrackPointExtension>
        </extensions>
      </trkpt>
      <trkpt lat="43.1213276647031307220458984375" lon="12.98639413900673389434814453125">
        <ele>938.20001220703125</ele>
        <time>2021-05-09T08:23:57.000Z</time>
        <extensions>
          <ns3:TrackPointExtension>
            <ns3:atemp>19.0</ns3:atemp>
          </ns3:TrackPointExtension>
        </extensions>
      </trkpt>
      <trkpt lat="43.12125750817358493804931640625" lon="12.98603321425616741180419921875">
        <ele>938.4000244140625</ele>
        <time>2021-05-09T08:24:04.000Z</time>
        <extensions>
          <ns3:TrackPointExtension>
            <ns3:atemp>19.0</ns3:atemp>
          </ns3:TrackPointExtension>
        </extensions>
      </trkpt>
      <trkpt lat="43.12119866721332073211669921875" lon="12.9855479858815670013427734375">
        <ele>938</ele>
        <time>2021-05-09T08:24:12.000Z</time>
        <extensions>
          <ns3:TrackPointExtension>
            <ns3:atemp>19.0</ns3:atemp>
          </ns3:TrackPointExtension>
        </extensions>
      </trkpt>
      <trkpt lat="43.12117503024637699127197265625" lon="12.98542066477239131927490234375">
        <ele>937.79998779296875</ele>
        <time>2021-05-09T08:24:14.000Z</time>
        <extensions>
          <ns3:TrackPointExtension>
            <ns3:atemp>19.0</ns3:atemp>
          </ns3:TrackPointExtension>
        </extensions>
      </trkpt>
      <trkpt lat="43.12114301137626171112060546875" lon="12.985293008387088775634765625">
        <ele>937.20001220703125</ele>
        <time>2021-05-09T08:24:16.000Z</time>
        <extensions>
          <ns3:TrackPointExtension>
            <ns3:atemp>19.0</ns3:atemp>
          </ns3:TrackPointExtension>
        </extensions>
      </trkpt>
      <trkpt lat="43.12113068997859954833984375" lon="12.9852227680385112762451171875">
        <ele>937</ele>
        <time>2021-05-09T08:24:17.000Z</time>
        <extensions>
          <ns3:TrackPointExtension>
            <ns3:atemp>19.0</ns3:atemp>
          </ns3:TrackPointExtension>
        </extensions>
      </trkpt>
      <trkpt lat="43.12111836858093738555908203125" lon="12.9851480014622211456298828125">
        <ele>937</ele>
        <time>2021-05-09T08:24:18.000Z</time>
        <extensions>
          <ns3:TrackPointExtension>
            <ns3:atemp>19.0</ns3:atemp>
          </ns3:TrackPointExtension>
        </extensions>
      </trkpt>
      <trkpt lat="43.12103874050080776214599609375" lon="12.9847091250121593475341796875">
        <ele>935.79998779296875</ele>
        <time>2021-05-09T08:24:24.000Z</time>
        <extensions>
          <ns3:TrackPointExtension>
            <ns3:atemp>19.0</ns3:atemp>
          </ns3:TrackPointExtension>
        </extensions>
      </trkpt>
      <trkpt lat="43.12101292423903942108154296875" lon="12.98455900512635707855224609375">
        <ele>935.20001220703125</ele>
        <time>2021-05-09T08:24:26.000Z</time>
        <extensions>
          <ns3:TrackPointExtension>
            <ns3:atemp>19.0</ns3:atemp>
          </ns3:TrackPointExtension>
        </extensions>
      </trkpt>
      <trkpt lat="43.1209907121956348419189453125" lon="12.984403185546398162841796875">
        <ele>934.5999755859375</ele>
        <time>2021-05-09T08:24:28.000Z</time>
        <extensions>
          <ns3:TrackPointExtension>
            <ns3:atemp>19.0</ns3:atemp>
          </ns3:TrackPointExtension>
        </extensions>
      </trkpt>
      <trkpt lat="43.12093849293887615203857421875" lon="12.9840211383998394012451171875">
        <ele>933.20001220703125</ele>
        <time>2021-05-09T08:24:33.000Z</time>
        <extensions>
          <ns3:TrackPointExtension>
            <ns3:atemp>19.0</ns3:atemp>
          </ns3:TrackPointExtension>
        </extensions>
      </trkpt>
      <trkpt lat="43.12092156149446964263916015625" lon="12.9839457012712955474853515625">
        <ele>933</ele>
        <time>2021-05-09T08:24:34.000Z</time>
        <extensions>
          <ns3:TrackPointExtension>
            <ns3:atemp>19.0</ns3:atemp>
          </ns3:TrackPointExtension>
        </extensions>
      </trkpt>
      <trkpt lat="43.12088132835924625396728515625" lon="12.983804382383823394775390625">
        <ele>932.4000244140625</ele>
        <time>2021-05-09T08:24:36.000Z</time>
        <extensions>
          <ns3:TrackPointExtension>
            <ns3:atemp>19.0</ns3:atemp>
          </ns3:TrackPointExtension>
        </extensions>
      </trkpt>
      <trkpt lat="43.12083003111183643341064453125" lon="12.98368091695010662078857421875">
        <ele>932.20001220703125</ele>
        <time>2021-05-09T08:24:38.000Z</time>
        <extensions>
          <ns3:TrackPointExtension>
            <ns3:atemp>19.0</ns3:atemp>
          </ns3:TrackPointExtension>
        </extensions>
      </trkpt>
      <trkpt lat="43.12080253846943378448486328125" lon="12.98362224362790584564208984375">
        <ele>932</ele>
        <time>2021-05-09T08:24:39.000Z</time>
        <extensions>
          <ns3:TrackPointExtension>
            <ns3:atemp>19.0</ns3:atemp>
          </ns3:TrackPointExtension>
        </extensions>
      </trkpt>
      <trkpt lat="43.12067697755992412567138671875" lon="12.98340129666030406951904296875">
        <ele>931</ele>
        <time>2021-05-09T08:24:43.000Z</time>
        <extensions>
          <ns3:TrackPointExtension>
            <ns3:atemp>19.0</ns3:atemp>
          </ns3:TrackPointExtension>
        </extensions>
      </trkpt>
      <trkpt lat="43.1205823458731174468994140625" lon="12.98323315568268299102783203125">
        <ele>930.4000244140625</ele>
        <time>2021-05-09T08:24:46.000Z</time>
        <extensions>
          <ns3:TrackPointExtension>
            <ns3:atemp>19.0</ns3:atemp>
          </ns3:TrackPointExtension>
        </extensions>
      </trkpt>
      <trkpt lat="43.120546974241733551025390625" lon="12.98317934386432170867919921875">
        <ele>930.20001220703125</ele>
        <time>2021-05-09T08:24:47.000Z</time>
        <extensions>
          <ns3:TrackPointExtension>
            <ns3:atemp>19.0</ns3:atemp>
          </ns3:TrackPointExtension>
        </extensions>
      </trkpt>
      <trkpt lat="43.12044404447078704833984375" lon="12.98302042298018932342529296875">
        <ele>929.79998779296875</ele>
        <time>2021-05-09T08:24:50.000Z</time>
        <extensions>
          <ns3:TrackPointExtension>
            <ns3:atemp>19.0</ns3:atemp>
          </ns3:TrackPointExtension>
        </extensions>
      </trkpt>
      <trkpt lat="43.12032334506511688232421875" lon="12.98283048905432224273681640625">
        <ele>929.4000244140625</ele>
        <time>2021-05-09T08:24:54.000Z</time>
        <extensions>
          <ns3:TrackPointExtension>
            <ns3:atemp>19.0</ns3:atemp>
          </ns3:TrackPointExtension>
        </extensions>
      </trkpt>
      <trkpt lat="43.12021077610552310943603515625" lon="12.98265094868838787078857421875">
        <ele>928.5999755859375</ele>
        <time>2021-05-09T08:24:58.000Z</time>
        <extensions>
          <ns3:TrackPointExtension>
            <ns3:atemp>19.0</ns3:atemp>
          </ns3:TrackPointExtension>
        </extensions>
      </trkpt>
      <trkpt lat="43.12012779526412487030029296875" lon="12.9825170896947383880615234375">
        <ele>928.20001220703125</ele>
        <time>2021-05-09T08:25:01.000Z</time>
        <extensions>
          <ns3:TrackPointExtension>
            <ns3:atemp>19.0</ns3:atemp>
          </ns3:TrackPointExtension>
        </extensions>
      </trkpt>
      <trkpt lat="43.1199014000594615936279296875" lon="12.9821358807384967803955078125">
        <ele>927.5999755859375</ele>
        <time>2021-05-09T08:25:09.000Z</time>
        <extensions>
          <ns3:TrackPointExtension>
            <ns3:atemp>19.0</ns3:atemp>
          </ns3:TrackPointExtension>
        </extensions>
      </trkpt>
      <trkpt lat="43.1197071075439453125" lon="12.9817990958690643310546875">
        <ele>927</ele>
        <time>2021-05-09T08:25:16.000Z</time>
        <extensions>
          <ns3:TrackPointExtension>
            <ns3:atemp>19.0</ns3:atemp>
          </ns3:TrackPointExtension>
        </extensions>
      </trkpt>
      <trkpt lat="43.1194353662431240081787109375" lon="12.981331050395965576171875">
        <ele>926.5999755859375</ele>
        <time>2021-05-09T08:25:25.000Z</time>
        <extensions>
          <ns3:TrackPointExtension>
            <ns3:atemp>19.0</ns3:atemp>
          </ns3:TrackPointExtension>
        </extensions>
      </trkpt>
      <trkpt lat="43.119193129241466522216796875" lon="12.9809319041669368743896484375">
        <ele>925.79998779296875</ele>
        <time>2021-05-09T08:25:33.000Z</time>
        <extensions>
          <ns3:TrackPointExtension>
            <ns3:atemp>19.0</ns3:atemp>
          </ns3:TrackPointExtension>
        </extensions>
      </trkpt>
      <trkpt lat="43.1190642155706882476806640625" lon="12.9807374440133571624755859375">
        <ele>925.4000244140625</ele>
        <time>2021-05-09T08:25:37.000Z</time>
        <extensions>
          <ns3:TrackPointExtension>
            <ns3:atemp>19.0</ns3:atemp>
          </ns3:TrackPointExtension>
        </extensions>
      </trkpt>
      <trkpt lat="43.11896388418972492218017578125" lon="12.98060216009616851806640625">
        <ele>925</ele>
        <time>2021-05-09T08:25:40.000Z</time>
        <extensions>
          <ns3:TrackPointExtension>
            <ns3:atemp>19.0</ns3:atemp>
          </ns3:TrackPointExtension>
        </extensions>
      </trkpt>
      <trkpt lat="43.11870873905718326568603515625" lon="12.98031658865511417388916015625">
        <ele>924.4000244140625</ele>
        <time>2021-05-09T08:25:47.000Z</time>
        <extensions>
          <ns3:TrackPointExtension>
            <ns3:atemp>19.0</ns3:atemp>
          </ns3:TrackPointExtension>
        </extensions>
      </trkpt>
      <trkpt lat="43.11866842210292816162109375" lon="12.98027887009084224700927734375">
        <ele>924.4000244140625</ele>
        <time>2021-05-09T08:25:48.000Z</time>
        <extensions>
          <ns3:TrackPointExtension>
            <ns3:atemp>19.0</ns3:atemp>
          </ns3:TrackPointExtension>
        </extensions>
      </trkpt>
      <trkpt lat="43.1184504926204681396484375" lon="12.980139814317226409912109375">
        <ele>924</ele>
        <time>2021-05-09T08:25:53.000Z</time>
        <extensions>
          <ns3:TrackPointExtension>
            <ns3:atemp>19.0</ns3:atemp>
          </ns3:TrackPointExtension>
        </extensions>
      </trkpt>
      <trkpt lat="43.11814731918275356292724609375" lon="12.97994409687817096710205078125">
        <ele>923</ele>
        <time>2021-05-09T08:26:00.000Z</time>
        <extensions>
          <ns3:TrackPointExtension>
            <ns3:atemp>19.0</ns3:atemp>
          </ns3:TrackPointExtension>
        </extensions>
      </trkpt>
      <trkpt lat="43.11797264032065868377685546875" lon="12.97969515435397624969482421875">
        <ele>922.20001220703125</ele>
        <time>2021-05-09T08:26:05.000Z</time>
        <extensions>
          <ns3:TrackPointExtension>
            <ns3:atemp>19.0</ns3:atemp>
          </ns3:TrackPointExtension>
        </extensions>
      </trkpt>
      <trkpt lat="43.11794816516339778900146484375" lon="12.979637570679187774658203125">
        <ele>922.20001220703125</ele>
        <time>2021-05-09T08:26:06.000Z</time>
        <extensions>
          <ns3:TrackPointExtension>
            <ns3:atemp>19.0</ns3:atemp>
          </ns3:TrackPointExtension>
        </extensions>
      </trkpt>
      <trkpt lat="43.117927126586437225341796875" lon="12.979581914842128753662109375">
        <ele>921.79998779296875</ele>
        <time>2021-05-09T08:26:07.000Z</time>
        <extensions>
          <ns3:TrackPointExtension>
            <ns3:atemp>19.0</ns3:atemp>
          </ns3:TrackPointExtension>
        </extensions>
      </trkpt>
      <trkpt lat="43.11787046492099761962890625" lon="12.97942198812961578369140625">
        <ele>921.20001220703125</ele>
        <time>2021-05-09T08:26:10.000Z</time>
        <extensions>
          <ns3:TrackPointExtension>
            <ns3:atemp>20.0</ns3:atemp>
          </ns3:TrackPointExtension>
        </extensions>
      </trkpt>
      <trkpt lat="43.1178133003413677215576171875" lon="12.9792347364127635955810546875">
        <ele>920.5999755859375</ele>
        <time>2021-05-09T08:26:13.000Z</time>
        <extensions>
          <ns3:TrackPointExtension>
            <ns3:atemp>20.0</ns3:atemp>
          </ns3:TrackPointExtension>
        </extensions>
      </trkpt>
      <trkpt lat="43.1177720613777637481689453125" lon="12.97909534536302089691162109375">
        <ele>920.4000244140625</ele>
        <time>2021-05-09T08:26:15.000Z</time>
        <extensions>
          <ns3:TrackPointExtension>
            <ns3:atemp>20.0</ns3:atemp>
          </ns3:TrackPointExtension>
        </extensions>
      </trkpt>
      <trkpt lat="43.117650859057903289794921875" lon="12.978824861347675323486328125">
        <ele>919.4000244140625</ele>
        <time>2021-05-09T08:26:19.000Z</time>
        <extensions>
          <ns3:TrackPointExtension>
            <ns3:atemp>20.0</ns3:atemp>
          </ns3:TrackPointExtension>
        </extensions>
      </trkpt>
      <trkpt lat="43.11761875636875629425048828125" lon="12.978753112256526947021484375">
        <ele>919</ele>
        <time>2021-05-09T08:26:20.000Z</time>
        <extensions>
          <ns3:TrackPointExtension>
            <ns3:atemp>20.0</ns3:atemp>
          </ns3:TrackPointExtension>
        </extensions>
      </trkpt>
      <trkpt lat="43.1175145693123340606689453125" lon="12.9785477556288242340087890625">
        <ele>918.20001220703125</ele>
        <time>2021-05-09T08:26:23.000Z</time>
        <extensions>
          <ns3:TrackPointExtension>
            <ns3:atemp>20.0</ns3:atemp>
          </ns3:TrackPointExtension>
        </extensions>
      </trkpt>
      <trkpt lat="43.11741926707327365875244140625" lon="12.97833460383117198944091796875">
        <ele>917.20001220703125</ele>
        <time>2021-05-09T08:26:26.000Z</time>
        <extensions>
          <ns3:TrackPointExtension>
            <ns3:atemp>20.0</ns3:atemp>
          </ns3:TrackPointExtension>
        </extensions>
      </trkpt>
      <trkpt lat="43.1173227913677692413330078125" lon="12.97800980508327484130859375">
        <ele>916</ele>
        <time>2021-05-09T08:26:30.000Z</time>
        <extensions>
          <ns3:TrackPointExtension>
            <ns3:atemp>20.0</ns3:atemp>
          </ns3:TrackPointExtension>
        </extensions>
      </trkpt>
      <trkpt lat="43.117279708385467529296875" lon="12.977843843400478363037109375">
        <ele>915.20001220703125</ele>
        <time>2021-05-09T08:26:32.000Z</time>
        <extensions>
          <ns3:TrackPointExtension>
            <ns3:atemp>20.0</ns3:atemp>
          </ns3:TrackPointExtension>
        </extensions>
      </trkpt>
      <trkpt lat="43.1172346137464046478271484375" lon="12.977676875889301300048828125">
        <ele>914.5999755859375</ele>
        <time>2021-05-09T08:26:34.000Z</time>
        <extensions>
          <ns3:TrackPointExtension>
            <ns3:atemp>20.0</ns3:atemp>
          </ns3:TrackPointExtension>
        </extensions>
      </trkpt>
      <trkpt lat="43.11719463206827640533447265625" lon="12.9775124229490756988525390625">
        <ele>913.79998779296875</ele>
        <time>2021-05-09T08:26:36.000Z</time>
        <extensions>
          <ns3:TrackPointExtension>
            <ns3:atemp>20.0</ns3:atemp>
          </ns3:TrackPointExtension>
        </extensions>
      </trkpt>
      <trkpt lat="43.11717954464256763458251953125" lon="12.977430112659931182861328125">
        <ele>913.4000244140625</ele>
        <time>2021-05-09T08:26:37.000Z</time>
        <extensions>
          <ns3:TrackPointExtension>
            <ns3:atemp>20.0</ns3:atemp>
          </ns3:TrackPointExtension>
        </extensions>
      </trkpt>
      <trkpt lat="43.11716311611235141754150390625" lon="12.97734939493238925933837890625">
        <ele>913.20001220703125</ele>
        <time>2021-05-09T08:26:38.000Z</time>
        <extensions>
          <ns3:TrackPointExtension>
            <ns3:atemp>20.0</ns3:atemp>
          </ns3:TrackPointExtension>
        </extensions>
      </trkpt>
      <trkpt lat="43.11714350245893001556396484375" lon="12.97727295197546482086181640625">
        <ele>913</ele>
        <time>2021-05-09T08:26:39.000Z</time>
        <extensions>
          <ns3:TrackPointExtension>
            <ns3:atemp>20.0</ns3:atemp>
          </ns3:TrackPointExtension>
        </extensions>
      </trkpt>
      <trkpt lat="43.1170646287500858306884765625" lon="12.97697338275611400604248046875">
        <ele>912.4000244140625</ele>
        <time>2021-05-09T08:26:43.000Z</time>
        <extensions>
          <ns3:TrackPointExtension>
            <ns3:atemp>20.0</ns3:atemp>
          </ns3:TrackPointExtension>
        </extensions>
      </trkpt>
      <trkpt lat="43.11704568564891815185546875" lon="12.97689978964626789093017578125">
        <ele>912.20001220703125</ele>
        <time>2021-05-09T08:26:44.000Z</time>
        <extensions>
          <ns3:TrackPointExtension>
            <ns3:atemp>20.0</ns3:atemp>
          </ns3:TrackPointExtension>
        </extensions>
      </trkpt>
      <trkpt lat="43.116928003728389739990234375" lon="12.9764091968536376953125">
        <ele>911.20001220703125</ele>
        <time>2021-05-09T08:26:51.000Z</time>
        <extensions>
          <ns3:TrackPointExtension>
            <ns3:atemp>20.0</ns3:atemp>
          </ns3:TrackPointExtension>
        </extensions>
      </trkpt>
      <trkpt lat="43.11691149137914180755615234375" lon="12.97634658403694629669189453125">
        <ele>910.79998779296875</ele>
        <time>2021-05-09T08:26:52.000Z</time>
        <extensions>
          <ns3:TrackPointExtension>
            <ns3:atemp>20.0</ns3:atemp>
          </ns3:TrackPointExtension>
        </extensions>
      </trkpt>
      <trkpt lat="43.11684896238148212432861328125" lon="12.97609068453311920166015625">
        <ele>910</ele>
        <time>2021-05-09T08:26:56.000Z</time>
        <extensions>
          <ns3:TrackPointExtension>
            <ns3:atemp>20.0</ns3:atemp>
          </ns3:TrackPointExtension>
        </extensions>
      </trkpt>
      <trkpt lat="43.1167907081544399261474609375" lon="12.97585523687303066253662109375">
        <ele>909.4000244140625</ele>
        <time>2021-05-09T08:27:00.000Z</time>
        <extensions>
          <ns3:TrackPointExtension>
            <ns3:atemp>20.0</ns3:atemp>
          </ns3:TrackPointExtension>
        </extensions>
      </trkpt>
      <trkpt lat="43.1166797317564487457275390625" lon="12.9755078069865703582763671875">
        <ele>909</ele>
        <time>2021-05-09T08:27:06.000Z</time>
        <extensions>
          <ns3:TrackPointExtension>
            <ns3:atemp>20.0</ns3:atemp>
          </ns3:TrackPointExtension>
        </extensions>
      </trkpt>
      <trkpt lat="43.11666422523558139801025390625" lon="12.9754508100450038909912109375">
        <ele>908.79998779296875</ele>
        <time>2021-05-09T08:27:07.000Z</time>
        <extensions>
          <ns3:TrackPointExtension>
            <ns3:atemp>20.0</ns3:atemp>
          </ns3:TrackPointExtension>
        </extensions>
      </trkpt>
      <trkpt lat="43.11664695851504802703857421875" lon="12.97539339400827884674072265625">
        <ele>908.79998779296875</ele>
        <time>2021-05-09T08:27:08.000Z</time>
        <extensions>
          <ns3:TrackPointExtension>
            <ns3:atemp>20.0</ns3:atemp>
          </ns3:TrackPointExtension>
        </extensions>
      </trkpt>
      <trkpt lat="43.11656012199819087982177734375" lon="12.97517797909677028656005859375">
        <ele>908.20001220703125</ele>
        <time>2021-05-09T08:27:12.000Z</time>
        <extensions>
          <ns3:TrackPointExtension>
            <ns3:atemp>20.0</ns3:atemp>
          </ns3:TrackPointExtension>
        </extensions>
      </trkpt>
      <trkpt lat="43.11649239622056484222412109375" lon="12.9750340618193149566650390625">
        <ele>907.79998779296875</ele>
        <time>2021-05-09T08:27:15.000Z</time>
        <extensions>
          <ns3:TrackPointExtension>
            <ns3:atemp>20.0</ns3:atemp>
          </ns3:TrackPointExtension>
        </extensions>
      </trkpt>
      <trkpt lat="43.11640262603759765625" lon="12.97483197413384914398193359375">
        <ele>907.79998779296875</ele>
        <time>2021-05-09T08:27:19.000Z</time>
        <extensions>
          <ns3:TrackPointExtension>
            <ns3:atemp>20.0</ns3:atemp>
          </ns3:TrackPointExtension>
        </extensions>
      </trkpt>
      <trkpt lat="43.1162619777023792266845703125" lon="12.97451178543269634246826171875">
        <ele>907.4000244140625</ele>
        <time>2021-05-09T08:27:26.000Z</time>
        <extensions>
          <ns3:TrackPointExtension>
            <ns3:atemp>20.0</ns3:atemp>
          </ns3:TrackPointExtension>
        </extensions>
      </trkpt>
      <trkpt lat="43.116129375994205474853515625" lon="12.9741467535495758056640625">
        <ele>907</ele>
        <time>2021-05-09T08:27:33.000Z</time>
        <extensions>
          <ns3:TrackPointExtension>
            <ns3:atemp>20.0</ns3:atemp>
          </ns3:TrackPointExtension>
        </extensions>
      </trkpt>
      <trkpt lat="43.116085790097713470458984375" lon="12.97403804026544094085693359375">
        <ele>906.79998779296875</ele>
        <time>2021-05-09T08:27:35.000Z</time>
        <extensions>
          <ns3:TrackPointExtension>
            <ns3:atemp>20.0</ns3:atemp>
          </ns3:TrackPointExtension>
        </extensions>
      </trkpt>
      <trkpt lat="43.11597414314746856689453125" lon="12.97374433837831020355224609375">
        <ele>906</ele>
        <time>2021-05-09T08:27:40.000Z</time>
        <extensions>
          <ns3:TrackPointExtension>
            <ns3:atemp>20.0</ns3:atemp>
          </ns3:TrackPointExtension>
        </extensions>
      </trkpt>
      <trkpt lat="43.1159531883895397186279296875" lon="12.9736818931996822357177734375">
        <ele>905.79998779296875</ele>
        <time>2021-05-09T08:27:41.000Z</time>
        <extensions>
          <ns3:TrackPointExtension>
            <ns3:atemp>20.0</ns3:atemp>
          </ns3:TrackPointExtension>
        </extensions>
      </trkpt>
      <trkpt lat="43.1157815270125865936279296875" lon="12.97319649718701839447021484375">
        <ele>904.5999755859375</ele>
        <time>2021-05-09T08:27:49.000Z</time>
        <extensions>
          <ns3:TrackPointExtension>
            <ns3:atemp>20.0</ns3:atemp>
          </ns3:TrackPointExtension>
        </extensions>
      </trkpt>
      <trkpt lat="43.115687482059001922607421875" lon="12.97300220467150211334228515625">
        <ele>903.79998779296875</ele>
        <time>2021-05-09T08:27:54.000Z</time>
        <extensions>
          <ns3:TrackPointExtension>
            <ns3:atemp>21.0</ns3:atemp>
          </ns3:TrackPointExtension>
        </extensions>
      </trkpt>
      <trkpt lat="43.115666024386882781982421875" lon="12.9729647375643253326416015625">
        <ele>903.79998779296875</ele>
        <time>2021-05-09T08:27:58.000Z</time>
        <extensions>
          <ns3:TrackPointExtension>
            <ns3:atemp>21.0</ns3:atemp>
          </ns3:TrackPointExtension>
        </extensions>
      </trkpt>
      <trkpt lat="43.1156744062900543212890625" lon="12.972982339560985565185546875">
        <ele>904</ele>
        <time>2021-05-09T08:28:04.000Z</time>
        <extensions>
          <ns3:TrackPointExtension>
            <ns3:atemp>21.0</ns3:atemp>
          </ns3:TrackPointExtension>
        </extensions>
      </trkpt>
      <trkpt lat="43.1156739033758640289306640625" lon="12.97298309393227100372314453125">
        <ele>904</ele>
        <time>2021-05-09T08:28:17.000Z</time>
        <extensions>
          <ns3:TrackPointExtension>
            <ns3:atemp>21.0</ns3:atemp>
          </ns3:TrackPointExtension>
        </extensions>
      </trkpt>
      <trkpt lat="43.11567381955683231353759765625" lon="12.972983010113239288330078125">
        <ele>903.79998779296875</ele>
        <time>2021-05-09T08:28:19.000Z</time>
        <extensions>
          <ns3:TrackPointExtension>
            <ns3:atemp>21.0</ns3:atemp>
          </ns3:TrackPointExtension>
        </extensions>
      </trkpt>
      <trkpt lat="43.11567348428070545196533203125" lon="12.97298493795096874237060546875">
        <ele>904</ele>
        <time>2021-05-09T08:28:38.000Z</time>
        <extensions>
          <ns3:TrackPointExtension>
            <ns3:atemp>21.0</ns3:atemp>
          </ns3:TrackPointExtension>
        </extensions>
      </trkpt>
      <trkpt lat="43.1156739033758640289306640625" lon="12.97298342920839786529541015625">
        <ele>903.5999755859375</ele>
        <time>2021-05-09T08:29:00.000Z</time>
        <extensions>
          <ns3:TrackPointExtension>
            <ns3:atemp>22.0</ns3:atemp>
          </ns3:TrackPointExtension>
        </extensions>
      </trkpt>
      <trkpt lat="43.1156739033758640289306640625" lon="12.97298326157033443450927734375">
        <ele>903.5999755859375</ele>
        <time>2021-05-09T08:29:02.000Z</time>
        <extensions>
          <ns3:TrackPointExtension>
            <ns3:atemp>22.0</ns3:atemp>
          </ns3:TrackPointExtension>
        </extensions>
      </trkpt>
      <trkpt lat="43.11567373573780059814453125" lon="12.97298376448452472686767578125">
        <ele>903.79998779296875</ele>
        <time>2021-05-09T08:29:27.000Z</time>
        <extensions>
          <ns3:TrackPointExtension>
            <ns3:atemp>23.0</ns3:atemp>
          </ns3:TrackPointExtension>
        </extensions>
      </trkpt>
      <trkpt lat="43.11567365191876888275146484375" lon="12.97298443503677845001220703125">
        <ele>903.5999755859375</ele>
        <time>2021-05-09T08:29:36.000Z</time>
        <extensions>
          <ns3:TrackPointExtension>
            <ns3:atemp>23.0</ns3:atemp>
          </ns3:TrackPointExtension>
        </extensions>
      </trkpt>
      <trkpt lat="43.115672729909420013427734375" lon="12.97298393212258815765380859375">
        <ele>903.4000244140625</ele>
        <time>2021-05-09T08:29:49.000Z</time>
        <extensions>
          <ns3:TrackPointExtension>
            <ns3:atemp>23.0</ns3:atemp>
          </ns3:TrackPointExtension>
        </extensions>
      </trkpt>
      <trkpt lat="43.11567231081426143646240234375" lon="12.97298426739871501922607421875">
        <ele>903.5999755859375</ele>
        <time>2021-05-09T08:30:10.000Z</time>
        <extensions>
          <ns3:TrackPointExtension>
            <ns3:atemp>24.0</ns3:atemp>
          </ns3:TrackPointExtension>
        </extensions>
      </trkpt>
      <trkpt lat="43.1156749092042446136474609375" lon="12.9729908891022205352783203125">
        <ele>903.5999755859375</ele>
        <time>2021-05-09T08:30:28.000Z</time>
        <extensions>
          <ns3:TrackPointExtension>
            <ns3:atemp>24.0</ns3:atemp>
          </ns3:TrackPointExtension>
        </extensions>
      </trkpt>
      <trkpt lat="43.11567331664264202117919921875" lon="12.97298728488385677337646484375">
        <ele>903.4000244140625</ele>
        <time>2021-05-09T08:30:42.000Z</time>
        <extensions>
          <ns3:TrackPointExtension>
            <ns3:atemp>25.0</ns3:atemp>
          </ns3:TrackPointExtension>
        </extensions>
      </trkpt>
      <trkpt lat="43.115673400461673736572265625" lon="12.972987033426761627197265625">
        <ele>903.4000244140625</ele>
        <time>2021-05-09T08:30:46.000Z</time>
        <extensions>
          <ns3:TrackPointExtension>
            <ns3:atemp>25.0</ns3:atemp>
          </ns3:TrackPointExtension>
        </extensions>
      </trkpt>
      <trkpt lat="43.11567449010908603668212890625" lon="12.9729841835796833038330078125">
        <ele>903.4000244140625</ele>
        <time>2021-05-09T08:30:56.000Z</time>
        <extensions>
          <ns3:TrackPointExtension>
            <ns3:atemp>25.0</ns3:atemp>
          </ns3:TrackPointExtension>
        </extensions>
      </trkpt>
      <trkpt lat="43.1156725622713565826416015625" lon="12.9729818366467952728271484375">
        <ele>903.20001220703125</ele>
        <time>2021-05-09T08:31:24.000Z</time>
        <extensions>
          <ns3:TrackPointExtension>
            <ns3:atemp>26.0</ns3:atemp>
          </ns3:TrackPointExtension>
        </extensions>
      </trkpt>
      <trkpt lat="43.11567239463329315185546875" lon="12.97298200428485870361328125">
        <ele>903.4000244140625</ele>
        <time>2021-05-09T08:31:31.000Z</time>
        <extensions>
          <ns3:TrackPointExtension>
            <ns3:atemp>26.0</ns3:atemp>
          </ns3:TrackPointExtension>
        </extensions>
      </trkpt>
      <trkpt lat="43.1156623363494873046875" lon="12.97298527322709560394287109375">
        <ele>903.20001220703125</ele>
        <time>2021-05-09T08:31:48.000Z</time>
        <extensions>
          <ns3:TrackPointExtension>
            <ns3:atemp>26.0</ns3:atemp>
          </ns3:TrackPointExtension>
        </extensions>
      </trkpt>
      <trkpt lat="43.11565152369439601898193359375" lon="12.9729838483035564422607421875">
        <ele>903.4000244140625</ele>
        <time>2021-05-09T08:31:58.000Z</time>
        <extensions>
          <ns3:TrackPointExtension>
            <ns3:atemp>27.0</ns3:atemp>
          </ns3:TrackPointExtension>
        </extensions>
      </trkpt>
      <trkpt lat="43.115648925304412841796875" lon="12.97298409976065158843994140625">
        <ele>903.5999755859375</ele>
        <time>2021-05-09T08:32:07.000Z</time>
        <extensions>
          <ns3:TrackPointExtension>
            <ns3:atemp>27.0</ns3:atemp>
          </ns3:TrackPointExtension>
        </extensions>
      </trkpt>
      <trkpt lat="43.115648925304412841796875" lon="12.97298426739871501922607421875">
        <ele>903.5999755859375</ele>
        <time>2021-05-09T08:32:10.000Z</time>
        <extensions>
          <ns3:TrackPointExtension>
            <ns3:atemp>27.0</ns3:atemp>
          </ns3:TrackPointExtension>
        </extensions>
      </trkpt>
      <trkpt lat="43.1156490929424762725830078125" lon="12.972984015941619873046875">
        <ele>903.20001220703125</ele>
        <time>2021-05-09T08:32:25.000Z</time>
        <extensions>
          <ns3:TrackPointExtension>
            <ns3:atemp>27.0</ns3:atemp>
          </ns3:TrackPointExtension>
        </extensions>
      </trkpt>
      <trkpt lat="43.1156474165618419647216796875" lon="12.97298376448452472686767578125">
        <ele>903.4000244140625</ele>
        <time>2021-05-09T08:32:50.000Z</time>
        <extensions>
          <ns3:TrackPointExtension>
            <ns3:atemp>28.0</ns3:atemp>
          </ns3:TrackPointExtension>
        </extensions>
      </trkpt>
      <trkpt lat="43.11564716510474681854248046875" lon="12.9729838483035564422607421875">
        <ele>903.20001220703125</ele>
        <time>2021-05-09T08:33:01.000Z</time>
        <extensions>
          <ns3:TrackPointExtension>
            <ns3:atemp>28.0</ns3:atemp>
          </ns3:TrackPointExtension>
        </extensions>
      </trkpt>
      <trkpt lat="43.1156386993825435638427734375" lon="12.97298309393227100372314453125">
        <ele>903</ele>
        <time>2021-05-09T08:33:05.000Z</time>
        <extensions>
          <ns3:TrackPointExtension>
            <ns3:atemp>28.0</ns3:atemp>
          </ns3:TrackPointExtension>
        </extensions>
      </trkpt>
      <trkpt lat="43.115619085729122161865234375" lon="12.97298762015998363494873046875">
        <ele>903</ele>
        <time>2021-05-09T08:33:15.000Z</time>
        <extensions>
          <ns3:TrackPointExtension>
            <ns3:atemp>28.0</ns3:atemp>
          </ns3:TrackPointExtension>
        </extensions>
      </trkpt>
      <trkpt lat="43.1155257113277912139892578125" lon="12.9730089940130710601806640625">
        <ele>903</ele>
        <time>2021-05-09T08:33:22.000Z</time>
        <extensions>
          <ns3:TrackPointExtension>
            <ns3:atemp>28.0</ns3:atemp>
          </ns3:TrackPointExtension>
        </extensions>
      </trkpt>
      <trkpt lat="43.1155236996710300445556640625" lon="12.97301192767918109893798828125">
        <ele>903.4000244140625</ele>
        <time>2021-05-09T08:33:31.000Z</time>
        <extensions>
          <ns3:TrackPointExtension>
            <ns3:atemp>28.0</ns3:atemp>
          </ns3:TrackPointExtension>
        </extensions>
      </trkpt>
      <trkpt lat="43.11552395112812519073486328125" lon="12.97301125712692737579345703125">
        <ele>903.79998779296875</ele>
        <time>2021-05-09T08:33:56.000Z</time>
        <extensions>
          <ns3:TrackPointExtension>
            <ns3:atemp>28.0</ns3:atemp>
          </ns3:TrackPointExtension>
        </extensions>
      </trkpt>
      <trkpt lat="43.11547567136585712432861328125" lon="12.97301947139203548431396484375">
        <ele>903.79998779296875</ele>
        <time>2021-05-09T08:34:05.000Z</time>
        <extensions>
          <ns3:TrackPointExtension>
            <ns3:atemp>29.0</ns3:atemp>
          </ns3:TrackPointExtension>
        </extensions>
      </trkpt>
      <trkpt lat="43.11539922840893268585205078125" lon="12.97302491962909698486328125">
        <ele>903.5999755859375</ele>
        <time>2021-05-09T08:34:12.000Z</time>
        <extensions>
          <ns3:TrackPointExtension>
            <ns3:atemp>29.0</ns3:atemp>
          </ns3:TrackPointExtension>
        </extensions>
      </trkpt>
      <trkpt lat="43.11539612710475921630859375" lon="12.97302399761974811553955078125">
        <ele>904</ele>
        <time>2021-05-09T08:34:24.000Z</time>
        <extensions>
          <ns3:TrackPointExtension>
            <ns3:atemp>29.0</ns3:atemp>
          </ns3:TrackPointExtension>
        </extensions>
      </trkpt>
      <trkpt lat="43.11539738439023494720458984375" lon="12.97302491962909698486328125">
        <ele>904</ele>
        <time>2021-05-09T08:34:25.000Z</time>
        <extensions>
          <ns3:TrackPointExtension>
            <ns3:atemp>29.0</ns3:atemp>
          </ns3:TrackPointExtension>
        </extensions>
      </trkpt>
      <trkpt lat="43.11539738439023494720458984375" lon="12.9730250872671604156494140625">
        <ele>904</ele>
        <time>2021-05-09T08:34:44.000Z</time>
        <extensions>
          <ns3:TrackPointExtension>
            <ns3:atemp>29.0</ns3:atemp>
          </ns3:TrackPointExtension>
        </extensions>
      </trkpt>
      <trkpt lat="43.1153986416757106781005859375" lon="12.9730202257633209228515625">
        <ele>904</ele>
        <time>2021-05-09T08:34:54.000Z</time>
        <extensions>
          <ns3:TrackPointExtension>
            <ns3:atemp>29.0</ns3:atemp>
          </ns3:TrackPointExtension>
        </extensions>
      </trkpt>
      <trkpt lat="43.11539855785667896270751953125" lon="12.9730200581252574920654296875">
        <ele>904</ele>
        <time>2021-05-09T08:34:57.000Z</time>
        <extensions>
          <ns3:TrackPointExtension>
            <ns3:atemp>29.0</ns3:atemp>
          </ns3:TrackPointExtension>
        </extensions>
      </trkpt>
      <trkpt lat="43.1153966300189495086669921875" lon="12.9730049706995487213134765625">
        <ele>904.20001220703125</ele>
        <time>2021-05-09T08:35:10.000Z</time>
        <extensions>
          <ns3:TrackPointExtension>
            <ns3:atemp>29.0</ns3:atemp>
          </ns3:TrackPointExtension>
        </extensions>
      </trkpt>
      <trkpt lat="43.1153775192797183990478515625" lon="12.97298845835030078887939453125">
        <ele>904.20001220703125</ele>
        <time>2021-05-09T08:35:17.000Z</time>
        <extensions>
          <ns3:TrackPointExtension>
            <ns3:atemp>29.0</ns3:atemp>
          </ns3:TrackPointExtension>
        </extensions>
      </trkpt>
      <trkpt lat="43.1153580732643604278564453125" lon="12.9729872010648250579833984375">
        <ele>904.20001220703125</ele>
        <time>2021-05-09T08:35:18.000Z</time>
        <extensions>
          <ns3:TrackPointExtension>
            <ns3:atemp>29.0</ns3:atemp>
          </ns3:TrackPointExtension>
        </extensions>
      </trkpt>
      <trkpt lat="43.11532094143331050872802734375" lon="12.973009161651134490966796875">
        <ele>904.20001220703125</ele>
        <time>2021-05-09T08:35:21.000Z</time>
        <extensions>
          <ns3:TrackPointExtension>
            <ns3:atemp>29.0</ns3:atemp>
          </ns3:TrackPointExtension>
        </extensions>
      </trkpt>
      <trkpt lat="43.11531859450042247772216796875" lon="12.97301016747951507568359375">
        <ele>904.20001220703125</ele>
        <time>2021-05-09T08:35:22.000Z</time>
        <extensions>
          <ns3:TrackPointExtension>
            <ns3:atemp>29.0</ns3:atemp>
          </ns3:TrackPointExtension>
        </extensions>
      </trkpt>
      <trkpt lat="43.11526578851044178009033203125" lon="12.97300706617534160614013671875">
        <ele>904.20001220703125</ele>
        <time>2021-05-09T08:35:27.000Z</time>
        <extensions>
          <ns3:TrackPointExtension>
            <ns3:atemp>29.0</ns3:atemp>
          </ns3:TrackPointExtension>
        </extensions>
      </trkpt>
      <trkpt lat="43.11508608050644397735595703125" lon="12.97297370620071887969970703125">
        <ele>904.20001220703125</ele>
        <time>2021-05-09T08:35:33.000Z</time>
        <extensions>
          <ns3:TrackPointExtension>
            <ns3:atemp>29.0</ns3:atemp>
          </ns3:TrackPointExtension>
        </extensions>
      </trkpt>
      <trkpt lat="43.11485758982598781585693359375" lon="12.97292877919971942901611328125">
        <ele>904.20001220703125</ele>
        <time>2021-05-09T08:35:39.000Z</time>
        <extensions>
          <ns3:TrackPointExtension>
            <ns3:atemp>29.0</ns3:atemp>
          </ns3:TrackPointExtension>
        </extensions>
      </trkpt>
      <trkpt lat="43.1146083958446979522705078125" lon="12.972889803349971771240234375">
        <ele>904.20001220703125</ele>
        <time>2021-05-09T08:35:45.000Z</time>
        <extensions>
          <ns3:TrackPointExtension>
            <ns3:atemp>29.0</ns3:atemp>
          </ns3:TrackPointExtension>
        </extensions>
      </trkpt>
      <trkpt lat="43.11448090709745883941650390625" lon="12.9728780686855316162109375">
        <ele>904.20001220703125</ele>
        <time>2021-05-09T08:35:48.000Z</time>
        <extensions>
          <ns3:TrackPointExtension>
            <ns3:atemp>29.0</ns3:atemp>
          </ns3:TrackPointExtension>
        </extensions>
      </trkpt>
      <trkpt lat="43.1143083237111568450927734375" lon="12.97286130487918853759765625">
        <ele>904.4000244140625</ele>
        <time>2021-05-09T08:35:52.000Z</time>
        <extensions>
          <ns3:TrackPointExtension>
            <ns3:atemp>29.0</ns3:atemp>
          </ns3:TrackPointExtension>
        </extensions>
      </trkpt>
      <trkpt lat="43.114127777516841888427734375" lon="12.97283657826483249664306640625">
        <ele>904.79998779296875</ele>
        <time>2021-05-09T08:35:56.000Z</time>
        <extensions>
          <ns3:TrackPointExtension>
            <ns3:atemp>29.0</ns3:atemp>
          </ns3:TrackPointExtension>
        </extensions>
      </trkpt>
      <trkpt lat="43.11394379474222660064697265625" lon="12.9728054814040660858154296875">
        <ele>905.20001220703125</ele>
        <time>2021-05-09T08:36:00.000Z</time>
        <extensions>
          <ns3:TrackPointExtension>
            <ns3:atemp>29.0</ns3:atemp>
          </ns3:TrackPointExtension>
        </extensions>
      </trkpt>
      <trkpt lat="43.11358974315226078033447265625" lon="12.97275728546082973480224609375">
        <ele>905.79998779296875</ele>
        <time>2021-05-09T08:36:08.000Z</time>
        <extensions>
          <ns3:TrackPointExtension>
            <ns3:atemp>28.0</ns3:atemp>
          </ns3:TrackPointExtension>
        </extensions>
      </trkpt>
      <trkpt lat="43.1135009787976741790771484375" lon="12.97274018637835979461669921875">
        <ele>905.79998779296875</ele>
        <time>2021-05-09T08:36:10.000Z</time>
        <extensions>
          <ns3:TrackPointExtension>
            <ns3:atemp>28.0</ns3:atemp>
          </ns3:TrackPointExtension>
        </extensions>
      </trkpt>
      <trkpt lat="43.1132371164858341217041015625" lon="12.9726985283195972442626953125">
        <ele>906</ele>
        <time>2021-05-09T08:36:16.000Z</time>
        <extensions>
          <ns3:TrackPointExtension>
            <ns3:atemp>28.0</ns3:atemp>
          </ns3:TrackPointExtension>
        </extensions>
      </trkpt>
      <trkpt lat="43.11292287893593311309814453125" lon="12.9726525954902172088623046875">
        <ele>906.5999755859375</ele>
        <time>2021-05-09T08:36:23.000Z</time>
        <extensions>
          <ns3:TrackPointExtension>
            <ns3:atemp>28.0</ns3:atemp>
          </ns3:TrackPointExtension>
        </extensions>
      </trkpt>
      <trkpt lat="43.112795054912567138671875" lon="12.97263843007385730743408203125">
        <ele>906.5999755859375</ele>
        <time>2021-05-09T08:36:26.000Z</time>
        <extensions>
          <ns3:TrackPointExtension>
            <ns3:atemp>28.0</ns3:atemp>
          </ns3:TrackPointExtension>
        </extensions>
      </trkpt>
      <trkpt lat="43.112702853977680206298828125" lon="12.97266139648854732513427734375">
        <ele>906.5999755859375</ele>
        <time>2021-05-09T08:36:28.000Z</time>
        <extensions>
          <ns3:TrackPointExtension>
            <ns3:atemp>28.0</ns3:atemp>
          </ns3:TrackPointExtension>
        </extensions>
      </trkpt>
      <trkpt lat="43.1124113313853740692138671875" lon="12.97273666597902774810791015625">
        <ele>906.5999755859375</ele>
        <time>2021-05-09T08:36:34.000Z</time>
        <extensions>
          <ns3:TrackPointExtension>
            <ns3:atemp>28.0</ns3:atemp>
          </ns3:TrackPointExtension>
        </extensions>
      </trkpt>
      <trkpt lat="43.11218963004648685455322265625" lon="12.9727927409112453460693359375">
        <ele>905.4000244140625</ele>
        <time>2021-05-09T08:36:39.000Z</time>
        <extensions>
          <ns3:TrackPointExtension>
            <ns3:atemp>28.0</ns3:atemp>
          </ns3:TrackPointExtension>
        </extensions>
      </trkpt>
      <trkpt lat="43.11205208301544189453125" lon="12.972831465303897857666015625">
        <ele>905</ele>
        <time>2021-05-09T08:36:42.000Z</time>
        <extensions>
          <ns3:TrackPointExtension>
            <ns3:atemp>28.0</ns3:atemp>
          </ns3:TrackPointExtension>
        </extensions>
      </trkpt>
      <trkpt lat="43.1116054952144622802734375" lon="12.97295861877501010894775390625">
        <ele>905</ele>
        <time>2021-05-09T08:36:52.000Z</time>
        <extensions>
          <ns3:TrackPointExtension>
            <ns3:atemp>28.0</ns3:atemp>
          </ns3:TrackPointExtension>
        </extensions>
      </trkpt>
      <trkpt lat="43.11123392544686794281005859375" lon="12.97298745252192020416259765625">
        <ele>905.4000244140625</ele>
        <time>2021-05-09T08:37:01.000Z</time>
        <extensions>
          <ns3:TrackPointExtension>
            <ns3:atemp>27.0</ns3:atemp>
          </ns3:TrackPointExtension>
        </extensions>
      </trkpt>
      <trkpt lat="43.1109408102929592132568359375" lon="12.9729369096457958221435546875">
        <ele>905.5999755859375</ele>
        <time>2021-05-09T08:37:08.000Z</time>
        <extensions>
          <ns3:TrackPointExtension>
            <ns3:atemp>27.0</ns3:atemp>
          </ns3:TrackPointExtension>
        </extensions>
      </trkpt>
      <trkpt lat="43.1105327792465686798095703125" lon="12.9728685133159160614013671875">
        <ele>906</ele>
        <time>2021-05-09T08:37:17.000Z</time>
        <extensions>
          <ns3:TrackPointExtension>
            <ns3:atemp>27.0</ns3:atemp>
          </ns3:TrackPointExtension>
        </extensions>
      </trkpt>
      <trkpt lat="43.11039590276777744293212890625" lon="12.97285770066082477569580078125">
        <ele>906</ele>
        <time>2021-05-09T08:37:20.000Z</time>
        <extensions>
          <ns3:TrackPointExtension>
            <ns3:atemp>27.0</ns3:atemp>
          </ns3:TrackPointExtension>
        </extensions>
      </trkpt>
      <trkpt lat="43.1102236546576023101806640625" lon="12.97282869927585124969482421875">
        <ele>905.5999755859375</ele>
        <time>2021-05-09T08:37:24.000Z</time>
        <extensions>
          <ns3:TrackPointExtension>
            <ns3:atemp>27.0</ns3:atemp>
          </ns3:TrackPointExtension>
        </extensions>
      </trkpt>
      <trkpt lat="43.10996406711637973785400390625" lon="12.9727689363062381744384765625">
        <ele>905.5999755859375</ele>
        <time>2021-05-09T08:37:31.000Z</time>
        <extensions>
          <ns3:TrackPointExtension>
            <ns3:atemp>27.0</ns3:atemp>
          </ns3:TrackPointExtension>
        </extensions>
      </trkpt>
      <trkpt lat="43.1096442975103855133056640625" lon="12.9726492427289485931396484375">
        <ele>906.4000244140625</ele>
        <time>2021-05-09T08:37:39.000Z</time>
        <extensions>
          <ns3:TrackPointExtension>
            <ns3:atemp>26.0</ns3:atemp>
          </ns3:TrackPointExtension>
        </extensions>
      </trkpt>
      <trkpt lat="43.109566681087017059326171875" lon="12.9726053215563297271728515625">
        <ele>906.4000244140625</ele>
        <time>2021-05-09T08:37:41.000Z</time>
        <extensions>
          <ns3:TrackPointExtension>
            <ns3:atemp>26.0</ns3:atemp>
          </ns3:TrackPointExtension>
        </extensions>
      </trkpt>
      <trkpt lat="43.1094173155725002288818359375" lon="12.9724891483783721923828125">
        <ele>906.5999755859375</ele>
        <time>2021-05-09T08:37:45.000Z</time>
        <extensions>
          <ns3:TrackPointExtension>
            <ns3:atemp>26.0</ns3:atemp>
          </ns3:TrackPointExtension>
        </extensions>
      </trkpt>
      <trkpt lat="43.1093274615705013275146484375" lon="12.97250180505216121673583984375">
        <ele>906.5999755859375</ele>
        <time>2021-05-09T08:37:48.000Z</time>
        <extensions>
          <ns3:TrackPointExtension>
            <ns3:atemp>26.0</ns3:atemp>
          </ns3:TrackPointExtension>
        </extensions>
      </trkpt>
      <trkpt lat="43.1093013100326061248779296875" lon="12.9725320637226104736328125">
        <ele>906.5999755859375</ele>
        <time>2021-05-09T08:37:49.000Z</time>
        <extensions>
          <ns3:TrackPointExtension>
            <ns3:atemp>26.0</ns3:atemp>
          </ns3:TrackPointExtension>
        </extensions>
      </trkpt>
      <trkpt lat="43.10924858786165714263916015625" lon="12.9726046510040760040283203125">
        <ele>906.79998779296875</ele>
        <time>2021-05-09T08:37:51.000Z</time>
        <extensions>
          <ns3:TrackPointExtension>
            <ns3:atemp>26.0</ns3:atemp>
          </ns3:TrackPointExtension>
        </extensions>
      </trkpt>
      <trkpt lat="43.1091621704399585723876953125" lon="12.9727132804691791534423828125">
        <ele>907.20001220703125</ele>
        <time>2021-05-09T08:37:54.000Z</time>
        <extensions>
          <ns3:TrackPointExtension>
            <ns3:atemp>26.0</ns3:atemp>
          </ns3:TrackPointExtension>
        </extensions>
      </trkpt>
      <trkpt lat="43.10894482769072055816650390625" lon="12.97295442782342433929443359375">
        <ele>907.4000244140625</ele>
        <time>2021-05-09T08:38:00.000Z</time>
        <extensions>
          <ns3:TrackPointExtension>
            <ns3:atemp>26.0</ns3:atemp>
          </ns3:TrackPointExtension>
        </extensions>
      </trkpt>
      <trkpt lat="43.10883452184498310089111328125" lon="12.9730794019997119903564453125">
        <ele>907.4000244140625</ele>
        <time>2021-05-09T08:38:03.000Z</time>
        <extensions>
          <ns3:TrackPointExtension>
            <ns3:atemp>26.0</ns3:atemp>
          </ns3:TrackPointExtension>
        </extensions>
      </trkpt>
      <trkpt lat="43.108741231262683868408203125" lon="12.97318308614194393157958984375">
        <ele>907.4000244140625</ele>
        <time>2021-05-09T08:38:06.000Z</time>
        <extensions>
          <ns3:TrackPointExtension>
            <ns3:atemp>26.0</ns3:atemp>
          </ns3:TrackPointExtension>
        </extensions>
      </trkpt>
      <trkpt lat="43.1085660494863986968994140625" lon="12.97337888740003108978271484375">
        <ele>907.4000244140625</ele>
        <time>2021-05-09T08:38:12.000Z</time>
        <extensions>
          <ns3:TrackPointExtension>
            <ns3:atemp>26.0</ns3:atemp>
          </ns3:TrackPointExtension>
        </extensions>
      </trkpt>
      <trkpt lat="43.10845348052680492401123046875" lon="12.973604612052440643310546875">
        <ele>907.4000244140625</ele>
        <time>2021-05-09T08:38:17.000Z</time>
        <extensions>
          <ns3:TrackPointExtension>
            <ns3:atemp>25.0</ns3:atemp>
          </ns3:TrackPointExtension>
        </extensions>
      </trkpt>
      <trkpt lat="43.10841056518256664276123046875" lon="12.97370494343340396881103515625">
        <ele>907.5999755859375</ele>
        <time>2021-05-09T08:38:19.000Z</time>
        <extensions>
          <ns3:TrackPointExtension>
            <ns3:atemp>25.0</ns3:atemp>
          </ns3:TrackPointExtension>
        </extensions>
      </trkpt>
      <trkpt lat="43.10838826932013034820556640625" lon="12.97375624068081378936767578125">
        <ele>907.79998779296875</ele>
        <time>2021-05-09T08:38:20.000Z</time>
        <extensions>
          <ns3:TrackPointExtension>
            <ns3:atemp>25.0</ns3:atemp>
          </ns3:TrackPointExtension>
        </extensions>
      </trkpt>
      <trkpt lat="43.108175285160541534423828125" lon="12.97422076575458049774169921875">
        <ele>908</ele>
        <time>2021-05-09T08:38:29.000Z</time>
        <extensions>
          <ns3:TrackPointExtension>
            <ns3:atemp>25.0</ns3:atemp>
          </ns3:TrackPointExtension>
        </extensions>
      </trkpt>
      <trkpt lat="43.1081094034016132354736328125" lon="12.9743873141705989837646484375">
        <ele>908</ele>
        <time>2021-05-09T08:38:32.000Z</time>
        <extensions>
          <ns3:TrackPointExtension>
            <ns3:atemp>25.0</ns3:atemp>
          </ns3:TrackPointExtension>
        </extensions>
      </trkpt>
      <trkpt lat="43.107961714267730712890625" lon="12.97470004297792911529541015625">
        <ele>907.79998779296875</ele>
        <time>2021-05-09T08:38:38.000Z</time>
        <extensions>
          <ns3:TrackPointExtension>
            <ns3:atemp>25.0</ns3:atemp>
          </ns3:TrackPointExtension>
        </extensions>
      </trkpt>
      <trkpt lat="43.10773414559662342071533203125" lon="12.9751524142920970916748046875">
        <ele>908</ele>
        <time>2021-05-09T08:38:47.000Z</time>
        <extensions>
          <ns3:TrackPointExtension>
            <ns3:atemp>25.0</ns3:atemp>
          </ns3:TrackPointExtension>
        </extensions>
      </trkpt>
      <trkpt lat="43.10766206122934818267822265625" lon="12.9752989299595355987548828125">
        <ele>908.20001220703125</ele>
        <time>2021-05-09T08:38:50.000Z</time>
        <extensions>
          <ns3:TrackPointExtension>
            <ns3:atemp>25.0</ns3:atemp>
          </ns3:TrackPointExtension>
        </extensions>
      </trkpt>
      <trkpt lat="43.10754303820431232452392578125" lon="12.9754699207842350006103515625">
        <ele>908.5999755859375</ele>
        <time>2021-05-09T08:38:54.000Z</time>
        <extensions>
          <ns3:TrackPointExtension>
            <ns3:atemp>25.0</ns3:atemp>
          </ns3:TrackPointExtension>
        </extensions>
      </trkpt>
      <trkpt lat="43.10747179202735424041748046875" lon="12.97554292716085910797119140625">
        <ele>908.79998779296875</ele>
        <time>2021-05-09T08:38:56.000Z</time>
        <extensions>
          <ns3:TrackPointExtension>
            <ns3:atemp>25.0</ns3:atemp>
          </ns3:TrackPointExtension>
        </extensions>
      </trkpt>
      <trkpt lat="43.10724849812686443328857421875" lon="12.97573302872478961944580078125">
        <ele>909.4000244140625</ele>
        <time>2021-05-09T08:39:02.000Z</time>
        <extensions>
          <ns3:TrackPointExtension>
            <ns3:atemp>25.0</ns3:atemp>
          </ns3:TrackPointExtension>
        </extensions>
      </trkpt>
      <trkpt lat="43.10703928582370281219482421875" lon="12.9758980683982372283935546875">
        <ele>909.79998779296875</ele>
        <time>2021-05-09T08:39:08.000Z</time>
        <extensions>
          <ns3:TrackPointExtension>
            <ns3:atemp>24.0</ns3:atemp>
          </ns3:TrackPointExtension>
        </extensions>
      </trkpt>
      <trkpt lat="43.106970973312854766845703125" lon="12.9759550653398036956787109375">
        <ele>910</ele>
        <time>2021-05-09T08:39:10.000Z</time>
        <extensions>
          <ns3:TrackPointExtension>
            <ns3:atemp>24.0</ns3:atemp>
          </ns3:TrackPointExtension>
        </extensions>
      </trkpt>
      <trkpt lat="43.10664349235594272613525390625" lon="12.97623158432543277740478515625">
        <ele>911</ele>
        <time>2021-05-09T08:39:19.000Z</time>
        <extensions>
          <ns3:TrackPointExtension>
            <ns3:atemp>24.0</ns3:atemp>
          </ns3:TrackPointExtension>
        </extensions>
      </trkpt>
      <trkpt lat="43.10660652816295623779296875" lon="12.97626578249037265777587890625">
        <ele>911</ele>
        <time>2021-05-09T08:39:20.000Z</time>
        <extensions>
          <ns3:TrackPointExtension>
            <ns3:atemp>24.0</ns3:atemp>
          </ns3:TrackPointExtension>
        </extensions>
      </trkpt>
      <trkpt lat="43.10635440051555633544921875" lon="12.976468540728092193603515625">
        <ele>911.79998779296875</ele>
        <time>2021-05-09T08:39:27.000Z</time>
        <extensions>
          <ns3:TrackPointExtension>
            <ns3:atemp>24.0</ns3:atemp>
          </ns3:TrackPointExtension>
        </extensions>
      </trkpt>
      <trkpt lat="43.10624300502240657806396484375" lon="12.9765414632856845855712890625">
        <ele>912</ele>
        <time>2021-05-09T08:39:30.000Z</time>
        <extensions>
          <ns3:TrackPointExtension>
            <ns3:atemp>24.0</ns3:atemp>
          </ns3:TrackPointExtension>
        </extensions>
      </trkpt>
      <trkpt lat="43.10620344243943691253662109375" lon="12.9765634238719940185546875">
        <ele>912</ele>
        <time>2021-05-09T08:39:31.000Z</time>
        <extensions>
          <ns3:TrackPointExtension>
            <ns3:atemp>24.0</ns3:atemp>
          </ns3:TrackPointExtension>
        </extensions>
      </trkpt>
      <trkpt lat="43.1060789711773395538330078125" lon="12.976606674492359161376953125">
        <ele>912.4000244140625</ele>
        <time>2021-05-09T08:39:34.000Z</time>
        <extensions>
          <ns3:TrackPointExtension>
            <ns3:atemp>24.0</ns3:atemp>
          </ns3:TrackPointExtension>
        </extensions>
      </trkpt>
      <trkpt lat="43.1060370616614818572998046875" lon="12.976612709462642669677734375">
        <ele>912.4000244140625</ele>
        <time>2021-05-09T08:39:35.000Z</time>
        <extensions>
          <ns3:TrackPointExtension>
            <ns3:atemp>24.0</ns3:atemp>
          </ns3:TrackPointExtension>
        </extensions>
      </trkpt>
      <trkpt lat="43.1059123389422893524169921875" lon="12.9766232706606388092041015625">
        <ele>912.79998779296875</ele>
        <time>2021-05-09T08:39:38.000Z</time>
        <extensions>
          <ns3:TrackPointExtension>
            <ns3:atemp>24.0</ns3:atemp>
          </ns3:TrackPointExtension>
        </extensions>
      </trkpt>
      <trkpt lat="43.10583011247217655181884765625" lon="12.9766197502613067626953125">
        <ele>913.20001220703125</ele>
        <time>2021-05-09T08:39:40.000Z</time>
        <extensions>
          <ns3:TrackPointExtension>
            <ns3:atemp>24.0</ns3:atemp>
          </ns3:TrackPointExtension>
        </extensions>
      </trkpt>
      <trkpt lat="43.10575115494430065155029296875" lon="12.9766148887574672698974609375">
        <ele>913.4000244140625</ele>
        <time>2021-05-09T08:39:42.000Z</time>
        <extensions>
          <ns3:TrackPointExtension>
            <ns3:atemp>24.0</ns3:atemp>
          </ns3:TrackPointExtension>
        </extensions>
      </trkpt>
      <trkpt lat="43.10551260598003864288330078125" lon="12.97659619711339473724365234375">
        <ele>914.20001220703125</ele>
        <time>2021-05-09T08:39:48.000Z</time>
        <extensions>
          <ns3:TrackPointExtension>
            <ns3:atemp>24.0</ns3:atemp>
          </ns3:TrackPointExtension>
        </extensions>
      </trkpt>
      <trkpt lat="43.10543306171894073486328125" lon="12.9765887372195720672607421875">
        <ele>914.5999755859375</ele>
        <time>2021-05-09T08:39:50.000Z</time>
        <extensions>
          <ns3:TrackPointExtension>
            <ns3:atemp>24.0</ns3:atemp>
          </ns3:TrackPointExtension>
        </extensions>
      </trkpt>
      <trkpt lat="43.1052790023386478424072265625" lon="12.9765863902866840362548828125">
        <ele>915.4000244140625</ele>
        <time>2021-05-09T08:39:54.000Z</time>
        <extensions>
          <ns3:TrackPointExtension>
            <ns3:atemp>23.0</ns3:atemp>
          </ns3:TrackPointExtension>
        </extensions>
      </trkpt>
      <trkpt lat="43.10505311004817485809326171875" lon="12.976624108850955963134765625">
        <ele>916.20001220703125</ele>
        <time>2021-05-09T08:40:00.000Z</time>
        <extensions>
          <ns3:TrackPointExtension>
            <ns3:atemp>23.0</ns3:atemp>
          </ns3:TrackPointExtension>
        </extensions>
      </trkpt>
      <trkpt lat="43.10501723550260066986083984375" lon="12.976637184619903564453125">
        <ele>916.4000244140625</ele>
        <time>2021-05-09T08:40:01.000Z</time>
        <extensions>
          <ns3:TrackPointExtension>
            <ns3:atemp>23.0</ns3:atemp>
          </ns3:TrackPointExtension>
        </extensions>
      </trkpt>
      <trkpt lat="43.10478170402348041534423828125" lon="12.97673081047832965850830078125">
        <ele>917.4000244140625</ele>
        <time>2021-05-09T08:40:08.000Z</time>
        <extensions>
          <ns3:TrackPointExtension>
            <ns3:atemp>23.0</ns3:atemp>
          </ns3:TrackPointExtension>
        </extensions>
      </trkpt>
      <trkpt lat="43.10475287027657032012939453125" lon="12.97674036584794521331787109375">
        <ele>917.5999755859375</ele>
        <time>2021-05-09T08:40:09.000Z</time>
        <extensions>
          <ns3:TrackPointExtension>
            <ns3:atemp>23.0</ns3:atemp>
          </ns3:TrackPointExtension>
        </extensions>
      </trkpt>
      <trkpt lat="43.1045812927186489105224609375" lon="12.97680079936981201171875">
        <ele>918.20001220703125</ele>
        <time>2021-05-09T08:40:15.000Z</time>
        <extensions>
          <ns3:TrackPointExtension>
            <ns3:atemp>23.0</ns3:atemp>
          </ns3:TrackPointExtension>
        </extensions>
      </trkpt>
      <trkpt lat="43.1045185960829257965087890625" lon="12.97682317905128002166748046875">
        <ele>918.5999755859375</ele>
        <time>2021-05-09T08:40:17.000Z</time>
        <extensions>
          <ns3:TrackPointExtension>
            <ns3:atemp>23.0</ns3:atemp>
          </ns3:TrackPointExtension>
        </extensions>
      </trkpt>
      <trkpt lat="43.1044243834912776947021484375" lon="12.97685905359685420989990234375">
        <ele>919</ele>
        <time>2021-05-09T08:40:20.000Z</time>
        <extensions>
          <ns3:TrackPointExtension>
            <ns3:atemp>23.0</ns3:atemp>
          </ns3:TrackPointExtension>
        </extensions>
      </trkpt>
      <trkpt lat="43.10430209152400493621826171875" lon="12.9769055731594562530517578125">
        <ele>919.20001220703125</ele>
        <time>2021-05-09T08:40:24.000Z</time>
        <extensions>
          <ns3:TrackPointExtension>
            <ns3:atemp>23.0</ns3:atemp>
          </ns3:TrackPointExtension>
        </extensions>
      </trkpt>
      <trkpt lat="43.1041435897350311279296875" lon="12.97695863060653209686279296875">
        <ele>920</ele>
        <time>2021-05-09T08:40:29.000Z</time>
        <extensions>
          <ns3:TrackPointExtension>
            <ns3:atemp>23.0</ns3:atemp>
          </ns3:TrackPointExtension>
        </extensions>
      </trkpt>
      <trkpt lat="43.1040230579674243927001953125" lon="12.97699785791337490081787109375">
        <ele>920.4000244140625</ele>
        <time>2021-05-09T08:40:33.000Z</time>
        <extensions>
          <ns3:TrackPointExtension>
            <ns3:atemp>23.0</ns3:atemp>
          </ns3:TrackPointExtension>
        </extensions>
      </trkpt>
      <trkpt lat="43.10387729667127132415771484375" lon="12.9770408570766448974609375">
        <ele>921</ele>
        <time>2021-05-09T08:40:38.000Z</time>
        <extensions>
          <ns3:TrackPointExtension>
            <ns3:atemp>22.0</ns3:atemp>
          </ns3:TrackPointExtension>
        </extensions>
      </trkpt>
      <trkpt lat="43.10375240631401538848876953125" lon="12.9770805872976779937744140625">
        <ele>921.5999755859375</ele>
        <time>2021-05-09T08:40:42.000Z</time>
        <extensions>
          <ns3:TrackPointExtension>
            <ns3:atemp>22.0</ns3:atemp>
          </ns3:TrackPointExtension>
        </extensions>
      </trkpt>
      <trkpt lat="43.10369356535375118255615234375" lon="12.97709894366562366485595703125">
        <ele>922</ele>
        <time>2021-05-09T08:40:44.000Z</time>
        <extensions>
          <ns3:TrackPointExtension>
            <ns3:atemp>22.0</ns3:atemp>
          </ns3:TrackPointExtension>
        </extensions>
      </trkpt>
      <trkpt lat="43.1034943275153636932373046875" lon="12.97716700471937656402587890625">
        <ele>922.79998779296875</ele>
        <time>2021-05-09T08:40:51.000Z</time>
        <extensions>
          <ns3:TrackPointExtension>
            <ns3:atemp>22.0</ns3:atemp>
          </ns3:TrackPointExtension>
        </extensions>
      </trkpt>
      <trkpt lat="43.10343741439282894134521484375" lon="12.97719080932438373565673828125">
        <ele>923</ele>
        <time>2021-05-09T08:40:53.000Z</time>
        <extensions>
          <ns3:TrackPointExtension>
            <ns3:atemp>22.0</ns3:atemp>
          </ns3:TrackPointExtension>
        </extensions>
      </trkpt>
      <trkpt lat="43.1032475642859935760498046875" lon="12.9772696830332279205322265625">
        <ele>923.4000244140625</ele>
        <time>2021-05-09T08:40:59.000Z</time>
        <extensions>
          <ns3:TrackPointExtension>
            <ns3:atemp>22.0</ns3:atemp>
          </ns3:TrackPointExtension>
        </extensions>
      </trkpt>
      <trkpt lat="43.10302653349936008453369140625" lon="12.97735459171235561370849609375">
        <ele>923.5999755859375</ele>
        <time>2021-05-09T08:41:06.000Z</time>
        <extensions>
          <ns3:TrackPointExtension>
            <ns3:atemp>22.0</ns3:atemp>
          </ns3:TrackPointExtension>
        </extensions>
      </trkpt>
      <trkpt lat="43.10296450741589069366455078125" lon="12.977377474308013916015625">
        <ele>924.4000244140625</ele>
        <time>2021-05-09T08:41:08.000Z</time>
        <extensions>
          <ns3:TrackPointExtension>
            <ns3:atemp>22.0</ns3:atemp>
          </ns3:TrackPointExtension>
        </extensions>
      </trkpt>
      <trkpt lat="43.10274951159954071044921875" lon="12.97746003605425357818603515625">
        <ele>925</ele>
        <time>2021-05-09T08:41:15.000Z</time>
        <extensions>
          <ns3:TrackPointExtension>
            <ns3:atemp>22.0</ns3:atemp>
          </ns3:TrackPointExtension>
        </extensions>
      </trkpt>
      <trkpt lat="43.10272059403359889984130859375" lon="12.97747042961418628692626953125">
        <ele>925.4000244140625</ele>
        <time>2021-05-09T08:41:16.000Z</time>
        <extensions>
          <ns3:TrackPointExtension>
            <ns3:atemp>22.0</ns3:atemp>
          </ns3:TrackPointExtension>
        </extensions>
      </trkpt>
      <trkpt lat="43.10242488048970699310302734375" lon="12.97757662832736968994140625">
        <ele>926.20001220703125</ele>
        <time>2021-05-09T08:41:26.000Z</time>
        <extensions>
          <ns3:TrackPointExtension>
            <ns3:atemp>22.0</ns3:atemp>
          </ns3:TrackPointExtension>
        </extensions>
      </trkpt>
      <trkpt lat="43.10218817554414272308349609375" lon="12.9776606149971485137939453125">
        <ele>927.4000244140625</ele>
        <time>2021-05-09T08:41:34.000Z</time>
        <extensions>
          <ns3:TrackPointExtension>
            <ns3:atemp>22.0</ns3:atemp>
          </ns3:TrackPointExtension>
        </extensions>
      </trkpt>
      <trkpt lat="43.1018950603902339935302734375" lon="12.97776815481483936309814453125">
        <ele>928.20001220703125</ele>
        <time>2021-05-09T08:41:44.000Z</time>
        <extensions>
          <ns3:TrackPointExtension>
            <ns3:atemp>22.0</ns3:atemp>
          </ns3:TrackPointExtension>
        </extensions>
      </trkpt>
      <trkpt lat="43.10175038874149322509765625" lon="12.97782003879547119140625">
        <ele>928.4000244140625</ele>
        <time>2021-05-09T08:41:49.000Z</time>
        <extensions>
          <ns3:TrackPointExtension>
            <ns3:atemp>22.0</ns3:atemp>
          </ns3:TrackPointExtension>
        </extensions>
      </trkpt>
      <trkpt lat="43.10166179202497005462646484375" lon="12.977849543094635009765625">
        <ele>929</ele>
        <time>2021-05-09T08:41:52.000Z</time>
        <extensions>
          <ns3:TrackPointExtension>
            <ns3:atemp>22.0</ns3:atemp>
          </ns3:TrackPointExtension>
        </extensions>
      </trkpt>
      <trkpt lat="43.10157814063131809234619140625" lon="12.97788416035473346710205078125">
        <ele>929.79998779296875</ele>
        <time>2021-05-09T08:41:55.000Z</time>
        <extensions>
          <ns3:TrackPointExtension>
            <ns3:atemp>22.0</ns3:atemp>
          </ns3:TrackPointExtension>
        </extensions>
      </trkpt>
      <trkpt lat="43.10149499215185642242431640625" lon="12.97791483812034130096435546875">
        <ele>930.4000244140625</ele>
        <time>2021-05-09T08:41:58.000Z</time>
        <extensions>
          <ns3:TrackPointExtension>
            <ns3:atemp>22.0</ns3:atemp>
          </ns3:TrackPointExtension>
        </extensions>
      </trkpt>
      <trkpt lat="43.10143648646771907806396484375" lon="12.97793830744922161102294921875">
        <ele>931</ele>
        <time>2021-05-09T08:42:00.000Z</time>
        <extensions>
          <ns3:TrackPointExtension>
            <ns3:atemp>22.0</ns3:atemp>
          </ns3:TrackPointExtension>
        </extensions>
      </trkpt>
      <trkpt lat="43.101377896964550018310546875" lon="12.977962531149387359619140625">
        <ele>931.20001220703125</ele>
        <time>2021-05-09T08:42:02.000Z</time>
        <extensions>
          <ns3:TrackPointExtension>
            <ns3:atemp>22.0</ns3:atemp>
          </ns3:TrackPointExtension>
        </extensions>
      </trkpt>
      <trkpt lat="43.1012627296149730682373046875" lon="12.97800687141716480255126953125">
        <ele>932</ele>
        <time>2021-05-09T08:42:06.000Z</time>
        <extensions>
          <ns3:TrackPointExtension>
            <ns3:atemp>22.0</ns3:atemp>
          </ns3:TrackPointExtension>
        </extensions>
      </trkpt>
      <trkpt lat="43.1011207401752471923828125" lon="12.9780589230358600616455078125">
        <ele>932.5999755859375</ele>
        <time>2021-05-09T08:42:11.000Z</time>
        <extensions>
          <ns3:TrackPointExtension>
            <ns3:atemp>22.0</ns3:atemp>
          </ns3:TrackPointExtension>
        </extensions>
      </trkpt>
      <trkpt lat="43.1009767390787601470947265625" lon="12.97811248339712619781494140625">
        <ele>933.20001220703125</ele>
        <time>2021-05-09T08:42:16.000Z</time>
        <extensions>
          <ns3:TrackPointExtension>
            <ns3:atemp>22.0</ns3:atemp>
          </ns3:TrackPointExtension>
        </extensions>
      </trkpt>
      <trkpt lat="43.1009209156036376953125" lon="12.97813125886023044586181640625">
        <ele>933.5999755859375</ele>
        <time>2021-05-09T08:42:18.000Z</time>
        <extensions>
          <ns3:TrackPointExtension>
            <ns3:atemp>22.0</ns3:atemp>
          </ns3:TrackPointExtension>
        </extensions>
      </trkpt>
      <trkpt lat="43.10078269802033901214599609375" lon="12.97818238846957683563232421875">
        <ele>934.20001220703125</ele>
        <time>2021-05-09T08:42:23.000Z</time>
        <extensions>
          <ns3:TrackPointExtension>
            <ns3:atemp>22.0</ns3:atemp>
          </ns3:TrackPointExtension>
        </extensions>
      </trkpt>
      <trkpt lat="43.1007038243114948272705078125" lon="12.97821021638810634613037109375">
        <ele>934.79998779296875</ele>
        <time>2021-05-09T08:42:26.000Z</time>
        <extensions>
          <ns3:TrackPointExtension>
            <ns3:atemp>22.0</ns3:atemp>
          </ns3:TrackPointExtension>
        </extensions>
      </trkpt>
      <trkpt lat="43.10062042437493801116943359375" lon="12.97822882421314716339111328125">
        <ele>935.4000244140625</ele>
        <time>2021-05-09T08:42:29.000Z</time>
        <extensions>
          <ns3:TrackPointExtension>
            <ns3:atemp>22.0</ns3:atemp>
          </ns3:TrackPointExtension>
        </extensions>
      </trkpt>
      <trkpt lat="43.10052059590816497802734375" lon="12.97828204929828643798828125">
        <ele>936.20001220703125</ele>
        <time>2021-05-09T08:42:33.000Z</time>
        <extensions>
          <ns3:TrackPointExtension>
            <ns3:atemp>21.0</ns3:atemp>
          </ns3:TrackPointExtension>
        </extensions>
      </trkpt>
      <trkpt lat="43.10048438608646392822265625" lon="12.9783355258405208587646484375">
        <ele>936.5999755859375</ele>
        <time>2021-05-09T08:42:35.000Z</time>
        <extensions>
          <ns3:TrackPointExtension>
            <ns3:atemp>21.0</ns3:atemp>
          </ns3:TrackPointExtension>
        </extensions>
      </trkpt>
      <trkpt lat="43.10046033002436161041259765625" lon="12.97843493521213531494140625">
        <ele>937</ele>
        <time>2021-05-09T08:42:38.000Z</time>
        <extensions>
          <ns3:TrackPointExtension>
            <ns3:atemp>21.0</ns3:atemp>
          </ns3:TrackPointExtension>
        </extensions>
      </trkpt>
      <trkpt lat="43.1004392914474010467529296875" lon="12.9785806126892566680908203125">
        <ele>937.5999755859375</ele>
        <time>2021-05-09T08:42:42.000Z</time>
        <extensions>
          <ns3:TrackPointExtension>
            <ns3:atemp>21.0</ns3:atemp>
          </ns3:TrackPointExtension>
        </extensions>
      </trkpt>
      <trkpt lat="43.10040165670216083526611328125" lon="12.97866837121546268463134765625">
        <ele>938.20001220703125</ele>
        <time>2021-05-09T08:42:45.000Z</time>
        <extensions>
          <ns3:TrackPointExtension>
            <ns3:atemp>21.0</ns3:atemp>
          </ns3:TrackPointExtension>
        </extensions>
      </trkpt>
      <trkpt lat="43.10034834779798984527587890625" lon="12.97872419469058513641357421875">
        <ele>938.79998779296875</ele>
        <time>2021-05-09T08:42:48.000Z</time>
        <extensions>
          <ns3:TrackPointExtension>
            <ns3:atemp>21.0</ns3:atemp>
          </ns3:TrackPointExtension>
        </extensions>
      </trkpt>
      <trkpt lat="43.100259415805339813232421875" lon="12.978754453361034393310546875">
        <ele>939.79998779296875</ele>
        <time>2021-05-09T08:42:52.000Z</time>
        <extensions>
          <ns3:TrackPointExtension>
            <ns3:atemp>21.0</ns3:atemp>
          </ns3:TrackPointExtension>
        </extensions>
      </trkpt>
      <trkpt lat="43.10023636557161808013916015625" lon="12.97875839285552501678466796875">
        <ele>940</ele>
        <time>2021-05-09T08:42:53.000Z</time>
        <extensions>
          <ns3:TrackPointExtension>
            <ns3:atemp>21.0</ns3:atemp>
          </ns3:TrackPointExtension>
        </extensions>
      </trkpt>
      <trkpt lat="43.1001687236130237579345703125" lon="12.97876107506453990936279296875">
        <ele>941.20001220703125</ele>
        <time>2021-05-09T08:42:56.000Z</time>
        <extensions>
          <ns3:TrackPointExtension>
            <ns3:atemp>21.0</ns3:atemp>
          </ns3:TrackPointExtension>
        </extensions>
      </trkpt>
      <trkpt lat="43.10012253932654857635498046875" lon="12.97874615527689456939697265625">
        <ele>942.4000244140625</ele>
        <time>2021-05-09T08:42:58.000Z</time>
        <extensions>
          <ns3:TrackPointExtension>
            <ns3:atemp>21.0</ns3:atemp>
          </ns3:TrackPointExtension>
        </extensions>
      </trkpt>
      <trkpt lat="43.1000996567308902740478515625" lon="12.97873123548924922943115234375">
        <ele>942.79998779296875</ele>
        <time>2021-05-09T08:42:59.000Z</time>
        <extensions>
          <ns3:TrackPointExtension>
            <ns3:atemp>21.0</ns3:atemp>
          </ns3:TrackPointExtension>
        </extensions>
      </trkpt>
      <trkpt lat="43.1000520475208759307861328125" lon="12.9786904156208038330078125">
        <ele>943.5999755859375</ele>
        <time>2021-05-09T08:43:01.000Z</time>
        <extensions>
          <ns3:TrackPointExtension>
            <ns3:atemp>21.0</ns3:atemp>
          </ns3:TrackPointExtension>
        </extensions>
      </trkpt>
      <trkpt lat="43.099973760545253753662109375" lon="12.9786084406077861785888671875">
        <ele>944.79998779296875</ele>
        <time>2021-05-09T08:43:04.000Z</time>
        <extensions>
          <ns3:TrackPointExtension>
            <ns3:atemp>21.0</ns3:atemp>
          </ns3:TrackPointExtension>
        </extensions>
      </trkpt>
      <trkpt lat="43.09994517825543880462646484375" lon="12.9785858094692230224609375">
        <ele>945</ele>
        <time>2021-05-09T08:43:05.000Z</time>
        <extensions>
          <ns3:TrackPointExtension>
            <ns3:atemp>21.0</ns3:atemp>
          </ns3:TrackPointExtension>
        </extensions>
      </trkpt>
      <trkpt lat="43.0998284183442592620849609375" lon="12.97851665876805782318115234375">
        <ele>945.5999755859375</ele>
        <time>2021-05-09T08:43:10.000Z</time>
        <extensions>
          <ns3:TrackPointExtension>
            <ns3:atemp>21.0</ns3:atemp>
          </ns3:TrackPointExtension>
        </extensions>
      </trkpt>
      <trkpt lat="43.09979296289384365081787109375" lon="12.97848497517406940460205078125">
        <ele>946</ele>
        <time>2021-05-09T08:43:12.000Z</time>
        <extensions>
          <ns3:TrackPointExtension>
            <ns3:atemp>21.0</ns3:atemp>
          </ns3:TrackPointExtension>
        </extensions>
      </trkpt>
      <trkpt lat="43.0997331999242305755615234375" lon="12.97843585722148418426513671875">
        <ele>947</ele>
        <time>2021-05-09T08:43:15.000Z</time>
        <extensions>
          <ns3:TrackPointExtension>
            <ns3:atemp>21.0</ns3:atemp>
          </ns3:TrackPointExtension>
        </extensions>
      </trkpt>
      <trkpt lat="43.0996869318187236785888671875" lon="12.97841004095971584320068359375">
        <ele>948</ele>
        <time>2021-05-09T08:43:17.000Z</time>
        <extensions>
          <ns3:TrackPointExtension>
            <ns3:atemp>21.0</ns3:atemp>
          </ns3:TrackPointExtension>
        </extensions>
      </trkpt>
      <trkpt lat="43.09966119937598705291748046875" lon="12.9784045927226543426513671875">
        <ele>948.4000244140625</ele>
        <time>2021-05-09T08:43:18.000Z</time>
        <extensions>
          <ns3:TrackPointExtension>
            <ns3:atemp>21.0</ns3:atemp>
          </ns3:TrackPointExtension>
        </extensions>
      </trkpt>
      <trkpt lat="43.09963504783809185028076171875" lon="12.97840199433267116546630859375">
        <ele>949</ele>
        <time>2021-05-09T08:43:19.000Z</time>
        <extensions>
          <ns3:TrackPointExtension>
            <ns3:atemp>21.0</ns3:atemp>
          </ns3:TrackPointExtension>
        </extensions>
      </trkpt>
      <trkpt lat="43.0996101535856723785400390625" lon="12.9784015752375125885009765625">
        <ele>949.4000244140625</ele>
        <time>2021-05-09T08:43:20.000Z</time>
        <extensions>
          <ns3:TrackPointExtension>
            <ns3:atemp>21.0</ns3:atemp>
          </ns3:TrackPointExtension>
        </extensions>
      </trkpt>
      <trkpt lat="43.0995340459048748016357421875" lon="12.9784112982451915740966796875">
        <ele>950.5999755859375</ele>
        <time>2021-05-09T08:43:23.000Z</time>
        <extensions>
          <ns3:TrackPointExtension>
            <ns3:atemp>21.0</ns3:atemp>
          </ns3:TrackPointExtension>
        </extensions>
      </trkpt>
      <trkpt lat="43.09946070425212383270263671875" lon="12.97842781059443950653076171875">
        <ele>951.4000244140625</ele>
        <time>2021-05-09T08:43:26.000Z</time>
        <extensions>
          <ns3:TrackPointExtension>
            <ns3:atemp>21.0</ns3:atemp>
          </ns3:TrackPointExtension>
        </extensions>
      </trkpt>
      <trkpt lat="43.099437318742275238037109375" lon="12.9784357734024524688720703125">
        <ele>952</ele>
        <time>2021-05-09T08:43:27.000Z</time>
        <extensions>
          <ns3:TrackPointExtension>
            <ns3:atemp>21.0</ns3:atemp>
          </ns3:TrackPointExtension>
        </extensions>
      </trkpt>
      <trkpt lat="43.09932298958301544189453125" lon="12.97846083529293537139892578125">
        <ele>952.5999755859375</ele>
        <time>2021-05-09T08:43:32.000Z</time>
        <extensions>
          <ns3:TrackPointExtension>
            <ns3:atemp>21.0</ns3:atemp>
          </ns3:TrackPointExtension>
        </extensions>
      </trkpt>
      <trkpt lat="43.0992762185633182525634765625" lon="12.97847307287156581878662109375">
        <ele>953</ele>
        <time>2021-05-09T08:43:34.000Z</time>
        <extensions>
          <ns3:TrackPointExtension>
            <ns3:atemp>21.0</ns3:atemp>
          </ns3:TrackPointExtension>
        </extensions>
      </trkpt>
      <trkpt lat="43.0991613864898681640625" lon="12.97852302901446819305419921875">
        <ele>954.20001220703125</ele>
        <time>2021-05-09T08:43:39.000Z</time>
        <extensions>
          <ns3:TrackPointExtension>
            <ns3:atemp>21.0</ns3:atemp>
          </ns3:TrackPointExtension>
        </extensions>
      </trkpt>
      <trkpt lat="43.0991193093359470367431640625" lon="12.9785455763339996337890625">
        <ele>954.79998779296875</ele>
        <time>2021-05-09T08:43:41.000Z</time>
        <extensions>
          <ns3:TrackPointExtension>
            <ns3:atemp>21.0</ns3:atemp>
          </ns3:TrackPointExtension>
        </extensions>
      </trkpt>
      <trkpt lat="43.0990616418421268463134765625" lon="12.9785916768014430999755859375">
        <ele>955.4000244140625</ele>
        <time>2021-05-09T08:43:44.000Z</time>
        <extensions>
          <ns3:TrackPointExtension>
            <ns3:atemp>21.0</ns3:atemp>
          </ns3:TrackPointExtension>
        </extensions>
      </trkpt>
      <trkpt lat="43.09898260049521923065185546875" lon="12.9786459915339946746826171875">
        <ele>956</ele>
        <time>2021-05-09T08:43:48.000Z</time>
        <extensions>
          <ns3:TrackPointExtension>
            <ns3:atemp>21.0</ns3:atemp>
          </ns3:TrackPointExtension>
        </extensions>
      </trkpt>
      <trkpt lat="43.09896566905081272125244140625" lon="12.97865831293165683746337890625">
        <ele>956.4000244140625</ele>
        <time>2021-05-09T08:43:49.000Z</time>
        <extensions>
          <ns3:TrackPointExtension>
            <ns3:atemp>21.0</ns3:atemp>
          </ns3:TrackPointExtension>
        </extensions>
      </trkpt>
      <trkpt lat="43.09886408038437366485595703125" lon="12.97871296294033527374267578125">
        <ele>957.4000244140625</ele>
        <time>2021-05-09T08:43:54.000Z</time>
        <extensions>
          <ns3:TrackPointExtension>
            <ns3:atemp>21.0</ns3:atemp>
          </ns3:TrackPointExtension>
        </extensions>
      </trkpt>
      <trkpt lat="43.09884077869355678558349609375" lon="12.97872486524283885955810546875">
        <ele>957.5999755859375</ele>
        <time>2021-05-09T08:43:55.000Z</time>
        <extensions>
          <ns3:TrackPointExtension>
            <ns3:atemp>21.0</ns3:atemp>
          </ns3:TrackPointExtension>
        </extensions>
      </trkpt>
      <trkpt lat="43.09869845397770404815673828125" lon="12.978793680667877197265625">
        <ele>958.5999755859375</ele>
        <time>2021-05-09T08:44:01.000Z</time>
        <extensions>
          <ns3:TrackPointExtension>
            <ns3:atemp>21.0</ns3:atemp>
          </ns3:TrackPointExtension>
        </extensions>
      </trkpt>
      <trkpt lat="43.0986247770488262176513671875" lon="12.9788267053663730621337890625">
        <ele>958.79998779296875</ele>
        <time>2021-05-09T08:44:04.000Z</time>
        <extensions>
          <ns3:TrackPointExtension>
            <ns3:atemp>21.0</ns3:atemp>
          </ns3:TrackPointExtension>
        </extensions>
      </trkpt>
      <trkpt lat="43.09841648675501346588134765625" lon="12.9789071716368198394775390625">
        <ele>959.5999755859375</ele>
        <time>2021-05-09T08:44:13.000Z</time>
        <extensions>
          <ns3:TrackPointExtension>
            <ns3:atemp>20.0</ns3:atemp>
          </ns3:TrackPointExtension>
        </extensions>
      </trkpt>
      <trkpt lat="43.0982351861894130706787109375" lon="12.97896198928356170654296875">
        <ele>960.79998779296875</ele>
        <time>2021-05-09T08:44:21.000Z</time>
        <extensions>
          <ns3:TrackPointExtension>
            <ns3:atemp>20.0</ns3:atemp>
          </ns3:TrackPointExtension>
        </extensions>
      </trkpt>
      <trkpt lat="43.09809160418808460235595703125" lon="12.9790007136762142181396484375">
        <ele>961.79998779296875</ele>
        <time>2021-05-09T08:44:27.000Z</time>
        <extensions>
          <ns3:TrackPointExtension>
            <ns3:atemp>20.0</ns3:atemp>
          </ns3:TrackPointExtension>
        </extensions>
      </trkpt>
      <trkpt lat="43.098022453486919403076171875" lon="12.97901504673063755035400390625">
        <ele>962.20001220703125</ele>
        <time>2021-05-09T08:44:30.000Z</time>
        <extensions>
          <ns3:TrackPointExtension>
            <ns3:atemp>20.0</ns3:atemp>
          </ns3:TrackPointExtension>
        </extensions>
      </trkpt>
      <trkpt lat="43.09795564971864223480224609375" lon="12.97903038561344146728515625">
        <ele>962.79998779296875</ele>
        <time>2021-05-09T08:44:33.000Z</time>
        <extensions>
          <ns3:TrackPointExtension>
            <ns3:atemp>20.0</ns3:atemp>
          </ns3:TrackPointExtension>
        </extensions>
      </trkpt>
      <trkpt lat="43.0977942980825901031494140625" lon="12.97906600870192050933837890625">
        <ele>963.79998779296875</ele>
        <time>2021-05-09T08:44:40.000Z</time>
        <extensions>
          <ns3:TrackPointExtension>
            <ns3:atemp>20.0</ns3:atemp>
          </ns3:TrackPointExtension>
        </extensions>
      </trkpt>
      <trkpt lat="43.097771666944026947021484375" lon="12.97907221131026744842529296875">
        <ele>963.79998779296875</ele>
        <time>2021-05-09T08:44:41.000Z</time>
        <extensions>
          <ns3:TrackPointExtension>
            <ns3:atemp>20.0</ns3:atemp>
          </ns3:TrackPointExtension>
        </extensions>
      </trkpt>
      <trkpt lat="43.097620122134685516357421875" lon="12.97911495901644229888916015625">
        <ele>964.5999755859375</ele>
        <time>2021-05-09T08:44:48.000Z</time>
        <extensions>
          <ns3:TrackPointExtension>
            <ns3:atemp>20.0</ns3:atemp>
          </ns3:TrackPointExtension>
        </extensions>
      </trkpt>
      <trkpt lat="43.09759690426290035247802734375" lon="12.979121915996074676513671875">
        <ele>964.79998779296875</ele>
        <time>2021-05-09T08:44:49.000Z</time>
        <extensions>
          <ns3:TrackPointExtension>
            <ns3:atemp>20.0</ns3:atemp>
          </ns3:TrackPointExtension>
        </extensions>
      </trkpt>
      <trkpt lat="43.09745944105088710784912109375" lon="12.97916508279740810394287109375">
        <ele>966</ele>
        <time>2021-05-09T08:44:55.000Z</time>
        <extensions>
          <ns3:TrackPointExtension>
            <ns3:atemp>20.0</ns3:atemp>
          </ns3:TrackPointExtension>
        </extensions>
      </trkpt>
      <trkpt lat="43.09734997339546680450439453125" lon="12.9791995324194431304931640625">
        <ele>966.79998779296875</ele>
        <time>2021-05-09T08:45:00.000Z</time>
        <extensions>
          <ns3:TrackPointExtension>
            <ns3:atemp>20.0</ns3:atemp>
          </ns3:TrackPointExtension>
        </extensions>
      </trkpt>
      <trkpt lat="43.097328431904315948486328125" lon="12.9792062379419803619384765625">
        <ele>967.20001220703125</ele>
        <time>2021-05-09T08:45:01.000Z</time>
        <extensions>
          <ns3:TrackPointExtension>
            <ns3:atemp>20.0</ns3:atemp>
          </ns3:TrackPointExtension>
        </extensions>
      </trkpt>
      <trkpt lat="43.09728543274104595184326171875" lon="12.97921922989189624786376953125">
        <ele>967.5999755859375</ele>
        <time>2021-05-09T08:45:03.000Z</time>
        <extensions>
          <ns3:TrackPointExtension>
            <ns3:atemp>20.0</ns3:atemp>
          </ns3:TrackPointExtension>
        </extensions>
      </trkpt>
      <trkpt lat="43.097217790782451629638671875" lon="12.97923423349857330322265625">
        <ele>968.20001220703125</ele>
        <time>2021-05-09T08:45:06.000Z</time>
        <extensions>
          <ns3:TrackPointExtension>
            <ns3:atemp>20.0</ns3:atemp>
          </ns3:TrackPointExtension>
        </extensions>
      </trkpt>
      <trkpt lat="43.09717311523854732513427734375" lon="12.9792441241443157196044921875">
        <ele>968.4000244140625</ele>
        <time>2021-05-09T08:45:08.000Z</time>
        <extensions>
          <ns3:TrackPointExtension>
            <ns3:atemp>20.0</ns3:atemp>
          </ns3:TrackPointExtension>
        </extensions>
      </trkpt>
      <trkpt lat="43.09705493040382862091064453125" lon="12.9792602173984050750732421875">
        <ele>969.20001220703125</ele>
        <time>2021-05-09T08:45:13.000Z</time>
        <extensions>
          <ns3:TrackPointExtension>
            <ns3:atemp>20.0</ns3:atemp>
          </ns3:TrackPointExtension>
        </extensions>
      </trkpt>
      <trkpt lat="43.0969606339931488037109375" lon="12.97927907668054103851318359375">
        <ele>969.79998779296875</ele>
        <time>2021-05-09T08:45:17.000Z</time>
        <extensions>
          <ns3:TrackPointExtension>
            <ns3:atemp>20.0</ns3:atemp>
          </ns3:TrackPointExtension>
        </extensions>
      </trkpt>
      <trkpt lat="43.0969138629734516143798828125" lon="12.9792939126491546630859375">
        <ele>970.20001220703125</ele>
        <time>2021-05-09T08:45:19.000Z</time>
        <extensions>
          <ns3:TrackPointExtension>
            <ns3:atemp>20.0</ns3:atemp>
          </ns3:TrackPointExtension>
        </extensions>
      </trkpt>
      <trkpt lat="43.09683180414140224456787109375" lon="12.9793433658778667449951171875">
        <ele>971.20001220703125</ele>
        <time>2021-05-09T08:45:23.000Z</time>
        <extensions>
          <ns3:TrackPointExtension>
            <ns3:atemp>20.0</ns3:atemp>
          </ns3:TrackPointExtension>
        </extensions>
      </trkpt>
      <trkpt lat="43.0967970192432403564453125" lon="12.9793748818337917327880859375">
        <ele>971.79998779296875</ele>
        <time>2021-05-09T08:45:25.000Z</time>
        <extensions>
          <ns3:TrackPointExtension>
            <ns3:atemp>19.0</ns3:atemp>
          </ns3:TrackPointExtension>
        </extensions>
      </trkpt>
      <trkpt lat="43.0967567861080169677734375" lon="12.9794110916554927825927734375">
        <ele>972.20001220703125</ele>
        <time>2021-05-09T08:45:28.000Z</time>
        <extensions>
          <ns3:TrackPointExtension>
            <ns3:atemp>19.0</ns3:atemp>
          </ns3:TrackPointExtension>
        </extensions>
      </trkpt>
      <trkpt lat="43.09671764262020587921142578125" lon="12.979437075555324554443359375">
        <ele>972.79998779296875</ele>
        <time>2021-05-09T08:45:31.000Z</time>
        <extensions>
          <ns3:TrackPointExtension>
            <ns3:atemp>19.0</ns3:atemp>
          </ns3:TrackPointExtension>
        </extensions>
      </trkpt>
      <trkpt lat="43.09672066010534763336181640625" lon="12.9794476367533206939697265625">
        <ele>973.4000244140625</ele>
        <time>2021-05-09T08:45:35.000Z</time>
        <extensions>
          <ns3:TrackPointExtension>
            <ns3:atemp>19.0</ns3:atemp>
          </ns3:TrackPointExtension>
        </extensions>
      </trkpt>
      <trkpt lat="43.09671998955309391021728515625" lon="12.97944839112460613250732421875">
        <ele>974</ele>
        <time>2021-05-09T08:45:39.000Z</time>
        <extensions>
          <ns3:TrackPointExtension>
            <ns3:atemp>19.0</ns3:atemp>
          </ns3:TrackPointExtension>
        </extensions>
      </trkpt>
      <trkpt lat="43.0967058241367340087890625" lon="12.97945006750524044036865234375">
        <ele>974.4000244140625</ele>
        <time>2021-05-09T08:45:46.000Z</time>
        <extensions>
          <ns3:TrackPointExtension>
            <ns3:atemp>19.0</ns3:atemp>
          </ns3:TrackPointExtension>
        </extensions>
      </trkpt>
      <trkpt lat="43.0966902337968349456787109375" lon="12.97945811413228511810302734375">
        <ele>974.4000244140625</ele>
        <time>2021-05-09T08:45:50.000Z</time>
        <extensions>
          <ns3:TrackPointExtension>
            <ns3:atemp>19.0</ns3:atemp>
          </ns3:TrackPointExtension>
        </extensions>
      </trkpt>
      <trkpt lat="43.0966868810355663299560546875" lon="12.97946079634130001068115234375">
        <ele>974.4000244140625</ele>
        <time>2021-05-09T08:45:51.000Z</time>
        <extensions>
          <ns3:TrackPointExtension>
            <ns3:atemp>19.0</ns3:atemp>
          </ns3:TrackPointExtension>
        </extensions>
      </trkpt>
      <trkpt lat="43.096637427806854248046875" lon="12.979503460228443145751953125">
        <ele>974.5999755859375</ele>
        <time>2021-05-09T08:45:56.000Z</time>
        <extensions>
          <ns3:TrackPointExtension>
            <ns3:atemp>19.0</ns3:atemp>
          </ns3:TrackPointExtension>
        </extensions>
      </trkpt>
      <trkpt lat="43.09649820439517498016357421875" lon="12.97955182380974292755126953125">
        <ele>974.5999755859375</ele>
        <time>2021-05-09T08:46:02.000Z</time>
        <extensions>
          <ns3:TrackPointExtension>
            <ns3:atemp>19.0</ns3:atemp>
          </ns3:TrackPointExtension>
        </extensions>
      </trkpt>
      <trkpt lat="43.0964314006268978118896484375" lon="12.979551739990711212158203125">
        <ele>975.20001220703125</ele>
        <time>2021-05-09T08:46:05.000Z</time>
        <extensions>
          <ns3:TrackPointExtension>
            <ns3:atemp>19.0</ns3:atemp>
          </ns3:TrackPointExtension>
        </extensions>
      </trkpt>
      <trkpt lat="43.096316568553447723388671875" lon="12.97951452434062957763671875">
        <ele>976.4000244140625</ele>
        <time>2021-05-09T08:46:10.000Z</time>
        <extensions>
          <ns3:TrackPointExtension>
            <ns3:atemp>19.0</ns3:atemp>
          </ns3:TrackPointExtension>
        </extensions>
      </trkpt>
      <trkpt lat="43.09624004177749156951904296875" lon="12.97942710109055042266845703125">
        <ele>977.4000244140625</ele>
        <time>2021-05-09T08:46:14.000Z</time>
        <extensions>
          <ns3:TrackPointExtension>
            <ns3:atemp>19.0</ns3:atemp>
          </ns3:TrackPointExtension>
        </extensions>
      </trkpt>
      <trkpt lat="43.09618606232106685638427734375" lon="12.9793413542211055755615234375">
        <ele>977.79998779296875</ele>
        <time>2021-05-09T08:46:17.000Z</time>
        <extensions>
          <ns3:TrackPointExtension>
            <ns3:atemp>20.0</ns3:atemp>
          </ns3:TrackPointExtension>
        </extensions>
      </trkpt>
      <trkpt lat="43.09612043201923370361328125" lon="12.97929114662110805511474609375">
        <ele>978.4000244140625</ele>
        <time>2021-05-09T08:46:20.000Z</time>
        <extensions>
          <ns3:TrackPointExtension>
            <ns3:atemp>20.0</ns3:atemp>
          </ns3:TrackPointExtension>
        </extensions>
      </trkpt>
      <trkpt lat="43.0960676260292530059814453125" lon="12.97928921878337860107421875">
        <ele>978.79998779296875</ele>
        <time>2021-05-09T08:46:22.000Z</time>
        <extensions>
          <ns3:TrackPointExtension>
            <ns3:atemp>20.0</ns3:atemp>
          </ns3:TrackPointExtension>
        </extensions>
      </trkpt>
      <trkpt lat="43.09593309648334980010986328125" lon="12.9793108440935611724853515625">
        <ele>979.5999755859375</ele>
        <time>2021-05-09T08:46:27.000Z</time>
        <extensions>
          <ns3:TrackPointExtension>
            <ns3:atemp>20.0</ns3:atemp>
          </ns3:TrackPointExtension>
        </extensions>
      </trkpt>
      <trkpt lat="43.0958802066743373870849609375" lon="12.97932970337569713592529296875">
        <ele>979.79998779296875</ele>
        <time>2021-05-09T08:46:29.000Z</time>
        <extensions>
          <ns3:TrackPointExtension>
            <ns3:atemp>20.0</ns3:atemp>
          </ns3:TrackPointExtension>
        </extensions>
      </trkpt>
      <trkpt lat="43.0958047695457935333251953125" lon="12.97935870476067066192626953125">
        <ele>980.79998779296875</ele>
        <time>2021-05-09T08:46:32.000Z</time>
        <extensions>
          <ns3:TrackPointExtension>
            <ns3:atemp>20.0</ns3:atemp>
          </ns3:TrackPointExtension>
        </extensions>
      </trkpt>
      <trkpt lat="43.09571315534412860870361328125" lon="12.97938602976500988006591796875">
        <ele>982</ele>
        <time>2021-05-09T08:46:36.000Z</time>
        <extensions>
          <ns3:TrackPointExtension>
            <ns3:atemp>20.0</ns3:atemp>
          </ns3:TrackPointExtension>
        </extensions>
      </trkpt>
      <trkpt lat="43.0956894345581531524658203125" lon="12.97939592041075229644775390625">
        <ele>982.20001220703125</ele>
        <time>2021-05-09T08:46:37.000Z</time>
        <extensions>
          <ns3:TrackPointExtension>
            <ns3:atemp>20.0</ns3:atemp>
          </ns3:TrackPointExtension>
        </extensions>
      </trkpt>
      <trkpt lat="43.0956408195197582244873046875" lon="12.979425676167011260986328125">
        <ele>983</ele>
        <time>2021-05-09T08:46:39.000Z</time>
        <extensions>
          <ns3:TrackPointExtension>
            <ns3:atemp>20.0</ns3:atemp>
          </ns3:TrackPointExtension>
        </extensions>
      </trkpt>
      <trkpt lat="43.09556714259088039398193359375" lon="12.9794697649776935577392578125">
        <ele>984</ele>
        <time>2021-05-09T08:46:42.000Z</time>
        <extensions>
          <ns3:TrackPointExtension>
            <ns3:atemp>20.0</ns3:atemp>
          </ns3:TrackPointExtension>
        </extensions>
      </trkpt>
      <trkpt lat="43.09550193138420581817626953125" lon="12.97951159067451953887939453125">
        <ele>985</ele>
        <time>2021-05-09T08:46:45.000Z</time>
        <extensions>
          <ns3:TrackPointExtension>
            <ns3:atemp>20.0</ns3:atemp>
          </ns3:TrackPointExtension>
        </extensions>
      </trkpt>
      <trkpt lat="43.095485754311084747314453125" lon="12.9795245826244354248046875">
        <ele>985.4000244140625</ele>
        <time>2021-05-09T08:46:46.000Z</time>
        <extensions>
          <ns3:TrackPointExtension>
            <ns3:atemp>20.0</ns3:atemp>
          </ns3:TrackPointExtension>
        </extensions>
      </trkpt>
      <trkpt lat="43.09542565606534481048583984375" lon="12.9795378260314464569091796875">
        <ele>986.5999755859375</ele>
        <time>2021-05-09T08:46:49.000Z</time>
        <extensions>
          <ns3:TrackPointExtension>
            <ns3:atemp>20.0</ns3:atemp>
          </ns3:TrackPointExtension>
        </extensions>
      </trkpt>
      <trkpt lat="43.09540302492678165435791015625" lon="12.9795401729643344879150390625">
        <ele>986.79998779296875</ele>
        <time>2021-05-09T08:46:50.000Z</time>
        <extensions>
          <ns3:TrackPointExtension>
            <ns3:atemp>20.0</ns3:atemp>
          </ns3:TrackPointExtension>
        </extensions>
      </trkpt>
      <trkpt lat="43.0953420884907245635986328125" lon="12.97955769114196300506591796875">
        <ele>987.5999755859375</ele>
        <time>2021-05-09T08:46:53.000Z</time>
        <extensions>
          <ns3:TrackPointExtension>
            <ns3:atemp>20.0</ns3:atemp>
          </ns3:TrackPointExtension>
        </extensions>
      </trkpt>
      <trkpt lat="43.09527310542762279510498046875" lon="12.979577891528606414794921875">
        <ele>988.5999755859375</ele>
        <time>2021-05-09T08:46:56.000Z</time>
        <extensions>
          <ns3:TrackPointExtension>
            <ns3:atemp>20.0</ns3:atemp>
          </ns3:TrackPointExtension>
        </extensions>
      </trkpt>
      <trkpt lat="43.095229603350162506103515625" lon="12.979594655334949493408203125">
        <ele>988.79998779296875</ele>
        <time>2021-05-09T08:46:58.000Z</time>
        <extensions>
          <ns3:TrackPointExtension>
            <ns3:atemp>20.0</ns3:atemp>
          </ns3:TrackPointExtension>
        </extensions>
      </trkpt>
      <trkpt lat="43.09514142572879791259765625" lon="12.97963229008018970489501953125">
        <ele>990.20001220703125</ele>
        <time>2021-05-09T08:47:02.000Z</time>
        <extensions>
          <ns3:TrackPointExtension>
            <ns3:atemp>20.0</ns3:atemp>
          </ns3:TrackPointExtension>
        </extensions>
      </trkpt>
      <trkpt lat="43.09509758837521076202392578125" lon="12.97965173609554767608642578125">
        <ele>991.20001220703125</ele>
        <time>2021-05-09T08:47:04.000Z</time>
        <extensions>
          <ns3:TrackPointExtension>
            <ns3:atemp>20.0</ns3:atemp>
          </ns3:TrackPointExtension>
        </extensions>
      </trkpt>
      <trkpt lat="43.09507629834115505218505859375" lon="12.97966615296900272369384765625">
        <ele>991.5999755859375</ele>
        <time>2021-05-09T08:47:05.000Z</time>
        <extensions>
          <ns3:TrackPointExtension>
            <ns3:atemp>20.0</ns3:atemp>
          </ns3:TrackPointExtension>
        </extensions>
      </trkpt>
      <trkpt lat="43.09502131305634975433349609375" lon="12.97970806248486042022705078125">
        <ele>992.5999755859375</ele>
        <time>2021-05-09T08:47:08.000Z</time>
        <extensions>
          <ns3:TrackPointExtension>
            <ns3:atemp>20.0</ns3:atemp>
          </ns3:TrackPointExtension>
        </extensions>
      </trkpt>
      <trkpt lat="43.0949665792286396026611328125" lon="12.9797279275953769683837890625">
        <ele>993.79998779296875</ele>
        <time>2021-05-09T08:47:11.000Z</time>
        <extensions>
          <ns3:TrackPointExtension>
            <ns3:atemp>20.0</ns3:atemp>
          </ns3:TrackPointExtension>
        </extensions>
      </trkpt>
      <trkpt lat="43.09490899555385112762451171875" lon="12.9797418415546417236328125">
        <ele>995</ele>
        <time>2021-05-09T08:47:14.000Z</time>
        <extensions>
          <ns3:TrackPointExtension>
            <ns3:atemp>20.0</ns3:atemp>
          </ns3:TrackPointExtension>
        </extensions>
      </trkpt>
      <trkpt lat="43.09485367499291896820068359375" lon="12.97976170666515827178955078125">
        <ele>996</ele>
        <time>2021-05-09T08:47:17.000Z</time>
        <extensions>
          <ns3:TrackPointExtension>
            <ns3:atemp>20.0</ns3:atemp>
          </ns3:TrackPointExtension>
        </extensions>
      </trkpt>
      <trkpt lat="43.09481763280928134918212890625" lon="12.97978232614696025848388671875">
        <ele>997</ele>
        <time>2021-05-09T08:47:19.000Z</time>
        <extensions>
          <ns3:TrackPointExtension>
            <ns3:atemp>20.0</ns3:atemp>
          </ns3:TrackPointExtension>
        </extensions>
      </trkpt>
      <trkpt lat="43.094744123518466949462890625" lon="12.97982205636799335479736328125">
        <ele>998.4000244140625</ele>
        <time>2021-05-09T08:47:23.000Z</time>
        <extensions>
          <ns3:TrackPointExtension>
            <ns3:atemp>20.0</ns3:atemp>
          </ns3:TrackPointExtension>
        </extensions>
      </trkpt>
      <trkpt lat="43.094707243144512176513671875" lon="12.97984183765947818756103515625">
        <ele>999</ele>
        <time>2021-05-09T08:47:25.000Z</time>
        <extensions>
          <ns3:TrackPointExtension>
            <ns3:atemp>20.0</ns3:atemp>
          </ns3:TrackPointExtension>
        </extensions>
      </trkpt>
      <trkpt lat="43.09467631392180919647216796875" lon="12.97985407523810863494873046875">
        <ele>999.5999755859375</ele>
        <time>2021-05-09T08:47:27.000Z</time>
        <extensions>
          <ns3:TrackPointExtension>
            <ns3:atemp>20.0</ns3:atemp>
          </ns3:TrackPointExtension>
        </extensions>
      </trkpt>
      <trkpt lat="43.09462778270244598388671875" lon="12.97986580990254878997802734375">
        <ele>1000.79998779296875</ele>
        <time>2021-05-09T08:47:30.000Z</time>
        <extensions>
          <ns3:TrackPointExtension>
            <ns3:atemp>20.0</ns3:atemp>
          </ns3:TrackPointExtension>
        </extensions>
      </trkpt>
      <trkpt lat="43.09457623399794101715087890625" lon="12.979874275624752044677734375">
        <ele>1001.79998779296875</ele>
        <time>2021-05-09T08:47:33.000Z</time>
        <extensions>
          <ns3:TrackPointExtension>
            <ns3:atemp>20.0</ns3:atemp>
          </ns3:TrackPointExtension>
        </extensions>
      </trkpt>
      <trkpt lat="43.0945055745542049407958984375" lon="12.979901768267154693603515625">
        <ele>1003</ele>
        <time>2021-05-09T08:47:37.000Z</time>
        <extensions>
          <ns3:TrackPointExtension>
            <ns3:atemp>20.0</ns3:atemp>
          </ns3:TrackPointExtension>
        </extensions>
      </trkpt>
      <trkpt lat="43.09448772110044956207275390625" lon="12.979907132685184478759765625">
        <ele>1003.4000244140625</ele>
        <time>2021-05-09T08:47:38.000Z</time>
        <extensions>
          <ns3:TrackPointExtension>
            <ns3:atemp>20.0</ns3:atemp>
          </ns3:TrackPointExtension>
        </extensions>
      </trkpt>
      <trkpt lat="43.09443734586238861083984375" lon="12.97991174273192882537841796875">
        <ele>1004.20001220703125</ele>
        <time>2021-05-09T08:47:41.000Z</time>
        <extensions>
          <ns3:TrackPointExtension>
            <ns3:atemp>20.0</ns3:atemp>
          </ns3:TrackPointExtension>
        </extensions>
      </trkpt>
      <trkpt lat="43.0943848751485347747802734375" lon="12.9799351282417774200439453125">
        <ele>1005</ele>
        <time>2021-05-09T08:47:44.000Z</time>
        <extensions>
          <ns3:TrackPointExtension>
            <ns3:atemp>20.0</ns3:atemp>
          </ns3:TrackPointExtension>
        </extensions>
      </trkpt>
      <trkpt lat="43.09436618350446224212646484375" lon="12.979944683611392974853515625">
        <ele>1005.20001220703125</ele>
        <time>2021-05-09T08:47:45.000Z</time>
        <extensions>
          <ns3:TrackPointExtension>
            <ns3:atemp>20.0</ns3:atemp>
          </ns3:TrackPointExtension>
        </extensions>
      </trkpt>
      <trkpt lat="43.09431069530546665191650390625" lon="12.97996538691222667694091796875">
        <ele>1006.4000244140625</ele>
        <time>2021-05-09T08:47:48.000Z</time>
        <extensions>
          <ns3:TrackPointExtension>
            <ns3:atemp>20.0</ns3:atemp>
          </ns3:TrackPointExtension>
        </extensions>
      </trkpt>
      <trkpt lat="43.09427783824503421783447265625" lon="12.97996915876865386962890625">
        <ele>1007</ele>
        <time>2021-05-09T08:47:50.000Z</time>
        <extensions>
          <ns3:TrackPointExtension>
            <ns3:atemp>20.0</ns3:atemp>
          </ns3:TrackPointExtension>
        </extensions>
      </trkpt>
      <trkpt lat="43.09426166117191314697265625" lon="12.97997293062508106231689453125">
        <ele>1007.5999755859375</ele>
        <time>2021-05-09T08:47:51.000Z</time>
        <extensions>
          <ns3:TrackPointExtension>
            <ns3:atemp>20.0</ns3:atemp>
          </ns3:TrackPointExtension>
        </extensions>
      </trkpt>
      <trkpt lat="43.09420642443001270294189453125" lon="12.9799958132207393646240234375">
        <ele>1008.79998779296875</ele>
        <time>2021-05-09T08:47:54.000Z</time>
        <extensions>
          <ns3:TrackPointExtension>
            <ns3:atemp>20.0</ns3:atemp>
          </ns3:TrackPointExtension>
        </extensions>
      </trkpt>
      <trkpt lat="43.0941528640687465667724609375" lon="12.98001634888350963592529296875">
        <ele>1010.20001220703125</ele>
        <time>2021-05-09T08:47:57.000Z</time>
        <extensions>
          <ns3:TrackPointExtension>
            <ns3:atemp>20.0</ns3:atemp>
          </ns3:TrackPointExtension>
        </extensions>
      </trkpt>
      <trkpt lat="43.094097711145877838134765625" lon="12.98002288676798343658447265625">
        <ele>1011.4000244140625</ele>
        <time>2021-05-09T08:48:00.000Z</time>
        <extensions>
          <ns3:TrackPointExtension>
            <ns3:atemp>20.0</ns3:atemp>
          </ns3:TrackPointExtension>
        </extensions>
      </trkpt>
      <trkpt lat="43.09404029510915279388427734375" lon="12.98002908937633037567138671875">
        <ele>1012.79998779296875</ele>
        <time>2021-05-09T08:48:03.000Z</time>
        <extensions>
          <ns3:TrackPointExtension>
            <ns3:atemp>20.0</ns3:atemp>
          </ns3:TrackPointExtension>
        </extensions>
      </trkpt>
      <trkpt lat="43.09402084909379482269287109375" lon="12.98003445379436016082763671875">
        <ele>1013.20001220703125</ele>
        <time>2021-05-09T08:48:04.000Z</time>
        <extensions>
          <ns3:TrackPointExtension>
            <ns3:atemp>20.0</ns3:atemp>
          </ns3:TrackPointExtension>
        </extensions>
      </trkpt>
      <trkpt lat="43.093993104994297027587890625" lon="12.9800400696694850921630859375">
        <ele>1013.79998779296875</ele>
        <time>2021-05-09T08:48:06.000Z</time>
        <extensions>
          <ns3:TrackPointExtension>
            <ns3:atemp>20.0</ns3:atemp>
          </ns3:TrackPointExtension>
        </extensions>
      </trkpt>
      <trkpt lat="43.093973658978939056396484375" lon="12.98005364835262298583984375">
        <ele>1014.79998779296875</ele>
        <time>2021-05-09T08:48:09.000Z</time>
        <extensions>
          <ns3:TrackPointExtension>
            <ns3:atemp>20.0</ns3:atemp>
          </ns3:TrackPointExtension>
        </extensions>
      </trkpt>
      <trkpt lat="43.09396116994321346282958984375" lon="12.98006177879869937896728515625">
        <ele>1015.20001220703125</ele>
        <time>2021-05-09T08:48:10.000Z</time>
        <extensions>
          <ns3:TrackPointExtension>
            <ns3:atemp>20.0</ns3:atemp>
          </ns3:TrackPointExtension>
        </extensions>
      </trkpt>
      <trkpt lat="43.0939097888767719268798828125" lon="12.9801094718277454376220703125">
        <ele>1016</ele>
        <time>2021-05-09T08:48:13.000Z</time>
        <extensions>
          <ns3:TrackPointExtension>
            <ns3:atemp>20.0</ns3:atemp>
          </ns3:TrackPointExtension>
        </extensions>
      </trkpt>
      <trkpt lat="43.093892522156238555908203125" lon="12.9801295883953571319580078125">
        <ele>1016.4000244140625</ele>
        <time>2021-05-09T08:48:14.000Z</time>
        <extensions>
          <ns3:TrackPointExtension>
            <ns3:atemp>20.0</ns3:atemp>
          </ns3:TrackPointExtension>
        </extensions>
      </trkpt>
      <trkpt lat="43.093799650669097900390625" lon="12.98020427115261554718017578125">
        <ele>1017</ele>
        <time>2021-05-09T08:48:19.000Z</time>
        <extensions>
          <ns3:TrackPointExtension>
            <ns3:atemp>20.0</ns3:atemp>
          </ns3:TrackPointExtension>
        </extensions>
      </trkpt>
      <trkpt lat="43.09378280304372310638427734375" lon="12.98021265305578708648681640625">
        <ele>1017.20001220703125</ele>
        <time>2021-05-09T08:48:20.000Z</time>
        <extensions>
          <ns3:TrackPointExtension>
            <ns3:atemp>20.0</ns3:atemp>
          </ns3:TrackPointExtension>
        </extensions>
      </trkpt>
      <trkpt lat="43.09373033232986927032470703125" lon="12.9802274890244007110595703125">
        <ele>1018.20001220703125</ele>
        <time>2021-05-09T08:48:23.000Z</time>
        <extensions>
          <ns3:TrackPointExtension>
            <ns3:atemp>20.0</ns3:atemp>
          </ns3:TrackPointExtension>
        </extensions>
      </trkpt>
      <trkpt lat="43.09367425739765167236328125" lon="12.98024098388850688934326171875">
        <ele>1019.4000244140625</ele>
        <time>2021-05-09T08:48:26.000Z</time>
        <extensions>
          <ns3:TrackPointExtension>
            <ns3:atemp>20.0</ns3:atemp>
          </ns3:TrackPointExtension>
        </extensions>
      </trkpt>
      <trkpt lat="43.0936566554009914398193359375" lon="12.98024718649685382843017578125">
        <ele>1019.79998779296875</ele>
        <time>2021-05-09T08:48:27.000Z</time>
        <extensions>
          <ns3:TrackPointExtension>
            <ns3:atemp>20.0</ns3:atemp>
          </ns3:TrackPointExtension>
        </extensions>
      </trkpt>
      <trkpt lat="43.09360443614423274993896484375" lon="12.9802623577415943145751953125">
        <ele>1020.79998779296875</ele>
        <time>2021-05-09T08:48:30.000Z</time>
        <extensions>
          <ns3:TrackPointExtension>
            <ns3:atemp>20.0</ns3:atemp>
          </ns3:TrackPointExtension>
        </extensions>
      </trkpt>
      <trkpt lat="43.09351307339966297149658203125" lon="12.98027266748249530792236328125">
        <ele>1022.20001220703125</ele>
        <time>2021-05-09T08:48:34.000Z</time>
        <extensions>
          <ns3:TrackPointExtension>
            <ns3:atemp>20.0</ns3:atemp>
          </ns3:TrackPointExtension>
        </extensions>
      </trkpt>
      <trkpt lat="43.09346697293221950531005859375" lon="12.98029177822172641754150390625">
        <ele>1023.20001220703125</ele>
        <time>2021-05-09T08:48:37.000Z</time>
        <extensions>
          <ns3:TrackPointExtension>
            <ns3:atemp>20.0</ns3:atemp>
          </ns3:TrackPointExtension>
        </extensions>
      </trkpt>
      <trkpt lat="43.0934430845081806182861328125" lon="12.98031122423708438873291015625">
        <ele>1023.79998779296875</ele>
        <time>2021-05-09T08:48:39.000Z</time>
        <extensions>
          <ns3:TrackPointExtension>
            <ns3:atemp>20.0</ns3:atemp>
          </ns3:TrackPointExtension>
        </extensions>
      </trkpt>
      <trkpt lat="43.09342020191252231597900390625" lon="12.98033854924142360687255859375">
        <ele>1024.5999755859375</ele>
        <time>2021-05-09T08:48:41.000Z</time>
        <extensions>
          <ns3:TrackPointExtension>
            <ns3:atemp>20.0</ns3:atemp>
          </ns3:TrackPointExtension>
        </extensions>
      </trkpt>
      <trkpt lat="43.09340109117329120635986328125" lon="12.98037643544375896453857421875">
        <ele>1025.5999755859375</ele>
        <time>2021-05-09T08:48:43.000Z</time>
        <extensions>
          <ns3:TrackPointExtension>
            <ns3:atemp>20.0</ns3:atemp>
          </ns3:TrackPointExtension>
        </extensions>
      </trkpt>
      <trkpt lat="43.0933696590363979339599609375" lon="12.980450950562953948974609375">
        <ele>1027.4000244140625</ele>
        <time>2021-05-09T08:48:46.000Z</time>
        <extensions>
          <ns3:TrackPointExtension>
            <ns3:atemp>20.0</ns3:atemp>
          </ns3:TrackPointExtension>
        </extensions>
      </trkpt>
      <trkpt lat="43.09334090910851955413818359375" lon="12.98053636215627193450927734375">
        <ele>1028.4000244140625</ele>
        <time>2021-05-09T08:48:49.000Z</time>
        <extensions>
          <ns3:TrackPointExtension>
            <ns3:atemp>20.0</ns3:atemp>
          </ns3:TrackPointExtension>
        </extensions>
      </trkpt>
      <trkpt lat="43.09329749085009098052978515625" lon="12.98060618340969085693359375">
        <ele>1029.4000244140625</ele>
        <time>2021-05-09T08:48:52.000Z</time>
        <extensions>
          <ns3:TrackPointExtension>
            <ns3:atemp>20.0</ns3:atemp>
          </ns3:TrackPointExtension>
        </extensions>
      </trkpt>
      <trkpt lat="43.09325658716261386871337890625" lon="12.9806767590343952178955078125">
        <ele>1030.800048828125</ele>
        <time>2021-05-09T08:48:55.000Z</time>
        <extensions>
          <ns3:TrackPointExtension>
            <ns3:atemp>20.0</ns3:atemp>
          </ns3:TrackPointExtension>
        </extensions>
      </trkpt>
      <trkpt lat="43.09321559965610504150390625" lon="12.98071213066577911376953125">
        <ele>1032.4000244140625</ele>
        <time>2021-05-09T08:48:58.000Z</time>
        <extensions>
          <ns3:TrackPointExtension>
            <ns3:atemp>20.0</ns3:atemp>
          </ns3:TrackPointExtension>
        </extensions>
      </trkpt>
      <trkpt lat="43.0931778810918331146240234375" lon="12.9807288944721221923828125">
        <ele>1033.800048828125</ele>
        <time>2021-05-09T08:49:00.000Z</time>
        <extensions>
          <ns3:TrackPointExtension>
            <ns3:atemp>20.0</ns3:atemp>
          </ns3:TrackPointExtension>
        </extensions>
      </trkpt>
      <trkpt lat="43.093142174184322357177734375" lon="12.98075596801936626434326171875">
        <ele>1035</ele>
        <time>2021-05-09T08:49:02.000Z</time>
        <extensions>
          <ns3:TrackPointExtension>
            <ns3:atemp>20.0</ns3:atemp>
          </ns3:TrackPointExtension>
        </extensions>
      </trkpt>
      <trkpt lat="43.0931036174297332763671875" lon="12.980785556137561798095703125">
        <ele>1036.199951171875</ele>
        <time>2021-05-09T08:49:04.000Z</time>
        <extensions>
          <ns3:TrackPointExtension>
            <ns3:atemp>20.0</ns3:atemp>
          </ns3:TrackPointExtension>
        </extensions>
      </trkpt>
      <trkpt lat="43.09305072762072086334228515625" lon="12.980827800929546356201171875">
        <ele>1037.4000244140625</ele>
        <time>2021-05-09T08:49:07.000Z</time>
        <extensions>
          <ns3:TrackPointExtension>
            <ns3:atemp>20.0</ns3:atemp>
          </ns3:TrackPointExtension>
        </extensions>
      </trkpt>
      <trkpt lat="43.09298895299434661865234375" lon="12.98083609901368618011474609375">
        <ele>1038.800048828125</ele>
        <time>2021-05-09T08:49:10.000Z</time>
        <extensions>
          <ns3:TrackPointExtension>
            <ns3:atemp>20.0</ns3:atemp>
          </ns3:TrackPointExtension>
        </extensions>
      </trkpt>
      <trkpt lat="43.0929210595786571502685546875" lon="12.98083559609949588775634765625">
        <ele>1039.800048828125</ele>
        <time>2021-05-09T08:49:13.000Z</time>
        <extensions>
          <ns3:TrackPointExtension>
            <ns3:atemp>20.0</ns3:atemp>
          </ns3:TrackPointExtension>
        </extensions>
      </trkpt>
      <trkpt lat="43.0928801558911800384521484375" lon="12.980829142034053802490234375">
        <ele>1041.5999755859375</ele>
        <time>2021-05-09T08:49:15.000Z</time>
        <extensions>
          <ns3:TrackPointExtension>
            <ns3:atemp>20.0</ns3:atemp>
          </ns3:TrackPointExtension>
        </extensions>
      </trkpt>
      <trkpt lat="43.09283933602273464202880859375" lon="12.980823777616024017333984375">
        <ele>1042.5999755859375</ele>
        <time>2021-05-09T08:49:17.000Z</time>
        <extensions>
          <ns3:TrackPointExtension>
            <ns3:atemp>20.0</ns3:atemp>
          </ns3:TrackPointExtension>
        </extensions>
      </trkpt>
      <trkpt lat="43.09279558248817920684814453125" lon="12.980821430683135986328125">
        <ele>1043.800048828125</ele>
        <time>2021-05-09T08:49:19.000Z</time>
        <extensions>
          <ns3:TrackPointExtension>
            <ns3:atemp>20.0</ns3:atemp>
          </ns3:TrackPointExtension>
        </extensions>
      </trkpt>
      <trkpt lat="43.09275560081005096435546875" lon="12.98081212677061557769775390625">
        <ele>1045</ele>
        <time>2021-05-09T08:49:21.000Z</time>
        <extensions>
          <ns3:TrackPointExtension>
            <ns3:atemp>20.0</ns3:atemp>
          </ns3:TrackPointExtension>
        </extensions>
      </trkpt>
      <trkpt lat="43.09273506514728069305419921875" lon="12.98080525361001491546630859375">
        <ele>1045.5999755859375</ele>
        <time>2021-05-09T08:49:22.000Z</time>
        <extensions>
          <ns3:TrackPointExtension>
            <ns3:atemp>20.0</ns3:atemp>
          </ns3:TrackPointExtension>
        </extensions>
      </trkpt>
      <trkpt lat="43.09268745593726634979248046875" lon="12.98078991472721099853515625">
        <ele>1046.5999755859375</ele>
        <time>2021-05-09T08:49:24.000Z</time>
        <extensions>
          <ns3:TrackPointExtension>
            <ns3:atemp>20.0</ns3:atemp>
          </ns3:TrackPointExtension>
        </extensions>
      </trkpt>
      <trkpt lat="43.09262040071189403533935546875" lon="12.98077239654958248138427734375">
        <ele>1047.5999755859375</ele>
        <time>2021-05-09T08:49:27.000Z</time>
        <extensions>
          <ns3:TrackPointExtension>
            <ns3:atemp>20.0</ns3:atemp>
          </ns3:TrackPointExtension>
        </extensions>
      </trkpt>
      <trkpt lat="43.09259894303977489471435546875" lon="12.9807625897228717803955078125">
        <ele>1048</ele>
        <time>2021-05-09T08:49:28.000Z</time>
        <extensions>
          <ns3:TrackPointExtension>
            <ns3:atemp>20.0</ns3:atemp>
          </ns3:TrackPointExtension>
        </extensions>
      </trkpt>
      <trkpt lat="43.0925475619733333587646484375" lon="12.98073920421302318572998046875">
        <ele>1048.5999755859375</ele>
        <time>2021-05-09T08:49:30.000Z</time>
        <extensions>
          <ns3:TrackPointExtension>
            <ns3:atemp>20.0</ns3:atemp>
          </ns3:TrackPointExtension>
        </extensions>
      </trkpt>
      <trkpt lat="43.09244320727884769439697265625" lon="12.98070601187646389007568359375">
        <ele>1049.800048828125</ele>
        <time>2021-05-09T08:49:34.000Z</time>
        <extensions>
          <ns3:TrackPointExtension>
            <ns3:atemp>20.0</ns3:atemp>
          </ns3:TrackPointExtension>
        </extensions>
      </trkpt>
      <trkpt lat="43.09226064942777156829833984375" lon="12.9806806147098541259765625">
        <ele>1050.5999755859375</ele>
        <time>2021-05-09T08:49:41.000Z</time>
        <extensions>
          <ns3:TrackPointExtension>
            <ns3:atemp>20.0</ns3:atemp>
          </ns3:TrackPointExtension>
        </extensions>
      </trkpt>
      <trkpt lat="43.09221102856099605560302734375" lon="12.98067583702504634857177734375">
        <ele>1050.800048828125</ele>
        <time>2021-05-09T08:49:43.000Z</time>
        <extensions>
          <ns3:TrackPointExtension>
            <ns3:atemp>20.0</ns3:atemp>
          </ns3:TrackPointExtension>
        </extensions>
      </trkpt>
      <trkpt lat="43.09206493198871612548828125" lon="12.980660833418369293212890625">
        <ele>1051.5999755859375</ele>
        <time>2021-05-09T08:49:49.000Z</time>
        <extensions>
          <ns3:TrackPointExtension>
            <ns3:atemp>20.0</ns3:atemp>
          </ns3:TrackPointExtension>
        </extensions>
      </trkpt>
      <trkpt lat="43.092016987502574920654296875" lon="12.9806566424667835235595703125">
        <ele>1051.800048828125</ele>
        <time>2021-05-09T08:49:51.000Z</time>
        <extensions>
          <ns3:TrackPointExtension>
            <ns3:atemp>20.0</ns3:atemp>
          </ns3:TrackPointExtension>
        </extensions>
      </trkpt>
      <trkpt lat="43.091948926448822021484375" lon="12.9806599952280521392822265625">
        <ele>1052.800048828125</ele>
        <time>2021-05-09T08:49:54.000Z</time>
        <extensions>
          <ns3:TrackPointExtension>
            <ns3:atemp>20.0</ns3:atemp>
          </ns3:TrackPointExtension>
        </extensions>
      </trkpt>
      <trkpt lat="43.0918612517416477203369140625" lon="12.98068053089082241058349609375">
        <ele>1054</ele>
        <time>2021-05-09T08:49:58.000Z</time>
        <extensions>
          <ns3:TrackPointExtension>
            <ns3:atemp>20.0</ns3:atemp>
          </ns3:TrackPointExtension>
        </extensions>
      </trkpt>
      <trkpt lat="43.09180132113397121429443359375" lon="12.98068933188915252685546875">
        <ele>1055</ele>
        <time>2021-05-09T08:50:01.000Z</time>
        <extensions>
          <ns3:TrackPointExtension>
            <ns3:atemp>20.0</ns3:atemp>
          </ns3:TrackPointExtension>
        </extensions>
      </trkpt>
      <trkpt lat="43.09171632863581180572509765625" lon="12.98072545789182186126708984375">
        <ele>1056</ele>
        <time>2021-05-09T08:50:05.000Z</time>
        <extensions>
          <ns3:TrackPointExtension>
            <ns3:atemp>20.0</ns3:atemp>
          </ns3:TrackPointExtension>
        </extensions>
      </trkpt>
      <trkpt lat="43.09169269166886806488037109375" lon="12.98073166050016880035400390625">
        <ele>1056.4000244140625</ele>
        <time>2021-05-09T08:50:06.000Z</time>
        <extensions>
          <ns3:TrackPointExtension>
            <ns3:atemp>20.0</ns3:atemp>
          </ns3:TrackPointExtension>
        </extensions>
      </trkpt>
      <trkpt lat="43.09161842800676822662353515625" lon="12.98074406571686267852783203125">
        <ele>1057.4000244140625</ele>
        <time>2021-05-09T08:50:09.000Z</time>
        <extensions>
          <ns3:TrackPointExtension>
            <ns3:atemp>20.0</ns3:atemp>
          </ns3:TrackPointExtension>
        </extensions>
      </trkpt>
      <trkpt lat="43.0915487743914127349853515625" lon="12.98075831495225429534912109375">
        <ele>1057.800048828125</ele>
        <time>2021-05-09T08:50:12.000Z</time>
        <extensions>
          <ns3:TrackPointExtension>
            <ns3:atemp>20.0</ns3:atemp>
          </ns3:TrackPointExtension>
        </extensions>
      </trkpt>
      <trkpt lat="43.09152572415769100189208984375" lon="12.98076803795993328094482421875">
        <ele>1058.199951171875</ele>
        <time>2021-05-09T08:50:13.000Z</time>
        <extensions>
          <ns3:TrackPointExtension>
            <ns3:atemp>20.0</ns3:atemp>
          </ns3:TrackPointExtension>
        </extensions>
      </trkpt>
      <trkpt lat="43.0914351157844066619873046875" lon="12.98077658750116825103759765625">
        <ele>1059.5999755859375</ele>
        <time>2021-05-09T08:50:17.000Z</time>
        <extensions>
          <ns3:TrackPointExtension>
            <ns3:atemp>20.0</ns3:atemp>
          </ns3:TrackPointExtension>
        </extensions>
      </trkpt>
      <trkpt lat="43.09141273610293865203857421875" lon="12.9807771742343902587890625">
        <ele>1060.199951171875</ele>
        <time>2021-05-09T08:50:18.000Z</time>
        <extensions>
          <ns3:TrackPointExtension>
            <ns3:atemp>20.0</ns3:atemp>
          </ns3:TrackPointExtension>
        </extensions>
      </trkpt>
      <trkpt lat="43.09136495925486087799072265625" lon="12.98078983090817928314208984375">
        <ele>1060.800048828125</ele>
        <time>2021-05-09T08:50:20.000Z</time>
        <extensions>
          <ns3:TrackPointExtension>
            <ns3:atemp>20.0</ns3:atemp>
          </ns3:TrackPointExtension>
        </extensions>
      </trkpt>
      <trkpt lat="43.09129069559276103973388671875" lon="12.9807974584400653839111328125">
        <ele>1062.199951171875</ele>
        <time>2021-05-09T08:50:23.000Z</time>
        <extensions>
          <ns3:TrackPointExtension>
            <ns3:atemp>20.0</ns3:atemp>
          </ns3:TrackPointExtension>
        </extensions>
      </trkpt>
      <trkpt lat="43.09126739390194416046142578125" lon="12.98079586587846279144287109375">
        <ele>1062.5999755859375</ele>
        <time>2021-05-09T08:50:24.000Z</time>
        <extensions>
          <ns3:TrackPointExtension>
            <ns3:atemp>20.0</ns3:atemp>
          </ns3:TrackPointExtension>
        </extensions>
      </trkpt>
      <trkpt lat="43.0912228859961032867431640625" lon="12.98079636879265308380126953125">
        <ele>1063.4000244140625</ele>
        <time>2021-05-09T08:50:26.000Z</time>
        <extensions>
          <ns3:TrackPointExtension>
            <ns3:atemp>20.0</ns3:atemp>
          </ns3:TrackPointExtension>
        </extensions>
      </trkpt>
      <trkpt lat="43.09113563038408756256103515625" lon="12.98080558888614177703857421875">
        <ele>1064.800048828125</ele>
        <time>2021-05-09T08:50:30.000Z</time>
        <extensions>
          <ns3:TrackPointExtension>
            <ns3:atemp>20.0</ns3:atemp>
          </ns3:TrackPointExtension>
        </extensions>
      </trkpt>
      <trkpt lat="43.091113753616809844970703125" lon="12.98080877400934696197509765625">
        <ele>1065.199951171875</ele>
        <time>2021-05-09T08:50:31.000Z</time>
        <extensions>
          <ns3:TrackPointExtension>
            <ns3:atemp>20.0</ns3:atemp>
          </ns3:TrackPointExtension>
        </extensions>
      </trkpt>
      <trkpt lat="43.091060779988765716552734375" lon="12.9808041639626026153564453125">
        <ele>1066.199951171875</ele>
        <time>2021-05-09T08:50:33.000Z</time>
        <extensions>
          <ns3:TrackPointExtension>
            <ns3:atemp>20.0</ns3:atemp>
          </ns3:TrackPointExtension>
        </extensions>
      </trkpt>
      <trkpt lat="43.09098509140312671661376953125" lon="12.98079821281135082244873046875">
        <ele>1067.4000244140625</ele>
        <time>2021-05-09T08:50:36.000Z</time>
        <extensions>
          <ns3:TrackPointExtension>
            <ns3:atemp>20.0</ns3:atemp>
          </ns3:TrackPointExtension>
        </extensions>
      </trkpt>
      <trkpt lat="43.09095977805554866790771484375" lon="12.98079603351652622222900390625">
        <ele>1067.800048828125</ele>
        <time>2021-05-09T08:50:37.000Z</time>
        <extensions>
          <ns3:TrackPointExtension>
            <ns3:atemp>20.0</ns3:atemp>
          </ns3:TrackPointExtension>
        </extensions>
      </trkpt>
      <trkpt lat="43.09090915136039257049560546875" lon="12.98079033382236957550048828125">
        <ele>1068.4000244140625</ele>
        <time>2021-05-09T08:50:39.000Z</time>
        <extensions>
          <ns3:TrackPointExtension>
            <ns3:atemp>20.0</ns3:atemp>
          </ns3:TrackPointExtension>
        </extensions>
      </trkpt>
      <trkpt lat="43.09083941392600536346435546875" lon="12.9807622544467449188232421875">
        <ele>1069.5999755859375</ele>
        <time>2021-05-09T08:50:42.000Z</time>
        <extensions>
          <ns3:TrackPointExtension>
            <ns3:atemp>20.0</ns3:atemp>
          </ns3:TrackPointExtension>
        </extensions>
      </trkpt>
      <trkpt lat="43.0907927267253398895263671875" lon="12.98073819838464260101318359375">
        <ele>1070.4000244140625</ele>
        <time>2021-05-09T08:50:44.000Z</time>
        <extensions>
          <ns3:TrackPointExtension>
            <ns3:atemp>19.0</ns3:atemp>
          </ns3:TrackPointExtension>
        </extensions>
      </trkpt>
      <trkpt lat="43.09077051468193531036376953125" lon="12.98072998411953449249267578125">
        <ele>1070.800048828125</ele>
        <time>2021-05-09T08:50:45.000Z</time>
        <extensions>
          <ns3:TrackPointExtension>
            <ns3:atemp>19.0</ns3:atemp>
          </ns3:TrackPointExtension>
        </extensions>
      </trkpt>
      <trkpt lat="43.09073078446090221405029296875" lon="12.9807109571993350982666015625">
        <ele>1072</ele>
        <time>2021-05-09T08:50:47.000Z</time>
        <extensions>
          <ns3:TrackPointExtension>
            <ns3:atemp>19.0</ns3:atemp>
          </ns3:TrackPointExtension>
        </extensions>
      </trkpt>
      <trkpt lat="43.090688288211822509765625" lon="12.98069159500300884246826171875">
        <ele>1072.800048828125</ele>
        <time>2021-05-09T08:50:49.000Z</time>
        <extensions>
          <ns3:TrackPointExtension>
            <ns3:atemp>19.0</ns3:atemp>
          </ns3:TrackPointExtension>
        </extensions>
      </trkpt>
      <trkpt lat="43.0906448699533939361572265625" lon="12.980672232806682586669921875">
        <ele>1074</ele>
        <time>2021-05-09T08:50:51.000Z</time>
        <extensions>
          <ns3:TrackPointExtension>
            <ns3:atemp>19.0</ns3:atemp>
          </ns3:TrackPointExtension>
        </extensions>
      </trkpt>
      <trkpt lat="43.09057940728962421417236328125" lon="12.98064650036394596099853515625">
        <ele>1075.4000244140625</ele>
        <time>2021-05-09T08:50:54.000Z</time>
        <extensions>
          <ns3:TrackPointExtension>
            <ns3:atemp>19.0</ns3:atemp>
          </ns3:TrackPointExtension>
        </extensions>
      </trkpt>
      <trkpt lat="43.0905332230031490325927734375" lon="12.98063392750918865203857421875">
        <ele>1076.5999755859375</ele>
        <time>2021-05-09T08:50:56.000Z</time>
        <extensions>
          <ns3:TrackPointExtension>
            <ns3:atemp>19.0</ns3:atemp>
          </ns3:TrackPointExtension>
        </extensions>
      </trkpt>
      <trkpt lat="43.09049910865724086761474609375" lon="12.9806216061115264892578125">
        <ele>1077.5999755859375</ele>
        <time>2021-05-09T08:50:58.000Z</time>
        <extensions>
          <ns3:TrackPointExtension>
            <ns3:atemp>19.0</ns3:atemp>
          </ns3:TrackPointExtension>
        </extensions>
      </trkpt>
      <trkpt lat="43.09049181640148162841796875" lon="12.98062118701636791229248046875">
        <ele>1078.199951171875</ele>
        <time>2021-05-09T08:50:59.000Z</time>
        <extensions>
          <ns3:TrackPointExtension>
            <ns3:atemp>19.0</ns3:atemp>
          </ns3:TrackPointExtension>
        </extensions>
      </trkpt>
      <trkpt lat="43.09048955328762531280517578125" lon="12.98062420450150966644287109375">
        <ele>1079.4000244140625</ele>
        <time>2021-05-09T08:51:02.000Z</time>
        <extensions>
          <ns3:TrackPointExtension>
            <ns3:atemp>19.0</ns3:atemp>
          </ns3:TrackPointExtension>
        </extensions>
      </trkpt>
      <trkpt lat="43.09048955328762531280517578125" lon="12.98062453977763652801513671875">
        <ele>1080.4000244140625</ele>
        <time>2021-05-09T08:51:05.000Z</time>
        <extensions>
          <ns3:TrackPointExtension>
            <ns3:atemp>19.0</ns3:atemp>
          </ns3:TrackPointExtension>
        </extensions>
      </trkpt>
      <trkpt lat="43.09048972092568874359130859375" lon="12.9806247912347316741943359375">
        <ele>1081.5999755859375</ele>
        <time>2021-05-09T08:51:09.000Z</time>
        <extensions>
          <ns3:TrackPointExtension>
            <ns3:atemp>19.0</ns3:atemp>
          </ns3:TrackPointExtension>
        </extensions>
      </trkpt>
      <trkpt lat="43.090490810573101043701171875" lon="12.9806167446076869964599609375">
        <ele>1081.800048828125</ele>
        <time>2021-05-09T08:51:17.000Z</time>
        <extensions>
          <ns3:TrackPointExtension>
            <ns3:atemp>19.0</ns3:atemp>
          </ns3:TrackPointExtension>
        </extensions>
      </trkpt>
      <trkpt lat="43.0904911458492279052734375" lon="12.98061565496027469635009765625">
        <ele>1081.800048828125</ele>
        <time>2021-05-09T08:51:30.000Z</time>
        <extensions>
          <ns3:TrackPointExtension>
            <ns3:atemp>19.0</ns3:atemp>
          </ns3:TrackPointExtension>
        </extensions>
      </trkpt>
      <trkpt lat="43.09049055911600589752197265625" lon="12.980615235865116119384765625">
        <ele>1082</ele>
        <time>2021-05-09T08:51:46.000Z</time>
        <extensions>
          <ns3:TrackPointExtension>
            <ns3:atemp>20.0</ns3:atemp>
          </ns3:TrackPointExtension>
        </extensions>
      </trkpt>
      <trkpt lat="43.09049240313470363616943359375" lon="12.9806066863238811492919921875">
        <ele>1082</ele>
        <time>2021-05-09T08:51:58.000Z</time>
        <extensions>
          <ns3:TrackPointExtension>
            <ns3:atemp>20.0</ns3:atemp>
          </ns3:TrackPointExtension>
        </extensions>
      </trkpt>
      <trkpt lat="43.09049315750598907470703125" lon="12.98060677014291286468505859375">
        <ele>1081.199951171875</ele>
        <time>2021-05-09T08:52:26.000Z</time>
        <extensions>
          <ns3:TrackPointExtension>
            <ns3:atemp>20.0</ns3:atemp>
          </ns3:TrackPointExtension>
        </extensions>
      </trkpt>
      <trkpt lat="43.0904939956963062286376953125" lon="12.98060894943773746490478515625">
        <ele>1081</ele>
        <time>2021-05-09T08:52:54.000Z</time>
        <extensions>
          <ns3:TrackPointExtension>
            <ns3:atemp>20.0</ns3:atemp>
          </ns3:TrackPointExtension>
        </extensions>
      </trkpt>
      <trkpt lat="43.09049391187727451324462890625" lon="12.98061012290418148040771484375">
        <ele>1080.800048828125</ele>
        <time>2021-05-09T08:53:33.000Z</time>
        <extensions>
          <ns3:TrackPointExtension>
            <ns3:atemp>21.0</ns3:atemp>
          </ns3:TrackPointExtension>
        </extensions>
      </trkpt>
      <trkpt lat="43.09049491770565509796142578125" lon="12.98061297275125980377197265625">
        <ele>1080.800048828125</ele>
        <time>2021-05-09T08:54:32.000Z</time>
        <extensions>
          <ns3:TrackPointExtension>
            <ns3:atemp>21.0</ns3:atemp>
          </ns3:TrackPointExtension>
        </extensions>
      </trkpt>
      <trkpt lat="43.09049583971500396728515625" lon="12.980615906417369842529296875">
        <ele>1080.4000244140625</ele>
        <time>2021-05-09T08:56:16.000Z</time>
        <extensions>
          <ns3:TrackPointExtension>
            <ns3:atemp>22.0</ns3:atemp>
          </ns3:TrackPointExtension>
        </extensions>
      </trkpt>
      <trkpt lat="43.090496174991130828857421875" lon="12.98061716370284557342529296875">
        <ele>1080.4000244140625</ele>
        <time>2021-05-09T08:57:17.000Z</time>
        <extensions>
          <ns3:TrackPointExtension>
            <ns3:atemp>22.0</ns3:atemp>
          </ns3:TrackPointExtension>
        </extensions>
      </trkpt>
      <trkpt lat="43.09049642644822597503662109375" lon="12.98061548732221126556396484375">
        <ele>1080.5999755859375</ele>
        <time>2021-05-09T08:58:26.000Z</time>
        <extensions>
          <ns3:TrackPointExtension>
            <ns3:atemp>21.0</ns3:atemp>
          </ns3:TrackPointExtension>
        </extensions>
      </trkpt>
      <trkpt lat="43.09049676172435283660888671875" lon="12.9806162416934967041015625">
        <ele>1081</ele>
        <time>2021-05-09T08:59:15.000Z</time>
        <extensions>
          <ns3:TrackPointExtension>
            <ns3:atemp>21.0</ns3:atemp>
          </ns3:TrackPointExtension>
        </extensions>
      </trkpt>
      <trkpt lat="43.09049709700047969818115234375" lon="12.98061699606478214263916015625">
        <ele>1081</ele>
        <time>2021-05-09T08:59:44.000Z</time>
        <extensions>
          <ns3:TrackPointExtension>
            <ns3:atemp>21.0</ns3:atemp>
          </ns3:TrackPointExtension>
        </extensions>
      </trkpt>
      <trkpt lat="43.09049290604889392852783203125" lon="12.98062898218631744384765625">
        <ele>1080.800048828125</ele>
        <time>2021-05-09T09:00:40.000Z</time>
        <extensions>
          <ns3:TrackPointExtension>
            <ns3:atemp>20.0</ns3:atemp>
          </ns3:TrackPointExtension>
        </extensions>
      </trkpt>
      <trkpt lat="43.09047983027994632720947265625" lon="12.98061431385576725006103515625">
        <ele>1081</ele>
        <time>2021-05-09T09:00:46.000Z</time>
        <extensions>
          <ns3:TrackPointExtension>
            <ns3:atemp>20.0</ns3:atemp>
          </ns3:TrackPointExtension>
        </extensions>
      </trkpt>
      <trkpt lat="43.09047974646091461181640625" lon="12.98061314038932323455810546875">
        <ele>1081.5999755859375</ele>
        <time>2021-05-09T09:00:59.000Z</time>
        <extensions>
          <ns3:TrackPointExtension>
            <ns3:atemp>20.0</ns3:atemp>
          </ns3:TrackPointExtension>
        </extensions>
      </trkpt>
      <trkpt lat="43.09047974646091461181640625" lon="12.98061297275125980377197265625">
        <ele>1081.5999755859375</ele>
        <time>2021-05-09T09:01:02.000Z</time>
        <extensions>
          <ns3:TrackPointExtension>
            <ns3:atemp>20.0</ns3:atemp>
          </ns3:TrackPointExtension>
        </extensions>
      </trkpt>
      <trkpt lat="43.0904723703861236572265625" lon="12.980612553656101226806640625">
        <ele>1081.800048828125</ele>
        <time>2021-05-09T09:01:12.000Z</time>
        <extensions>
          <ns3:TrackPointExtension>
            <ns3:atemp>20.0</ns3:atemp>
          </ns3:TrackPointExtension>
        </extensions>
      </trkpt>
      <trkpt lat="43.0904571153223514556884765625" lon="12.98059545457363128662109375">
        <ele>1081.800048828125</ele>
        <time>2021-05-09T09:01:16.000Z</time>
        <extensions>
          <ns3:TrackPointExtension>
            <ns3:atemp>20.0</ns3:atemp>
          </ns3:TrackPointExtension>
        </extensions>
      </trkpt>
      <trkpt lat="43.09044194407761096954345703125" lon="12.98056997358798980712890625">
        <ele>1081.800048828125</ele>
        <time>2021-05-09T09:01:18.000Z</time>
        <extensions>
          <ns3:TrackPointExtension>
            <ns3:atemp>20.0</ns3:atemp>
          </ns3:TrackPointExtension>
        </extensions>
      </trkpt>
      <trkpt lat="43.090427108108997344970703125" lon="12.98043142072856426239013671875">
        <ele>1081.800048828125</ele>
        <time>2021-05-09T09:01:23.000Z</time>
        <extensions>
          <ns3:TrackPointExtension>
            <ns3:atemp>20.0</ns3:atemp>
          </ns3:TrackPointExtension>
        </extensions>
      </trkpt>
      <trkpt lat="43.09038746170699596405029296875" lon="12.980316840112209320068359375">
        <ele>1082</ele>
        <time>2021-05-09T09:01:28.000Z</time>
        <extensions>
          <ns3:TrackPointExtension>
            <ns3:atemp>20.0</ns3:atemp>
          </ns3:TrackPointExtension>
        </extensions>
      </trkpt>
      <trkpt lat="43.0903409421443939208984375" lon="12.98020795919001102447509765625">
        <ele>1082.5999755859375</ele>
        <time>2021-05-09T09:01:33.000Z</time>
        <extensions>
          <ns3:TrackPointExtension>
            <ns3:atemp>20.0</ns3:atemp>
          </ns3:TrackPointExtension>
        </extensions>
      </trkpt>
      <trkpt lat="43.09033029712736606597900390625" lon="12.98019002191722393035888671875">
        <ele>1083</ele>
        <time>2021-05-09T09:01:34.000Z</time>
        <extensions>
          <ns3:TrackPointExtension>
            <ns3:atemp>20.0</ns3:atemp>
          </ns3:TrackPointExtension>
        </extensions>
      </trkpt>
      <trkpt lat="43.09029459021985530853271484375" lon="12.98010502941906452178955078125">
        <ele>1083.800048828125</ele>
        <time>2021-05-09T09:01:38.000Z</time>
        <extensions>
          <ns3:TrackPointExtension>
            <ns3:atemp>20.0</ns3:atemp>
          </ns3:TrackPointExtension>
        </extensions>
      </trkpt>
      <trkpt lat="43.090264163911342620849609375" lon="12.9800368845462799072265625">
        <ele>1084.4000244140625</ele>
        <time>2021-05-09T09:01:41.000Z</time>
        <extensions>
          <ns3:TrackPointExtension>
            <ns3:atemp>20.0</ns3:atemp>
          </ns3:TrackPointExtension>
        </extensions>
      </trkpt>
      <trkpt lat="43.0902334861457347869873046875" lon="12.97996806912124156951904296875">
        <ele>1084.800048828125</ele>
        <time>2021-05-09T09:01:44.000Z</time>
        <extensions>
          <ns3:TrackPointExtension>
            <ns3:atemp>20.0</ns3:atemp>
          </ns3:TrackPointExtension>
        </extensions>
      </trkpt>
      <trkpt lat="43.0901707895100116729736328125" lon="12.9798177815973758697509765625">
        <ele>1085.800048828125</ele>
        <time>2021-05-09T09:01:51.000Z</time>
        <extensions>
          <ns3:TrackPointExtension>
            <ns3:atemp>20.0</ns3:atemp>
          </ns3:TrackPointExtension>
        </extensions>
      </trkpt>
      <trkpt lat="43.09010448865592479705810546875" lon="12.97963581047952175140380859375">
        <ele>1086.800048828125</ele>
        <time>2021-05-09T09:01:59.000Z</time>
        <extensions>
          <ns3:TrackPointExtension>
            <ns3:atemp>20.0</ns3:atemp>
          </ns3:TrackPointExtension>
        </extensions>
      </trkpt>
      <trkpt lat="43.09009577147662639617919921875" lon="12.9796112515032291412353515625">
        <ele>1087</ele>
        <time>2021-05-09T09:02:00.000Z</time>
        <extensions>
          <ns3:TrackPointExtension>
            <ns3:atemp>20.0</ns3:atemp>
          </ns3:TrackPointExtension>
        </extensions>
      </trkpt>
      <trkpt lat="43.09003257192671298980712890625" lon="12.97944436781108379364013671875">
        <ele>1088</ele>
        <time>2021-05-09T09:02:07.000Z</time>
        <extensions>
          <ns3:TrackPointExtension>
            <ns3:atemp>20.0</ns3:atemp>
          </ns3:TrackPointExtension>
        </extensions>
      </trkpt>
      <trkpt lat="43.0900172330439090728759765625" lon="12.97939516603946685791015625">
        <ele>1088.4000244140625</ele>
        <time>2021-05-09T09:02:09.000Z</time>
        <extensions>
          <ns3:TrackPointExtension>
            <ns3:atemp>20.0</ns3:atemp>
          </ns3:TrackPointExtension>
        </extensions>
      </trkpt>
      <trkpt lat="43.0899863876402378082275390625" lon="12.9792970977723598480224609375">
        <ele>1089</ele>
        <time>2021-05-09T09:02:13.000Z</time>
        <extensions>
          <ns3:TrackPointExtension>
            <ns3:atemp>20.0</ns3:atemp>
          </ns3:TrackPointExtension>
        </extensions>
      </trkpt>
      <trkpt lat="43.08995495550334453582763671875" lon="12.9791955091059207916259765625">
        <ele>1090</ele>
        <time>2021-05-09T09:02:17.000Z</time>
        <extensions>
          <ns3:TrackPointExtension>
            <ns3:atemp>20.0</ns3:atemp>
          </ns3:TrackPointExtension>
        </extensions>
      </trkpt>
      <trkpt lat="43.0899444781243801116943359375" lon="12.97913976944983005523681640625">
        <ele>1090.4000244140625</ele>
        <time>2021-05-09T09:02:19.000Z</time>
        <extensions>
          <ns3:TrackPointExtension>
            <ns3:atemp>20.0</ns3:atemp>
          </ns3:TrackPointExtension>
        </extensions>
      </trkpt>
      <trkpt lat="43.08995529077947139739990234375" lon="12.97899794764816761016845703125">
        <ele>1091.199951171875</ele>
        <time>2021-05-09T09:02:24.000Z</time>
        <extensions>
          <ns3:TrackPointExtension>
            <ns3:atemp>20.0</ns3:atemp>
          </ns3:TrackPointExtension>
        </extensions>
      </trkpt>
      <trkpt lat="43.08996903710067272186279296875" lon="12.9789564572274684906005859375">
        <ele>1091.4000244140625</ele>
        <time>2021-05-09T09:02:26.000Z</time>
        <extensions>
          <ns3:TrackPointExtension>
            <ns3:atemp>20.0</ns3:atemp>
          </ns3:TrackPointExtension>
        </extensions>
      </trkpt>
      <trkpt lat="43.08997624553740024566650390625" lon="12.97895033843815326690673828125">
        <ele>1092.199951171875</ele>
        <time>2021-05-09T09:02:31.000Z</time>
        <extensions>
          <ns3:TrackPointExtension>
            <ns3:atemp>20.0</ns3:atemp>
          </ns3:TrackPointExtension>
        </extensions>
      </trkpt>
      <trkpt lat="43.089975155889987945556640625" lon="12.9789148829877376556396484375">
        <ele>1092.199951171875</ele>
        <time>2021-05-09T09:02:47.000Z</time>
        <extensions>
          <ns3:TrackPointExtension>
            <ns3:atemp>20.0</ns3:atemp>
          </ns3:TrackPointExtension>
        </extensions>
      </trkpt>
      <trkpt lat="43.08998563326895236968994140625" lon="12.97889535315334796905517578125">
        <ele>1092.199951171875</ele>
        <time>2021-05-09T09:02:49.000Z</time>
        <extensions>
          <ns3:TrackPointExtension>
            <ns3:atemp>20.0</ns3:atemp>
          </ns3:TrackPointExtension>
        </extensions>
      </trkpt>
      <trkpt lat="43.08998898603022098541259765625" lon="12.97887540422379970550537109375">
        <ele>1092.4000244140625</ele>
        <time>2021-05-09T09:02:52.000Z</time>
        <extensions>
          <ns3:TrackPointExtension>
            <ns3:atemp>20.0</ns3:atemp>
          </ns3:TrackPointExtension>
        </extensions>
      </trkpt>
      <trkpt lat="43.0899897404015064239501953125" lon="12.9788753204047679901123046875">
        <ele>1092.5999755859375</ele>
        <time>2021-05-09T09:02:53.000Z</time>
        <extensions>
          <ns3:TrackPointExtension>
            <ns3:atemp>20.0</ns3:atemp>
          </ns3:TrackPointExtension>
        </extensions>
      </trkpt>
      <trkpt lat="43.08998881839215755462646484375" lon="12.978873141109943389892578125">
        <ele>1092.800048828125</ele>
        <time>2021-05-09T09:03:06.000Z</time>
        <extensions>
          <ns3:TrackPointExtension>
            <ns3:atemp>20.0</ns3:atemp>
          </ns3:TrackPointExtension>
        </extensions>
      </trkpt>
      <trkpt lat="43.08999183587729930877685546875" lon="12.97886006534099578857421875">
        <ele>1092.800048828125</ele>
        <time>2021-05-09T09:03:21.000Z</time>
        <extensions>
          <ns3:TrackPointExtension>
            <ns3:atemp>21.0</ns3:atemp>
          </ns3:TrackPointExtension>
        </extensions>
      </trkpt>
      <trkpt lat="43.0900437198579311370849609375" lon="12.978782951831817626953125">
        <ele>1093</ele>
        <time>2021-05-09T09:03:27.000Z</time>
        <extensions>
          <ns3:TrackPointExtension>
            <ns3:atemp>21.0</ns3:atemp>
          </ns3:TrackPointExtension>
        </extensions>
      </trkpt>
      <trkpt lat="43.0900839529931545257568359375" lon="12.9787395335733890533447265625">
        <ele>1093</ele>
        <time>2021-05-09T09:03:33.000Z</time>
        <extensions>
          <ns3:TrackPointExtension>
            <ns3:atemp>21.0</ns3:atemp>
          </ns3:TrackPointExtension>
        </extensions>
      </trkpt>
      <trkpt lat="43.09019182808697223663330078125" lon="12.9786651022732257843017578125">
        <ele>1092.800048828125</ele>
        <time>2021-05-09T09:03:40.000Z</time>
        <extensions>
          <ns3:TrackPointExtension>
            <ns3:atemp>21.0</ns3:atemp>
          </ns3:TrackPointExtension>
        </extensions>
      </trkpt>
      <trkpt lat="43.09030942618846893310546875" lon="12.9786153137683868408203125">
        <ele>1092.800048828125</ele>
        <time>2021-05-09T09:03:46.000Z</time>
        <extensions>
          <ns3:TrackPointExtension>
            <ns3:atemp>21.0</ns3:atemp>
          </ns3:TrackPointExtension>
        </extensions>
      </trkpt>
      <trkpt lat="43.09044864960014820098876953125" lon="12.97853887081146240234375">
        <ele>1093</ele>
        <time>2021-05-09T09:03:52.000Z</time>
        <extensions>
          <ns3:TrackPointExtension>
            <ns3:atemp>21.0</ns3:atemp>
          </ns3:TrackPointExtension>
        </extensions>
      </trkpt>
      <trkpt lat="43.09062316082417964935302734375" lon="12.9784624278545379638671875">
        <ele>1093.4000244140625</ele>
        <time>2021-05-09T09:03:59.000Z</time>
        <extensions>
          <ns3:TrackPointExtension>
            <ns3:atemp>21.0</ns3:atemp>
          </ns3:TrackPointExtension>
        </extensions>
      </trkpt>
      <trkpt lat="43.09076146222651004791259765625" lon="12.97837902791798114776611328125">
        <ele>1093.800048828125</ele>
        <time>2021-05-09T09:04:05.000Z</time>
        <extensions>
          <ns3:TrackPointExtension>
            <ns3:atemp>21.0</ns3:atemp>
          </ns3:TrackPointExtension>
        </extensions>
      </trkpt>
      <trkpt lat="43.09080789797008037567138671875" lon="12.97834667377173900604248046875">
        <ele>1094.199951171875</ele>
        <time>2021-05-09T09:04:07.000Z</time>
        <extensions>
          <ns3:TrackPointExtension>
            <ns3:atemp>21.0</ns3:atemp>
          </ns3:TrackPointExtension>
        </extensions>
      </trkpt>
      <trkpt lat="43.09089557267725467681884765625" lon="12.9782812111079692840576171875">
        <ele>1095.4000244140625</ele>
        <time>2021-05-09T09:04:11.000Z</time>
        <extensions>
          <ns3:TrackPointExtension>
            <ns3:atemp>21.0</ns3:atemp>
          </ns3:TrackPointExtension>
        </extensions>
      </trkpt>
      <trkpt lat="43.0909130908548831939697265625" lon="12.978265285491943359375">
        <ele>1095.5999755859375</ele>
        <time>2021-05-09T09:04:12.000Z</time>
        <extensions>
          <ns3:TrackPointExtension>
            <ns3:atemp>21.0</ns3:atemp>
          </ns3:TrackPointExtension>
        </extensions>
      </trkpt>
      <trkpt lat="43.09101283550262451171875" lon="12.97816361300647258758544921875">
        <ele>1095.800048828125</ele>
        <time>2021-05-09T09:04:17.000Z</time>
        <extensions>
          <ns3:TrackPointExtension>
            <ns3:atemp>21.0</ns3:atemp>
          </ns3:TrackPointExtension>
        </extensions>
      </trkpt>
      <trkpt lat="43.091160356998443603515625" lon="12.97807677648961544036865234375">
        <ele>1095.800048828125</ele>
        <time>2021-05-09T09:04:23.000Z</time>
        <extensions>
          <ns3:TrackPointExtension>
            <ns3:atemp>21.0</ns3:atemp>
          </ns3:TrackPointExtension>
        </extensions>
      </trkpt>
      <trkpt lat="43.0913680605590343475341796875" lon="12.9779925383627414703369140625">
        <ele>1095.4000244140625</ele>
        <time>2021-05-09T09:04:31.000Z</time>
        <extensions>
          <ns3:TrackPointExtension>
            <ns3:atemp>21.0</ns3:atemp>
          </ns3:TrackPointExtension>
        </extensions>
      </trkpt>
      <trkpt lat="43.09152572415769100189208984375" lon="12.977888770401477813720703125">
        <ele>1095.5999755859375</ele>
        <time>2021-05-09T09:04:38.000Z</time>
        <extensions>
          <ns3:TrackPointExtension>
            <ns3:atemp>21.0</ns3:atemp>
          </ns3:TrackPointExtension>
        </extensions>
      </trkpt>
      <trkpt lat="43.09164977632462978363037109375" lon="12.97774652950465679168701171875">
        <ele>1096.5999755859375</ele>
        <time>2021-05-09T09:04:44.000Z</time>
        <extensions>
          <ns3:TrackPointExtension>
            <ns3:atemp>21.0</ns3:atemp>
          </ns3:TrackPointExtension>
        </extensions>
      </trkpt>
      <trkpt lat="43.0917160771787166595458984375" lon="12.9776280932128429412841796875">
        <ele>1097.800048828125</ele>
        <time>2021-05-09T09:04:48.000Z</time>
        <extensions>
          <ns3:TrackPointExtension>
            <ns3:atemp>21.0</ns3:atemp>
          </ns3:TrackPointExtension>
        </extensions>
      </trkpt>
      <trkpt lat="43.09173326008021831512451171875" lon="12.9775543324649333953857421875">
        <ele>1098.4000244140625</ele>
        <time>2021-05-09T09:04:50.000Z</time>
        <extensions>
          <ns3:TrackPointExtension>
            <ns3:atemp>21.0</ns3:atemp>
          </ns3:TrackPointExtension>
        </extensions>
      </trkpt>
      <trkpt lat="43.0917449109256267547607421875" lon="12.97745861113071441650390625">
        <ele>1098.800048828125</ele>
        <time>2021-05-09T09:04:53.000Z</time>
        <extensions>
          <ns3:TrackPointExtension>
            <ns3:atemp>21.0</ns3:atemp>
          </ns3:TrackPointExtension>
        </extensions>
      </trkpt>
      <trkpt lat="43.09175002388656139373779296875" lon="12.97738015651702880859375">
        <ele>1099</ele>
        <time>2021-05-09T09:04:55.000Z</time>
        <extensions>
          <ns3:TrackPointExtension>
            <ns3:atemp>21.0</ns3:atemp>
          </ns3:TrackPointExtension>
        </extensions>
      </trkpt>
      <trkpt lat="43.0917874909937381744384765625" lon="12.9771670885384082794189453125">
        <ele>1099</ele>
        <time>2021-05-09T09:05:00.000Z</time>
        <extensions>
          <ns3:TrackPointExtension>
            <ns3:atemp>21.0</ns3:atemp>
          </ns3:TrackPointExtension>
        </extensions>
      </trkpt>
      <trkpt lat="43.091871477663516998291015625" lon="12.9769303835928440093994140625">
        <ele>1098.800048828125</ele>
        <time>2021-05-09T09:05:07.000Z</time>
        <extensions>
          <ns3:TrackPointExtension>
            <ns3:atemp>21.0</ns3:atemp>
          </ns3:TrackPointExtension>
        </extensions>
      </trkpt>
      <trkpt lat="43.09196208603680133819580078125" lon="12.9767557047307491302490234375">
        <ele>1098.5999755859375</ele>
        <time>2021-05-09T09:05:13.000Z</time>
        <extensions>
          <ns3:TrackPointExtension>
            <ns3:atemp>21.0</ns3:atemp>
          </ns3:TrackPointExtension>
        </extensions>
      </trkpt>
      <trkpt lat="43.09208479709923267364501953125" lon="12.97658798284828662872314453125">
        <ele>1098.4000244140625</ele>
        <time>2021-05-09T09:05:19.000Z</time>
        <extensions>
          <ns3:TrackPointExtension>
            <ns3:atemp>21.0</ns3:atemp>
          </ns3:TrackPointExtension>
        </extensions>
      </trkpt>
      <trkpt lat="43.09215369634330272674560546875" lon="12.976479269564151763916015625">
        <ele>1098.4000244140625</ele>
        <time>2021-05-09T09:05:24.000Z</time>
        <extensions>
          <ns3:TrackPointExtension>
            <ns3:atemp>21.0</ns3:atemp>
          </ns3:TrackPointExtension>
        </extensions>
      </trkpt>
      <trkpt lat="43.09221647679805755615234375" lon="12.9763691313564777374267578125">
        <ele>1098.4000244140625</ele>
        <time>2021-05-09T09:05:29.000Z</time>
        <extensions>
          <ns3:TrackPointExtension>
            <ns3:atemp>21.0</ns3:atemp>
          </ns3:TrackPointExtension>
        </extensions>
      </trkpt>
      <trkpt lat="43.0922857113182544708251953125" lon="12.9762719012796878814697265625">
        <ele>1098</ele>
        <time>2021-05-09T09:05:34.000Z</time>
        <extensions>
          <ns3:TrackPointExtension>
            <ns3:atemp>21.0</ns3:atemp>
          </ns3:TrackPointExtension>
        </extensions>
      </trkpt>
      <trkpt lat="43.09232284314930438995361328125" lon="12.97622211277484893798828125">
        <ele>1097.800048828125</ele>
        <time>2021-05-09T09:05:38.000Z</time>
        <extensions>
          <ns3:TrackPointExtension>
            <ns3:atemp>21.0</ns3:atemp>
          </ns3:TrackPointExtension>
        </extensions>
      </trkpt>
      <trkpt lat="43.09232485480606555938720703125" lon="12.97620073892176151275634765625">
        <ele>1097.800048828125</ele>
        <time>2021-05-09T09:05:39.000Z</time>
        <extensions>
          <ns3:TrackPointExtension>
            <ns3:atemp>21.0</ns3:atemp>
          </ns3:TrackPointExtension>
        </extensions>
      </trkpt>
      <trkpt lat="43.0923262797296047210693359375" lon="12.97617274336516857147216796875">
        <ele>1097.800048828125</ele>
        <time>2021-05-09T09:05:40.000Z</time>
        <extensions>
          <ns3:TrackPointExtension>
            <ns3:atemp>21.0</ns3:atemp>
          </ns3:TrackPointExtension>
        </extensions>
      </trkpt>
      <trkpt lat="43.09235201217234134674072265625" lon="12.97609470784664154052734375">
        <ele>1097.5999755859375</ele>
        <time>2021-05-09T09:05:44.000Z</time>
        <extensions>
          <ns3:TrackPointExtension>
            <ns3:atemp>21.0</ns3:atemp>
          </ns3:TrackPointExtension>
        </extensions>
      </trkpt>
      <trkpt lat="43.09236559085547924041748046875" lon="12.976068221032619476318359375">
        <ele>1097.5999755859375</ele>
        <time>2021-05-09T09:05:46.000Z</time>
        <extensions>
          <ns3:TrackPointExtension>
            <ns3:atemp>21.0</ns3:atemp>
          </ns3:TrackPointExtension>
        </extensions>
      </trkpt>
      <trkpt lat="43.0923955142498016357421875" lon="12.97602572478353977203369140625">
        <ele>1097.199951171875</ele>
        <time>2021-05-09T09:05:55.000Z</time>
        <extensions>
          <ns3:TrackPointExtension>
            <ns3:atemp>21.0</ns3:atemp>
          </ns3:TrackPointExtension>
        </extensions>
      </trkpt>
      <trkpt lat="43.0924572050571441650390625" lon="12.97593302093446254730224609375">
        <ele>1097</ele>
        <time>2021-05-09T09:06:02.000Z</time>
        <extensions>
          <ns3:TrackPointExtension>
            <ns3:atemp>21.0</ns3:atemp>
          </ns3:TrackPointExtension>
        </extensions>
      </trkpt>
      <trkpt lat="43.092466928064823150634765625" lon="12.9759191907942295074462890625">
        <ele>1097</ele>
        <time>2021-05-09T09:06:03.000Z</time>
        <extensions>
          <ns3:TrackPointExtension>
            <ns3:atemp>21.0</ns3:atemp>
          </ns3:TrackPointExtension>
        </extensions>
      </trkpt>
      <trkpt lat="43.0924867093563079833984375" lon="12.97589429654181003570556640625">
        <ele>1097</ele>
        <time>2021-05-09T09:06:07.000Z</time>
        <extensions>
          <ns3:TrackPointExtension>
            <ns3:atemp>21.0</ns3:atemp>
          </ns3:TrackPointExtension>
        </extensions>
      </trkpt>
      <trkpt lat="43.09252803213894367218017578125" lon="12.9757525585591793060302734375">
        <ele>1097</ele>
        <time>2021-05-09T09:06:14.000Z</time>
        <extensions>
          <ns3:TrackPointExtension>
            <ns3:atemp>21.0</ns3:atemp>
          </ns3:TrackPointExtension>
        </extensions>
      </trkpt>
      <trkpt lat="43.09260665439069271087646484375" lon="12.97559355385601520538330078125">
        <ele>1096.5999755859375</ele>
        <time>2021-05-09T09:06:19.000Z</time>
        <extensions>
          <ns3:TrackPointExtension>
            <ns3:atemp>21.0</ns3:atemp>
          </ns3:TrackPointExtension>
        </extensions>
      </trkpt>
      <trkpt lat="43.092623837292194366455078125" lon="12.97555751167237758636474609375">
        <ele>1096.199951171875</ele>
        <time>2021-05-09T09:06:20.000Z</time>
        <extensions>
          <ns3:TrackPointExtension>
            <ns3:atemp>21.0</ns3:atemp>
          </ns3:TrackPointExtension>
        </extensions>
      </trkpt>
      <trkpt lat="43.09267320670187473297119140625" lon="12.97541904263198375701904296875">
        <ele>1095.5999755859375</ele>
        <time>2021-05-09T09:06:24.000Z</time>
        <extensions>
          <ns3:TrackPointExtension>
            <ns3:atemp>21.0</ns3:atemp>
          </ns3:TrackPointExtension>
        </extensions>
      </trkpt>
      <trkpt lat="43.092690892517566680908203125" lon="12.9753859341144561767578125">
        <ele>1095.5999755859375</ele>
        <time>2021-05-09T09:06:25.000Z</time>
        <extensions>
          <ns3:TrackPointExtension>
            <ns3:atemp>21.0</ns3:atemp>
          </ns3:TrackPointExtension>
        </extensions>
      </trkpt>
      <trkpt lat="43.0927817523479461669921875" lon="12.97520547173917293548583984375">
        <ele>1095.5999755859375</ele>
        <time>2021-05-09T09:06:30.000Z</time>
        <extensions>
          <ns3:TrackPointExtension>
            <ns3:atemp>21.0</ns3:atemp>
          </ns3:TrackPointExtension>
        </extensions>
      </trkpt>
      <trkpt lat="43.092908822000026702880859375" lon="12.97497488558292388916015625">
        <ele>1096.199951171875</ele>
        <time>2021-05-09T09:06:37.000Z</time>
        <extensions>
          <ns3:TrackPointExtension>
            <ns3:atemp>21.0</ns3:atemp>
          </ns3:TrackPointExtension>
        </extensions>
      </trkpt>
      <trkpt lat="43.0930669046938419342041015625" lon="12.97476089559495449066162109375">
        <ele>1096.5999755859375</ele>
        <time>2021-05-09T09:06:44.000Z</time>
        <extensions>
          <ns3:TrackPointExtension>
            <ns3:atemp>21.0</ns3:atemp>
          </ns3:TrackPointExtension>
        </extensions>
      </trkpt>
      <trkpt lat="43.09320059604942798614501953125" lon="12.97460063360631465911865234375">
        <ele>1097.800048828125</ele>
        <time>2021-05-09T09:06:50.000Z</time>
        <extensions>
          <ns3:TrackPointExtension>
            <ns3:atemp>21.0</ns3:atemp>
          </ns3:TrackPointExtension>
        </extensions>
      </trkpt>
      <trkpt lat="43.0932251550257205963134765625" lon="12.97458051703870296478271484375">
        <ele>1097.800048828125</ele>
        <time>2021-05-09T09:06:51.000Z</time>
        <extensions>
          <ns3:TrackPointExtension>
            <ns3:atemp>20.0</ns3:atemp>
          </ns3:TrackPointExtension>
        </extensions>
      </trkpt>
      <trkpt lat="43.09335448779165744781494140625" lon="12.974493764340877532958984375">
        <ele>1098.800048828125</ele>
        <time>2021-05-09T09:06:56.000Z</time>
        <extensions>
          <ns3:TrackPointExtension>
            <ns3:atemp>20.0</ns3:atemp>
          </ns3:TrackPointExtension>
        </extensions>
      </trkpt>
      <trkpt lat="43.09341399930417537689208984375" lon="12.974453531205654144287109375">
        <ele>1099</ele>
        <time>2021-05-09T09:06:58.000Z</time>
        <extensions>
          <ns3:TrackPointExtension>
            <ns3:atemp>20.0</ns3:atemp>
          </ns3:TrackPointExtension>
        </extensions>
      </trkpt>
      <trkpt lat="43.0935517139732837677001953125" lon="12.974336184561252593994140625">
        <ele>1100</ele>
        <time>2021-05-09T09:07:03.000Z</time>
        <extensions>
          <ns3:TrackPointExtension>
            <ns3:atemp>20.0</ns3:atemp>
          </ns3:TrackPointExtension>
        </extensions>
      </trkpt>
      <trkpt lat="43.09372111223638057708740234375" lon="12.9741905070841312408447265625">
        <ele>1100.4000244140625</ele>
        <time>2021-05-09T09:07:09.000Z</time>
        <extensions>
          <ns3:TrackPointExtension>
            <ns3:atemp>20.0</ns3:atemp>
          </ns3:TrackPointExtension>
        </extensions>
      </trkpt>
      <trkpt lat="43.09379554353654384613037109375" lon="12.974081374704837799072265625">
        <ele>1100.4000244140625</ele>
        <time>2021-05-09T09:07:14.000Z</time>
        <extensions>
          <ns3:TrackPointExtension>
            <ns3:atemp>20.0</ns3:atemp>
          </ns3:TrackPointExtension>
        </extensions>
      </trkpt>
      <trkpt lat="43.09380811639130115509033203125" lon="12.9740567319095134735107421875">
        <ele>1100.4000244140625</ele>
        <time>2021-05-09T09:07:17.000Z</time>
        <extensions>
          <ns3:TrackPointExtension>
            <ns3:atemp>20.0</ns3:atemp>
          </ns3:TrackPointExtension>
        </extensions>
      </trkpt>
      <trkpt lat="43.09385505504906177520751953125" lon="12.974043823778629302978515625">
        <ele>1100</ele>
        <time>2021-05-09T09:07:24.000Z</time>
        <extensions>
          <ns3:TrackPointExtension>
            <ns3:atemp>20.0</ns3:atemp>
          </ns3:TrackPointExtension>
        </extensions>
      </trkpt>
      <trkpt lat="43.09389545582234859466552734375" lon="12.97397014684975147247314453125">
        <ele>1099.5999755859375</ele>
        <time>2021-05-09T09:07:31.000Z</time>
        <extensions>
          <ns3:TrackPointExtension>
            <ns3:atemp>20.0</ns3:atemp>
          </ns3:TrackPointExtension>
        </extensions>
      </trkpt>
      <trkpt lat="43.093944489955902099609375" lon="12.97384508885443210601806640625">
        <ele>1099.5999755859375</ele>
        <time>2021-05-09T09:07:36.000Z</time>
        <extensions>
          <ns3:TrackPointExtension>
            <ns3:atemp>20.0</ns3:atemp>
          </ns3:TrackPointExtension>
        </extensions>
      </trkpt>
      <trkpt lat="43.094039373099803924560546875" lon="12.97370779328048229217529296875">
        <ele>1099.5999755859375</ele>
        <time>2021-05-09T09:07:42.000Z</time>
        <extensions>
          <ns3:TrackPointExtension>
            <ns3:atemp>20.0</ns3:atemp>
          </ns3:TrackPointExtension>
        </extensions>
      </trkpt>
      <trkpt lat="43.09411556459963321685791015625" lon="12.9736020974814891815185546875">
        <ele>1099.800048828125</ele>
        <time>2021-05-09T09:07:47.000Z</time>
        <extensions>
          <ns3:TrackPointExtension>
            <ns3:atemp>20.0</ns3:atemp>
          </ns3:TrackPointExtension>
        </extensions>
      </trkpt>
      <trkpt lat="43.0941320769488811492919921875" lon="12.97355473972856998443603515625">
        <ele>1100.199951171875</ele>
        <time>2021-05-09T09:07:49.000Z</time>
        <extensions>
          <ns3:TrackPointExtension>
            <ns3:atemp>20.0</ns3:atemp>
          </ns3:TrackPointExtension>
        </extensions>
      </trkpt>
      <trkpt lat="43.0941518582403659820556640625" lon="12.97350629232823848724365234375">
        <ele>1100.800048828125</ele>
        <time>2021-05-09T09:07:52.000Z</time>
        <extensions>
          <ns3:TrackPointExtension>
            <ns3:atemp>20.0</ns3:atemp>
          </ns3:TrackPointExtension>
        </extensions>
      </trkpt>
      <trkpt lat="43.094165436923503875732421875" lon="12.97347159124910831451416015625">
        <ele>1101.199951171875</ele>
        <time>2021-05-09T09:07:54.000Z</time>
        <extensions>
          <ns3:TrackPointExtension>
            <ns3:atemp>20.0</ns3:atemp>
          </ns3:TrackPointExtension>
        </extensions>
      </trkpt>
      <trkpt lat="43.09417909942567348480224609375" lon="12.97339095734059810638427734375">
        <ele>1101.199951171875</ele>
        <time>2021-05-09T09:07:57.000Z</time>
        <extensions>
          <ns3:TrackPointExtension>
            <ns3:atemp>20.0</ns3:atemp>
          </ns3:TrackPointExtension>
        </extensions>
      </trkpt>
      <trkpt lat="43.09423609636723995208740234375" lon="12.9731685854494571685791015625">
        <ele>1101</ele>
        <time>2021-05-09T09:08:03.000Z</time>
        <extensions>
          <ns3:TrackPointExtension>
            <ns3:atemp>20.0</ns3:atemp>
          </ns3:TrackPointExtension>
        </extensions>
      </trkpt>
      <trkpt lat="43.0942676961421966552734375" lon="12.973015196621417999267578125">
        <ele>1100</ele>
        <time>2021-05-09T09:08:07.000Z</time>
        <extensions>
          <ns3:TrackPointExtension>
            <ns3:atemp>20.0</ns3:atemp>
          </ns3:TrackPointExtension>
        </extensions>
      </trkpt>
      <trkpt lat="43.0942759104073047637939453125" lon="12.97298544086515903472900390625">
        <ele>1099.800048828125</ele>
        <time>2021-05-09T09:08:08.000Z</time>
        <extensions>
          <ns3:TrackPointExtension>
            <ns3:atemp>20.0</ns3:atemp>
          </ns3:TrackPointExtension>
        </extensions>
      </trkpt>
      <trkpt lat="43.09428756125271320343017578125" lon="12.97289340756833553314208984375">
        <ele>1098.800048828125</ele>
        <time>2021-05-09T09:08:11.000Z</time>
        <extensions>
          <ns3:TrackPointExtension>
            <ns3:atemp>20.0</ns3:atemp>
          </ns3:TrackPointExtension>
        </extensions>
      </trkpt>
      <trkpt lat="43.09429627843201160430908203125" lon="12.972864322364330291748046875">
        <ele>1098.4000244140625</ele>
        <time>2021-05-09T09:08:12.000Z</time>
        <extensions>
          <ns3:TrackPointExtension>
            <ns3:atemp>20.0</ns3:atemp>
          </ns3:TrackPointExtension>
        </extensions>
      </trkpt>
      <trkpt lat="43.094303570687770843505859375" lon="12.97283582389354705810546875">
        <ele>1097.5999755859375</ele>
        <time>2021-05-09T09:08:13.000Z</time>
        <extensions>
          <ns3:TrackPointExtension>
            <ns3:atemp>20.0</ns3:atemp>
          </ns3:TrackPointExtension>
        </extensions>
      </trkpt>
      <trkpt lat="43.09436903335154056549072265625" lon="12.97271470539271831512451171875">
        <ele>1096.5999755859375</ele>
        <time>2021-05-09T09:08:18.000Z</time>
        <extensions>
          <ns3:TrackPointExtension>
            <ns3:atemp>20.0</ns3:atemp>
          </ns3:TrackPointExtension>
        </extensions>
      </trkpt>
      <trkpt lat="43.09438009746372699737548828125" lon="12.9726995341479778289794921875">
        <ele>1096.4000244140625</ele>
        <time>2021-05-09T09:08:19.000Z</time>
        <extensions>
          <ns3:TrackPointExtension>
            <ns3:atemp>20.0</ns3:atemp>
          </ns3:TrackPointExtension>
        </extensions>
      </trkpt>
      <trkpt lat="43.09439241886138916015625" lon="12.9726874642074108123779296875">
        <ele>1095.800048828125</ele>
        <time>2021-05-09T09:08:22.000Z</time>
        <extensions>
          <ns3:TrackPointExtension>
            <ns3:atemp>20.0</ns3:atemp>
          </ns3:TrackPointExtension>
        </extensions>
      </trkpt>
      <trkpt lat="43.09439937584102153778076171875" lon="12.97267162241041660308837890625">
        <ele>1095.4000244140625</ele>
        <time>2021-05-09T09:08:25.000Z</time>
        <extensions>
          <ns3:TrackPointExtension>
            <ns3:atemp>20.0</ns3:atemp>
          </ns3:TrackPointExtension>
        </extensions>
      </trkpt>
      <trkpt lat="43.09441161341965198516845703125" lon="12.9726391844451427459716796875">
        <ele>1095.199951171875</ele>
        <time>2021-05-09T09:08:27.000Z</time>
        <extensions>
          <ns3:TrackPointExtension>
            <ns3:atemp>20.0</ns3:atemp>
          </ns3:TrackPointExtension>
        </extensions>
      </trkpt>
      <trkpt lat="43.09442049823701381683349609375" lon="12.97260607592761516571044921875">
        <ele>1095</ele>
        <time>2021-05-09T09:08:29.000Z</time>
        <extensions>
          <ns3:TrackPointExtension>
            <ns3:atemp>20.0</ns3:atemp>
          </ns3:TrackPointExtension>
        </extensions>
      </trkpt>
      <trkpt lat="43.09442267753183841705322265625" lon="12.97258629463613033294677734375">
        <ele>1094.800048828125</ele>
        <time>2021-05-09T09:08:35.000Z</time>
        <extensions>
          <ns3:TrackPointExtension>
            <ns3:atemp>20.0</ns3:atemp>
          </ns3:TrackPointExtension>
        </extensions>
      </trkpt>
      <trkpt lat="43.094425611197948455810546875" lon="12.97258093021810054779052734375">
        <ele>1094.5999755859375</ele>
        <time>2021-05-09T09:08:45.000Z</time>
        <extensions>
          <ns3:TrackPointExtension>
            <ns3:atemp>20.0</ns3:atemp>
          </ns3:TrackPointExtension>
        </extensions>
      </trkpt>
      <trkpt lat="43.09443441219627857208251953125" lon="12.97258310951292514801025390625">
        <ele>1094.5999755859375</ele>
        <time>2021-05-09T09:08:52.000Z</time>
        <extensions>
          <ns3:TrackPointExtension>
            <ns3:atemp>20.0</ns3:atemp>
          </ns3:TrackPointExtension>
        </extensions>
      </trkpt>
      <trkpt lat="43.0944355018436908721923828125" lon="12.97255243174731731414794921875">
        <ele>1094.5999755859375</ele>
        <time>2021-05-09T09:09:00.000Z</time>
        <extensions>
          <ns3:TrackPointExtension>
            <ns3:atemp>20.0</ns3:atemp>
          </ns3:TrackPointExtension>
        </extensions>
      </trkpt>
      <trkpt lat="43.094432316720485687255859375" lon="12.97248252667486667633056640625">
        <ele>1094.4000244140625</ele>
        <time>2021-05-09T09:09:11.000Z</time>
        <extensions>
          <ns3:TrackPointExtension>
            <ns3:atemp>20.0</ns3:atemp>
          </ns3:TrackPointExtension>
        </extensions>
      </trkpt>
      <trkpt lat="43.0944147147238254547119140625" lon="12.97245025634765625">
        <ele>1094.4000244140625</ele>
        <time>2021-05-09T09:09:13.000Z</time>
        <extensions>
          <ns3:TrackPointExtension>
            <ns3:atemp>20.0</ns3:atemp>
          </ns3:TrackPointExtension>
        </extensions>
      </trkpt>
      <trkpt lat="43.09439501725137233734130859375" lon="12.97242469154298305511474609375">
        <ele>1094.4000244140625</ele>
        <time>2021-05-09T09:09:16.000Z</time>
        <extensions>
          <ns3:TrackPointExtension>
            <ns3:atemp>20.0</ns3:atemp>
          </ns3:TrackPointExtension>
        </extensions>
      </trkpt>
      <trkpt lat="43.09438101947307586669921875" lon="12.97238923609256744384765625">
        <ele>1094.199951171875</ele>
        <time>2021-05-09T09:09:19.000Z</time>
        <extensions>
          <ns3:TrackPointExtension>
            <ns3:atemp>20.0</ns3:atemp>
          </ns3:TrackPointExtension>
        </extensions>
      </trkpt>
      <trkpt lat="43.09433097951114177703857421875" lon="12.97235093079507350921630859375">
        <ele>1093</ele>
        <time>2021-05-09T09:09:23.000Z</time>
        <extensions>
          <ns3:TrackPointExtension>
            <ns3:atemp>20.0</ns3:atemp>
          </ns3:TrackPointExtension>
        </extensions>
      </trkpt>
      <trkpt lat="43.09423760510981082916259765625" lon="12.972255460917949676513671875">
        <ele>1092.800048828125</ele>
        <time>2021-05-09T09:09:29.000Z</time>
        <extensions>
          <ns3:TrackPointExtension>
            <ns3:atemp>20.0</ns3:atemp>
          </ns3:TrackPointExtension>
        </extensions>
      </trkpt>
      <trkpt lat="43.09412444941699504852294921875" lon="12.97214113175868988037109375">
        <ele>1092.4000244140625</ele>
        <time>2021-05-09T09:09:34.000Z</time>
        <extensions>
          <ns3:TrackPointExtension>
            <ns3:atemp>20.0</ns3:atemp>
          </ns3:TrackPointExtension>
        </extensions>
      </trkpt>
      <trkpt lat="43.09407432563602924346923828125" lon="12.9720071889460086822509765625">
        <ele>1091.800048828125</ele>
        <time>2021-05-09T09:09:38.000Z</time>
        <extensions>
          <ns3:TrackPointExtension>
            <ns3:atemp>20.0</ns3:atemp>
          </ns3:TrackPointExtension>
        </extensions>
      </trkpt>
      <trkpt lat="43.0940692126750946044921875" lon="12.97197760082781314849853515625">
        <ele>1091.199951171875</ele>
        <time>2021-05-09T09:09:39.000Z</time>
        <extensions>
          <ns3:TrackPointExtension>
            <ns3:atemp>20.0</ns3:atemp>
          </ns3:TrackPointExtension>
        </extensions>
      </trkpt>
      <trkpt lat="43.0940633453428745269775390625" lon="12.97195044346153736114501953125">
        <ele>1090.800048828125</ele>
        <time>2021-05-09T09:09:40.000Z</time>
        <extensions>
          <ns3:TrackPointExtension>
            <ns3:atemp>20.0</ns3:atemp>
          </ns3:TrackPointExtension>
        </extensions>
      </trkpt>
      <trkpt lat="43.09405672363936901092529296875" lon="12.97192328609526157379150390625">
        <ele>1089.800048828125</ele>
        <time>2021-05-09T09:09:41.000Z</time>
        <extensions>
          <ns3:TrackPointExtension>
            <ns3:atemp>20.0</ns3:atemp>
          </ns3:TrackPointExtension>
        </extensions>
      </trkpt>
      <trkpt lat="43.09404331259429454803466796875" lon="12.97186561860144138336181640625">
        <ele>1088.4000244140625</ele>
        <time>2021-05-09T09:09:43.000Z</time>
        <extensions>
          <ns3:TrackPointExtension>
            <ns3:atemp>20.0</ns3:atemp>
          </ns3:TrackPointExtension>
        </extensions>
      </trkpt>
      <trkpt lat="43.0940262973308563232421875" lon="12.97174039296805858612060546875">
        <ele>1087.4000244140625</ele>
        <time>2021-05-09T09:09:47.000Z</time>
        <extensions>
          <ns3:TrackPointExtension>
            <ns3:atemp>20.0</ns3:atemp>
          </ns3:TrackPointExtension>
        </extensions>
      </trkpt>
      <trkpt lat="43.09400659985840320587158203125" lon="12.97163444571197032928466796875">
        <ele>1086.199951171875</ele>
        <time>2021-05-09T09:09:52.000Z</time>
        <extensions>
          <ns3:TrackPointExtension>
            <ns3:atemp>20.0</ns3:atemp>
          </ns3:TrackPointExtension>
        </extensions>
      </trkpt>
      <trkpt lat="43.09400282800197601318359375" lon="12.9716165922582149505615234375">
        <ele>1086</ele>
        <time>2021-05-09T09:09:53.000Z</time>
        <extensions>
          <ns3:TrackPointExtension>
            <ns3:atemp>20.0</ns3:atemp>
          </ns3:TrackPointExtension>
        </extensions>
      </trkpt>
      <trkpt lat="43.09398665092885494232177734375" lon="12.9715830646455287933349609375">
        <ele>1085.199951171875</ele>
        <time>2021-05-09T09:09:55.000Z</time>
        <extensions>
          <ns3:TrackPointExtension>
            <ns3:atemp>20.0</ns3:atemp>
          </ns3:TrackPointExtension>
        </extensions>
      </trkpt>
      <trkpt lat="43.09397994540631771087646484375" lon="12.97156655229628086090087890625">
        <ele>1084.5999755859375</ele>
        <time>2021-05-09T09:09:56.000Z</time>
        <extensions>
          <ns3:TrackPointExtension>
            <ns3:atemp>20.0</ns3:atemp>
          </ns3:TrackPointExtension>
        </extensions>
      </trkpt>
      <trkpt lat="43.09398011304438114166259765625" lon="12.9715133272111415863037109375">
        <ele>1084</ele>
        <time>2021-05-09T09:09:58.000Z</time>
        <extensions>
          <ns3:TrackPointExtension>
            <ns3:atemp>20.0</ns3:atemp>
          </ns3:TrackPointExtension>
        </extensions>
      </trkpt>
      <trkpt lat="43.094014562666416168212890625" lon="12.97135801054537296295166015625">
        <ele>1082.800048828125</ele>
        <time>2021-05-09T09:10:02.000Z</time>
        <extensions>
          <ns3:TrackPointExtension>
            <ns3:atemp>20.0</ns3:atemp>
          </ns3:TrackPointExtension>
        </extensions>
      </trkpt>
      <trkpt lat="43.094022274017333984375" lon="12.97132163308560848236083984375">
        <ele>1082.4000244140625</ele>
        <time>2021-05-09T09:10:03.000Z</time>
        <extensions>
          <ns3:TrackPointExtension>
            <ns3:atemp>20.0</ns3:atemp>
          </ns3:TrackPointExtension>
        </extensions>
      </trkpt>
      <trkpt lat="43.09402755461633205413818359375" lon="12.97128693200647830963134765625">
        <ele>1081.800048828125</ele>
        <time>2021-05-09T09:10:04.000Z</time>
        <extensions>
          <ns3:TrackPointExtension>
            <ns3:atemp>20.0</ns3:atemp>
          </ns3:TrackPointExtension>
        </extensions>
      </trkpt>
      <trkpt lat="43.09405253268778324127197265625" lon="12.9711743630468845367431640625">
        <ele>1080.4000244140625</ele>
        <time>2021-05-09T09:10:07.000Z</time>
        <extensions>
          <ns3:TrackPointExtension>
            <ns3:atemp>20.0</ns3:atemp>
          </ns3:TrackPointExtension>
        </extensions>
      </trkpt>
      <trkpt lat="43.0940697155892848968505859375" lon="12.9711036197841167449951171875">
        <ele>1079.5999755859375</ele>
        <time>2021-05-09T09:10:09.000Z</time>
        <extensions>
          <ns3:TrackPointExtension>
            <ns3:atemp>20.0</ns3:atemp>
          </ns3:TrackPointExtension>
        </extensions>
      </trkpt>
      <trkpt lat="43.094077594578266143798828125" lon="12.97107235528528690338134765625">
        <ele>1079</ele>
        <time>2021-05-09T09:10:10.000Z</time>
        <extensions>
          <ns3:TrackPointExtension>
            <ns3:atemp>20.0</ns3:atemp>
          </ns3:TrackPointExtension>
        </extensions>
      </trkpt>
      <trkpt lat="43.09410332702100276947021484375" lon="12.9710177890956401824951171875">
        <ele>1077.800048828125</ele>
        <time>2021-05-09T09:10:12.000Z</time>
        <extensions>
          <ns3:TrackPointExtension>
            <ns3:atemp>20.0</ns3:atemp>
          </ns3:TrackPointExtension>
        </extensions>
      </trkpt>
      <trkpt lat="43.0941320769488811492919921875" lon="12.97096431255340576171875">
        <ele>1076.5999755859375</ele>
        <time>2021-05-09T09:10:14.000Z</time>
        <extensions>
          <ns3:TrackPointExtension>
            <ns3:atemp>20.0</ns3:atemp>
          </ns3:TrackPointExtension>
        </extensions>
      </trkpt>
      <trkpt lat="43.094162754714488983154296875" lon="12.97090622596442699432373046875">
        <ele>1075.199951171875</ele>
        <time>2021-05-09T09:10:16.000Z</time>
        <extensions>
          <ns3:TrackPointExtension>
            <ns3:atemp>20.0</ns3:atemp>
          </ns3:TrackPointExtension>
        </extensions>
      </trkpt>
      <trkpt lat="43.09419452212750911712646484375" lon="12.9708347283303737640380859375">
        <ele>1073.800048828125</ele>
        <time>2021-05-09T09:10:18.000Z</time>
        <extensions>
          <ns3:TrackPointExtension>
            <ns3:atemp>20.0</ns3:atemp>
          </ns3:TrackPointExtension>
        </extensions>
      </trkpt>
      <trkpt lat="43.0942276306450366973876953125" lon="12.97076306305825710296630859375">
        <ele>1073</ele>
        <time>2021-05-09T09:10:20.000Z</time>
        <extensions>
          <ns3:TrackPointExtension>
            <ns3:atemp>20.0</ns3:atemp>
          </ns3:TrackPointExtension>
        </extensions>
      </trkpt>
      <trkpt lat="43.094276748597621917724609375" lon="12.97066968865692615509033203125">
        <ele>1071.800048828125</ele>
        <time>2021-05-09T09:10:23.000Z</time>
        <extensions>
          <ns3:TrackPointExtension>
            <ns3:atemp>20.0</ns3:atemp>
          </ns3:TrackPointExtension>
        </extensions>
      </trkpt>
      <trkpt lat="43.09432963840663433074951171875" lon="12.97056927345693111419677734375">
        <ele>1070.4000244140625</ele>
        <time>2021-05-09T09:10:26.000Z</time>
        <extensions>
          <ns3:TrackPointExtension>
            <ns3:atemp>20.0</ns3:atemp>
          </ns3:TrackPointExtension>
        </extensions>
      </trkpt>
      <trkpt lat="43.09438194148242473602294921875" lon="12.97044807113707065582275390625">
        <ele>1069</ele>
        <time>2021-05-09T09:10:29.000Z</time>
        <extensions>
          <ns3:TrackPointExtension>
            <ns3:atemp>20.0</ns3:atemp>
          </ns3:TrackPointExtension>
        </extensions>
      </trkpt>
      <trkpt lat="43.094400800764560699462890625" lon="12.9703809320926666259765625">
        <ele>1068.4000244140625</ele>
        <time>2021-05-09T09:10:31.000Z</time>
        <extensions>
          <ns3:TrackPointExtension>
            <ns3:atemp>20.0</ns3:atemp>
          </ns3:TrackPointExtension>
        </extensions>
      </trkpt>
      <trkpt lat="43.09443927370011806488037109375" lon="12.97031697817146778106689453125">
        <ele>1068</ele>
        <time>2021-05-09T09:10:33.000Z</time>
        <extensions>
          <ns3:TrackPointExtension>
            <ns3:atemp>20.0</ns3:atemp>
          </ns3:TrackPointExtension>
        </extensions>
      </trkpt>
      <trkpt lat="43.09450129978358745574951171875" lon="12.9701920039951801300048828125">
        <ele>1066.800048828125</ele>
        <time>2021-05-09T09:10:36.000Z</time>
        <extensions>
          <ns3:TrackPointExtension>
            <ns3:atemp>20.0</ns3:atemp>
          </ns3:TrackPointExtension>
        </extensions>
      </trkpt>
      <trkpt lat="43.094545640051364898681640625" lon="12.970066107809543609619140625">
        <ele>1065.199951171875</ele>
        <time>2021-05-09T09:10:39.000Z</time>
        <extensions>
          <ns3:TrackPointExtension>
            <ns3:atemp>20.0</ns3:atemp>
          </ns3:TrackPointExtension>
        </extensions>
      </trkpt>
      <trkpt lat="43.09457321651279926300048828125" lon="12.97000684775412082672119140625">
        <ele>1064.5999755859375</ele>
        <time>2021-05-09T09:10:41.000Z</time>
        <extensions>
          <ns3:TrackPointExtension>
            <ns3:atemp>20.0</ns3:atemp>
          </ns3:TrackPointExtension>
        </extensions>
      </trkpt>
      <trkpt lat="43.09458947740495204925537109375" lon="12.9699718952178955078125">
        <ele>1064.199951171875</ele>
        <time>2021-05-09T09:10:42.000Z</time>
        <extensions>
          <ns3:TrackPointExtension>
            <ns3:atemp>20.0</ns3:atemp>
          </ns3:TrackPointExtension>
        </extensions>
      </trkpt>
      <trkpt lat="43.0946192331612110137939453125" lon="12.96988950110971927642822265625">
        <ele>1063.199951171875</ele>
        <time>2021-05-09T09:10:44.000Z</time>
        <extensions>
          <ns3:TrackPointExtension>
            <ns3:atemp>20.0</ns3:atemp>
          </ns3:TrackPointExtension>
        </extensions>
      </trkpt>
      <trkpt lat="43.09464915655553340911865234375" lon="12.969799228012561798095703125">
        <ele>1062</ele>
        <time>2021-05-09T09:10:46.000Z</time>
        <extensions>
          <ns3:TrackPointExtension>
            <ns3:atemp>20.0</ns3:atemp>
          </ns3:TrackPointExtension>
        </extensions>
      </trkpt>
      <trkpt lat="43.09468553401529788970947265625" lon="12.969697304069995880126953125">
        <ele>1061.199951171875</ele>
        <time>2021-05-09T09:10:48.000Z</time>
        <extensions>
          <ns3:TrackPointExtension>
            <ns3:atemp>20.0</ns3:atemp>
          </ns3:TrackPointExtension>
        </extensions>
      </trkpt>
      <trkpt lat="43.09470280073583126068115234375" lon="12.96964466571807861328125">
        <ele>1060.800048828125</ele>
        <time>2021-05-09T09:10:49.000Z</time>
        <extensions>
          <ns3:TrackPointExtension>
            <ns3:atemp>20.0</ns3:atemp>
          </ns3:TrackPointExtension>
        </extensions>
      </trkpt>
      <trkpt lat="43.09475040994584560394287109375" lon="12.9694433324038982391357421875">
        <ele>1059.199951171875</ele>
        <time>2021-05-09T09:10:53.000Z</time>
        <extensions>
          <ns3:TrackPointExtension>
            <ns3:atemp>20.0</ns3:atemp>
          </ns3:TrackPointExtension>
        </extensions>
      </trkpt>
      <trkpt lat="43.09475409798324108123779296875" lon="12.96939144842326641082763671875">
        <ele>1058.4000244140625</ele>
        <time>2021-05-09T09:10:54.000Z</time>
        <extensions>
          <ns3:TrackPointExtension>
            <ns3:atemp>20.0</ns3:atemp>
          </ns3:TrackPointExtension>
        </extensions>
      </trkpt>
      <trkpt lat="43.09475644491612911224365234375" lon="12.9693400673568248748779296875">
        <ele>1057.5999755859375</ele>
        <time>2021-05-09T09:10:55.000Z</time>
        <extensions>
          <ns3:TrackPointExtension>
            <ns3:atemp>20.0</ns3:atemp>
          </ns3:TrackPointExtension>
        </extensions>
      </trkpt>
      <trkpt lat="43.094762228429317474365234375" lon="12.9692383110523223876953125">
        <ele>1056.199951171875</ele>
        <time>2021-05-09T09:10:57.000Z</time>
        <extensions>
          <ns3:TrackPointExtension>
            <ns3:atemp>20.0</ns3:atemp>
          </ns3:TrackPointExtension>
        </extensions>
      </trkpt>
      <trkpt lat="43.09477622620761394500732421875" lon="12.96913839876651763916015625">
        <ele>1054.5999755859375</ele>
        <time>2021-05-09T09:10:59.000Z</time>
        <extensions>
          <ns3:TrackPointExtension>
            <ns3:atemp>19.0</ns3:atemp>
          </ns3:TrackPointExtension>
        </extensions>
      </trkpt>
      <trkpt lat="43.09477890841662883758544921875" lon="12.96904711984097957611083984375">
        <ele>1053.199951171875</ele>
        <time>2021-05-09T09:11:01.000Z</time>
        <extensions>
          <ns3:TrackPointExtension>
            <ns3:atemp>19.0</ns3:atemp>
          </ns3:TrackPointExtension>
        </extensions>
      </trkpt>
      <trkpt lat="43.0947808362543582916259765625" lon="12.9689739458262920379638671875">
        <ele>1051.4000244140625</ele>
        <time>2021-05-09T09:11:03.000Z</time>
        <extensions>
          <ns3:TrackPointExtension>
            <ns3:atemp>19.0</ns3:atemp>
          </ns3:TrackPointExtension>
        </extensions>
      </trkpt>
      <trkpt lat="43.094782344996929168701171875" lon="12.9689226485788822174072265625">
        <ele>1049.5999755859375</ele>
        <time>2021-05-09T09:11:05.000Z</time>
        <extensions>
          <ns3:TrackPointExtension>
            <ns3:atemp>19.0</ns3:atemp>
          </ns3:TrackPointExtension>
        </extensions>
      </trkpt>
      <trkpt lat="43.09477454982697963714599609375" lon="12.968906722962856292724609375">
        <ele>1048.800048828125</ele>
        <time>2021-05-09T09:11:06.000Z</time>
        <extensions>
          <ns3:TrackPointExtension>
            <ns3:atemp>19.0</ns3:atemp>
          </ns3:TrackPointExtension>
        </extensions>
      </trkpt>
      <trkpt lat="43.09476650319993495941162109375" lon="12.9689025320112705230712890625">
        <ele>1047.800048828125</ele>
        <time>2021-05-09T09:11:07.000Z</time>
        <extensions>
          <ns3:TrackPointExtension>
            <ns3:atemp>19.0</ns3:atemp>
          </ns3:TrackPointExtension>
        </extensions>
      </trkpt>
      <trkpt lat="43.09476633556187152862548828125" lon="12.9689030349254608154296875">
        <ele>1046.199951171875</ele>
        <time>2021-05-09T09:11:08.000Z</time>
        <extensions>
          <ns3:TrackPointExtension>
            <ns3:atemp>19.0</ns3:atemp>
          </ns3:TrackPointExtension>
        </extensions>
      </trkpt>
      <trkpt lat="43.09476549737155437469482421875" lon="12.9689025320112705230712890625">
        <ele>1044.800048828125</ele>
        <time>2021-05-09T09:11:10.000Z</time>
        <extensions>
          <ns3:TrackPointExtension>
            <ns3:atemp>19.0</ns3:atemp>
          </ns3:TrackPointExtension>
        </extensions>
      </trkpt>
      <trkpt lat="43.09476549737155437469482421875" lon="12.9689011909067630767822265625">
        <ele>1043.5999755859375</ele>
        <time>2021-05-09T09:11:12.000Z</time>
        <extensions>
          <ns3:TrackPointExtension>
            <ns3:atemp>19.0</ns3:atemp>
          </ns3:TrackPointExtension>
        </extensions>
      </trkpt>
      <trkpt lat="43.094765581190586090087890625" lon="12.9689011909067630767822265625">
        <ele>1042.4000244140625</ele>
        <time>2021-05-09T09:11:15.000Z</time>
        <extensions>
          <ns3:TrackPointExtension>
            <ns3:atemp>19.0</ns3:atemp>
          </ns3:TrackPointExtension>
        </extensions>
      </trkpt>
      <trkpt lat="43.09476583264768123626708984375" lon="12.96890102326869964599609375">
        <ele>1042</ele>
        <time>2021-05-09T09:11:34.000Z</time>
        <extensions>
          <ns3:TrackPointExtension>
            <ns3:atemp>19.0</ns3:atemp>
          </ns3:TrackPointExtension>
        </extensions>
      </trkpt>
      <trkpt lat="43.09476516209542751312255859375" lon="12.96889741905033588409423828125">
        <ele>1041.800048828125</ele>
        <time>2021-05-09T09:11:55.000Z</time>
        <extensions>
          <ns3:TrackPointExtension>
            <ns3:atemp>20.0</ns3:atemp>
          </ns3:TrackPointExtension>
        </extensions>
      </trkpt>
      <trkpt lat="43.094759546220302581787109375" lon="12.96887663193047046661376953125">
        <ele>1041.800048828125</ele>
        <time>2021-05-09T09:11:57.000Z</time>
        <extensions>
          <ns3:TrackPointExtension>
            <ns3:atemp>20.0</ns3:atemp>
          </ns3:TrackPointExtension>
        </extensions>
      </trkpt>
      <trkpt lat="43.09477270580828189849853515625" lon="12.9688247479498386383056640625">
        <ele>1041.5999755859375</ele>
        <time>2021-05-09T09:11:59.000Z</time>
        <extensions>
          <ns3:TrackPointExtension>
            <ns3:atemp>20.0</ns3:atemp>
          </ns3:TrackPointExtension>
        </extensions>
      </trkpt>
      <trkpt lat="43.09478913433849811553955078125" lon="12.96866230666637420654296875">
        <ele>1041.5999755859375</ele>
        <time>2021-05-09T09:12:02.000Z</time>
        <extensions>
          <ns3:TrackPointExtension>
            <ns3:atemp>20.0</ns3:atemp>
          </ns3:TrackPointExtension>
        </extensions>
      </trkpt>
      <trkpt lat="43.0947885476052761077880859375" lon="12.9685924015939235687255859375">
        <ele>1041.5999755859375</ele>
        <time>2021-05-09T09:12:03.000Z</time>
        <extensions>
          <ns3:TrackPointExtension>
            <ns3:atemp>20.0</ns3:atemp>
          </ns3:TrackPointExtension>
        </extensions>
      </trkpt>
      <trkpt lat="43.09478293173015117645263671875" lon="12.9685209877789020538330078125">
        <ele>1041.5999755859375</ele>
        <time>2021-05-09T09:12:04.000Z</time>
        <extensions>
          <ns3:TrackPointExtension>
            <ns3:atemp>20.0</ns3:atemp>
          </ns3:TrackPointExtension>
        </extensions>
      </trkpt>
      <trkpt lat="43.09476952068507671356201171875" lon="12.96845376491546630859375">
        <ele>1041.4000244140625</ele>
        <time>2021-05-09T09:12:05.000Z</time>
        <extensions>
          <ns3:TrackPointExtension>
            <ns3:atemp>20.0</ns3:atemp>
          </ns3:TrackPointExtension>
        </extensions>
      </trkpt>
      <trkpt lat="43.09473104774951934814453125" lon="12.96835393644869327545166015625">
        <ele>1040.5999755859375</ele>
        <time>2021-05-09T09:12:07.000Z</time>
        <extensions>
          <ns3:TrackPointExtension>
            <ns3:atemp>20.0</ns3:atemp>
          </ns3:TrackPointExtension>
        </extensions>
      </trkpt>
      <trkpt lat="43.09471034444868564605712890625" lon="12.96831630170345306396484375">
        <ele>1040.199951171875</ele>
        <time>2021-05-09T09:12:08.000Z</time>
        <extensions>
          <ns3:TrackPointExtension>
            <ns3:atemp>20.0</ns3:atemp>
          </ns3:TrackPointExtension>
        </extensions>
      </trkpt>
      <trkpt lat="43.094638176262378692626953125" lon="12.96819501556456089019775390625">
        <ele>1039.199951171875</ele>
        <time>2021-05-09T09:12:12.000Z</time>
        <extensions>
          <ns3:TrackPointExtension>
            <ns3:atemp>20.0</ns3:atemp>
          </ns3:TrackPointExtension>
        </extensions>
      </trkpt>
      <trkpt lat="43.0946195684373378753662109375" lon="12.96817070804536342620849609375">
        <ele>1039.199951171875</ele>
        <time>2021-05-09T09:12:13.000Z</time>
        <extensions>
          <ns3:TrackPointExtension>
            <ns3:atemp>20.0</ns3:atemp>
          </ns3:TrackPointExtension>
        </extensions>
      </trkpt>
      <trkpt lat="43.094469867646694183349609375" lon="12.96799317933619022369384765625">
        <ele>1039.5999755859375</ele>
        <time>2021-05-09T09:12:21.000Z</time>
        <extensions>
          <ns3:TrackPointExtension>
            <ns3:atemp>20.0</ns3:atemp>
          </ns3:TrackPointExtension>
        </extensions>
      </trkpt>
      <trkpt lat="43.09439602307975292205810546875" lon="12.96791397035121917724609375">
        <ele>1040.4000244140625</ele>
        <time>2021-05-09T09:12:25.000Z</time>
        <extensions>
          <ns3:TrackPointExtension>
            <ns3:atemp>20.0</ns3:atemp>
          </ns3:TrackPointExtension>
        </extensions>
      </trkpt>
      <trkpt lat="43.09433818794786930084228515625" lon="12.9678712226450443267822265625">
        <ele>1041.4000244140625</ele>
        <time>2021-05-09T09:12:28.000Z</time>
        <extensions>
          <ns3:TrackPointExtension>
            <ns3:atemp>20.0</ns3:atemp>
          </ns3:TrackPointExtension>
        </extensions>
      </trkpt>
      <trkpt lat="43.09432201087474822998046875" lon="12.9678517766296863555908203125">
        <ele>1041.800048828125</ele>
        <time>2021-05-09T09:12:29.000Z</time>
        <extensions>
          <ns3:TrackPointExtension>
            <ns3:atemp>20.0</ns3:atemp>
          </ns3:TrackPointExtension>
        </extensions>
      </trkpt>
      <trkpt lat="43.09424422681331634521484375" lon="12.96777709387242794036865234375">
        <ele>1042.5999755859375</ele>
        <time>2021-05-09T09:12:33.000Z</time>
        <extensions>
          <ns3:TrackPointExtension>
            <ns3:atemp>20.0</ns3:atemp>
          </ns3:TrackPointExtension>
        </extensions>
      </trkpt>
      <trkpt lat="43.0942068435251712799072265625" lon="12.96773560345172882080078125">
        <ele>1042.800048828125</ele>
        <time>2021-05-09T09:12:35.000Z</time>
        <extensions>
          <ns3:TrackPointExtension>
            <ns3:atemp>20.0</ns3:atemp>
          </ns3:TrackPointExtension>
        </extensions>
      </trkpt>
      <trkpt lat="43.09412981383502483367919921875" lon="12.96763476915657520294189453125">
        <ele>1044</ele>
        <time>2021-05-09T09:12:39.000Z</time>
        <extensions>
          <ns3:TrackPointExtension>
            <ns3:atemp>20.0</ns3:atemp>
          </ns3:TrackPointExtension>
        </extensions>
      </trkpt>
      <trkpt lat="43.0941109545528888702392578125" lon="12.967601157724857330322265625">
        <ele>1044.199951171875</ele>
        <time>2021-05-09T09:12:40.000Z</time>
        <extensions>
          <ns3:TrackPointExtension>
            <ns3:atemp>20.0</ns3:atemp>
          </ns3:TrackPointExtension>
        </extensions>
      </trkpt>
      <trkpt lat="43.09407918713986873626708984375" lon="12.9674470983445644378662109375">
        <ele>1045</ele>
        <time>2021-05-09T09:12:43.000Z</time>
        <extensions>
          <ns3:TrackPointExtension>
            <ns3:atemp>20.0</ns3:atemp>
          </ns3:TrackPointExtension>
        </extensions>
      </trkpt>
      <trkpt lat="43.09407390654087066650390625" lon="12.96737710945308208465576171875">
        <ele>1045</ele>
        <time>2021-05-09T09:12:44.000Z</time>
        <extensions>
          <ns3:TrackPointExtension>
            <ns3:atemp>20.0</ns3:atemp>
          </ns3:TrackPointExtension>
        </extensions>
      </trkpt>
      <trkpt lat="43.0940019898116588592529296875" lon="12.9671086370944976806640625">
        <ele>1045.199951171875</ele>
        <time>2021-05-09T09:12:48.000Z</time>
        <extensions>
          <ns3:TrackPointExtension>
            <ns3:atemp>20.0</ns3:atemp>
          </ns3:TrackPointExtension>
        </extensions>
      </trkpt>
      <trkpt lat="43.09389553964138031005859375" lon="12.96701367013156414031982421875">
        <ele>1045.199951171875</ele>
        <time>2021-05-09T09:12:51.000Z</time>
        <extensions>
          <ns3:TrackPointExtension>
            <ns3:atemp>20.0</ns3:atemp>
          </ns3:TrackPointExtension>
        </extensions>
      </trkpt>
      <trkpt lat="43.0937337689101696014404296875" lon="12.9669813998043537139892578125">
        <ele>1044.800048828125</ele>
        <time>2021-05-09T09:12:56.000Z</time>
        <extensions>
          <ns3:TrackPointExtension>
            <ns3:atemp>20.0</ns3:atemp>
          </ns3:TrackPointExtension>
        </extensions>
      </trkpt>
      <trkpt lat="43.09351064264774322509765625" lon="12.9669411666691303253173828125">
        <ele>1044.199951171875</ele>
        <time>2021-05-09T09:13:01.000Z</time>
        <extensions>
          <ns3:TrackPointExtension>
            <ns3:atemp>20.0</ns3:atemp>
          </ns3:TrackPointExtension>
        </extensions>
      </trkpt>
      <trkpt lat="43.0934675596654415130615234375" lon="12.966924570500850677490234375">
        <ele>1043.800048828125</ele>
        <time>2021-05-09T09:13:02.000Z</time>
        <extensions>
          <ns3:TrackPointExtension>
            <ns3:atemp>20.0</ns3:atemp>
          </ns3:TrackPointExtension>
        </extensions>
      </trkpt>
      <trkpt lat="43.09328592382371425628662109375" lon="12.966834716498851776123046875">
        <ele>1042.5999755859375</ele>
        <time>2021-05-09T09:13:06.000Z</time>
        <extensions>
          <ns3:TrackPointExtension>
            <ns3:atemp>20.0</ns3:atemp>
          </ns3:TrackPointExtension>
        </extensions>
      </trkpt>
      <trkpt lat="43.09319078922271728515625" lon="12.9667839221656322479248046875">
        <ele>1041.5999755859375</ele>
        <time>2021-05-09T09:13:08.000Z</time>
        <extensions>
          <ns3:TrackPointExtension>
            <ns3:atemp>20.0</ns3:atemp>
          </ns3:TrackPointExtension>
        </extensions>
      </trkpt>
      <trkpt lat="43.09314175508916378021240234375" lon="12.966762967407703399658203125">
        <ele>1040.800048828125</ele>
        <time>2021-05-09T09:13:09.000Z</time>
        <extensions>
          <ns3:TrackPointExtension>
            <ns3:atemp>20.0</ns3:atemp>
          </ns3:TrackPointExtension>
        </extensions>
      </trkpt>
      <trkpt lat="43.09304796159267425537109375" lon="12.9667141847312450408935546875">
        <ele>1039.5999755859375</ele>
        <time>2021-05-09T09:13:11.000Z</time>
        <extensions>
          <ns3:TrackPointExtension>
            <ns3:atemp>20.0</ns3:atemp>
          </ns3:TrackPointExtension>
        </extensions>
      </trkpt>
      <trkpt lat="43.0929991789162158966064453125" lon="12.96668711118400096893310546875">
        <ele>1038.800048828125</ele>
        <time>2021-05-09T09:13:12.000Z</time>
        <extensions>
          <ns3:TrackPointExtension>
            <ns3:atemp>20.0</ns3:atemp>
          </ns3:TrackPointExtension>
        </extensions>
      </trkpt>
      <trkpt lat="43.09295081533491611480712890625" lon="12.96666263602674007415771484375">
        <ele>1037.800048828125</ele>
        <time>2021-05-09T09:13:13.000Z</time>
        <extensions>
          <ns3:TrackPointExtension>
            <ns3:atemp>20.0</ns3:atemp>
          </ns3:TrackPointExtension>
        </extensions>
      </trkpt>
      <trkpt lat="43.09290270321071147918701171875" lon="12.96663698740303516387939453125">
        <ele>1037.4000244140625</ele>
        <time>2021-05-09T09:13:14.000Z</time>
        <extensions>
          <ns3:TrackPointExtension>
            <ns3:atemp>20.0</ns3:atemp>
          </ns3:TrackPointExtension>
        </extensions>
      </trkpt>
      <trkpt lat="43.09281033463776111602783203125" lon="12.96658535487949848175048828125">
        <ele>1036.5999755859375</ele>
        <time>2021-05-09T09:13:16.000Z</time>
        <extensions>
          <ns3:TrackPointExtension>
            <ns3:atemp>20.0</ns3:atemp>
          </ns3:TrackPointExtension>
        </extensions>
      </trkpt>
      <trkpt lat="43.092721737921237945556640625" lon="12.9665271006524562835693359375">
        <ele>1035</ele>
        <time>2021-05-09T09:13:18.000Z</time>
        <extensions>
          <ns3:TrackPointExtension>
            <ns3:atemp>20.0</ns3:atemp>
          </ns3:TrackPointExtension>
        </extensions>
      </trkpt>
      <trkpt lat="43.09262844733893871307373046875" lon="12.9664623923599720001220703125">
        <ele>1033.5999755859375</ele>
        <time>2021-05-09T09:13:20.000Z</time>
        <extensions>
          <ns3:TrackPointExtension>
            <ns3:atemp>20.0</ns3:atemp>
          </ns3:TrackPointExtension>
        </extensions>
      </trkpt>
      <trkpt lat="43.09257681481540203094482421875" lon="12.96642324887216091156005859375">
        <ele>1032.800048828125</ele>
        <time>2021-05-09T09:13:21.000Z</time>
        <extensions>
          <ns3:TrackPointExtension>
            <ns3:atemp>20.0</ns3:atemp>
          </ns3:TrackPointExtension>
        </extensions>
      </trkpt>
      <trkpt lat="43.09252534992992877960205078125" lon="12.9663785733282566070556640625">
        <ele>1032</ele>
        <time>2021-05-09T09:13:22.000Z</time>
        <extensions>
          <ns3:TrackPointExtension>
            <ns3:atemp>20.0</ns3:atemp>
          </ns3:TrackPointExtension>
        </extensions>
      </trkpt>
      <trkpt lat="43.092428706586360931396484375" lon="12.96626432798802852630615234375">
        <ele>1030.800048828125</ele>
        <time>2021-05-09T09:13:24.000Z</time>
        <extensions>
          <ns3:TrackPointExtension>
            <ns3:atemp>20.0</ns3:atemp>
          </ns3:TrackPointExtension>
        </extensions>
      </trkpt>
      <trkpt lat="43.0923752300441265106201171875" lon="12.96620012260973453521728515625">
        <ele>1030.199951171875</ele>
        <time>2021-05-09T09:13:25.000Z</time>
        <extensions>
          <ns3:TrackPointExtension>
            <ns3:atemp>20.0</ns3:atemp>
          </ns3:TrackPointExtension>
        </extensions>
      </trkpt>
      <trkpt lat="43.09231630526483058929443359375" lon="12.9661344923079013824462890625">
        <ele>1029.199951171875</ele>
        <time>2021-05-09T09:13:26.000Z</time>
        <extensions>
          <ns3:TrackPointExtension>
            <ns3:atemp>20.0</ns3:atemp>
          </ns3:TrackPointExtension>
        </extensions>
      </trkpt>
      <trkpt lat="43.0921921692788600921630859375" lon="12.9659950174391269683837890625">
        <ele>1027.800048828125</ele>
        <time>2021-05-09T09:13:28.000Z</time>
        <extensions>
          <ns3:TrackPointExtension>
            <ns3:atemp>20.0</ns3:atemp>
          </ns3:TrackPointExtension>
        </extensions>
      </trkpt>
      <trkpt lat="43.0920687876641750335693359375" lon="12.9658319056034088134765625">
        <ele>1026.199951171875</ele>
        <time>2021-05-09T09:13:30.000Z</time>
        <extensions>
          <ns3:TrackPointExtension>
            <ns3:atemp>20.0</ns3:atemp>
          </ns3:TrackPointExtension>
        </extensions>
      </trkpt>
      <trkpt lat="43.09201120398938655853271484375" lon="12.9657514393329620361328125">
        <ele>1025.199951171875</ele>
        <time>2021-05-09T09:13:31.000Z</time>
        <extensions>
          <ns3:TrackPointExtension>
            <ns3:atemp>20.0</ns3:atemp>
          </ns3:TrackPointExtension>
        </extensions>
      </trkpt>
      <trkpt lat="43.0919628404080867767333984375" lon="12.96568279154598712921142578125">
        <ele>1024.199951171875</ele>
        <time>2021-05-09T09:13:32.000Z</time>
        <extensions>
          <ns3:TrackPointExtension>
            <ns3:atemp>20.0</ns3:atemp>
          </ns3:TrackPointExtension>
        </extensions>
      </trkpt>
      <trkpt lat="43.09192302636802196502685546875" lon="12.96564004383981227874755859375">
        <ele>1023.20001220703125</ele>
        <time>2021-05-09T09:13:33.000Z</time>
        <extensions>
          <ns3:TrackPointExtension>
            <ns3:atemp>20.0</ns3:atemp>
          </ns3:TrackPointExtension>
        </extensions>
      </trkpt>
      <trkpt lat="43.0918917618691921234130859375" lon="12.96561523340642452239990234375">
        <ele>1021.79998779296875</ele>
        <time>2021-05-09T09:13:34.000Z</time>
        <extensions>
          <ns3:TrackPointExtension>
            <ns3:atemp>20.0</ns3:atemp>
          </ns3:TrackPointExtension>
        </extensions>
      </trkpt>
      <trkpt lat="43.09180752374231815338134765625" lon="12.96559276990592479705810546875">
        <ele>1021.20001220703125</ele>
        <time>2021-05-09T09:13:37.000Z</time>
        <extensions>
          <ns3:TrackPointExtension>
            <ns3:atemp>20.0</ns3:atemp>
          </ns3:TrackPointExtension>
        </extensions>
      </trkpt>
      <trkpt lat="43.09163334779441356658935546875" lon="12.965625040233135223388671875">
        <ele>1021.4000244140625</ele>
        <time>2021-05-09T09:13:43.000Z</time>
        <extensions>
          <ns3:TrackPointExtension>
            <ns3:atemp>20.0</ns3:atemp>
          </ns3:TrackPointExtension>
        </extensions>
      </trkpt>
      <trkpt lat="43.09150225482881069183349609375" lon="12.96562311239540576934814453125">
        <ele>1022</ele>
        <time>2021-05-09T09:13:47.000Z</time>
        <extensions>
          <ns3:TrackPointExtension>
            <ns3:atemp>20.0</ns3:atemp>
          </ns3:TrackPointExtension>
        </extensions>
      </trkpt>
      <trkpt lat="43.0914218723773956298828125" lon="12.965519092977046966552734375">
        <ele>1022.4000244140625</ele>
        <time>2021-05-09T09:13:51.000Z</time>
        <extensions>
          <ns3:TrackPointExtension>
            <ns3:atemp>20.0</ns3:atemp>
          </ns3:TrackPointExtension>
        </extensions>
      </trkpt>
      <trkpt lat="43.0913829803466796875" lon="12.96547274105250835418701171875">
        <ele>1023</ele>
        <time>2021-05-09T09:13:53.000Z</time>
        <extensions>
          <ns3:TrackPointExtension>
            <ns3:atemp>20.0</ns3:atemp>
          </ns3:TrackPointExtension>
        </extensions>
      </trkpt>
      <trkpt lat="43.09130477719008922576904296875" lon="12.965404093265533447265625">
        <ele>1023.79998779296875</ele>
        <time>2021-05-09T09:13:57.000Z</time>
        <extensions>
          <ns3:TrackPointExtension>
            <ns3:atemp>20.0</ns3:atemp>
          </ns3:TrackPointExtension>
        </extensions>
      </trkpt>
      <trkpt lat="43.09129589237272739410400390625" lon="12.96539965085685253143310546875">
        <ele>1024.199951171875</ele>
        <time>2021-05-09T09:13:58.000Z</time>
        <extensions>
          <ns3:TrackPointExtension>
            <ns3:atemp>20.0</ns3:atemp>
          </ns3:TrackPointExtension>
        </extensions>
      </trkpt>
      <trkpt lat="43.091293461620807647705078125" lon="12.9654039256274700164794921875">
        <ele>1025.4000244140625</ele>
        <time>2021-05-09T09:14:00.000Z</time>
        <extensions>
          <ns3:TrackPointExtension>
            <ns3:atemp>20.0</ns3:atemp>
          </ns3:TrackPointExtension>
        </extensions>
      </trkpt>
      <trkpt lat="43.0912926234304904937744140625" lon="12.96540610492229461669921875">
        <ele>1025.800048828125</ele>
        <time>2021-05-09T09:14:01.000Z</time>
        <extensions>
          <ns3:TrackPointExtension>
            <ns3:atemp>20.0</ns3:atemp>
          </ns3:TrackPointExtension>
        </extensions>
      </trkpt>
      <trkpt lat="43.0912912823259830474853515625" lon="12.96541674993932247161865234375">
        <ele>1026.199951171875</ele>
        <time>2021-05-09T09:14:08.000Z</time>
        <extensions>
          <ns3:TrackPointExtension>
            <ns3:atemp>21.0</ns3:atemp>
          </ns3:TrackPointExtension>
        </extensions>
      </trkpt>
      <trkpt lat="43.09128968976438045501708984375" lon="12.9654173366725444793701171875">
        <ele>1025.5999755859375</ele>
        <time>2021-05-09T09:14:41.000Z</time>
        <extensions>
          <ns3:TrackPointExtension>
            <ns3:atemp>21.0</ns3:atemp>
          </ns3:TrackPointExtension>
        </extensions>
      </trkpt>
      <trkpt lat="43.0912896059453487396240234375" lon="12.96541742049157619476318359375">
        <ele>1025.5999755859375</ele>
        <time>2021-05-09T09:14:43.000Z</time>
        <extensions>
          <ns3:TrackPointExtension>
            <ns3:atemp>21.0</ns3:atemp>
          </ns3:TrackPointExtension>
        </extensions>
      </trkpt>
      <trkpt lat="43.091288767755031585693359375" lon="12.96541758812963962554931640625">
        <ele>1025.800048828125</ele>
        <time>2021-05-09T09:15:28.000Z</time>
        <extensions>
          <ns3:TrackPointExtension>
            <ns3:atemp>21.0</ns3:atemp>
          </ns3:TrackPointExtension>
        </extensions>
      </trkpt>
      <trkpt lat="43.09128767810761928558349609375" lon="12.9654176719486713409423828125">
        <ele>1025.5999755859375</ele>
        <time>2021-05-09T09:16:18.000Z</time>
        <extensions>
          <ns3:TrackPointExtension>
            <ns3:atemp>22.0</ns3:atemp>
          </ns3:TrackPointExtension>
        </extensions>
      </trkpt>
      <trkpt lat="43.0912875942885875701904296875" lon="12.9654176719486713409423828125">
        <ele>1025.800048828125</ele>
        <time>2021-05-09T09:16:21.000Z</time>
        <extensions>
          <ns3:TrackPointExtension>
            <ns3:atemp>22.0</ns3:atemp>
          </ns3:TrackPointExtension>
        </extensions>
      </trkpt>
      <trkpt lat="43.09128633700311183929443359375" lon="12.96541909687221050262451171875">
        <ele>1025.5999755859375</ele>
        <time>2021-05-09T09:17:19.000Z</time>
        <extensions>
          <ns3:TrackPointExtension>
            <ns3:atemp>22.0</ns3:atemp>
          </ns3:TrackPointExtension>
        </extensions>
      </trkpt>
      <trkpt lat="43.09128533117473125457763671875" lon="12.965419180691242218017578125">
        <ele>1025.5999755859375</ele>
        <time>2021-05-09T09:17:51.000Z</time>
        <extensions>
          <ns3:TrackPointExtension>
            <ns3:atemp>23.0</ns3:atemp>
          </ns3:TrackPointExtension>
        </extensions>
      </trkpt>
      <trkpt lat="43.091284744441509246826171875" lon="12.96542027033865451812744140625">
        <ele>1025.4000244140625</ele>
        <time>2021-05-09T09:18:10.000Z</time>
        <extensions>
          <ns3:TrackPointExtension>
            <ns3:atemp>23.0</ns3:atemp>
          </ns3:TrackPointExtension>
        </extensions>
      </trkpt>
      <trkpt lat="43.0912832356989383697509765625" lon="12.96542110852897167205810546875">
        <ele>1025.800048828125</ele>
        <time>2021-05-09T09:18:54.000Z</time>
        <extensions>
          <ns3:TrackPointExtension>
            <ns3:atemp>24.0</ns3:atemp>
          </ns3:TrackPointExtension>
        </extensions>
      </trkpt>
      <trkpt lat="43.0912823975086212158203125" lon="12.9654216952621936798095703125">
        <ele>1025.800048828125</ele>
        <time>2021-05-09T09:19:23.000Z</time>
        <extensions>
          <ns3:TrackPointExtension>
            <ns3:atemp>24.0</ns3:atemp>
          </ns3:TrackPointExtension>
        </extensions>
      </trkpt>
      <trkpt lat="43.09128214605152606964111328125" lon="12.96542161144316196441650390625">
        <ele>1025.4000244140625</ele>
        <time>2021-05-09T09:19:35.000Z</time>
        <extensions>
          <ns3:TrackPointExtension>
            <ns3:atemp>25.0</ns3:atemp>
          </ns3:TrackPointExtension>
        </extensions>
      </trkpt>
      <trkpt lat="43.091282062232494354248046875" lon="12.9654215276241302490234375">
        <ele>1025.199951171875</ele>
        <time>2021-05-09T09:19:40.000Z</time>
        <extensions>
          <ns3:TrackPointExtension>
            <ns3:atemp>25.0</ns3:atemp>
          </ns3:TrackPointExtension>
        </extensions>
      </trkpt>
      <trkpt lat="43.0912818945944309234619140625" lon="12.9654213599860668182373046875">
        <ele>1025.5999755859375</ele>
        <time>2021-05-09T09:20:09.000Z</time>
        <extensions>
          <ns3:TrackPointExtension>
            <ns3:atemp>25.0</ns3:atemp>
          </ns3:TrackPointExtension>
        </extensions>
      </trkpt>
      <trkpt lat="43.09128046967089176177978515625" lon="12.96542211435735225677490234375">
        <ele>1025.199951171875</ele>
        <time>2021-05-09T09:20:59.000Z</time>
        <extensions>
          <ns3:TrackPointExtension>
            <ns3:atemp>26.0</ns3:atemp>
          </ns3:TrackPointExtension>
        </extensions>
      </trkpt>
      <trkpt lat="43.0912805534899234771728515625" lon="12.9654228687286376953125">
        <ele>1025</ele>
        <time>2021-05-09T09:21:08.000Z</time>
        <extensions>
          <ns3:TrackPointExtension>
            <ns3:atemp>26.0</ns3:atemp>
          </ns3:TrackPointExtension>
        </extensions>
      </trkpt>
      <trkpt lat="43.09127929620444774627685546875" lon="12.9654242098331451416015625">
        <ele>1025.199951171875</ele>
        <time>2021-05-09T09:21:48.000Z</time>
        <extensions>
          <ns3:TrackPointExtension>
            <ns3:atemp>26.0</ns3:atemp>
          </ns3:TrackPointExtension>
        </extensions>
      </trkpt>
      <trkpt lat="43.0912795476615428924560546875" lon="12.9654230363667011260986328125">
        <ele>1025.199951171875</ele>
        <time>2021-05-09T09:22:07.000Z</time>
        <extensions>
          <ns3:TrackPointExtension>
            <ns3:atemp>27.0</ns3:atemp>
          </ns3:TrackPointExtension>
        </extensions>
      </trkpt>
      <trkpt lat="43.09127963148057460784912109375" lon="12.9654233716428279876708984375">
        <ele>1025.199951171875</ele>
        <time>2021-05-09T09:22:13.000Z</time>
        <extensions>
          <ns3:TrackPointExtension>
            <ns3:atemp>27.0</ns3:atemp>
          </ns3:TrackPointExtension>
        </extensions>
      </trkpt>
      <trkpt lat="43.091279380023479461669921875" lon="12.96542379073798656463623046875">
        <ele>1025</ele>
        <time>2021-05-09T09:22:43.000Z</time>
        <extensions>
          <ns3:TrackPointExtension>
            <ns3:atemp>28.0</ns3:atemp>
          </ns3:TrackPointExtension>
        </extensions>
      </trkpt>
      <trkpt lat="43.091279380023479461669921875" lon="12.965423874557018280029296875">
        <ele>1025</ele>
        <time>2021-05-09T09:22:55.000Z</time>
        <extensions>
          <ns3:TrackPointExtension>
            <ns3:atemp>28.0</ns3:atemp>
          </ns3:TrackPointExtension>
        </extensions>
      </trkpt>
      <trkpt lat="43.09127979911863803863525390625" lon="12.96542379073798656463623046875">
        <ele>1025</ele>
        <time>2021-05-09T09:23:16.000Z</time>
        <extensions>
          <ns3:TrackPointExtension>
            <ns3:atemp>28.0</ns3:atemp>
          </ns3:TrackPointExtension>
        </extensions>
      </trkpt>
      <trkpt lat="43.09127996675670146942138671875" lon="12.96542488038539886474609375">
        <ele>1024.800048828125</ele>
        <time>2021-05-09T09:23:36.000Z</time>
        <extensions>
          <ns3:TrackPointExtension>
            <ns3:atemp>28.0</ns3:atemp>
          </ns3:TrackPointExtension>
        </extensions>
      </trkpt>
      <trkpt lat="43.09128197841346263885498046875" lon="12.96542060561478137969970703125">
        <ele>1025.199951171875</ele>
        <time>2021-05-09T09:23:49.000Z</time>
        <extensions>
          <ns3:TrackPointExtension>
            <ns3:atemp>29.0</ns3:atemp>
          </ns3:TrackPointExtension>
        </extensions>
      </trkpt>
      <trkpt lat="43.0912818945944309234619140625" lon="12.96542027033865451812744140625">
        <ele>1026</ele>
        <time>2021-05-09T09:24:04.000Z</time>
        <extensions>
          <ns3:TrackPointExtension>
            <ns3:atemp>29.0</ns3:atemp>
          </ns3:TrackPointExtension>
        </extensions>
      </trkpt>
      <trkpt lat="43.091282062232494354248046875" lon="12.9654200188815593719482421875">
        <ele>1025.800048828125</ele>
        <time>2021-05-09T09:24:25.000Z</time>
        <extensions>
          <ns3:TrackPointExtension>
            <ns3:atemp>29.0</ns3:atemp>
          </ns3:TrackPointExtension>
        </extensions>
      </trkpt>
      <trkpt lat="43.091282062232494354248046875" lon="12.9654200188815593719482421875">
        <ele>1025.800048828125</ele>
        <time>2021-05-09T09:24:26.000Z</time>
        <extensions>
          <ns3:TrackPointExtension>
            <ns3:atemp>29.0</ns3:atemp>
          </ns3:TrackPointExtension>
        </extensions>
      </trkpt>
      <trkpt lat="43.09128130786120891571044921875" lon="12.965419180691242218017578125">
        <ele>1026</ele>
        <time>2021-05-09T09:24:51.000Z</time>
        <extensions>
          <ns3:TrackPointExtension>
            <ns3:atemp>29.0</ns3:atemp>
          </ns3:TrackPointExtension>
        </extensions>
      </trkpt>
      <trkpt lat="43.091203272342681884765625" lon="12.96535120345652103424072265625">
        <ele>1026</ele>
        <time>2021-05-09T09:24:56.000Z</time>
        <extensions>
          <ns3:TrackPointExtension>
            <ns3:atemp>29.0</ns3:atemp>
          </ns3:TrackPointExtension>
        </extensions>
      </trkpt>
      <trkpt lat="43.09113764204084873199462890625" lon="12.965219356119632720947265625">
        <ele>1025.800048828125</ele>
        <time>2021-05-09T09:24:59.000Z</time>
        <extensions>
          <ns3:TrackPointExtension>
            <ns3:atemp>29.0</ns3:atemp>
          </ns3:TrackPointExtension>
        </extensions>
      </trkpt>
      <trkpt lat="43.09111987240612506866455078125" lon="12.96516294591128826141357421875">
        <ele>1025.800048828125</ele>
        <time>2021-05-09T09:25:00.000Z</time>
        <extensions>
          <ns3:TrackPointExtension>
            <ns3:atemp>29.0</ns3:atemp>
          </ns3:TrackPointExtension>
        </extensions>
      </trkpt>
      <trkpt lat="43.09107176028192043304443359375" lon="12.96487075276672840118408203125">
        <ele>1025</ele>
        <time>2021-05-09T09:25:04.000Z</time>
        <extensions>
          <ns3:TrackPointExtension>
            <ns3:atemp>29.0</ns3:atemp>
          </ns3:TrackPointExtension>
        </extensions>
      </trkpt>
      <trkpt lat="43.09106983244419097900390625" lon="12.96478441916406154632568359375">
        <ele>1024.5999755859375</ele>
        <time>2021-05-09T09:25:05.000Z</time>
        <extensions>
          <ns3:TrackPointExtension>
            <ns3:atemp>29.0</ns3:atemp>
          </ns3:TrackPointExtension>
        </extensions>
      </trkpt>
      <trkpt lat="43.0910837464034557342529296875" lon="12.96444562263786792755126953125">
        <ele>1023.79998779296875</ele>
        <time>2021-05-09T09:25:09.000Z</time>
        <extensions>
          <ns3:TrackPointExtension>
            <ns3:atemp>29.0</ns3:atemp>
          </ns3:TrackPointExtension>
        </extensions>
      </trkpt>
      <trkpt lat="43.09110646136105060577392578125" lon="12.964189052581787109375">
        <ele>1022.5999755859375</ele>
        <time>2021-05-09T09:25:12.000Z</time>
        <extensions>
          <ns3:TrackPointExtension>
            <ns3:atemp>29.0</ns3:atemp>
          </ns3:TrackPointExtension>
        </extensions>
      </trkpt>
      <trkpt lat="43.09111417271196842193603515625" lon="12.96400942839682102203369140625">
        <ele>1020.4000244140625</ele>
        <time>2021-05-09T09:25:14.000Z</time>
        <extensions>
          <ns3:TrackPointExtension>
            <ns3:atemp>29.0</ns3:atemp>
          </ns3:TrackPointExtension>
        </extensions>
      </trkpt>
      <trkpt lat="43.09110830537974834442138671875" lon="12.96382586471736431121826171875">
        <ele>1019.20001220703125</ele>
        <time>2021-05-09T09:25:16.000Z</time>
        <extensions>
          <ns3:TrackPointExtension>
            <ns3:atemp>29.0</ns3:atemp>
          </ns3:TrackPointExtension>
        </extensions>
      </trkpt>
      <trkpt lat="43.09110067784786224365234375" lon="12.96373953111469745635986328125">
        <ele>1018.5999755859375</ele>
        <time>2021-05-09T09:25:17.000Z</time>
        <extensions>
          <ns3:TrackPointExtension>
            <ns3:atemp>29.0</ns3:atemp>
          </ns3:TrackPointExtension>
        </extensions>
      </trkpt>
      <trkpt lat="43.09108852408826351165771484375" lon="12.96366132795810699462890625">
        <ele>1018</ele>
        <time>2021-05-09T09:25:18.000Z</time>
        <extensions>
          <ns3:TrackPointExtension>
            <ns3:atemp>29.0</ns3:atemp>
          </ns3:TrackPointExtension>
        </extensions>
      </trkpt>
      <trkpt lat="43.09104812331497669219970703125" lon="12.96353300102055072784423828125">
        <ele>1016.4000244140625</ele>
        <time>2021-05-09T09:25:20.000Z</time>
        <extensions>
          <ns3:TrackPointExtension>
            <ns3:atemp>29.0</ns3:atemp>
          </ns3:TrackPointExtension>
        </extensions>
      </trkpt>
      <trkpt lat="43.09102130122482776641845703125" lon="12.96347416006028652191162109375">
        <ele>1015.4000244140625</ele>
        <time>2021-05-09T09:25:21.000Z</time>
        <extensions>
          <ns3:TrackPointExtension>
            <ns3:atemp>29.0</ns3:atemp>
          </ns3:TrackPointExtension>
        </extensions>
      </trkpt>
      <trkpt lat="43.09099229983985424041748046875" lon="12.96341347508132457733154296875">
        <ele>1014.5999755859375</ele>
        <time>2021-05-09T09:25:22.000Z</time>
        <extensions>
          <ns3:TrackPointExtension>
            <ns3:atemp>29.0</ns3:atemp>
          </ns3:TrackPointExtension>
        </extensions>
      </trkpt>
      <trkpt lat="43.09096380136907100677490234375" lon="12.9633473418653011322021484375">
        <ele>1013.79998779296875</ele>
        <time>2021-05-09T09:25:23.000Z</time>
        <extensions>
          <ns3:TrackPointExtension>
            <ns3:atemp>29.0</ns3:atemp>
          </ns3:TrackPointExtension>
        </extensions>
      </trkpt>
      <trkpt lat="43.09094267897307872772216796875" lon="12.96327240765094757080078125">
        <ele>1013</ele>
        <time>2021-05-09T09:25:24.000Z</time>
        <extensions>
          <ns3:TrackPointExtension>
            <ns3:atemp>29.0</ns3:atemp>
          </ns3:TrackPointExtension>
        </extensions>
      </trkpt>
      <trkpt lat="43.09092541225254535675048828125" lon="12.9631947912275791168212890625">
        <ele>1011.5999755859375</ele>
        <time>2021-05-09T09:25:25.000Z</time>
        <extensions>
          <ns3:TrackPointExtension>
            <ns3:atemp>29.0</ns3:atemp>
          </ns3:TrackPointExtension>
        </extensions>
      </trkpt>
      <trkpt lat="43.09089892543852329254150390625" lon="12.9630378820002079010009765625">
        <ele>1010.20001220703125</ele>
        <time>2021-05-09T09:25:27.000Z</time>
        <extensions>
          <ns3:TrackPointExtension>
            <ns3:atemp>29.0</ns3:atemp>
          </ns3:TrackPointExtension>
        </extensions>
      </trkpt>
      <trkpt lat="43.090885765850543975830078125" lon="12.9628900252282619476318359375">
        <ele>1008.5999755859375</ele>
        <time>2021-05-09T09:25:29.000Z</time>
        <extensions>
          <ns3:TrackPointExtension>
            <ns3:atemp>29.0</ns3:atemp>
          </ns3:TrackPointExtension>
        </extensions>
      </trkpt>
      <trkpt lat="43.09088584966957569122314453125" lon="12.962834872305393218994140625">
        <ele>1007.79998779296875</ele>
        <time>2021-05-09T09:25:30.000Z</time>
        <extensions>
          <ns3:TrackPointExtension>
            <ns3:atemp>29.0</ns3:atemp>
          </ns3:TrackPointExtension>
        </extensions>
      </trkpt>
      <trkpt lat="43.0908946506679058074951171875" lon="12.962786592543125152587890625">
        <ele>1007.4000244140625</ele>
        <time>2021-05-09T09:25:31.000Z</time>
        <extensions>
          <ns3:TrackPointExtension>
            <ns3:atemp>29.0</ns3:atemp>
          </ns3:TrackPointExtension>
        </extensions>
      </trkpt>
      <trkpt lat="43.09091887436807155609130859375" lon="12.96271023340523242950439453125">
        <ele>1006</ele>
        <time>2021-05-09T09:25:33.000Z</time>
        <extensions>
          <ns3:TrackPointExtension>
            <ns3:atemp>29.0</ns3:atemp>
          </ns3:TrackPointExtension>
        </extensions>
      </trkpt>
      <trkpt lat="43.0909271724522113800048828125" lon="12.9626858420670032501220703125">
        <ele>1005.5999755859375</ele>
        <time>2021-05-09T09:25:34.000Z</time>
        <extensions>
          <ns3:TrackPointExtension>
            <ns3:atemp>28.0</ns3:atemp>
          </ns3:TrackPointExtension>
        </extensions>
      </trkpt>
      <trkpt lat="43.0909338779747486114501953125" lon="12.96266798861324787139892578125">
        <ele>1004.79998779296875</ele>
        <time>2021-05-09T09:25:36.000Z</time>
        <extensions>
          <ns3:TrackPointExtension>
            <ns3:atemp>28.0</ns3:atemp>
          </ns3:TrackPointExtension>
        </extensions>
      </trkpt>
      <trkpt lat="43.090937398374080657958984375" lon="12.96266463585197925567626953125">
        <ele>1004.20001220703125</ele>
        <time>2021-05-09T09:25:38.000Z</time>
        <extensions>
          <ns3:TrackPointExtension>
            <ns3:atemp>28.0</ns3:atemp>
          </ns3:TrackPointExtension>
        </extensions>
      </trkpt>
      <trkpt lat="43.09094083495438098907470703125" lon="12.9626623727381229400634765625">
        <ele>1003.79998779296875</ele>
        <time>2021-05-09T09:25:45.000Z</time>
        <extensions>
          <ns3:TrackPointExtension>
            <ns3:atemp>28.0</ns3:atemp>
          </ns3:TrackPointExtension>
        </extensions>
      </trkpt>
      <trkpt lat="43.09094049967825412750244140625" lon="12.962662540376186370849609375">
        <ele>1003.4000244140625</ele>
        <time>2021-05-09T09:25:52.000Z</time>
        <extensions>
          <ns3:TrackPointExtension>
            <ns3:atemp>28.0</ns3:atemp>
          </ns3:TrackPointExtension>
        </extensions>
      </trkpt>
      <trkpt lat="43.0909444391727447509765625" lon="12.96264703385531902313232421875">
        <ele>1003.4000244140625</ele>
        <time>2021-05-09T09:25:59.000Z</time>
        <extensions>
          <ns3:TrackPointExtension>
            <ns3:atemp>28.0</ns3:atemp>
          </ns3:TrackPointExtension>
        </extensions>
      </trkpt>
      <trkpt lat="43.090944774448871612548828125" lon="12.96264217235147953033447265625">
        <ele>1003.20001220703125</ele>
        <time>2021-05-09T09:26:05.000Z</time>
        <extensions>
          <ns3:TrackPointExtension>
            <ns3:atemp>28.0</ns3:atemp>
          </ns3:TrackPointExtension>
        </extensions>
      </trkpt>
      <trkpt lat="43.090956844389438629150390625" lon="12.962612919509410858154296875">
        <ele>1003.20001220703125</ele>
        <time>2021-05-09T09:26:07.000Z</time>
        <extensions>
          <ns3:TrackPointExtension>
            <ns3:atemp>28.0</ns3:atemp>
          </ns3:TrackPointExtension>
        </extensions>
      </trkpt>
      <trkpt lat="43.0909927189350128173828125" lon="12.962428517639636993408203125">
        <ele>1003</ele>
        <time>2021-05-09T09:26:13.000Z</time>
        <extensions>
          <ns3:TrackPointExtension>
            <ns3:atemp>28.0</ns3:atemp>
          </ns3:TrackPointExtension>
        </extensions>
      </trkpt>
      <trkpt lat="43.09099649079144001007080078125" lon="12.962287701666355133056640625">
        <ele>1002.5999755859375</ele>
        <time>2021-05-09T09:26:16.000Z</time>
        <extensions>
          <ns3:TrackPointExtension>
            <ns3:atemp>28.0</ns3:atemp>
          </ns3:TrackPointExtension>
        </extensions>
      </trkpt>
      <trkpt lat="43.0909912101924419403076171875" lon="12.96217580325901508331298828125">
        <ele>1002</ele>
        <time>2021-05-09T09:26:18.000Z</time>
        <extensions>
          <ns3:TrackPointExtension>
            <ns3:atemp>28.0</ns3:atemp>
          </ns3:TrackPointExtension>
        </extensions>
      </trkpt>
      <trkpt lat="43.09098224155604839324951171875" lon="12.96212266199290752410888671875">
        <ele>1001.5999755859375</ele>
        <time>2021-05-09T09:26:19.000Z</time>
        <extensions>
          <ns3:TrackPointExtension>
            <ns3:atemp>28.0</ns3:atemp>
          </ns3:TrackPointExtension>
        </extensions>
      </trkpt>
      <trkpt lat="43.0909670703113079071044921875" lon="12.961993329226970672607421875">
        <ele>1000.20001220703125</ele>
        <time>2021-05-09T09:26:22.000Z</time>
        <extensions>
          <ns3:TrackPointExtension>
            <ns3:atemp>28.0</ns3:atemp>
          </ns3:TrackPointExtension>
        </extensions>
      </trkpt>
      <trkpt lat="43.0909791402518749237060546875" lon="12.96195519156754016876220703125">
        <ele>999.79998779296875</ele>
        <time>2021-05-09T09:26:23.000Z</time>
        <extensions>
          <ns3:TrackPointExtension>
            <ns3:atemp>28.0</ns3:atemp>
          </ns3:TrackPointExtension>
        </extensions>
      </trkpt>
      <trkpt lat="43.09102867729961872100830078125" lon="12.9618863761425018310546875">
        <ele>998.79998779296875</ele>
        <time>2021-05-09T09:26:25.000Z</time>
        <extensions>
          <ns3:TrackPointExtension>
            <ns3:atemp>27.0</ns3:atemp>
          </ns3:TrackPointExtension>
        </extensions>
      </trkpt>
      <trkpt lat="43.09108349494636058807373046875" lon="12.9618261940777301788330078125">
        <ele>997.79998779296875</ele>
        <time>2021-05-09T09:26:27.000Z</time>
        <extensions>
          <ns3:TrackPointExtension>
            <ns3:atemp>27.0</ns3:atemp>
          </ns3:TrackPointExtension>
        </extensions>
      </trkpt>
      <trkpt lat="43.09113797731697559356689453125" lon="12.9617628268897533416748046875">
        <ele>996.5999755859375</ele>
        <time>2021-05-09T09:26:29.000Z</time>
        <extensions>
          <ns3:TrackPointExtension>
            <ns3:atemp>27.0</ns3:atemp>
          </ns3:TrackPointExtension>
        </extensions>
      </trkpt>
      <trkpt lat="43.09116664342582225799560546875" lon="12.96173307113349437713623046875">
        <ele>996.20001220703125</ele>
        <time>2021-05-09T09:26:30.000Z</time>
        <extensions>
          <ns3:TrackPointExtension>
            <ns3:atemp>27.0</ns3:atemp>
          </ns3:TrackPointExtension>
        </extensions>
      </trkpt>
      <trkpt lat="43.09121643193066120147705078125" lon="12.96167892403900623321533203125">
        <ele>995.20001220703125</ele>
        <time>2021-05-09T09:26:32.000Z</time>
        <extensions>
          <ns3:TrackPointExtension>
            <ns3:atemp>27.0</ns3:atemp>
          </ns3:TrackPointExtension>
        </extensions>
      </trkpt>
      <trkpt lat="43.0912383086979389190673828125" lon="12.96160281635820865631103515625">
        <ele>994</ele>
        <time>2021-05-09T09:26:34.000Z</time>
        <extensions>
          <ns3:TrackPointExtension>
            <ns3:atemp>27.0</ns3:atemp>
          </ns3:TrackPointExtension>
        </extensions>
      </trkpt>
      <trkpt lat="43.09123839251697063446044921875" lon="12.96151899732649326324462890625">
        <ele>992.79998779296875</ele>
        <time>2021-05-09T09:26:36.000Z</time>
        <extensions>
          <ns3:TrackPointExtension>
            <ns3:atemp>27.0</ns3:atemp>
          </ns3:TrackPointExtension>
        </extensions>
      </trkpt>
      <trkpt lat="43.0912448465824127197265625" lon="12.96142562292516231536865234375">
        <ele>991</ele>
        <time>2021-05-09T09:26:38.000Z</time>
        <extensions>
          <ns3:TrackPointExtension>
            <ns3:atemp>27.0</ns3:atemp>
          </ns3:TrackPointExtension>
        </extensions>
      </trkpt>
      <trkpt lat="43.09125850908458232879638671875" lon="12.96132034622132778167724609375">
        <ele>989.5999755859375</ele>
        <time>2021-05-09T09:26:40.000Z</time>
        <extensions>
          <ns3:TrackPointExtension>
            <ns3:atemp>27.0</ns3:atemp>
          </ns3:TrackPointExtension>
        </extensions>
      </trkpt>
      <trkpt lat="43.09125649742782115936279296875" lon="12.96126385219395160675048828125">
        <ele>989</ele>
        <time>2021-05-09T09:26:41.000Z</time>
        <extensions>
          <ns3:TrackPointExtension>
            <ns3:atemp>27.0</ns3:atemp>
          </ns3:TrackPointExtension>
        </extensions>
      </trkpt>
      <trkpt lat="43.0912503786385059356689453125" lon="12.96120501123368740081787109375">
        <ele>987.5999755859375</ele>
        <time>2021-05-09T09:26:42.000Z</time>
        <extensions>
          <ns3:TrackPointExtension>
            <ns3:atemp>27.0</ns3:atemp>
          </ns3:TrackPointExtension>
        </extensions>
      </trkpt>
      <trkpt lat="43.09125163592398166656494140625" lon="12.96110115945339202880859375">
        <ele>986.20001220703125</ele>
        <time>2021-05-09T09:26:44.000Z</time>
        <extensions>
          <ns3:TrackPointExtension>
            <ns3:atemp>27.0</ns3:atemp>
          </ns3:TrackPointExtension>
        </extensions>
      </trkpt>
      <trkpt lat="43.09126554988324642181396484375" lon="12.96106033958494663238525390625">
        <ele>985.5999755859375</ele>
        <time>2021-05-09T09:26:45.000Z</time>
        <extensions>
          <ns3:TrackPointExtension>
            <ns3:atemp>27.0</ns3:atemp>
          </ns3:TrackPointExtension>
        </extensions>
      </trkpt>
      <trkpt lat="43.09128801338374614715576171875" lon="12.9610253870487213134765625">
        <ele>984.79998779296875</ele>
        <time>2021-05-09T09:26:46.000Z</time>
        <extensions>
          <ns3:TrackPointExtension>
            <ns3:atemp>27.0</ns3:atemp>
          </ns3:TrackPointExtension>
        </extensions>
      </trkpt>
      <trkpt lat="43.09134467504918575286865234375" lon="12.96095405705273151397705078125">
        <ele>983.20001220703125</ele>
        <time>2021-05-09T09:26:48.000Z</time>
        <extensions>
          <ns3:TrackPointExtension>
            <ns3:atemp>27.0</ns3:atemp>
          </ns3:TrackPointExtension>
        </extensions>
      </trkpt>
      <trkpt lat="43.0913801304996013641357421875" lon="12.960919775068759918212890625">
        <ele>982.4000244140625</ele>
        <time>2021-05-09T09:26:49.000Z</time>
        <extensions>
          <ns3:TrackPointExtension>
            <ns3:atemp>27.0</ns3:atemp>
          </ns3:TrackPointExtension>
        </extensions>
      </trkpt>
      <trkpt lat="43.09141910634934902191162109375" lon="12.96088700182735919952392578125">
        <ele>981.79998779296875</ele>
        <time>2021-05-09T09:26:50.000Z</time>
        <extensions>
          <ns3:TrackPointExtension>
            <ns3:atemp>27.0</ns3:atemp>
          </ns3:TrackPointExtension>
        </extensions>
      </trkpt>
      <trkpt lat="43.09149756096303462982177734375" lon="12.96080888248980045318603515625">
        <ele>981.20001220703125</ele>
        <time>2021-05-09T09:26:52.000Z</time>
        <extensions>
          <ns3:TrackPointExtension>
            <ns3:atemp>27.0</ns3:atemp>
          </ns3:TrackPointExtension>
        </extensions>
      </trkpt>
      <trkpt lat="43.0915333516895771026611328125" lon="12.960758507251739501953125">
        <ele>980.79998779296875</ele>
        <time>2021-05-09T09:26:53.000Z</time>
        <extensions>
          <ns3:TrackPointExtension>
            <ns3:atemp>27.0</ns3:atemp>
          </ns3:TrackPointExtension>
        </extensions>
      </trkpt>
      <trkpt lat="43.09157199226319789886474609375" lon="12.9607110656797885894775390625">
        <ele>980</ele>
        <time>2021-05-09T09:26:54.000Z</time>
        <extensions>
          <ns3:TrackPointExtension>
            <ns3:atemp>27.0</ns3:atemp>
          </ns3:TrackPointExtension>
        </extensions>
      </trkpt>
      <trkpt lat="43.09161457233130931854248046875" lon="12.96066270209848880767822265625">
        <ele>979.20001220703125</ele>
        <time>2021-05-09T09:26:55.000Z</time>
        <extensions>
          <ns3:TrackPointExtension>
            <ns3:atemp>27.0</ns3:atemp>
          </ns3:TrackPointExtension>
        </extensions>
      </trkpt>
      <trkpt lat="43.0916641093790531158447265625" lon="12.96061928384006023406982421875">
        <ele>978.4000244140625</ele>
        <time>2021-05-09T09:26:56.000Z</time>
        <extensions>
          <ns3:TrackPointExtension>
            <ns3:atemp>27.0</ns3:atemp>
          </ns3:TrackPointExtension>
        </extensions>
      </trkpt>
      <trkpt lat="43.091721944510936737060546875" lon="12.96058156527578830718994140625">
        <ele>977.5999755859375</ele>
        <time>2021-05-09T09:26:57.000Z</time>
        <extensions>
          <ns3:TrackPointExtension>
            <ns3:atemp>27.0</ns3:atemp>
          </ns3:TrackPointExtension>
        </extensions>
      </trkpt>
      <trkpt lat="43.09178120456635951995849609375" lon="12.960537560284137725830078125">
        <ele>976.79998779296875</ele>
        <time>2021-05-09T09:26:58.000Z</time>
        <extensions>
          <ns3:TrackPointExtension>
            <ns3:atemp>27.0</ns3:atemp>
          </ns3:TrackPointExtension>
        </extensions>
      </trkpt>
      <trkpt lat="43.09183870442211627960205078125" lon="12.96049254946410655975341796875">
        <ele>976</ele>
        <time>2021-05-09T09:26:59.000Z</time>
        <extensions>
          <ns3:TrackPointExtension>
            <ns3:atemp>27.0</ns3:atemp>
          </ns3:TrackPointExtension>
        </extensions>
      </trkpt>
      <trkpt lat="43.09189067222177982330322265625" lon="12.96044259332120418548583984375">
        <ele>975.20001220703125</ele>
        <time>2021-05-09T09:27:00.000Z</time>
        <extensions>
          <ns3:TrackPointExtension>
            <ns3:atemp>27.0</ns3:atemp>
          </ns3:TrackPointExtension>
        </extensions>
      </trkpt>
      <trkpt lat="43.09193576686084270477294921875" lon="12.960384003818035125732421875">
        <ele>974.20001220703125</ele>
        <time>2021-05-09T09:27:01.000Z</time>
        <extensions>
          <ns3:TrackPointExtension>
            <ns3:atemp>27.0</ns3:atemp>
          </ns3:TrackPointExtension>
        </extensions>
      </trkpt>
      <trkpt lat="43.09197583235800266265869140625" lon="12.96032357029616832733154296875">
        <ele>973.5999755859375</ele>
        <time>2021-05-09T09:27:02.000Z</time>
        <extensions>
          <ns3:TrackPointExtension>
            <ns3:atemp>27.0</ns3:atemp>
          </ns3:TrackPointExtension>
        </extensions>
      </trkpt>
      <trkpt lat="43.092014975845813751220703125" lon="12.960259951651096343994140625">
        <ele>972.79998779296875</ele>
        <time>2021-05-09T09:27:03.000Z</time>
        <extensions>
          <ns3:TrackPointExtension>
            <ns3:atemp>27.0</ns3:atemp>
          </ns3:TrackPointExtension>
        </extensions>
      </trkpt>
      <trkpt lat="43.09208580292761325836181640625" lon="12.9601410962641239166259765625">
        <ele>971.20001220703125</ele>
        <time>2021-05-09T09:27:05.000Z</time>
        <extensions>
          <ns3:TrackPointExtension>
            <ns3:atemp>27.0</ns3:atemp>
          </ns3:TrackPointExtension>
        </extensions>
      </trkpt>
      <trkpt lat="43.09214900247752666473388671875" lon="12.96002903021872043609619140625">
        <ele>970</ele>
        <time>2021-05-09T09:27:07.000Z</time>
        <extensions>
          <ns3:TrackPointExtension>
            <ns3:atemp>27.0</ns3:atemp>
          </ns3:TrackPointExtension>
        </extensions>
      </trkpt>
      <trkpt lat="43.09217758476734161376953125" lon="12.95996800996363162994384765625">
        <ele>969.5999755859375</ele>
        <time>2021-05-09T09:27:08.000Z</time>
        <extensions>
          <ns3:TrackPointExtension>
            <ns3:atemp>27.0</ns3:atemp>
          </ns3:TrackPointExtension>
        </extensions>
      </trkpt>
      <trkpt lat="43.09222745709121227264404296875" lon="12.95982920564711093902587890625">
        <ele>968.79998779296875</ele>
        <time>2021-05-09T09:27:10.000Z</time>
        <extensions>
          <ns3:TrackPointExtension>
            <ns3:atemp>26.0</ns3:atemp>
          </ns3:TrackPointExtension>
        </extensions>
      </trkpt>
      <trkpt lat="43.09228428639471530914306640625" lon="12.95969040133059024810791015625">
        <ele>967.79998779296875</ele>
        <time>2021-05-09T09:27:12.000Z</time>
        <extensions>
          <ns3:TrackPointExtension>
            <ns3:atemp>26.0</ns3:atemp>
          </ns3:TrackPointExtension>
        </extensions>
      </trkpt>
      <trkpt lat="43.09230825863778591156005859375" lon="12.959620915353298187255859375">
        <ele>967.5999755859375</ele>
        <time>2021-05-09T09:27:13.000Z</time>
        <extensions>
          <ns3:TrackPointExtension>
            <ns3:atemp>26.0</ns3:atemp>
          </ns3:TrackPointExtension>
        </extensions>
      </trkpt>
      <trkpt lat="43.0923249386250972747802734375" lon="12.95954992063343524932861328125">
        <ele>966.79998779296875</ele>
        <time>2021-05-09T09:27:14.000Z</time>
        <extensions>
          <ns3:TrackPointExtension>
            <ns3:atemp>26.0</ns3:atemp>
          </ns3:TrackPointExtension>
        </extensions>
      </trkpt>
      <trkpt lat="43.09235653840005397796630859375" lon="12.95940357260406017303466796875">
        <ele>965.79998779296875</ele>
        <time>2021-05-09T09:27:16.000Z</time>
        <extensions>
          <ns3:TrackPointExtension>
            <ns3:atemp>26.0</ns3:atemp>
          </ns3:TrackPointExtension>
        </extensions>
      </trkpt>
      <trkpt lat="43.09238704852759838104248046875" lon="12.9592690430581569671630859375">
        <ele>964</ele>
        <time>2021-05-09T09:27:18.000Z</time>
        <extensions>
          <ns3:TrackPointExtension>
            <ns3:atemp>26.0</ns3:atemp>
          </ns3:TrackPointExtension>
        </extensions>
      </trkpt>
      <trkpt lat="43.09239777736365795135498046875" lon="12.95913116075098514556884765625">
        <ele>962.20001220703125</ele>
        <time>2021-05-09T09:27:20.000Z</time>
        <extensions>
          <ns3:TrackPointExtension>
            <ns3:atemp>26.0</ns3:atemp>
          </ns3:TrackPointExtension>
        </extensions>
      </trkpt>
      <trkpt lat="43.09238553978502750396728515625" lon="12.9590588249266147613525390625">
        <ele>961</ele>
        <time>2021-05-09T09:27:21.000Z</time>
        <extensions>
          <ns3:TrackPointExtension>
            <ns3:atemp>26.0</ns3:atemp>
          </ns3:TrackPointExtension>
        </extensions>
      </trkpt>
      <trkpt lat="43.09236802160739898681640625" lon="12.9589817114174365997314453125">
        <ele>960.20001220703125</ele>
        <time>2021-05-09T09:27:22.000Z</time>
        <extensions>
          <ns3:TrackPointExtension>
            <ns3:atemp>26.0</ns3:atemp>
          </ns3:TrackPointExtension>
        </extensions>
      </trkpt>
      <trkpt lat="43.0923517607152462005615234375" lon="12.958900742232799530029296875">
        <ele>959.79998779296875</ele>
        <time>2021-05-09T09:27:23.000Z</time>
        <extensions>
          <ns3:TrackPointExtension>
            <ns3:atemp>26.0</ns3:atemp>
          </ns3:TrackPointExtension>
        </extensions>
      </trkpt>
      <trkpt lat="43.09233625419437885284423828125" lon="12.95873117633163928985595703125">
        <ele>959</ele>
        <time>2021-05-09T09:27:25.000Z</time>
        <extensions>
          <ns3:TrackPointExtension>
            <ns3:atemp>26.0</ns3:atemp>
          </ns3:TrackPointExtension>
        </extensions>
      </trkpt>
      <trkpt lat="43.0923376791179180145263671875" lon="12.95865322463214397430419921875">
        <ele>958.5999755859375</ele>
        <time>2021-05-09T09:27:26.000Z</time>
        <extensions>
          <ns3:TrackPointExtension>
            <ns3:atemp>26.0</ns3:atemp>
          </ns3:TrackPointExtension>
        </extensions>
      </trkpt>
      <trkpt lat="43.09233055450022220611572265625" lon="12.95849137008190155029296875">
        <ele>957</ele>
        <time>2021-05-09T09:27:28.000Z</time>
        <extensions>
          <ns3:TrackPointExtension>
            <ns3:atemp>26.0</ns3:atemp>
          </ns3:TrackPointExtension>
        </extensions>
      </trkpt>
      <trkpt lat="43.092300631105899810791015625" lon="12.9583440162241458892822265625">
        <ele>955.79998779296875</ele>
        <time>2021-05-09T09:27:30.000Z</time>
        <extensions>
          <ns3:TrackPointExtension>
            <ns3:atemp>26.0</ns3:atemp>
          </ns3:TrackPointExtension>
        </extensions>
      </trkpt>
      <trkpt lat="43.0922828614711761474609375" lon="12.9582618735730648040771484375">
        <ele>955.4000244140625</ele>
        <time>2021-05-09T09:27:31.000Z</time>
        <extensions>
          <ns3:TrackPointExtension>
            <ns3:atemp>26.0</ns3:atemp>
          </ns3:TrackPointExtension>
        </extensions>
      </trkpt>
      <trkpt lat="43.0922427959740161895751953125" lon="12.9581036232411861419677734375">
        <ele>954.4000244140625</ele>
        <time>2021-05-09T09:27:33.000Z</time>
        <extensions>
          <ns3:TrackPointExtension>
            <ns3:atemp>26.0</ns3:atemp>
          </ns3:TrackPointExtension>
        </extensions>
      </trkpt>
      <trkpt lat="43.09224321506917476654052734375" lon="12.95803262852132320404052734375">
        <ele>954.20001220703125</ele>
        <time>2021-05-09T09:27:34.000Z</time>
        <extensions>
          <ns3:TrackPointExtension>
            <ns3:atemp>26.0</ns3:atemp>
          </ns3:TrackPointExtension>
        </extensions>
      </trkpt>
      <trkpt lat="43.09226031415164470672607421875" lon="12.9579772241413593292236328125">
        <ele>953.79998779296875</ele>
        <time>2021-05-09T09:27:35.000Z</time>
        <extensions>
          <ns3:TrackPointExtension>
            <ns3:atemp>26.0</ns3:atemp>
          </ns3:TrackPointExtension>
        </extensions>
      </trkpt>
      <trkpt lat="43.09228076599538326263427734375" lon="12.9579416848719120025634765625">
        <ele>953.20001220703125</ele>
        <time>2021-05-09T09:27:36.000Z</time>
        <extensions>
          <ns3:TrackPointExtension>
            <ns3:atemp>26.0</ns3:atemp>
          </ns3:TrackPointExtension>
        </extensions>
      </trkpt>
      <trkpt lat="43.0923433788120746612548828125" lon="12.957908995449542999267578125">
        <ele>951.79998779296875</ele>
        <time>2021-05-09T09:27:38.000Z</time>
        <extensions>
          <ns3:TrackPointExtension>
            <ns3:atemp>26.0</ns3:atemp>
          </ns3:TrackPointExtension>
        </extensions>
      </trkpt>
      <trkpt lat="43.09237204492092132568359375" lon="12.95791125856339931488037109375">
        <ele>951.20001220703125</ele>
        <time>2021-05-09T09:27:39.000Z</time>
        <extensions>
          <ns3:TrackPointExtension>
            <ns3:atemp>26.0</ns3:atemp>
          </ns3:TrackPointExtension>
        </extensions>
      </trkpt>
      <trkpt lat="43.09240096248686313629150390625" lon="12.957924418151378631591796875">
        <ele>950</ele>
        <time>2021-05-09T09:27:40.000Z</time>
        <extensions>
          <ns3:TrackPointExtension>
            <ns3:atemp>26.0</ns3:atemp>
          </ns3:TrackPointExtension>
        </extensions>
      </trkpt>
      <trkpt lat="43.09243164025247097015380859375" lon="12.95794813893735408782958984375">
        <ele>949.5999755859375</ele>
        <time>2021-05-09T09:27:41.000Z</time>
        <extensions>
          <ns3:TrackPointExtension>
            <ns3:atemp>26.0</ns3:atemp>
          </ns3:TrackPointExtension>
        </extensions>
      </trkpt>
      <trkpt lat="43.0924607254564762115478515625" lon="12.95796993188560009002685546875">
        <ele>949.20001220703125</ele>
        <time>2021-05-09T09:27:42.000Z</time>
        <extensions>
          <ns3:TrackPointExtension>
            <ns3:atemp>26.0</ns3:atemp>
          </ns3:TrackPointExtension>
        </extensions>
      </trkpt>
      <trkpt lat="43.0924959294497966766357421875" lon="12.95798711478710174560546875">
        <ele>949.20001220703125</ele>
        <time>2021-05-09T09:27:43.000Z</time>
        <extensions>
          <ns3:TrackPointExtension>
            <ns3:atemp>26.0</ns3:atemp>
          </ns3:TrackPointExtension>
        </extensions>
      </trkpt>
      <trkpt lat="43.092533648014068603515625" lon="12.9580000229179859161376953125">
        <ele>948.79998779296875</ele>
        <time>2021-05-09T09:27:44.000Z</time>
        <extensions>
          <ns3:TrackPointExtension>
            <ns3:atemp>26.0</ns3:atemp>
          </ns3:TrackPointExtension>
        </extensions>
      </trkpt>
      <trkpt lat="43.09261612594127655029296875" lon="12.95801125466823577880859375">
        <ele>947.79998779296875</ele>
        <time>2021-05-09T09:27:46.000Z</time>
        <extensions>
          <ns3:TrackPointExtension>
            <ns3:atemp>26.0</ns3:atemp>
          </ns3:TrackPointExtension>
        </extensions>
      </trkpt>
      <trkpt lat="43.09266465716063976287841796875" lon="12.95800982974469661712646484375">
        <ele>947.5999755859375</ele>
        <time>2021-05-09T09:27:47.000Z</time>
        <extensions>
          <ns3:TrackPointExtension>
            <ns3:atemp>26.0</ns3:atemp>
          </ns3:TrackPointExtension>
        </extensions>
      </trkpt>
      <trkpt lat="43.09271276928484439849853515625" lon="12.9580073989927768707275390625">
        <ele>947.20001220703125</ele>
        <time>2021-05-09T09:27:48.000Z</time>
        <extensions>
          <ns3:TrackPointExtension>
            <ns3:atemp>26.0</ns3:atemp>
          </ns3:TrackPointExtension>
        </extensions>
      </trkpt>
      <trkpt lat="43.09275962412357330322265625" lon="12.958008237183094024658203125">
        <ele>946.79998779296875</ele>
        <time>2021-05-09T09:27:49.000Z</time>
        <extensions>
          <ns3:TrackPointExtension>
            <ns3:atemp>26.0</ns3:atemp>
          </ns3:TrackPointExtension>
        </extensions>
      </trkpt>
      <trkpt lat="43.09280580841004848480224609375" lon="12.95801150612533092498779296875">
        <ele>946.20001220703125</ele>
        <time>2021-05-09T09:27:50.000Z</time>
        <extensions>
          <ns3:TrackPointExtension>
            <ns3:atemp>26.0</ns3:atemp>
          </ns3:TrackPointExtension>
        </extensions>
      </trkpt>
      <trkpt lat="43.09285241179168224334716796875" lon="12.9580194689333438873291015625">
        <ele>945.5999755859375</ele>
        <time>2021-05-09T09:27:51.000Z</time>
        <extensions>
          <ns3:TrackPointExtension>
            <ns3:atemp>26.0</ns3:atemp>
          </ns3:TrackPointExtension>
        </extensions>
      </trkpt>
      <trkpt lat="43.0928965844213962554931640625" lon="12.95802826993167400360107421875">
        <ele>945</ele>
        <time>2021-05-09T09:27:52.000Z</time>
        <extensions>
          <ns3:TrackPointExtension>
            <ns3:atemp>26.0</ns3:atemp>
          </ns3:TrackPointExtension>
        </extensions>
      </trkpt>
      <trkpt lat="43.09298015199601650238037109375" lon="12.95804210007190704345703125">
        <ele>943</ele>
        <time>2021-05-09T09:27:54.000Z</time>
        <extensions>
          <ns3:TrackPointExtension>
            <ns3:atemp>26.0</ns3:atemp>
          </ns3:TrackPointExtension>
        </extensions>
      </trkpt>
      <trkpt lat="43.0930119194090366363525390625" lon="12.9580637253820896148681640625">
        <ele>942</ele>
        <time>2021-05-09T09:27:55.000Z</time>
        <extensions>
          <ns3:TrackPointExtension>
            <ns3:atemp>25.0</ns3:atemp>
          </ns3:TrackPointExtension>
        </extensions>
      </trkpt>
      <trkpt lat="43.09303312562406063079833984375" lon="12.95809649862349033355712890625">
        <ele>941.20001220703125</ele>
        <time>2021-05-09T09:27:56.000Z</time>
        <extensions>
          <ns3:TrackPointExtension>
            <ns3:atemp>25.0</ns3:atemp>
          </ns3:TrackPointExtension>
        </extensions>
      </trkpt>
      <trkpt lat="43.09304930269718170166015625" lon="12.9581339657306671142578125">
        <ele>940.4000244140625</ele>
        <time>2021-05-09T09:27:57.000Z</time>
        <extensions>
          <ns3:TrackPointExtension>
            <ns3:atemp>25.0</ns3:atemp>
          </ns3:TrackPointExtension>
        </extensions>
      </trkpt>
      <trkpt lat="43.09305693022906780242919921875" lon="12.9582357220351696014404296875">
        <ele>938.20001220703125</ele>
        <time>2021-05-09T09:27:59.000Z</time>
        <extensions>
          <ns3:TrackPointExtension>
            <ns3:atemp>25.0</ns3:atemp>
          </ns3:TrackPointExtension>
        </extensions>
      </trkpt>
      <trkpt lat="43.0930605344474315643310546875" lon="12.9582947306334972381591796875">
        <ele>937.4000244140625</ele>
        <time>2021-05-09T09:28:00.000Z</time>
        <extensions>
          <ns3:TrackPointExtension>
            <ns3:atemp>25.0</ns3:atemp>
          </ns3:TrackPointExtension>
        </extensions>
      </trkpt>
      <trkpt lat="43.093062378466129302978515625" lon="12.95835415832698345184326171875">
        <ele>937</ele>
        <time>2021-05-09T09:28:01.000Z</time>
        <extensions>
          <ns3:TrackPointExtension>
            <ns3:atemp>25.0</ns3:atemp>
          </ns3:TrackPointExtension>
        </extensions>
      </trkpt>
      <trkpt lat="43.0930689163506031036376953125" lon="12.95847770757973194122314453125">
        <ele>935.5999755859375</ele>
        <time>2021-05-09T09:28:03.000Z</time>
        <extensions>
          <ns3:TrackPointExtension>
            <ns3:atemp>25.0</ns3:atemp>
          </ns3:TrackPointExtension>
        </extensions>
      </trkpt>
      <trkpt lat="43.0930752865970134735107421875" lon="12.9585877619683742523193359375">
        <ele>934.4000244140625</ele>
        <time>2021-05-09T09:28:05.000Z</time>
        <extensions>
          <ns3:TrackPointExtension>
            <ns3:atemp>25.0</ns3:atemp>
          </ns3:TrackPointExtension>
        </extensions>
      </trkpt>
      <trkpt lat="43.09307721443474292755126953125" lon="12.9586373828351497650146484375">
        <ele>933.4000244140625</ele>
        <time>2021-05-09T09:28:06.000Z</time>
        <extensions>
          <ns3:TrackPointExtension>
            <ns3:atemp>25.0</ns3:atemp>
          </ns3:TrackPointExtension>
        </extensions>
      </trkpt>
      <trkpt lat="43.093073777854442596435546875" lon="12.95868842862546443939208984375">
        <ele>932.5999755859375</ele>
        <time>2021-05-09T09:28:07.000Z</time>
        <extensions>
          <ns3:TrackPointExtension>
            <ns3:atemp>25.0</ns3:atemp>
          </ns3:TrackPointExtension>
        </extensions>
      </trkpt>
      <trkpt lat="43.09306011535227298736572265625" lon="12.95881415717303752899169921875">
        <ele>931</ele>
        <time>2021-05-09T09:28:09.000Z</time>
        <extensions>
          <ns3:TrackPointExtension>
            <ns3:atemp>25.0</ns3:atemp>
          </ns3:TrackPointExtension>
        </extensions>
      </trkpt>
      <trkpt lat="43.09305290691554546356201171875" lon="12.95888842083513736724853515625">
        <ele>928.79998779296875</ele>
        <time>2021-05-09T09:28:10.000Z</time>
        <extensions>
          <ns3:TrackPointExtension>
            <ns3:atemp>25.0</ns3:atemp>
          </ns3:TrackPointExtension>
        </extensions>
      </trkpt>
      <trkpt lat="43.0930365622043609619140625" lon="12.9590598307549953460693359375">
        <ele>927.20001220703125</ele>
        <time>2021-05-09T09:28:12.000Z</time>
        <extensions>
          <ns3:TrackPointExtension>
            <ns3:atemp>25.0</ns3:atemp>
          </ns3:TrackPointExtension>
        </extensions>
      </trkpt>
      <trkpt lat="43.09303128160536289215087890625" lon="12.95925236307084560394287109375">
        <ele>925.4000244140625</ele>
        <time>2021-05-09T09:28:14.000Z</time>
        <extensions>
          <ns3:TrackPointExtension>
            <ns3:atemp>25.0</ns3:atemp>
          </ns3:TrackPointExtension>
        </extensions>
      </trkpt>
      <trkpt lat="43.09303815476596355438232421875" lon="12.95943223871290683746337890625">
        <ele>923.20001220703125</ele>
        <time>2021-05-09T09:28:16.000Z</time>
        <extensions>
          <ns3:TrackPointExtension>
            <ns3:atemp>25.0</ns3:atemp>
          </ns3:TrackPointExtension>
        </extensions>
      </trkpt>
      <trkpt lat="43.0930407531559467315673828125" lon="12.95951186679303646087646484375">
        <ele>922</ele>
        <time>2021-05-09T09:28:17.000Z</time>
        <extensions>
          <ns3:TrackPointExtension>
            <ns3:atemp>25.0</ns3:atemp>
          </ns3:TrackPointExtension>
        </extensions>
      </trkpt>
      <trkpt lat="43.093050308525562286376953125" lon="12.95958763919770717620849609375">
        <ele>920.79998779296875</ele>
        <time>2021-05-09T09:28:18.000Z</time>
        <extensions>
          <ns3:TrackPointExtension>
            <ns3:atemp>25.0</ns3:atemp>
          </ns3:TrackPointExtension>
        </extensions>
      </trkpt>
      <trkpt lat="43.09306128881871700286865234375" lon="12.95965519733726978302001953125">
        <ele>920.20001220703125</ele>
        <time>2021-05-09T09:28:19.000Z</time>
        <extensions>
          <ns3:TrackPointExtension>
            <ns3:atemp>25.0</ns3:atemp>
          </ns3:TrackPointExtension>
        </extensions>
      </trkpt>
      <trkpt lat="43.09307939372956752777099609375" lon="12.95976944267749786376953125">
        <ele>919.5999755859375</ele>
        <time>2021-05-09T09:28:21.000Z</time>
        <extensions>
          <ns3:TrackPointExtension>
            <ns3:atemp>25.0</ns3:atemp>
          </ns3:TrackPointExtension>
        </extensions>
      </trkpt>
      <trkpt lat="43.09310135431587696075439453125" lon="12.95986197888851165771484375">
        <ele>919.5999755859375</ele>
        <time>2021-05-09T09:28:23.000Z</time>
        <extensions>
          <ns3:TrackPointExtension>
            <ns3:atemp>25.0</ns3:atemp>
          </ns3:TrackPointExtension>
        </extensions>
      </trkpt>
      <trkpt lat="43.09312163852155208587646484375" lon="12.95995476655662059783935546875">
        <ele>919.5999755859375</ele>
        <time>2021-05-09T09:28:25.000Z</time>
        <extensions>
          <ns3:TrackPointExtension>
            <ns3:atemp>25.0</ns3:atemp>
          </ns3:TrackPointExtension>
        </extensions>
      </trkpt>
      <trkpt lat="43.09323881752789020538330078125" lon="12.96009935438632965087890625">
        <ele>919.5999755859375</ele>
        <time>2021-05-09T09:28:29.000Z</time>
        <extensions>
          <ns3:TrackPointExtension>
            <ns3:atemp>25.0</ns3:atemp>
          </ns3:TrackPointExtension>
        </extensions>
      </trkpt>
      <trkpt lat="43.09332196600735187530517578125" lon="12.96013631857931613922119140625">
        <ele>920</ele>
        <time>2021-05-09T09:28:33.000Z</time>
        <extensions>
          <ns3:TrackPointExtension>
            <ns3:atemp>25.0</ns3:atemp>
          </ns3:TrackPointExtension>
        </extensions>
      </trkpt>
      <trkpt lat="43.09338717721402645111083984375" lon="12.960130535066127777099609375">
        <ele>920.5999755859375</ele>
        <time>2021-05-09T09:28:37.000Z</time>
        <extensions>
          <ns3:TrackPointExtension>
            <ns3:atemp>25.0</ns3:atemp>
          </ns3:TrackPointExtension>
        </extensions>
      </trkpt>
      <trkpt lat="43.09343528933823108673095703125" lon="12.96009667217731475830078125">
        <ele>921.20001220703125</ele>
        <time>2021-05-09T09:28:40.000Z</time>
        <extensions>
          <ns3:TrackPointExtension>
            <ns3:atemp>24.0</ns3:atemp>
          </ns3:TrackPointExtension>
        </extensions>
      </trkpt>
      <trkpt lat="43.0934477783739566802978515625" lon="12.9600804112851619720458984375">
        <ele>921.20001220703125</ele>
        <time>2021-05-09T09:28:41.000Z</time>
        <extensions>
          <ns3:TrackPointExtension>
            <ns3:atemp>24.0</ns3:atemp>
          </ns3:TrackPointExtension>
        </extensions>
      </trkpt>
      <trkpt lat="43.09348247945308685302734375" lon="12.95997790060937404632568359375">
        <ele>921.4000244140625</ele>
        <time>2021-05-09T09:28:45.000Z</time>
        <extensions>
          <ns3:TrackPointExtension>
            <ns3:atemp>24.0</ns3:atemp>
          </ns3:TrackPointExtension>
        </extensions>
      </trkpt>
      <trkpt lat="43.0935597606003284454345703125" lon="12.95974195003509521484375">
        <ele>920.5999755859375</ele>
        <time>2021-05-09T09:28:52.000Z</time>
        <extensions>
          <ns3:TrackPointExtension>
            <ns3:atemp>24.0</ns3:atemp>
          </ns3:TrackPointExtension>
        </extensions>
      </trkpt>
      <trkpt lat="43.09361994266510009765625" lon="12.95961898751556873321533203125">
        <ele>919.4000244140625</ele>
        <time>2021-05-09T09:28:56.000Z</time>
        <extensions>
          <ns3:TrackPointExtension>
            <ns3:atemp>24.0</ns3:atemp>
          </ns3:TrackPointExtension>
        </extensions>
      </trkpt>
      <trkpt lat="43.09365405701100826263427734375" lon="12.95955888926982879638671875">
        <ele>918.79998779296875</ele>
        <time>2021-05-09T09:28:58.000Z</time>
        <extensions>
          <ns3:TrackPointExtension>
            <ns3:atemp>24.0</ns3:atemp>
          </ns3:TrackPointExtension>
        </extensions>
      </trkpt>
      <trkpt lat="43.09368942864239215850830078125" lon="12.95950029976665973663330078125">
        <ele>918.20001220703125</ele>
        <time>2021-05-09T09:29:00.000Z</time>
        <extensions>
          <ns3:TrackPointExtension>
            <ns3:atemp>24.0</ns3:atemp>
          </ns3:TrackPointExtension>
        </extensions>
      </trkpt>
      <trkpt lat="43.09378934092819690704345703125" lon="12.95937121845781803131103515625">
        <ele>916.5999755859375</ele>
        <time>2021-05-09T09:29:04.000Z</time>
        <extensions>
          <ns3:TrackPointExtension>
            <ns3:atemp>24.0</ns3:atemp>
          </ns3:TrackPointExtension>
        </extensions>
      </trkpt>
      <trkpt lat="43.0938197672367095947265625" lon="12.959338612854480743408203125">
        <ele>916.20001220703125</ele>
        <time>2021-05-09T09:29:05.000Z</time>
        <extensions>
          <ns3:TrackPointExtension>
            <ns3:atemp>24.0</ns3:atemp>
          </ns3:TrackPointExtension>
        </extensions>
      </trkpt>
      <trkpt lat="43.0938769318163394927978515625" lon="12.959257476031780242919921875">
        <ele>915.4000244140625</ele>
        <time>2021-05-09T09:29:07.000Z</time>
        <extensions>
          <ns3:TrackPointExtension>
            <ns3:atemp>24.0</ns3:atemp>
          </ns3:TrackPointExtension>
        </extensions>
      </trkpt>
      <trkpt lat="43.093922697007656097412109375" lon="12.95916485600173473358154296875">
        <ele>913.79998779296875</ele>
        <time>2021-05-09T09:29:09.000Z</time>
        <extensions>
          <ns3:TrackPointExtension>
            <ns3:atemp>24.0</ns3:atemp>
          </ns3:TrackPointExtension>
        </extensions>
      </trkpt>
      <trkpt lat="43.09394381940364837646484375" lon="12.95911489985883235931396484375">
        <ele>913.4000244140625</ele>
        <time>2021-05-09T09:29:10.000Z</time>
        <extensions>
          <ns3:TrackPointExtension>
            <ns3:atemp>24.0</ns3:atemp>
          </ns3:TrackPointExtension>
        </extensions>
      </trkpt>
      <trkpt lat="43.0939711444079875946044921875" lon="12.95905530452728271484375">
        <ele>912.5999755859375</ele>
        <time>2021-05-09T09:29:11.000Z</time>
        <extensions>
          <ns3:TrackPointExtension>
            <ns3:atemp>24.0</ns3:atemp>
          </ns3:TrackPointExtension>
        </extensions>
      </trkpt>
      <trkpt lat="43.09403576888144016265869140625" lon="12.95893703587353229522705078125">
        <ele>911</ele>
        <time>2021-05-09T09:29:13.000Z</time>
        <extensions>
          <ns3:TrackPointExtension>
            <ns3:atemp>24.0</ns3:atemp>
          </ns3:TrackPointExtension>
        </extensions>
      </trkpt>
      <trkpt lat="43.09407097287476062774658203125" lon="12.958875596523284912109375">
        <ele>910.4000244140625</ele>
        <time>2021-05-09T09:29:14.000Z</time>
        <extensions>
          <ns3:TrackPointExtension>
            <ns3:atemp>24.0</ns3:atemp>
          </ns3:TrackPointExtension>
        </extensions>
      </trkpt>
      <trkpt lat="43.09410475194454193115234375" lon="12.95880845747888088226318359375">
        <ele>909.79998779296875</ele>
        <time>2021-05-09T09:29:15.000Z</time>
        <extensions>
          <ns3:TrackPointExtension>
            <ns3:atemp>24.0</ns3:atemp>
          </ns3:TrackPointExtension>
        </extensions>
      </trkpt>
      <trkpt lat="43.0941676162183284759521484375" lon="12.95867870561778545379638671875">
        <ele>908.79998779296875</ele>
        <time>2021-05-09T09:29:17.000Z</time>
        <extensions>
          <ns3:TrackPointExtension>
            <ns3:atemp>24.0</ns3:atemp>
          </ns3:TrackPointExtension>
        </extensions>
      </trkpt>
      <trkpt lat="43.09422603808343410491943359375" lon="12.95855700038373470306396484375">
        <ele>906.79998779296875</ele>
        <time>2021-05-09T09:29:19.000Z</time>
        <extensions>
          <ns3:TrackPointExtension>
            <ns3:atemp>24.0</ns3:atemp>
          </ns3:TrackPointExtension>
        </extensions>
      </trkpt>
      <trkpt lat="43.0942588113248348236083984375" lon="12.958478294312953948974609375">
        <ele>906</ele>
        <time>2021-05-09T09:29:20.000Z</time>
        <extensions>
          <ns3:TrackPointExtension>
            <ns3:atemp>24.0</ns3:atemp>
          </ns3:TrackPointExtension>
        </extensions>
      </trkpt>
      <trkpt lat="43.094288147985935211181640625" lon="12.958405204117298126220703125">
        <ele>904.79998779296875</ele>
        <time>2021-05-09T09:29:21.000Z</time>
        <extensions>
          <ns3:TrackPointExtension>
            <ns3:atemp>24.0</ns3:atemp>
          </ns3:TrackPointExtension>
        </extensions>
      </trkpt>
      <trkpt lat="43.09431790374219417572021484375" lon="12.95833320356905460357666015625">
        <ele>903.79998779296875</ele>
        <time>2021-05-09T09:29:22.000Z</time>
        <extensions>
          <ns3:TrackPointExtension>
            <ns3:atemp>24.0</ns3:atemp>
          </ns3:TrackPointExtension>
        </extensions>
      </trkpt>
      <trkpt lat="43.0943433009088039398193359375" lon="12.958263047039508819580078125">
        <ele>902.20001220703125</ele>
        <time>2021-05-09T09:29:23.000Z</time>
        <extensions>
          <ns3:TrackPointExtension>
            <ns3:atemp>24.0</ns3:atemp>
          </ns3:TrackPointExtension>
        </extensions>
      </trkpt>
      <trkpt lat="43.0943630822002887725830078125" lon="12.9581807367503643035888671875">
        <ele>901</ele>
        <time>2021-05-09T09:29:24.000Z</time>
        <extensions>
          <ns3:TrackPointExtension>
            <ns3:atemp>24.0</ns3:atemp>
          </ns3:TrackPointExtension>
        </extensions>
      </trkpt>
      <trkpt lat="43.09438194148242473602294921875" lon="12.95811116695404052734375">
        <ele>899.79998779296875</ele>
        <time>2021-05-09T09:29:25.000Z</time>
        <extensions>
          <ns3:TrackPointExtension>
            <ns3:atemp>24.0</ns3:atemp>
          </ns3:TrackPointExtension>
        </extensions>
      </trkpt>
      <trkpt lat="43.09443206526339054107666015625" lon="12.9579504020512104034423828125">
        <ele>898.20001220703125</ele>
        <time>2021-05-09T09:29:27.000Z</time>
        <extensions>
          <ns3:TrackPointExtension>
            <ns3:atemp>24.0</ns3:atemp>
          </ns3:TrackPointExtension>
        </extensions>
      </trkpt>
      <trkpt lat="43.09445922262966632843017578125" lon="12.957868762314319610595703125">
        <ele>897.20001220703125</ele>
        <time>2021-05-09T09:29:28.000Z</time>
        <extensions>
          <ns3:TrackPointExtension>
            <ns3:atemp>24.0</ns3:atemp>
          </ns3:TrackPointExtension>
        </extensions>
      </trkpt>
      <trkpt lat="43.0944821052253246307373046875" lon="12.95779667794704437255859375">
        <ele>895.5999755859375</ele>
        <time>2021-05-09T09:29:29.000Z</time>
        <extensions>
          <ns3:TrackPointExtension>
            <ns3:atemp>24.0</ns3:atemp>
          </ns3:TrackPointExtension>
        </extensions>
      </trkpt>
      <trkpt lat="43.09450197033584117889404296875" lon="12.957732640206813812255859375">
        <ele>894.4000244140625</ele>
        <time>2021-05-09T09:29:30.000Z</time>
        <extensions>
          <ns3:TrackPointExtension>
            <ns3:atemp>24.0</ns3:atemp>
          </ns3:TrackPointExtension>
        </extensions>
      </trkpt>
      <trkpt lat="43.094518817961215972900390625" lon="12.957685030996799468994140625">
        <ele>893.20001220703125</ele>
        <time>2021-05-09T09:29:31.000Z</time>
        <extensions>
          <ns3:TrackPointExtension>
            <ns3:atemp>24.0</ns3:atemp>
          </ns3:TrackPointExtension>
        </extensions>
      </trkpt>
      <trkpt lat="43.0945287086069583892822265625" lon="12.95764823444187641143798828125">
        <ele>892</ele>
        <time>2021-05-09T09:29:32.000Z</time>
        <extensions>
          <ns3:TrackPointExtension>
            <ns3:atemp>24.0</ns3:atemp>
          </ns3:TrackPointExtension>
        </extensions>
      </trkpt>
      <trkpt lat="43.09453063644468784332275390625" lon="12.957624681293964385986328125">
        <ele>891</ele>
        <time>2021-05-09T09:29:33.000Z</time>
        <extensions>
          <ns3:TrackPointExtension>
            <ns3:atemp>24.0</ns3:atemp>
          </ns3:TrackPointExtension>
        </extensions>
      </trkpt>
      <trkpt lat="43.09453256428241729736328125" lon="12.9576136171817779541015625">
        <ele>889.5999755859375</ele>
        <time>2021-05-09T09:29:34.000Z</time>
        <extensions>
          <ns3:TrackPointExtension>
            <ns3:atemp>24.0</ns3:atemp>
          </ns3:TrackPointExtension>
        </extensions>
      </trkpt>
      <trkpt lat="43.09453398920595645904541015625" lon="12.95760129578411579132080078125">
        <ele>888.5999755859375</ele>
        <time>2021-05-09T09:29:35.000Z</time>
        <extensions>
          <ns3:TrackPointExtension>
            <ns3:atemp>24.0</ns3:atemp>
          </ns3:TrackPointExtension>
        </extensions>
      </trkpt>
      <trkpt lat="43.09453533031046390533447265625" lon="12.9575826041400432586669921875">
        <ele>887.20001220703125</ele>
        <time>2021-05-09T09:29:37.000Z</time>
        <extensions>
          <ns3:TrackPointExtension>
            <ns3:atemp>24.0</ns3:atemp>
          </ns3:TrackPointExtension>
        </extensions>
      </trkpt>
      <trkpt lat="43.0945354141294956207275390625" lon="12.95758017338812351226806640625">
        <ele>886</ele>
        <time>2021-05-09T09:29:39.000Z</time>
        <extensions>
          <ns3:TrackPointExtension>
            <ns3:atemp>24.0</ns3:atemp>
          </ns3:TrackPointExtension>
        </extensions>
      </trkpt>
      <trkpt lat="43.094528205692768096923828125" lon="12.957579754292964935302734375">
        <ele>885.5999755859375</ele>
        <time>2021-05-09T09:29:49.000Z</time>
        <extensions>
          <ns3:TrackPointExtension>
            <ns3:atemp>23.0</ns3:atemp>
          </ns3:TrackPointExtension>
        </extensions>
      </trkpt>
      <trkpt lat="43.0945263616740703582763671875" lon="12.957580424845218658447265625">
        <ele>885.4000244140625</ele>
        <time>2021-05-09T09:29:59.000Z</time>
        <extensions>
          <ns3:TrackPointExtension>
            <ns3:atemp>23.0</ns3:atemp>
          </ns3:TrackPointExtension>
        </extensions>
      </trkpt>
      <trkpt lat="43.0945417843759059906005859375" lon="12.95755888335406780242919921875">
        <ele>885.5999755859375</ele>
        <time>2021-05-09T09:30:12.000Z</time>
        <extensions>
          <ns3:TrackPointExtension>
            <ns3:atemp>23.0</ns3:atemp>
          </ns3:TrackPointExtension>
        </extensions>
      </trkpt>
      <trkpt lat="43.094591237604618072509765625" lon="12.95746232382953166961669921875">
        <ele>885.4000244140625</ele>
        <time>2021-05-09T09:30:17.000Z</time>
        <extensions>
          <ns3:TrackPointExtension>
            <ns3:atemp>23.0</ns3:atemp>
          </ns3:TrackPointExtension>
        </extensions>
      </trkpt>
      <trkpt lat="43.09469617903232574462890625" lon="12.9572241939604282379150390625">
        <ele>884.79998779296875</ele>
        <time>2021-05-09T09:30:23.000Z</time>
        <extensions>
          <ns3:TrackPointExtension>
            <ns3:atemp>23.0</ns3:atemp>
          </ns3:TrackPointExtension>
        </extensions>
      </trkpt>
      <trkpt lat="43.094715289771556854248046875" lon="12.957172058522701263427734375">
        <ele>884.5999755859375</ele>
        <time>2021-05-09T09:30:24.000Z</time>
        <extensions>
          <ns3:TrackPointExtension>
            <ns3:atemp>23.0</ns3:atemp>
          </ns3:TrackPointExtension>
        </extensions>
      </trkpt>
      <trkpt lat="43.0947942472994327545166015625" lon="12.9569244571030139923095703125">
        <ele>883.5999755859375</ele>
        <time>2021-05-09T09:30:28.000Z</time>
        <extensions>
          <ns3:TrackPointExtension>
            <ns3:atemp>23.0</ns3:atemp>
          </ns3:TrackPointExtension>
        </extensions>
      </trkpt>
      <trkpt lat="43.094815872609615325927734375" lon="12.95685044489800930023193359375">
        <ele>883.20001220703125</ele>
        <time>2021-05-09T09:30:29.000Z</time>
        <extensions>
          <ns3:TrackPointExtension>
            <ns3:atemp>23.0</ns3:atemp>
          </ns3:TrackPointExtension>
        </extensions>
      </trkpt>
      <trkpt lat="43.0949058942496776580810546875" lon="12.9565160907804965972900390625">
        <ele>882.20001220703125</ele>
        <time>2021-05-09T09:30:33.000Z</time>
        <extensions>
          <ns3:TrackPointExtension>
            <ns3:atemp>23.0</ns3:atemp>
          </ns3:TrackPointExtension>
        </extensions>
      </trkpt>
      <trkpt lat="43.0949250049889087677001953125" lon="12.9564295895397663116455078125">
        <ele>881.79998779296875</ele>
        <time>2021-05-09T09:30:34.000Z</time>
        <extensions>
          <ns3:TrackPointExtension>
            <ns3:atemp>23.0</ns3:atemp>
          </ns3:TrackPointExtension>
        </extensions>
      </trkpt>
      <trkpt lat="43.0949662439525127410888671875" lon="12.956264801323413848876953125">
        <ele>880.20001220703125</ele>
        <time>2021-05-09T09:30:36.000Z</time>
        <extensions>
          <ns3:TrackPointExtension>
            <ns3:atemp>23.0</ns3:atemp>
          </ns3:TrackPointExtension>
        </extensions>
      </trkpt>
      <trkpt lat="43.094992898404598236083984375" lon="12.9561902023851871490478515625">
        <ele>879.79998779296875</ele>
        <time>2021-05-09T09:30:37.000Z</time>
        <extensions>
          <ns3:TrackPointExtension>
            <ns3:atemp>23.0</ns3:atemp>
          </ns3:TrackPointExtension>
        </extensions>
      </trkpt>
      <trkpt lat="43.0950316227972507476806640625" lon="12.95612323097884654998779296875">
        <ele>879.4000244140625</ele>
        <time>2021-05-09T09:30:38.000Z</time>
        <extensions>
          <ns3:TrackPointExtension>
            <ns3:atemp>23.0</ns3:atemp>
          </ns3:TrackPointExtension>
        </extensions>
      </trkpt>
      <trkpt lat="43.095079399645328521728515625" lon="12.95606690458953380584716796875">
        <ele>879</ele>
        <time>2021-05-09T09:30:39.000Z</time>
        <extensions>
          <ns3:TrackPointExtension>
            <ns3:atemp>23.0</ns3:atemp>
          </ns3:TrackPointExtension>
        </extensions>
      </trkpt>
      <trkpt lat="43.095189034938812255859375" lon="12.95600454322993755340576171875">
        <ele>877.5999755859375</ele>
        <time>2021-05-09T09:30:41.000Z</time>
        <extensions>
          <ns3:TrackPointExtension>
            <ns3:atemp>23.0</ns3:atemp>
          </ns3:TrackPointExtension>
        </extensions>
      </trkpt>
      <trkpt lat="43.0953092314302921295166015625" lon="12.955988533794879913330078125">
        <ele>876.4000244140625</ele>
        <time>2021-05-09T09:30:43.000Z</time>
        <extensions>
          <ns3:TrackPointExtension>
            <ns3:atemp>23.0</ns3:atemp>
          </ns3:TrackPointExtension>
        </extensions>
      </trkpt>
      <trkpt lat="43.0954979918897151947021484375" lon="12.95598174445331096649169921875">
        <ele>875.4000244140625</ele>
        <time>2021-05-09T09:30:46.000Z</time>
        <extensions>
          <ns3:TrackPointExtension>
            <ns3:atemp>23.0</ns3:atemp>
          </ns3:TrackPointExtension>
        </extensions>
      </trkpt>
      <trkpt lat="43.09568650089204311370849609375" lon="12.9559876956045627593994140625">
        <ele>874.20001220703125</ele>
        <time>2021-05-09T09:30:49.000Z</time>
        <extensions>
          <ns3:TrackPointExtension>
            <ns3:atemp>23.0</ns3:atemp>
          </ns3:TrackPointExtension>
        </extensions>
      </trkpt>
      <trkpt lat="43.09588112868368625640869140625" lon="12.95599113218486309051513671875">
        <ele>873</ele>
        <time>2021-05-09T09:30:52.000Z</time>
        <extensions>
          <ns3:TrackPointExtension>
            <ns3:atemp>23.0</ns3:atemp>
          </ns3:TrackPointExtension>
        </extensions>
      </trkpt>
      <trkpt lat="43.09594566933810710906982421875" lon="12.95599280856549739837646484375">
        <ele>872.5999755859375</ele>
        <time>2021-05-09T09:30:53.000Z</time>
        <extensions>
          <ns3:TrackPointExtension>
            <ns3:atemp>23.0</ns3:atemp>
          </ns3:TrackPointExtension>
        </extensions>
      </trkpt>
      <trkpt lat="43.09601205401122570037841796875" lon="12.95599062927067279815673828125">
        <ele>872</ele>
        <time>2021-05-09T09:30:54.000Z</time>
        <extensions>
          <ns3:TrackPointExtension>
            <ns3:atemp>23.0</ns3:atemp>
          </ns3:TrackPointExtension>
        </extensions>
      </trkpt>
      <trkpt lat="43.09614113532006740570068359375" lon="12.95598995871841907501220703125">
        <ele>871</ele>
        <time>2021-05-09T09:30:56.000Z</time>
        <extensions>
          <ns3:TrackPointExtension>
            <ns3:atemp>23.0</ns3:atemp>
          </ns3:TrackPointExtension>
        </extensions>
      </trkpt>
      <trkpt lat="43.0962744913995265960693359375" lon="12.95598761178553104400634765625">
        <ele>869.5999755859375</ele>
        <time>2021-05-09T09:30:58.000Z</time>
        <extensions>
          <ns3:TrackPointExtension>
            <ns3:atemp>23.0</ns3:atemp>
          </ns3:TrackPointExtension>
        </extensions>
      </trkpt>
      <trkpt lat="43.09633945114910602569580078125" lon="12.955983839929103851318359375">
        <ele>869</ele>
        <time>2021-05-09T09:30:59.000Z</time>
        <extensions>
          <ns3:TrackPointExtension>
            <ns3:atemp>23.0</ns3:atemp>
          </ns3:TrackPointExtension>
        </extensions>
      </trkpt>
      <trkpt lat="43.0964065901935100555419921875" lon="12.95597612857818603515625">
        <ele>868.4000244140625</ele>
        <time>2021-05-09T09:31:00.000Z</time>
        <extensions>
          <ns3:TrackPointExtension>
            <ns3:atemp>23.0</ns3:atemp>
          </ns3:TrackPointExtension>
        </extensions>
      </trkpt>
      <trkpt lat="43.09654162265360355377197265625" lon="12.9559578560292720794677734375">
        <ele>867.20001220703125</ele>
        <time>2021-05-09T09:31:02.000Z</time>
        <extensions>
          <ns3:TrackPointExtension>
            <ns3:atemp>23.0</ns3:atemp>
          </ns3:TrackPointExtension>
        </extensions>
      </trkpt>
      <trkpt lat="43.09667221270501613616943359375" lon="12.955942936241626739501953125">
        <ele>865.79998779296875</ele>
        <time>2021-05-09T09:31:04.000Z</time>
        <extensions>
          <ns3:TrackPointExtension>
            <ns3:atemp>23.0</ns3:atemp>
          </ns3:TrackPointExtension>
        </extensions>
      </trkpt>
      <trkpt lat="43.0967368371784687042236328125" lon="12.95593631453812122344970703125">
        <ele>865.20001220703125</ele>
        <time>2021-05-09T09:31:05.000Z</time>
        <extensions>
          <ns3:TrackPointExtension>
            <ns3:atemp>23.0</ns3:atemp>
          </ns3:TrackPointExtension>
        </extensions>
      </trkpt>
      <trkpt lat="43.09680095873773097991943359375" lon="12.95592893846333026885986328125">
        <ele>864.5999755859375</ele>
        <time>2021-05-09T09:31:06.000Z</time>
        <extensions>
          <ns3:TrackPointExtension>
            <ns3:atemp>23.0</ns3:atemp>
          </ns3:TrackPointExtension>
        </extensions>
      </trkpt>
      <trkpt lat="43.09692786075174808502197265625" lon="12.9559239931404590606689453125">
        <ele>863.4000244140625</ele>
        <time>2021-05-09T09:31:08.000Z</time>
        <extensions>
          <ns3:TrackPointExtension>
            <ns3:atemp>23.0</ns3:atemp>
          </ns3:TrackPointExtension>
        </extensions>
      </trkpt>
      <trkpt lat="43.09704872779548168182373046875" lon="12.9559122584760189056396484375">
        <ele>862.20001220703125</ele>
        <time>2021-05-09T09:31:10.000Z</time>
        <extensions>
          <ns3:TrackPointExtension>
            <ns3:atemp>23.0</ns3:atemp>
          </ns3:TrackPointExtension>
        </extensions>
      </trkpt>
      <trkpt lat="43.09722860343754291534423828125" lon="12.95588904060423374176025390625">
        <ele>860.79998779296875</ele>
        <time>2021-05-09T09:31:13.000Z</time>
        <extensions>
          <ns3:TrackPointExtension>
            <ns3:atemp>23.0</ns3:atemp>
          </ns3:TrackPointExtension>
        </extensions>
      </trkpt>
      <trkpt lat="43.097345530986785888671875" lon="12.955877222120761871337890625">
        <ele>859.79998779296875</ele>
        <time>2021-05-09T09:31:15.000Z</time>
        <extensions>
          <ns3:TrackPointExtension>
            <ns3:atemp>23.0</ns3:atemp>
          </ns3:TrackPointExtension>
        </extensions>
      </trkpt>
      <trkpt lat="43.09746086597442626953125" lon="12.9558529146015644073486328125">
        <ele>858.4000244140625</ele>
        <time>2021-05-09T09:31:17.000Z</time>
        <extensions>
          <ns3:TrackPointExtension>
            <ns3:atemp>23.0</ns3:atemp>
          </ns3:TrackPointExtension>
        </extensions>
      </trkpt>
      <trkpt lat="43.09757594950497150421142578125" lon="12.95582659542560577392578125">
        <ele>857.4000244140625</ele>
        <time>2021-05-09T09:31:19.000Z</time>
        <extensions>
          <ns3:TrackPointExtension>
            <ns3:atemp>23.0</ns3:atemp>
          </ns3:TrackPointExtension>
        </extensions>
      </trkpt>
      <trkpt lat="43.0977041088044643402099609375" lon="12.95579616911709308624267578125">
        <ele>856.20001220703125</ele>
        <time>2021-05-09T09:31:21.000Z</time>
        <extensions>
          <ns3:TrackPointExtension>
            <ns3:atemp>23.0</ns3:atemp>
          </ns3:TrackPointExtension>
        </extensions>
      </trkpt>
      <trkpt lat="43.097828663885593414306640625" lon="12.955781333148479461669921875">
        <ele>854.79998779296875</ele>
        <time>2021-05-09T09:31:23.000Z</time>
        <extensions>
          <ns3:TrackPointExtension>
            <ns3:atemp>23.0</ns3:atemp>
          </ns3:TrackPointExtension>
        </extensions>
      </trkpt>
      <trkpt lat="43.09789379127323627471923828125" lon="12.9557771421968936920166015625">
        <ele>854.4000244140625</ele>
        <time>2021-05-09T09:31:24.000Z</time>
        <extensions>
          <ns3:TrackPointExtension>
            <ns3:atemp>23.0</ns3:atemp>
          </ns3:TrackPointExtension>
        </extensions>
      </trkpt>
      <trkpt lat="43.0980232916772365570068359375" lon="12.95576984994113445281982421875">
        <ele>853.4000244140625</ele>
        <time>2021-05-09T09:31:26.000Z</time>
        <extensions>
          <ns3:TrackPointExtension>
            <ns3:atemp>23.0</ns3:atemp>
          </ns3:TrackPointExtension>
        </extensions>
      </trkpt>
      <trkpt lat="43.09815044514834880828857421875" lon="12.9557717777788639068603515625">
        <ele>852.20001220703125</ele>
        <time>2021-05-09T09:31:28.000Z</time>
        <extensions>
          <ns3:TrackPointExtension>
            <ns3:atemp>23.0</ns3:atemp>
          </ns3:TrackPointExtension>
        </extensions>
      </trkpt>
      <trkpt lat="43.09828153811395168304443359375" lon="12.9557855241000652313232421875">
        <ele>850.5999755859375</ele>
        <time>2021-05-09T09:31:30.000Z</time>
        <extensions>
          <ns3:TrackPointExtension>
            <ns3:atemp>23.0</ns3:atemp>
          </ns3:TrackPointExtension>
        </extensions>
      </trkpt>
      <trkpt lat="43.09840969741344451904296875" lon="12.95580505393445491790771484375">
        <ele>849.20001220703125</ele>
        <time>2021-05-09T09:31:32.000Z</time>
        <extensions>
          <ns3:TrackPointExtension>
            <ns3:atemp>23.0</ns3:atemp>
          </ns3:TrackPointExtension>
        </extensions>
      </trkpt>
      <trkpt lat="43.09855110011994838714599609375" lon="12.95583522878587245941162109375">
        <ele>847.20001220703125</ele>
        <time>2021-05-09T09:31:34.000Z</time>
        <extensions>
          <ns3:TrackPointExtension>
            <ns3:atemp>23.0</ns3:atemp>
          </ns3:TrackPointExtension>
        </extensions>
      </trkpt>
      <trkpt lat="43.098623268306255340576171875" lon="12.9558540880680084228515625">
        <ele>846.5999755859375</ele>
        <time>2021-05-09T09:31:35.000Z</time>
        <extensions>
          <ns3:TrackPointExtension>
            <ns3:atemp>23.0</ns3:atemp>
          </ns3:TrackPointExtension>
        </extensions>
      </trkpt>
      <trkpt lat="43.098699711263179779052734375" lon="12.95587579719722270965576171875">
        <ele>846</ele>
        <time>2021-05-09T09:31:36.000Z</time>
        <extensions>
          <ns3:TrackPointExtension>
            <ns3:atemp>23.0</ns3:atemp>
          </ns3:TrackPointExtension>
        </extensions>
      </trkpt>
      <trkpt lat="43.09884421527385711669921875" lon="12.95591066591441631317138671875">
        <ele>844.79998779296875</ele>
        <time>2021-05-09T09:31:38.000Z</time>
        <extensions>
          <ns3:TrackPointExtension>
            <ns3:atemp>23.0</ns3:atemp>
          </ns3:TrackPointExtension>
        </extensions>
      </trkpt>
      <trkpt lat="43.09898595325648784637451171875" lon="12.95595777221024036407470703125">
        <ele>843.5999755859375</ele>
        <time>2021-05-09T09:31:40.000Z</time>
        <extensions>
          <ns3:TrackPointExtension>
            <ns3:atemp>23.0</ns3:atemp>
          </ns3:TrackPointExtension>
        </extensions>
      </trkpt>
      <trkpt lat="43.09912928380072116851806640625" lon="12.956018038094043731689453125">
        <ele>842.20001220703125</ele>
        <time>2021-05-09T09:31:42.000Z</time>
        <extensions>
          <ns3:TrackPointExtension>
            <ns3:atemp>23.0</ns3:atemp>
          </ns3:TrackPointExtension>
        </extensions>
      </trkpt>
      <trkpt lat="43.0992807447910308837890625" lon="12.95608903281390666961669921875">
        <ele>841</ele>
        <time>2021-05-09T09:31:44.000Z</time>
        <extensions>
          <ns3:TrackPointExtension>
            <ns3:atemp>23.0</ns3:atemp>
          </ns3:TrackPointExtension>
        </extensions>
      </trkpt>
      <trkpt lat="43.0994341336190700531005859375" lon="12.9561603628098964691162109375">
        <ele>839.5999755859375</ele>
        <time>2021-05-09T09:31:46.000Z</time>
        <extensions>
          <ns3:TrackPointExtension>
            <ns3:atemp>23.0</ns3:atemp>
          </ns3:TrackPointExtension>
        </extensions>
      </trkpt>
      <trkpt lat="43.09959095902740955352783203125" lon="12.9562183655798435211181640625">
        <ele>838.20001220703125</ele>
        <time>2021-05-09T09:31:48.000Z</time>
        <extensions>
          <ns3:TrackPointExtension>
            <ns3:atemp>23.0</ns3:atemp>
          </ns3:TrackPointExtension>
        </extensions>
      </trkpt>
      <trkpt lat="43.099746443331241607666015625" lon="12.9562706686556339263916015625">
        <ele>836.5999755859375</ele>
        <time>2021-05-09T09:31:50.000Z</time>
        <extensions>
          <ns3:TrackPointExtension>
            <ns3:atemp>22.0</ns3:atemp>
          </ns3:TrackPointExtension>
        </extensions>
      </trkpt>
      <trkpt lat="43.09989572502672672271728515625" lon="12.956315092742443084716796875">
        <ele>834.5999755859375</ele>
        <time>2021-05-09T09:31:52.000Z</time>
        <extensions>
          <ns3:TrackPointExtension>
            <ns3:atemp>22.0</ns3:atemp>
          </ns3:TrackPointExtension>
        </extensions>
      </trkpt>
      <trkpt lat="43.100042827427387237548828125" lon="12.95635054819285869598388671875">
        <ele>832.5999755859375</ele>
        <time>2021-05-09T09:31:54.000Z</time>
        <extensions>
          <ns3:TrackPointExtension>
            <ns3:atemp>22.0</ns3:atemp>
          </ns3:TrackPointExtension>
        </extensions>
      </trkpt>
      <trkpt lat="43.1001167558133602142333984375" lon="12.95635842718183994293212890625">
        <ele>831.5999755859375</ele>
        <time>2021-05-09T09:31:55.000Z</time>
        <extensions>
          <ns3:TrackPointExtension>
            <ns3:atemp>22.0</ns3:atemp>
          </ns3:TrackPointExtension>
        </extensions>
      </trkpt>
      <trkpt lat="43.1001901812851428985595703125" lon="12.95636362396180629730224609375">
        <ele>830.4000244140625</ele>
        <time>2021-05-09T09:31:56.000Z</time>
        <extensions>
          <ns3:TrackPointExtension>
            <ns3:atemp>22.0</ns3:atemp>
          </ns3:TrackPointExtension>
        </extensions>
      </trkpt>
      <trkpt lat="43.100262768566608428955078125" lon="12.95636177994310855865478515625">
        <ele>829.20001220703125</ele>
        <time>2021-05-09T09:31:57.000Z</time>
        <extensions>
          <ns3:TrackPointExtension>
            <ns3:atemp>22.0</ns3:atemp>
          </ns3:TrackPointExtension>
        </extensions>
      </trkpt>
      <trkpt lat="43.1003608368337154388427734375" lon="12.95628651045262813568115234375">
        <ele>827.79998779296875</ele>
        <time>2021-05-09T09:31:59.000Z</time>
        <extensions>
          <ns3:TrackPointExtension>
            <ns3:atemp>22.0</ns3:atemp>
          </ns3:TrackPointExtension>
        </extensions>
      </trkpt>
      <trkpt lat="43.10036192648112773895263671875" lon="12.95613781549036502838134765625">
        <ele>826.5999755859375</ele>
        <time>2021-05-09T09:32:01.000Z</time>
        <extensions>
          <ns3:TrackPointExtension>
            <ns3:atemp>22.0</ns3:atemp>
          </ns3:TrackPointExtension>
        </extensions>
      </trkpt>
      <trkpt lat="43.10026670806109905242919921875" lon="12.95597218908369541168212890625">
        <ele>825.20001220703125</ele>
        <time>2021-05-09T09:32:03.000Z</time>
        <extensions>
          <ns3:TrackPointExtension>
            <ns3:atemp>22.0</ns3:atemp>
          </ns3:TrackPointExtension>
        </extensions>
      </trkpt>
      <trkpt lat="43.1002109684050083160400390625" lon="12.9558894596993923187255859375">
        <ele>824.5999755859375</ele>
        <time>2021-05-09T09:32:04.000Z</time>
        <extensions>
          <ns3:TrackPointExtension>
            <ns3:atemp>22.0</ns3:atemp>
          </ns3:TrackPointExtension>
        </extensions>
      </trkpt>
      <trkpt lat="43.1000952981412410736083984375" lon="12.95571335591375827789306640625">
        <ele>823.5999755859375</ele>
        <time>2021-05-09T09:32:06.000Z</time>
        <extensions>
          <ns3:TrackPointExtension>
            <ns3:atemp>22.0</ns3:atemp>
          </ns3:TrackPointExtension>
        </extensions>
      </trkpt>
      <trkpt lat="43.09998859651386737823486328125" lon="12.955533564090728759765625">
        <ele>822.20001220703125</ele>
        <time>2021-05-09T09:32:08.000Z</time>
        <extensions>
          <ns3:TrackPointExtension>
            <ns3:atemp>22.0</ns3:atemp>
          </ns3:TrackPointExtension>
        </extensions>
      </trkpt>
      <trkpt lat="43.0998971499502658843994140625" lon="12.9553372599184513092041015625">
        <ele>820.5999755859375</ele>
        <time>2021-05-09T09:32:10.000Z</time>
        <extensions>
          <ns3:TrackPointExtension>
            <ns3:atemp>22.0</ns3:atemp>
          </ns3:TrackPointExtension>
        </extensions>
      </trkpt>
      <trkpt lat="43.0998133309185504913330078125" lon="12.955109439790248870849609375">
        <ele>819</ele>
        <time>2021-05-09T09:32:12.000Z</time>
        <extensions>
          <ns3:TrackPointExtension>
            <ns3:atemp>22.0</ns3:atemp>
          </ns3:TrackPointExtension>
        </extensions>
      </trkpt>
      <trkpt lat="43.09971886686980724334716796875" lon="12.95485622249543666839599609375">
        <ele>817.79998779296875</ele>
        <time>2021-05-09T09:32:14.000Z</time>
        <extensions>
          <ns3:TrackPointExtension>
            <ns3:atemp>22.0</ns3:atemp>
          </ns3:TrackPointExtension>
        </extensions>
      </trkpt>
      <trkpt lat="43.09966589324176311492919921875" lon="12.95472026802599430084228515625">
        <ele>817</ele>
        <time>2021-05-09T09:32:15.000Z</time>
        <extensions>
          <ns3:TrackPointExtension>
            <ns3:atemp>22.0</ns3:atemp>
          </ns3:TrackPointExtension>
        </extensions>
      </trkpt>
      <trkpt lat="43.09961074031889438629150390625" lon="12.95457777567207813262939453125">
        <ele>816.20001220703125</ele>
        <time>2021-05-09T09:32:16.000Z</time>
        <extensions>
          <ns3:TrackPointExtension>
            <ns3:atemp>22.0</ns3:atemp>
          </ns3:TrackPointExtension>
        </extensions>
      </trkpt>
      <trkpt lat="43.0994911305606365203857421875" lon="12.9542742669582366943359375">
        <ele>814.79998779296875</ele>
        <time>2021-05-09T09:32:18.000Z</time>
        <extensions>
          <ns3:TrackPointExtension>
            <ns3:atemp>22.0</ns3:atemp>
          </ns3:TrackPointExtension>
        </extensions>
      </trkpt>
      <trkpt lat="43.0993664078414440155029296875" lon="12.9539592750370502471923828125">
        <ele>813</ele>
        <time>2021-05-09T09:32:20.000Z</time>
        <extensions>
          <ns3:TrackPointExtension>
            <ns3:atemp>22.0</ns3:atemp>
          </ns3:TrackPointExtension>
        </extensions>
      </trkpt>
      <trkpt lat="43.09930513612926006317138671875" lon="12.9538013599812984466552734375">
        <ele>811.79998779296875</ele>
        <time>2021-05-09T09:32:21.000Z</time>
        <extensions>
          <ns3:TrackPointExtension>
            <ns3:atemp>22.0</ns3:atemp>
          </ns3:TrackPointExtension>
        </extensions>
      </trkpt>
      <trkpt lat="43.09924864210188388824462890625" lon="12.9536407627165317535400390625">
        <ele>811</ele>
        <time>2021-05-09T09:32:22.000Z</time>
        <extensions>
          <ns3:TrackPointExtension>
            <ns3:atemp>22.0</ns3:atemp>
          </ns3:TrackPointExtension>
        </extensions>
      </trkpt>
      <trkpt lat="43.0991903878748416900634765625" lon="12.9534798301756381988525390625">
        <ele>810.20001220703125</ele>
        <time>2021-05-09T09:32:23.000Z</time>
        <extensions>
          <ns3:TrackPointExtension>
            <ns3:atemp>22.0</ns3:atemp>
          </ns3:TrackPointExtension>
        </extensions>
      </trkpt>
      <trkpt lat="43.09913381002843379974365234375" lon="12.9533165507018566131591796875">
        <ele>809</ele>
        <time>2021-05-09T09:32:24.000Z</time>
        <extensions>
          <ns3:TrackPointExtension>
            <ns3:atemp>22.0</ns3:atemp>
          </ns3:TrackPointExtension>
        </extensions>
      </trkpt>
      <trkpt lat="43.0990797467529773712158203125" lon="12.95315134339034557342529296875">
        <ele>807.79998779296875</ele>
        <time>2021-05-09T09:32:25.000Z</time>
        <extensions>
          <ns3:TrackPointExtension>
            <ns3:atemp>22.0</ns3:atemp>
          </ns3:TrackPointExtension>
        </extensions>
      </trkpt>
      <trkpt lat="43.099032975733280181884765625" lon="12.9529816098511219024658203125">
        <ele>806.79998779296875</ele>
        <time>2021-05-09T09:32:26.000Z</time>
        <extensions>
          <ns3:TrackPointExtension>
            <ns3:atemp>22.0</ns3:atemp>
          </ns3:TrackPointExtension>
        </extensions>
      </trkpt>
      <trkpt lat="43.09899014420807361602783203125" lon="12.95280911028385162353515625">
        <ele>805.4000244140625</ele>
        <time>2021-05-09T09:32:27.000Z</time>
        <extensions>
          <ns3:TrackPointExtension>
            <ns3:atemp>22.0</ns3:atemp>
          </ns3:TrackPointExtension>
        </extensions>
      </trkpt>
      <trkpt lat="43.0989479832351207733154296875" lon="12.95263635925948619842529296875">
        <ele>803.20001220703125</ele>
        <time>2021-05-09T09:32:28.000Z</time>
        <extensions>
          <ns3:TrackPointExtension>
            <ns3:atemp>22.0</ns3:atemp>
          </ns3:TrackPointExtension>
        </extensions>
      </trkpt>
      <trkpt lat="43.0989060737192630767822265625" lon="12.95246444642543792724609375">
        <ele>801.20001220703125</ele>
        <time>2021-05-09T09:32:29.000Z</time>
        <extensions>
          <ns3:TrackPointExtension>
            <ns3:atemp>22.0</ns3:atemp>
          </ns3:TrackPointExtension>
        </extensions>
      </trkpt>
      <trkpt lat="43.09886542148888111114501953125" lon="12.9522932879626750946044921875">
        <ele>799.79998779296875</ele>
        <time>2021-05-09T09:32:30.000Z</time>
        <extensions>
          <ns3:TrackPointExtension>
            <ns3:atemp>22.0</ns3:atemp>
          </ns3:TrackPointExtension>
        </extensions>
      </trkpt>
      <trkpt lat="43.0988256074488162994384765625" lon="12.95212657190859317779541015625">
        <ele>798.5999755859375</ele>
        <time>2021-05-09T09:32:31.000Z</time>
        <extensions>
          <ns3:TrackPointExtension>
            <ns3:atemp>22.0</ns3:atemp>
          </ns3:TrackPointExtension>
        </extensions>
      </trkpt>
      <trkpt lat="43.09878596104681491851806640625" lon="12.951961867511272430419921875">
        <ele>796.20001220703125</ele>
        <time>2021-05-09T09:32:32.000Z</time>
        <extensions>
          <ns3:TrackPointExtension>
            <ns3:atemp>22.0</ns3:atemp>
          </ns3:TrackPointExtension>
        </extensions>
      </trkpt>
      <trkpt lat="43.09874639846384525299072265625" lon="12.95179699547588825225830078125">
        <ele>794.79998779296875</ele>
        <time>2021-05-09T09:32:33.000Z</time>
        <extensions>
          <ns3:TrackPointExtension>
            <ns3:atemp>22.0</ns3:atemp>
          </ns3:TrackPointExtension>
        </extensions>
      </trkpt>
      <trkpt lat="43.09870448894798755645751953125" lon="12.95163136906921863555908203125">
        <ele>793</ele>
        <time>2021-05-09T09:32:34.000Z</time>
        <extensions>
          <ns3:TrackPointExtension>
            <ns3:atemp>22.0</ns3:atemp>
          </ns3:TrackPointExtension>
        </extensions>
      </trkpt>
      <trkpt lat="43.098659478127956390380859375" lon="12.95146523974835872650146484375">
        <ele>791.5999755859375</ele>
        <time>2021-05-09T09:32:35.000Z</time>
        <extensions>
          <ns3:TrackPointExtension>
            <ns3:atemp>22.0</ns3:atemp>
          </ns3:TrackPointExtension>
        </extensions>
      </trkpt>
      <trkpt lat="43.098611198365688323974609375" lon="12.951305396854877471923828125">
        <ele>790</ele>
        <time>2021-05-09T09:32:36.000Z</time>
        <extensions>
          <ns3:TrackPointExtension>
            <ns3:atemp>21.0</ns3:atemp>
          </ns3:TrackPointExtension>
        </extensions>
      </trkpt>
      <trkpt lat="43.09855160303413867950439453125" lon="12.95116097666323184967041015625">
        <ele>788.5999755859375</ele>
        <time>2021-05-09T09:32:37.000Z</time>
        <extensions>
          <ns3:TrackPointExtension>
            <ns3:atemp>21.0</ns3:atemp>
          </ns3:TrackPointExtension>
        </extensions>
      </trkpt>
      <trkpt lat="43.09848136268556118011474609375" lon="12.95102753676474094390869140625">
        <ele>787.5999755859375</ele>
        <time>2021-05-09T09:32:38.000Z</time>
        <extensions>
          <ns3:TrackPointExtension>
            <ns3:atemp>21.0</ns3:atemp>
          </ns3:TrackPointExtension>
        </extensions>
      </trkpt>
      <trkpt lat="43.09839787892997264862060546875" lon="12.9509075917303562164306640625">
        <ele>786.4000244140625</ele>
        <time>2021-05-09T09:32:39.000Z</time>
        <extensions>
          <ns3:TrackPointExtension>
            <ns3:atemp>21.0</ns3:atemp>
          </ns3:TrackPointExtension>
        </extensions>
      </trkpt>
      <trkpt lat="43.098304085433483123779296875" lon="12.9508008062839508056640625">
        <ele>785</ele>
        <time>2021-05-09T09:32:40.000Z</time>
        <extensions>
          <ns3:TrackPointExtension>
            <ns3:atemp>21.0</ns3:atemp>
          </ns3:TrackPointExtension>
        </extensions>
      </trkpt>
      <trkpt lat="43.09820341877639293670654296875" lon="12.95070081017911434173583984375">
        <ele>784</ele>
        <time>2021-05-09T09:32:41.000Z</time>
        <extensions>
          <ns3:TrackPointExtension>
            <ns3:atemp>21.0</ns3:atemp>
          </ns3:TrackPointExtension>
        </extensions>
      </trkpt>
      <trkpt lat="43.0981005728244781494140625" lon="12.95060425065457820892333984375">
        <ele>782.5999755859375</ele>
        <time>2021-05-09T09:32:42.000Z</time>
        <extensions>
          <ns3:TrackPointExtension>
            <ns3:atemp>21.0</ns3:atemp>
          </ns3:TrackPointExtension>
        </extensions>
      </trkpt>
      <trkpt lat="43.09800258837640285491943359375" lon="12.95051473192870616912841796875">
        <ele>781.4000244140625</ele>
        <time>2021-05-09T09:32:43.000Z</time>
        <extensions>
          <ns3:TrackPointExtension>
            <ns3:atemp>21.0</ns3:atemp>
          </ns3:TrackPointExtension>
        </extensions>
      </trkpt>
      <trkpt lat="43.09791122563183307647705078125" lon="12.9504321701824665069580078125">
        <ele>780</ele>
        <time>2021-05-09T09:32:44.000Z</time>
        <extensions>
          <ns3:TrackPointExtension>
            <ns3:atemp>21.0</ns3:atemp>
          </ns3:TrackPointExtension>
        </extensions>
      </trkpt>
      <trkpt lat="43.09782522730529308319091796875" lon="12.95035396702587604522705078125">
        <ele>779.20001220703125</ele>
        <time>2021-05-09T09:32:45.000Z</time>
        <extensions>
          <ns3:TrackPointExtension>
            <ns3:atemp>21.0</ns3:atemp>
          </ns3:TrackPointExtension>
        </extensions>
      </trkpt>
      <trkpt lat="43.09774274937808513641357421875" lon="12.95028255321085453033447265625">
        <ele>778.20001220703125</ele>
        <time>2021-05-09T09:32:46.000Z</time>
        <extensions>
          <ns3:TrackPointExtension>
            <ns3:atemp>21.0</ns3:atemp>
          </ns3:TrackPointExtension>
        </extensions>
      </trkpt>
      <trkpt lat="43.09766982682049274444580078125" lon="12.950217090547084808349609375">
        <ele>776.79998779296875</ele>
        <time>2021-05-09T09:32:47.000Z</time>
        <extensions>
          <ns3:TrackPointExtension>
            <ns3:atemp>21.0</ns3:atemp>
          </ns3:TrackPointExtension>
        </extensions>
      </trkpt>
      <trkpt lat="43.09755080379545688629150390625" lon="12.9501116462051868438720703125">
        <ele>775.4000244140625</ele>
        <time>2021-05-09T09:32:49.000Z</time>
        <extensions>
          <ns3:TrackPointExtension>
            <ns3:atemp>21.0</ns3:atemp>
          </ns3:TrackPointExtension>
        </extensions>
      </trkpt>
      <trkpt lat="43.0974890291690826416015625" lon="12.95004534535109996795654296875">
        <ele>773.5999755859375</ele>
        <time>2021-05-09T09:32:51.000Z</time>
        <extensions>
          <ns3:TrackPointExtension>
            <ns3:atemp>21.0</ns3:atemp>
          </ns3:TrackPointExtension>
        </extensions>
      </trkpt>
      <trkpt lat="43.0974777974188327789306640625" lon="12.9500229656696319580078125">
        <ele>773</ele>
        <time>2021-05-09T09:32:52.000Z</time>
        <extensions>
          <ns3:TrackPointExtension>
            <ns3:atemp>21.0</ns3:atemp>
          </ns3:TrackPointExtension>
        </extensions>
      </trkpt>
      <trkpt lat="43.09747201390564441680908203125" lon="12.9500095546245574951171875">
        <ele>772.20001220703125</ele>
        <time>2021-05-09T09:32:54.000Z</time>
        <extensions>
          <ns3:TrackPointExtension>
            <ns3:atemp>21.0</ns3:atemp>
          </ns3:TrackPointExtension>
        </extensions>
      </trkpt>
      <trkpt lat="43.0974757857620716094970703125" lon="12.95000695623457431793212890625">
        <ele>771.5999755859375</ele>
        <time>2021-05-09T09:32:56.000Z</time>
        <extensions>
          <ns3:TrackPointExtension>
            <ns3:atemp>21.0</ns3:atemp>
          </ns3:TrackPointExtension>
        </extensions>
      </trkpt>
      <trkpt lat="43.097478635609149932861328125" lon="12.9500093869864940643310546875">
        <ele>771.20001220703125</ele>
        <time>2021-05-09T09:33:01.000Z</time>
        <extensions>
          <ns3:TrackPointExtension>
            <ns3:atemp>21.0</ns3:atemp>
          </ns3:TrackPointExtension>
        </extensions>
      </trkpt>
      <trkpt lat="43.09747972525656223297119140625" lon="12.9499959759414196014404296875">
        <ele>771.20001220703125</ele>
        <time>2021-05-09T09:33:10.000Z</time>
        <extensions>
          <ns3:TrackPointExtension>
            <ns3:atemp>21.0</ns3:atemp>
          </ns3:TrackPointExtension>
        </extensions>
      </trkpt>
      <trkpt lat="43.09748567640781402587890625" lon="12.9499775357544422149658203125">
        <ele>771.20001220703125</ele>
        <time>2021-05-09T09:33:11.000Z</time>
        <extensions>
          <ns3:TrackPointExtension>
            <ns3:atemp>21.0</ns3:atemp>
          </ns3:TrackPointExtension>
        </extensions>
      </trkpt>
      <trkpt lat="43.097545020282268524169921875" lon="12.949921377003192901611328125">
        <ele>771</ele>
        <time>2021-05-09T09:33:14.000Z</time>
        <extensions>
          <ns3:TrackPointExtension>
            <ns3:atemp>21.0</ns3:atemp>
          </ns3:TrackPointExtension>
        </extensions>
      </trkpt>
      <trkpt lat="43.09759489260613918304443359375" lon="12.9498984105885028839111328125">
        <ele>771.20001220703125</ele>
        <time>2021-05-09T09:33:16.000Z</time>
        <extensions>
          <ns3:TrackPointExtension>
            <ns3:atemp>21.0</ns3:atemp>
          </ns3:TrackPointExtension>
        </extensions>
      </trkpt>
      <trkpt lat="43.0977550707757472991943359375" lon="12.94984568841755390167236328125">
        <ele>771.20001220703125</ele>
        <time>2021-05-09T09:33:21.000Z</time>
        <extensions>
          <ns3:TrackPointExtension>
            <ns3:atemp>21.0</ns3:atemp>
          </ns3:TrackPointExtension>
        </extensions>
      </trkpt>
      <trkpt lat="43.09789798222482204437255859375" lon="12.94973689131438732147216796875">
        <ele>771.20001220703125</ele>
        <time>2021-05-09T09:33:26.000Z</time>
        <extensions>
          <ns3:TrackPointExtension>
            <ns3:atemp>21.0</ns3:atemp>
          </ns3:TrackPointExtension>
        </extensions>
      </trkpt>
      <trkpt lat="43.09802907519042491912841796875" lon="12.949579395353794097900390625">
        <ele>772.20001220703125</ele>
        <time>2021-05-09T09:33:32.000Z</time>
        <extensions>
          <ns3:TrackPointExtension>
            <ns3:atemp>21.0</ns3:atemp>
          </ns3:TrackPointExtension>
        </extensions>
      </trkpt>
      <trkpt lat="43.098053298890590667724609375" lon="12.949551232159137725830078125">
        <ele>772.4000244140625</ele>
        <time>2021-05-09T09:33:33.000Z</time>
        <extensions>
          <ns3:TrackPointExtension>
            <ns3:atemp>21.0</ns3:atemp>
          </ns3:TrackPointExtension>
        </extensions>
      </trkpt>
      <trkpt lat="43.09821465052664279937744140625" lon="12.94931276701390743255615234375">
        <ele>773.4000244140625</ele>
        <time>2021-05-09T09:33:40.000Z</time>
        <extensions>
          <ns3:TrackPointExtension>
            <ns3:atemp>21.0</ns3:atemp>
          </ns3:TrackPointExtension>
        </extensions>
      </trkpt>
      <trkpt lat="43.09832118451595306396484375" lon="12.949139513075351715087890625">
        <ele>774</ele>
        <time>2021-05-09T09:33:45.000Z</time>
        <extensions>
          <ns3:TrackPointExtension>
            <ns3:atemp>21.0</ns3:atemp>
          </ns3:TrackPointExtension>
        </extensions>
      </trkpt>
      <trkpt lat="43.09836803935468196868896484375" lon="12.94908662326633930206298828125">
        <ele>774.5999755859375</ele>
        <time>2021-05-09T09:33:48.000Z</time>
        <extensions>
          <ns3:TrackPointExtension>
            <ns3:atemp>21.0</ns3:atemp>
          </ns3:TrackPointExtension>
        </extensions>
      </trkpt>
      <trkpt lat="43.0983967892825603485107421875" lon="12.9490488208830356597900390625">
        <ele>774.79998779296875</ele>
        <time>2021-05-09T09:33:50.000Z</time>
        <extensions>
          <ns3:TrackPointExtension>
            <ns3:atemp>21.0</ns3:atemp>
          </ns3:TrackPointExtension>
        </extensions>
      </trkpt>
      <trkpt lat="43.09849376790225505828857421875" lon="12.94894664548337459564208984375">
        <ele>775.5999755859375</ele>
        <time>2021-05-09T09:33:55.000Z</time>
        <extensions>
          <ns3:TrackPointExtension>
            <ns3:atemp>21.0</ns3:atemp>
          </ns3:TrackPointExtension>
        </extensions>
      </trkpt>
      <trkpt lat="43.09852947480976581573486328125" lon="12.94890423305332660675048828125">
        <ele>775.79998779296875</ele>
        <time>2021-05-09T09:33:57.000Z</time>
        <extensions>
          <ns3:TrackPointExtension>
            <ns3:atemp>21.0</ns3:atemp>
          </ns3:TrackPointExtension>
        </extensions>
      </trkpt>
      <trkpt lat="43.09866626746952533721923828125" lon="12.94874296523630619049072265625">
        <ele>776.5999755859375</ele>
        <time>2021-05-09T09:34:04.000Z</time>
        <extensions>
          <ns3:TrackPointExtension>
            <ns3:atemp>21.0</ns3:atemp>
          </ns3:TrackPointExtension>
        </extensions>
      </trkpt>
      <trkpt lat="43.09872829355299472808837890625" lon="12.94866937212646007537841796875">
        <ele>777</ele>
        <time>2021-05-09T09:34:07.000Z</time>
        <extensions>
          <ns3:TrackPointExtension>
            <ns3:atemp>21.0</ns3:atemp>
          </ns3:TrackPointExtension>
        </extensions>
      </trkpt>
      <trkpt lat="43.09886810369789600372314453125" lon="12.94850626029074192047119140625">
        <ele>777.5999755859375</ele>
        <time>2021-05-09T09:34:13.000Z</time>
        <extensions>
          <ns3:TrackPointExtension>
            <ns3:atemp>21.0</ns3:atemp>
          </ns3:TrackPointExtension>
        </extensions>
      </trkpt>
      <trkpt lat="43.09889056719839572906494140625" lon="12.94848002493381500244140625">
        <ele>777.79998779296875</ele>
        <time>2021-05-09T09:34:14.000Z</time>
        <extensions>
          <ns3:TrackPointExtension>
            <ns3:atemp>21.0</ns3:atemp>
          </ns3:TrackPointExtension>
        </extensions>
      </trkpt>
      <trkpt lat="43.0990090034902095794677734375" lon="12.94833719730377197265625">
        <ele>778.79998779296875</ele>
        <time>2021-05-09T09:34:20.000Z</time>
        <extensions>
          <ns3:TrackPointExtension>
            <ns3:atemp>21.0</ns3:atemp>
          </ns3:TrackPointExtension>
        </extensions>
      </trkpt>
      <trkpt lat="43.099024929106235504150390625" lon="12.94832202605903148651123046875">
        <ele>779</ele>
        <time>2021-05-09T09:34:21.000Z</time>
        <extensions>
          <ns3:TrackPointExtension>
            <ns3:atemp>21.0</ns3:atemp>
          </ns3:TrackPointExtension>
        </extensions>
      </trkpt>
      <trkpt lat="43.09904864989221096038818359375" lon="12.94830241240561008453369140625">
        <ele>780</ele>
        <time>2021-05-09T09:34:25.000Z</time>
        <extensions>
          <ns3:TrackPointExtension>
            <ns3:atemp>21.0</ns3:atemp>
          </ns3:TrackPointExtension>
        </extensions>
      </trkpt>
      <trkpt lat="43.0990505777299404144287109375" lon="12.94830157421529293060302734375">
        <ele>780.20001220703125</ele>
        <time>2021-05-09T09:34:26.000Z</time>
        <extensions>
          <ns3:TrackPointExtension>
            <ns3:atemp>21.0</ns3:atemp>
          </ns3:TrackPointExtension>
        </extensions>
      </trkpt>
      <trkpt lat="43.099051751196384429931640625" lon="12.9483009874820709228515625">
        <ele>781.20001220703125</ele>
        <time>2021-05-09T09:34:29.000Z</time>
        <extensions>
          <ns3:TrackPointExtension>
            <ns3:atemp>21.0</ns3:atemp>
          </ns3:TrackPointExtension>
        </extensions>
      </trkpt>
      <trkpt lat="43.09907295741140842437744140625" lon="12.9482988081872463226318359375">
        <ele>781.79998779296875</ele>
        <time>2021-05-09T09:34:34.000Z</time>
        <extensions>
          <ns3:TrackPointExtension>
            <ns3:atemp>21.0</ns3:atemp>
          </ns3:TrackPointExtension>
        </extensions>
      </trkpt>
      <trkpt lat="43.0990830995142459869384765625" lon="12.94832370243966579437255859375">
        <ele>782</ele>
        <time>2021-05-09T09:34:42.000Z</time>
        <extensions>
          <ns3:TrackPointExtension>
            <ns3:atemp>21.0</ns3:atemp>
          </ns3:TrackPointExtension>
        </extensions>
      </trkpt>
      <trkpt lat="43.09911109507083892822265625" lon="12.94834080152213573455810546875">
        <ele>782.20001220703125</ele>
        <time>2021-05-09T09:34:47.000Z</time>
        <extensions>
          <ns3:TrackPointExtension>
            <ns3:atemp>21.0</ns3:atemp>
          </ns3:TrackPointExtension>
        </extensions>
      </trkpt>
      <trkpt lat="43.09912911616265773773193359375" lon="12.94833560474216938018798828125">
        <ele>782.4000244140625</ele>
        <time>2021-05-09T09:34:48.000Z</time>
        <extensions>
          <ns3:TrackPointExtension>
            <ns3:atemp>21.0</ns3:atemp>
          </ns3:TrackPointExtension>
        </extensions>
      </trkpt>
      <trkpt lat="43.0992151983082294464111328125" lon="12.94830090366303920745849609375">
        <ele>782.20001220703125</ele>
        <time>2021-05-09T09:34:53.000Z</time>
        <extensions>
          <ns3:TrackPointExtension>
            <ns3:atemp>21.0</ns3:atemp>
          </ns3:TrackPointExtension>
        </extensions>
      </trkpt>
      <trkpt lat="43.0992175452411174774169921875" lon="12.94829302467405796051025390625">
        <ele>783.5999755859375</ele>
        <time>2021-05-09T09:34:58.000Z</time>
        <extensions>
          <ns3:TrackPointExtension>
            <ns3:atemp>21.0</ns3:atemp>
          </ns3:TrackPointExtension>
        </extensions>
      </trkpt>
      <trkpt lat="43.09921897016465663909912109375" lon="12.94829386286437511444091796875">
        <ele>784.20001220703125</ele>
        <time>2021-05-09T09:35:00.000Z</time>
        <extensions>
          <ns3:TrackPointExtension>
            <ns3:atemp>21.0</ns3:atemp>
          </ns3:TrackPointExtension>
        </extensions>
      </trkpt>
      <trkpt lat="43.09921997599303722381591796875" lon="12.94829403050243854522705078125">
        <ele>784.5999755859375</ele>
        <time>2021-05-09T09:35:03.000Z</time>
        <extensions>
          <ns3:TrackPointExtension>
            <ns3:atemp>21.0</ns3:atemp>
          </ns3:TrackPointExtension>
        </extensions>
      </trkpt>
      <trkpt lat="43.09921880252659320831298828125" lon="12.94830241240561008453369140625">
        <ele>784.5999755859375</ele>
        <time>2021-05-09T09:35:08.000Z</time>
        <extensions>
          <ns3:TrackPointExtension>
            <ns3:atemp>21.0</ns3:atemp>
          </ns3:TrackPointExtension>
        </extensions>
      </trkpt>
      <trkpt lat="43.09921628795564174652099609375" lon="12.9483021609485149383544921875">
        <ele>784.5999755859375</ele>
        <time>2021-05-09T09:35:23.000Z</time>
        <extensions>
          <ns3:TrackPointExtension>
            <ns3:atemp>21.0</ns3:atemp>
          </ns3:TrackPointExtension>
        </extensions>
      </trkpt>
      <trkpt lat="43.099216036498546600341796875" lon="12.94830031692981719970703125">
        <ele>784.5999755859375</ele>
        <time>2021-05-09T09:35:38.000Z</time>
        <extensions>
          <ns3:TrackPointExtension>
            <ns3:atemp>21.0</ns3:atemp>
          </ns3:TrackPointExtension>
        </extensions>
      </trkpt>
      <trkpt lat="43.099215365946292877197265625" lon="12.94829855673015117645263671875">
        <ele>784.4000244140625</ele>
        <time>2021-05-09T09:35:58.000Z</time>
        <extensions>
          <ns3:TrackPointExtension>
            <ns3:atemp>21.0</ns3:atemp>
          </ns3:TrackPointExtension>
        </extensions>
      </trkpt>
      <trkpt lat="43.0992148630321025848388671875" lon="12.94829604215919971466064453125">
        <ele>784.5999755859375</ele>
        <time>2021-05-09T09:36:10.000Z</time>
        <extensions>
          <ns3:TrackPointExtension>
            <ns3:atemp>21.0</ns3:atemp>
          </ns3:TrackPointExtension>
        </extensions>
      </trkpt>
      <trkpt lat="43.0992158688604831695556640625" lon="12.94829369522631168365478515625">
        <ele>784.4000244140625</ele>
        <time>2021-05-09T09:36:21.000Z</time>
        <extensions>
          <ns3:TrackPointExtension>
            <ns3:atemp>21.0</ns3:atemp>
          </ns3:TrackPointExtension>
        </extensions>
      </trkpt>
      <trkpt lat="43.09921595267951488494873046875" lon="12.94828229583799839019775390625">
        <ele>784.20001220703125</ele>
        <time>2021-05-09T09:36:32.000Z</time>
        <extensions>
          <ns3:TrackPointExtension>
            <ns3:atemp>21.0</ns3:atemp>
          </ns3:TrackPointExtension>
        </extensions>
      </trkpt>
      <trkpt lat="43.09921897016465663909912109375" lon="12.9482786916196346282958984375">
        <ele>783.79998779296875</ele>
        <time>2021-05-09T09:36:47.000Z</time>
        <extensions>
          <ns3:TrackPointExtension>
            <ns3:atemp>21.0</ns3:atemp>
          </ns3:TrackPointExtension>
        </extensions>
      </trkpt>
      <trkpt lat="43.0992198921740055084228515625" lon="12.94827844016253948211669921875">
        <ele>783.79998779296875</ele>
        <time>2021-05-09T09:37:04.000Z</time>
        <extensions>
          <ns3:TrackPointExtension>
            <ns3:atemp>21.0</ns3:atemp>
          </ns3:TrackPointExtension>
        </extensions>
      </trkpt>
      <trkpt lat="43.0992225743830204010009765625" lon="12.9482781887054443359375">
        <ele>783.4000244140625</ele>
        <time>2021-05-09T09:38:11.000Z</time>
        <extensions>
          <ns3:TrackPointExtension>
            <ns3:atemp>22.0</ns3:atemp>
          </ns3:TrackPointExtension>
        </extensions>
      </trkpt>
      <trkpt lat="43.09922567568719387054443359375" lon="12.94827760197222232818603515625">
        <ele>783.5999755859375</ele>
        <time>2021-05-09T09:39:13.000Z</time>
        <extensions>
          <ns3:TrackPointExtension>
            <ns3:atemp>22.0</ns3:atemp>
          </ns3:TrackPointExtension>
        </extensions>
      </trkpt>
      <trkpt lat="43.099228441715240478515625" lon="12.94828028418123722076416015625">
        <ele>783.4000244140625</ele>
        <time>2021-05-09T09:40:05.000Z</time>
        <extensions>
          <ns3:TrackPointExtension>
            <ns3:atemp>21.0</ns3:atemp>
          </ns3:TrackPointExtension>
        </extensions>
      </trkpt>
      <trkpt lat="43.09922886081039905548095703125" lon="12.94827726669609546661376953125">
        <ele>784</ele>
        <time>2021-05-09T09:40:20.000Z</time>
        <extensions>
          <ns3:TrackPointExtension>
            <ns3:atemp>21.0</ns3:atemp>
          </ns3:TrackPointExtension>
        </extensions>
      </trkpt>
      <trkpt lat="43.09917010366916656494140625" lon="12.94827106408774852752685546875">
        <ele>784</ele>
        <time>2021-05-09T09:40:32.000Z</time>
        <extensions>
          <ns3:TrackPointExtension>
            <ns3:atemp>21.0</ns3:atemp>
          </ns3:TrackPointExtension>
        </extensions>
      </trkpt>
      <trkpt lat="43.09912626631557941436767578125" lon="12.9482800327241420745849609375">
        <ele>784</ele>
        <time>2021-05-09T09:40:37.000Z</time>
        <extensions>
          <ns3:TrackPointExtension>
            <ns3:atemp>21.0</ns3:atemp>
          </ns3:TrackPointExtension>
        </extensions>
      </trkpt>
      <trkpt lat="43.09912777505815029144287109375" lon="12.94827860780060291290283203125">
        <ele>783</ele>
        <time>2021-05-09T09:40:43.000Z</time>
        <extensions>
          <ns3:TrackPointExtension>
            <ns3:atemp>21.0</ns3:atemp>
          </ns3:TrackPointExtension>
        </extensions>
      </trkpt>
      <trkpt lat="43.0991266854107379913330078125" lon="12.94827944599092006683349609375">
        <ele>782.5999755859375</ele>
        <time>2021-05-09T09:40:48.000Z</time>
        <extensions>
          <ns3:TrackPointExtension>
            <ns3:atemp>21.0</ns3:atemp>
          </ns3:TrackPointExtension>
        </extensions>
      </trkpt>
      <trkpt lat="43.0991199798882007598876953125" lon="12.94828397221863269805908203125">
        <ele>782.4000244140625</ele>
        <time>2021-05-09T09:41:10.000Z</time>
        <extensions>
          <ns3:TrackPointExtension>
            <ns3:atemp>21.0</ns3:atemp>
          </ns3:TrackPointExtension>
        </extensions>
      </trkpt>
      <trkpt lat="43.099104054272174835205078125" lon="12.9483048431575298309326171875">
        <ele>782.4000244140625</ele>
        <time>2021-05-09T09:41:12.000Z</time>
        <extensions>
          <ns3:TrackPointExtension>
            <ns3:atemp>21.0</ns3:atemp>
          </ns3:TrackPointExtension>
        </extensions>
      </trkpt>
      <trkpt lat="43.09905879199504852294921875" lon="12.94834013096988201141357421875">
        <ele>782.4000244140625</ele>
        <time>2021-05-09T09:41:16.000Z</time>
        <extensions>
          <ns3:TrackPointExtension>
            <ns3:atemp>21.0</ns3:atemp>
          </ns3:TrackPointExtension>
        </extensions>
      </trkpt>
      <trkpt lat="43.0990361608564853668212890625" lon="12.94836142100393772125244140625">
        <ele>782.4000244140625</ele>
        <time>2021-05-09T09:41:18.000Z</time>
        <extensions>
          <ns3:TrackPointExtension>
            <ns3:atemp>21.0</ns3:atemp>
          </ns3:TrackPointExtension>
        </extensions>
      </trkpt>
      <trkpt lat="43.09902534820139408111572265625" lon="12.94837282039225101470947265625">
        <ele>781.79998779296875</ele>
        <time>2021-05-09T09:41:19.000Z</time>
        <extensions>
          <ns3:TrackPointExtension>
            <ns3:atemp>21.0</ns3:atemp>
          </ns3:TrackPointExtension>
        </extensions>
      </trkpt>
      <trkpt lat="43.0989510007202625274658203125" lon="12.94845663942396640777587890625">
        <ele>781.20001220703125</ele>
        <time>2021-05-09T09:41:24.000Z</time>
        <extensions>
          <ns3:TrackPointExtension>
            <ns3:atemp>21.0</ns3:atemp>
          </ns3:TrackPointExtension>
        </extensions>
      </trkpt>
      <trkpt lat="43.09887011535465717315673828125" lon="12.948550768196582794189453125">
        <ele>780.79998779296875</ele>
        <time>2021-05-09T09:41:28.000Z</time>
        <extensions>
          <ns3:TrackPointExtension>
            <ns3:atemp>21.0</ns3:atemp>
          </ns3:TrackPointExtension>
        </extensions>
      </trkpt>
      <trkpt lat="43.0987764894962310791015625" lon="12.9486277140676975250244140625">
        <ele>780.20001220703125</ele>
        <time>2021-05-09T09:41:32.000Z</time>
        <extensions>
          <ns3:TrackPointExtension>
            <ns3:atemp>21.0</ns3:atemp>
          </ns3:TrackPointExtension>
        </extensions>
      </trkpt>
      <trkpt lat="43.0987555347383022308349609375" lon="12.9486521892249584197998046875">
        <ele>779.79998779296875</ele>
        <time>2021-05-09T09:41:33.000Z</time>
        <extensions>
          <ns3:TrackPointExtension>
            <ns3:atemp>21.0</ns3:atemp>
          </ns3:TrackPointExtension>
        </extensions>
      </trkpt>
      <trkpt lat="43.09866844676434993743896484375" lon="12.94876559637486934661865234375">
        <ele>778.79998779296875</ele>
        <time>2021-05-09T09:41:37.000Z</time>
        <extensions>
          <ns3:TrackPointExtension>
            <ns3:atemp>21.0</ns3:atemp>
          </ns3:TrackPointExtension>
        </extensions>
      </trkpt>
      <trkpt lat="43.09864145703613758087158203125" lon="12.9487956874072551727294921875">
        <ele>778.5999755859375</ele>
        <time>2021-05-09T09:41:38.000Z</time>
        <extensions>
          <ns3:TrackPointExtension>
            <ns3:atemp>21.0</ns3:atemp>
          </ns3:TrackPointExtension>
        </extensions>
      </trkpt>
      <trkpt lat="43.0985077656805515289306640625" lon="12.94894848950207233428955078125">
        <ele>778.20001220703125</ele>
        <time>2021-05-09T09:41:43.000Z</time>
        <extensions>
          <ns3:TrackPointExtension>
            <ns3:atemp>21.0</ns3:atemp>
          </ns3:TrackPointExtension>
        </extensions>
      </trkpt>
      <trkpt lat="43.09845169074833393096923828125" lon="12.9490196518599987030029296875">
        <ele>777.5999755859375</ele>
        <time>2021-05-09T09:41:45.000Z</time>
        <extensions>
          <ns3:TrackPointExtension>
            <ns3:atemp>21.0</ns3:atemp>
          </ns3:TrackPointExtension>
        </extensions>
      </trkpt>
      <trkpt lat="43.0983339250087738037109375" lon="12.94918150641024112701416015625">
        <ele>776.79998779296875</ele>
        <time>2021-05-09T09:41:49.000Z</time>
        <extensions>
          <ns3:TrackPointExtension>
            <ns3:atemp>21.0</ns3:atemp>
          </ns3:TrackPointExtension>
        </extensions>
      </trkpt>
      <trkpt lat="43.09827801771461963653564453125" lon="12.94925727881491184234619140625">
        <ele>776.5999755859375</ele>
        <time>2021-05-09T09:41:51.000Z</time>
        <extensions>
          <ns3:TrackPointExtension>
            <ns3:atemp>21.0</ns3:atemp>
          </ns3:TrackPointExtension>
        </extensions>
      </trkpt>
      <trkpt lat="43.09809478931128978729248046875" lon="12.94954326935112476348876953125">
        <ele>775.4000244140625</ele>
        <time>2021-05-09T09:41:57.000Z</time>
        <extensions>
          <ns3:TrackPointExtension>
            <ns3:atemp>21.0</ns3:atemp>
          </ns3:TrackPointExtension>
        </extensions>
      </trkpt>
      <trkpt lat="43.09787786565721035003662109375" lon="12.94974996708333492279052734375">
        <ele>774.4000244140625</ele>
        <time>2021-05-09T09:42:02.000Z</time>
        <extensions>
          <ns3:TrackPointExtension>
            <ns3:atemp>21.0</ns3:atemp>
          </ns3:TrackPointExtension>
        </extensions>
      </trkpt>
      <trkpt lat="43.09783025644719600677490234375" lon="12.94979204423725605010986328125">
        <ele>774.4000244140625</ele>
        <time>2021-05-09T09:42:03.000Z</time>
        <extensions>
          <ns3:TrackPointExtension>
            <ns3:atemp>21.0</ns3:atemp>
          </ns3:TrackPointExtension>
        </extensions>
      </trkpt>
      <trkpt lat="43.0977785401046276092529296875" lon="12.94982917606830596923828125">
        <ele>774</ele>
        <time>2021-05-09T09:42:04.000Z</time>
        <extensions>
          <ns3:TrackPointExtension>
            <ns3:atemp>21.0</ns3:atemp>
          </ns3:TrackPointExtension>
        </extensions>
      </trkpt>
      <trkpt lat="43.097624145448207855224609375" lon="12.94991500675678253173828125">
        <ele>773</ele>
        <time>2021-05-09T09:42:07.000Z</time>
        <extensions>
          <ns3:TrackPointExtension>
            <ns3:atemp>21.0</ns3:atemp>
          </ns3:TrackPointExtension>
        </extensions>
      </trkpt>
      <trkpt lat="43.097523562610149383544921875" lon="12.94996018521487712860107421875">
        <ele>772.79998779296875</ele>
        <time>2021-05-09T09:42:09.000Z</time>
        <extensions>
          <ns3:TrackPointExtension>
            <ns3:atemp>21.0</ns3:atemp>
          </ns3:TrackPointExtension>
        </extensions>
      </trkpt>
      <trkpt lat="43.09747151099145412445068359375" lon="12.94997527264058589935302734375">
        <ele>772.5999755859375</ele>
        <time>2021-05-09T09:42:10.000Z</time>
        <extensions>
          <ns3:TrackPointExtension>
            <ns3:atemp>21.0</ns3:atemp>
          </ns3:TrackPointExtension>
        </extensions>
      </trkpt>
      <trkpt lat="43.0974161066114902496337890625" lon="12.94998499564826488494873046875">
        <ele>772.20001220703125</ele>
        <time>2021-05-09T09:42:11.000Z</time>
        <extensions>
          <ns3:TrackPointExtension>
            <ns3:atemp>21.0</ns3:atemp>
          </ns3:TrackPointExtension>
        </extensions>
      </trkpt>
      <trkpt lat="43.09735667891800403594970703125" lon="12.9499862529337406158447265625">
        <ele>772</ele>
        <time>2021-05-09T09:42:12.000Z</time>
        <extensions>
          <ns3:TrackPointExtension>
            <ns3:atemp>21.0</ns3:atemp>
          </ns3:TrackPointExtension>
        </extensions>
      </trkpt>
      <trkpt lat="43.09729800559580326080322265625" lon="12.949979715049266815185546875">
        <ele>771.79998779296875</ele>
        <time>2021-05-09T09:42:13.000Z</time>
        <extensions>
          <ns3:TrackPointExtension>
            <ns3:atemp>21.0</ns3:atemp>
          </ns3:TrackPointExtension>
        </extensions>
      </trkpt>
      <trkpt lat="43.097082339227199554443359375" lon="12.94989899732172489166259765625">
        <ele>770.79998779296875</ele>
        <time>2021-05-09T09:42:17.000Z</time>
        <extensions>
          <ns3:TrackPointExtension>
            <ns3:atemp>21.0</ns3:atemp>
          </ns3:TrackPointExtension>
        </extensions>
      </trkpt>
      <trkpt lat="43.09703464619815349578857421875" lon="12.9498779587447643280029296875">
        <ele>770.79998779296875</ele>
        <time>2021-05-09T09:42:18.000Z</time>
        <extensions>
          <ns3:TrackPointExtension>
            <ns3:atemp>21.0</ns3:atemp>
          </ns3:TrackPointExtension>
        </extensions>
      </trkpt>
      <trkpt lat="43.09693984687328338623046875" lon="12.94985105283558368682861328125">
        <ele>770.4000244140625</ele>
        <time>2021-05-09T09:42:20.000Z</time>
        <extensions>
          <ns3:TrackPointExtension>
            <ns3:atemp>21.0</ns3:atemp>
          </ns3:TrackPointExtension>
        </extensions>
      </trkpt>
      <trkpt lat="43.09679240919649600982666015625" lon="12.94986178167164325714111328125">
        <ele>769.79998779296875</ele>
        <time>2021-05-09T09:42:23.000Z</time>
        <extensions>
          <ns3:TrackPointExtension>
            <ns3:atemp>21.0</ns3:atemp>
          </ns3:TrackPointExtension>
        </extensions>
      </trkpt>
      <trkpt lat="43.09674580581486225128173828125" lon="12.94987519271671772003173828125">
        <ele>769.79998779296875</ele>
        <time>2021-05-09T09:42:24.000Z</time>
        <extensions>
          <ns3:TrackPointExtension>
            <ns3:atemp>21.0</ns3:atemp>
          </ns3:TrackPointExtension>
        </extensions>
      </trkpt>
      <trkpt lat="43.09645830653607845306396484375" lon="12.949978373944759368896484375">
        <ele>769.20001220703125</ele>
        <time>2021-05-09T09:42:30.000Z</time>
        <extensions>
          <ns3:TrackPointExtension>
            <ns3:atemp>21.0</ns3:atemp>
          </ns3:TrackPointExtension>
        </extensions>
      </trkpt>
      <trkpt lat="43.09626384638249874114990234375" lon="12.950044758617877960205078125">
        <ele>769</ele>
        <time>2021-05-09T09:42:34.000Z</time>
        <extensions>
          <ns3:TrackPointExtension>
            <ns3:atemp>21.0</ns3:atemp>
          </ns3:TrackPointExtension>
        </extensions>
      </trkpt>
      <trkpt lat="43.096213638782501220703125" lon="12.95005121268332004547119140625">
        <ele>769</ele>
        <time>2021-05-09T09:42:35.000Z</time>
        <extensions>
          <ns3:TrackPointExtension>
            <ns3:atemp>21.0</ns3:atemp>
          </ns3:TrackPointExtension>
        </extensions>
      </trkpt>
      <trkpt lat="43.0961641855537891387939453125" lon="12.95004735700786113739013671875">
        <ele>769</ele>
        <time>2021-05-09T09:42:36.000Z</time>
        <extensions>
          <ns3:TrackPointExtension>
            <ns3:atemp>20.0</ns3:atemp>
          </ns3:TrackPointExtension>
        </extensions>
      </trkpt>
      <trkpt lat="43.09601289220154285430908203125" lon="12.9499909467995166778564453125">
        <ele>769</ele>
        <time>2021-05-09T09:42:39.000Z</time>
        <extensions>
          <ns3:TrackPointExtension>
            <ns3:atemp>20.0</ns3:atemp>
          </ns3:TrackPointExtension>
        </extensions>
      </trkpt>
      <trkpt lat="43.0958443321287631988525390625" lon="12.94989832676947116851806640625">
        <ele>768.5999755859375</ele>
        <time>2021-05-09T09:42:42.000Z</time>
        <extensions>
          <ns3:TrackPointExtension>
            <ns3:atemp>20.0</ns3:atemp>
          </ns3:TrackPointExtension>
        </extensions>
      </trkpt>
      <trkpt lat="43.0957826413214206695556640625" lon="12.949862368404865264892578125">
        <ele>768.5999755859375</ele>
        <time>2021-05-09T09:42:43.000Z</time>
        <extensions>
          <ns3:TrackPointExtension>
            <ns3:atemp>20.0</ns3:atemp>
          </ns3:TrackPointExtension>
        </extensions>
      </trkpt>
      <trkpt lat="43.0957172624766826629638671875" lon="12.94982993043959140777587890625">
        <ele>768.4000244140625</ele>
        <time>2021-05-09T09:42:44.000Z</time>
        <extensions>
          <ns3:TrackPointExtension>
            <ns3:atemp>20.0</ns3:atemp>
          </ns3:TrackPointExtension>
        </extensions>
      </trkpt>
      <trkpt lat="43.09537209570407867431640625" lon="12.94968676753342151641845703125">
        <ele>767.5999755859375</ele>
        <time>2021-05-09T09:42:49.000Z</time>
        <extensions>
          <ns3:TrackPointExtension>
            <ns3:atemp>20.0</ns3:atemp>
          </ns3:TrackPointExtension>
        </extensions>
      </trkpt>
      <trkpt lat="43.09530260972678661346435546875" lon="12.9496633820235729217529296875">
        <ele>767.20001220703125</ele>
        <time>2021-05-09T09:42:50.000Z</time>
        <extensions>
          <ns3:TrackPointExtension>
            <ns3:atemp>20.0</ns3:atemp>
          </ns3:TrackPointExtension>
        </extensions>
      </trkpt>
      <trkpt lat="43.0951630510389804840087890625" lon="12.94961535371840000152587890625">
        <ele>766.20001220703125</ele>
        <time>2021-05-09T09:42:52.000Z</time>
        <extensions>
          <ns3:TrackPointExtension>
            <ns3:atemp>20.0</ns3:atemp>
          </ns3:TrackPointExtension>
        </extensions>
      </trkpt>
      <trkpt lat="43.095031790435314178466796875" lon="12.9495460353791713714599609375">
        <ele>765.20001220703125</ele>
        <time>2021-05-09T09:42:54.000Z</time>
        <extensions>
          <ns3:TrackPointExtension>
            <ns3:atemp>20.0</ns3:atemp>
          </ns3:TrackPointExtension>
        </extensions>
      </trkpt>
      <trkpt lat="43.094963394105434417724609375" lon="12.94950789771974086761474609375">
        <ele>764.79998779296875</ele>
        <time>2021-05-09T09:42:55.000Z</time>
        <extensions>
          <ns3:TrackPointExtension>
            <ns3:atemp>20.0</ns3:atemp>
          </ns3:TrackPointExtension>
        </extensions>
      </trkpt>
      <trkpt lat="43.09482634998857975006103515625" lon="12.9494518227875232696533203125">
        <ele>764.20001220703125</ele>
        <time>2021-05-09T09:42:57.000Z</time>
        <extensions>
          <ns3:TrackPointExtension>
            <ns3:atemp>20.0</ns3:atemp>
          </ns3:TrackPointExtension>
        </extensions>
      </trkpt>
      <trkpt lat="43.0947459675371646881103515625" lon="12.9494548402726650238037109375">
        <ele>763.79998779296875</ele>
        <time>2021-05-09T09:42:58.000Z</time>
        <extensions>
          <ns3:TrackPointExtension>
            <ns3:atemp>20.0</ns3:atemp>
          </ns3:TrackPointExtension>
        </extensions>
      </trkpt>
      <trkpt lat="43.0945052392780780792236328125" lon="12.94948048889636993408203125">
        <ele>762.4000244140625</ele>
        <time>2021-05-09T09:43:01.000Z</time>
        <extensions>
          <ns3:TrackPointExtension>
            <ns3:atemp>20.0</ns3:atemp>
          </ns3:TrackPointExtension>
        </extensions>
      </trkpt>
      <trkpt lat="43.09442066587507724761962890625" lon="12.94948375783860683441162109375">
        <ele>761.79998779296875</ele>
        <time>2021-05-09T09:43:02.000Z</time>
        <extensions>
          <ns3:TrackPointExtension>
            <ns3:atemp>20.0</ns3:atemp>
          </ns3:TrackPointExtension>
        </extensions>
      </trkpt>
      <trkpt lat="43.0943334102630615234375" lon="12.9494838416576385498046875">
        <ele>761.20001220703125</ele>
        <time>2021-05-09T09:43:03.000Z</time>
        <extensions>
          <ns3:TrackPointExtension>
            <ns3:atemp>20.0</ns3:atemp>
          </ns3:TrackPointExtension>
        </extensions>
      </trkpt>
      <trkpt lat="43.0941582284867763519287109375" lon="12.94946850277483463287353515625">
        <ele>760.20001220703125</ele>
        <time>2021-05-09T09:43:05.000Z</time>
        <extensions>
          <ns3:TrackPointExtension>
            <ns3:atemp>20.0</ns3:atemp>
          </ns3:TrackPointExtension>
        </extensions>
      </trkpt>
      <trkpt lat="43.09398614801466464996337890625" lon="12.949443943798542022705078125">
        <ele>759.5999755859375</ele>
        <time>2021-05-09T09:43:07.000Z</time>
        <extensions>
          <ns3:TrackPointExtension>
            <ns3:atemp>20.0</ns3:atemp>
          </ns3:TrackPointExtension>
        </extensions>
      </trkpt>
      <trkpt lat="43.09381297789514064788818359375" lon="12.94940748251974582672119140625">
        <ele>759</ele>
        <time>2021-05-09T09:43:09.000Z</time>
        <extensions>
          <ns3:TrackPointExtension>
            <ns3:atemp>20.0</ns3:atemp>
          </ns3:TrackPointExtension>
        </extensions>
      </trkpt>
      <trkpt lat="43.0935580842196941375732421875" lon="12.94935576617717742919921875">
        <ele>757.5999755859375</ele>
        <time>2021-05-09T09:43:12.000Z</time>
        <extensions>
          <ns3:TrackPointExtension>
            <ns3:atemp>20.0</ns3:atemp>
          </ns3:TrackPointExtension>
        </extensions>
      </trkpt>
      <trkpt lat="43.09331056661903858184814453125" lon="12.94930287636816501617431640625">
        <ele>756.4000244140625</ele>
        <time>2021-05-09T09:43:15.000Z</time>
        <extensions>
          <ns3:TrackPointExtension>
            <ns3:atemp>20.0</ns3:atemp>
          </ns3:TrackPointExtension>
        </extensions>
      </trkpt>
      <trkpt lat="43.09306363575160503387451171875" lon="12.949254848062992095947265625">
        <ele>755.5999755859375</ele>
        <time>2021-05-09T09:43:18.000Z</time>
        <extensions>
          <ns3:TrackPointExtension>
            <ns3:atemp>20.0</ns3:atemp>
          </ns3:TrackPointExtension>
        </extensions>
      </trkpt>
      <trkpt lat="43.092898093163967132568359375" lon="12.94921017251908779144287109375">
        <ele>755.20001220703125</ele>
        <time>2021-05-09T09:43:20.000Z</time>
        <extensions>
          <ns3:TrackPointExtension>
            <ns3:atemp>20.0</ns3:atemp>
          </ns3:TrackPointExtension>
        </extensions>
      </trkpt>
      <trkpt lat="43.0925686843693256378173828125" lon="12.94911193661391735076904296875">
        <ele>753.79998779296875</ele>
        <time>2021-05-09T09:43:24.000Z</time>
        <extensions>
          <ns3:TrackPointExtension>
            <ns3:atemp>20.0</ns3:atemp>
          </ns3:TrackPointExtension>
        </extensions>
      </trkpt>
      <trkpt lat="43.0924858711659908294677734375" lon="12.94908142648637294769287109375">
        <ele>753.4000244140625</ele>
        <time>2021-05-09T09:43:25.000Z</time>
        <extensions>
          <ns3:TrackPointExtension>
            <ns3:atemp>20.0</ns3:atemp>
          </ns3:TrackPointExtension>
        </extensions>
      </trkpt>
      <trkpt lat="43.09231781400740146636962890625" lon="12.9490276984870433807373046875">
        <ele>752.5999755859375</ele>
        <time>2021-05-09T09:43:27.000Z</time>
        <extensions>
          <ns3:TrackPointExtension>
            <ns3:atemp>20.0</ns3:atemp>
          </ns3:TrackPointExtension>
        </extensions>
      </trkpt>
      <trkpt lat="43.09206032194197177886962890625" lon="12.9489432089030742645263671875">
        <ele>751.20001220703125</ele>
        <time>2021-05-09T09:43:30.000Z</time>
        <extensions>
          <ns3:TrackPointExtension>
            <ns3:atemp>20.0</ns3:atemp>
          </ns3:TrackPointExtension>
        </extensions>
      </trkpt>
      <trkpt lat="43.0918760038912296295166015625" lon="12.94889065437018871307373046875">
        <ele>750.4000244140625</ele>
        <time>2021-05-09T09:43:32.000Z</time>
        <extensions>
          <ns3:TrackPointExtension>
            <ns3:atemp>20.0</ns3:atemp>
          </ns3:TrackPointExtension>
        </extensions>
      </trkpt>
      <trkpt lat="43.0917781032621860504150390625" lon="12.94886886142194271087646484375">
        <ele>750.20001220703125</ele>
        <time>2021-05-09T09:43:33.000Z</time>
        <extensions>
          <ns3:TrackPointExtension>
            <ns3:atemp>20.0</ns3:atemp>
          </ns3:TrackPointExtension>
        </extensions>
      </trkpt>
      <trkpt lat="43.091345764696598052978515625" lon="12.948776073753833770751953125">
        <ele>748.5999755859375</ele>
        <time>2021-05-09T09:43:37.000Z</time>
        <extensions>
          <ns3:TrackPointExtension>
            <ns3:atemp>20.0</ns3:atemp>
          </ns3:TrackPointExtension>
        </extensions>
      </trkpt>
      <trkpt lat="43.0911078862845897674560546875" lon="12.94876157306134700775146484375">
        <ele>747.5999755859375</ele>
        <time>2021-05-09T09:43:39.000Z</time>
        <extensions>
          <ns3:TrackPointExtension>
            <ns3:atemp>20.0</ns3:atemp>
          </ns3:TrackPointExtension>
        </extensions>
      </trkpt>
      <trkpt lat="43.09085735119879245758056640625" lon="12.948764674365520477294921875">
        <ele>746.4000244140625</ele>
        <time>2021-05-09T09:43:41.000Z</time>
        <extensions>
          <ns3:TrackPointExtension>
            <ns3:atemp>20.0</ns3:atemp>
          </ns3:TrackPointExtension>
        </extensions>
      </trkpt>
      <trkpt lat="43.0906011164188385009765625" lon="12.9487517662346363067626953125">
        <ele>744.79998779296875</ele>
        <time>2021-05-09T09:43:43.000Z</time>
        <extensions>
          <ns3:TrackPointExtension>
            <ns3:atemp>20.0</ns3:atemp>
          </ns3:TrackPointExtension>
        </extensions>
      </trkpt>
      <trkpt lat="43.090470023453235626220703125" lon="12.948742546141147613525390625">
        <ele>742.79998779296875</ele>
        <time>2021-05-09T09:43:44.000Z</time>
        <extensions>
          <ns3:TrackPointExtension>
            <ns3:atemp>20.0</ns3:atemp>
          </ns3:TrackPointExtension>
        </extensions>
      </trkpt>
      <trkpt lat="43.09033985249698162078857421875" lon="12.94872351922094821929931640625">
        <ele>741.79998779296875</ele>
        <time>2021-05-09T09:43:45.000Z</time>
        <extensions>
          <ns3:TrackPointExtension>
            <ns3:atemp>20.0</ns3:atemp>
          </ns3:TrackPointExtension>
        </extensions>
      </trkpt>
      <trkpt lat="43.09021152555942535400390625" lon="12.9486853815615177154541015625">
        <ele>740.79998779296875</ele>
        <time>2021-05-09T09:43:46.000Z</time>
        <extensions>
          <ns3:TrackPointExtension>
            <ns3:atemp>20.0</ns3:atemp>
          </ns3:TrackPointExtension>
        </extensions>
      </trkpt>
      <trkpt lat="43.08997507207095623016357421875" lon="12.9485140554606914520263671875">
        <ele>739</ele>
        <time>2021-05-09T09:43:48.000Z</time>
        <extensions>
          <ns3:TrackPointExtension>
            <ns3:atemp>20.0</ns3:atemp>
          </ns3:TrackPointExtension>
        </extensions>
      </trkpt>
      <trkpt lat="43.08974758721888065338134765625" lon="12.948288582265377044677734375">
        <ele>736.4000244140625</ele>
        <time>2021-05-09T09:43:50.000Z</time>
        <extensions>
          <ns3:TrackPointExtension>
            <ns3:atemp>20.0</ns3:atemp>
          </ns3:TrackPointExtension>
        </extensions>
      </trkpt>
      <trkpt lat="43.08962470851838588714599609375" lon="12.948185987770557403564453125">
        <ele>734.79998779296875</ele>
        <time>2021-05-09T09:43:51.000Z</time>
        <extensions>
          <ns3:TrackPointExtension>
            <ns3:atemp>20.0</ns3:atemp>
          </ns3:TrackPointExtension>
        </extensions>
      </trkpt>
      <trkpt lat="43.08949747122824192047119140625" lon="12.948088757693767547607421875">
        <ele>733.5999755859375</ele>
        <time>2021-05-09T09:43:52.000Z</time>
        <extensions>
          <ns3:TrackPointExtension>
            <ns3:atemp>20.0</ns3:atemp>
          </ns3:TrackPointExtension>
        </extensions>
      </trkpt>
      <trkpt lat="43.08936931192874908447265625" lon="12.94799580238759517669677734375">
        <ele>732.4000244140625</ele>
        <time>2021-05-09T09:43:53.000Z</time>
        <extensions>
          <ns3:TrackPointExtension>
            <ns3:atemp>20.0</ns3:atemp>
          </ns3:TrackPointExtension>
        </extensions>
      </trkpt>
      <trkpt lat="43.08923813514411449432373046875" lon="12.94790879823267459869384765625">
        <ele>731</ele>
        <time>2021-05-09T09:43:54.000Z</time>
        <extensions>
          <ns3:TrackPointExtension>
            <ns3:atemp>20.0</ns3:atemp>
          </ns3:TrackPointExtension>
        </extensions>
      </trkpt>
      <trkpt lat="43.08898852206766605377197265625" lon="12.94774015434086322784423828125">
        <ele>728.5999755859375</ele>
        <time>2021-05-09T09:43:56.000Z</time>
        <extensions>
          <ns3:TrackPointExtension>
            <ns3:atemp>20.0</ns3:atemp>
          </ns3:TrackPointExtension>
        </extensions>
      </trkpt>
      <trkpt lat="43.0888685770332813262939453125" lon="12.9476731829345226287841796875">
        <ele>726.4000244140625</ele>
        <time>2021-05-09T09:43:57.000Z</time>
        <extensions>
          <ns3:TrackPointExtension>
            <ns3:atemp>20.0</ns3:atemp>
          </ns3:TrackPointExtension>
        </extensions>
      </trkpt>
      <trkpt lat="43.0887468717992305755615234375" lon="12.94763085432350635528564453125">
        <ele>724.20001220703125</ele>
        <time>2021-05-09T09:43:58.000Z</time>
        <extensions>
          <ns3:TrackPointExtension>
            <ns3:atemp>20.0</ns3:atemp>
          </ns3:TrackPointExtension>
        </extensions>
      </trkpt>
      <trkpt lat="43.08862206526100635528564453125" lon="12.94761576689779758453369140625">
        <ele>722</ele>
        <time>2021-05-09T09:43:59.000Z</time>
        <extensions>
          <ns3:TrackPointExtension>
            <ns3:atemp>20.0</ns3:atemp>
          </ns3:TrackPointExtension>
        </extensions>
      </trkpt>
      <trkpt lat="43.08849667198956012725830078125" lon="12.94763521291315555572509765625">
        <ele>720.4000244140625</ele>
        <time>2021-05-09T09:44:00.000Z</time>
        <extensions>
          <ns3:TrackPointExtension>
            <ns3:atemp>20.0</ns3:atemp>
          </ns3:TrackPointExtension>
        </extensions>
      </trkpt>
      <trkpt lat="43.0882449634373188018798828125" lon="12.94772364199161529541015625">
        <ele>718.5999755859375</ele>
        <time>2021-05-09T09:44:02.000Z</time>
        <extensions>
          <ns3:TrackPointExtension>
            <ns3:atemp>20.0</ns3:atemp>
          </ns3:TrackPointExtension>
        </extensions>
      </trkpt>
      <trkpt lat="43.08812133036553859710693359375" lon="12.9477932117879390716552734375">
        <ele>717.5999755859375</ele>
        <time>2021-05-09T09:44:03.000Z</time>
        <extensions>
          <ns3:TrackPointExtension>
            <ns3:atemp>20.0</ns3:atemp>
          </ns3:TrackPointExtension>
        </extensions>
      </trkpt>
      <trkpt lat="43.08799576945602893829345703125" lon="12.94786705635488033294677734375">
        <ele>716.5999755859375</ele>
        <time>2021-05-09T09:44:04.000Z</time>
        <extensions>
          <ns3:TrackPointExtension>
            <ns3:atemp>20.0</ns3:atemp>
          </ns3:TrackPointExtension>
        </extensions>
      </trkpt>
      <trkpt lat="43.08786735869944095611572265625" lon="12.94792472384870052337646484375">
        <ele>715.20001220703125</ele>
        <time>2021-05-09T09:44:05.000Z</time>
        <extensions>
          <ns3:TrackPointExtension>
            <ns3:atemp>20.0</ns3:atemp>
          </ns3:TrackPointExtension>
        </extensions>
      </trkpt>
      <trkpt lat="43.087732158601284027099609375" lon="12.94796193949878215789794921875">
        <ele>714.20001220703125</ele>
        <time>2021-05-09T09:44:06.000Z</time>
        <extensions>
          <ns3:TrackPointExtension>
            <ns3:atemp>20.0</ns3:atemp>
          </ns3:TrackPointExtension>
        </extensions>
      </trkpt>
      <trkpt lat="43.0874506942927837371826171875" lon="12.94804089702665805816650390625">
        <ele>712.20001220703125</ele>
        <time>2021-05-09T09:44:08.000Z</time>
        <extensions>
          <ns3:TrackPointExtension>
            <ns3:atemp>20.0</ns3:atemp>
          </ns3:TrackPointExtension>
        </extensions>
      </trkpt>
      <trkpt lat="43.087314404547214508056640625" lon="12.948109544813632965087890625">
        <ele>710.5999755859375</ele>
        <time>2021-05-09T09:44:09.000Z</time>
        <extensions>
          <ns3:TrackPointExtension>
            <ns3:atemp>20.0</ns3:atemp>
          </ns3:TrackPointExtension>
        </extensions>
      </trkpt>
      <trkpt lat="43.0871938727796077728271484375" lon="12.94820602051913738250732421875">
        <ele>709.20001220703125</ele>
        <time>2021-05-09T09:44:10.000Z</time>
        <extensions>
          <ns3:TrackPointExtension>
            <ns3:atemp>20.0</ns3:atemp>
          </ns3:TrackPointExtension>
        </extensions>
      </trkpt>
      <trkpt lat="43.0870879255235195159912109375" lon="12.9483219422399997711181640625">
        <ele>708</ele>
        <time>2021-05-09T09:44:11.000Z</time>
        <extensions>
          <ns3:TrackPointExtension>
            <ns3:atemp>20.0</ns3:atemp>
          </ns3:TrackPointExtension>
        </extensions>
      </trkpt>
      <trkpt lat="43.086989186704158782958984375" lon="12.948445491492748260498046875">
        <ele>706.4000244140625</ele>
        <time>2021-05-09T09:44:12.000Z</time>
        <extensions>
          <ns3:TrackPointExtension>
            <ns3:atemp>20.0</ns3:atemp>
          </ns3:TrackPointExtension>
        </extensions>
      </trkpt>
      <trkpt lat="43.08689656667411327362060546875" lon="12.94856585562229156494140625">
        <ele>703.20001220703125</ele>
        <time>2021-05-09T09:44:13.000Z</time>
        <extensions>
          <ns3:TrackPointExtension>
            <ns3:atemp>20.0</ns3:atemp>
          </ns3:TrackPointExtension>
        </extensions>
      </trkpt>
      <trkpt lat="43.086810149252414703369140625" lon="12.94868119060993194580078125">
        <ele>701.4000244140625</ele>
        <time>2021-05-09T09:44:14.000Z</time>
        <extensions>
          <ns3:TrackPointExtension>
            <ns3:atemp>20.0</ns3:atemp>
          </ns3:TrackPointExtension>
        </extensions>
      </trkpt>
      <trkpt lat="43.08672406710684299468994140625" lon="12.94879074208438396453857421875">
        <ele>699.79998779296875</ele>
        <time>2021-05-09T09:44:15.000Z</time>
        <extensions>
          <ns3:TrackPointExtension>
            <ns3:atemp>20.0</ns3:atemp>
          </ns3:TrackPointExtension>
        </extensions>
      </trkpt>
      <trkpt lat="43.0866423435509204864501953125" lon="12.9488972760736942291259765625">
        <ele>698</ele>
        <time>2021-05-09T09:44:16.000Z</time>
        <extensions>
          <ns3:TrackPointExtension>
            <ns3:atemp>20.0</ns3:atemp>
          </ns3:TrackPointExtension>
        </extensions>
      </trkpt>
      <trkpt lat="43.08656296692788600921630859375" lon="12.9490052349865436553955078125">
        <ele>695.79998779296875</ele>
        <time>2021-05-09T09:44:17.000Z</time>
        <extensions>
          <ns3:TrackPointExtension>
            <ns3:atemp>20.0</ns3:atemp>
          </ns3:TrackPointExtension>
        </extensions>
      </trkpt>
      <trkpt lat="43.08648887090384960174560546875" lon="12.94911277480423450469970703125">
        <ele>694</ele>
        <time>2021-05-09T09:44:18.000Z</time>
        <extensions>
          <ns3:TrackPointExtension>
            <ns3:atemp>20.0</ns3:atemp>
          </ns3:TrackPointExtension>
        </extensions>
      </trkpt>
      <trkpt lat="43.0864250846207141876220703125" lon="12.9492251761257648468017578125">
        <ele>692.79998779296875</ele>
        <time>2021-05-09T09:44:19.000Z</time>
        <extensions>
          <ns3:TrackPointExtension>
            <ns3:atemp>20.0</ns3:atemp>
          </ns3:TrackPointExtension>
        </extensions>
      </trkpt>
      <trkpt lat="43.0862923152744770050048828125" lon="12.9494420997798442840576171875">
        <ele>691.79998779296875</ele>
        <time>2021-05-09T09:44:21.000Z</time>
        <extensions>
          <ns3:TrackPointExtension>
            <ns3:atemp>20.0</ns3:atemp>
          </ns3:TrackPointExtension>
        </extensions>
      </trkpt>
      <trkpt lat="43.086214028298854827880859375" lon="12.9495296068489551544189453125">
        <ele>691.5999755859375</ele>
        <time>2021-05-09T09:44:22.000Z</time>
        <extensions>
          <ns3:TrackPointExtension>
            <ns3:atemp>20.0</ns3:atemp>
          </ns3:TrackPointExtension>
        </extensions>
      </trkpt>
      <trkpt lat="43.085912279784679412841796875" lon="12.94984803535044193267822265625">
        <ele>691.20001220703125</ele>
        <time>2021-05-09T09:44:26.000Z</time>
        <extensions>
          <ns3:TrackPointExtension>
            <ns3:atemp>20.0</ns3:atemp>
          </ns3:TrackPointExtension>
        </extensions>
      </trkpt>
      <trkpt lat="43.085638023912906646728515625" lon="12.950302921235561370849609375">
        <ele>691.20001220703125</ele>
        <time>2021-05-09T09:44:31.000Z</time>
        <extensions>
          <ns3:TrackPointExtension>
            <ns3:atemp>20.0</ns3:atemp>
          </ns3:TrackPointExtension>
        </extensions>
      </trkpt>
      <trkpt lat="43.0853548832237720489501953125" lon="12.95083659701049327850341796875">
        <ele>690.79998779296875</ele>
        <time>2021-05-09T09:44:37.000Z</time>
        <extensions>
          <ns3:TrackPointExtension>
            <ns3:atemp>20.0</ns3:atemp>
          </ns3:TrackPointExtension>
        </extensions>
      </trkpt>
      <trkpt lat="43.08529897592961788177490234375" lon="12.9509119503200054168701171875">
        <ele>690.79998779296875</ele>
        <time>2021-05-09T09:44:38.000Z</time>
        <extensions>
          <ns3:TrackPointExtension>
            <ns3:atemp>20.0</ns3:atemp>
          </ns3:TrackPointExtension>
        </extensions>
      </trkpt>
      <trkpt lat="43.08518447913229465484619140625" lon="12.95105569995939731597900390625">
        <ele>690.5999755859375</ele>
        <time>2021-05-09T09:44:40.000Z</time>
        <extensions>
          <ns3:TrackPointExtension>
            <ns3:atemp>20.0</ns3:atemp>
          </ns3:TrackPointExtension>
        </extensions>
      </trkpt>
      <trkpt lat="43.08501868508756160736083984375" lon="12.95127949677407741546630859375">
        <ele>690.20001220703125</ele>
        <time>2021-05-09T09:44:43.000Z</time>
        <extensions>
          <ns3:TrackPointExtension>
            <ns3:atemp>20.0</ns3:atemp>
          </ns3:TrackPointExtension>
        </extensions>
      </trkpt>
      <trkpt lat="43.08491952717304229736328125" lon="12.9514269344508647918701171875">
        <ele>690</ele>
        <time>2021-05-09T09:44:45.000Z</time>
        <extensions>
          <ns3:TrackPointExtension>
            <ns3:atemp>20.0</ns3:atemp>
          </ns3:TrackPointExtension>
        </extensions>
      </trkpt>
      <trkpt lat="43.0848372168838977813720703125" lon="12.95158560387790203094482421875">
        <ele>690</ele>
        <time>2021-05-09T09:44:47.000Z</time>
        <extensions>
          <ns3:TrackPointExtension>
            <ns3:atemp>20.0</ns3:atemp>
          </ns3:TrackPointExtension>
        </extensions>
      </trkpt>
      <trkpt lat="43.08480829931795597076416015625" lon="12.951672188937664031982421875">
        <ele>689.79998779296875</ele>
        <time>2021-05-09T09:44:48.000Z</time>
        <extensions>
          <ns3:TrackPointExtension>
            <ns3:atemp>20.0</ns3:atemp>
          </ns3:TrackPointExtension>
        </extensions>
      </trkpt>
      <trkpt lat="43.084787428379058837890625" lon="12.951764054596424102783203125">
        <ele>689.4000244140625</ele>
        <time>2021-05-09T09:44:49.000Z</time>
        <extensions>
          <ns3:TrackPointExtension>
            <ns3:atemp>20.0</ns3:atemp>
          </ns3:TrackPointExtension>
        </extensions>
      </trkpt>
      <trkpt lat="43.08476488105952739715576171875" lon="12.9519648849964141845703125">
        <ele>688.5999755859375</ele>
        <time>2021-05-09T09:44:51.000Z</time>
        <extensions>
          <ns3:TrackPointExtension>
            <ns3:atemp>20.0</ns3:atemp>
          </ns3:TrackPointExtension>
        </extensions>
      </trkpt>
      <trkpt lat="43.084750212728977203369140625" lon="12.95207343064248561859130859375">
        <ele>688.4000244140625</ele>
        <time>2021-05-09T09:44:52.000Z</time>
        <extensions>
          <ns3:TrackPointExtension>
            <ns3:atemp>20.0</ns3:atemp>
          </ns3:TrackPointExtension>
        </extensions>
      </trkpt>
      <trkpt lat="43.084664382040500640869140625" lon="12.9525605030357837677001953125">
        <ele>687.79998779296875</ele>
        <time>2021-05-09T09:44:56.000Z</time>
        <extensions>
          <ns3:TrackPointExtension>
            <ns3:atemp>20.0</ns3:atemp>
          </ns3:TrackPointExtension>
        </extensions>
      </trkpt>
      <trkpt lat="43.08457779698073863983154296875" lon="12.95281640253961086273193359375">
        <ele>687</ele>
        <time>2021-05-09T09:44:58.000Z</time>
        <extensions>
          <ns3:TrackPointExtension>
            <ns3:atemp>20.0</ns3:atemp>
          </ns3:TrackPointExtension>
        </extensions>
      </trkpt>
      <trkpt lat="43.08447034098207950592041015625" lon="12.95307087711989879608154296875">
        <ele>686</ele>
        <time>2021-05-09T09:45:00.000Z</time>
        <extensions>
          <ns3:TrackPointExtension>
            <ns3:atemp>20.0</ns3:atemp>
          </ns3:TrackPointExtension>
        </extensions>
      </trkpt>
      <trkpt lat="43.08434679172933101654052734375" lon="12.9533142037689685821533203125">
        <ele>684.5999755859375</ele>
        <time>2021-05-09T09:45:02.000Z</time>
        <extensions>
          <ns3:TrackPointExtension>
            <ns3:atemp>20.0</ns3:atemp>
          </ns3:TrackPointExtension>
        </extensions>
      </trkpt>
      <trkpt lat="43.0842129327356815338134765625" lon="12.953547723591327667236328125">
        <ele>683</ele>
        <time>2021-05-09T09:45:04.000Z</time>
        <extensions>
          <ns3:TrackPointExtension>
            <ns3:atemp>20.0</ns3:atemp>
          </ns3:TrackPointExtension>
        </extensions>
      </trkpt>
      <trkpt lat="43.08413900434970855712890625" lon="12.95365978963673114776611328125">
        <ele>682.4000244140625</ele>
        <time>2021-05-09T09:45:05.000Z</time>
        <extensions>
          <ns3:TrackPointExtension>
            <ns3:atemp>20.0</ns3:atemp>
          </ns3:TrackPointExtension>
        </extensions>
      </trkpt>
      <trkpt lat="43.0840587057173252105712890625" lon="12.95376640744507312774658203125">
        <ele>681.5999755859375</ele>
        <time>2021-05-09T09:45:06.000Z</time>
        <extensions>
          <ns3:TrackPointExtension>
            <ns3:atemp>20.0</ns3:atemp>
          </ns3:TrackPointExtension>
        </extensions>
      </trkpt>
      <trkpt lat="43.08388595469295978546142578125" lon="12.95395935885608196258544921875">
        <ele>680.4000244140625</ele>
        <time>2021-05-09T09:45:08.000Z</time>
        <extensions>
          <ns3:TrackPointExtension>
            <ns3:atemp>20.0</ns3:atemp>
          </ns3:TrackPointExtension>
        </extensions>
      </trkpt>
      <trkpt lat="43.083799369633197784423828125" lon="12.9540524818003177642822265625">
        <ele>679.20001220703125</ele>
        <time>2021-05-09T09:45:09.000Z</time>
        <extensions>
          <ns3:TrackPointExtension>
            <ns3:atemp>20.0</ns3:atemp>
          </ns3:TrackPointExtension>
        </extensions>
      </trkpt>
      <trkpt lat="43.083708845078945159912109375" lon="12.954143844544887542724609375">
        <ele>678.20001220703125</ele>
        <time>2021-05-09T09:45:10.000Z</time>
        <extensions>
          <ns3:TrackPointExtension>
            <ns3:atemp>20.0</ns3:atemp>
          </ns3:TrackPointExtension>
        </extensions>
      </trkpt>
      <trkpt lat="43.0835269577801227569580078125" lon="12.95433687977492809295654296875">
        <ele>675.79998779296875</ele>
        <time>2021-05-09T09:45:12.000Z</time>
        <extensions>
          <ns3:TrackPointExtension>
            <ns3:atemp>20.0</ns3:atemp>
          </ns3:TrackPointExtension>
        </extensions>
      </trkpt>
      <trkpt lat="43.0834367685019969940185546875" lon="12.95443729497492313385009765625">
        <ele>675</ele>
        <time>2021-05-09T09:45:13.000Z</time>
        <extensions>
          <ns3:TrackPointExtension>
            <ns3:atemp>20.0</ns3:atemp>
          </ns3:TrackPointExtension>
        </extensions>
      </trkpt>
      <trkpt lat="43.08334616012871265411376953125" lon="12.95453636907041072845458984375">
        <ele>674.20001220703125</ele>
        <time>2021-05-09T09:45:14.000Z</time>
        <extensions>
          <ns3:TrackPointExtension>
            <ns3:atemp>20.0</ns3:atemp>
          </ns3:TrackPointExtension>
        </extensions>
      </trkpt>
      <trkpt lat="43.0831526219844818115234375" lon="12.9547277279198169708251953125">
        <ele>673</ele>
        <time>2021-05-09T09:45:16.000Z</time>
        <extensions>
          <ns3:TrackPointExtension>
            <ns3:atemp>20.0</ns3:atemp>
          </ns3:TrackPointExtension>
        </extensions>
      </trkpt>
      <trkpt lat="43.08305446989834308624267578125" lon="12.95483149588108062744140625">
        <ele>672.20001220703125</ele>
        <time>2021-05-09T09:45:17.000Z</time>
        <extensions>
          <ns3:TrackPointExtension>
            <ns3:atemp>20.0</ns3:atemp>
          </ns3:TrackPointExtension>
        </extensions>
      </trkpt>
      <trkpt lat="43.0829543061554431915283203125" lon="12.95493132434785366058349609375">
        <ele>671</ele>
        <time>2021-05-09T09:45:18.000Z</time>
        <extensions>
          <ns3:TrackPointExtension>
            <ns3:atemp>20.0</ns3:atemp>
          </ns3:TrackPointExtension>
        </extensions>
      </trkpt>
      <trkpt lat="43.08285397477447986602783203125" lon="12.95502922497689723968505859375">
        <ele>669.79998779296875</ele>
        <time>2021-05-09T09:45:19.000Z</time>
        <extensions>
          <ns3:TrackPointExtension>
            <ns3:atemp>20.0</ns3:atemp>
          </ns3:TrackPointExtension>
        </extensions>
      </trkpt>
      <trkpt lat="43.08275188319385051727294921875" lon="12.9551257006824016571044921875">
        <ele>668.5999755859375</ele>
        <time>2021-05-09T09:45:20.000Z</time>
        <extensions>
          <ns3:TrackPointExtension>
            <ns3:atemp>20.0</ns3:atemp>
          </ns3:TrackPointExtension>
        </extensions>
      </trkpt>
      <trkpt lat="43.08264694176614284515380859375" lon="12.955211363732814788818359375">
        <ele>668.20001220703125</ele>
        <time>2021-05-09T09:45:21.000Z</time>
        <extensions>
          <ns3:TrackPointExtension>
            <ns3:atemp>20.0</ns3:atemp>
          </ns3:TrackPointExtension>
        </extensions>
      </trkpt>
      <trkpt lat="43.0825318582355976104736328125" lon="12.95528478920459747314453125">
        <ele>667.20001220703125</ele>
        <time>2021-05-09T09:45:22.000Z</time>
        <extensions>
          <ns3:TrackPointExtension>
            <ns3:atemp>20.0</ns3:atemp>
          </ns3:TrackPointExtension>
        </extensions>
      </trkpt>
      <trkpt lat="43.082417361438274383544921875" lon="12.955361902713775634765625">
        <ele>666.20001220703125</ele>
        <time>2021-05-09T09:45:23.000Z</time>
        <extensions>
          <ns3:TrackPointExtension>
            <ns3:atemp>20.0</ns3:atemp>
          </ns3:TrackPointExtension>
        </extensions>
      </trkpt>
      <trkpt lat="43.08231015689671039581298828125" lon="12.9554418660700321197509765625">
        <ele>665</ele>
        <time>2021-05-09T09:45:24.000Z</time>
        <extensions>
          <ns3:TrackPointExtension>
            <ns3:atemp>20.0</ns3:atemp>
          </ns3:TrackPointExtension>
        </extensions>
      </trkpt>
      <trkpt lat="43.08220655657351016998291015625" lon="12.95554135926067829132080078125">
        <ele>664</ele>
        <time>2021-05-09T09:45:25.000Z</time>
        <extensions>
          <ns3:TrackPointExtension>
            <ns3:atemp>20.0</ns3:atemp>
          </ns3:TrackPointExtension>
        </extensions>
      </trkpt>
      <trkpt lat="43.08212273754179477691650390625" lon="12.95567278750240802764892578125">
        <ele>662.79998779296875</ele>
        <time>2021-05-09T09:45:26.000Z</time>
        <extensions>
          <ns3:TrackPointExtension>
            <ns3:atemp>20.0</ns3:atemp>
          </ns3:TrackPointExtension>
        </extensions>
      </trkpt>
      <trkpt lat="43.08200673200190067291259765625" lon="12.9559793137013912200927734375">
        <ele>661.5999755859375</ele>
        <time>2021-05-09T09:45:28.000Z</time>
        <extensions>
          <ns3:TrackPointExtension>
            <ns3:atemp>20.0</ns3:atemp>
          </ns3:TrackPointExtension>
        </extensions>
      </trkpt>
      <trkpt lat="43.0819642357528209686279296875" lon="12.95613773167133331298828125">
        <ele>660.79998779296875</ele>
        <time>2021-05-09T09:45:29.000Z</time>
        <extensions>
          <ns3:TrackPointExtension>
            <ns3:atemp>20.0</ns3:atemp>
          </ns3:TrackPointExtension>
        </extensions>
      </trkpt>
      <trkpt lat="43.08192509226500988006591796875" lon="12.95629204250872135162353515625">
        <ele>659.79998779296875</ele>
        <time>2021-05-09T09:45:30.000Z</time>
        <extensions>
          <ns3:TrackPointExtension>
            <ns3:atemp>20.0</ns3:atemp>
          </ns3:TrackPointExtension>
        </extensions>
      </trkpt>
      <trkpt lat="43.08188728988170623779296875" lon="12.95643948018550872802734375">
        <ele>658.79998779296875</ele>
        <time>2021-05-09T09:45:31.000Z</time>
        <extensions>
          <ns3:TrackPointExtension>
            <ns3:atemp>20.0</ns3:atemp>
          </ns3:TrackPointExtension>
        </extensions>
      </trkpt>
      <trkpt lat="43.08181428350508213043212890625" lon="12.9567150771617889404296875">
        <ele>657</ele>
        <time>2021-05-09T09:45:33.000Z</time>
        <extensions>
          <ns3:TrackPointExtension>
            <ns3:atemp>20.0</ns3:atemp>
          </ns3:TrackPointExtension>
        </extensions>
      </trkpt>
      <trkpt lat="43.0817818455398082733154296875" lon="12.95684809796512126922607421875">
        <ele>655.79998779296875</ele>
        <time>2021-05-09T09:45:34.000Z</time>
        <extensions>
          <ns3:TrackPointExtension>
            <ns3:atemp>20.0</ns3:atemp>
          </ns3:TrackPointExtension>
        </extensions>
      </trkpt>
      <trkpt lat="43.08170699514448642730712890625" lon="12.95709217898547649383544921875">
        <ele>654.4000244140625</ele>
        <time>2021-05-09T09:45:36.000Z</time>
        <extensions>
          <ns3:TrackPointExtension>
            <ns3:atemp>20.0</ns3:atemp>
          </ns3:TrackPointExtension>
        </extensions>
      </trkpt>
      <trkpt lat="43.081622421741485595703125" lon="12.9573137126863002777099609375">
        <ele>653.20001220703125</ele>
        <time>2021-05-09T09:45:38.000Z</time>
        <extensions>
          <ns3:TrackPointExtension>
            <ns3:atemp>20.0</ns3:atemp>
          </ns3:TrackPointExtension>
        </extensions>
      </trkpt>
      <trkpt lat="43.08151337318122386932373046875" lon="12.9575098492205142974853515625">
        <ele>653</ele>
        <time>2021-05-09T09:45:40.000Z</time>
        <extensions>
          <ns3:TrackPointExtension>
            <ns3:atemp>20.0</ns3:atemp>
          </ns3:TrackPointExtension>
        </extensions>
      </trkpt>
      <trkpt lat="43.08139300905168056488037109375" lon="12.95767128467559814453125">
        <ele>652.79998779296875</ele>
        <time>2021-05-09T09:45:42.000Z</time>
        <extensions>
          <ns3:TrackPointExtension>
            <ns3:atemp>20.0</ns3:atemp>
          </ns3:TrackPointExtension>
        </extensions>
      </trkpt>
      <trkpt lat="43.081056140363216400146484375" lon="12.958079986274242401123046875">
        <ele>653.20001220703125</ele>
        <time>2021-05-09T09:45:48.000Z</time>
        <extensions>
          <ns3:TrackPointExtension>
            <ns3:atemp>20.0</ns3:atemp>
          </ns3:TrackPointExtension>
        </extensions>
      </trkpt>
      <trkpt lat="43.0809949524700641632080078125" lon="12.9581394977867603302001953125">
        <ele>653</ele>
        <time>2021-05-09T09:45:49.000Z</time>
        <extensions>
          <ns3:TrackPointExtension>
            <ns3:atemp>20.0</ns3:atemp>
          </ns3:TrackPointExtension>
        </extensions>
      </trkpt>
      <trkpt lat="43.080870397388935089111328125" lon="12.95825106091797351837158203125">
        <ele>653.4000244140625</ele>
        <time>2021-05-09T09:45:51.000Z</time>
        <extensions>
          <ns3:TrackPointExtension>
            <ns3:atemp>20.0</ns3:atemp>
          </ns3:TrackPointExtension>
        </extensions>
      </trkpt>
      <trkpt lat="43.08080510236322879791259765625" lon="12.95829783193767070770263671875">
        <ele>653.4000244140625</ele>
        <time>2021-05-09T09:45:52.000Z</time>
        <extensions>
          <ns3:TrackPointExtension>
            <ns3:atemp>20.0</ns3:atemp>
          </ns3:TrackPointExtension>
        </extensions>
      </trkpt>
      <trkpt lat="43.0805911123752593994140625" lon="12.9583946429193019866943359375">
        <ele>653.4000244140625</ele>
        <time>2021-05-09T09:45:55.000Z</time>
        <extensions>
          <ns3:TrackPointExtension>
            <ns3:atemp>20.0</ns3:atemp>
          </ns3:TrackPointExtension>
        </extensions>
      </trkpt>
      <trkpt lat="43.0805118195712566375732421875" lon="12.95840746723115444183349609375">
        <ele>653.4000244140625</ele>
        <time>2021-05-09T09:45:56.000Z</time>
        <extensions>
          <ns3:TrackPointExtension>
            <ns3:atemp>20.0</ns3:atemp>
          </ns3:TrackPointExtension>
        </extensions>
      </trkpt>
      <trkpt lat="43.08015081100165843963623046875" lon="12.95839204452931880950927734375">
        <ele>653.4000244140625</ele>
        <time>2021-05-09T09:46:00.000Z</time>
        <extensions>
          <ns3:TrackPointExtension>
            <ns3:atemp>20.0</ns3:atemp>
          </ns3:TrackPointExtension>
        </extensions>
      </trkpt>
      <trkpt lat="43.079632557928562164306640625" lon="12.9582370631396770477294921875">
        <ele>652.20001220703125</ele>
        <time>2021-05-09T09:46:05.000Z</time>
        <extensions>
          <ns3:TrackPointExtension>
            <ns3:atemp>20.0</ns3:atemp>
          </ns3:TrackPointExtension>
        </extensions>
      </trkpt>
      <trkpt lat="43.0794044025242328643798828125" lon="12.95825173147022724151611328125">
        <ele>651</ele>
        <time>2021-05-09T09:46:07.000Z</time>
        <extensions>
          <ns3:TrackPointExtension>
            <ns3:atemp>20.0</ns3:atemp>
          </ns3:TrackPointExtension>
        </extensions>
      </trkpt>
      <trkpt lat="43.0792894028127193450927734375" lon="12.9582913778722286224365234375">
        <ele>650</ele>
        <time>2021-05-09T09:46:08.000Z</time>
        <extensions>
          <ns3:TrackPointExtension>
            <ns3:atemp>20.0</ns3:atemp>
          </ns3:TrackPointExtension>
        </extensions>
      </trkpt>
      <trkpt lat="43.07917180471122264862060546875" lon="12.958340831100940704345703125">
        <ele>649</ele>
        <time>2021-05-09T09:46:09.000Z</time>
        <extensions>
          <ns3:TrackPointExtension>
            <ns3:atemp>20.0</ns3:atemp>
          </ns3:TrackPointExtension>
        </extensions>
      </trkpt>
      <trkpt lat="43.07905412279069423675537109375" lon="12.95839606784284114837646484375">
        <ele>646.5999755859375</ele>
        <time>2021-05-09T09:46:10.000Z</time>
        <extensions>
          <ns3:TrackPointExtension>
            <ns3:atemp>20.0</ns3:atemp>
          </ns3:TrackPointExtension>
        </extensions>
      </trkpt>
      <trkpt lat="43.0789393745362758636474609375" lon="12.95845340006053447723388671875">
        <ele>645.4000244140625</ele>
        <time>2021-05-09T09:46:11.000Z</time>
        <extensions>
          <ns3:TrackPointExtension>
            <ns3:atemp>20.0</ns3:atemp>
          </ns3:TrackPointExtension>
        </extensions>
      </trkpt>
      <trkpt lat="43.0787150748074054718017578125" lon="12.9585716687142848968505859375">
        <ele>643.4000244140625</ele>
        <time>2021-05-09T09:46:13.000Z</time>
        <extensions>
          <ns3:TrackPointExtension>
            <ns3:atemp>20.0</ns3:atemp>
          </ns3:TrackPointExtension>
        </extensions>
      </trkpt>
      <trkpt lat="43.07849857024848461151123046875" lon="12.95868507586419582366943359375">
        <ele>641.20001220703125</ele>
        <time>2021-05-09T09:46:15.000Z</time>
        <extensions>
          <ns3:TrackPointExtension>
            <ns3:atemp>20.0</ns3:atemp>
          </ns3:TrackPointExtension>
        </extensions>
      </trkpt>
      <trkpt lat="43.07839496992528438568115234375" lon="12.95873218216001987457275390625">
        <ele>639.79998779296875</ele>
        <time>2021-05-09T09:46:16.000Z</time>
        <extensions>
          <ns3:TrackPointExtension>
            <ns3:atemp>20.0</ns3:atemp>
          </ns3:TrackPointExtension>
        </extensions>
      </trkpt>
      <trkpt lat="43.0782924592494964599609375" lon="12.95877836644649505615234375">
        <ele>638.5999755859375</ele>
        <time>2021-05-09T09:46:17.000Z</time>
        <extensions>
          <ns3:TrackPointExtension>
            <ns3:atemp>20.0</ns3:atemp>
          </ns3:TrackPointExtension>
        </extensions>
      </trkpt>
      <trkpt lat="43.07819045148789882659912109375" lon="12.95881985686719417572021484375">
        <ele>637.4000244140625</ele>
        <time>2021-05-09T09:46:18.000Z</time>
        <extensions>
          <ns3:TrackPointExtension>
            <ns3:atemp>20.0</ns3:atemp>
          </ns3:TrackPointExtension>
        </extensions>
      </trkpt>
      <trkpt lat="43.07799263857305049896240234375" lon="12.9588988982141017913818359375">
        <ele>636</ele>
        <time>2021-05-09T09:46:20.000Z</time>
        <extensions>
          <ns3:TrackPointExtension>
            <ns3:atemp>20.0</ns3:atemp>
          </ns3:TrackPointExtension>
        </extensions>
      </trkpt>
      <trkpt lat="43.077789209783077239990234375" lon="12.9589522071182727813720703125">
        <ele>635.4000244140625</ele>
        <time>2021-05-09T09:46:22.000Z</time>
        <extensions>
          <ns3:TrackPointExtension>
            <ns3:atemp>20.0</ns3:atemp>
          </ns3:TrackPointExtension>
        </extensions>
      </trkpt>
      <trkpt lat="43.0775831826031208038330078125" lon="12.95897207222878932952880859375">
        <ele>634.79998779296875</ele>
        <time>2021-05-09T09:46:24.000Z</time>
        <extensions>
          <ns3:TrackPointExtension>
            <ns3:atemp>20.0</ns3:atemp>
          </ns3:TrackPointExtension>
        </extensions>
      </trkpt>
      <trkpt lat="43.07726793922483921051025390625" lon="12.95897190459072589874267578125">
        <ele>634.20001220703125</ele>
        <time>2021-05-09T09:46:27.000Z</time>
        <extensions>
          <ns3:TrackPointExtension>
            <ns3:atemp>20.0</ns3:atemp>
          </ns3:TrackPointExtension>
        </extensions>
      </trkpt>
      <trkpt lat="43.07706006802618503570556640625" lon="12.9589441604912281036376953125">
        <ele>634</ele>
        <time>2021-05-09T09:46:29.000Z</time>
        <extensions>
          <ns3:TrackPointExtension>
            <ns3:atemp>20.0</ns3:atemp>
          </ns3:TrackPointExtension>
        </extensions>
      </trkpt>
      <trkpt lat="43.0769609101116657257080078125" lon="12.95889093540608882904052734375">
        <ele>633.79998779296875</ele>
        <time>2021-05-09T09:46:30.000Z</time>
        <extensions>
          <ns3:TrackPointExtension>
            <ns3:atemp>20.0</ns3:atemp>
          </ns3:TrackPointExtension>
        </extensions>
      </trkpt>
      <trkpt lat="43.07679939083755016326904296875" lon="12.95870217494666576385498046875">
        <ele>633</ele>
        <time>2021-05-09T09:46:32.000Z</time>
        <extensions>
          <ns3:TrackPointExtension>
            <ns3:atemp>20.0</ns3:atemp>
          </ns3:TrackPointExtension>
        </extensions>
      </trkpt>
      <trkpt lat="43.07672202587127685546875" lon="12.9586006700992584228515625">
        <ele>632.5999755859375</ele>
        <time>2021-05-09T09:46:33.000Z</time>
        <extensions>
          <ns3:TrackPointExtension>
            <ns3:atemp>19.0</ns3:atemp>
          </ns3:TrackPointExtension>
        </extensions>
      </trkpt>
      <trkpt lat="43.0765807069838047027587890625" lon="12.95839615166187286376953125">
        <ele>631</ele>
        <time>2021-05-09T09:46:35.000Z</time>
        <extensions>
          <ns3:TrackPointExtension>
            <ns3:atemp>19.0</ns3:atemp>
          </ns3:TrackPointExtension>
        </extensions>
      </trkpt>
      <trkpt lat="43.07650987990200519561767578125" lon="12.95830252580344676971435546875">
        <ele>630.20001220703125</ele>
        <time>2021-05-09T09:46:36.000Z</time>
        <extensions>
          <ns3:TrackPointExtension>
            <ns3:atemp>19.0</ns3:atemp>
          </ns3:TrackPointExtension>
        </extensions>
      </trkpt>
      <trkpt lat="43.07644114829599857330322265625" lon="12.958218120038509368896484375">
        <ele>629.4000244140625</ele>
        <time>2021-05-09T09:46:37.000Z</time>
        <extensions>
          <ns3:TrackPointExtension>
            <ns3:atemp>19.0</ns3:atemp>
          </ns3:TrackPointExtension>
        </extensions>
      </trkpt>
      <trkpt lat="43.076322712004184722900390625" lon="12.95807789079844951629638671875">
        <ele>627.79998779296875</ele>
        <time>2021-05-09T09:46:39.000Z</time>
        <extensions>
          <ns3:TrackPointExtension>
            <ns3:atemp>19.0</ns3:atemp>
          </ns3:TrackPointExtension>
        </extensions>
      </trkpt>
      <trkpt lat="43.0762756057083606719970703125" lon="12.958033382892608642578125">
        <ele>627.20001220703125</ele>
        <time>2021-05-09T09:46:40.000Z</time>
        <extensions>
          <ns3:TrackPointExtension>
            <ns3:atemp>19.0</ns3:atemp>
          </ns3:TrackPointExtension>
        </extensions>
      </trkpt>
      <trkpt lat="43.07618625462055206298828125" lon="12.95800144784152507781982421875">
        <ele>627</ele>
        <time>2021-05-09T09:46:43.000Z</time>
        <extensions>
          <ns3:TrackPointExtension>
            <ns3:atemp>19.0</ns3:atemp>
          </ns3:TrackPointExtension>
        </extensions>
      </trkpt>
      <trkpt lat="43.076193630695343017578125" lon="12.9580025374889373779296875">
        <ele>627.20001220703125</ele>
        <time>2021-05-09T09:46:48.000Z</time>
        <extensions>
          <ns3:TrackPointExtension>
            <ns3:atemp>19.0</ns3:atemp>
          </ns3:TrackPointExtension>
        </extensions>
      </trkpt>
      <trkpt lat="43.076194636523723602294921875" lon="12.95800312422215938568115234375">
        <ele>629</ele>
        <time>2021-05-09T09:46:54.000Z</time>
        <extensions>
          <ns3:TrackPointExtension>
            <ns3:atemp>19.0</ns3:atemp>
          </ns3:TrackPointExtension>
        </extensions>
      </trkpt>
      <trkpt lat="43.07616773061454296112060546875" lon="12.95802734792232513427734375">
        <ele>629</ele>
        <time>2021-05-09T09:47:01.000Z</time>
        <extensions>
          <ns3:TrackPointExtension>
            <ns3:atemp>19.0</ns3:atemp>
          </ns3:TrackPointExtension>
        </extensions>
      </trkpt>
      <trkpt lat="43.076166473329067230224609375" lon="12.9580305330455303192138671875">
        <ele>629</ele>
        <time>2021-05-09T09:47:08.000Z</time>
        <extensions>
          <ns3:TrackPointExtension>
            <ns3:atemp>19.0</ns3:atemp>
          </ns3:TrackPointExtension>
        </extensions>
      </trkpt>
      <trkpt lat="43.0761425010859966278076171875" lon="12.95805509202182292938232421875">
        <ele>629</ele>
        <time>2021-05-09T09:47:21.000Z</time>
        <extensions>
          <ns3:TrackPointExtension>
            <ns3:atemp>19.0</ns3:atemp>
          </ns3:TrackPointExtension>
        </extensions>
      </trkpt>
      <trkpt lat="43.07610134594142436981201171875" lon="12.95812399126589298248291015625">
        <ele>629</ele>
        <time>2021-05-09T09:47:24.000Z</time>
        <extensions>
          <ns3:TrackPointExtension>
            <ns3:atemp>19.0</ns3:atemp>
          </ns3:TrackPointExtension>
        </extensions>
      </trkpt>
      <trkpt lat="43.07609832845628261566162109375" lon="12.95815148390829563140869140625">
        <ele>629</ele>
        <time>2021-05-09T09:47:25.000Z</time>
        <extensions>
          <ns3:TrackPointExtension>
            <ns3:atemp>19.0</ns3:atemp>
          </ns3:TrackPointExtension>
        </extensions>
      </trkpt>
      <trkpt lat="43.07610017247498035430908203125" lon="12.9581777192652225494384765625">
        <ele>629</ele>
        <time>2021-05-09T09:47:29.000Z</time>
        <extensions>
          <ns3:TrackPointExtension>
            <ns3:atemp>19.0</ns3:atemp>
          </ns3:TrackPointExtension>
        </extensions>
      </trkpt>
      <trkpt lat="43.0761093087494373321533203125" lon="12.95823865570127964019775390625">
        <ele>628.20001220703125</ele>
        <time>2021-05-09T09:47:35.000Z</time>
        <extensions>
          <ns3:TrackPointExtension>
            <ns3:atemp>19.0</ns3:atemp>
          </ns3:TrackPointExtension>
        </extensions>
      </trkpt>
      <trkpt lat="43.07610620744526386260986328125" lon="12.95831568539142608642578125">
        <ele>628</ele>
        <time>2021-05-09T09:47:37.000Z</time>
        <extensions>
          <ns3:TrackPointExtension>
            <ns3:atemp>19.0</ns3:atemp>
          </ns3:TrackPointExtension>
        </extensions>
      </trkpt>
      <trkpt lat="43.0760918743908405303955078125" lon="12.95849807560443878173828125">
        <ele>628.20001220703125</ele>
        <time>2021-05-09T09:47:41.000Z</time>
        <extensions>
          <ns3:TrackPointExtension>
            <ns3:atemp>19.0</ns3:atemp>
          </ns3:TrackPointExtension>
        </extensions>
      </trkpt>
      <trkpt lat="43.07605356909334659576416015625" lon="12.95887920074164867401123046875">
        <ele>627.5999755859375</ele>
        <time>2021-05-09T09:47:48.000Z</time>
        <extensions>
          <ns3:TrackPointExtension>
            <ns3:atemp>19.0</ns3:atemp>
          </ns3:TrackPointExtension>
        </extensions>
      </trkpt>
      <trkpt lat="43.07603864930570125579833984375" lon="12.9590662010014057159423828125">
        <ele>627.20001220703125</ele>
        <time>2021-05-09T09:47:51.000Z</time>
        <extensions>
          <ns3:TrackPointExtension>
            <ns3:atemp>19.0</ns3:atemp>
          </ns3:TrackPointExtension>
        </extensions>
      </trkpt>
      <trkpt lat="43.07602724991738796234130859375" lon="12.95926527120172977447509765625">
        <ele>626.79998779296875</ele>
        <time>2021-05-09T09:47:54.000Z</time>
        <extensions>
          <ns3:TrackPointExtension>
            <ns3:atemp>19.0</ns3:atemp>
          </ns3:TrackPointExtension>
        </extensions>
      </trkpt>
      <trkpt lat="43.07601585052907466888427734375" lon="12.9593972861766815185546875">
        <ele>626.4000244140625</ele>
        <time>2021-05-09T09:47:56.000Z</time>
        <extensions>
          <ns3:TrackPointExtension>
            <ns3:atemp>19.0</ns3:atemp>
          </ns3:TrackPointExtension>
        </extensions>
      </trkpt>
      <trkpt lat="43.07600981555879116058349609375" lon="12.9594641737639904022216796875">
        <ele>626.20001220703125</ele>
        <time>2021-05-09T09:47:57.000Z</time>
        <extensions>
          <ns3:TrackPointExtension>
            <ns3:atemp>19.0</ns3:atemp>
          </ns3:TrackPointExtension>
        </extensions>
      </trkpt>
      <trkpt lat="43.07600093074142932891845703125" lon="12.959596775472164154052734375">
        <ele>625.5999755859375</ele>
        <time>2021-05-09T09:47:59.000Z</time>
        <extensions>
          <ns3:TrackPointExtension>
            <ns3:atemp>19.0</ns3:atemp>
          </ns3:TrackPointExtension>
        </extensions>
      </trkpt>
      <trkpt lat="43.07600252330303192138671875" lon="12.95978612266480922698974609375">
        <ele>625</ele>
        <time>2021-05-09T09:48:02.000Z</time>
        <extensions>
          <ns3:TrackPointExtension>
            <ns3:atemp>19.0</ns3:atemp>
          </ns3:TrackPointExtension>
        </extensions>
      </trkpt>
      <trkpt lat="43.07600897736847400665283203125" lon="12.9598457179963588714599609375">
        <ele>625</ele>
        <time>2021-05-09T09:48:03.000Z</time>
        <extensions>
          <ns3:TrackPointExtension>
            <ns3:atemp>19.0</ns3:atemp>
          </ns3:TrackPointExtension>
        </extensions>
      </trkpt>
      <trkpt lat="43.0760697461664676666259765625" lon="12.9601464606821537017822265625">
        <ele>624</ele>
        <time>2021-05-09T09:48:08.000Z</time>
        <extensions>
          <ns3:TrackPointExtension>
            <ns3:atemp>19.0</ns3:atemp>
          </ns3:TrackPointExtension>
        </extensions>
      </trkpt>
      <trkpt lat="43.07608810253441333770751953125" lon="12.96020605601370334625244140625">
        <ele>624</ele>
        <time>2021-05-09T09:48:09.000Z</time>
        <extensions>
          <ns3:TrackPointExtension>
            <ns3:atemp>19.0</ns3:atemp>
          </ns3:TrackPointExtension>
        </extensions>
      </trkpt>
      <trkpt lat="43.0761109851300716400146484375" lon="12.960265986621379852294921875">
        <ele>624</ele>
        <time>2021-05-09T09:48:10.000Z</time>
        <extensions>
          <ns3:TrackPointExtension>
            <ns3:atemp>19.0</ns3:atemp>
          </ns3:TrackPointExtension>
        </extensions>
      </trkpt>
      <trkpt lat="43.0762531422078609466552734375" lon="12.96057972125709056854248046875">
        <ele>623.20001220703125</ele>
        <time>2021-05-09T09:48:15.000Z</time>
        <extensions>
          <ns3:TrackPointExtension>
            <ns3:atemp>19.0</ns3:atemp>
          </ns3:TrackPointExtension>
        </extensions>
      </trkpt>
      <trkpt lat="43.07628951966762542724609375" lon="12.96064157970249652862548828125">
        <ele>623</ele>
        <time>2021-05-09T09:48:16.000Z</time>
        <extensions>
          <ns3:TrackPointExtension>
            <ns3:atemp>19.0</ns3:atemp>
          </ns3:TrackPointExtension>
        </extensions>
      </trkpt>
      <trkpt lat="43.076468892395496368408203125" lon="12.96095288358628749847412109375">
        <ele>622.4000244140625</ele>
        <time>2021-05-09T09:48:21.000Z</time>
        <extensions>
          <ns3:TrackPointExtension>
            <ns3:atemp>19.0</ns3:atemp>
          </ns3:TrackPointExtension>
        </extensions>
      </trkpt>
      <trkpt lat="43.0765450000762939453125" lon="12.961080707609653472900390625">
        <ele>621.79998779296875</ele>
        <time>2021-05-09T09:48:23.000Z</time>
        <extensions>
          <ns3:TrackPointExtension>
            <ns3:atemp>19.0</ns3:atemp>
          </ns3:TrackPointExtension>
        </extensions>
      </trkpt>
      <trkpt lat="43.07662211358547210693359375" lon="12.9612129740417003631591796875">
        <ele>621.20001220703125</ele>
        <time>2021-05-09T09:48:25.000Z</time>
        <extensions>
          <ns3:TrackPointExtension>
            <ns3:atemp>19.0</ns3:atemp>
          </ns3:TrackPointExtension>
        </extensions>
      </trkpt>
      <trkpt lat="43.0766936950385570526123046875" lon="12.96134934760630130767822265625">
        <ele>620.79998779296875</ele>
        <time>2021-05-09T09:48:27.000Z</time>
        <extensions>
          <ns3:TrackPointExtension>
            <ns3:atemp>19.0</ns3:atemp>
          </ns3:TrackPointExtension>
        </extensions>
      </trkpt>
      <trkpt lat="43.0767309106886386871337890625" lon="12.961417995393276214599609375">
        <ele>620.5999755859375</ele>
        <time>2021-05-09T09:48:28.000Z</time>
        <extensions>
          <ns3:TrackPointExtension>
            <ns3:atemp>19.0</ns3:atemp>
          </ns3:TrackPointExtension>
        </extensions>
      </trkpt>
      <trkpt lat="43.0769240297377109527587890625" lon="12.961849831044673919677734375">
        <ele>620</ele>
        <time>2021-05-09T09:48:34.000Z</time>
        <extensions>
          <ns3:TrackPointExtension>
            <ns3:atemp>19.0</ns3:atemp>
          </ns3:TrackPointExtension>
        </extensions>
      </trkpt>
      <trkpt lat="43.076977171003818511962890625" lon="12.96201847493648529052734375">
        <ele>619.5999755859375</ele>
        <time>2021-05-09T09:48:36.000Z</time>
        <extensions>
          <ns3:TrackPointExtension>
            <ns3:atemp>19.0</ns3:atemp>
          </ns3:TrackPointExtension>
        </extensions>
      </trkpt>
      <trkpt lat="43.07699737139046192169189453125" lon="12.96210967004299163818359375">
        <ele>619.20001220703125</ele>
        <time>2021-05-09T09:48:37.000Z</time>
        <extensions>
          <ns3:TrackPointExtension>
            <ns3:atemp>19.0</ns3:atemp>
          </ns3:TrackPointExtension>
        </extensions>
      </trkpt>
      <trkpt lat="43.07701564393937587738037109375" lon="12.96220547519624233245849609375">
        <ele>618.5999755859375</ele>
        <time>2021-05-09T09:48:38.000Z</time>
        <extensions>
          <ns3:TrackPointExtension>
            <ns3:atemp>19.0</ns3:atemp>
          </ns3:TrackPointExtension>
        </extensions>
      </trkpt>
      <trkpt lat="43.077035509049892425537109375" lon="12.9623046331107616424560546875">
        <ele>618.4000244140625</ele>
        <time>2021-05-09T09:48:39.000Z</time>
        <extensions>
          <ns3:TrackPointExtension>
            <ns3:atemp>19.0</ns3:atemp>
          </ns3:TrackPointExtension>
        </extensions>
      </trkpt>
      <trkpt lat="43.07713416405022144317626953125" lon="12.96273152343928813934326171875">
        <ele>617.20001220703125</ele>
        <time>2021-05-09T09:48:43.000Z</time>
        <extensions>
          <ns3:TrackPointExtension>
            <ns3:atemp>19.0</ns3:atemp>
          </ns3:TrackPointExtension>
        </extensions>
      </trkpt>
      <trkpt lat="43.07717037387192249298095703125" lon="12.9628367163240909576416015625">
        <ele>616.79998779296875</ele>
        <time>2021-05-09T09:48:44.000Z</time>
        <extensions>
          <ns3:TrackPointExtension>
            <ns3:atemp>19.0</ns3:atemp>
          </ns3:TrackPointExtension>
        </extensions>
      </trkpt>
      <trkpt lat="43.07725016959011554718017578125" lon="12.963044084608554840087890625">
        <ele>616</ele>
        <time>2021-05-09T09:48:46.000Z</time>
        <extensions>
          <ns3:TrackPointExtension>
            <ns3:atemp>19.0</ns3:atemp>
          </ns3:TrackPointExtension>
        </extensions>
      </trkpt>
      <trkpt lat="43.0773565359413623809814453125" lon="12.963351197540760040283203125">
        <ele>615</ele>
        <time>2021-05-09T09:48:49.000Z</time>
        <extensions>
          <ns3:TrackPointExtension>
            <ns3:atemp>19.0</ns3:atemp>
          </ns3:TrackPointExtension>
        </extensions>
      </trkpt>
      <trkpt lat="43.0773887224495410919189453125" lon="12.96344717033207416534423828125">
        <ele>614.20001220703125</ele>
        <time>2021-05-09T09:48:50.000Z</time>
        <extensions>
          <ns3:TrackPointExtension>
            <ns3:atemp>19.0</ns3:atemp>
          </ns3:TrackPointExtension>
        </extensions>
      </trkpt>
      <trkpt lat="43.0774175561964511871337890625" lon="12.96354356221854686737060546875">
        <ele>613.5999755859375</ele>
        <time>2021-05-09T09:48:51.000Z</time>
        <extensions>
          <ns3:TrackPointExtension>
            <ns3:atemp>19.0</ns3:atemp>
          </ns3:TrackPointExtension>
        </extensions>
      </trkpt>
      <trkpt lat="43.077459633350372314453125" lon="12.96373601071536540985107421875">
        <ele>612</ele>
        <time>2021-05-09T09:48:53.000Z</time>
        <extensions>
          <ns3:TrackPointExtension>
            <ns3:atemp>19.0</ns3:atemp>
          </ns3:TrackPointExtension>
        </extensions>
      </trkpt>
      <trkpt lat="43.07748871855437755584716796875" lon="12.9639226756989955902099609375">
        <ele>611.5999755859375</ele>
        <time>2021-05-09T09:48:55.000Z</time>
        <extensions>
          <ns3:TrackPointExtension>
            <ns3:atemp>19.0</ns3:atemp>
          </ns3:TrackPointExtension>
        </extensions>
      </trkpt>
      <trkpt lat="43.07750883512198925018310546875" lon="12.9643082432448863983154296875">
        <ele>611.20001220703125</ele>
        <time>2021-05-09T09:48:59.000Z</time>
        <extensions>
          <ns3:TrackPointExtension>
            <ns3:atemp>19.0</ns3:atemp>
          </ns3:TrackPointExtension>
        </extensions>
      </trkpt>
      <trkpt lat="43.07750062085688114166259765625" lon="12.96440321020781993865966796875">
        <ele>611.20001220703125</ele>
        <time>2021-05-09T09:49:00.000Z</time>
        <extensions>
          <ns3:TrackPointExtension>
            <ns3:atemp>19.0</ns3:atemp>
          </ns3:TrackPointExtension>
        </extensions>
      </trkpt>
      <trkpt lat="43.07747564278542995452880859375" lon="12.9645995981991291046142578125">
        <ele>611</ele>
        <time>2021-05-09T09:49:02.000Z</time>
        <extensions>
          <ns3:TrackPointExtension>
            <ns3:atemp>19.0</ns3:atemp>
          </ns3:TrackPointExtension>
        </extensions>
      </trkpt>
      <trkpt lat="43.077388219535350799560546875" lon="12.9651142470538616180419921875">
        <ele>610.79998779296875</ele>
        <time>2021-05-09T09:49:07.000Z</time>
        <extensions>
          <ns3:TrackPointExtension>
            <ns3:atemp>19.0</ns3:atemp>
          </ns3:TrackPointExtension>
        </extensions>
      </trkpt>
      <trkpt lat="43.07728352956473827362060546875" lon="12.96565144322812557220458984375">
        <ele>610.4000244140625</ele>
        <time>2021-05-09T09:49:12.000Z</time>
        <extensions>
          <ns3:TrackPointExtension>
            <ns3:atemp>19.0</ns3:atemp>
          </ns3:TrackPointExtension>
        </extensions>
      </trkpt>
      <trkpt lat="43.0772405304014682769775390625" lon="12.9658743180334568023681640625">
        <ele>610</ele>
        <time>2021-05-09T09:49:14.000Z</time>
        <extensions>
          <ns3:TrackPointExtension>
            <ns3:atemp>19.0</ns3:atemp>
          </ns3:TrackPointExtension>
        </extensions>
      </trkpt>
      <trkpt lat="43.07717867195606231689453125" lon="12.96622149646282196044921875">
        <ele>608.79998779296875</ele>
        <time>2021-05-09T09:49:17.000Z</time>
        <extensions>
          <ns3:TrackPointExtension>
            <ns3:atemp>19.0</ns3:atemp>
          </ns3:TrackPointExtension>
        </extensions>
      </trkpt>
      <trkpt lat="43.0771268717944622039794921875" lon="12.966589964926242828369140625">
        <ele>607.5999755859375</ele>
        <time>2021-05-09T09:49:20.000Z</time>
        <extensions>
          <ns3:TrackPointExtension>
            <ns3:atemp>19.0</ns3:atemp>
          </ns3:TrackPointExtension>
        </extensions>
      </trkpt>
      <trkpt lat="43.07708689011633396148681640625" lon="12.966947369277477264404296875">
        <ele>606.20001220703125</ele>
        <time>2021-05-09T09:49:23.000Z</time>
        <extensions>
          <ns3:TrackPointExtension>
            <ns3:atemp>19.0</ns3:atemp>
          </ns3:TrackPointExtension>
        </extensions>
      </trkpt>
      <trkpt lat="43.0770544521510601043701171875" lon="12.9671748541295528411865234375">
        <ele>605.5999755859375</ele>
        <time>2021-05-09T09:49:25.000Z</time>
        <extensions>
          <ns3:TrackPointExtension>
            <ns3:atemp>19.0</ns3:atemp>
          </ns3:TrackPointExtension>
        </extensions>
      </trkpt>
      <trkpt lat="43.0770346708595752716064453125" lon="12.96728943474590778350830078125">
        <ele>605.20001220703125</ele>
        <time>2021-05-09T09:49:26.000Z</time>
        <extensions>
          <ns3:TrackPointExtension>
            <ns3:atemp>19.0</ns3:atemp>
          </ns3:TrackPointExtension>
        </extensions>
      </trkpt>
      <trkpt lat="43.0769656039774417877197265625" lon="12.9676063545048236846923828125">
        <ele>604</ele>
        <time>2021-05-09T09:49:29.000Z</time>
        <extensions>
          <ns3:TrackPointExtension>
            <ns3:atemp>19.0</ns3:atemp>
          </ns3:TrackPointExtension>
        </extensions>
      </trkpt>
      <trkpt lat="43.07690508663654327392578125" lon="12.9678055085241794586181640625">
        <ele>603.20001220703125</ele>
        <time>2021-05-09T09:49:31.000Z</time>
        <extensions>
          <ns3:TrackPointExtension>
            <ns3:atemp>19.0</ns3:atemp>
          </ns3:TrackPointExtension>
        </extensions>
      </trkpt>
      <trkpt lat="43.076869212090969085693359375" lon="12.9679025709629058837890625">
        <ele>603</ele>
        <time>2021-05-09T09:49:32.000Z</time>
        <extensions>
          <ns3:TrackPointExtension>
            <ns3:atemp>19.0</ns3:atemp>
          </ns3:TrackPointExtension>
        </extensions>
      </trkpt>
      <trkpt lat="43.0766621790826320648193359375" lon="12.96835519373416900634765625">
        <ele>602.5999755859375</ele>
        <time>2021-05-09T09:49:37.000Z</time>
        <extensions>
          <ns3:TrackPointExtension>
            <ns3:atemp>19.0</ns3:atemp>
          </ns3:TrackPointExtension>
        </extensions>
      </trkpt>
      <trkpt lat="43.07650485076010227203369140625" lon="12.96875375322997570037841796875">
        <ele>602</ele>
        <time>2021-05-09T09:49:42.000Z</time>
        <extensions>
          <ns3:TrackPointExtension>
            <ns3:atemp>19.0</ns3:atemp>
          </ns3:TrackPointExtension>
        </extensions>
      </trkpt>
      <trkpt lat="43.07648959569633007049560546875" lon="12.9688247479498386383056640625">
        <ele>601.79998779296875</ele>
        <time>2021-05-09T09:49:43.000Z</time>
        <extensions>
          <ns3:TrackPointExtension>
            <ns3:atemp>19.0</ns3:atemp>
          </ns3:TrackPointExtension>
        </extensions>
      </trkpt>
      <trkpt lat="43.07650753296911716461181640625" lon="12.968957684934139251708984375">
        <ele>601.4000244140625</ele>
        <time>2021-05-09T09:49:45.000Z</time>
        <extensions>
          <ns3:TrackPointExtension>
            <ns3:atemp>19.0</ns3:atemp>
          </ns3:TrackPointExtension>
        </extensions>
      </trkpt>
      <trkpt lat="43.07656335644423961639404296875" lon="12.96905751340091228485107421875">
        <ele>601.4000244140625</ele>
        <time>2021-05-09T09:49:47.000Z</time>
        <extensions>
          <ns3:TrackPointExtension>
            <ns3:atemp>19.0</ns3:atemp>
          </ns3:TrackPointExtension>
        </extensions>
      </trkpt>
      <trkpt lat="43.07665421627461910247802734375" lon="12.9691791348159313201904296875">
        <ele>601.4000244140625</ele>
        <time>2021-05-09T09:49:50.000Z</time>
        <extensions>
          <ns3:TrackPointExtension>
            <ns3:atemp>19.0</ns3:atemp>
          </ns3:TrackPointExtension>
        </extensions>
      </trkpt>
      <trkpt lat="43.076704926788806915283203125" lon="12.96932053752243518829345703125">
        <ele>601.20001220703125</ele>
        <time>2021-05-09T09:49:53.000Z</time>
        <extensions>
          <ns3:TrackPointExtension>
            <ns3:atemp>19.0</ns3:atemp>
          </ns3:TrackPointExtension>
        </extensions>
      </trkpt>
      <trkpt lat="43.07672043330967426300048828125" lon="12.96942531131207942962646484375">
        <ele>601.20001220703125</ele>
        <time>2021-05-09T09:49:55.000Z</time>
        <extensions>
          <ns3:TrackPointExtension>
            <ns3:atemp>19.0</ns3:atemp>
          </ns3:TrackPointExtension>
        </extensions>
      </trkpt>
      <trkpt lat="43.07678639888763427734375" lon="12.96984457410871982574462890625">
        <ele>601</ele>
        <time>2021-05-09T09:50:02.000Z</time>
        <extensions>
          <ns3:TrackPointExtension>
            <ns3:atemp>19.0</ns3:atemp>
          </ns3:TrackPointExtension>
        </extensions>
      </trkpt>
      <trkpt lat="43.076806180179119110107421875" lon="12.96998924575746059417724609375">
        <ele>600.79998779296875</ele>
        <time>2021-05-09T09:50:04.000Z</time>
        <extensions>
          <ns3:TrackPointExtension>
            <ns3:atemp>19.0</ns3:atemp>
          </ns3:TrackPointExtension>
        </extensions>
      </trkpt>
      <trkpt lat="43.076838366687297821044921875" lon="12.97035989351570606231689453125">
        <ele>600.20001220703125</ele>
        <time>2021-05-09T09:50:09.000Z</time>
        <extensions>
          <ns3:TrackPointExtension>
            <ns3:atemp>19.0</ns3:atemp>
          </ns3:TrackPointExtension>
        </extensions>
      </trkpt>
      <trkpt lat="43.07682168669998645782470703125" lon="12.97085501253604888916015625">
        <ele>600</ele>
        <time>2021-05-09T09:50:16.000Z</time>
        <extensions>
          <ns3:TrackPointExtension>
            <ns3:atemp>19.0</ns3:atemp>
          </ns3:TrackPointExtension>
        </extensions>
      </trkpt>
      <trkpt lat="43.07673937641084194183349609375" lon="12.97122105024755001068115234375">
        <ele>599.79998779296875</ele>
        <time>2021-05-09T09:50:21.000Z</time>
        <extensions>
          <ns3:TrackPointExtension>
            <ns3:atemp>19.0</ns3:atemp>
          </ns3:TrackPointExtension>
        </extensions>
      </trkpt>
      <trkpt lat="43.07670802809298038482666015625" lon="12.9712953977286815643310546875">
        <ele>599.79998779296875</ele>
        <time>2021-05-09T09:50:22.000Z</time>
        <extensions>
          <ns3:TrackPointExtension>
            <ns3:atemp>18.0</ns3:atemp>
          </ns3:TrackPointExtension>
        </extensions>
      </trkpt>
      <trkpt lat="43.07667198590934276580810546875" lon="12.9713721759617328643798828125">
        <ele>599.79998779296875</ele>
        <time>2021-05-09T09:50:23.000Z</time>
        <extensions>
          <ns3:TrackPointExtension>
            <ns3:atemp>18.0</ns3:atemp>
          </ns3:TrackPointExtension>
        </extensions>
      </trkpt>
      <trkpt lat="43.07645170949399471282958984375" lon="12.971764616668224334716796875">
        <ele>599.4000244140625</ele>
        <time>2021-05-09T09:50:28.000Z</time>
        <extensions>
          <ns3:TrackPointExtension>
            <ns3:atemp>18.0</ns3:atemp>
          </ns3:TrackPointExtension>
        </extensions>
      </trkpt>
      <trkpt lat="43.0762699060142040252685546875" lon="12.97199151478707790374755859375">
        <ele>598.5999755859375</ele>
        <time>2021-05-09T09:50:31.000Z</time>
        <extensions>
          <ns3:TrackPointExtension>
            <ns3:atemp>18.0</ns3:atemp>
          </ns3:TrackPointExtension>
        </extensions>
      </trkpt>
      <trkpt lat="43.07610469870269298553466796875" lon="12.97223526053130626678466796875">
        <ele>597.4000244140625</ele>
        <time>2021-05-09T09:50:34.000Z</time>
        <extensions>
          <ns3:TrackPointExtension>
            <ns3:atemp>18.0</ns3:atemp>
          </ns3:TrackPointExtension>
        </extensions>
      </trkpt>
      <trkpt lat="43.07606044225394725799560546875" lon="12.97232243232429027557373046875">
        <ele>596.20001220703125</ele>
        <time>2021-05-09T09:50:35.000Z</time>
        <extensions>
          <ns3:TrackPointExtension>
            <ns3:atemp>18.0</ns3:atemp>
          </ns3:TrackPointExtension>
        </extensions>
      </trkpt>
      <trkpt lat="43.07602674700319766998291015625" lon="12.97241295687854290008544921875">
        <ele>595.4000244140625</ele>
        <time>2021-05-09T09:50:36.000Z</time>
        <extensions>
          <ns3:TrackPointExtension>
            <ns3:atemp>18.0</ns3:atemp>
          </ns3:TrackPointExtension>
        </extensions>
      </trkpt>
      <trkpt lat="43.07600679807364940643310546875" lon="12.9725060798227787017822265625">
        <ele>594.79998779296875</ele>
        <time>2021-05-09T09:50:37.000Z</time>
        <extensions>
          <ns3:TrackPointExtension>
            <ns3:atemp>18.0</ns3:atemp>
          </ns3:TrackPointExtension>
        </extensions>
      </trkpt>
      <trkpt lat="43.07598953135311603546142578125" lon="12.97259886749088764190673828125">
        <ele>594.4000244140625</ele>
        <time>2021-05-09T09:50:38.000Z</time>
        <extensions>
          <ns3:TrackPointExtension>
            <ns3:atemp>18.0</ns3:atemp>
          </ns3:TrackPointExtension>
        </extensions>
      </trkpt>
      <trkpt lat="43.07596622966229915618896484375" lon="12.9727867059409618377685546875">
        <ele>594</ele>
        <time>2021-05-09T09:50:40.000Z</time>
        <extensions>
          <ns3:TrackPointExtension>
            <ns3:atemp>18.0</ns3:atemp>
          </ns3:TrackPointExtension>
        </extensions>
      </trkpt>
      <trkpt lat="43.07593538425862789154052734375" lon="12.97314620576798915863037109375">
        <ele>593.79998779296875</ele>
        <time>2021-05-09T09:50:44.000Z</time>
        <extensions>
          <ns3:TrackPointExtension>
            <ns3:atemp>18.0</ns3:atemp>
          </ns3:TrackPointExtension>
        </extensions>
      </trkpt>
      <trkpt lat="43.07593412697315216064453125" lon="12.97332323156297206878662109375">
        <ele>593.79998779296875</ele>
        <time>2021-05-09T09:50:46.000Z</time>
        <extensions>
          <ns3:TrackPointExtension>
            <ns3:atemp>18.0</ns3:atemp>
          </ns3:TrackPointExtension>
        </extensions>
      </trkpt>
      <trkpt lat="43.0759326182305812835693359375" lon="12.9736232198774814605712890625">
        <ele>593.79998779296875</ele>
        <time>2021-05-09T09:50:49.000Z</time>
        <extensions>
          <ns3:TrackPointExtension>
            <ns3:atemp>18.0</ns3:atemp>
          </ns3:TrackPointExtension>
        </extensions>
      </trkpt>
      <trkpt lat="43.07594376616179943084716796875" lon="12.97424591146409511566162109375">
        <ele>593.20001220703125</ele>
        <time>2021-05-09T09:50:55.000Z</time>
        <extensions>
          <ns3:TrackPointExtension>
            <ns3:atemp>18.0</ns3:atemp>
          </ns3:TrackPointExtension>
        </extensions>
      </trkpt>
      <trkpt lat="43.0759383179247379302978515625" lon="12.97434414736926555633544921875">
        <ele>592.79998779296875</ele>
        <time>2021-05-09T09:50:56.000Z</time>
        <extensions>
          <ns3:TrackPointExtension>
            <ns3:atemp>18.0</ns3:atemp>
          </ns3:TrackPointExtension>
        </extensions>
      </trkpt>
      <trkpt lat="43.0759353004395961761474609375" lon="12.97453491948544979095458984375">
        <ele>591.5999755859375</ele>
        <time>2021-05-09T09:50:58.000Z</time>
        <extensions>
          <ns3:TrackPointExtension>
            <ns3:atemp>18.0</ns3:atemp>
          </ns3:TrackPointExtension>
        </extensions>
      </trkpt>
      <trkpt lat="43.07593018747866153717041015625" lon="12.9748131148517131805419921875">
        <ele>590</ele>
        <time>2021-05-09T09:51:01.000Z</time>
        <extensions>
          <ns3:TrackPointExtension>
            <ns3:atemp>18.0</ns3:atemp>
          </ns3:TrackPointExtension>
        </extensions>
      </trkpt>
      <trkpt lat="43.07593354023993015289306640625" lon="12.974900119006633758544921875">
        <ele>589.5999755859375</ele>
        <time>2021-05-09T09:51:02.000Z</time>
        <extensions>
          <ns3:TrackPointExtension>
            <ns3:atemp>18.0</ns3:atemp>
          </ns3:TrackPointExtension>
        </extensions>
      </trkpt>
      <trkpt lat="43.07593789882957935333251953125" lon="12.97506482340395450592041015625">
        <ele>589</ele>
        <time>2021-05-09T09:51:04.000Z</time>
        <extensions>
          <ns3:TrackPointExtension>
            <ns3:atemp>18.0</ns3:atemp>
          </ns3:TrackPointExtension>
        </extensions>
      </trkpt>
      <trkpt lat="43.07591962628066539764404296875" lon="12.97530001960694789886474609375">
        <ele>588.79998779296875</ele>
        <time>2021-05-09T09:51:07.000Z</time>
        <extensions>
          <ns3:TrackPointExtension>
            <ns3:atemp>18.0</ns3:atemp>
          </ns3:TrackPointExtension>
        </extensions>
      </trkpt>
      <trkpt lat="43.07590671814978122711181640625" lon="12.97537394799292087554931640625">
        <ele>588.5999755859375</ele>
        <time>2021-05-09T09:51:08.000Z</time>
        <extensions>
          <ns3:TrackPointExtension>
            <ns3:atemp>18.0</ns3:atemp>
          </ns3:TrackPointExtension>
        </extensions>
      </trkpt>
      <trkpt lat="43.0758853442966938018798828125" lon="12.9755631275475025177001953125">
        <ele>588.5999755859375</ele>
        <time>2021-05-09T09:51:11.000Z</time>
        <extensions>
          <ns3:TrackPointExtension>
            <ns3:atemp>18.0</ns3:atemp>
          </ns3:TrackPointExtension>
        </extensions>
      </trkpt>
      <trkpt lat="43.07591375894844532012939453125" lon="12.97574325464665889739990234375">
        <ele>588.79998779296875</ele>
        <time>2021-05-09T09:51:15.000Z</time>
        <extensions>
          <ns3:TrackPointExtension>
            <ns3:atemp>18.0</ns3:atemp>
          </ns3:TrackPointExtension>
        </extensions>
      </trkpt>
      <trkpt lat="43.07594963349401950836181640625" lon="12.97590636648237705230712890625">
        <ele>589.4000244140625</ele>
        <time>2021-05-09T09:51:20.000Z</time>
        <extensions>
          <ns3:TrackPointExtension>
            <ns3:atemp>18.0</ns3:atemp>
          </ns3:TrackPointExtension>
        </extensions>
      </trkpt>
      <trkpt lat="43.07599808089435100555419921875" lon="12.97602740116417407989501953125">
        <ele>590.4000244140625</ele>
        <time>2021-05-09T09:51:24.000Z</time>
        <extensions>
          <ns3:TrackPointExtension>
            <ns3:atemp>18.0</ns3:atemp>
          </ns3:TrackPointExtension>
        </extensions>
      </trkpt>
      <trkpt lat="43.07603647001087665557861328125" lon="12.97610769979655742645263671875">
        <ele>591.4000244140625</ele>
        <time>2021-05-09T09:51:27.000Z</time>
        <extensions>
          <ns3:TrackPointExtension>
            <ns3:atemp>18.0</ns3:atemp>
          </ns3:TrackPointExtension>
        </extensions>
      </trkpt>
      <trkpt lat="43.07611039839684963226318359375" lon="12.9762469232082366943359375">
        <ele>592.5999755859375</ele>
        <time>2021-05-09T09:51:32.000Z</time>
        <extensions>
          <ns3:TrackPointExtension>
            <ns3:atemp>18.0</ns3:atemp>
          </ns3:TrackPointExtension>
        </extensions>
      </trkpt>
      <trkpt lat="43.07614258490502834320068359375" lon="12.9763071052730083465576171875">
        <ele>593.79998779296875</ele>
        <time>2021-05-09T09:51:34.000Z</time>
        <extensions>
          <ns3:TrackPointExtension>
            <ns3:atemp>18.0</ns3:atemp>
          </ns3:TrackPointExtension>
        </extensions>
      </trkpt>
      <trkpt lat="43.07618952356278896331787109375" lon="12.97640039585530757904052734375">
        <ele>594.79998779296875</ele>
        <time>2021-05-09T09:51:37.000Z</time>
        <extensions>
          <ns3:TrackPointExtension>
            <ns3:atemp>18.0</ns3:atemp>
          </ns3:TrackPointExtension>
        </extensions>
      </trkpt>
      <trkpt lat="43.07621282525360584259033203125" lon="12.9764643497765064239501953125">
        <ele>595.79998779296875</ele>
        <time>2021-05-09T09:51:39.000Z</time>
        <extensions>
          <ns3:TrackPointExtension>
            <ns3:atemp>18.0</ns3:atemp>
          </ns3:TrackPointExtension>
        </extensions>
      </trkpt>
      <trkpt lat="43.07621835730969905853271484375" lon="12.97649972140789031982421875">
        <ele>596</ele>
        <time>2021-05-09T09:51:40.000Z</time>
        <extensions>
          <ns3:TrackPointExtension>
            <ns3:atemp>18.0</ns3:atemp>
          </ns3:TrackPointExtension>
        </extensions>
      </trkpt>
      <trkpt lat="43.076228834688663482666015625" lon="12.97660675831139087677001953125">
        <ele>597.20001220703125</ele>
        <time>2021-05-09T09:51:43.000Z</time>
        <extensions>
          <ns3:TrackPointExtension>
            <ns3:atemp>18.0</ns3:atemp>
          </ns3:TrackPointExtension>
        </extensions>
      </trkpt>
      <trkpt lat="43.0762551538646221160888671875" lon="12.97671186737716197967529296875">
        <ele>598.79998779296875</ele>
        <time>2021-05-09T09:51:46.000Z</time>
        <extensions>
          <ns3:TrackPointExtension>
            <ns3:atemp>18.0</ns3:atemp>
          </ns3:TrackPointExtension>
        </extensions>
      </trkpt>
      <trkpt lat="43.0762875080108642578125" lon="12.97677540220320224761962890625">
        <ele>600</ele>
        <time>2021-05-09T09:51:48.000Z</time>
        <extensions>
          <ns3:TrackPointExtension>
            <ns3:atemp>18.0</ns3:atemp>
          </ns3:TrackPointExtension>
        </extensions>
      </trkpt>
      <trkpt lat="43.076336123049259185791015625" lon="12.9768686927855014801025390625">
        <ele>601</ele>
        <time>2021-05-09T09:51:51.000Z</time>
        <extensions>
          <ns3:TrackPointExtension>
            <ns3:atemp>18.0</ns3:atemp>
          </ns3:TrackPointExtension>
        </extensions>
      </trkpt>
      <trkpt lat="43.07634743861854076385498046875" lon="12.976906411349773406982421875">
        <ele>601.4000244140625</ele>
        <time>2021-05-09T09:51:52.000Z</time>
        <extensions>
          <ns3:TrackPointExtension>
            <ns3:atemp>18.0</ns3:atemp>
          </ns3:TrackPointExtension>
        </extensions>
      </trkpt>
      <trkpt lat="43.07636202313005924224853515625" lon="12.97702183015644550323486328125">
        <ele>602.4000244140625</ele>
        <time>2021-05-09T09:51:55.000Z</time>
        <extensions>
          <ns3:TrackPointExtension>
            <ns3:atemp>18.0</ns3:atemp>
          </ns3:TrackPointExtension>
        </extensions>
      </trkpt>
      <trkpt lat="43.0763795413076877593994140625" lon="12.97710766084492206573486328125">
        <ele>603.20001220703125</ele>
        <time>2021-05-09T09:51:57.000Z</time>
        <extensions>
          <ns3:TrackPointExtension>
            <ns3:atemp>18.0</ns3:atemp>
          </ns3:TrackPointExtension>
        </extensions>
      </trkpt>
      <trkpt lat="43.07638205587863922119140625" lon="12.977153845131397247314453125">
        <ele>603.5999755859375</ele>
        <time>2021-05-09T09:51:58.000Z</time>
        <extensions>
          <ns3:TrackPointExtension>
            <ns3:atemp>18.0</ns3:atemp>
          </ns3:TrackPointExtension>
        </extensions>
      </trkpt>
      <trkpt lat="43.07638130150735378265380859375" lon="12.9772851057350635528564453125">
        <ele>604.5999755859375</ele>
        <time>2021-05-09T09:52:01.000Z</time>
        <extensions>
          <ns3:TrackPointExtension>
            <ns3:atemp>18.0</ns3:atemp>
          </ns3:TrackPointExtension>
        </extensions>
      </trkpt>
      <trkpt lat="43.0763805471360683441162109375" lon="12.97732852399349212646484375">
        <ele>604.5999755859375</ele>
        <time>2021-05-09T09:52:02.000Z</time>
        <extensions>
          <ns3:TrackPointExtension>
            <ns3:atemp>18.0</ns3:atemp>
          </ns3:TrackPointExtension>
        </extensions>
      </trkpt>
      <trkpt lat="43.07638951577246189117431640625" lon="12.9775164462625980377197265625">
        <ele>605.79998779296875</ele>
        <time>2021-05-09T09:52:06.000Z</time>
        <extensions>
          <ns3:TrackPointExtension>
            <ns3:atemp>18.0</ns3:atemp>
          </ns3:TrackPointExtension>
        </extensions>
      </trkpt>
      <trkpt lat="43.0764117278158664703369140625" lon="12.97770143486559391021728515625">
        <ele>606.79998779296875</ele>
        <time>2021-05-09T09:52:10.000Z</time>
        <extensions>
          <ns3:TrackPointExtension>
            <ns3:atemp>18.0</ns3:atemp>
          </ns3:TrackPointExtension>
        </extensions>
      </trkpt>
      <trkpt lat="43.076426982879638671875" lon="12.97797803767025470733642578125">
        <ele>608</ele>
        <time>2021-05-09T09:52:16.000Z</time>
        <extensions>
          <ns3:TrackPointExtension>
            <ns3:atemp>18.0</ns3:atemp>
          </ns3:TrackPointExtension>
        </extensions>
      </trkpt>
      <trkpt lat="43.07644785381853580474853515625" lon="12.97824407927691936492919921875">
        <ele>608.4000244140625</ele>
        <time>2021-05-09T09:52:22.000Z</time>
        <extensions>
          <ns3:TrackPointExtension>
            <ns3:atemp>18.0</ns3:atemp>
          </ns3:TrackPointExtension>
        </extensions>
      </trkpt>
      <trkpt lat="43.0763961374759674072265625" lon="12.97839470207691192626953125">
        <ele>608.5999755859375</ele>
        <time>2021-05-09T09:52:26.000Z</time>
        <extensions>
          <ns3:TrackPointExtension>
            <ns3:atemp>18.0</ns3:atemp>
          </ns3:TrackPointExtension>
        </extensions>
      </trkpt>
      <trkpt lat="43.0763319320976734161376953125" lon="12.9784746654331684112548828125">
        <ele>609.20001220703125</ele>
        <time>2021-05-09T09:52:30.000Z</time>
        <extensions>
          <ns3:TrackPointExtension>
            <ns3:atemp>18.0</ns3:atemp>
          </ns3:TrackPointExtension>
        </extensions>
      </trkpt>
      <trkpt lat="43.07629865594208240509033203125" lon="12.97850023023784160614013671875">
        <ele>610.4000244140625</ele>
        <time>2021-05-09T09:52:32.000Z</time>
        <extensions>
          <ns3:TrackPointExtension>
            <ns3:atemp>18.0</ns3:atemp>
          </ns3:TrackPointExtension>
        </extensions>
      </trkpt>
      <trkpt lat="43.07624015025794506072998046875" lon="12.978536188602447509765625">
        <ele>611.4000244140625</ele>
        <time>2021-05-09T09:52:35.000Z</time>
        <extensions>
          <ns3:TrackPointExtension>
            <ns3:atemp>18.0</ns3:atemp>
          </ns3:TrackPointExtension>
        </extensions>
      </trkpt>
      <trkpt lat="43.07621969841420650482177734375" lon="12.97855697572231292724609375">
        <ele>612.20001220703125</ele>
        <time>2021-05-09T09:52:36.000Z</time>
        <extensions>
          <ns3:TrackPointExtension>
            <ns3:atemp>18.0</ns3:atemp>
          </ns3:TrackPointExtension>
        </extensions>
      </trkpt>
      <trkpt lat="43.0762025155127048492431640625" lon="12.97857684083282947540283203125">
        <ele>612.79998779296875</ele>
        <time>2021-05-09T09:52:37.000Z</time>
        <extensions>
          <ns3:TrackPointExtension>
            <ns3:atemp>18.0</ns3:atemp>
          </ns3:TrackPointExtension>
        </extensions>
      </trkpt>
      <trkpt lat="43.07619254104793071746826171875" lon="12.9785967059433460235595703125">
        <ele>613.20001220703125</ele>
        <time>2021-05-09T09:52:38.000Z</time>
        <extensions>
          <ns3:TrackPointExtension>
            <ns3:atemp>18.0</ns3:atemp>
          </ns3:TrackPointExtension>
        </extensions>
      </trkpt>
      <trkpt lat="43.07618617080152034759521484375" lon="12.978618331253528594970703125">
        <ele>613.79998779296875</ele>
        <time>2021-05-09T09:52:39.000Z</time>
        <extensions>
          <ns3:TrackPointExtension>
            <ns3:atemp>18.0</ns3:atemp>
          </ns3:TrackPointExtension>
        </extensions>
      </trkpt>
      <trkpt lat="43.07617896236479282379150390625" lon="12.9786396212875843048095703125">
        <ele>614.4000244140625</ele>
        <time>2021-05-09T09:52:40.000Z</time>
        <extensions>
          <ns3:TrackPointExtension>
            <ns3:atemp>18.0</ns3:atemp>
          </ns3:TrackPointExtension>
        </extensions>
      </trkpt>
      <trkpt lat="43.076167143881320953369140625" lon="12.97869452275335788726806640625">
        <ele>615.20001220703125</ele>
        <time>2021-05-09T09:52:42.000Z</time>
        <extensions>
          <ns3:TrackPointExtension>
            <ns3:atemp>18.0</ns3:atemp>
          </ns3:TrackPointExtension>
        </extensions>
      </trkpt>
      <trkpt lat="43.076156415045261383056640625" lon="12.9788075946271419525146484375">
        <ele>616</ele>
        <time>2021-05-09T09:52:45.000Z</time>
        <extensions>
          <ns3:TrackPointExtension>
            <ns3:atemp>18.0</ns3:atemp>
          </ns3:TrackPointExtension>
        </extensions>
      </trkpt>
      <trkpt lat="43.0761827342212200164794921875" lon="12.9790496639907360076904296875">
        <ele>616</ele>
        <time>2021-05-09T09:52:50.000Z</time>
        <extensions>
          <ns3:TrackPointExtension>
            <ns3:atemp>18.0</ns3:atemp>
          </ns3:TrackPointExtension>
        </extensions>
      </trkpt>
      <trkpt lat="43.07626672089099884033203125" lon="12.97930455766618251800537109375">
        <ele>616.4000244140625</ele>
        <time>2021-05-09T09:52:56.000Z</time>
        <extensions>
          <ns3:TrackPointExtension>
            <ns3:atemp>18.0</ns3:atemp>
          </ns3:TrackPointExtension>
        </extensions>
      </trkpt>
      <trkpt lat="43.0763711594045162200927734375" lon="12.9794776439666748046875">
        <ele>616.4000244140625</ele>
        <time>2021-05-09T09:53:01.000Z</time>
        <extensions>
          <ns3:TrackPointExtension>
            <ns3:atemp>18.0</ns3:atemp>
          </ns3:TrackPointExtension>
        </extensions>
      </trkpt>
      <trkpt lat="43.0764824710786342620849609375" lon="12.97962055541574954986572265625">
        <ele>616.4000244140625</ele>
        <time>2021-05-09T09:53:06.000Z</time>
        <extensions>
          <ns3:TrackPointExtension>
            <ns3:atemp>18.0</ns3:atemp>
          </ns3:TrackPointExtension>
        </extensions>
      </trkpt>
      <trkpt lat="43.0766252987086772918701171875" lon="12.979794479906558990478515625">
        <ele>617.4000244140625</ele>
        <time>2021-05-09T09:53:12.000Z</time>
        <extensions>
          <ns3:TrackPointExtension>
            <ns3:atemp>18.0</ns3:atemp>
          </ns3:TrackPointExtension>
        </extensions>
      </trkpt>
      <trkpt lat="43.0767180025577545166015625" lon="12.97991274856030941009521484375">
        <ele>617.5999755859375</ele>
        <time>2021-05-09T09:53:16.000Z</time>
        <extensions>
          <ns3:TrackPointExtension>
            <ns3:atemp>18.0</ns3:atemp>
          </ns3:TrackPointExtension>
        </extensions>
      </trkpt>
      <trkpt lat="43.07672814466059207916259765625" lon="12.97995884902775287628173828125">
        <ele>617.5999755859375</ele>
        <time>2021-05-09T09:53:17.000Z</time>
        <extensions>
          <ns3:TrackPointExtension>
            <ns3:atemp>18.0</ns3:atemp>
          </ns3:TrackPointExtension>
        </extensions>
      </trkpt>
      <trkpt lat="43.07674222625792026519775390625" lon="12.9799974896013736724853515625">
        <ele>617.79998779296875</ele>
        <time>2021-05-09T09:53:18.000Z</time>
        <extensions>
          <ns3:TrackPointExtension>
            <ns3:atemp>18.0</ns3:atemp>
          </ns3:TrackPointExtension>
        </extensions>
      </trkpt>
      <trkpt lat="43.07678413577377796173095703125" lon="12.98009882681071758270263671875">
        <ele>618.79998779296875</ele>
        <time>2021-05-09T09:53:21.000Z</time>
        <extensions>
          <ns3:TrackPointExtension>
            <ns3:atemp>18.0</ns3:atemp>
          </ns3:TrackPointExtension>
        </extensions>
      </trkpt>
      <trkpt lat="43.07684180326759815216064453125" lon="12.9801922850310802459716796875">
        <ele>619.5999755859375</ele>
        <time>2021-05-09T09:53:24.000Z</time>
        <extensions>
          <ns3:TrackPointExtension>
            <ns3:atemp>18.0</ns3:atemp>
          </ns3:TrackPointExtension>
        </extensions>
      </trkpt>
      <trkpt lat="43.07688136585056781768798828125" lon="12.9802435822784900665283203125">
        <ele>620</ele>
        <time>2021-05-09T09:53:26.000Z</time>
        <extensions>
          <ns3:TrackPointExtension>
            <ns3:atemp>18.0</ns3:atemp>
          </ns3:TrackPointExtension>
        </extensions>
      </trkpt>
      <trkpt lat="43.0769652687013149261474609375" lon="12.98036419786512851715087890625">
        <ele>621</ele>
        <time>2021-05-09T09:53:31.000Z</time>
        <extensions>
          <ns3:TrackPointExtension>
            <ns3:atemp>18.0</ns3:atemp>
          </ns3:TrackPointExtension>
        </extensions>
      </trkpt>
      <trkpt lat="43.07697909884154796600341796875" lon="12.980386577546596527099609375">
        <ele>621.20001220703125</ele>
        <time>2021-05-09T09:53:32.000Z</time>
        <extensions>
          <ns3:TrackPointExtension>
            <ns3:atemp>18.0</ns3:atemp>
          </ns3:TrackPointExtension>
        </extensions>
      </trkpt>
      <trkpt lat="43.07700944133102893829345703125" lon="12.98045874573290348052978515625">
        <ele>622.5999755859375</ele>
        <time>2021-05-09T09:53:35.000Z</time>
        <extensions>
          <ns3:TrackPointExtension>
            <ns3:atemp>18.0</ns3:atemp>
          </ns3:TrackPointExtension>
        </extensions>
      </trkpt>
      <trkpt lat="43.077024780213832855224609375" lon="12.98050719313323497772216796875">
        <ele>623</ele>
        <time>2021-05-09T09:53:37.000Z</time>
        <extensions>
          <ns3:TrackPointExtension>
            <ns3:atemp>18.0</ns3:atemp>
          </ns3:TrackPointExtension>
        </extensions>
      </trkpt>
      <trkpt lat="43.0770353414118289947509765625" lon="12.9805325902998447418212890625">
        <ele>623.4000244140625</ele>
        <time>2021-05-09T09:53:38.000Z</time>
        <extensions>
          <ns3:TrackPointExtension>
            <ns3:atemp>18.0</ns3:atemp>
          </ns3:TrackPointExtension>
        </extensions>
      </trkpt>
      <trkpt lat="43.07704598642885684967041015625" lon="12.98055228777229785919189453125">
        <ele>623.79998779296875</ele>
        <time>2021-05-09T09:53:39.000Z</time>
        <extensions>
          <ns3:TrackPointExtension>
            <ns3:atemp>18.0</ns3:atemp>
          </ns3:TrackPointExtension>
        </extensions>
      </trkpt>
      <trkpt lat="43.07707750238478183746337890625" lon="12.9806231148540973663330078125">
        <ele>625</ele>
        <time>2021-05-09T09:53:42.000Z</time>
        <extensions>
          <ns3:TrackPointExtension>
            <ns3:atemp>18.0</ns3:atemp>
          </ns3:TrackPointExtension>
        </extensions>
      </trkpt>
      <trkpt lat="43.0770980380475521087646484375" lon="12.98067902214825153350830078125">
        <ele>625.79998779296875</ele>
        <time>2021-05-09T09:53:44.000Z</time>
        <extensions>
          <ns3:TrackPointExtension>
            <ns3:atemp>18.0</ns3:atemp>
          </ns3:TrackPointExtension>
        </extensions>
      </trkpt>
      <trkpt lat="43.0771096050739288330078125" lon="12.98070115037262439727783203125">
        <ele>626.4000244140625</ele>
        <time>2021-05-09T09:53:45.000Z</time>
        <extensions>
          <ns3:TrackPointExtension>
            <ns3:atemp>18.0</ns3:atemp>
          </ns3:TrackPointExtension>
        </extensions>
      </trkpt>
      <trkpt lat="43.07713533751666545867919921875" lon="12.98077524639666080474853515625">
        <ele>627.5999755859375</ele>
        <time>2021-05-09T09:53:48.000Z</time>
        <extensions>
          <ns3:TrackPointExtension>
            <ns3:atemp>18.0</ns3:atemp>
          </ns3:TrackPointExtension>
        </extensions>
      </trkpt>
      <trkpt lat="43.07713718153536319732666015625" lon="12.98084096051752567291259765625">
        <ele>628.4000244140625</ele>
        <time>2021-05-09T09:53:50.000Z</time>
        <extensions>
          <ns3:TrackPointExtension>
            <ns3:atemp>18.0</ns3:atemp>
          </ns3:TrackPointExtension>
        </extensions>
      </trkpt>
      <trkpt lat="43.07713843882083892822265625" lon="12.980872727930545806884765625">
        <ele>628.79998779296875</ele>
        <time>2021-05-09T09:53:51.000Z</time>
        <extensions>
          <ns3:TrackPointExtension>
            <ns3:atemp>18.0</ns3:atemp>
          </ns3:TrackPointExtension>
        </extensions>
      </trkpt>
      <trkpt lat="43.0771476589143276214599609375" lon="12.98093232326209545135498046875">
        <ele>629.79998779296875</ele>
        <time>2021-05-09T09:53:53.000Z</time>
        <extensions>
          <ns3:TrackPointExtension>
            <ns3:atemp>18.0</ns3:atemp>
          </ns3:TrackPointExtension>
        </extensions>
      </trkpt>
      <trkpt lat="43.07714623399078845977783203125" lon="12.98098730854690074920654296875">
        <ele>631.20001220703125</ele>
        <time>2021-05-09T09:53:55.000Z</time>
        <extensions>
          <ns3:TrackPointExtension>
            <ns3:atemp>18.0</ns3:atemp>
          </ns3:TrackPointExtension>
        </extensions>
      </trkpt>
      <trkpt lat="43.07714036665856838226318359375" lon="12.9810405336320400238037109375">
        <ele>632.4000244140625</ele>
        <time>2021-05-09T09:53:57.000Z</time>
        <extensions>
          <ns3:TrackPointExtension>
            <ns3:atemp>18.0</ns3:atemp>
          </ns3:TrackPointExtension>
        </extensions>
      </trkpt>
      <trkpt lat="43.07713718153536319732666015625" lon="12.9811032302677631378173828125">
        <ele>633.5999755859375</ele>
        <time>2021-05-09T09:53:59.000Z</time>
        <extensions>
          <ns3:TrackPointExtension>
            <ns3:atemp>18.0</ns3:atemp>
          </ns3:TrackPointExtension>
        </extensions>
      </trkpt>
      <trkpt lat="43.07713466696441173553466796875" lon="12.98113801516592502593994140625">
        <ele>633.79998779296875</ele>
        <time>2021-05-09T09:54:00.000Z</time>
        <extensions>
          <ns3:TrackPointExtension>
            <ns3:atemp>18.0</ns3:atemp>
          </ns3:TrackPointExtension>
        </extensions>
      </trkpt>
      <trkpt lat="43.07713483460247516632080078125" lon="12.98116886056959629058837890625">
        <ele>634</ele>
        <time>2021-05-09T09:54:01.000Z</time>
        <extensions>
          <ns3:TrackPointExtension>
            <ns3:atemp>18.0</ns3:atemp>
          </ns3:TrackPointExtension>
        </extensions>
      </trkpt>
      <trkpt lat="43.07714053429663181304931640625" lon="12.9811907373368740081787109375">
        <ele>634.4000244140625</ele>
        <time>2021-05-09T09:54:02.000Z</time>
        <extensions>
          <ns3:TrackPointExtension>
            <ns3:atemp>18.0</ns3:atemp>
          </ns3:TrackPointExtension>
        </extensions>
      </trkpt>
      <trkpt lat="43.07714673690497875213623046875" lon="12.981209345161914825439453125">
        <ele>634.5999755859375</ele>
        <time>2021-05-09T09:54:03.000Z</time>
        <extensions>
          <ns3:TrackPointExtension>
            <ns3:atemp>18.0</ns3:atemp>
          </ns3:TrackPointExtension>
        </extensions>
      </trkpt>
      <trkpt lat="43.0771382711827754974365234375" lon="12.9812980256974697113037109375">
        <ele>635.5999755859375</ele>
        <time>2021-05-09T09:54:06.000Z</time>
        <extensions>
          <ns3:TrackPointExtension>
            <ns3:atemp>18.0</ns3:atemp>
          </ns3:TrackPointExtension>
        </extensions>
      </trkpt>
      <trkpt lat="43.07713500224053859710693359375" lon="12.98133281059563159942626953125">
        <ele>635.79998779296875</ele>
        <time>2021-05-09T09:54:07.000Z</time>
        <extensions>
          <ns3:TrackPointExtension>
            <ns3:atemp>18.0</ns3:atemp>
          </ns3:TrackPointExtension>
        </extensions>
      </trkpt>
      <trkpt lat="43.0771422944962978363037109375" lon="12.981385700404644012451171875">
        <ele>636</ele>
        <time>2021-05-09T09:54:09.000Z</time>
        <extensions>
          <ns3:TrackPointExtension>
            <ns3:atemp>18.0</ns3:atemp>
          </ns3:TrackPointExtension>
        </extensions>
      </trkpt>
      <trkpt lat="43.0771473236382007598876953125" lon="12.98140154220163822174072265625">
        <ele>636</ele>
        <time>2021-05-09T09:54:10.000Z</time>
        <extensions>
          <ns3:TrackPointExtension>
            <ns3:atemp>18.0</ns3:atemp>
          </ns3:TrackPointExtension>
        </extensions>
      </trkpt>
      <trkpt lat="43.0771557055413722991943359375" lon="12.9814343154430389404296875">
        <ele>636.4000244140625</ele>
        <time>2021-05-09T09:54:16.000Z</time>
        <extensions>
          <ns3:TrackPointExtension>
            <ns3:atemp>18.0</ns3:atemp>
          </ns3:TrackPointExtension>
        </extensions>
      </trkpt>
      <trkpt lat="43.07716031558811664581298828125" lon="12.9814512468874454498291015625">
        <ele>637</ele>
        <time>2021-05-09T09:54:18.000Z</time>
        <extensions>
          <ns3:TrackPointExtension>
            <ns3:atemp>18.0</ns3:atemp>
          </ns3:TrackPointExtension>
        </extensions>
      </trkpt>
      <trkpt lat="43.07716467417776584625244140625" lon="12.98147781752049922943115234375">
        <ele>638.20001220703125</ele>
        <time>2021-05-09T09:54:23.000Z</time>
        <extensions>
          <ns3:TrackPointExtension>
            <ns3:atemp>18.0</ns3:atemp>
          </ns3:TrackPointExtension>
        </extensions>
      </trkpt>
      <trkpt lat="43.07716819457709789276123046875" lon="12.981486618518829345703125">
        <ele>638.79998779296875</ele>
        <time>2021-05-09T09:54:26.000Z</time>
        <extensions>
          <ns3:TrackPointExtension>
            <ns3:atemp>18.0</ns3:atemp>
          </ns3:TrackPointExtension>
        </extensions>
      </trkpt>
      <trkpt lat="43.07715780101716518402099609375" lon="12.9815189726650714874267578125">
        <ele>639.5999755859375</ele>
        <time>2021-05-09T09:54:28.000Z</time>
        <extensions>
          <ns3:TrackPointExtension>
            <ns3:atemp>18.0</ns3:atemp>
          </ns3:TrackPointExtension>
        </extensions>
      </trkpt>
      <trkpt lat="43.077159225940704345703125" lon="12.98154487274587154388427734375">
        <ele>639.5999755859375</ele>
        <time>2021-05-09T09:54:29.000Z</time>
        <extensions>
          <ns3:TrackPointExtension>
            <ns3:atemp>18.0</ns3:atemp>
          </ns3:TrackPointExtension>
        </extensions>
      </trkpt>
      <trkpt lat="43.07716232724487781524658203125" lon="12.981596253812313079833984375">
        <ele>639.5999755859375</ele>
        <time>2021-05-09T09:54:31.000Z</time>
        <extensions>
          <ns3:TrackPointExtension>
            <ns3:atemp>18.0</ns3:atemp>
          </ns3:TrackPointExtension>
        </extensions>
      </trkpt>
      <trkpt lat="43.0771815218031406402587890625" lon="12.98179046250879764556884765625">
        <ele>640</ele>
        <time>2021-05-09T09:54:37.000Z</time>
        <extensions>
          <ns3:TrackPointExtension>
            <ns3:atemp>18.0</ns3:atemp>
          </ns3:TrackPointExtension>
        </extensions>
      </trkpt>
      <trkpt lat="43.07720147073268890380859375" lon="12.9818773828446865081787109375">
        <ele>641</ele>
        <time>2021-05-09T09:54:40.000Z</time>
        <extensions>
          <ns3:TrackPointExtension>
            <ns3:atemp>18.0</ns3:atemp>
          </ns3:TrackPointExtension>
        </extensions>
      </trkpt>
      <trkpt lat="43.07721865363419055938720703125" lon="12.98192407004535198211669921875">
        <ele>642.20001220703125</ele>
        <time>2021-05-09T09:54:42.000Z</time>
        <extensions>
          <ns3:TrackPointExtension>
            <ns3:atemp>18.0</ns3:atemp>
          </ns3:TrackPointExtension>
        </extensions>
      </trkpt>
      <trkpt lat="43.07722619734704494476318359375" lon="12.98198559321463108062744140625">
        <ele>643.4000244140625</ele>
        <time>2021-05-09T09:54:44.000Z</time>
        <extensions>
          <ns3:TrackPointExtension>
            <ns3:atemp>18.0</ns3:atemp>
          </ns3:TrackPointExtension>
        </extensions>
      </trkpt>
      <trkpt lat="43.0772356688976287841796875" lon="12.9820896126329898834228515625">
        <ele>645</ele>
        <time>2021-05-09T09:54:47.000Z</time>
        <extensions>
          <ns3:TrackPointExtension>
            <ns3:atemp>18.0</ns3:atemp>
          </ns3:TrackPointExtension>
        </extensions>
      </trkpt>
      <trkpt lat="43.077239692211151123046875" lon="12.98213638365268707275390625">
        <ele>646</ele>
        <time>2021-05-09T09:54:50.000Z</time>
        <extensions>
          <ns3:TrackPointExtension>
            <ns3:atemp>18.0</ns3:atemp>
          </ns3:TrackPointExtension>
        </extensions>
      </trkpt>
      <trkpt lat="43.07724446989595890045166015625" lon="12.9821456037461757659912109375">
        <ele>646.20001220703125</ele>
        <time>2021-05-09T09:54:51.000Z</time>
        <extensions>
          <ns3:TrackPointExtension>
            <ns3:atemp>18.0</ns3:atemp>
          </ns3:TrackPointExtension>
        </extensions>
      </trkpt>
      <trkpt lat="43.07725788094103336334228515625" lon="12.98218667507171630859375">
        <ele>647</ele>
        <time>2021-05-09T09:54:55.000Z</time>
        <extensions>
          <ns3:TrackPointExtension>
            <ns3:atemp>18.0</ns3:atemp>
          </ns3:TrackPointExtension>
        </extensions>
      </trkpt>
      <trkpt lat="43.07726316154003143310546875" lon="12.98220352269709110260009765625">
        <ele>648.20001220703125</ele>
        <time>2021-05-09T09:54:58.000Z</time>
        <extensions>
          <ns3:TrackPointExtension>
            <ns3:atemp>18.0</ns3:atemp>
          </ns3:TrackPointExtension>
        </extensions>
      </trkpt>
      <trkpt lat="43.07726693339645862579345703125" lon="12.9822136647999286651611328125">
        <ele>648.4000244140625</ele>
        <time>2021-05-09T09:55:00.000Z</time>
        <extensions>
          <ns3:TrackPointExtension>
            <ns3:atemp>18.0</ns3:atemp>
          </ns3:TrackPointExtension>
        </extensions>
      </trkpt>
      <trkpt lat="43.077304065227508544921875" lon="12.98223939724266529083251953125">
        <ele>648.79998779296875</ele>
        <time>2021-05-09T09:55:05.000Z</time>
        <extensions>
          <ns3:TrackPointExtension>
            <ns3:atemp>18.0</ns3:atemp>
          </ns3:TrackPointExtension>
        </extensions>
      </trkpt>
      <trkpt lat="43.07732963003218173980712890625" lon="12.982264794409275054931640625">
        <ele>649</ele>
        <time>2021-05-09T09:55:07.000Z</time>
        <extensions>
          <ns3:TrackPointExtension>
            <ns3:atemp>18.0</ns3:atemp>
          </ns3:TrackPointExtension>
        </extensions>
      </trkpt>
      <trkpt lat="43.07738411240279674530029296875" lon="12.98229890875518321990966796875">
        <ele>649.20001220703125</ele>
        <time>2021-05-09T09:55:10.000Z</time>
        <extensions>
          <ns3:TrackPointExtension>
            <ns3:atemp>18.0</ns3:atemp>
          </ns3:TrackPointExtension>
        </extensions>
      </trkpt>
      <trkpt lat="43.07740204967558383941650390625" lon="12.982309721410274505615234375">
        <ele>649.20001220703125</ele>
        <time>2021-05-09T09:55:11.000Z</time>
        <extensions>
          <ns3:TrackPointExtension>
            <ns3:atemp>18.0</ns3:atemp>
          </ns3:TrackPointExtension>
        </extensions>
      </trkpt>
      <trkpt lat="43.07746407575905323028564453125" lon="12.982364036142826080322265625">
        <ele>649.4000244140625</ele>
        <time>2021-05-09T09:55:15.000Z</time>
        <extensions>
          <ns3:TrackPointExtension>
            <ns3:atemp>18.0</ns3:atemp>
          </ns3:TrackPointExtension>
        </extensions>
      </trkpt>
      <trkpt lat="43.07747916318476200103759765625" lon="12.98238054849207401275634765625">
        <ele>649.4000244140625</ele>
        <time>2021-05-09T09:55:16.000Z</time>
        <extensions>
          <ns3:TrackPointExtension>
            <ns3:atemp>18.0</ns3:atemp>
          </ns3:TrackPointExtension>
        </extensions>
      </trkpt>
      <trkpt lat="43.07749475352466106414794921875" lon="12.98244559206068515777587890625">
        <ele>650.4000244140625</ele>
        <time>2021-05-09T09:55:19.000Z</time>
        <extensions>
          <ns3:TrackPointExtension>
            <ns3:atemp>18.0</ns3:atemp>
          </ns3:TrackPointExtension>
        </extensions>
      </trkpt>
      <trkpt lat="43.077488131821155548095703125" lon="12.98247165977954864501953125">
        <ele>650.5999755859375</ele>
        <time>2021-05-09T09:55:20.000Z</time>
        <extensions>
          <ns3:TrackPointExtension>
            <ns3:atemp>18.0</ns3:atemp>
          </ns3:TrackPointExtension>
        </extensions>
      </trkpt>
      <trkpt lat="43.077488802373409271240234375" lon="12.98249823041260242462158203125">
        <ele>651</ele>
        <time>2021-05-09T09:55:21.000Z</time>
        <extensions>
          <ns3:TrackPointExtension>
            <ns3:atemp>18.0</ns3:atemp>
          </ns3:TrackPointExtension>
        </extensions>
      </trkpt>
      <trkpt lat="43.07749140076339244842529296875" lon="12.982563860714435577392578125">
        <ele>651.4000244140625</ele>
        <time>2021-05-09T09:55:24.000Z</time>
        <extensions>
          <ns3:TrackPointExtension>
            <ns3:atemp>18.0</ns3:atemp>
          </ns3:TrackPointExtension>
        </extensions>
      </trkpt>
      <trkpt lat="43.07748754508793354034423828125" lon="12.98269269056618213653564453125">
        <ele>652.20001220703125</ele>
        <time>2021-05-09T09:55:30.000Z</time>
        <extensions>
          <ns3:TrackPointExtension>
            <ns3:atemp>18.0</ns3:atemp>
          </ns3:TrackPointExtension>
        </extensions>
      </trkpt>
      <trkpt lat="43.077481091022491455078125" lon="12.98275019042193889617919921875">
        <ele>652.4000244140625</ele>
        <time>2021-05-09T09:55:32.000Z</time>
        <extensions>
          <ns3:TrackPointExtension>
            <ns3:atemp>18.0</ns3:atemp>
          </ns3:TrackPointExtension>
        </extensions>
      </trkpt>
      <trkpt lat="43.07747798971831798553466796875" lon="12.98286954872310161590576171875">
        <ele>652.4000244140625</ele>
        <time>2021-05-09T09:55:35.000Z</time>
        <extensions>
          <ns3:TrackPointExtension>
            <ns3:atemp>18.0</ns3:atemp>
          </ns3:TrackPointExtension>
        </extensions>
      </trkpt>
      <trkpt lat="43.07748310267925262451171875" lon="12.98290911130607128143310546875">
        <ele>652.4000244140625</ele>
        <time>2021-05-09T09:55:36.000Z</time>
        <extensions>
          <ns3:TrackPointExtension>
            <ns3:atemp>18.0</ns3:atemp>
          </ns3:TrackPointExtension>
        </extensions>
      </trkpt>
      <trkpt lat="43.07749408297240734100341796875" lon="12.98299678601324558258056640625">
        <ele>652.5999755859375</ele>
        <time>2021-05-09T09:55:39.000Z</time>
        <extensions>
          <ns3:TrackPointExtension>
            <ns3:atemp>18.0</ns3:atemp>
          </ns3:TrackPointExtension>
        </extensions>
      </trkpt>
      <trkpt lat="43.07749274186789989471435546875" lon="12.98302017152309417724609375">
        <ele>652.79998779296875</ele>
        <time>2021-05-09T09:55:40.000Z</time>
        <extensions>
          <ns3:TrackPointExtension>
            <ns3:atemp>18.0</ns3:atemp>
          </ns3:TrackPointExtension>
        </extensions>
      </trkpt>
      <trkpt lat="43.0774316377937793731689453125" lon="12.983117401599884033203125">
        <ele>652.79998779296875</ele>
        <time>2021-05-09T09:55:43.000Z</time>
        <extensions>
          <ns3:TrackPointExtension>
            <ns3:atemp>18.0</ns3:atemp>
          </ns3:TrackPointExtension>
        </extensions>
      </trkpt>
      <trkpt lat="43.0773991160094738006591796875" lon="12.98317263834178447723388671875">
        <ele>653</ele>
        <time>2021-05-09T09:55:44.000Z</time>
        <extensions>
          <ns3:TrackPointExtension>
            <ns3:atemp>18.0</ns3:atemp>
          </ns3:TrackPointExtension>
        </extensions>
      </trkpt>
      <trkpt lat="43.07735444046556949615478515625" lon="12.98328814096748828887939453125">
        <ele>653</ele>
        <time>2021-05-09T09:55:47.000Z</time>
        <extensions>
          <ns3:TrackPointExtension>
            <ns3:atemp>18.0</ns3:atemp>
          </ns3:TrackPointExtension>
        </extensions>
      </trkpt>
      <trkpt lat="43.07727565057575702667236328125" lon="12.983459718525409698486328125">
        <ele>653</ele>
        <time>2021-05-09T09:55:52.000Z</time>
        <extensions>
          <ns3:TrackPointExtension>
            <ns3:atemp>18.0</ns3:atemp>
          </ns3:TrackPointExtension>
        </extensions>
      </trkpt>
      <trkpt lat="43.077223263680934906005859375" lon="12.9836432822048664093017578125">
        <ele>653.4000244140625</ele>
        <time>2021-05-09T09:55:58.000Z</time>
        <extensions>
          <ns3:TrackPointExtension>
            <ns3:atemp>18.0</ns3:atemp>
          </ns3:TrackPointExtension>
        </extensions>
      </trkpt>
      <trkpt lat="43.07722619734704494476318359375" lon="12.98369600437581539154052734375">
        <ele>653.5999755859375</ele>
        <time>2021-05-09T09:56:01.000Z</time>
        <extensions>
          <ns3:TrackPointExtension>
            <ns3:atemp>18.0</ns3:atemp>
          </ns3:TrackPointExtension>
        </extensions>
      </trkpt>
      <trkpt lat="43.0772321484982967376708984375" lon="12.98371897079050540924072265625">
        <ele>653.79998779296875</ele>
        <time>2021-05-09T09:56:04.000Z</time>
        <extensions>
          <ns3:TrackPointExtension>
            <ns3:atemp>18.0</ns3:atemp>
          </ns3:TrackPointExtension>
        </extensions>
      </trkpt>
      <trkpt lat="43.07722703553736209869384765625" lon="12.9837257601320743560791015625">
        <ele>654</ele>
        <time>2021-05-09T09:56:14.000Z</time>
        <extensions>
          <ns3:TrackPointExtension>
            <ns3:atemp>18.0</ns3:atemp>
          </ns3:TrackPointExtension>
        </extensions>
      </trkpt>
      <trkpt lat="43.07722887955605983734130859375" lon="12.9837260954082012176513671875">
        <ele>653.79998779296875</ele>
        <time>2021-05-09T09:56:28.000Z</time>
        <extensions>
          <ns3:TrackPointExtension>
            <ns3:atemp>18.0</ns3:atemp>
          </ns3:TrackPointExtension>
        </extensions>
      </trkpt>
      <trkpt lat="43.07724933139979839324951171875" lon="12.98378367908298969268798828125">
        <ele>653.79998779296875</ele>
        <time>2021-05-09T09:56:38.000Z</time>
        <extensions>
          <ns3:TrackPointExtension>
            <ns3:atemp>18.0</ns3:atemp>
          </ns3:TrackPointExtension>
        </extensions>
      </trkpt>
      <trkpt lat="43.07734840549528598785400390625" lon="12.98394310288131237030029296875">
        <ele>653.5999755859375</ele>
        <time>2021-05-09T09:56:43.000Z</time>
        <extensions>
          <ns3:TrackPointExtension>
            <ns3:atemp>18.0</ns3:atemp>
          </ns3:TrackPointExtension>
        </extensions>
      </trkpt>
      <trkpt lat="43.07743884623050689697265625" lon="12.98403748311102390289306640625">
        <ele>653</ele>
        <time>2021-05-09T09:56:48.000Z</time>
        <extensions>
          <ns3:TrackPointExtension>
            <ns3:atemp>18.0</ns3:atemp>
          </ns3:TrackPointExtension>
        </extensions>
      </trkpt>
      <trkpt lat="43.07755284011363983154296875" lon="12.984045781195163726806640625">
        <ele>652.4000244140625</ele>
        <time>2021-05-09T09:56:53.000Z</time>
        <extensions>
          <ns3:TrackPointExtension>
            <ns3:atemp>18.0</ns3:atemp>
          </ns3:TrackPointExtension>
        </extensions>
      </trkpt>
      <trkpt lat="43.07769675739109516143798828125" lon="12.98413672484457492828369140625">
        <ele>652.5999755859375</ele>
        <time>2021-05-09T09:56:59.000Z</time>
        <extensions>
          <ns3:TrackPointExtension>
            <ns3:atemp>18.0</ns3:atemp>
          </ns3:TrackPointExtension>
        </extensions>
      </trkpt>
      <trkpt lat="43.07779432274401187896728515625" lon="12.98427234403789043426513671875">
        <ele>653.20001220703125</ele>
        <time>2021-05-09T09:57:04.000Z</time>
        <extensions>
          <ns3:TrackPointExtension>
            <ns3:atemp>18.0</ns3:atemp>
          </ns3:TrackPointExtension>
        </extensions>
      </trkpt>
      <trkpt lat="43.07786456309258937835693359375" lon="12.9843242280185222625732421875">
        <ele>653.5999755859375</ele>
        <time>2021-05-09T09:57:08.000Z</time>
        <extensions>
          <ns3:TrackPointExtension>
            <ns3:atemp>18.0</ns3:atemp>
          </ns3:TrackPointExtension>
        </extensions>
      </trkpt>
      <trkpt lat="43.077873699367046356201171875" lon="12.98434157855808734893798828125">
        <ele>654.20001220703125</ele>
        <time>2021-05-09T09:57:12.000Z</time>
        <extensions>
          <ns3:TrackPointExtension>
            <ns3:atemp>18.0</ns3:atemp>
          </ns3:TrackPointExtension>
        </extensions>
      </trkpt>
      <trkpt lat="43.07787395082414150238037109375" lon="12.98434023745357990264892578125">
        <ele>654.4000244140625</ele>
        <time>2021-05-09T09:57:13.000Z</time>
        <extensions>
          <ns3:TrackPointExtension>
            <ns3:atemp>18.0</ns3:atemp>
          </ns3:TrackPointExtension>
        </extensions>
      </trkpt>
      <trkpt lat="43.0778758786618709564208984375" lon="12.9843386448919773101806640625">
        <ele>655.20001220703125</ele>
        <time>2021-05-09T09:57:15.000Z</time>
        <extensions>
          <ns3:TrackPointExtension>
            <ns3:atemp>18.0</ns3:atemp>
          </ns3:TrackPointExtension>
        </extensions>
      </trkpt>
      <trkpt lat="43.07788635604083538055419921875" lon="12.98436529934406280517578125">
        <ele>656</ele>
        <time>2021-05-09T09:57:18.000Z</time>
        <extensions>
          <ns3:TrackPointExtension>
            <ns3:atemp>18.0</ns3:atemp>
          </ns3:TrackPointExtension>
        </extensions>
      </trkpt>
      <trkpt lat="43.077893145382404327392578125" lon="12.9843896068632602691650390625">
        <ele>656</ele>
        <time>2021-05-09T09:57:19.000Z</time>
        <extensions>
          <ns3:TrackPointExtension>
            <ns3:atemp>18.0</ns3:atemp>
          </ns3:TrackPointExtension>
        </extensions>
      </trkpt>
      <trkpt lat="43.0779432691633701324462890625" lon="12.98452581278979778289794921875">
        <ele>656</ele>
        <time>2021-05-09T09:57:23.000Z</time>
        <extensions>
          <ns3:TrackPointExtension>
            <ns3:atemp>18.0</ns3:atemp>
          </ns3:TrackPointExtension>
        </extensions>
      </trkpt>
      <trkpt lat="43.07799280621111392974853515625" lon="12.98464701510965824127197265625">
        <ele>656</ele>
        <time>2021-05-09T09:57:28.000Z</time>
        <extensions>
          <ns3:TrackPointExtension>
            <ns3:atemp>18.0</ns3:atemp>
          </ns3:TrackPointExtension>
        </extensions>
      </trkpt>
      <trkpt lat="43.07800269685685634613037109375" lon="12.98465724103152751922607421875">
        <ele>656</ele>
        <time>2021-05-09T09:57:34.000Z</time>
        <extensions>
          <ns3:TrackPointExtension>
            <ns3:atemp>18.0</ns3:atemp>
          </ns3:TrackPointExtension>
        </extensions>
      </trkpt>
      <trkpt lat="43.0780009366571903228759765625" lon="12.98466503620147705078125">
        <ele>656.20001220703125</ele>
        <time>2021-05-09T09:57:38.000Z</time>
        <extensions>
          <ns3:TrackPointExtension>
            <ns3:atemp>18.0</ns3:atemp>
          </ns3:TrackPointExtension>
        </extensions>
      </trkpt>
      <trkpt lat="43.07801074348390102386474609375" lon="12.9846658743917942047119140625">
        <ele>656.20001220703125</ele>
        <time>2021-05-09T09:57:45.000Z</time>
        <extensions>
          <ns3:TrackPointExtension>
            <ns3:atemp>18.0</ns3:atemp>
          </ns3:TrackPointExtension>
        </extensions>
      </trkpt>
      <trkpt lat="43.07802231051027774810791015625" lon="12.98469479195773601531982421875">
        <ele>656.20001220703125</ele>
        <time>2021-05-09T09:57:50.000Z</time>
        <extensions>
          <ns3:TrackPointExtension>
            <ns3:atemp>18.0</ns3:atemp>
          </ns3:TrackPointExtension>
        </extensions>
      </trkpt>
      <trkpt lat="43.07804963551461696624755859375" lon="12.98474173061549663543701171875">
        <ele>656.4000244140625</ele>
        <time>2021-05-09T09:57:52.000Z</time>
        <extensions>
          <ns3:TrackPointExtension>
            <ns3:atemp>18.0</ns3:atemp>
          </ns3:TrackPointExtension>
        </extensions>
      </trkpt>
      <trkpt lat="43.07816899381577968597412109375" lon="12.98494205810129642486572265625">
        <ele>656.20001220703125</ele>
        <time>2021-05-09T09:57:58.000Z</time>
        <extensions>
          <ns3:TrackPointExtension>
            <ns3:atemp>18.0</ns3:atemp>
          </ns3:TrackPointExtension>
        </extensions>
      </trkpt>
      <trkpt lat="43.07818592526018619537353515625" lon="12.98497759737074375152587890625">
        <ele>656.20001220703125</ele>
        <time>2021-05-09T09:57:59.000Z</time>
        <extensions>
          <ns3:TrackPointExtension>
            <ns3:atemp>18.0</ns3:atemp>
          </ns3:TrackPointExtension>
        </extensions>
      </trkpt>
      <trkpt lat="43.07824292220175266265869140625" lon="12.98512847162783145904541015625">
        <ele>656.20001220703125</ele>
        <time>2021-05-09T09:58:02.000Z</time>
        <extensions>
          <ns3:TrackPointExtension>
            <ns3:atemp>18.0</ns3:atemp>
          </ns3:TrackPointExtension>
        </extensions>
      </trkpt>
      <trkpt lat="43.07833763770759105682373046875" lon="12.98529242165386676788330078125">
        <ele>656.20001220703125</ele>
        <time>2021-05-09T09:58:07.000Z</time>
        <extensions>
          <ns3:TrackPointExtension>
            <ns3:atemp>18.0</ns3:atemp>
          </ns3:TrackPointExtension>
        </extensions>
      </trkpt>
      <trkpt lat="43.07841592468321323394775390625" lon="12.98544866032898426055908203125">
        <ele>656.5999755859375</ele>
        <time>2021-05-09T09:58:12.000Z</time>
        <extensions>
          <ns3:TrackPointExtension>
            <ns3:atemp>18.0</ns3:atemp>
          </ns3:TrackPointExtension>
        </extensions>
      </trkpt>
      <trkpt lat="43.0784904398024082183837890625" lon="12.98555829562246799468994140625">
        <ele>657.20001220703125</ele>
        <time>2021-05-09T09:58:16.000Z</time>
        <extensions>
          <ns3:TrackPointExtension>
            <ns3:atemp>18.0</ns3:atemp>
          </ns3:TrackPointExtension>
        </extensions>
      </trkpt>
      <trkpt lat="43.07853142730891704559326171875" lon="12.9856006242334842681884765625">
        <ele>657.5999755859375</ele>
        <time>2021-05-09T09:58:18.000Z</time>
        <extensions>
          <ns3:TrackPointExtension>
            <ns3:atemp>18.0</ns3:atemp>
          </ns3:TrackPointExtension>
        </extensions>
      </trkpt>
      <trkpt lat="43.078579120337963104248046875" lon="12.98564873635768890380859375">
        <ele>658.5999755859375</ele>
        <time>2021-05-09T09:58:21.000Z</time>
        <extensions>
          <ns3:TrackPointExtension>
            <ns3:atemp>18.0</ns3:atemp>
          </ns3:TrackPointExtension>
        </extensions>
      </trkpt>
      <trkpt lat="43.07860870845615863800048828125" lon="12.985694669187068939208984375">
        <ele>659.20001220703125</ele>
        <time>2021-05-09T09:58:23.000Z</time>
        <extensions>
          <ns3:TrackPointExtension>
            <ns3:atemp>18.0</ns3:atemp>
          </ns3:TrackPointExtension>
        </extensions>
      </trkpt>
      <trkpt lat="43.07864491827785968780517578125" lon="12.98575359396636486053466796875">
        <ele>660</ele>
        <time>2021-05-09T09:58:25.000Z</time>
        <extensions>
          <ns3:TrackPointExtension>
            <ns3:atemp>18.0</ns3:atemp>
          </ns3:TrackPointExtension>
        </extensions>
      </trkpt>
      <trkpt lat="43.0787097103893756866455078125" lon="12.9858197271823883056640625">
        <ele>661.5999755859375</ele>
        <time>2021-05-09T09:58:28.000Z</time>
        <extensions>
          <ns3:TrackPointExtension>
            <ns3:atemp>18.0</ns3:atemp>
          </ns3:TrackPointExtension>
        </extensions>
      </trkpt>
      <trkpt lat="43.078724630177021026611328125" lon="12.985847555100917816162109375">
        <ele>662</ele>
        <time>2021-05-09T09:58:29.000Z</time>
        <extensions>
          <ns3:TrackPointExtension>
            <ns3:atemp>18.0</ns3:atemp>
          </ns3:TrackPointExtension>
        </extensions>
      </trkpt>
      <trkpt lat="43.07874231599271297454833984375" lon="12.985909245908260345458984375">
        <ele>662.5999755859375</ele>
        <time>2021-05-09T09:58:31.000Z</time>
        <extensions>
          <ns3:TrackPointExtension>
            <ns3:atemp>18.0</ns3:atemp>
          </ns3:TrackPointExtension>
        </extensions>
      </trkpt>
      <trkpt lat="43.07875740341842174530029296875" lon="12.986008487641811370849609375">
        <ele>663.4000244140625</ele>
        <time>2021-05-09T09:58:34.000Z</time>
        <extensions>
          <ns3:TrackPointExtension>
            <ns3:atemp>18.0</ns3:atemp>
          </ns3:TrackPointExtension>
        </extensions>
      </trkpt>
      <trkpt lat="43.0787636898458003997802734375" lon="12.986040674149990081787109375">
        <ele>663.79998779296875</ele>
        <time>2021-05-09T09:58:35.000Z</time>
        <extensions>
          <ns3:TrackPointExtension>
            <ns3:atemp>18.0</ns3:atemp>
          </ns3:TrackPointExtension>
        </extensions>
      </trkpt>
      <trkpt lat="43.07878355495631694793701171875" lon="12.98607252538204193115234375">
        <ele>664.5999755859375</ele>
        <time>2021-05-09T09:58:36.000Z</time>
        <extensions>
          <ns3:TrackPointExtension>
            <ns3:atemp>18.0</ns3:atemp>
          </ns3:TrackPointExtension>
        </extensions>
      </trkpt>
      <trkpt lat="43.07880886830389499664306640625" lon="12.9860981740057468414306640625">
        <ele>665.20001220703125</ele>
        <time>2021-05-09T09:58:37.000Z</time>
        <extensions>
          <ns3:TrackPointExtension>
            <ns3:atemp>18.0</ns3:atemp>
          </ns3:TrackPointExtension>
        </extensions>
      </trkpt>
      <trkpt lat="43.0788337625563144683837890625" lon="12.986118458211421966552734375">
        <ele>666</ele>
        <time>2021-05-09T09:58:38.000Z</time>
        <extensions>
          <ns3:TrackPointExtension>
            <ns3:atemp>18.0</ns3:atemp>
          </ns3:TrackPointExtension>
        </extensions>
      </trkpt>
      <trkpt lat="43.07886268012225627899169921875" lon="12.98613111488521099090576171875">
        <ele>666.4000244140625</ele>
        <time>2021-05-09T09:58:39.000Z</time>
        <extensions>
          <ns3:TrackPointExtension>
            <ns3:atemp>18.0</ns3:atemp>
          </ns3:TrackPointExtension>
        </extensions>
      </trkpt>
      <trkpt lat="43.0788924358785152435302734375" lon="12.98614067025482654571533203125">
        <ele>666.5999755859375</ele>
        <time>2021-05-09T09:58:40.000Z</time>
        <extensions>
          <ns3:TrackPointExtension>
            <ns3:atemp>18.0</ns3:atemp>
          </ns3:TrackPointExtension>
        </extensions>
      </trkpt>
      <trkpt lat="43.0789708904922008514404296875" lon="12.98616698943078517913818359375">
        <ele>666.79998779296875</ele>
        <time>2021-05-09T09:58:43.000Z</time>
        <extensions>
          <ns3:TrackPointExtension>
            <ns3:atemp>18.0</ns3:atemp>
          </ns3:TrackPointExtension>
        </extensions>
      </trkpt>
      <trkpt lat="43.07898581027984619140625" lon="12.9861826635897159576416015625">
        <ele>666.79998779296875</ele>
        <time>2021-05-09T09:58:44.000Z</time>
        <extensions>
          <ns3:TrackPointExtension>
            <ns3:atemp>18.0</ns3:atemp>
          </ns3:TrackPointExtension>
        </extensions>
      </trkpt>
      <trkpt lat="43.0789745785295963287353515625" lon="12.98624158836901187896728515625">
        <ele>666.79998779296875</ele>
        <time>2021-05-09T09:58:46.000Z</time>
        <extensions>
          <ns3:TrackPointExtension>
            <ns3:atemp>18.0</ns3:atemp>
          </ns3:TrackPointExtension>
        </extensions>
      </trkpt>
      <trkpt lat="43.0789018236100673675537109375" lon="12.986377961933612823486328125">
        <ele>666.20001220703125</ele>
        <time>2021-05-09T09:58:50.000Z</time>
        <extensions>
          <ns3:TrackPointExtension>
            <ns3:atemp>18.0</ns3:atemp>
          </ns3:TrackPointExtension>
        </extensions>
      </trkpt>
      <trkpt lat="43.0788827128708362579345703125" lon="12.9864339530467987060546875">
        <ele>666</ele>
        <time>2021-05-09T09:58:51.000Z</time>
        <extensions>
          <ns3:TrackPointExtension>
            <ns3:atemp>18.0</ns3:atemp>
          </ns3:TrackPointExtension>
        </extensions>
      </trkpt>
      <trkpt lat="43.07885228656232357025146484375" lon="12.986630760133266448974609375">
        <ele>665.79998779296875</ele>
        <time>2021-05-09T09:58:55.000Z</time>
        <extensions>
          <ns3:TrackPointExtension>
            <ns3:atemp>18.0</ns3:atemp>
          </ns3:TrackPointExtension>
        </extensions>
      </trkpt>
      <trkpt lat="43.0788505263626575469970703125" lon="12.98670644871890544891357421875">
        <ele>665.79998779296875</ele>
        <time>2021-05-09T09:58:56.000Z</time>
        <extensions>
          <ns3:TrackPointExtension>
            <ns3:atemp>18.0</ns3:atemp>
          </ns3:TrackPointExtension>
        </extensions>
      </trkpt>
      <trkpt lat="43.07881188578903675079345703125" lon="12.98692689277231693267822265625">
        <ele>665.5999755859375</ele>
        <time>2021-05-09T09:59:00.000Z</time>
        <extensions>
          <ns3:TrackPointExtension>
            <ns3:atemp>18.0</ns3:atemp>
          </ns3:TrackPointExtension>
        </extensions>
      </trkpt>
      <trkpt lat="43.0787874944508075714111328125" lon="12.987041473388671875">
        <ele>665.4000244140625</ele>
        <time>2021-05-09T09:59:03.000Z</time>
        <extensions>
          <ns3:TrackPointExtension>
            <ns3:atemp>18.0</ns3:atemp>
          </ns3:TrackPointExtension>
        </extensions>
      </trkpt>
      <trkpt lat="43.078782297670841217041015625" lon="12.98707969486713409423828125">
        <ele>665.4000244140625</ele>
        <time>2021-05-09T09:59:04.000Z</time>
        <extensions>
          <ns3:TrackPointExtension>
            <ns3:atemp>18.0</ns3:atemp>
          </ns3:TrackPointExtension>
        </extensions>
      </trkpt>
      <trkpt lat="43.078728653490543365478515625" lon="12.98722193576395511627197265625">
        <ele>665.5999755859375</ele>
        <time>2021-05-09T09:59:08.000Z</time>
        <extensions>
          <ns3:TrackPointExtension>
            <ns3:atemp>18.0</ns3:atemp>
          </ns3:TrackPointExtension>
        </extensions>
      </trkpt>
      <trkpt lat="43.0786470137536525726318359375" lon="12.98739376477897167205810546875">
        <ele>666</ele>
        <time>2021-05-09T09:59:13.000Z</time>
        <extensions>
          <ns3:TrackPointExtension>
            <ns3:atemp>18.0</ns3:atemp>
          </ns3:TrackPointExtension>
        </extensions>
      </trkpt>
      <trkpt lat="43.078612647950649261474609375" lon="12.98756576143205165863037109375">
        <ele>666.5999755859375</ele>
        <time>2021-05-09T09:59:17.000Z</time>
        <extensions>
          <ns3:TrackPointExtension>
            <ns3:atemp>18.0</ns3:atemp>
          </ns3:TrackPointExtension>
        </extensions>
      </trkpt>
      <trkpt lat="43.07859278284013271331787109375" lon="12.98778804950416088104248046875">
        <ele>667.5999755859375</ele>
        <time>2021-05-09T09:59:22.000Z</time>
        <extensions>
          <ns3:TrackPointExtension>
            <ns3:atemp>18.0</ns3:atemp>
          </ns3:TrackPointExtension>
        </extensions>
      </trkpt>
      <trkpt lat="43.0785903520882129669189453125" lon="12.9878372512757778167724609375">
        <ele>668</ele>
        <time>2021-05-09T09:59:23.000Z</time>
        <extensions>
          <ns3:TrackPointExtension>
            <ns3:atemp>18.0</ns3:atemp>
          </ns3:TrackPointExtension>
        </extensions>
      </trkpt>
      <trkpt lat="43.07858037762343883514404296875" lon="12.98795543611049652099609375">
        <ele>668.79998779296875</ele>
        <time>2021-05-09T09:59:26.000Z</time>
        <extensions>
          <ns3:TrackPointExtension>
            <ns3:atemp>18.0</ns3:atemp>
          </ns3:TrackPointExtension>
        </extensions>
      </trkpt>
      <trkpt lat="43.0785675533115863800048828125" lon="12.98827285878360271453857421875">
        <ele>669.79998779296875</ele>
        <time>2021-05-09T09:59:33.000Z</time>
        <extensions>
          <ns3:TrackPointExtension>
            <ns3:atemp>18.0</ns3:atemp>
          </ns3:TrackPointExtension>
        </extensions>
      </trkpt>
      <trkpt lat="43.0785692296922206878662109375" lon="12.98854191787540912628173828125">
        <ele>670.79998779296875</ele>
        <time>2021-05-09T09:59:40.000Z</time>
        <extensions>
          <ns3:TrackPointExtension>
            <ns3:atemp>18.0</ns3:atemp>
          </ns3:TrackPointExtension>
        </extensions>
      </trkpt>
      <trkpt lat="43.07856596074998378753662109375" lon="12.98858307301998138427734375">
        <ele>671</ele>
        <time>2021-05-09T09:59:41.000Z</time>
        <extensions>
          <ns3:TrackPointExtension>
            <ns3:atemp>18.0</ns3:atemp>
          </ns3:TrackPointExtension>
        </extensions>
      </trkpt>
      <trkpt lat="43.0785152502357959747314453125" lon="12.9887840710580348968505859375">
        <ele>672</ele>
        <time>2021-05-09T09:59:46.000Z</time>
        <extensions>
          <ns3:TrackPointExtension>
            <ns3:atemp>18.0</ns3:atemp>
          </ns3:TrackPointExtension>
        </extensions>
      </trkpt>
      <trkpt lat="43.0784750171005725860595703125" lon="12.98889731056988239288330078125">
        <ele>672.20001220703125</ele>
        <time>2021-05-09T09:59:49.000Z</time>
        <extensions>
          <ns3:TrackPointExtension>
            <ns3:atemp>18.0</ns3:atemp>
          </ns3:TrackPointExtension>
        </extensions>
      </trkpt>
      <trkpt lat="43.0784686468541622161865234375" lon="12.98902069218456745147705078125">
        <ele>672.4000244140625</ele>
        <time>2021-05-09T09:59:52.000Z</time>
        <extensions>
          <ns3:TrackPointExtension>
            <ns3:atemp>18.0</ns3:atemp>
          </ns3:TrackPointExtension>
        </extensions>
      </trkpt>
      <trkpt lat="43.0784921161830425262451171875" lon="12.9891805350780487060546875">
        <ele>672.5999755859375</ele>
        <time>2021-05-09T09:59:56.000Z</time>
        <extensions>
          <ns3:TrackPointExtension>
            <ns3:atemp>18.0</ns3:atemp>
          </ns3:TrackPointExtension>
        </extensions>
      </trkpt>
      <trkpt lat="43.07850678451359272003173828125" lon="12.98921473324298858642578125">
        <ele>672.79998779296875</ele>
        <time>2021-05-09T09:59:57.000Z</time>
        <extensions>
          <ns3:TrackPointExtension>
            <ns3:atemp>18.0</ns3:atemp>
          </ns3:TrackPointExtension>
        </extensions>
      </trkpt>
      <trkpt lat="43.078571744263172149658203125" lon="12.9893966205418109893798828125">
        <ele>673</ele>
        <time>2021-05-09T10:00:02.000Z</time>
        <extensions>
          <ns3:TrackPointExtension>
            <ns3:atemp>18.0</ns3:atemp>
          </ns3:TrackPointExtension>
        </extensions>
      </trkpt>
      <trkpt lat="43.0785890109837055206298828125" lon="12.98947046510875225067138671875">
        <ele>673.20001220703125</ele>
        <time>2021-05-09T10:00:04.000Z</time>
        <extensions>
          <ns3:TrackPointExtension>
            <ns3:atemp>18.0</ns3:atemp>
          </ns3:TrackPointExtension>
        </extensions>
      </trkpt>
      <trkpt lat="43.07859613560140132904052734375" lon="12.98958546482026576995849609375">
        <ele>673.79998779296875</ele>
        <time>2021-05-09T10:00:07.000Z</time>
        <extensions>
          <ns3:TrackPointExtension>
            <ns3:atemp>18.0</ns3:atemp>
          </ns3:TrackPointExtension>
        </extensions>
      </trkpt>
      <trkpt lat="43.07860602624714374542236328125" lon="12.9897437989711761474609375">
        <ele>674.20001220703125</ele>
        <time>2021-05-09T10:00:11.000Z</time>
        <extensions>
          <ns3:TrackPointExtension>
            <ns3:atemp>18.0</ns3:atemp>
          </ns3:TrackPointExtension>
        </extensions>
      </trkpt>
      <trkpt lat="43.07860619388520717620849609375" lon="12.98979082144796848297119140625">
        <ele>674.4000244140625</ele>
        <time>2021-05-09T10:00:12.000Z</time>
        <extensions>
          <ns3:TrackPointExtension>
            <ns3:atemp>18.0</ns3:atemp>
          </ns3:TrackPointExtension>
        </extensions>
      </trkpt>
      <trkpt lat="43.078596554696559906005859375" lon="12.98996751196682453155517578125">
        <ele>675.4000244140625</ele>
        <time>2021-05-09T10:00:16.000Z</time>
        <extensions>
          <ns3:TrackPointExtension>
            <ns3:atemp>18.0</ns3:atemp>
          </ns3:TrackPointExtension>
        </extensions>
      </trkpt>
      <trkpt lat="43.07859219610691070556640625" lon="12.99001403152942657470703125">
        <ele>675.5999755859375</ele>
        <time>2021-05-09T10:00:17.000Z</time>
        <extensions>
          <ns3:TrackPointExtension>
            <ns3:atemp>18.0</ns3:atemp>
          </ns3:TrackPointExtension>
        </extensions>
      </trkpt>
      <trkpt lat="43.07857903651893138885498046875" lon="12.99030798487365245819091796875">
        <ele>676</ele>
        <time>2021-05-09T10:00:23.000Z</time>
        <extensions>
          <ns3:TrackPointExtension>
            <ns3:atemp>18.0</ns3:atemp>
          </ns3:TrackPointExtension>
        </extensions>
      </trkpt>
      <trkpt lat="43.0785873346030712127685546875" lon="12.99060956574976444244384765625">
        <ele>676.20001220703125</ele>
        <time>2021-05-09T10:00:29.000Z</time>
        <extensions>
          <ns3:TrackPointExtension>
            <ns3:atemp>18.0</ns3:atemp>
          </ns3:TrackPointExtension>
        </extensions>
      </trkpt>
      <trkpt lat="43.07863804511725902557373046875" lon="12.9907849989831447601318359375">
        <ele>676.4000244140625</ele>
        <time>2021-05-09T10:00:33.000Z</time>
        <extensions>
          <ns3:TrackPointExtension>
            <ns3:atemp>18.0</ns3:atemp>
          </ns3:TrackPointExtension>
        </extensions>
      </trkpt>
      <trkpt lat="43.0786584131419658660888671875" lon="12.9908644594252109527587890625">
        <ele>676.5999755859375</ele>
        <time>2021-05-09T10:00:35.000Z</time>
        <extensions>
          <ns3:TrackPointExtension>
            <ns3:atemp>18.0</ns3:atemp>
          </ns3:TrackPointExtension>
        </extensions>
      </trkpt>
      <trkpt lat="43.0787242949008941650390625" lon="12.99104659818112850189208984375">
        <ele>677.20001220703125</ele>
        <time>2021-05-09T10:00:40.000Z</time>
        <extensions>
          <ns3:TrackPointExtension>
            <ns3:atemp>18.0</ns3:atemp>
          </ns3:TrackPointExtension>
        </extensions>
      </trkpt>
      <trkpt lat="43.0787643603980541229248046875" lon="12.9911088757216930389404296875">
        <ele>677.5999755859375</ele>
        <time>2021-05-09T10:00:42.000Z</time>
        <extensions>
          <ns3:TrackPointExtension>
            <ns3:atemp>18.0</ns3:atemp>
          </ns3:TrackPointExtension>
        </extensions>
      </trkpt>
      <trkpt lat="43.07882512919604778289794921875" lon="12.99121993593871593475341796875">
        <ele>678.4000244140625</ele>
        <time>2021-05-09T10:00:45.000Z</time>
        <extensions>
          <ns3:TrackPointExtension>
            <ns3:atemp>18.0</ns3:atemp>
          </ns3:TrackPointExtension>
        </extensions>
      </trkpt>
      <trkpt lat="43.078868798911571502685546875" lon="12.9912936128675937652587890625">
        <ele>679</ele>
        <time>2021-05-09T10:00:47.000Z</time>
        <extensions>
          <ns3:TrackPointExtension>
            <ns3:atemp>18.0</ns3:atemp>
          </ns3:TrackPointExtension>
        </extensions>
      </trkpt>
      <trkpt lat="43.078919760882854461669921875" lon="12.991437278687953948974609375">
        <ele>680</ele>
        <time>2021-05-09T10:00:51.000Z</time>
        <extensions>
          <ns3:TrackPointExtension>
            <ns3:atemp>18.0</ns3:atemp>
          </ns3:TrackPointExtension>
        </extensions>
      </trkpt>
      <trkpt lat="43.07899494655430316925048828125" lon="12.991573400795459747314453125">
        <ele>681.4000244140625</ele>
        <time>2021-05-09T10:00:55.000Z</time>
        <extensions>
          <ns3:TrackPointExtension>
            <ns3:atemp>18.0</ns3:atemp>
          </ns3:TrackPointExtension>
        </extensions>
      </trkpt>
      <trkpt lat="43.0790312401950359344482421875" lon="12.99164213240146636962890625">
        <ele>682.20001220703125</ele>
        <time>2021-05-09T10:00:57.000Z</time>
        <extensions>
          <ns3:TrackPointExtension>
            <ns3:atemp>18.0</ns3:atemp>
          </ns3:TrackPointExtension>
        </extensions>
      </trkpt>
      <trkpt lat="43.079045154154300689697265625" lon="12.9916788451373577117919921875">
        <ele>682.4000244140625</ele>
        <time>2021-05-09T10:00:58.000Z</time>
        <extensions>
          <ns3:TrackPointExtension>
            <ns3:atemp>18.0</ns3:atemp>
          </ns3:TrackPointExtension>
        </extensions>
      </trkpt>
      <trkpt lat="43.07911732234060764312744140625" lon="12.99185947515070438385009765625">
        <ele>683.5999755859375</ele>
        <time>2021-05-09T10:01:03.000Z</time>
        <extensions>
          <ns3:TrackPointExtension>
            <ns3:atemp>18.0</ns3:atemp>
          </ns3:TrackPointExtension>
        </extensions>
      </trkpt>
      <trkpt lat="43.0791883170604705810546875" lon="12.991984784603118896484375">
        <ele>684.79998779296875</ele>
        <time>2021-05-09T10:01:07.000Z</time>
        <extensions>
          <ns3:TrackPointExtension>
            <ns3:atemp>18.0</ns3:atemp>
          </ns3:TrackPointExtension>
        </extensions>
      </trkpt>
      <trkpt lat="43.07922385632991790771484375" lon="12.99204253591597080230712890625">
        <ele>685.5999755859375</ele>
        <time>2021-05-09T10:01:09.000Z</time>
        <extensions>
          <ns3:TrackPointExtension>
            <ns3:atemp>18.0</ns3:atemp>
          </ns3:TrackPointExtension>
        </extensions>
      </trkpt>
      <trkpt lat="43.07924170978367328643798828125" lon="12.99207019619643688201904296875">
        <ele>686</ele>
        <time>2021-05-09T10:01:10.000Z</time>
        <extensions>
          <ns3:TrackPointExtension>
            <ns3:atemp>18.0</ns3:atemp>
          </ns3:TrackPointExtension>
        </extensions>
      </trkpt>
      <trkpt lat="43.07927548885345458984375" lon="12.9921609722077846527099609375">
        <ele>687.20001220703125</ele>
        <time>2021-05-09T10:01:13.000Z</time>
        <extensions>
          <ns3:TrackPointExtension>
            <ns3:atemp>18.0</ns3:atemp>
          </ns3:TrackPointExtension>
        </extensions>
      </trkpt>
      <trkpt lat="43.0793105252087116241455078125" lon="12.9922628961503505706787109375">
        <ele>689</ele>
        <time>2021-05-09T10:01:16.000Z</time>
        <extensions>
          <ns3:TrackPointExtension>
            <ns3:atemp>18.0</ns3:atemp>
          </ns3:TrackPointExtension>
        </extensions>
      </trkpt>
      <trkpt lat="43.0793293006718158721923828125" lon="12.9923312924802303314208984375">
        <ele>690.4000244140625</ele>
        <time>2021-05-09T10:01:18.000Z</time>
        <extensions>
          <ns3:TrackPointExtension>
            <ns3:atemp>18.0</ns3:atemp>
          </ns3:TrackPointExtension>
        </extensions>
      </trkpt>
      <trkpt lat="43.07935084216296672821044921875" lon="12.99239222891628742218017578125">
        <ele>691.5999755859375</ele>
        <time>2021-05-09T10:01:20.000Z</time>
        <extensions>
          <ns3:TrackPointExtension>
            <ns3:atemp>18.0</ns3:atemp>
          </ns3:TrackPointExtension>
        </extensions>
      </trkpt>
      <trkpt lat="43.0793832801282405853271484375" lon="12.99248241819441318511962890625">
        <ele>692.79998779296875</ele>
        <time>2021-05-09T10:01:23.000Z</time>
        <extensions>
          <ns3:TrackPointExtension>
            <ns3:atemp>18.0</ns3:atemp>
          </ns3:TrackPointExtension>
        </extensions>
      </trkpt>
      <trkpt lat="43.07939409278333187103271484375" lon="12.99251108430325984954833984375">
        <ele>693.20001220703125</ele>
        <time>2021-05-09T10:01:24.000Z</time>
        <extensions>
          <ns3:TrackPointExtension>
            <ns3:atemp>18.0</ns3:atemp>
          </ns3:TrackPointExtension>
        </extensions>
      </trkpt>
      <trkpt lat="43.07943080551922321319580078125" lon="12.9925914667546749114990234375">
        <ele>694</ele>
        <time>2021-05-09T10:01:27.000Z</time>
        <extensions>
          <ns3:TrackPointExtension>
            <ns3:atemp>18.0</ns3:atemp>
          </ns3:TrackPointExtension>
        </extensions>
      </trkpt>
      <trkpt lat="43.079471625387668609619140625" lon="12.99271878786385059356689453125">
        <ele>695</ele>
        <time>2021-05-09T10:01:31.000Z</time>
        <extensions>
          <ns3:TrackPointExtension>
            <ns3:atemp>18.0</ns3:atemp>
          </ns3:TrackPointExtension>
        </extensions>
      </trkpt>
      <trkpt lat="43.0794805102050304412841796875" lon="12.99275466240942478179931640625">
        <ele>695.20001220703125</ele>
        <time>2021-05-09T10:01:32.000Z</time>
        <extensions>
          <ns3:TrackPointExtension>
            <ns3:atemp>18.0</ns3:atemp>
          </ns3:TrackPointExtension>
        </extensions>
      </trkpt>
      <trkpt lat="43.07950657792389392852783203125" lon="12.99285289831459522247314453125">
        <ele>696.20001220703125</ele>
        <time>2021-05-09T10:01:35.000Z</time>
        <extensions>
          <ns3:TrackPointExtension>
            <ns3:atemp>18.0</ns3:atemp>
          </ns3:TrackPointExtension>
        </extensions>
      </trkpt>
      <trkpt lat="43.079526610672473907470703125" lon="12.99291224218904972076416015625">
        <ele>696.5999755859375</ele>
        <time>2021-05-09T10:01:37.000Z</time>
        <extensions>
          <ns3:TrackPointExtension>
            <ns3:atemp>18.0</ns3:atemp>
          </ns3:TrackPointExtension>
        </extensions>
      </trkpt>
      <trkpt lat="43.07961889542639255523681640625" lon="12.9930591769516468048095703125">
        <ele>697.20001220703125</ele>
        <time>2021-05-09T10:01:43.000Z</time>
        <extensions>
          <ns3:TrackPointExtension>
            <ns3:atemp>18.0</ns3:atemp>
          </ns3:TrackPointExtension>
        </extensions>
      </trkpt>
      <trkpt lat="43.0796496570110321044921875" lon="12.993106953799724578857421875">
        <ele>697.4000244140625</ele>
        <time>2021-05-09T10:01:45.000Z</time>
        <extensions>
          <ns3:TrackPointExtension>
            <ns3:atemp>18.0</ns3:atemp>
          </ns3:TrackPointExtension>
        </extensions>
      </trkpt>
      <trkpt lat="43.0797202326357364654541015625" lon="12.99319504760205745697021484375">
        <ele>698.5999755859375</ele>
        <time>2021-05-09T10:01:49.000Z</time>
        <extensions>
          <ns3:TrackPointExtension>
            <ns3:atemp>18.0</ns3:atemp>
          </ns3:TrackPointExtension>
        </extensions>
      </trkpt>
      <trkpt lat="43.0797711946070194244384765625" lon="12.99325816333293914794921875">
        <ele>699.79998779296875</ele>
        <time>2021-05-09T10:01:52.000Z</time>
        <extensions>
          <ns3:TrackPointExtension>
            <ns3:atemp>18.0</ns3:atemp>
          </ns3:TrackPointExtension>
        </extensions>
      </trkpt>
      <trkpt lat="43.07980748824775218963623046875" lon="12.99334022216498851776123046875">
        <ele>701.20001220703125</ele>
        <time>2021-05-09T10:01:55.000Z</time>
        <extensions>
          <ns3:TrackPointExtension>
            <ns3:atemp>18.0</ns3:atemp>
          </ns3:TrackPointExtension>
        </extensions>
      </trkpt>
      <trkpt lat="43.0798295326530933380126953125" lon="12.99343477003276348114013671875">
        <ele>702.20001220703125</ele>
        <time>2021-05-09T10:01:58.000Z</time>
        <extensions>
          <ns3:TrackPointExtension>
            <ns3:atemp>18.0</ns3:atemp>
          </ns3:TrackPointExtension>
        </extensions>
      </trkpt>
      <trkpt lat="43.0798695981502532958984375" lon="12.9935191757977008819580078125">
        <ele>703.79998779296875</ele>
        <time>2021-05-09T10:02:01.000Z</time>
        <extensions>
          <ns3:TrackPointExtension>
            <ns3:atemp>18.0</ns3:atemp>
          </ns3:TrackPointExtension>
        </extensions>
      </trkpt>
      <trkpt lat="43.079910166561603546142578125" lon="12.993565611541271209716796875">
        <ele>705</ele>
        <time>2021-05-09T10:02:03.000Z</time>
        <extensions>
          <ns3:TrackPointExtension>
            <ns3:atemp>18.0</ns3:atemp>
          </ns3:TrackPointExtension>
        </extensions>
      </trkpt>
      <trkpt lat="43.0799592845141887664794921875" lon="12.99364163540303707122802734375">
        <ele>706.20001220703125</ele>
        <time>2021-05-09T10:02:06.000Z</time>
        <extensions>
          <ns3:TrackPointExtension>
            <ns3:atemp>18.0</ns3:atemp>
          </ns3:TrackPointExtension>
        </extensions>
      </trkpt>
      <trkpt lat="43.07997261174023151397705078125" lon="12.99366896040737628936767578125">
        <ele>706.20001220703125</ele>
        <time>2021-05-09T10:02:07.000Z</time>
        <extensions>
          <ns3:TrackPointExtension>
            <ns3:atemp>18.0</ns3:atemp>
          </ns3:TrackPointExtension>
        </extensions>
      </trkpt>
      <trkpt lat="43.08002558536827564239501953125" lon="12.99377507530152797698974609375">
        <ele>707.4000244140625</ele>
        <time>2021-05-09T10:02:11.000Z</time>
        <extensions>
          <ns3:TrackPointExtension>
            <ns3:atemp>18.0</ns3:atemp>
          </ns3:TrackPointExtension>
        </extensions>
      </trkpt>
      <trkpt lat="43.0800491385161876678466796875" lon="12.9938608221709728240966796875">
        <ele>708.79998779296875</ele>
        <time>2021-05-09T10:02:14.000Z</time>
        <extensions>
          <ns3:TrackPointExtension>
            <ns3:atemp>18.0</ns3:atemp>
          </ns3:TrackPointExtension>
        </extensions>
      </trkpt>
      <trkpt lat="43.0800980888307094573974609375" lon="12.99396467395126819610595703125">
        <ele>709.79998779296875</ele>
        <time>2021-05-09T10:02:18.000Z</time>
        <extensions>
          <ns3:TrackPointExtension>
            <ns3:atemp>18.0</ns3:atemp>
          </ns3:TrackPointExtension>
        </extensions>
      </trkpt>
      <trkpt lat="43.080142848193645477294921875" lon="12.994033992290496826171875">
        <ele>710.5999755859375</ele>
        <time>2021-05-09T10:02:21.000Z</time>
        <extensions>
          <ns3:TrackPointExtension>
            <ns3:atemp>18.0</ns3:atemp>
          </ns3:TrackPointExtension>
        </extensions>
      </trkpt>
      <trkpt lat="43.080156259238719940185546875" lon="12.99405477941036224365234375">
        <ele>710.79998779296875</ele>
        <time>2021-05-09T10:02:22.000Z</time>
        <extensions>
          <ns3:TrackPointExtension>
            <ns3:atemp>18.0</ns3:atemp>
          </ns3:TrackPointExtension>
        </extensions>
      </trkpt>
      <trkpt lat="43.08021618984639644622802734375" lon="12.99413482658565044403076171875">
        <ele>712.20001220703125</ele>
        <time>2021-05-09T10:02:26.000Z</time>
        <extensions>
          <ns3:TrackPointExtension>
            <ns3:atemp>18.0</ns3:atemp>
          </ns3:TrackPointExtension>
        </extensions>
      </trkpt>
      <trkpt lat="43.08025457896292209625244140625" lon="12.9942091740667819976806640625">
        <ele>713.4000244140625</ele>
        <time>2021-05-09T10:02:29.000Z</time>
        <extensions>
          <ns3:TrackPointExtension>
            <ns3:atemp>18.0</ns3:atemp>
          </ns3:TrackPointExtension>
        </extensions>
      </trkpt>
      <trkpt lat="43.08025784790515899658203125" lon="12.99423993565142154693603515625">
        <ele>713.5999755859375</ele>
        <time>2021-05-09T10:02:30.000Z</time>
        <extensions>
          <ns3:TrackPointExtension>
            <ns3:atemp>18.0</ns3:atemp>
          </ns3:TrackPointExtension>
        </extensions>
      </trkpt>
      <trkpt lat="43.0802479572594165802001953125" lon="12.99430665560066699981689453125">
        <ele>714.5999755859375</ele>
        <time>2021-05-09T10:02:32.000Z</time>
        <extensions>
          <ns3:TrackPointExtension>
            <ns3:atemp>18.0</ns3:atemp>
          </ns3:TrackPointExtension>
        </extensions>
      </trkpt>
      <trkpt lat="43.08024452067911624908447265625" lon="12.99434001557528972625732421875">
        <ele>715.20001220703125</ele>
        <time>2021-05-09T10:02:33.000Z</time>
        <extensions>
          <ns3:TrackPointExtension>
            <ns3:atemp>18.0</ns3:atemp>
          </ns3:TrackPointExtension>
        </extensions>
      </trkpt>
      <trkpt lat="43.08024552650749683380126953125" lon="12.9943744651973247528076171875">
        <ele>715.5999755859375</ele>
        <time>2021-05-09T10:02:34.000Z</time>
        <extensions>
          <ns3:TrackPointExtension>
            <ns3:atemp>18.0</ns3:atemp>
          </ns3:TrackPointExtension>
        </extensions>
      </trkpt>
      <trkpt lat="43.08026790618896484375" lon="12.9944676719605922698974609375">
        <ele>717</ele>
        <time>2021-05-09T10:02:37.000Z</time>
        <extensions>
          <ns3:TrackPointExtension>
            <ns3:atemp>18.0</ns3:atemp>
          </ns3:TrackPointExtension>
        </extensions>
      </trkpt>
      <trkpt lat="43.08028039522469043731689453125" lon="12.99449994228780269622802734375">
        <ele>717.20001220703125</ele>
        <time>2021-05-09T10:02:38.000Z</time>
        <extensions>
          <ns3:TrackPointExtension>
            <ns3:atemp>18.0</ns3:atemp>
          </ns3:TrackPointExtension>
        </extensions>
      </trkpt>
      <trkpt lat="43.08031509630382061004638671875" lon="12.99458929337561130523681640625">
        <ele>718</ele>
        <time>2021-05-09T10:02:41.000Z</time>
        <extensions>
          <ns3:TrackPointExtension>
            <ns3:atemp>18.0</ns3:atemp>
          </ns3:TrackPointExtension>
        </extensions>
      </trkpt>
      <trkpt lat="43.0803549103438854217529296875" lon="12.994677387177944183349609375">
        <ele>719.20001220703125</ele>
        <time>2021-05-09T10:02:44.000Z</time>
        <extensions>
          <ns3:TrackPointExtension>
            <ns3:atemp>18.0</ns3:atemp>
          </ns3:TrackPointExtension>
        </extensions>
      </trkpt>
      <trkpt lat="43.08042925782501697540283203125" lon="12.9948723502457141876220703125">
        <ele>720.4000244140625</ele>
        <time>2021-05-09T10:02:51.000Z</time>
        <extensions>
          <ns3:TrackPointExtension>
            <ns3:atemp>18.0</ns3:atemp>
          </ns3:TrackPointExtension>
        </extensions>
      </trkpt>
      <trkpt lat="43.0804524756968021392822265625" lon="12.99495340324938297271728515625">
        <ele>721.4000244140625</ele>
        <time>2021-05-09T10:02:56.000Z</time>
        <extensions>
          <ns3:TrackPointExtension>
            <ns3:atemp>18.0</ns3:atemp>
          </ns3:TrackPointExtension>
        </extensions>
      </trkpt>
      <trkpt lat="43.08044216595590114593505859375" lon="12.9949588514864444732666015625">
        <ele>722.5999755859375</ele>
        <time>2021-05-09T10:03:02.000Z</time>
        <extensions>
          <ns3:TrackPointExtension>
            <ns3:atemp>18.0</ns3:atemp>
          </ns3:TrackPointExtension>
        </extensions>
      </trkpt>
      <trkpt lat="43.080453313887119293212890625" lon="12.99501190893352031707763671875">
        <ele>722.79998779296875</ele>
        <time>2021-05-09T10:03:10.000Z</time>
        <extensions>
          <ns3:TrackPointExtension>
            <ns3:atemp>18.0</ns3:atemp>
          </ns3:TrackPointExtension>
        </extensions>
      </trkpt>
      <trkpt lat="43.08048374019563198089599609375" lon="12.99510360695421695709228515625">
        <ele>723</ele>
        <time>2021-05-09T10:03:14.000Z</time>
        <extensions>
          <ns3:TrackPointExtension>
            <ns3:atemp>19.0</ns3:atemp>
          </ns3:TrackPointExtension>
        </extensions>
      </trkpt>
      <trkpt lat="43.08048038743436336517333984375" lon="12.9951127432286739349365234375">
        <ele>723</ele>
        <time>2021-05-09T10:03:15.000Z</time>
        <extensions>
          <ns3:TrackPointExtension>
            <ns3:atemp>19.0</ns3:atemp>
          </ns3:TrackPointExtension>
        </extensions>
      </trkpt>
      <trkpt lat="43.0804769508540630340576171875" lon="12.99511081539094448089599609375">
        <ele>723.5999755859375</ele>
        <time>2021-05-09T10:03:20.000Z</time>
        <extensions>
          <ns3:TrackPointExtension>
            <ns3:atemp>19.0</ns3:atemp>
          </ns3:TrackPointExtension>
        </extensions>
      </trkpt>
      <trkpt lat="43.08047569356858730316162109375" lon="12.99510595388710498809814453125">
        <ele>724</ele>
        <time>2021-05-09T10:03:21.000Z</time>
        <extensions>
          <ns3:TrackPointExtension>
            <ns3:atemp>19.0</ns3:atemp>
          </ns3:TrackPointExtension>
        </extensions>
      </trkpt>
      <trkpt lat="43.08047871105372905731201171875" lon="12.9951140843331813812255859375">
        <ele>724.79998779296875</ele>
        <time>2021-05-09T10:03:23.000Z</time>
        <extensions>
          <ns3:TrackPointExtension>
            <ns3:atemp>19.0</ns3:atemp>
          </ns3:TrackPointExtension>
        </extensions>
      </trkpt>
      <trkpt lat="43.08048659004271030426025390625" lon="12.99511970020830631256103515625">
        <ele>725</ele>
        <time>2021-05-09T10:03:28.000Z</time>
        <extensions>
          <ns3:TrackPointExtension>
            <ns3:atemp>19.0</ns3:atemp>
          </ns3:TrackPointExtension>
        </extensions>
      </trkpt>
      <trkpt lat="43.0804883502423763275146484375" lon="12.99515171907842159271240234375">
        <ele>725.20001220703125</ele>
        <time>2021-05-09T10:03:36.000Z</time>
        <extensions>
          <ns3:TrackPointExtension>
            <ns3:atemp>19.0</ns3:atemp>
          </ns3:TrackPointExtension>
        </extensions>
      </trkpt>
      <trkpt lat="43.08051626197993755340576171875" lon="12.995198071002960205078125">
        <ele>725.5999755859375</ele>
        <time>2021-05-09T10:03:43.000Z</time>
        <extensions>
          <ns3:TrackPointExtension>
            <ns3:atemp>19.0</ns3:atemp>
          </ns3:TrackPointExtension>
        </extensions>
      </trkpt>
      <trkpt lat="43.08053839020431041717529296875" lon="12.99523402936756610870361328125">
        <ele>725.79998779296875</ele>
        <time>2021-05-09T10:03:45.000Z</time>
        <extensions>
          <ns3:TrackPointExtension>
            <ns3:atemp>19.0</ns3:atemp>
          </ns3:TrackPointExtension>
        </extensions>
      </trkpt>
      <trkpt lat="43.0805560760200023651123046875" lon="12.99525531940162181854248046875">
        <ele>725.79998779296875</ele>
        <time>2021-05-09T10:03:46.000Z</time>
        <extensions>
          <ns3:TrackPointExtension>
            <ns3:atemp>19.0</ns3:atemp>
          </ns3:TrackPointExtension>
        </extensions>
      </trkpt>
      <trkpt lat="43.080573342740535736083984375" lon="12.99527811817824840545654296875">
        <ele>726</ele>
        <time>2021-05-09T10:03:47.000Z</time>
        <extensions>
          <ns3:TrackPointExtension>
            <ns3:atemp>19.0</ns3:atemp>
          </ns3:TrackPointExtension>
        </extensions>
      </trkpt>
      <trkpt lat="43.08062723837792873382568359375" lon="12.9953890107572078704833984375">
        <ele>726.5999755859375</ele>
        <time>2021-05-09T10:03:51.000Z</time>
        <extensions>
          <ns3:TrackPointExtension>
            <ns3:atemp>19.0</ns3:atemp>
          </ns3:TrackPointExtension>
        </extensions>
      </trkpt>
      <trkpt lat="43.08065439574420452117919921875" lon="12.9954527132213115692138671875">
        <ele>726.79998779296875</ele>
        <time>2021-05-09T10:03:53.000Z</time>
        <extensions>
          <ns3:TrackPointExtension>
            <ns3:atemp>19.0</ns3:atemp>
          </ns3:TrackPointExtension>
        </extensions>
      </trkpt>
      <trkpt lat="43.08070401661098003387451171875" lon="12.9955385439097881317138671875">
        <ele>728</ele>
        <time>2021-05-09T10:03:56.000Z</time>
        <extensions>
          <ns3:TrackPointExtension>
            <ns3:atemp>19.0</ns3:atemp>
          </ns3:TrackPointExtension>
        </extensions>
      </trkpt>
      <trkpt lat="43.080755062401294708251953125" lon="12.99562026746571063995361328125">
        <ele>729.5999755859375</ele>
        <time>2021-05-09T10:03:59.000Z</time>
        <extensions>
          <ns3:TrackPointExtension>
            <ns3:atemp>19.0</ns3:atemp>
          </ns3:TrackPointExtension>
        </extensions>
      </trkpt>
      <trkpt lat="43.08080501854419708251953125" lon="12.99570173956453800201416015625">
        <ele>731.20001220703125</ele>
        <time>2021-05-09T10:04:02.000Z</time>
        <extensions>
          <ns3:TrackPointExtension>
            <ns3:atemp>19.0</ns3:atemp>
          </ns3:TrackPointExtension>
        </extensions>
      </trkpt>
      <trkpt lat="43.08084868825972080230712890625" lon="12.995825707912445068359375">
        <ele>732.4000244140625</ele>
        <time>2021-05-09T10:04:05.000Z</time>
        <extensions>
          <ns3:TrackPointExtension>
            <ns3:atemp>19.0</ns3:atemp>
          </ns3:TrackPointExtension>
        </extensions>
      </trkpt>
      <trkpt lat="43.0808799527585506439208984375" lon="12.99595512449741363525390625">
        <ele>734</ele>
        <time>2021-05-09T10:04:08.000Z</time>
        <extensions>
          <ns3:TrackPointExtension>
            <ns3:atemp>19.0</ns3:atemp>
          </ns3:TrackPointExtension>
        </extensions>
      </trkpt>
      <trkpt lat="43.0808893404901027679443359375" lon="12.99600315280258655548095703125">
        <ele>734.4000244140625</ele>
        <time>2021-05-09T10:04:09.000Z</time>
        <extensions>
          <ns3:TrackPointExtension>
            <ns3:atemp>19.0</ns3:atemp>
          </ns3:TrackPointExtension>
        </extensions>
      </trkpt>
      <trkpt lat="43.08091322891414165496826171875" lon="12.99609686248004436492919921875">
        <ele>735.20001220703125</ele>
        <time>2021-05-09T10:04:11.000Z</time>
        <extensions>
          <ns3:TrackPointExtension>
            <ns3:atemp>19.0</ns3:atemp>
          </ns3:TrackPointExtension>
        </extensions>
      </trkpt>
      <trkpt lat="43.0809315852820873260498046875" lon="12.99619392491877079010009765625">
        <ele>736.20001220703125</ele>
        <time>2021-05-09T10:04:13.000Z</time>
        <extensions>
          <ns3:TrackPointExtension>
            <ns3:atemp>19.0</ns3:atemp>
          </ns3:TrackPointExtension>
        </extensions>
      </trkpt>
      <trkpt lat="43.080922700464725494384765625" lon="12.99628637731075286865234375">
        <ele>736.79998779296875</ele>
        <time>2021-05-09T10:04:15.000Z</time>
        <extensions>
          <ns3:TrackPointExtension>
            <ns3:atemp>19.0</ns3:atemp>
          </ns3:TrackPointExtension>
        </extensions>
      </trkpt>
      <trkpt lat="43.08088724501430988311767578125" lon="12.99640028737485408782958984375">
        <ele>737.4000244140625</ele>
        <time>2021-05-09T10:04:18.000Z</time>
        <extensions>
          <ns3:TrackPointExtension>
            <ns3:atemp>19.0</ns3:atemp>
          </ns3:TrackPointExtension>
        </extensions>
      </trkpt>
      <trkpt lat="43.08082505129277706146240234375" lon="12.99650874920189380645751953125">
        <ele>738</ele>
        <time>2021-05-09T10:04:21.000Z</time>
        <extensions>
          <ns3:TrackPointExtension>
            <ns3:atemp>19.0</ns3:atemp>
          </ns3:TrackPointExtension>
        </extensions>
      </trkpt>
      <trkpt lat="43.0807280726730823516845703125" lon="12.9966928996145725250244140625">
        <ele>738.20001220703125</ele>
        <time>2021-05-09T10:04:26.000Z</time>
        <extensions>
          <ns3:TrackPointExtension>
            <ns3:atemp>19.0</ns3:atemp>
          </ns3:TrackPointExtension>
        </extensions>
      </trkpt>
      <trkpt lat="43.08072455227375030517578125" lon="12.99673221074044704437255859375">
        <ele>738</ele>
        <time>2021-05-09T10:04:31.000Z</time>
        <extensions>
          <ns3:TrackPointExtension>
            <ns3:atemp>19.0</ns3:atemp>
          </ns3:TrackPointExtension>
        </extensions>
      </trkpt>
      <trkpt lat="43.08072446845471858978271484375" lon="12.99673472531139850616455078125">
        <ele>738</ele>
        <time>2021-05-09T10:05:03.000Z</time>
        <extensions>
          <ns3:TrackPointExtension>
            <ns3:atemp>19.0</ns3:atemp>
          </ns3:TrackPointExtension>
        </extensions>
      </trkpt>
      <trkpt lat="43.08072463609278202056884765625" lon="12.9967390000820159912109375">
        <ele>737.5999755859375</ele>
        <time>2021-05-09T10:06:02.000Z</time>
        <extensions>
          <ns3:TrackPointExtension>
            <ns3:atemp>20.0</ns3:atemp>
          </ns3:TrackPointExtension>
        </extensions>
      </trkpt>
      <trkpt lat="43.0807247199118137359619140625" lon="12.99673967063426971435546875">
        <ele>737.5999755859375</ele>
        <time>2021-05-09T10:06:08.000Z</time>
        <extensions>
          <ns3:TrackPointExtension>
            <ns3:atemp>20.0</ns3:atemp>
          </ns3:TrackPointExtension>
        </extensions>
      </trkpt>
      <trkpt lat="43.080719523131847381591796875" lon="12.99678149633109569549560546875">
        <ele>738</ele>
        <time>2021-05-09T10:06:37.000Z</time>
        <extensions>
          <ns3:TrackPointExtension>
            <ns3:atemp>20.0</ns3:atemp>
          </ns3:TrackPointExtension>
        </extensions>
      </trkpt>
      <trkpt lat="43.08071373961865901947021484375" lon="12.9968216456472873687744140625">
        <ele>738</ele>
        <time>2021-05-09T10:06:43.000Z</time>
        <extensions>
          <ns3:TrackPointExtension>
            <ns3:atemp>20.0</ns3:atemp>
          </ns3:TrackPointExtension>
        </extensions>
      </trkpt>
      <trkpt lat="43.080721199512481689453125" lon="12.9968266747891902923583984375">
        <ele>738</ele>
        <time>2021-05-09T10:06:51.000Z</time>
        <extensions>
          <ns3:TrackPointExtension>
            <ns3:atemp>20.0</ns3:atemp>
          </ns3:TrackPointExtension>
        </extensions>
      </trkpt>
      <trkpt lat="43.08072187006473541259765625" lon="12.99686975777149200439453125">
        <ele>737.5999755859375</ele>
        <time>2021-05-09T10:07:02.000Z</time>
        <extensions>
          <ns3:TrackPointExtension>
            <ns3:atemp>21.0</ns3:atemp>
          </ns3:TrackPointExtension>
        </extensions>
      </trkpt>
      <trkpt lat="43.08075078763067722320556640625" lon="12.9970285110175609588623046875">
        <ele>737.5999755859375</ele>
        <time>2021-05-09T10:07:06.000Z</time>
        <extensions>
          <ns3:TrackPointExtension>
            <ns3:atemp>21.0</ns3:atemp>
          </ns3:TrackPointExtension>
        </extensions>
      </trkpt>
      <trkpt lat="43.08078632690012454986572265625" lon="12.99714812077581882476806640625">
        <ele>737.4000244140625</ele>
        <time>2021-05-09T10:07:08.000Z</time>
        <extensions>
          <ns3:TrackPointExtension>
            <ns3:atemp>21.0</ns3:atemp>
          </ns3:TrackPointExtension>
        </extensions>
      </trkpt>
      <trkpt lat="43.08081080205738544464111328125" lon="12.99721199087798595428466796875">
        <ele>737.4000244140625</ele>
        <time>2021-05-09T10:07:09.000Z</time>
        <extensions>
          <ns3:TrackPointExtension>
            <ns3:atemp>21.0</ns3:atemp>
          </ns3:TrackPointExtension>
        </extensions>
      </trkpt>
      <trkpt lat="43.080874420702457427978515625" lon="12.9973346181213855743408203125">
        <ele>737.20001220703125</ele>
        <time>2021-05-09T10:07:11.000Z</time>
        <extensions>
          <ns3:TrackPointExtension>
            <ns3:atemp>21.0</ns3:atemp>
          </ns3:TrackPointExtension>
        </extensions>
      </trkpt>
      <trkpt lat="43.08091524057090282440185546875" lon="12.99739136360585689544677734375">
        <ele>737</ele>
        <time>2021-05-09T10:07:12.000Z</time>
        <extensions>
          <ns3:TrackPointExtension>
            <ns3:atemp>21.0</ns3:atemp>
          </ns3:TrackPointExtension>
        </extensions>
      </trkpt>
      <trkpt lat="43.0810040049254894256591796875" lon="12.99748758785426616668701171875">
        <ele>735.79998779296875</ele>
        <time>2021-05-09T10:07:14.000Z</time>
        <extensions>
          <ns3:TrackPointExtension>
            <ns3:atemp>21.0</ns3:atemp>
          </ns3:TrackPointExtension>
        </extensions>
      </trkpt>
      <trkpt lat="43.0810361914336681365966796875" lon="12.997527904808521270751953125">
        <ele>735</ele>
        <time>2021-05-09T10:07:15.000Z</time>
        <extensions>
          <ns3:TrackPointExtension>
            <ns3:atemp>21.0</ns3:atemp>
          </ns3:TrackPointExtension>
        </extensions>
      </trkpt>
      <trkpt lat="43.08106376789510250091552734375" lon="12.9975632764399051666259765625">
        <ele>734.20001220703125</ele>
        <time>2021-05-09T10:07:16.000Z</time>
        <extensions>
          <ns3:TrackPointExtension>
            <ns3:atemp>21.0</ns3:atemp>
          </ns3:TrackPointExtension>
        </extensions>
      </trkpt>
      <trkpt lat="43.081123866140842437744140625" lon="12.997638881206512451171875">
        <ele>732.5999755859375</ele>
        <time>2021-05-09T10:07:18.000Z</time>
        <extensions>
          <ns3:TrackPointExtension>
            <ns3:atemp>21.0</ns3:atemp>
          </ns3:TrackPointExtension>
        </extensions>
      </trkpt>
      <trkpt lat="43.081186898052692413330078125" lon="12.99771465361118316650390625">
        <ele>731.20001220703125</ele>
        <time>2021-05-09T10:07:20.000Z</time>
        <extensions>
          <ns3:TrackPointExtension>
            <ns3:atemp>21.0</ns3:atemp>
          </ns3:TrackPointExtension>
        </extensions>
      </trkpt>
      <trkpt lat="43.08123794384300708770751953125" lon="12.997800149023532867431640625">
        <ele>731</ele>
        <time>2021-05-09T10:07:22.000Z</time>
        <extensions>
          <ns3:TrackPointExtension>
            <ns3:atemp>21.0</ns3:atemp>
          </ns3:TrackPointExtension>
        </extensions>
      </trkpt>
      <trkpt lat="43.08127566240727901458740234375" lon="12.99785035662353038787841796875">
        <ele>730.79998779296875</ele>
        <time>2021-05-09T10:07:23.000Z</time>
        <extensions>
          <ns3:TrackPointExtension>
            <ns3:atemp>21.0</ns3:atemp>
          </ns3:TrackPointExtension>
        </extensions>
      </trkpt>
      <trkpt lat="43.08136601932346820831298828125" lon="12.9979639314115047454833984375">
        <ele>730.5999755859375</ele>
        <time>2021-05-09T10:07:25.000Z</time>
        <extensions>
          <ns3:TrackPointExtension>
            <ns3:atemp>21.0</ns3:atemp>
          </ns3:TrackPointExtension>
        </extensions>
      </trkpt>
      <trkpt lat="43.081459812819957733154296875" lon="12.99810164608061313629150390625">
        <ele>730.20001220703125</ele>
        <time>2021-05-09T10:07:27.000Z</time>
        <extensions>
          <ns3:TrackPointExtension>
            <ns3:atemp>21.0</ns3:atemp>
          </ns3:TrackPointExtension>
        </extensions>
      </trkpt>
      <trkpt lat="43.08167112059891223907470703125" lon="12.998406998813152313232421875">
        <ele>729.4000244140625</ele>
        <time>2021-05-09T10:07:32.000Z</time>
        <extensions>
          <ns3:TrackPointExtension>
            <ns3:atemp>21.0</ns3:atemp>
          </ns3:TrackPointExtension>
        </extensions>
      </trkpt>
      <trkpt lat="43.08170783333480358123779296875" lon="12.99843055196106433868408203125">
        <ele>728.4000244140625</ele>
        <time>2021-05-09T10:07:33.000Z</time>
        <extensions>
          <ns3:TrackPointExtension>
            <ns3:atemp>21.0</ns3:atemp>
          </ns3:TrackPointExtension>
        </extensions>
      </trkpt>
      <trkpt lat="43.08176315389573574066162109375" lon="12.99846692942082881927490234375">
        <ele>727.4000244140625</ele>
        <time>2021-05-09T10:07:35.000Z</time>
        <extensions>
          <ns3:TrackPointExtension>
            <ns3:atemp>21.0</ns3:atemp>
          </ns3:TrackPointExtension>
        </extensions>
      </trkpt>
      <trkpt lat="43.08178612031042575836181640625" lon="12.9984933324158191680908203125">
        <ele>727.4000244140625</ele>
        <time>2021-05-09T10:07:36.000Z</time>
        <extensions>
          <ns3:TrackPointExtension>
            <ns3:atemp>21.0</ns3:atemp>
          </ns3:TrackPointExtension>
        </extensions>
      </trkpt>
      <trkpt lat="43.08179835788905620574951171875" lon="12.9985302127897739410400390625">
        <ele>727.20001220703125</ele>
        <time>2021-05-09T10:07:37.000Z</time>
        <extensions>
          <ns3:TrackPointExtension>
            <ns3:atemp>21.0</ns3:atemp>
          </ns3:TrackPointExtension>
        </extensions>
      </trkpt>
      <trkpt lat="43.08182828128337860107421875" lon="12.99859819002449512481689453125">
        <ele>727.20001220703125</ele>
        <time>2021-05-09T10:07:39.000Z</time>
        <extensions>
          <ns3:TrackPointExtension>
            <ns3:atemp>21.0</ns3:atemp>
          </ns3:TrackPointExtension>
        </extensions>
      </trkpt>
      <trkpt lat="43.08187496848404407501220703125" lon="12.99866608344018459320068359375">
        <ele>727.20001220703125</ele>
        <time>2021-05-09T10:07:41.000Z</time>
        <extensions>
          <ns3:TrackPointExtension>
            <ns3:atemp>21.0</ns3:atemp>
          </ns3:TrackPointExtension>
        </extensions>
      </trkpt>
      <trkpt lat="43.0819702707231044769287109375" lon="12.9987930692732334136962890625">
        <ele>727.5999755859375</ele>
        <time>2021-05-09T10:07:44.000Z</time>
        <extensions>
          <ns3:TrackPointExtension>
            <ns3:atemp>21.0</ns3:atemp>
          </ns3:TrackPointExtension>
        </extensions>
      </trkpt>
      <trkpt lat="43.08204914443194866180419921875" lon="12.99891133792698383331298828125">
        <ele>728.5999755859375</ele>
        <time>2021-05-09T10:07:47.000Z</time>
        <extensions>
          <ns3:TrackPointExtension>
            <ns3:atemp>21.0</ns3:atemp>
          </ns3:TrackPointExtension>
        </extensions>
      </trkpt>
      <trkpt lat="43.082066662609577178955078125" lon="12.99896347336471080780029296875">
        <ele>729</ele>
        <time>2021-05-09T10:07:48.000Z</time>
        <extensions>
          <ns3:TrackPointExtension>
            <ns3:atemp>21.0</ns3:atemp>
          </ns3:TrackPointExtension>
        </extensions>
      </trkpt>
      <trkpt lat="43.08209541253745555877685546875" lon="12.99908769316971302032470703125">
        <ele>729.20001220703125</ele>
        <time>2021-05-09T10:07:50.000Z</time>
        <extensions>
          <ns3:TrackPointExtension>
            <ns3:atemp>21.0</ns3:atemp>
          </ns3:TrackPointExtension>
        </extensions>
      </trkpt>
      <trkpt lat="43.08215006254613399505615234375" lon="12.99930746667087078094482421875">
        <ele>729.79998779296875</ele>
        <time>2021-05-09T10:07:54.000Z</time>
        <extensions>
          <ns3:TrackPointExtension>
            <ns3:atemp>21.0</ns3:atemp>
          </ns3:TrackPointExtension>
        </extensions>
      </trkpt>
      <trkpt lat="43.0822401680052280426025390625" lon="12.99961491487920284271240234375">
        <ele>730.20001220703125</ele>
        <time>2021-05-09T10:07:59.000Z</time>
        <extensions>
          <ns3:TrackPointExtension>
            <ns3:atemp>21.0</ns3:atemp>
          </ns3:TrackPointExtension>
        </extensions>
      </trkpt>
      <trkpt lat="43.08227260597050189971923828125" lon="12.99970409832894802093505859375">
        <ele>730.4000244140625</ele>
        <time>2021-05-09T10:08:01.000Z</time>
        <extensions>
          <ns3:TrackPointExtension>
            <ns3:atemp>21.0</ns3:atemp>
          </ns3:TrackPointExtension>
        </extensions>
      </trkpt>
      <trkpt lat="43.0823293514549732208251953125" lon="12.999790348112583160400390625">
        <ele>730.4000244140625</ele>
        <time>2021-05-09T10:08:03.000Z</time>
        <extensions>
          <ns3:TrackPointExtension>
            <ns3:atemp>21.0</ns3:atemp>
          </ns3:TrackPointExtension>
        </extensions>
      </trkpt>
      <trkpt lat="43.0825057066977024078369140625" lon="12.99992018379271030426025390625">
        <ele>730.5999755859375</ele>
        <time>2021-05-09T10:08:08.000Z</time>
        <extensions>
          <ns3:TrackPointExtension>
            <ns3:atemp>21.0</ns3:atemp>
          </ns3:TrackPointExtension>
        </extensions>
      </trkpt>
      <trkpt lat="43.082663118839263916015625" lon="13.00002881325781345367431640625">
        <ele>730.79998779296875</ele>
        <time>2021-05-09T10:08:13.000Z</time>
        <extensions>
          <ns3:TrackPointExtension>
            <ns3:atemp>22.0</ns3:atemp>
          </ns3:TrackPointExtension>
        </extensions>
      </trkpt>
      <trkpt lat="43.082731850445270538330078125" lon="13.00008036196231842041015625">
        <ele>731.4000244140625</ele>
        <time>2021-05-09T10:08:15.000Z</time>
        <extensions>
          <ns3:TrackPointExtension>
            <ns3:atemp>22.0</ns3:atemp>
          </ns3:TrackPointExtension>
        </extensions>
      </trkpt>
      <trkpt lat="43.08278675191104412078857421875" lon="13.00014674663543701171875">
        <ele>731.5999755859375</ele>
        <time>2021-05-09T10:08:17.000Z</time>
        <extensions>
          <ns3:TrackPointExtension>
            <ns3:atemp>22.0</ns3:atemp>
          </ns3:TrackPointExtension>
        </extensions>
      </trkpt>
      <trkpt lat="43.0828094668686389923095703125" lon="13.00018899142742156982421875">
        <ele>731.79998779296875</ele>
        <time>2021-05-09T10:08:18.000Z</time>
        <extensions>
          <ns3:TrackPointExtension>
            <ns3:atemp>22.0</ns3:atemp>
          </ns3:TrackPointExtension>
        </extensions>
      </trkpt>
      <trkpt lat="43.0828711576759815216064453125" lon="13.00028018653392791748046875">
        <ele>732.20001220703125</ele>
        <time>2021-05-09T10:08:20.000Z</time>
        <extensions>
          <ns3:TrackPointExtension>
            <ns3:atemp>22.0</ns3:atemp>
          </ns3:TrackPointExtension>
        </extensions>
      </trkpt>
      <trkpt lat="43.082907199859619140625" lon="13.00031865946948528289794921875">
        <ele>732.20001220703125</ele>
        <time>2021-05-09T10:08:21.000Z</time>
        <extensions>
          <ns3:TrackPointExtension>
            <ns3:atemp>22.0</ns3:atemp>
          </ns3:TrackPointExtension>
        </extensions>
      </trkpt>
      <trkpt lat="43.0829407274723052978515625" lon="13.0003554560244083404541015625">
        <ele>732.4000244140625</ele>
        <time>2021-05-09T10:08:22.000Z</time>
        <extensions>
          <ns3:TrackPointExtension>
            <ns3:atemp>22.0</ns3:atemp>
          </ns3:TrackPointExtension>
        </extensions>
      </trkpt>
      <trkpt lat="43.08311171829700469970703125" lon="13.000507839024066925048828125">
        <ele>733</ele>
        <time>2021-05-09T10:08:27.000Z</time>
        <extensions>
          <ns3:TrackPointExtension>
            <ns3:atemp>22.0</ns3:atemp>
          </ns3:TrackPointExtension>
        </extensions>
      </trkpt>
      <trkpt lat="43.08317684568464756011962890625" lon="13.0005718767642974853515625">
        <ele>733.20001220703125</ele>
        <time>2021-05-09T10:08:29.000Z</time>
        <extensions>
          <ns3:TrackPointExtension>
            <ns3:atemp>22.0</ns3:atemp>
          </ns3:TrackPointExtension>
        </extensions>
      </trkpt>
      <trkpt lat="43.08325027115643024444580078125" lon="13.000617139041423797607421875">
        <ele>733.4000244140625</ele>
        <time>2021-05-09T10:08:31.000Z</time>
        <extensions>
          <ns3:TrackPointExtension>
            <ns3:atemp>22.0</ns3:atemp>
          </ns3:TrackPointExtension>
        </extensions>
      </trkpt>
      <trkpt lat="43.083287738263607025146484375" lon="13.00064002163708209991455078125">
        <ele>733.79998779296875</ele>
        <time>2021-05-09T10:08:32.000Z</time>
        <extensions>
          <ns3:TrackPointExtension>
            <ns3:atemp>22.0</ns3:atemp>
          </ns3:TrackPointExtension>
        </extensions>
      </trkpt>
      <trkpt lat="43.083468116819858551025390625" lon="13.0007678456604480743408203125">
        <ele>734.20001220703125</ele>
        <time>2021-05-09T10:08:36.000Z</time>
        <extensions>
          <ns3:TrackPointExtension>
            <ns3:atemp>22.0</ns3:atemp>
          </ns3:TrackPointExtension>
        </extensions>
      </trkpt>
      <trkpt lat="43.08351580984890460968017578125" lon="13.00079382956027984619140625">
        <ele>734.20001220703125</ele>
        <time>2021-05-09T10:08:37.000Z</time>
        <extensions>
          <ns3:TrackPointExtension>
            <ns3:atemp>22.0</ns3:atemp>
          </ns3:TrackPointExtension>
        </extensions>
      </trkpt>
      <trkpt lat="43.083678670227527618408203125" lon="13.0008278600871562957763671875">
        <ele>734.20001220703125</ele>
        <time>2021-05-09T10:08:40.000Z</time>
        <extensions>
          <ns3:TrackPointExtension>
            <ns3:atemp>22.0</ns3:atemp>
          </ns3:TrackPointExtension>
        </extensions>
      </trkpt>
      <trkpt lat="43.0838231742382049560546875" lon="13.000836074352264404296875">
        <ele>733.79998779296875</ele>
        <time>2021-05-09T10:08:44.000Z</time>
        <extensions>
          <ns3:TrackPointExtension>
            <ns3:atemp>22.0</ns3:atemp>
          </ns3:TrackPointExtension>
        </extensions>
      </trkpt>
      <trkpt lat="43.08384940959513187408447265625" lon="13.0008342303335666656494140625">
        <ele>733.79998779296875</ele>
        <time>2021-05-09T10:08:45.000Z</time>
        <extensions>
          <ns3:TrackPointExtension>
            <ns3:atemp>22.0</ns3:atemp>
          </ns3:TrackPointExtension>
        </extensions>
      </trkpt>
      <trkpt lat="43.083989806473255157470703125" lon="13.00082995556294918060302734375">
        <ele>733.79998779296875</ele>
        <time>2021-05-09T10:08:50.000Z</time>
        <extensions>
          <ns3:TrackPointExtension>
            <ns3:atemp>22.0</ns3:atemp>
          </ns3:TrackPointExtension>
        </extensions>
      </trkpt>
      <trkpt lat="43.0840697698295116424560546875" lon="13.00084621645510196685791015625">
        <ele>734.5999755859375</ele>
        <time>2021-05-09T10:08:53.000Z</time>
        <extensions>
          <ns3:TrackPointExtension>
            <ns3:atemp>22.0</ns3:atemp>
          </ns3:TrackPointExtension>
        </extensions>
      </trkpt>
      <trkpt lat="43.08414462022483348846435546875" lon="13.0008771456778049468994140625">
        <ele>735.5999755859375</ele>
        <time>2021-05-09T10:08:56.000Z</time>
        <extensions>
          <ns3:TrackPointExtension>
            <ns3:atemp>22.0</ns3:atemp>
          </ns3:TrackPointExtension>
        </extensions>
      </trkpt>
      <trkpt lat="43.08417093940079212188720703125" lon="13.000890724360942840576171875">
        <ele>736</ele>
        <time>2021-05-09T10:08:57.000Z</time>
        <extensions>
          <ns3:TrackPointExtension>
            <ns3:atemp>22.0</ns3:atemp>
          </ns3:TrackPointExtension>
        </extensions>
      </trkpt>
      <trkpt lat="43.08426263742148876190185546875" lon="13.00093338824808597564697265625">
        <ele>737</ele>
        <time>2021-05-09T10:09:01.000Z</time>
        <extensions>
          <ns3:TrackPointExtension>
            <ns3:atemp>22.0</ns3:atemp>
          </ns3:TrackPointExtension>
        </extensions>
      </trkpt>
      <trkpt lat="43.08430588804185390472412109375" lon="13.000952415168285369873046875">
        <ele>737.5999755859375</ele>
        <time>2021-05-09T10:09:03.000Z</time>
        <extensions>
          <ns3:TrackPointExtension>
            <ns3:atemp>22.0</ns3:atemp>
          </ns3:TrackPointExtension>
        </extensions>
      </trkpt>
      <trkpt lat="43.08434687554836273193359375" lon="13.00097228027880191802978515625">
        <ele>738.4000244140625</ele>
        <time>2021-05-09T10:09:05.000Z</time>
        <extensions>
          <ns3:TrackPointExtension>
            <ns3:atemp>22.0</ns3:atemp>
          </ns3:TrackPointExtension>
        </extensions>
      </trkpt>
      <trkpt lat="43.08443027548491954803466796875" lon="13.001002706587314605712890625">
        <ele>739.5999755859375</ele>
        <time>2021-05-09T10:09:09.000Z</time>
        <extensions>
          <ns3:TrackPointExtension>
            <ns3:atemp>22.0</ns3:atemp>
          </ns3:TrackPointExtension>
        </extensions>
      </trkpt>
      <trkpt lat="43.08444921858608722686767578125" lon="13.001011423766613006591796875">
        <ele>740.20001220703125</ele>
        <time>2021-05-09T10:09:10.000Z</time>
        <extensions>
          <ns3:TrackPointExtension>
            <ns3:atemp>22.0</ns3:atemp>
          </ns3:TrackPointExtension>
        </extensions>
      </trkpt>
      <trkpt lat="43.08448744006454944610595703125" lon="13.00102676264941692352294921875">
        <ele>741</ele>
        <time>2021-05-09T10:09:12.000Z</time>
        <extensions>
          <ns3:TrackPointExtension>
            <ns3:atemp>22.0</ns3:atemp>
          </ns3:TrackPointExtension>
        </extensions>
      </trkpt>
      <trkpt lat="43.084545023739337921142578125" lon="13.0010519921779632568359375">
        <ele>742.20001220703125</ele>
        <time>2021-05-09T10:09:15.000Z</time>
        <extensions>
          <ns3:TrackPointExtension>
            <ns3:atemp>22.0</ns3:atemp>
          </ns3:TrackPointExtension>
        </extensions>
      </trkpt>
      <trkpt lat="43.08460327796638011932373046875" lon="13.0010719411075115203857421875">
        <ele>743.20001220703125</ele>
        <time>2021-05-09T10:09:18.000Z</time>
        <extensions>
          <ns3:TrackPointExtension>
            <ns3:atemp>22.0</ns3:atemp>
          </ns3:TrackPointExtension>
        </extensions>
      </trkpt>
      <trkpt lat="43.084623813629150390625" lon="13.0010773055255413055419921875">
        <ele>743.5999755859375</ele>
        <time>2021-05-09T10:09:19.000Z</time>
        <extensions>
          <ns3:TrackPointExtension>
            <ns3:atemp>22.0</ns3:atemp>
          </ns3:TrackPointExtension>
        </extensions>
      </trkpt>
      <trkpt lat="43.084679134190082550048828125" lon="13.0011001043021678924560546875">
        <ele>744.20001220703125</ele>
        <time>2021-05-09T10:09:22.000Z</time>
        <extensions>
          <ns3:TrackPointExtension>
            <ns3:atemp>22.0</ns3:atemp>
          </ns3:TrackPointExtension>
        </extensions>
      </trkpt>
      <trkpt lat="43.0847658030688762664794921875" lon="13.001124076545238494873046875">
        <ele>745.4000244140625</ele>
        <time>2021-05-09T10:09:26.000Z</time>
        <extensions>
          <ns3:TrackPointExtension>
            <ns3:atemp>22.0</ns3:atemp>
          </ns3:TrackPointExtension>
        </extensions>
      </trkpt>
      <trkpt lat="43.0848504602909088134765625" lon="13.00114327110350131988525390625">
        <ele>746.79998779296875</ele>
        <time>2021-05-09T10:09:30.000Z</time>
        <extensions>
          <ns3:TrackPointExtension>
            <ns3:atemp>22.0</ns3:atemp>
          </ns3:TrackPointExtension>
        </extensions>
      </trkpt>
      <trkpt lat="43.08491340838372707366943359375" lon="13.001152910292148590087890625">
        <ele>747.4000244140625</ele>
        <time>2021-05-09T10:09:33.000Z</time>
        <extensions>
          <ns3:TrackPointExtension>
            <ns3:atemp>22.0</ns3:atemp>
          </ns3:TrackPointExtension>
        </extensions>
      </trkpt>
      <trkpt lat="43.0849344469606876373291015625" lon="13.0011577717959880828857421875">
        <ele>748.20001220703125</ele>
        <time>2021-05-09T10:09:34.000Z</time>
        <extensions>
          <ns3:TrackPointExtension>
            <ns3:atemp>22.0</ns3:atemp>
          </ns3:TrackPointExtension>
        </extensions>
      </trkpt>
      <trkpt lat="43.08501742780208587646484375" lon="13.00117059610784053802490234375">
        <ele>749.5999755859375</ele>
        <time>2021-05-09T10:09:38.000Z</time>
        <extensions>
          <ns3:TrackPointExtension>
            <ns3:atemp>22.0</ns3:atemp>
          </ns3:TrackPointExtension>
        </extensions>
      </trkpt>
      <trkpt lat="43.08503695763647556304931640625" lon="13.0011728592216968536376953125">
        <ele>750</ele>
        <time>2021-05-09T10:09:39.000Z</time>
        <extensions>
          <ns3:TrackPointExtension>
            <ns3:atemp>22.0</ns3:atemp>
          </ns3:TrackPointExtension>
        </extensions>
      </trkpt>
      <trkpt lat="43.0850650370121002197265625" lon="13.00118300132453441619873046875">
        <ele>750.79998779296875</ele>
        <time>2021-05-09T10:09:41.000Z</time>
        <extensions>
          <ns3:TrackPointExtension>
            <ns3:atemp>22.0</ns3:atemp>
          </ns3:TrackPointExtension>
        </extensions>
      </trkpt>
      <trkpt lat="43.08510082773864269256591796875" lon="13.00118383951485157012939453125">
        <ele>751.79998779296875</ele>
        <time>2021-05-09T10:09:43.000Z</time>
        <extensions>
          <ns3:TrackPointExtension>
            <ns3:atemp>22.0</ns3:atemp>
          </ns3:TrackPointExtension>
        </extensions>
      </trkpt>
      <trkpt lat="43.08512329123914241790771484375" lon="13.00118166022002696990966796875">
        <ele>752.20001220703125</ele>
        <time>2021-05-09T10:09:44.000Z</time>
        <extensions>
          <ns3:TrackPointExtension>
            <ns3:atemp>22.0</ns3:atemp>
          </ns3:TrackPointExtension>
        </extensions>
      </trkpt>
      <trkpt lat="43.0852030031383037567138671875" lon="13.00121367909014225006103515625">
        <ele>752.79998779296875</ele>
        <time>2021-05-09T10:09:48.000Z</time>
        <extensions>
          <ns3:TrackPointExtension>
            <ns3:atemp>22.0</ns3:atemp>
          </ns3:TrackPointExtension>
        </extensions>
      </trkpt>
      <trkpt lat="43.0853237025439739227294921875" lon="13.00130906514823436737060546875">
        <ele>752.79998779296875</ele>
        <time>2021-05-09T10:09:53.000Z</time>
        <extensions>
          <ns3:TrackPointExtension>
            <ns3:atemp>22.0</ns3:atemp>
          </ns3:TrackPointExtension>
        </extensions>
      </trkpt>
      <trkpt lat="43.0853917635977268218994140625" lon="13.001361787319183349609375">
        <ele>752.5999755859375</ele>
        <time>2021-05-09T10:09:55.000Z</time>
        <extensions>
          <ns3:TrackPointExtension>
            <ns3:atemp>22.0</ns3:atemp>
          </ns3:TrackPointExtension>
        </extensions>
      </trkpt>
      <trkpt lat="43.08553920127451419830322265625" lon="13.00145792774856090545654296875">
        <ele>752.20001220703125</ele>
        <time>2021-05-09T10:09:58.000Z</time>
        <extensions>
          <ns3:TrackPointExtension>
            <ns3:atemp>22.0</ns3:atemp>
          </ns3:TrackPointExtension>
        </extensions>
      </trkpt>
      <trkpt lat="43.08574137277901172637939453125" lon="13.00160628743469715118408203125">
        <ele>750.20001220703125</ele>
        <time>2021-05-09T10:10:02.000Z</time>
        <extensions>
          <ns3:TrackPointExtension>
            <ns3:atemp>22.0</ns3:atemp>
          </ns3:TrackPointExtension>
        </extensions>
      </trkpt>
      <trkpt lat="43.0857873894274234771728515625" lon="13.00164836458861827850341796875">
        <ele>750</ele>
        <time>2021-05-09T10:10:03.000Z</time>
        <extensions>
          <ns3:TrackPointExtension>
            <ns3:atemp>22.0</ns3:atemp>
          </ns3:TrackPointExtension>
        </extensions>
      </trkpt>
      <trkpt lat="43.085834495723247528076171875" lon="13.0016982369124889373779296875">
        <ele>749.79998779296875</ele>
        <time>2021-05-09T10:10:04.000Z</time>
        <extensions>
          <ns3:TrackPointExtension>
            <ns3:atemp>22.0</ns3:atemp>
          </ns3:TrackPointExtension>
        </extensions>
      </trkpt>
      <trkpt lat="43.0858809314668178558349609375" lon="13.001751713454723358154296875">
        <ele>749.20001220703125</ele>
        <time>2021-05-09T10:10:05.000Z</time>
        <extensions>
          <ns3:TrackPointExtension>
            <ns3:atemp>22.0</ns3:atemp>
          </ns3:TrackPointExtension>
        </extensions>
      </trkpt>
      <trkpt lat="43.0859768204391002655029296875" lon="13.00188389606773853302001953125">
        <ele>748</ele>
        <time>2021-05-09T10:10:07.000Z</time>
        <extensions>
          <ns3:TrackPointExtension>
            <ns3:atemp>22.0</ns3:atemp>
          </ns3:TrackPointExtension>
        </extensions>
      </trkpt>
      <trkpt lat="43.08602183125913143157958984375" lon="13.0019590817391872406005859375">
        <ele>747.4000244140625</ele>
        <time>2021-05-09T10:10:08.000Z</time>
        <extensions>
          <ns3:TrackPointExtension>
            <ns3:atemp>22.0</ns3:atemp>
          </ns3:TrackPointExtension>
        </extensions>
      </trkpt>
      <trkpt lat="43.08606742881238460540771484375" lon="13.0020361952483654022216796875">
        <ele>746.79998779296875</ele>
        <time>2021-05-09T10:10:09.000Z</time>
        <extensions>
          <ns3:TrackPointExtension>
            <ns3:atemp>22.0</ns3:atemp>
          </ns3:TrackPointExtension>
        </extensions>
      </trkpt>
      <trkpt lat="43.08611403219401836395263671875" lon="13.00212713889777660369873046875">
        <ele>746.5999755859375</ele>
        <time>2021-05-09T10:10:10.000Z</time>
        <extensions>
          <ns3:TrackPointExtension>
            <ns3:atemp>22.0</ns3:atemp>
          </ns3:TrackPointExtension>
        </extensions>
      </trkpt>
      <trkpt lat="43.08620120398700237274169921875" lon="13.00231556408107280731201171875">
        <ele>745.4000244140625</ele>
        <time>2021-05-09T10:10:12.000Z</time>
        <extensions>
          <ns3:TrackPointExtension>
            <ns3:atemp>22.0</ns3:atemp>
          </ns3:TrackPointExtension>
        </extensions>
      </trkpt>
      <trkpt lat="43.08627865277230739593505859375" lon="13.00250331871211528778076171875">
        <ele>744</ele>
        <time>2021-05-09T10:10:14.000Z</time>
        <extensions>
          <ns3:TrackPointExtension>
            <ns3:atemp>22.0</ns3:atemp>
          </ns3:TrackPointExtension>
        </extensions>
      </trkpt>
      <trkpt lat="43.0863647349178791046142578125" lon="13.00268436782062053680419921875">
        <ele>742.79998779296875</ele>
        <time>2021-05-09T10:10:16.000Z</time>
        <extensions>
          <ns3:TrackPointExtension>
            <ns3:atemp>22.0</ns3:atemp>
          </ns3:TrackPointExtension>
        </extensions>
      </trkpt>
      <trkpt lat="43.08641527779400348663330078125" lon="13.0027659237384796142578125">
        <ele>742</ele>
        <time>2021-05-09T10:10:17.000Z</time>
        <extensions>
          <ns3:TrackPointExtension>
            <ns3:atemp>22.0</ns3:atemp>
          </ns3:TrackPointExtension>
        </extensions>
      </trkpt>
      <trkpt lat="43.086474202573299407958984375" lon="13.002842366695404052734375">
        <ele>741.4000244140625</ele>
        <time>2021-05-09T10:10:18.000Z</time>
        <extensions>
          <ns3:TrackPointExtension>
            <ns3:atemp>22.0</ns3:atemp>
          </ns3:TrackPointExtension>
        </extensions>
      </trkpt>
      <trkpt lat="43.0865347199141979217529296875" lon="13.00291386432945728302001953125">
        <ele>740.79998779296875</ele>
        <time>2021-05-09T10:10:19.000Z</time>
        <extensions>
          <ns3:TrackPointExtension>
            <ns3:atemp>22.0</ns3:atemp>
          </ns3:TrackPointExtension>
        </extensions>
      </trkpt>
      <trkpt lat="43.08659817092120647430419921875" lon="13.00297823734581470489501953125">
        <ele>740</ele>
        <time>2021-05-09T10:10:20.000Z</time>
        <extensions>
          <ns3:TrackPointExtension>
            <ns3:atemp>22.0</ns3:atemp>
          </ns3:TrackPointExtension>
        </extensions>
      </trkpt>
      <trkpt lat="43.086870498955249786376953125" lon="13.0032230727374553680419921875">
        <ele>739</ele>
        <time>2021-05-09T10:10:24.000Z</time>
        <extensions>
          <ns3:TrackPointExtension>
            <ns3:atemp>22.0</ns3:atemp>
          </ns3:TrackPointExtension>
        </extensions>
      </trkpt>
      <trkpt lat="43.08713410980999469757080078125" lon="13.003583662211894989013671875">
        <ele>738</ele>
        <time>2021-05-09T10:10:29.000Z</time>
        <extensions>
          <ns3:TrackPointExtension>
            <ns3:atemp>22.0</ns3:atemp>
          </ns3:TrackPointExtension>
        </extensions>
      </trkpt>
      <trkpt lat="43.08717937208712100982666015625" lon="13.0036535672843456268310546875">
        <ele>737.4000244140625</ele>
        <time>2021-05-09T10:10:30.000Z</time>
        <extensions>
          <ns3:TrackPointExtension>
            <ns3:atemp>22.0</ns3:atemp>
          </ns3:TrackPointExtension>
        </extensions>
      </trkpt>
      <trkpt lat="43.08726553805172443389892578125" lon="13.00378390587866306304931640625">
        <ele>736</ele>
        <time>2021-05-09T10:10:32.000Z</time>
        <extensions>
          <ns3:TrackPointExtension>
            <ns3:atemp>22.0</ns3:atemp>
          </ns3:TrackPointExtension>
        </extensions>
      </trkpt>
      <trkpt lat="43.087340891361236572265625" lon="13.00391080789268016815185546875">
        <ele>736</ele>
        <time>2021-05-09T10:10:34.000Z</time>
        <extensions>
          <ns3:TrackPointExtension>
            <ns3:atemp>22.0</ns3:atemp>
          </ns3:TrackPointExtension>
        </extensions>
      </trkpt>
      <trkpt lat="43.08747164905071258544921875" lon="13.0041749216616153717041015625">
        <ele>735.79998779296875</ele>
        <time>2021-05-09T10:10:39.000Z</time>
        <extensions>
          <ns3:TrackPointExtension>
            <ns3:atemp>22.0</ns3:atemp>
          </ns3:TrackPointExtension>
        </extensions>
      </trkpt>
      <trkpt lat="43.0875998921692371368408203125" lon="13.00439712591469287872314453125">
        <ele>736.79998779296875</ele>
        <time>2021-05-09T10:10:44.000Z</time>
        <extensions>
          <ns3:TrackPointExtension>
            <ns3:atemp>22.0</ns3:atemp>
          </ns3:TrackPointExtension>
        </extensions>
      </trkpt>
      <trkpt lat="43.0876599065959453582763671875" lon="13.004482872784137725830078125">
        <ele>737</ele>
        <time>2021-05-09T10:10:46.000Z</time>
        <extensions>
          <ns3:TrackPointExtension>
            <ns3:atemp>22.0</ns3:atemp>
          </ns3:TrackPointExtension>
        </extensions>
      </trkpt>
      <trkpt lat="43.08772436343133449554443359375" lon="13.00455889664590358734130859375">
        <ele>737.4000244140625</ele>
        <time>2021-05-09T10:10:48.000Z</time>
        <extensions>
          <ns3:TrackPointExtension>
            <ns3:atemp>22.0</ns3:atemp>
          </ns3:TrackPointExtension>
        </extensions>
      </trkpt>
      <trkpt lat="43.08778806589543819427490234375" lon="13.00463072955608367919921875">
        <ele>737.5999755859375</ele>
        <time>2021-05-09T10:10:50.000Z</time>
        <extensions>
          <ns3:TrackPointExtension>
            <ns3:atemp>22.0</ns3:atemp>
          </ns3:TrackPointExtension>
        </extensions>
      </trkpt>
      <trkpt lat="43.08781564235687255859375" lon="13.00466903485357761383056640625">
        <ele>737.5999755859375</ele>
        <time>2021-05-09T10:10:51.000Z</time>
        <extensions>
          <ns3:TrackPointExtension>
            <ns3:atemp>22.0</ns3:atemp>
          </ns3:TrackPointExtension>
        </extensions>
      </trkpt>
      <trkpt lat="43.08787439949810504913330078125" lon="13.00474279560148715972900390625">
        <ele>738.20001220703125</ele>
        <time>2021-05-09T10:10:53.000Z</time>
        <extensions>
          <ns3:TrackPointExtension>
            <ns3:atemp>22.0</ns3:atemp>
          </ns3:TrackPointExtension>
        </extensions>
      </trkpt>
      <trkpt lat="43.08801613748073577880859375" lon="13.00493624992668628692626953125">
        <ele>739.4000244140625</ele>
        <time>2021-05-09T10:10:58.000Z</time>
        <extensions>
          <ns3:TrackPointExtension>
            <ns3:atemp>22.0</ns3:atemp>
          </ns3:TrackPointExtension>
        </extensions>
      </trkpt>
      <trkpt lat="43.088237755000591278076171875" lon="13.0052576959133148193359375">
        <ele>740.20001220703125</ele>
        <time>2021-05-09T10:11:05.000Z</time>
        <extensions>
          <ns3:TrackPointExtension>
            <ns3:atemp>22.0</ns3:atemp>
          </ns3:TrackPointExtension>
        </extensions>
      </trkpt>
      <trkpt lat="43.0885331332683563232421875" lon="13.005603365600109100341796875">
        <ele>740.20001220703125</ele>
        <time>2021-05-09T10:11:12.000Z</time>
        <extensions>
          <ns3:TrackPointExtension>
            <ns3:atemp>22.0</ns3:atemp>
          </ns3:TrackPointExtension>
        </extensions>
      </trkpt>
      <trkpt lat="43.08884921483695507049560546875" lon="13.0058878473937511444091796875">
        <ele>740</ele>
        <time>2021-05-09T10:11:17.000Z</time>
        <extensions>
          <ns3:TrackPointExtension>
            <ns3:atemp>22.0</ns3:atemp>
          </ns3:TrackPointExtension>
        </extensions>
      </trkpt>
      <trkpt lat="43.08909145183861255645751953125" lon="13.00615020096302032470703125">
        <ele>738.4000244140625</ele>
        <time>2021-05-09T10:11:21.000Z</time>
        <extensions>
          <ns3:TrackPointExtension>
            <ns3:atemp>22.0</ns3:atemp>
          </ns3:TrackPointExtension>
        </extensions>
      </trkpt>
      <trkpt lat="43.08915800414979457855224609375" lon="13.006218262016773223876953125">
        <ele>737.79998779296875</ele>
        <time>2021-05-09T10:11:22.000Z</time>
        <extensions>
          <ns3:TrackPointExtension>
            <ns3:atemp>22.0</ns3:atemp>
          </ns3:TrackPointExtension>
        </extensions>
      </trkpt>
      <trkpt lat="43.089221455156803131103515625" lon="13.0062854848802089691162109375">
        <ele>737</ele>
        <time>2021-05-09T10:11:23.000Z</time>
        <extensions>
          <ns3:TrackPointExtension>
            <ns3:atemp>22.0</ns3:atemp>
          </ns3:TrackPointExtension>
        </extensions>
      </trkpt>
      <trkpt lat="43.08935246430337429046630859375" lon="13.006404675543308258056640625">
        <ele>735.5999755859375</ele>
        <time>2021-05-09T10:11:25.000Z</time>
        <extensions>
          <ns3:TrackPointExtension>
            <ns3:atemp>22.0</ns3:atemp>
          </ns3:TrackPointExtension>
        </extensions>
      </trkpt>
      <trkpt lat="43.08949294500052928924560546875" lon="13.00650693476200103759765625">
        <ele>734.5999755859375</ele>
        <time>2021-05-09T10:11:27.000Z</time>
        <extensions>
          <ns3:TrackPointExtension>
            <ns3:atemp>22.0</ns3:atemp>
          </ns3:TrackPointExtension>
        </extensions>
      </trkpt>
      <trkpt lat="43.08963091112673282623291015625" lon="13.00660793669521808624267578125">
        <ele>733.4000244140625</ele>
        <time>2021-05-09T10:11:29.000Z</time>
        <extensions>
          <ns3:TrackPointExtension>
            <ns3:atemp>22.0</ns3:atemp>
          </ns3:TrackPointExtension>
        </extensions>
      </trkpt>
      <trkpt lat="43.08969545178115367889404296875" lon="13.00666409544646739959716796875">
        <ele>732.5999755859375</ele>
        <time>2021-05-09T10:11:30.000Z</time>
        <extensions>
          <ns3:TrackPointExtension>
            <ns3:atemp>22.0</ns3:atemp>
          </ns3:TrackPointExtension>
        </extensions>
      </trkpt>
      <trkpt lat="43.08975747786462306976318359375" lon="13.00672578625380992889404296875">
        <ele>732.20001220703125</ele>
        <time>2021-05-09T10:11:31.000Z</time>
        <extensions>
          <ns3:TrackPointExtension>
            <ns3:atemp>22.0</ns3:atemp>
          </ns3:TrackPointExtension>
        </extensions>
      </trkpt>
      <trkpt lat="43.08981916867196559906005859375" lon="13.006792254745960235595703125">
        <ele>731.79998779296875</ele>
        <time>2021-05-09T10:11:32.000Z</time>
        <extensions>
          <ns3:TrackPointExtension>
            <ns3:atemp>22.0</ns3:atemp>
          </ns3:TrackPointExtension>
        </extensions>
      </trkpt>
      <trkpt lat="43.089940957725048065185546875" lon="13.006929047405719757080078125">
        <ele>731</ele>
        <time>2021-05-09T10:11:34.000Z</time>
        <extensions>
          <ns3:TrackPointExtension>
            <ns3:atemp>22.0</ns3:atemp>
          </ns3:TrackPointExtension>
        </extensions>
      </trkpt>
      <trkpt lat="43.09010365046560764312744140625" lon="13.00711353309452533721923828125">
        <ele>729.79998779296875</ele>
        <time>2021-05-09T10:11:37.000Z</time>
        <extensions>
          <ns3:TrackPointExtension>
            <ns3:atemp>22.0</ns3:atemp>
          </ns3:TrackPointExtension>
        </extensions>
      </trkpt>
      <trkpt lat="43.0903038941323757171630859375" lon="13.0073469690978527069091796875">
        <ele>729.5999755859375</ele>
        <time>2021-05-09T10:11:42.000Z</time>
        <extensions>
          <ns3:TrackPointExtension>
            <ns3:atemp>22.0</ns3:atemp>
          </ns3:TrackPointExtension>
        </extensions>
      </trkpt>
      <trkpt lat="43.09060740284621715545654296875" lon="13.00762332044541835784912109375">
        <ele>731</ele>
        <time>2021-05-09T10:11:49.000Z</time>
        <extensions>
          <ns3:TrackPointExtension>
            <ns3:atemp>22.0</ns3:atemp>
          </ns3:TrackPointExtension>
        </extensions>
      </trkpt>
      <trkpt lat="43.090688288211822509765625" lon="13.00771367736160755157470703125">
        <ele>731.4000244140625</ele>
        <time>2021-05-09T10:11:51.000Z</time>
        <extensions>
          <ns3:TrackPointExtension>
            <ns3:atemp>22.0</ns3:atemp>
          </ns3:TrackPointExtension>
        </extensions>
      </trkpt>
      <trkpt lat="43.0908386595547199249267578125" lon="13.0078961513936519622802734375">
        <ele>732.20001220703125</ele>
        <time>2021-05-09T10:11:55.000Z</time>
        <extensions>
          <ns3:TrackPointExtension>
            <ns3:atemp>22.0</ns3:atemp>
          </ns3:TrackPointExtension>
        </extensions>
      </trkpt>
      <trkpt lat="43.09089859016239643096923828125" lon="13.00796245224773883819580078125">
        <ele>732.79998779296875</ele>
        <time>2021-05-09T10:11:57.000Z</time>
        <extensions>
          <ns3:TrackPointExtension>
            <ns3:atemp>22.0</ns3:atemp>
          </ns3:TrackPointExtension>
        </extensions>
      </trkpt>
      <trkpt lat="43.0909399129450321197509765625" lon="13.0080074630677700042724609375">
        <ele>733.4000244140625</ele>
        <time>2021-05-09T10:11:59.000Z</time>
        <extensions>
          <ns3:TrackPointExtension>
            <ns3:atemp>22.0</ns3:atemp>
          </ns3:TrackPointExtension>
        </extensions>
      </trkpt>
      <trkpt lat="43.09098668396472930908203125" lon="13.00803420133888721466064453125">
        <ele>734.4000244140625</ele>
        <time>2021-05-09T10:12:02.000Z</time>
        <extensions>
          <ns3:TrackPointExtension>
            <ns3:atemp>22.0</ns3:atemp>
          </ns3:TrackPointExtension>
        </extensions>
      </trkpt>
      <trkpt lat="43.0909982509911060333251953125" lon="13.00804375670850276947021484375">
        <ele>734.79998779296875</ele>
        <time>2021-05-09T10:12:03.000Z</time>
        <extensions>
          <ns3:TrackPointExtension>
            <ns3:atemp>22.0</ns3:atemp>
          </ns3:TrackPointExtension>
        </extensions>
      </trkpt>
      <trkpt lat="43.09099607169628143310546875" lon="13.00811416469514369964599609375">
        <ele>736.20001220703125</ele>
        <time>2021-05-09T10:12:06.000Z</time>
        <extensions>
          <ns3:TrackPointExtension>
            <ns3:atemp>22.0</ns3:atemp>
          </ns3:TrackPointExtension>
        </extensions>
      </trkpt>
      <trkpt lat="43.09098576195538043975830078125" lon="13.00814844667911529541015625">
        <ele>736.4000244140625</ele>
        <time>2021-05-09T10:12:07.000Z</time>
        <extensions>
          <ns3:TrackPointExtension>
            <ns3:atemp>22.0</ns3:atemp>
          </ns3:TrackPointExtension>
        </extensions>
      </trkpt>
      <trkpt lat="43.0909325368702411651611328125" lon="13.0083242990076541900634765625">
        <ele>737.20001220703125</ele>
        <time>2021-05-09T10:12:11.000Z</time>
        <extensions>
          <ns3:TrackPointExtension>
            <ns3:atemp>22.0</ns3:atemp>
          </ns3:TrackPointExtension>
        </extensions>
      </trkpt>
      <trkpt lat="43.09093949384987354278564453125" lon="13.0085952021181583404541015625">
        <ele>737.79998779296875</ele>
        <time>2021-05-09T10:12:16.000Z</time>
        <extensions>
          <ns3:TrackPointExtension>
            <ns3:atemp>22.0</ns3:atemp>
          </ns3:TrackPointExtension>
        </extensions>
      </trkpt>
      <trkpt lat="43.09094376862049102783203125" lon="13.0086511932313442230224609375">
        <ele>737.79998779296875</ele>
        <time>2021-05-09T10:12:17.000Z</time>
        <extensions>
          <ns3:TrackPointExtension>
            <ns3:atemp>22.0</ns3:atemp>
          </ns3:TrackPointExtension>
        </extensions>
      </trkpt>
      <trkpt lat="43.0910153500735759735107421875" lon="13.00886803306639194488525390625">
        <ele>737.79998779296875</ele>
        <time>2021-05-09T10:12:21.000Z</time>
        <extensions>
          <ns3:TrackPointExtension>
            <ns3:atemp>22.0</ns3:atemp>
          </ns3:TrackPointExtension>
        </extensions>
      </trkpt>
      <trkpt lat="43.091042675077915191650390625" lon="13.00891958177089691162109375">
        <ele>738</ele>
        <time>2021-05-09T10:12:22.000Z</time>
        <extensions>
          <ns3:TrackPointExtension>
            <ns3:atemp>22.0</ns3:atemp>
          </ns3:TrackPointExtension>
        </extensions>
      </trkpt>
      <trkpt lat="43.09110361151397228240966796875" lon="13.00902209244668483734130859375">
        <ele>738.4000244140625</ele>
        <time>2021-05-09T10:12:24.000Z</time>
        <extensions>
          <ns3:TrackPointExtension>
            <ns3:atemp>22.0</ns3:atemp>
          </ns3:TrackPointExtension>
        </extensions>
      </trkpt>
      <trkpt lat="43.0911819823086261749267578125" lon="13.00911462865769863128662109375">
        <ele>738.5999755859375</ele>
        <time>2021-05-09T10:12:26.000Z</time>
        <extensions>
          <ns3:TrackPointExtension>
            <ns3:atemp>22.0</ns3:atemp>
          </ns3:TrackPointExtension>
        </extensions>
      </trkpt>
      <trkpt lat="43.091444671154022216796875" lon="13.00930623896420001983642578125">
        <ele>738.5999755859375</ele>
        <time>2021-05-09T10:12:32.000Z</time>
        <extensions>
          <ns3:TrackPointExtension>
            <ns3:atemp>22.0</ns3:atemp>
          </ns3:TrackPointExtension>
        </extensions>
      </trkpt>
      <trkpt lat="43.0917841382324695587158203125" lon="13.00948946736752986907958984375">
        <ele>738.20001220703125</ele>
        <time>2021-05-09T10:12:39.000Z</time>
        <extensions>
          <ns3:TrackPointExtension>
            <ns3:atemp>22.0</ns3:atemp>
          </ns3:TrackPointExtension>
        </extensions>
      </trkpt>
      <trkpt lat="43.09212452732026576995849609375" lon="13.00969867967069149017333984375">
        <ele>738.20001220703125</ele>
        <time>2021-05-09T10:12:46.000Z</time>
        <extensions>
          <ns3:TrackPointExtension>
            <ns3:atemp>22.0</ns3:atemp>
          </ns3:TrackPointExtension>
        </extensions>
      </trkpt>
      <trkpt lat="43.0923182331025600433349609375" lon="13.00983094610273838043212890625">
        <ele>738.20001220703125</ele>
        <time>2021-05-09T10:12:50.000Z</time>
        <extensions>
          <ns3:TrackPointExtension>
            <ns3:atemp>22.0</ns3:atemp>
          </ns3:TrackPointExtension>
        </extensions>
      </trkpt>
      <trkpt lat="43.09243733994662761688232421875" lon="13.00986849702894687652587890625">
        <ele>738.4000244140625</ele>
        <time>2021-05-09T10:12:52.000Z</time>
        <extensions>
          <ns3:TrackPointExtension>
            <ns3:atemp>22.0</ns3:atemp>
          </ns3:TrackPointExtension>
        </extensions>
      </trkpt>
      <trkpt lat="43.09280631132423877716064453125" lon="13.00990437157452106475830078125">
        <ele>738.20001220703125</ele>
        <time>2021-05-09T10:12:58.000Z</time>
        <extensions>
          <ns3:TrackPointExtension>
            <ns3:atemp>22.0</ns3:atemp>
          </ns3:TrackPointExtension>
        </extensions>
      </trkpt>
      <trkpt lat="43.09308685362339019775390625" lon="13.01000730134546756744384765625">
        <ele>738</ele>
        <time>2021-05-09T10:13:03.000Z</time>
        <extensions>
          <ns3:TrackPointExtension>
            <ns3:atemp>22.0</ns3:atemp>
          </ns3:TrackPointExtension>
        </extensions>
      </trkpt>
      <trkpt lat="43.09348859824240207672119140625" lon="13.010240904986858367919921875">
        <ele>737.79998779296875</ele>
        <time>2021-05-09T10:13:10.000Z</time>
        <extensions>
          <ns3:TrackPointExtension>
            <ns3:atemp>22.0</ns3:atemp>
          </ns3:TrackPointExtension>
        </extensions>
      </trkpt>
      <trkpt lat="43.093810044229030609130859375" lon="13.01051893271505832672119140625">
        <ele>737.79998779296875</ele>
        <time>2021-05-09T10:13:16.000Z</time>
        <extensions>
          <ns3:TrackPointExtension>
            <ns3:atemp>22.0</ns3:atemp>
          </ns3:TrackPointExtension>
        </extensions>
      </trkpt>
      <trkpt lat="43.09416065923869609832763671875" lon="13.0109119601547718048095703125">
        <ele>738.20001220703125</ele>
        <time>2021-05-09T10:13:23.000Z</time>
        <extensions>
          <ns3:TrackPointExtension>
            <ns3:atemp>22.0</ns3:atemp>
          </ns3:TrackPointExtension>
        </extensions>
      </trkpt>
      <trkpt lat="43.09422033838927745819091796875" lon="13.01094858907163143157958984375">
        <ele>738.4000244140625</ele>
        <time>2021-05-09T10:13:24.000Z</time>
        <extensions>
          <ns3:TrackPointExtension>
            <ns3:atemp>22.0</ns3:atemp>
          </ns3:TrackPointExtension>
        </extensions>
      </trkpt>
      <trkpt lat="43.09434338472783565521240234375" lon="13.01098697818815708160400390625">
        <ele>738.5999755859375</ele>
        <time>2021-05-09T10:13:26.000Z</time>
        <extensions>
          <ns3:TrackPointExtension>
            <ns3:atemp>22.0</ns3:atemp>
          </ns3:TrackPointExtension>
        </extensions>
      </trkpt>
      <trkpt lat="43.09447447769343852996826171875" lon="13.0110031552612781524658203125">
        <ele>738.79998779296875</ele>
        <time>2021-05-09T10:13:28.000Z</time>
        <extensions>
          <ns3:TrackPointExtension>
            <ns3:atemp>22.0</ns3:atemp>
          </ns3:TrackPointExtension>
        </extensions>
      </trkpt>
      <trkpt lat="43.0947241745889186859130859375" lon="13.01102511584758758544921875">
        <ele>738.79998779296875</ele>
        <time>2021-05-09T10:13:32.000Z</time>
        <extensions>
          <ns3:TrackPointExtension>
            <ns3:atemp>22.0</ns3:atemp>
          </ns3:TrackPointExtension>
        </extensions>
      </trkpt>
      <trkpt lat="43.09483875520527362823486328125" lon="13.011058978736400604248046875">
        <ele>739</ele>
        <time>2021-05-09T10:13:34.000Z</time>
        <extensions>
          <ns3:TrackPointExtension>
            <ns3:atemp>22.0</ns3:atemp>
          </ns3:TrackPointExtension>
        </extensions>
      </trkpt>
      <trkpt lat="43.095012344419956207275390625" lon="13.01115176640450954437255859375">
        <ele>739.20001220703125</ele>
        <time>2021-05-09T10:13:37.000Z</time>
        <extensions>
          <ns3:TrackPointExtension>
            <ns3:atemp>22.0</ns3:atemp>
          </ns3:TrackPointExtension>
        </extensions>
      </trkpt>
      <trkpt lat="43.09519213624298572540283203125" lon="13.01124949939548969268798828125">
        <ele>738.79998779296875</ele>
        <time>2021-05-09T10:13:40.000Z</time>
        <extensions>
          <ns3:TrackPointExtension>
            <ns3:atemp>22.0</ns3:atemp>
          </ns3:TrackPointExtension>
        </extensions>
      </trkpt>
      <trkpt lat="43.0953846685588359832763671875" lon="13.01130699925124645233154296875">
        <ele>738.79998779296875</ele>
        <time>2021-05-09T10:13:43.000Z</time>
        <extensions>
          <ns3:TrackPointExtension>
            <ns3:atemp>22.0</ns3:atemp>
          </ns3:TrackPointExtension>
        </extensions>
      </trkpt>
      <trkpt lat="43.0956465192139148712158203125" lon="13.01140867173671722412109375">
        <ele>738.5999755859375</ele>
        <time>2021-05-09T10:13:47.000Z</time>
        <extensions>
          <ns3:TrackPointExtension>
            <ns3:atemp>22.0</ns3:atemp>
          </ns3:TrackPointExtension>
        </extensions>
      </trkpt>
      <trkpt lat="43.0957725830376148223876953125" lon="13.01150531508028507232666015625">
        <ele>738.4000244140625</ele>
        <time>2021-05-09T10:13:49.000Z</time>
        <extensions>
          <ns3:TrackPointExtension>
            <ns3:atemp>22.0</ns3:atemp>
          </ns3:TrackPointExtension>
        </extensions>
      </trkpt>
      <trkpt lat="43.09588800184428691864013671875" lon="13.01163406111299991607666015625">
        <ele>737.4000244140625</ele>
        <time>2021-05-09T10:13:51.000Z</time>
        <extensions>
          <ns3:TrackPointExtension>
            <ns3:atemp>22.0</ns3:atemp>
          </ns3:TrackPointExtension>
        </extensions>
      </trkpt>
      <trkpt lat="43.09594566933810710906982421875" lon="13.01170094870030879974365234375">
        <ele>737</ele>
        <time>2021-05-09T10:13:52.000Z</time>
        <extensions>
          <ns3:TrackPointExtension>
            <ns3:atemp>22.0</ns3:atemp>
          </ns3:TrackPointExtension>
        </extensions>
      </trkpt>
      <trkpt lat="43.0960639379918575286865234375" lon="13.01183380186557769775390625">
        <ele>736.4000244140625</ele>
        <time>2021-05-09T10:13:54.000Z</time>
        <extensions>
          <ns3:TrackPointExtension>
            <ns3:atemp>22.0</ns3:atemp>
          </ns3:TrackPointExtension>
        </extensions>
      </trkpt>
      <trkpt lat="43.096127808094024658203125" lon="13.011895827949047088623046875">
        <ele>735.79998779296875</ele>
        <time>2021-05-09T10:13:55.000Z</time>
        <extensions>
          <ns3:TrackPointExtension>
            <ns3:atemp>22.0</ns3:atemp>
          </ns3:TrackPointExtension>
        </extensions>
      </trkpt>
      <trkpt lat="43.0963378585875034332275390625" lon="13.01204376854002475738525390625">
        <ele>734.4000244140625</ele>
        <time>2021-05-09T10:13:58.000Z</time>
        <extensions>
          <ns3:TrackPointExtension>
            <ns3:atemp>22.0</ns3:atemp>
          </ns3:TrackPointExtension>
        </extensions>
      </trkpt>
      <trkpt lat="43.0966422893106937408447265625" lon="13.01219313405454158782958984375">
        <ele>733.4000244140625</ele>
        <time>2021-05-09T10:14:02.000Z</time>
        <extensions>
          <ns3:TrackPointExtension>
            <ns3:atemp>22.0</ns3:atemp>
          </ns3:TrackPointExtension>
        </extensions>
      </trkpt>
      <trkpt lat="43.09688293375074863433837890625" lon="13.01227569580078125">
        <ele>732</ele>
        <time>2021-05-09T10:14:05.000Z</time>
        <extensions>
          <ns3:TrackPointExtension>
            <ns3:atemp>22.0</ns3:atemp>
          </ns3:TrackPointExtension>
        </extensions>
      </trkpt>
      <trkpt lat="43.0970486439764499664306640625" lon="13.01231349818408489227294921875">
        <ele>731</ele>
        <time>2021-05-09T10:14:07.000Z</time>
        <extensions>
          <ns3:TrackPointExtension>
            <ns3:atemp>21.0</ns3:atemp>
          </ns3:TrackPointExtension>
        </extensions>
      </trkpt>
      <trkpt lat="43.09731091372668743133544921875" lon="13.0123513005673885345458984375">
        <ele>729.79998779296875</ele>
        <time>2021-05-09T10:14:10.000Z</time>
        <extensions>
          <ns3:TrackPointExtension>
            <ns3:atemp>21.0</ns3:atemp>
          </ns3:TrackPointExtension>
        </extensions>
      </trkpt>
      <trkpt lat="43.09749372303485870361328125" lon="13.012369908392429351806640625">
        <ele>728.5999755859375</ele>
        <time>2021-05-09T10:14:12.000Z</time>
        <extensions>
          <ns3:TrackPointExtension>
            <ns3:atemp>21.0</ns3:atemp>
          </ns3:TrackPointExtension>
        </extensions>
      </trkpt>
      <trkpt lat="43.09776873327791690826416015625" lon="13.01241072826087474822998046875">
        <ele>727.4000244140625</ele>
        <time>2021-05-09T10:14:15.000Z</time>
        <extensions>
          <ns3:TrackPointExtension>
            <ns3:atemp>21.0</ns3:atemp>
          </ns3:TrackPointExtension>
        </extensions>
      </trkpt>
      <trkpt lat="43.09785992838442325592041015625" lon="13.0124304257333278656005859375">
        <ele>726.79998779296875</ele>
        <time>2021-05-09T10:14:16.000Z</time>
        <extensions>
          <ns3:TrackPointExtension>
            <ns3:atemp>21.0</ns3:atemp>
          </ns3:TrackPointExtension>
        </extensions>
      </trkpt>
      <trkpt lat="43.0979508720338344573974609375" lon="13.01245205104351043701171875">
        <ele>726.4000244140625</ele>
        <time>2021-05-09T10:14:17.000Z</time>
        <extensions>
          <ns3:TrackPointExtension>
            <ns3:atemp>21.0</ns3:atemp>
          </ns3:TrackPointExtension>
        </extensions>
      </trkpt>
      <trkpt lat="43.098135776817798614501953125" lon="13.01250091753900051116943359375">
        <ele>725</ele>
        <time>2021-05-09T10:14:19.000Z</time>
        <extensions>
          <ns3:TrackPointExtension>
            <ns3:atemp>21.0</ns3:atemp>
          </ns3:TrackPointExtension>
        </extensions>
      </trkpt>
      <trkpt lat="43.09832160361111164093017578125" lon="13.01255154423415660858154296875">
        <ele>724</ele>
        <time>2021-05-09T10:14:21.000Z</time>
        <extensions>
          <ns3:TrackPointExtension>
            <ns3:atemp>21.0</ns3:atemp>
          </ns3:TrackPointExtension>
        </extensions>
      </trkpt>
      <trkpt lat="43.09850533492863178253173828125" lon="13.012607283890247344970703125">
        <ele>722.4000244140625</ele>
        <time>2021-05-09T10:14:23.000Z</time>
        <extensions>
          <ns3:TrackPointExtension>
            <ns3:atemp>21.0</ns3:atemp>
          </ns3:TrackPointExtension>
        </extensions>
      </trkpt>
      <trkpt lat="43.0985952727496623992919921875" lon="13.0126372911036014556884765625">
        <ele>721</ele>
        <time>2021-05-09T10:14:24.000Z</time>
        <extensions>
          <ns3:TrackPointExtension>
            <ns3:atemp>21.0</ns3:atemp>
          </ns3:TrackPointExtension>
        </extensions>
      </trkpt>
      <trkpt lat="43.098684288561344146728515625" lon="13.01266570575535297393798828125">
        <ele>720.5999755859375</ele>
        <time>2021-05-09T10:14:25.000Z</time>
        <extensions>
          <ns3:TrackPointExtension>
            <ns3:atemp>21.0</ns3:atemp>
          </ns3:TrackPointExtension>
        </extensions>
      </trkpt>
      <trkpt lat="43.09886005707085132598876953125" lon="13.012727312743663787841796875">
        <ele>719.79998779296875</ele>
        <time>2021-05-09T10:14:27.000Z</time>
        <extensions>
          <ns3:TrackPointExtension>
            <ns3:atemp>21.0</ns3:atemp>
          </ns3:TrackPointExtension>
        </extensions>
      </trkpt>
      <trkpt lat="43.0990287847816944122314453125" lon="13.01279948092997074127197265625">
        <ele>718.20001220703125</ele>
        <time>2021-05-09T10:14:29.000Z</time>
        <extensions>
          <ns3:TrackPointExtension>
            <ns3:atemp>21.0</ns3:atemp>
          </ns3:TrackPointExtension>
        </extensions>
      </trkpt>
      <trkpt lat="43.09918846003711223602294921875" lon="13.01286720670759677886962890625">
        <ele>717.20001220703125</ele>
        <time>2021-05-09T10:14:31.000Z</time>
        <extensions>
          <ns3:TrackPointExtension>
            <ns3:atemp>21.0</ns3:atemp>
          </ns3:TrackPointExtension>
        </extensions>
      </trkpt>
      <trkpt lat="43.09948015026748180389404296875" lon="13.012996204197406768798828125">
        <ele>716</ele>
        <time>2021-05-09T10:14:35.000Z</time>
        <extensions>
          <ns3:TrackPointExtension>
            <ns3:atemp>21.0</ns3:atemp>
          </ns3:TrackPointExtension>
        </extensions>
      </trkpt>
      <trkpt lat="43.0995343811810016632080078125" lon="13.013037107884883880615234375">
        <ele>715.79998779296875</ele>
        <time>2021-05-09T10:14:36.000Z</time>
        <extensions>
          <ns3:TrackPointExtension>
            <ns3:atemp>21.0</ns3:atemp>
          </ns3:TrackPointExtension>
        </extensions>
      </trkpt>
      <trkpt lat="43.09967192821204662322998046875" lon="13.013209439814090728759765625">
        <ele>715.79998779296875</ele>
        <time>2021-05-09T10:14:40.000Z</time>
        <extensions>
          <ns3:TrackPointExtension>
            <ns3:atemp>21.0</ns3:atemp>
          </ns3:TrackPointExtension>
        </extensions>
      </trkpt>
      <trkpt lat="43.09974870644509792327880859375" lon="13.01330901682376861572265625">
        <ele>715.79998779296875</ele>
        <time>2021-05-09T10:14:42.000Z</time>
        <extensions>
          <ns3:TrackPointExtension>
            <ns3:atemp>21.0</ns3:atemp>
          </ns3:TrackPointExtension>
        </extensions>
      </trkpt>
      <trkpt lat="43.0998386442661285400390625" lon="13.01338336430490016937255859375">
        <ele>715.5999755859375</ele>
        <time>2021-05-09T10:14:44.000Z</time>
        <extensions>
          <ns3:TrackPointExtension>
            <ns3:atemp>21.0</ns3:atemp>
          </ns3:TrackPointExtension>
        </extensions>
      </trkpt>
      <trkpt lat="43.10001122765243053436279296875" lon="13.01350020803511142730712890625">
        <ele>715.4000244140625</ele>
        <time>2021-05-09T10:14:48.000Z</time>
        <extensions>
          <ns3:TrackPointExtension>
            <ns3:atemp>21.0</ns3:atemp>
          </ns3:TrackPointExtension>
        </extensions>
      </trkpt>
      <trkpt lat="43.10006101615726947784423828125" lon="13.013517558574676513671875">
        <ele>715.4000244140625</ele>
        <time>2021-05-09T10:14:49.000Z</time>
        <extensions>
          <ns3:TrackPointExtension>
            <ns3:atemp>21.0</ns3:atemp>
          </ns3:TrackPointExtension>
        </extensions>
      </trkpt>
      <trkpt lat="43.1003437377512454986572265625" lon="13.0135484039783477783203125">
        <ele>715.4000244140625</ele>
        <time>2021-05-09T10:14:54.000Z</time>
        <extensions>
          <ns3:TrackPointExtension>
            <ns3:atemp>21.0</ns3:atemp>
          </ns3:TrackPointExtension>
        </extensions>
      </trkpt>
      <trkpt lat="43.1005321629345417022705078125" lon="13.01360942423343658447265625">
        <ele>715.4000244140625</ele>
        <time>2021-05-09T10:14:58.000Z</time>
        <extensions>
          <ns3:TrackPointExtension>
            <ns3:atemp>21.0</ns3:atemp>
          </ns3:TrackPointExtension>
        </extensions>
      </trkpt>
      <trkpt lat="43.10075151734054088592529296875" lon="13.0136595480144023895263671875">
        <ele>715.79998779296875</ele>
        <time>2021-05-09T10:15:03.000Z</time>
        <extensions>
          <ns3:TrackPointExtension>
            <ns3:atemp>21.0</ns3:atemp>
          </ns3:TrackPointExtension>
        </extensions>
      </trkpt>
      <trkpt lat="43.10080465860664844512939453125" lon="13.0136531777679920196533203125">
        <ele>716</ele>
        <time>2021-05-09T10:15:05.000Z</time>
        <extensions>
          <ns3:TrackPointExtension>
            <ns3:atemp>21.0</ns3:atemp>
          </ns3:TrackPointExtension>
        </extensions>
      </trkpt>
      <trkpt lat="43.10080549679696559906005859375" lon="13.013649992644786834716796875">
        <ele>716.4000244140625</ele>
        <time>2021-05-09T10:15:10.000Z</time>
        <extensions>
          <ns3:TrackPointExtension>
            <ns3:atemp>21.0</ns3:atemp>
          </ns3:TrackPointExtension>
        </extensions>
      </trkpt>
      <trkpt lat="43.100805580615997314453125" lon="13.013651669025421142578125">
        <ele>716.79998779296875</ele>
        <time>2021-05-09T10:15:29.000Z</time>
        <extensions>
          <ns3:TrackPointExtension>
            <ns3:atemp>22.0</ns3:atemp>
          </ns3:TrackPointExtension>
        </extensions>
      </trkpt>
      <trkpt lat="43.10085511766374111175537109375" lon="13.013689555227756500244140625">
        <ele>716.79998779296875</ele>
        <time>2021-05-09T10:15:34.000Z</time>
        <extensions>
          <ns3:TrackPointExtension>
            <ns3:atemp>22.0</ns3:atemp>
          </ns3:TrackPointExtension>
        </extensions>
      </trkpt>
      <trkpt lat="43.10098185203969478607177734375" lon="13.01374512724578380584716796875">
        <ele>716.79998779296875</ele>
        <time>2021-05-09T10:15:39.000Z</time>
        <extensions>
          <ns3:TrackPointExtension>
            <ns3:atemp>22.0</ns3:atemp>
          </ns3:TrackPointExtension>
        </extensions>
      </trkpt>
      <trkpt lat="43.10116407461464405059814453125" lon="13.01379877142608165740966796875">
        <ele>716.4000244140625</ele>
        <time>2021-05-09T10:15:43.000Z</time>
        <extensions>
          <ns3:TrackPointExtension>
            <ns3:atemp>22.0</ns3:atemp>
          </ns3:TrackPointExtension>
        </extensions>
      </trkpt>
      <trkpt lat="43.101304471492767333984375" lon="13.0138298682868480682373046875">
        <ele>716.4000244140625</ele>
        <time>2021-05-09T10:15:46.000Z</time>
        <extensions>
          <ns3:TrackPointExtension>
            <ns3:atemp>22.0</ns3:atemp>
          </ns3:TrackPointExtension>
        </extensions>
      </trkpt>
      <trkpt lat="43.10135467909276485443115234375" lon="13.01384587772190570831298828125">
        <ele>716.20001220703125</ele>
        <time>2021-05-09T10:15:47.000Z</time>
        <extensions>
          <ns3:TrackPointExtension>
            <ns3:atemp>22.0</ns3:atemp>
          </ns3:TrackPointExtension>
        </extensions>
      </trkpt>
      <trkpt lat="43.1016858480870723724365234375" lon="13.01398216746747493743896484375">
        <ele>715.5999755859375</ele>
        <time>2021-05-09T10:15:54.000Z</time>
        <extensions>
          <ns3:TrackPointExtension>
            <ns3:atemp>22.0</ns3:atemp>
          </ns3:TrackPointExtension>
        </extensions>
      </trkpt>
      <trkpt lat="43.1017257459461688995361328125" lon="13.0139998532831668853759765625">
        <ele>715.5999755859375</ele>
        <time>2021-05-09T10:15:55.000Z</time>
        <extensions>
          <ns3:TrackPointExtension>
            <ns3:atemp>22.0</ns3:atemp>
          </ns3:TrackPointExtension>
        </extensions>
      </trkpt>
      <trkpt lat="43.10200260020792484283447265625" lon="13.01410160958766937255859375">
        <ele>715.20001220703125</ele>
        <time>2021-05-09T10:16:01.000Z</time>
        <extensions>
          <ns3:TrackPointExtension>
            <ns3:atemp>22.0</ns3:atemp>
          </ns3:TrackPointExtension>
        </extensions>
      </trkpt>
      <trkpt lat="43.102049119770526885986328125" lon="13.01412248052656650543212890625">
        <ele>715</ele>
        <time>2021-05-09T10:16:02.000Z</time>
        <extensions>
          <ns3:TrackPointExtension>
            <ns3:atemp>22.0</ns3:atemp>
          </ns3:TrackPointExtension>
        </extensions>
      </trkpt>
      <trkpt lat="43.1021917797625064849853515625" lon="13.0142001807689666748046875">
        <ele>714.4000244140625</ele>
        <time>2021-05-09T10:16:05.000Z</time>
        <extensions>
          <ns3:TrackPointExtension>
            <ns3:atemp>22.0</ns3:atemp>
          </ns3:TrackPointExtension>
        </extensions>
      </trkpt>
      <trkpt lat="43.10223880223929882049560546875" lon="13.0142244882881641387939453125">
        <ele>714.20001220703125</ele>
        <time>2021-05-09T10:16:06.000Z</time>
        <extensions>
          <ns3:TrackPointExtension>
            <ns3:atemp>22.0</ns3:atemp>
          </ns3:TrackPointExtension>
        </extensions>
      </trkpt>
      <trkpt lat="43.102463521063327789306640625" lon="13.0143468640744686126708984375">
        <ele>713.20001220703125</ele>
        <time>2021-05-09T10:16:11.000Z</time>
        <extensions>
          <ns3:TrackPointExtension>
            <ns3:atemp>22.0</ns3:atemp>
          </ns3:TrackPointExtension>
        </extensions>
      </trkpt>
      <trkpt lat="43.10255111195147037506103515625" lon="13.0143944732844829559326171875">
        <ele>712.5999755859375</ele>
        <time>2021-05-09T10:16:13.000Z</time>
        <extensions>
          <ns3:TrackPointExtension>
            <ns3:atemp>22.0</ns3:atemp>
          </ns3:TrackPointExtension>
        </extensions>
      </trkpt>
      <trkpt lat="43.10263560153543949127197265625" lon="13.01443981938064098358154296875">
        <ele>712.20001220703125</ele>
        <time>2021-05-09T10:16:15.000Z</time>
        <extensions>
          <ns3:TrackPointExtension>
            <ns3:atemp>22.0</ns3:atemp>
          </ns3:TrackPointExtension>
        </extensions>
      </trkpt>
      <trkpt lat="43.10276552103459835052490234375" lon="13.01451508887112140655517578125">
        <ele>710.79998779296875</ele>
        <time>2021-05-09T10:16:18.000Z</time>
        <extensions>
          <ns3:TrackPointExtension>
            <ns3:atemp>22.0</ns3:atemp>
          </ns3:TrackPointExtension>
        </extensions>
      </trkpt>
      <trkpt lat="43.102859146893024444580078125" lon="13.01456672139465808868408203125">
        <ele>710.5999755859375</ele>
        <time>2021-05-09T10:16:20.000Z</time>
        <extensions>
          <ns3:TrackPointExtension>
            <ns3:atemp>22.0</ns3:atemp>
          </ns3:TrackPointExtension>
        </extensions>
      </trkpt>
      <trkpt lat="43.1030519306659698486328125" lon="13.0146670527756214141845703125">
        <ele>709.79998779296875</ele>
        <time>2021-05-09T10:16:24.000Z</time>
        <extensions>
          <ns3:TrackPointExtension>
            <ns3:atemp>22.0</ns3:atemp>
          </ns3:TrackPointExtension>
        </extensions>
      </trkpt>
      <trkpt lat="43.10318847186863422393798828125" lon="13.01474290899932384490966796875">
        <ele>708.5999755859375</ele>
        <time>2021-05-09T10:16:27.000Z</time>
        <extensions>
          <ns3:TrackPointExtension>
            <ns3:atemp>22.0</ns3:atemp>
          </ns3:TrackPointExtension>
        </extensions>
      </trkpt>
      <trkpt lat="43.10332057066261768341064453125" lon="13.01482622511684894561767578125">
        <ele>707.4000244140625</ele>
        <time>2021-05-09T10:16:30.000Z</time>
        <extensions>
          <ns3:TrackPointExtension>
            <ns3:atemp>22.0</ns3:atemp>
          </ns3:TrackPointExtension>
        </extensions>
      </trkpt>
      <trkpt lat="43.10354051180183887481689453125" lon="13.01493041217327117919921875">
        <ele>706.20001220703125</ele>
        <time>2021-05-09T10:16:35.000Z</time>
        <extensions>
          <ns3:TrackPointExtension>
            <ns3:atemp>22.0</ns3:atemp>
          </ns3:TrackPointExtension>
        </extensions>
      </trkpt>
      <trkpt lat="43.10376740992069244384765625" lon="13.0150638520717620849609375">
        <ele>705</ele>
        <time>2021-05-09T10:16:40.000Z</time>
        <extensions>
          <ns3:TrackPointExtension>
            <ns3:atemp>22.0</ns3:atemp>
          </ns3:TrackPointExtension>
        </extensions>
      </trkpt>
      <trkpt lat="43.10381342656910419464111328125" lon="13.0150933563709259033203125">
        <ele>705</ele>
        <time>2021-05-09T10:16:41.000Z</time>
        <extensions>
          <ns3:TrackPointExtension>
            <ns3:atemp>22.0</ns3:atemp>
          </ns3:TrackPointExtension>
        </extensions>
      </trkpt>
      <trkpt lat="43.10408131219446659088134765625" lon="13.0152614973485469818115234375">
        <ele>704</ele>
        <time>2021-05-09T10:16:47.000Z</time>
        <extensions>
          <ns3:TrackPointExtension>
            <ns3:atemp>22.0</ns3:atemp>
          </ns3:TrackPointExtension>
        </extensions>
      </trkpt>
      <trkpt lat="43.10412146151065826416015625" lon="13.01528622396290302276611328125">
        <ele>704</ele>
        <time>2021-05-09T10:16:48.000Z</time>
        <extensions>
          <ns3:TrackPointExtension>
            <ns3:atemp>22.0</ns3:atemp>
          </ns3:TrackPointExtension>
        </extensions>
      </trkpt>
      <trkpt lat="43.1042399816215038299560546875" lon="13.01535495556890964508056640625">
        <ele>702.79998779296875</ele>
        <time>2021-05-09T10:16:51.000Z</time>
        <extensions>
          <ns3:TrackPointExtension>
            <ns3:atemp>22.0</ns3:atemp>
          </ns3:TrackPointExtension>
        </extensions>
      </trkpt>
      <trkpt lat="43.10443125665187835693359375" lon="13.0154646746814250946044921875">
        <ele>701.79998779296875</ele>
        <time>2021-05-09T10:16:56.000Z</time>
        <extensions>
          <ns3:TrackPointExtension>
            <ns3:atemp>22.0</ns3:atemp>
          </ns3:TrackPointExtension>
        </extensions>
      </trkpt>
      <trkpt lat="43.1044726632535457611083984375" lon="13.01549099385738372802734375">
        <ele>701.5999755859375</ele>
        <time>2021-05-09T10:16:57.000Z</time>
        <extensions>
          <ns3:TrackPointExtension>
            <ns3:atemp>22.0</ns3:atemp>
          </ns3:TrackPointExtension>
        </extensions>
      </trkpt>
      <trkpt lat="43.104708194732666015625" lon="13.0156406946480274200439453125">
        <ele>700.79998779296875</ele>
        <time>2021-05-09T10:17:02.000Z</time>
        <extensions>
          <ns3:TrackPointExtension>
            <ns3:atemp>22.0</ns3:atemp>
          </ns3:TrackPointExtension>
        </extensions>
      </trkpt>
      <trkpt lat="43.10476393438875675201416015625" lon="13.0156762339174747467041015625">
        <ele>700.5999755859375</ele>
        <time>2021-05-09T10:17:03.000Z</time>
        <extensions>
          <ns3:TrackPointExtension>
            <ns3:atemp>22.0</ns3:atemp>
          </ns3:TrackPointExtension>
        </extensions>
      </trkpt>
      <trkpt lat="43.1050573848187923431396484375" lon="13.01586239598691463470458984375">
        <ele>699.79998779296875</ele>
        <time>2021-05-09T10:17:09.000Z</time>
        <extensions>
          <ns3:TrackPointExtension>
            <ns3:atemp>22.0</ns3:atemp>
          </ns3:TrackPointExtension>
        </extensions>
      </trkpt>
      <trkpt lat="43.1051019765436649322509765625" lon="13.01589198410511016845703125">
        <ele>699.79998779296875</ele>
        <time>2021-05-09T10:17:10.000Z</time>
        <extensions>
          <ns3:TrackPointExtension>
            <ns3:atemp>22.0</ns3:atemp>
          </ns3:TrackPointExtension>
        </extensions>
      </trkpt>
      <trkpt lat="43.10534714721143245697021484375" lon="13.0160624720156192779541015625">
        <ele>699</ele>
        <time>2021-05-09T10:17:15.000Z</time>
        <extensions>
          <ns3:TrackPointExtension>
            <ns3:atemp>22.0</ns3:atemp>
          </ns3:TrackPointExtension>
        </extensions>
      </trkpt>
      <trkpt lat="43.10553004033863544464111328125" lon="13.01620672456920146942138671875">
        <ele>698.79998779296875</ele>
        <time>2021-05-09T10:17:19.000Z</time>
        <extensions>
          <ns3:TrackPointExtension>
            <ns3:atemp>22.0</ns3:atemp>
          </ns3:TrackPointExtension>
        </extensions>
      </trkpt>
      <trkpt lat="43.10561218298971652984619140625" lon="13.016272522509098052978515625">
        <ele>698.4000244140625</ele>
        <time>2021-05-09T10:17:21.000Z</time>
        <extensions>
          <ns3:TrackPointExtension>
            <ns3:atemp>22.0</ns3:atemp>
          </ns3:TrackPointExtension>
        </extensions>
      </trkpt>
      <trkpt lat="43.1057475507259368896484375" lon="13.01638224162161350250244140625">
        <ele>697.79998779296875</ele>
        <time>2021-05-09T10:17:24.000Z</time>
        <extensions>
          <ns3:TrackPointExtension>
            <ns3:atemp>22.0</ns3:atemp>
          </ns3:TrackPointExtension>
        </extensions>
      </trkpt>
      <trkpt lat="43.1058824993669986724853515625" lon="13.01650310866534709930419921875">
        <ele>697.5999755859375</ele>
        <time>2021-05-09T10:17:27.000Z</time>
        <extensions>
          <ns3:TrackPointExtension>
            <ns3:atemp>22.0</ns3:atemp>
          </ns3:TrackPointExtension>
        </extensions>
      </trkpt>
      <trkpt lat="43.106135465204715728759765625" lon="13.01672003231942653656005859375">
        <ele>697.4000244140625</ele>
        <time>2021-05-09T10:17:33.000Z</time>
        <extensions>
          <ns3:TrackPointExtension>
            <ns3:atemp>22.0</ns3:atemp>
          </ns3:TrackPointExtension>
        </extensions>
      </trkpt>
      <trkpt lat="43.1064618565142154693603515625" lon="13.01694550551474094390869140625">
        <ele>697</ele>
        <time>2021-05-09T10:17:40.000Z</time>
        <extensions>
          <ns3:TrackPointExtension>
            <ns3:atemp>22.0</ns3:atemp>
          </ns3:TrackPointExtension>
        </extensions>
      </trkpt>
      <trkpt lat="43.1066241301596164703369140625" lon="13.01707291044294834136962890625">
        <ele>696.5999755859375</ele>
        <time>2021-05-09T10:17:44.000Z</time>
        <extensions>
          <ns3:TrackPointExtension>
            <ns3:atemp>22.0</ns3:atemp>
          </ns3:TrackPointExtension>
        </extensions>
      </trkpt>
      <trkpt lat="43.1067190133035182952880859375" lon="13.01714725792407989501953125">
        <ele>696.4000244140625</ele>
        <time>2021-05-09T10:17:46.000Z</time>
        <extensions>
          <ns3:TrackPointExtension>
            <ns3:atemp>22.0</ns3:atemp>
          </ns3:TrackPointExtension>
        </extensions>
      </trkpt>
      <trkpt lat="43.107055127620697021484375" lon="13.01736275665462017059326171875">
        <ele>695.79998779296875</ele>
        <time>2021-05-09T10:17:52.000Z</time>
        <extensions>
          <ns3:TrackPointExtension>
            <ns3:atemp>22.0</ns3:atemp>
          </ns3:TrackPointExtension>
        </extensions>
      </trkpt>
      <trkpt lat="43.1072655133903026580810546875" lon="13.01747985184192657470703125">
        <ele>694.4000244140625</ele>
        <time>2021-05-09T10:17:56.000Z</time>
        <extensions>
          <ns3:TrackPointExtension>
            <ns3:atemp>22.0</ns3:atemp>
          </ns3:TrackPointExtension>
        </extensions>
      </trkpt>
      <trkpt lat="43.1073697842657566070556640625" lon="13.0175420455634593963623046875">
        <ele>693.79998779296875</ele>
        <time>2021-05-09T10:17:58.000Z</time>
        <extensions>
          <ns3:TrackPointExtension>
            <ns3:atemp>22.0</ns3:atemp>
          </ns3:TrackPointExtension>
        </extensions>
      </trkpt>
      <trkpt lat="43.10742200352251529693603515625" lon="13.0175785906612873077392578125">
        <ele>693</ele>
        <time>2021-05-09T10:17:59.000Z</time>
        <extensions>
          <ns3:TrackPointExtension>
            <ns3:atemp>22.0</ns3:atemp>
          </ns3:TrackPointExtension>
        </extensions>
      </trkpt>
      <trkpt lat="43.1075297109782695770263671875" lon="13.01765310578048229217529296875">
        <ele>692</ele>
        <time>2021-05-09T10:18:01.000Z</time>
        <extensions>
          <ns3:TrackPointExtension>
            <ns3:atemp>22.0</ns3:atemp>
          </ns3:TrackPointExtension>
        </extensions>
      </trkpt>
      <trkpt lat="43.10763020999729633331298828125" lon="13.01771831698715686798095703125">
        <ele>690.79998779296875</ele>
        <time>2021-05-09T10:18:03.000Z</time>
        <extensions>
          <ns3:TrackPointExtension>
            <ns3:atemp>22.0</ns3:atemp>
          </ns3:TrackPointExtension>
        </extensions>
      </trkpt>
      <trkpt lat="43.10781888663768768310546875" lon="13.01783096976578235626220703125">
        <ele>689.5999755859375</ele>
        <time>2021-05-09T10:18:07.000Z</time>
        <extensions>
          <ns3:TrackPointExtension>
            <ns3:atemp>22.0</ns3:atemp>
          </ns3:TrackPointExtension>
        </extensions>
      </trkpt>
      <trkpt lat="43.10791552998125553131103515625" lon="13.0179128609597682952880859375">
        <ele>688.20001220703125</ele>
        <time>2021-05-09T10:18:09.000Z</time>
        <extensions>
          <ns3:TrackPointExtension>
            <ns3:atemp>22.0</ns3:atemp>
          </ns3:TrackPointExtension>
        </extensions>
      </trkpt>
      <trkpt lat="43.10800236649811267852783203125" lon="13.0179919861257076263427734375">
        <ele>687.20001220703125</ele>
        <time>2021-05-09T10:18:11.000Z</time>
        <extensions>
          <ns3:TrackPointExtension>
            <ns3:atemp>22.0</ns3:atemp>
          </ns3:TrackPointExtension>
        </extensions>
      </trkpt>
      <trkpt lat="43.1081003509461879730224609375" lon="13.0180652439594268798828125">
        <ele>686.20001220703125</ele>
        <time>2021-05-09T10:18:13.000Z</time>
        <extensions>
          <ns3:TrackPointExtension>
            <ns3:atemp>22.0</ns3:atemp>
          </ns3:TrackPointExtension>
        </extensions>
      </trkpt>
      <trkpt lat="43.1081482954323291778564453125" lon="13.01810354925692081451416015625">
        <ele>685.5999755859375</ele>
        <time>2021-05-09T10:18:14.000Z</time>
        <extensions>
          <ns3:TrackPointExtension>
            <ns3:atemp>22.0</ns3:atemp>
          </ns3:TrackPointExtension>
        </extensions>
      </trkpt>
      <trkpt lat="43.1082431785762310028076171875" lon="13.01817596890032291412353515625">
        <ele>684.4000244140625</ele>
        <time>2021-05-09T10:18:16.000Z</time>
        <extensions>
          <ns3:TrackPointExtension>
            <ns3:atemp>22.0</ns3:atemp>
          </ns3:TrackPointExtension>
        </extensions>
      </trkpt>
      <trkpt lat="43.108292631804943084716796875" lon="13.01820597611367702484130859375">
        <ele>683.79998779296875</ele>
        <time>2021-05-09T10:18:17.000Z</time>
        <extensions>
          <ns3:TrackPointExtension>
            <ns3:atemp>22.0</ns3:atemp>
          </ns3:TrackPointExtension>
        </extensions>
      </trkpt>
      <trkpt lat="43.10834350995719432830810546875" lon="13.01823623478412628173828125">
        <ele>683.20001220703125</ele>
        <time>2021-05-09T10:18:18.000Z</time>
        <extensions>
          <ns3:TrackPointExtension>
            <ns3:atemp>22.0</ns3:atemp>
          </ns3:TrackPointExtension>
        </extensions>
      </trkpt>
      <trkpt lat="43.10839287936687469482421875" lon="13.0182742886245250701904296875">
        <ele>682.79998779296875</ele>
        <time>2021-05-09T10:18:19.000Z</time>
        <extensions>
          <ns3:TrackPointExtension>
            <ns3:atemp>22.0</ns3:atemp>
          </ns3:TrackPointExtension>
        </extensions>
      </trkpt>
      <trkpt lat="43.10848047025501728057861328125" lon="13.0183602869510650634765625">
        <ele>681.79998779296875</ele>
        <time>2021-05-09T10:18:21.000Z</time>
        <extensions>
          <ns3:TrackPointExtension>
            <ns3:atemp>22.0</ns3:atemp>
          </ns3:TrackPointExtension>
        </extensions>
      </trkpt>
      <trkpt lat="43.108519949018955230712890625" lon="13.0183966644108295440673828125">
        <ele>681.20001220703125</ele>
        <time>2021-05-09T10:18:22.000Z</time>
        <extensions>
          <ns3:TrackPointExtension>
            <ns3:atemp>22.0</ns3:atemp>
          </ns3:TrackPointExtension>
        </extensions>
      </trkpt>
      <trkpt lat="43.108595050871372222900390625" lon="13.01846665330231189727783203125">
        <ele>680.20001220703125</ele>
        <time>2021-05-09T10:18:24.000Z</time>
        <extensions>
          <ns3:TrackPointExtension>
            <ns3:atemp>22.0</ns3:atemp>
          </ns3:TrackPointExtension>
        </extensions>
      </trkpt>
      <trkpt lat="43.1086616031825542449951171875" lon="13.0185472033917903900146484375">
        <ele>679.20001220703125</ele>
        <time>2021-05-09T10:18:26.000Z</time>
        <extensions>
          <ns3:TrackPointExtension>
            <ns3:atemp>22.0</ns3:atemp>
          </ns3:TrackPointExtension>
        </extensions>
      </trkpt>
      <trkpt lat="43.1087383814156055450439453125" lon="13.0186454392969608306884765625">
        <ele>678.4000244140625</ele>
        <time>2021-05-09T10:18:28.000Z</time>
        <extensions>
          <ns3:TrackPointExtension>
            <ns3:atemp>22.0</ns3:atemp>
          </ns3:TrackPointExtension>
        </extensions>
      </trkpt>
      <trkpt lat="43.108782134950160980224609375" lon="13.01869221031665802001953125">
        <ele>678</ele>
        <time>2021-05-09T10:18:29.000Z</time>
        <extensions>
          <ns3:TrackPointExtension>
            <ns3:atemp>22.0</ns3:atemp>
          </ns3:TrackPointExtension>
        </extensions>
      </trkpt>
      <trkpt lat="43.1088714860379695892333984375" lon="13.01877996884286403656005859375">
        <ele>677</ele>
        <time>2021-05-09T10:18:31.000Z</time>
        <extensions>
          <ns3:TrackPointExtension>
            <ns3:atemp>22.0</ns3:atemp>
          </ns3:TrackPointExtension>
        </extensions>
      </trkpt>
      <trkpt lat="43.108921945095062255859375" lon="13.0188137479126453399658203125">
        <ele>676</ele>
        <time>2021-05-09T10:18:32.000Z</time>
        <extensions>
          <ns3:TrackPointExtension>
            <ns3:atemp>22.0</ns3:atemp>
          </ns3:TrackPointExtension>
        </extensions>
      </trkpt>
      <trkpt lat="43.1089720688760280609130859375" lon="13.01884031854569911956787109375">
        <ele>675.5999755859375</ele>
        <time>2021-05-09T10:18:33.000Z</time>
        <extensions>
          <ns3:TrackPointExtension>
            <ns3:atemp>22.0</ns3:atemp>
          </ns3:TrackPointExtension>
        </extensions>
      </trkpt>
      <trkpt lat="43.10901439748704433441162109375" lon="13.01887191832065582275390625">
        <ele>675</ele>
        <time>2021-05-09T10:18:34.000Z</time>
        <extensions>
          <ns3:TrackPointExtension>
            <ns3:atemp>22.0</ns3:atemp>
          </ns3:TrackPointExtension>
        </extensions>
      </trkpt>
      <trkpt lat="43.1090573966503143310546875" lon="13.01891215145587921142578125">
        <ele>674.4000244140625</ele>
        <time>2021-05-09T10:18:35.000Z</time>
        <extensions>
          <ns3:TrackPointExtension>
            <ns3:atemp>23.0</ns3:atemp>
          </ns3:TrackPointExtension>
        </extensions>
      </trkpt>
      <trkpt lat="43.10910391621291637420654296875" lon="13.01895732991397380828857421875">
        <ele>673.4000244140625</ele>
        <time>2021-05-09T10:18:36.000Z</time>
        <extensions>
          <ns3:TrackPointExtension>
            <ns3:atemp>23.0</ns3:atemp>
          </ns3:TrackPointExtension>
        </extensions>
      </trkpt>
      <trkpt lat="43.1091517768800258636474609375" lon="13.0190031789243221282958984375">
        <ele>672.79998779296875</ele>
        <time>2021-05-09T10:18:37.000Z</time>
        <extensions>
          <ns3:TrackPointExtension>
            <ns3:atemp>23.0</ns3:atemp>
          </ns3:TrackPointExtension>
        </extensions>
      </trkpt>
      <trkpt lat="43.109203241765499114990234375" lon="13.01903645507991313934326171875">
        <ele>672.20001220703125</ele>
        <time>2021-05-09T10:18:38.000Z</time>
        <extensions>
          <ns3:TrackPointExtension>
            <ns3:atemp>23.0</ns3:atemp>
          </ns3:TrackPointExtension>
        </extensions>
      </trkpt>
      <trkpt lat="43.109255544841289520263671875" lon="13.01906009204685688018798828125">
        <ele>671.79998779296875</ele>
        <time>2021-05-09T10:18:39.000Z</time>
        <extensions>
          <ns3:TrackPointExtension>
            <ns3:atemp>23.0</ns3:atemp>
          </ns3:TrackPointExtension>
        </extensions>
      </trkpt>
      <trkpt lat="43.10930709354579448699951171875" lon="13.01908289082348346710205078125">
        <ele>671.5999755859375</ele>
        <time>2021-05-09T10:18:40.000Z</time>
        <extensions>
          <ns3:TrackPointExtension>
            <ns3:atemp>23.0</ns3:atemp>
          </ns3:TrackPointExtension>
        </extensions>
      </trkpt>
      <trkpt lat="43.1093532778322696685791015625" lon="13.01910904236137866973876953125">
        <ele>671.20001220703125</ele>
        <time>2021-05-09T10:18:41.000Z</time>
        <extensions>
          <ns3:TrackPointExtension>
            <ns3:atemp>23.0</ns3:atemp>
          </ns3:TrackPointExtension>
        </extensions>
      </trkpt>
      <trkpt lat="43.109391666948795318603515625" lon="13.0191473476588726043701171875">
        <ele>670.5999755859375</ele>
        <time>2021-05-09T10:18:42.000Z</time>
        <extensions>
          <ns3:TrackPointExtension>
            <ns3:atemp>23.0</ns3:atemp>
          </ns3:TrackPointExtension>
        </extensions>
      </trkpt>
      <trkpt lat="43.1094635836780071258544921875" lon="13.01922521553933620452880859375">
        <ele>669.20001220703125</ele>
        <time>2021-05-09T10:18:44.000Z</time>
        <extensions>
          <ns3:TrackPointExtension>
            <ns3:atemp>23.0</ns3:atemp>
          </ns3:TrackPointExtension>
        </extensions>
      </trkpt>
      <trkpt lat="43.10949350707232952117919921875" lon="13.019266538321971893310546875">
        <ele>667.79998779296875</ele>
        <time>2021-05-09T10:18:45.000Z</time>
        <extensions>
          <ns3:TrackPointExtension>
            <ns3:atemp>23.0</ns3:atemp>
          </ns3:TrackPointExtension>
        </extensions>
      </trkpt>
      <trkpt lat="43.10959710739552974700927734375" lon="13.01935949362814426422119140625">
        <ele>666.5999755859375</ele>
        <time>2021-05-09T10:18:48.000Z</time>
        <extensions>
          <ns3:TrackPointExtension>
            <ns3:atemp>23.0</ns3:atemp>
          </ns3:TrackPointExtension>
        </extensions>
      </trkpt>
      <trkpt lat="43.10967002995312213897705078125" lon="13.0194564722478389739990234375">
        <ele>666.20001220703125</ele>
        <time>2021-05-09T10:18:51.000Z</time>
        <extensions>
          <ns3:TrackPointExtension>
            <ns3:atemp>23.0</ns3:atemp>
          </ns3:TrackPointExtension>
        </extensions>
      </trkpt>
      <trkpt lat="43.10968662612140178680419921875" lon="13.01949762739241123199462890625">
        <ele>666</ele>
        <time>2021-05-09T10:18:52.000Z</time>
        <extensions>
          <ns3:TrackPointExtension>
            <ns3:atemp>23.0</ns3:atemp>
          </ns3:TrackPointExtension>
        </extensions>
      </trkpt>
      <trkpt lat="43.1097069941461086273193359375" lon="13.0195350944995880126953125">
        <ele>665.79998779296875</ele>
        <time>2021-05-09T10:18:53.000Z</time>
        <extensions>
          <ns3:TrackPointExtension>
            <ns3:atemp>23.0</ns3:atemp>
          </ns3:TrackPointExtension>
        </extensions>
      </trkpt>
      <trkpt lat="43.10973205603659152984619140625" lon="13.0195672810077667236328125">
        <ele>665.79998779296875</ele>
        <time>2021-05-09T10:18:54.000Z</time>
        <extensions>
          <ns3:TrackPointExtension>
            <ns3:atemp>23.0</ns3:atemp>
          </ns3:TrackPointExtension>
        </extensions>
      </trkpt>
      <trkpt lat="43.10978855006396770477294921875" lon="13.0196361802518367767333984375">
        <ele>665</ele>
        <time>2021-05-09T10:18:56.000Z</time>
        <extensions>
          <ns3:TrackPointExtension>
            <ns3:atemp>23.0</ns3:atemp>
          </ns3:TrackPointExtension>
        </extensions>
      </trkpt>
      <trkpt lat="43.10981268994510173797607421875" lon="13.0196814425289630889892578125">
        <ele>664.79998779296875</ele>
        <time>2021-05-09T10:18:57.000Z</time>
        <extensions>
          <ns3:TrackPointExtension>
            <ns3:atemp>23.0</ns3:atemp>
          </ns3:TrackPointExtension>
        </extensions>
      </trkpt>
      <trkpt lat="43.1099007837474346160888671875" lon="13.01982401870191097259521484375">
        <ele>664</ele>
        <time>2021-05-09T10:19:00.000Z</time>
        <extensions>
          <ns3:TrackPointExtension>
            <ns3:atemp>23.0</ns3:atemp>
          </ns3:TrackPointExtension>
        </extensions>
      </trkpt>
      <trkpt lat="43.1099379993975162506103515625" lon="13.0198658443987369537353515625">
        <ele>664</ele>
        <time>2021-05-09T10:19:01.000Z</time>
        <extensions>
          <ns3:TrackPointExtension>
            <ns3:atemp>23.0</ns3:atemp>
          </ns3:TrackPointExtension>
        </extensions>
      </trkpt>
      <trkpt lat="43.10997781343758106231689453125" lon="13.01990934647619724273681640625">
        <ele>663.5999755859375</ele>
        <time>2021-05-09T10:19:02.000Z</time>
        <extensions>
          <ns3:TrackPointExtension>
            <ns3:atemp>23.0</ns3:atemp>
          </ns3:TrackPointExtension>
        </extensions>
      </trkpt>
      <trkpt lat="43.11001486144959926605224609375" lon="13.01995754241943359375">
        <ele>663.20001220703125</ele>
        <time>2021-05-09T10:19:03.000Z</time>
        <extensions>
          <ns3:TrackPointExtension>
            <ns3:atemp>23.0</ns3:atemp>
          </ns3:TrackPointExtension>
        </extensions>
      </trkpt>
      <trkpt lat="43.11009314842522144317626953125" lon="13.02004831843078136444091796875">
        <ele>662.5999755859375</ele>
        <time>2021-05-09T10:19:05.000Z</time>
        <extensions>
          <ns3:TrackPointExtension>
            <ns3:atemp>23.0</ns3:atemp>
          </ns3:TrackPointExtension>
        </extensions>
      </trkpt>
      <trkpt lat="43.110131286084651947021484375" lon="13.02009207196533679962158203125">
        <ele>662.20001220703125</ele>
        <time>2021-05-09T10:19:06.000Z</time>
        <extensions>
          <ns3:TrackPointExtension>
            <ns3:atemp>23.0</ns3:atemp>
          </ns3:TrackPointExtension>
        </extensions>
      </trkpt>
      <trkpt lat="43.11020865105092525482177734375" lon="13.02017287351191043853759765625">
        <ele>660.79998779296875</ele>
        <time>2021-05-09T10:19:08.000Z</time>
        <extensions>
          <ns3:TrackPointExtension>
            <ns3:atemp>23.0</ns3:atemp>
          </ns3:TrackPointExtension>
        </extensions>
      </trkpt>
      <trkpt lat="43.11024050228297710418701171875" lon="13.020217381417751312255859375">
        <ele>660</ele>
        <time>2021-05-09T10:19:09.000Z</time>
        <extensions>
          <ns3:TrackPointExtension>
            <ns3:atemp>23.0</ns3:atemp>
          </ns3:TrackPointExtension>
        </extensions>
      </trkpt>
      <trkpt lat="43.11029029078781604766845703125" lon="13.020266331732273101806640625">
        <ele>659.20001220703125</ele>
        <time>2021-05-09T10:19:10.000Z</time>
        <extensions>
          <ns3:TrackPointExtension>
            <ns3:atemp>23.0</ns3:atemp>
          </ns3:TrackPointExtension>
        </extensions>
      </trkpt>
      <trkpt lat="43.11037612147629261016845703125" lon="13.02036314271390438079833984375">
        <ele>658.20001220703125</ele>
        <time>2021-05-09T10:19:12.000Z</time>
        <extensions>
          <ns3:TrackPointExtension>
            <ns3:atemp>23.0</ns3:atemp>
          </ns3:TrackPointExtension>
        </extensions>
      </trkpt>
      <trkpt lat="43.11042440123856067657470703125" lon="13.02041393704712390899658203125">
        <ele>657.5999755859375</ele>
        <time>2021-05-09T10:19:13.000Z</time>
        <extensions>
          <ns3:TrackPointExtension>
            <ns3:atemp>23.0</ns3:atemp>
          </ns3:TrackPointExtension>
        </extensions>
      </trkpt>
      <trkpt lat="43.11047955416142940521240234375" lon="13.0204626359045505523681640625">
        <ele>656.4000244140625</ele>
        <time>2021-05-09T10:19:14.000Z</time>
        <extensions>
          <ns3:TrackPointExtension>
            <ns3:atemp>23.0</ns3:atemp>
          </ns3:TrackPointExtension>
        </extensions>
      </trkpt>
      <trkpt lat="43.110691197216510772705078125" lon="13.02061761729419231414794921875">
        <ele>655</ele>
        <time>2021-05-09T10:19:18.000Z</time>
        <extensions>
          <ns3:TrackPointExtension>
            <ns3:atemp>23.0</ns3:atemp>
          </ns3:TrackPointExtension>
        </extensions>
      </trkpt>
      <trkpt lat="43.11078582890331745147705078125" lon="13.02069774828851222991943359375">
        <ele>653.20001220703125</ele>
        <time>2021-05-09T10:19:20.000Z</time>
        <extensions>
          <ns3:TrackPointExtension>
            <ns3:atemp>23.0</ns3:atemp>
          </ns3:TrackPointExtension>
        </extensions>
      </trkpt>
      <trkpt lat="43.11082941479980945587158203125" lon="13.0207459442317485809326171875">
        <ele>652.4000244140625</ele>
        <time>2021-05-09T10:19:21.000Z</time>
        <extensions>
          <ns3:TrackPointExtension>
            <ns3:atemp>23.0</ns3:atemp>
          </ns3:TrackPointExtension>
        </extensions>
      </trkpt>
      <trkpt lat="43.11086361296474933624267578125" lon="13.02079816348850727081298828125">
        <ele>651.5999755859375</ele>
        <time>2021-05-09T10:19:22.000Z</time>
        <extensions>
          <ns3:TrackPointExtension>
            <ns3:atemp>23.0</ns3:atemp>
          </ns3:TrackPointExtension>
        </extensions>
      </trkpt>
      <trkpt lat="43.110893033444881439208984375" lon="13.0208518914878368377685546875">
        <ele>651.4000244140625</ele>
        <time>2021-05-09T10:19:23.000Z</time>
        <extensions>
          <ns3:TrackPointExtension>
            <ns3:atemp>23.0</ns3:atemp>
          </ns3:TrackPointExtension>
        </extensions>
      </trkpt>
      <trkpt lat="43.1109156645834445953369140625" lon="13.02090293727815151214599609375">
        <ele>650.79998779296875</ele>
        <time>2021-05-09T10:19:24.000Z</time>
        <extensions>
          <ns3:TrackPointExtension>
            <ns3:atemp>23.0</ns3:atemp>
          </ns3:TrackPointExtension>
        </extensions>
      </trkpt>
      <trkpt lat="43.11100694350898265838623046875" lon="13.0210835672914981842041015625">
        <ele>649.4000244140625</ele>
        <time>2021-05-09T10:19:28.000Z</time>
        <extensions>
          <ns3:TrackPointExtension>
            <ns3:atemp>23.0</ns3:atemp>
          </ns3:TrackPointExtension>
        </extensions>
      </trkpt>
      <trkpt lat="43.1110393814742565155029296875" lon="13.021124638617038726806640625">
        <ele>648.4000244140625</ele>
        <time>2021-05-09T10:19:29.000Z</time>
        <extensions>
          <ns3:TrackPointExtension>
            <ns3:atemp>23.0</ns3:atemp>
          </ns3:TrackPointExtension>
        </extensions>
      </trkpt>
      <trkpt lat="43.11107617802917957305908203125" lon="13.02116093225777149200439453125">
        <ele>647.79998779296875</ele>
        <time>2021-05-09T10:19:30.000Z</time>
        <extensions>
          <ns3:TrackPointExtension>
            <ns3:atemp>23.0</ns3:atemp>
          </ns3:TrackPointExtension>
        </extensions>
      </trkpt>
      <trkpt lat="43.111185394227504730224609375" lon="13.0212636105716228485107421875">
        <ele>646.4000244140625</ele>
        <time>2021-05-09T10:19:33.000Z</time>
        <extensions>
          <ns3:TrackPointExtension>
            <ns3:atemp>23.0</ns3:atemp>
          </ns3:TrackPointExtension>
        </extensions>
      </trkpt>
      <trkpt lat="43.1112321652472019195556640625" lon="13.02134449593722820281982421875">
        <ele>645.20001220703125</ele>
        <time>2021-05-09T10:19:35.000Z</time>
        <extensions>
          <ns3:TrackPointExtension>
            <ns3:atemp>23.0</ns3:atemp>
          </ns3:TrackPointExtension>
        </extensions>
      </trkpt>
      <trkpt lat="43.1112626753747463226318359375" lon="13.02141590975224971771240234375">
        <ele>644</ele>
        <time>2021-05-09T10:19:37.000Z</time>
        <extensions>
          <ns3:TrackPointExtension>
            <ns3:atemp>23.0</ns3:atemp>
          </ns3:TrackPointExtension>
        </extensions>
      </trkpt>
      <trkpt lat="43.11127223074436187744140625" lon="13.02144507877528667449951171875">
        <ele>643</ele>
        <time>2021-05-09T10:19:38.000Z</time>
        <extensions>
          <ns3:TrackPointExtension>
            <ns3:atemp>23.0</ns3:atemp>
          </ns3:TrackPointExtension>
        </extensions>
      </trkpt>
      <trkpt lat="43.1112774275243282318115234375" lon="13.021466620266437530517578125">
        <ele>642.20001220703125</ele>
        <time>2021-05-09T10:19:39.000Z</time>
        <extensions>
          <ns3:TrackPointExtension>
            <ns3:atemp>23.0</ns3:atemp>
          </ns3:TrackPointExtension>
        </extensions>
      </trkpt>
      <trkpt lat="43.11128002591431140899658203125" lon="13.0214872397482395172119140625">
        <ele>640.5999755859375</ele>
        <time>2021-05-09T10:19:41.000Z</time>
        <extensions>
          <ns3:TrackPointExtension>
            <ns3:atemp>23.0</ns3:atemp>
          </ns3:TrackPointExtension>
        </extensions>
      </trkpt>
      <trkpt lat="43.11127969063818454742431640625" lon="13.02149134688079357147216796875">
        <ele>639.79998779296875</ele>
        <time>2021-05-09T10:19:42.000Z</time>
        <extensions>
          <ns3:TrackPointExtension>
            <ns3:atemp>23.0</ns3:atemp>
          </ns3:TrackPointExtension>
        </extensions>
      </trkpt>
      <trkpt lat="43.11128019355237483978271484375" lon="13.02149101160466670989990234375">
        <ele>638.5999755859375</ele>
        <time>2021-05-09T10:19:43.000Z</time>
        <extensions>
          <ns3:TrackPointExtension>
            <ns3:atemp>23.0</ns3:atemp>
          </ns3:TrackPointExtension>
        </extensions>
      </trkpt>
      <trkpt lat="43.111279942095279693603515625" lon="13.0214915983378887176513671875">
        <ele>637.5999755859375</ele>
        <time>2021-05-09T10:19:53.000Z</time>
        <extensions>
          <ns3:TrackPointExtension>
            <ns3:atemp>23.0</ns3:atemp>
          </ns3:TrackPointExtension>
        </extensions>
      </trkpt>
      <trkpt lat="43.11127960681915283203125" lon="13.021499812602996826171875">
        <ele>637.5999755859375</ele>
        <time>2021-05-09T10:20:01.000Z</time>
        <extensions>
          <ns3:TrackPointExtension>
            <ns3:atemp>23.0</ns3:atemp>
          </ns3:TrackPointExtension>
        </extensions>
      </trkpt>
      <trkpt lat="43.11128036119043827056884765625" lon="13.0214989744126796722412109375">
        <ele>637.79998779296875</ele>
        <time>2021-05-09T10:20:17.000Z</time>
        <extensions>
          <ns3:TrackPointExtension>
            <ns3:atemp>23.0</ns3:atemp>
          </ns3:TrackPointExtension>
        </extensions>
      </trkpt>
      <trkpt lat="43.111280612647533416748046875" lon="13.02149922586977481842041015625">
        <ele>637.5999755859375</ele>
        <time>2021-05-09T10:20:20.000Z</time>
        <extensions>
          <ns3:TrackPointExtension>
            <ns3:atemp>23.0</ns3:atemp>
          </ns3:TrackPointExtension>
        </extensions>
      </trkpt>
      <trkpt lat="43.11128069646656513214111328125" lon="13.02149914205074310302734375">
        <ele>637.5999755859375</ele>
        <time>2021-05-09T10:20:21.000Z</time>
        <extensions>
          <ns3:TrackPointExtension>
            <ns3:atemp>23.0</ns3:atemp>
          </ns3:TrackPointExtension>
        </extensions>
      </trkpt>
      <trkpt lat="43.1113131344318389892578125" lon="13.0215601623058319091796875">
        <ele>637.5999755859375</ele>
        <time>2021-05-09T10:20:27.000Z</time>
        <extensions>
          <ns3:TrackPointExtension>
            <ns3:atemp>23.0</ns3:atemp>
          </ns3:TrackPointExtension>
        </extensions>
      </trkpt>
      <trkpt lat="43.11140106059610843658447265625" lon="13.0217420496046543121337890625">
        <ele>637.4000244140625</ele>
        <time>2021-05-09T10:20:32.000Z</time>
        <extensions>
          <ns3:TrackPointExtension>
            <ns3:atemp>23.0</ns3:atemp>
          </ns3:TrackPointExtension>
        </extensions>
      </trkpt>
      <trkpt lat="43.1114903278648853302001953125" lon="13.0219207517802715301513671875">
        <ele>636.79998779296875</ele>
        <time>2021-05-09T10:20:35.000Z</time>
        <extensions>
          <ns3:TrackPointExtension>
            <ns3:atemp>23.0</ns3:atemp>
          </ns3:TrackPointExtension>
        </extensions>
      </trkpt>
      <trkpt lat="43.11156199313700199127197265625" lon="13.0220434628427028656005859375">
        <ele>636.4000244140625</ele>
        <time>2021-05-09T10:20:37.000Z</time>
        <extensions>
          <ns3:TrackPointExtension>
            <ns3:atemp>23.0</ns3:atemp>
          </ns3:TrackPointExtension>
        </extensions>
      </trkpt>
      <trkpt lat="43.111633993685245513916015625" lon="13.02216877229511737823486328125">
        <ele>635.5999755859375</ele>
        <time>2021-05-09T10:20:39.000Z</time>
        <extensions>
          <ns3:TrackPointExtension>
            <ns3:atemp>23.0</ns3:atemp>
          </ns3:TrackPointExtension>
        </extensions>
      </trkpt>
      <trkpt lat="43.11170314438641071319580078125" lon="13.02230070345103740692138671875">
        <ele>634.20001220703125</ele>
        <time>2021-05-09T10:20:41.000Z</time>
        <extensions>
          <ns3:TrackPointExtension>
            <ns3:atemp>23.0</ns3:atemp>
          </ns3:TrackPointExtension>
        </extensions>
      </trkpt>
      <trkpt lat="43.11177707277238368988037109375" lon="13.022424168884754180908203125">
        <ele>633</ele>
        <time>2021-05-09T10:20:43.000Z</time>
        <extensions>
          <ns3:TrackPointExtension>
            <ns3:atemp>23.0</ns3:atemp>
          </ns3:TrackPointExtension>
        </extensions>
      </trkpt>
      <trkpt lat="43.11181412078440189361572265625" lon="13.0224806629121303558349609375">
        <ele>632.4000244140625</ele>
        <time>2021-05-09T10:20:44.000Z</time>
        <extensions>
          <ns3:TrackPointExtension>
            <ns3:atemp>23.0</ns3:atemp>
          </ns3:TrackPointExtension>
        </extensions>
      </trkpt>
      <trkpt lat="43.11188553459942340850830078125" lon="13.02257847972214221954345703125">
        <ele>631.4000244140625</ele>
        <time>2021-05-09T10:20:46.000Z</time>
        <extensions>
          <ns3:TrackPointExtension>
            <ns3:atemp>23.0</ns3:atemp>
          </ns3:TrackPointExtension>
        </extensions>
      </trkpt>
      <trkpt lat="43.11192073859274387359619140625" lon="13.0226298607885837554931640625">
        <ele>631.20001220703125</ele>
        <time>2021-05-09T10:20:47.000Z</time>
        <extensions>
          <ns3:TrackPointExtension>
            <ns3:atemp>23.0</ns3:atemp>
          </ns3:TrackPointExtension>
        </extensions>
      </trkpt>
      <trkpt lat="43.1119939126074314117431640625" lon="13.02274511195719242095947265625">
        <ele>630.79998779296875</ele>
        <time>2021-05-09T10:20:49.000Z</time>
        <extensions>
          <ns3:TrackPointExtension>
            <ns3:atemp>23.0</ns3:atemp>
          </ns3:TrackPointExtension>
        </extensions>
      </trkpt>
      <trkpt lat="43.1120378337800502777099609375" lon="13.0228020250797271728515625">
        <ele>630.79998779296875</ele>
        <time>2021-05-09T10:20:50.000Z</time>
        <extensions>
          <ns3:TrackPointExtension>
            <ns3:atemp>23.0</ns3:atemp>
          </ns3:TrackPointExtension>
        </extensions>
      </trkpt>
      <trkpt lat="43.112142942845821380615234375" lon="13.02289523184299468994140625">
        <ele>630.20001220703125</ele>
        <time>2021-05-09T10:20:52.000Z</time>
        <extensions>
          <ns3:TrackPointExtension>
            <ns3:atemp>23.0</ns3:atemp>
          </ns3:TrackPointExtension>
        </extensions>
      </trkpt>
      <trkpt lat="43.1121977604925632476806640625" lon="13.02293219603598117828369140625">
        <ele>630</ele>
        <time>2021-05-09T10:20:53.000Z</time>
        <extensions>
          <ns3:TrackPointExtension>
            <ns3:atemp>23.0</ns3:atemp>
          </ns3:TrackPointExtension>
        </extensions>
      </trkpt>
      <trkpt lat="43.11229993589222431182861328125" lon="13.02301014773547649383544921875">
        <ele>629</ele>
        <time>2021-05-09T10:20:55.000Z</time>
        <extensions>
          <ns3:TrackPointExtension>
            <ns3:atemp>23.0</ns3:atemp>
          </ns3:TrackPointExtension>
        </extensions>
      </trkpt>
      <trkpt lat="43.11238442547619342803955078125" lon="13.02308340556919574737548828125">
        <ele>628.20001220703125</ele>
        <time>2021-05-09T10:20:57.000Z</time>
        <extensions>
          <ns3:TrackPointExtension>
            <ns3:atemp>23.0</ns3:atemp>
          </ns3:TrackPointExtension>
        </extensions>
      </trkpt>
      <trkpt lat="43.11242214404046535491943359375" lon="13.0231225490570068359375">
        <ele>627.79998779296875</ele>
        <time>2021-05-09T10:20:58.000Z</time>
        <extensions>
          <ns3:TrackPointExtension>
            <ns3:atemp>23.0</ns3:atemp>
          </ns3:TrackPointExtension>
        </extensions>
      </trkpt>
      <trkpt lat="43.11245952732861042022705078125" lon="13.02315666340291500091552734375">
        <ele>627.20001220703125</ele>
        <time>2021-05-09T10:20:59.000Z</time>
        <extensions>
          <ns3:TrackPointExtension>
            <ns3:atemp>23.0</ns3:atemp>
          </ns3:TrackPointExtension>
        </extensions>
      </trkpt>
      <trkpt lat="43.1124991737306118011474609375" lon="13.0231850780546665191650390625">
        <ele>626.5999755859375</ele>
        <time>2021-05-09T10:21:00.000Z</time>
        <extensions>
          <ns3:TrackPointExtension>
            <ns3:atemp>23.0</ns3:atemp>
          </ns3:TrackPointExtension>
        </extensions>
      </trkpt>
      <trkpt lat="43.11262163333594799041748046875" lon="13.02325238473713397979736328125">
        <ele>625.5999755859375</ele>
        <time>2021-05-09T10:21:03.000Z</time>
        <extensions>
          <ns3:TrackPointExtension>
            <ns3:atemp>23.0</ns3:atemp>
          </ns3:TrackPointExtension>
        </extensions>
      </trkpt>
      <trkpt lat="43.1126584298908710479736328125" lon="13.0232682265341281890869140625">
        <ele>625.20001220703125</ele>
        <time>2021-05-09T10:21:04.000Z</time>
        <extensions>
          <ns3:TrackPointExtension>
            <ns3:atemp>23.0</ns3:atemp>
          </ns3:TrackPointExtension>
        </extensions>
      </trkpt>
      <trkpt lat="43.112792707979679107666015625" lon="13.02331021986901760101318359375">
        <ele>623.79998779296875</ele>
        <time>2021-05-09T10:21:08.000Z</time>
        <extensions>
          <ns3:TrackPointExtension>
            <ns3:atemp>23.0</ns3:atemp>
          </ns3:TrackPointExtension>
        </extensions>
      </trkpt>
      <trkpt lat="43.11282346956431865692138671875" lon="13.0233262293040752410888671875">
        <ele>623</ele>
        <time>2021-05-09T10:21:09.000Z</time>
        <extensions>
          <ns3:TrackPointExtension>
            <ns3:atemp>23.0</ns3:atemp>
          </ns3:TrackPointExtension>
        </extensions>
      </trkpt>
      <trkpt lat="43.11285716481506824493408203125" lon="13.02335330285131931304931640625">
        <ele>621.5999755859375</ele>
        <time>2021-05-09T10:21:10.000Z</time>
        <extensions>
          <ns3:TrackPointExtension>
            <ns3:atemp>23.0</ns3:atemp>
          </ns3:TrackPointExtension>
        </extensions>
      </trkpt>
      <trkpt lat="43.11291349120438098907470703125" lon="13.023448772728443145751953125">
        <ele>620.5999755859375</ele>
        <time>2021-05-09T10:21:12.000Z</time>
        <extensions>
          <ns3:TrackPointExtension>
            <ns3:atemp>23.0</ns3:atemp>
          </ns3:TrackPointExtension>
        </extensions>
      </trkpt>
      <trkpt lat="43.1129385530948638916015625" lon="13.023509792983531951904296875">
        <ele>620.4000244140625</ele>
        <time>2021-05-09T10:21:13.000Z</time>
        <extensions>
          <ns3:TrackPointExtension>
            <ns3:atemp>23.0</ns3:atemp>
          </ns3:TrackPointExtension>
        </extensions>
      </trkpt>
      <trkpt lat="43.112990520894527435302734375" lon="13.02364516071975231170654296875">
        <ele>619.5999755859375</ele>
        <time>2021-05-09T10:21:15.000Z</time>
        <extensions>
          <ns3:TrackPointExtension>
            <ns3:atemp>23.0</ns3:atemp>
          </ns3:TrackPointExtension>
        </extensions>
      </trkpt>
      <trkpt lat="43.11302798800170421600341796875" lon="13.02380383014678955078125">
        <ele>619</ele>
        <time>2021-05-09T10:21:17.000Z</time>
        <extensions>
          <ns3:TrackPointExtension>
            <ns3:atemp>23.0</ns3:atemp>
          </ns3:TrackPointExtension>
        </extensions>
      </trkpt>
      <trkpt lat="43.11304592527449131011962890625" lon="13.0239599011838436126708984375">
        <ele>618.20001220703125</ele>
        <time>2021-05-09T10:21:19.000Z</time>
        <extensions>
          <ns3:TrackPointExtension>
            <ns3:atemp>23.0</ns3:atemp>
          </ns3:TrackPointExtension>
        </extensions>
      </trkpt>
      <trkpt lat="43.11304978094995021820068359375" lon="13.02403810434043407440185546875">
        <ele>617.79998779296875</ele>
        <time>2021-05-09T10:21:20.000Z</time>
        <extensions>
          <ns3:TrackPointExtension>
            <ns3:atemp>23.0</ns3:atemp>
          </ns3:TrackPointExtension>
        </extensions>
      </trkpt>
      <trkpt lat="43.1130490265786647796630859375" lon="13.024193085730075836181640625">
        <ele>616.5999755859375</ele>
        <time>2021-05-09T10:21:22.000Z</time>
        <extensions>
          <ns3:TrackPointExtension>
            <ns3:atemp>23.0</ns3:atemp>
          </ns3:TrackPointExtension>
        </extensions>
      </trkpt>
      <trkpt lat="43.11304542236030101776123046875" lon="13.02426181733608245849609375">
        <ele>615.79998779296875</ele>
        <time>2021-05-09T10:21:23.000Z</time>
        <extensions>
          <ns3:TrackPointExtension>
            <ns3:atemp>23.0</ns3:atemp>
          </ns3:TrackPointExtension>
        </extensions>
      </trkpt>
      <trkpt lat="43.11304022558033466339111328125" lon="13.0243230052292346954345703125">
        <ele>615</ele>
        <time>2021-05-09T10:21:24.000Z</time>
        <extensions>
          <ns3:TrackPointExtension>
            <ns3:atemp>23.0</ns3:atemp>
          </ns3:TrackPointExtension>
        </extensions>
      </trkpt>
      <trkpt lat="43.11303972266614437103271484375" lon="13.0243791639804840087890625">
        <ele>614.4000244140625</ele>
        <time>2021-05-09T10:21:25.000Z</time>
        <extensions>
          <ns3:TrackPointExtension>
            <ns3:atemp>23.0</ns3:atemp>
          </ns3:TrackPointExtension>
        </extensions>
      </trkpt>
      <trkpt lat="43.113047517836093902587890625" lon="13.02443289197981357574462890625">
        <ele>614</ele>
        <time>2021-05-09T10:21:26.000Z</time>
        <extensions>
          <ns3:TrackPointExtension>
            <ns3:atemp>23.0</ns3:atemp>
          </ns3:TrackPointExtension>
        </extensions>
      </trkpt>
      <trkpt lat="43.1130647845566272735595703125" lon="13.02448200993239879608154296875">
        <ele>613.5999755859375</ele>
        <time>2021-05-09T10:21:27.000Z</time>
        <extensions>
          <ns3:TrackPointExtension>
            <ns3:atemp>23.0</ns3:atemp>
          </ns3:TrackPointExtension>
        </extensions>
      </trkpt>
      <trkpt lat="43.1130993179976940155029296875" lon="13.024584352970123291015625">
        <ele>612.79998779296875</ele>
        <time>2021-05-09T10:21:29.000Z</time>
        <extensions>
          <ns3:TrackPointExtension>
            <ns3:atemp>23.0</ns3:atemp>
          </ns3:TrackPointExtension>
        </extensions>
      </trkpt>
      <trkpt lat="43.11309747397899627685546875" lon="13.024644367396831512451171875">
        <ele>612.5999755859375</ele>
        <time>2021-05-09T10:21:30.000Z</time>
        <extensions>
          <ns3:TrackPointExtension>
            <ns3:atemp>23.0</ns3:atemp>
          </ns3:TrackPointExtension>
        </extensions>
      </trkpt>
      <trkpt lat="43.1130914390087127685546875" lon="13.02475802600383758544921875">
        <ele>612.20001220703125</ele>
        <time>2021-05-09T10:21:32.000Z</time>
        <extensions>
          <ns3:TrackPointExtension>
            <ns3:atemp>23.0</ns3:atemp>
          </ns3:TrackPointExtension>
        </extensions>
      </trkpt>
      <trkpt lat="43.11311767436563968658447265625" lon="13.02486506290733814239501953125">
        <ele>611.5999755859375</ele>
        <time>2021-05-09T10:21:34.000Z</time>
        <extensions>
          <ns3:TrackPointExtension>
            <ns3:atemp>23.0</ns3:atemp>
          </ns3:TrackPointExtension>
        </extensions>
      </trkpt>
      <trkpt lat="43.11321674846112728118896484375" lon="13.0250529013574123382568359375">
        <ele>610.4000244140625</ele>
        <time>2021-05-09T10:21:38.000Z</time>
        <extensions>
          <ns3:TrackPointExtension>
            <ns3:atemp>23.0</ns3:atemp>
          </ns3:TrackPointExtension>
        </extensions>
      </trkpt>
      <trkpt lat="43.1132404692471027374267578125" lon="13.025085926055908203125">
        <ele>610</ele>
        <time>2021-05-09T10:21:39.000Z</time>
        <extensions>
          <ns3:TrackPointExtension>
            <ns3:atemp>23.0</ns3:atemp>
          </ns3:TrackPointExtension>
        </extensions>
      </trkpt>
      <trkpt lat="43.11327005736529827117919921875" lon="13.02514518611133098602294921875">
        <ele>609</ele>
        <time>2021-05-09T10:21:41.000Z</time>
        <extensions>
          <ns3:TrackPointExtension>
            <ns3:atemp>23.0</ns3:atemp>
          </ns3:TrackPointExtension>
        </extensions>
      </trkpt>
      <trkpt lat="43.11330090276896953582763671875" lon="13.025182820856571197509765625">
        <ele>607.79998779296875</ele>
        <time>2021-05-09T10:21:43.000Z</time>
        <extensions>
          <ns3:TrackPointExtension>
            <ns3:atemp>23.0</ns3:atemp>
          </ns3:TrackPointExtension>
        </extensions>
      </trkpt>
      <trkpt lat="43.11331272125244140625" lon="13.025249540805816650390625">
        <ele>606.5999755859375</ele>
        <time>2021-05-09T10:21:45.000Z</time>
        <extensions>
          <ns3:TrackPointExtension>
            <ns3:atemp>23.0</ns3:atemp>
          </ns3:TrackPointExtension>
        </extensions>
      </trkpt>
      <trkpt lat="43.11331607401371002197265625" lon="13.02529002539813518524169921875">
        <ele>606.20001220703125</ele>
        <time>2021-05-09T10:21:46.000Z</time>
        <extensions>
          <ns3:TrackPointExtension>
            <ns3:atemp>23.0</ns3:atemp>
          </ns3:TrackPointExtension>
        </extensions>
      </trkpt>
      <trkpt lat="43.11331741511821746826171875" lon="13.02533344365656375885009765625">
        <ele>606</ele>
        <time>2021-05-09T10:21:47.000Z</time>
        <extensions>
          <ns3:TrackPointExtension>
            <ns3:atemp>23.0</ns3:atemp>
          </ns3:TrackPointExtension>
        </extensions>
      </trkpt>
      <trkpt lat="43.113302327692508697509765625" lon="13.02543754689395427703857421875">
        <ele>605.4000244140625</ele>
        <time>2021-05-09T10:21:49.000Z</time>
        <extensions>
          <ns3:TrackPointExtension>
            <ns3:atemp>23.0</ns3:atemp>
          </ns3:TrackPointExtension>
        </extensions>
      </trkpt>
      <trkpt lat="43.11325706541538238525390625" lon="13.02554634399712085723876953125">
        <ele>604.79998779296875</ele>
        <time>2021-05-09T10:21:51.000Z</time>
        <extensions>
          <ns3:TrackPointExtension>
            <ns3:atemp>23.0</ns3:atemp>
          </ns3:TrackPointExtension>
        </extensions>
      </trkpt>
      <trkpt lat="43.113193698227405548095703125" lon="13.0256617628037929534912109375">
        <ele>604</ele>
        <time>2021-05-09T10:21:53.000Z</time>
        <extensions>
          <ns3:TrackPointExtension>
            <ns3:atemp>23.0</ns3:atemp>
          </ns3:TrackPointExtension>
        </extensions>
      </trkpt>
      <trkpt lat="43.11314080841839313507080078125" lon="13.02578170783817768096923828125">
        <ele>602</ele>
        <time>2021-05-09T10:21:55.000Z</time>
        <extensions>
          <ns3:TrackPointExtension>
            <ns3:atemp>23.0</ns3:atemp>
          </ns3:TrackPointExtension>
        </extensions>
      </trkpt>
      <trkpt lat="43.11311784200370311737060546875" lon="13.02583384327590465545654296875">
        <ele>601.20001220703125</ele>
        <time>2021-05-09T10:21:56.000Z</time>
        <extensions>
          <ns3:TrackPointExtension>
            <ns3:atemp>23.0</ns3:atemp>
          </ns3:TrackPointExtension>
        </extensions>
      </trkpt>
      <trkpt lat="43.11309588141739368438720703125" lon="13.02588011138141155242919921875">
        <ele>600.20001220703125</ele>
        <time>2021-05-09T10:21:57.000Z</time>
        <extensions>
          <ns3:TrackPointExtension>
            <ns3:atemp>23.0</ns3:atemp>
          </ns3:TrackPointExtension>
        </extensions>
      </trkpt>
      <trkpt lat="43.11306126415729522705078125" lon="13.0259561352431774139404296875">
        <ele>598.20001220703125</ele>
        <time>2021-05-09T10:21:59.000Z</time>
        <extensions>
          <ns3:TrackPointExtension>
            <ns3:atemp>23.0</ns3:atemp>
          </ns3:TrackPointExtension>
        </extensions>
      </trkpt>
      <trkpt lat="43.11304223723709583282470703125" lon="13.02599678747355937957763671875">
        <ele>597.4000244140625</ele>
        <time>2021-05-09T10:22:00.000Z</time>
        <extensions>
          <ns3:TrackPointExtension>
            <ns3:atemp>23.0</ns3:atemp>
          </ns3:TrackPointExtension>
        </extensions>
      </trkpt>
      <trkpt lat="43.1130225397646427154541015625" lon="13.0260412953794002532958984375">
        <ele>596</ele>
        <time>2021-05-09T10:22:01.000Z</time>
        <extensions>
          <ns3:TrackPointExtension>
            <ns3:atemp>23.0</ns3:atemp>
          </ns3:TrackPointExtension>
        </extensions>
      </trkpt>
      <trkpt lat="43.11300535686314105987548828125" lon="13.02608630619943141937255859375">
        <ele>595</ele>
        <time>2021-05-09T10:22:02.000Z</time>
        <extensions>
          <ns3:TrackPointExtension>
            <ns3:atemp>23.0</ns3:atemp>
          </ns3:TrackPointExtension>
        </extensions>
      </trkpt>
      <trkpt lat="43.1129940412938594818115234375" lon="13.02613710053265094757080078125">
        <ele>594.20001220703125</ele>
        <time>2021-05-09T10:22:03.000Z</time>
        <extensions>
          <ns3:TrackPointExtension>
            <ns3:atemp>23.0</ns3:atemp>
          </ns3:TrackPointExtension>
        </extensions>
      </trkpt>
      <trkpt lat="43.11299630440771579742431640625" lon="13.02619225345551967620849609375">
        <ele>593.4000244140625</ele>
        <time>2021-05-09T10:22:04.000Z</time>
        <extensions>
          <ns3:TrackPointExtension>
            <ns3:atemp>23.0</ns3:atemp>
          </ns3:TrackPointExtension>
        </extensions>
      </trkpt>
      <trkpt lat="43.11301256529986858367919921875" lon="13.0262552015483379364013671875">
        <ele>592.4000244140625</ele>
        <time>2021-05-09T10:22:05.000Z</time>
        <extensions>
          <ns3:TrackPointExtension>
            <ns3:atemp>23.0</ns3:atemp>
          </ns3:TrackPointExtension>
        </extensions>
      </trkpt>
      <trkpt lat="43.113037459552288055419921875" lon="13.02632586099207401275634765625">
        <ele>592</ele>
        <time>2021-05-09T10:22:06.000Z</time>
        <extensions>
          <ns3:TrackPointExtension>
            <ns3:atemp>23.0</ns3:atemp>
          </ns3:TrackPointExtension>
        </extensions>
      </trkpt>
      <trkpt lat="43.1130617670714855194091796875" lon="13.02638956345617771148681640625">
        <ele>591.4000244140625</ele>
        <time>2021-05-09T10:22:07.000Z</time>
        <extensions>
          <ns3:TrackPointExtension>
            <ns3:atemp>23.0</ns3:atemp>
          </ns3:TrackPointExtension>
        </extensions>
      </trkpt>
      <trkpt lat="43.11308565549552440643310546875" lon="13.026448823511600494384765625">
        <ele>589.5999755859375</ele>
        <time>2021-05-09T10:22:08.000Z</time>
        <extensions>
          <ns3:TrackPointExtension>
            <ns3:atemp>23.0</ns3:atemp>
          </ns3:TrackPointExtension>
        </extensions>
      </trkpt>
      <trkpt lat="43.1130986474454402923583984375" lon="13.0264981091022491455078125">
        <ele>588.4000244140625</ele>
        <time>2021-05-09T10:22:09.000Z</time>
        <extensions>
          <ns3:TrackPointExtension>
            <ns3:atemp>23.0</ns3:atemp>
          </ns3:TrackPointExtension>
        </extensions>
      </trkpt>
      <trkpt lat="43.1131046824157238006591796875" lon="13.0265356600284576416015625">
        <ele>587.4000244140625</ele>
        <time>2021-05-09T10:22:10.000Z</time>
        <extensions>
          <ns3:TrackPointExtension>
            <ns3:atemp>23.0</ns3:atemp>
          </ns3:TrackPointExtension>
        </extensions>
      </trkpt>
      <trkpt lat="43.113107867538928985595703125" lon="13.026567511260509490966796875">
        <ele>586</ele>
        <time>2021-05-09T10:22:11.000Z</time>
        <extensions>
          <ns3:TrackPointExtension>
            <ns3:atemp>23.0</ns3:atemp>
          </ns3:TrackPointExtension>
        </extensions>
      </trkpt>
      <trkpt lat="43.1131046824157238006591796875" lon="13.0266018770635128021240234375">
        <ele>584.5999755859375</ele>
        <time>2021-05-09T10:22:12.000Z</time>
        <extensions>
          <ns3:TrackPointExtension>
            <ns3:atemp>23.0</ns3:atemp>
          </ns3:TrackPointExtension>
        </extensions>
      </trkpt>
      <trkpt lat="43.1131021678447723388671875" lon="13.02664839662611484527587890625">
        <ele>583.20001220703125</ele>
        <time>2021-05-09T10:22:13.000Z</time>
        <extensions>
          <ns3:TrackPointExtension>
            <ns3:atemp>23.0</ns3:atemp>
          </ns3:TrackPointExtension>
        </extensions>
      </trkpt>
      <trkpt lat="43.11311381869018077850341796875" lon="13.0266967602074146270751953125">
        <ele>581.79998779296875</ele>
        <time>2021-05-09T10:22:14.000Z</time>
        <extensions>
          <ns3:TrackPointExtension>
            <ns3:atemp>23.0</ns3:atemp>
          </ns3:TrackPointExtension>
        </extensions>
      </trkpt>
      <trkpt lat="43.113168217241764068603515625" lon="13.02679608575999736785888671875">
        <ele>580.20001220703125</ele>
        <time>2021-05-09T10:22:16.000Z</time>
        <extensions>
          <ns3:TrackPointExtension>
            <ns3:atemp>23.0</ns3:atemp>
          </ns3:TrackPointExtension>
        </extensions>
      </trkpt>
      <trkpt lat="43.11327181756496429443359375" lon="13.02699490450322628021240234375">
        <ele>579</ele>
        <time>2021-05-09T10:22:19.000Z</time>
        <extensions>
          <ns3:TrackPointExtension>
            <ns3:atemp>23.0</ns3:atemp>
          </ns3:TrackPointExtension>
        </extensions>
      </trkpt>
      <trkpt lat="43.1133477576076984405517578125" lon="13.02714376710355281829833984375">
        <ele>578.4000244140625</ele>
        <time>2021-05-09T10:22:21.000Z</time>
        <extensions>
          <ns3:TrackPointExtension>
            <ns3:atemp>23.0</ns3:atemp>
          </ns3:TrackPointExtension>
        </extensions>
      </trkpt>
      <trkpt lat="43.1134476698935031890869140625" lon="13.02726094610989093780517578125">
        <ele>577.79998779296875</ele>
        <time>2021-05-09T10:22:23.000Z</time>
        <extensions>
          <ns3:TrackPointExtension>
            <ns3:atemp>23.0</ns3:atemp>
          </ns3:TrackPointExtension>
        </extensions>
      </trkpt>
      <trkpt lat="43.11350248754024505615234375" lon="13.02730788476765155792236328125">
        <ele>577.4000244140625</ele>
        <time>2021-05-09T10:22:24.000Z</time>
        <extensions>
          <ns3:TrackPointExtension>
            <ns3:atemp>23.0</ns3:atemp>
          </ns3:TrackPointExtension>
        </extensions>
      </trkpt>
      <trkpt lat="43.11356015503406524658203125" lon="13.02735172212123870849609375">
        <ele>577</ele>
        <time>2021-05-09T10:22:25.000Z</time>
        <extensions>
          <ns3:TrackPointExtension>
            <ns3:atemp>24.0</ns3:atemp>
          </ns3:TrackPointExtension>
        </extensions>
      </trkpt>
      <trkpt lat="43.11361840926110744476318359375" lon="13.02739455364644527435302734375">
        <ele>576.4000244140625</ele>
        <time>2021-05-09T10:22:26.000Z</time>
        <extensions>
          <ns3:TrackPointExtension>
            <ns3:atemp>24.0</ns3:atemp>
          </ns3:TrackPointExtension>
        </extensions>
      </trkpt>
      <trkpt lat="43.11373525299131870269775390625" lon="13.027477450668811798095703125">
        <ele>575</ele>
        <time>2021-05-09T10:22:28.000Z</time>
        <extensions>
          <ns3:TrackPointExtension>
            <ns3:atemp>23.0</ns3:atemp>
          </ns3:TrackPointExtension>
        </extensions>
      </trkpt>
      <trkpt lat="43.11385779641568660736083984375" lon="13.02757040597498416900634765625">
        <ele>573.4000244140625</ele>
        <time>2021-05-09T10:22:30.000Z</time>
        <extensions>
          <ns3:TrackPointExtension>
            <ns3:atemp>24.0</ns3:atemp>
          </ns3:TrackPointExtension>
        </extensions>
      </trkpt>
      <trkpt lat="43.11391688883304595947265625" lon="13.02762857638299465179443359375">
        <ele>572.79998779296875</ele>
        <time>2021-05-09T10:22:31.000Z</time>
        <extensions>
          <ns3:TrackPointExtension>
            <ns3:atemp>23.0</ns3:atemp>
          </ns3:TrackPointExtension>
        </extensions>
      </trkpt>
      <trkpt lat="43.113974891602993011474609375" lon="13.02769177593290805816650390625">
        <ele>572.4000244140625</ele>
        <time>2021-05-09T10:22:32.000Z</time>
        <extensions>
          <ns3:TrackPointExtension>
            <ns3:atemp>23.0</ns3:atemp>
          </ns3:TrackPointExtension>
        </extensions>
      </trkpt>
      <trkpt lat="43.11408846639096736907958984375" lon="13.0278232879936695098876953125">
        <ele>570.5999755859375</ele>
        <time>2021-05-09T10:22:34.000Z</time>
        <extensions>
          <ns3:TrackPointExtension>
            <ns3:atemp>23.0</ns3:atemp>
          </ns3:TrackPointExtension>
        </extensions>
      </trkpt>
      <trkpt lat="43.11424252577126026153564453125" lon="13.028034679591655731201171875">
        <ele>569</ele>
        <time>2021-05-09T10:22:37.000Z</time>
        <extensions>
          <ns3:TrackPointExtension>
            <ns3:atemp>23.0</ns3:atemp>
          </ns3:TrackPointExtension>
        </extensions>
      </trkpt>
      <trkpt lat="43.1142825074493885040283203125" lon="13.02812377922236919403076171875">
        <ele>568.20001220703125</ele>
        <time>2021-05-09T10:22:38.000Z</time>
        <extensions>
          <ns3:TrackPointExtension>
            <ns3:atemp>23.0</ns3:atemp>
          </ns3:TrackPointExtension>
        </extensions>
      </trkpt>
      <trkpt lat="43.11430421657860279083251953125" lon="13.0282266251742839813232421875">
        <ele>567.20001220703125</ele>
        <time>2021-05-09T10:22:39.000Z</time>
        <extensions>
          <ns3:TrackPointExtension>
            <ns3:atemp>23.0</ns3:atemp>
          </ns3:TrackPointExtension>
        </extensions>
      </trkpt>
      <trkpt lat="43.11431125737726688385009765625" lon="13.02844874560832977294921875">
        <ele>565.79998779296875</ele>
        <time>2021-05-09T10:22:41.000Z</time>
        <extensions>
          <ns3:TrackPointExtension>
            <ns3:atemp>23.0</ns3:atemp>
          </ns3:TrackPointExtension>
        </extensions>
      </trkpt>
      <trkpt lat="43.1143210642039775848388671875" lon="13.02879952825605869293212890625">
        <ele>564.4000244140625</ele>
        <time>2021-05-09T10:22:44.000Z</time>
        <extensions>
          <ns3:TrackPointExtension>
            <ns3:atemp>23.0</ns3:atemp>
          </ns3:TrackPointExtension>
        </extensions>
      </trkpt>
      <trkpt lat="43.11436791904270648956298828125" lon="13.02902969531714916229248046875">
        <ele>563.4000244140625</ele>
        <time>2021-05-09T10:22:46.000Z</time>
        <extensions>
          <ns3:TrackPointExtension>
            <ns3:atemp>23.0</ns3:atemp>
          </ns3:TrackPointExtension>
        </extensions>
      </trkpt>
      <trkpt lat="43.1144363991916179656982421875" lon="13.02925868891179561614990234375">
        <ele>562.20001220703125</ele>
        <time>2021-05-09T10:22:48.000Z</time>
        <extensions>
          <ns3:TrackPointExtension>
            <ns3:atemp>23.0</ns3:atemp>
          </ns3:TrackPointExtension>
        </extensions>
      </trkpt>
      <trkpt lat="43.11451460234820842742919921875" lon="13.029492460191249847412109375">
        <ele>560.4000244140625</ele>
        <time>2021-05-09T10:22:50.000Z</time>
        <extensions>
          <ns3:TrackPointExtension>
            <ns3:atemp>23.0</ns3:atemp>
          </ns3:TrackPointExtension>
        </extensions>
      </trkpt>
      <trkpt lat="43.1145973317325115203857421875" lon="13.029728494584560394287109375">
        <ele>559.20001220703125</ele>
        <time>2021-05-09T10:22:52.000Z</time>
        <extensions>
          <ns3:TrackPointExtension>
            <ns3:atemp>23.0</ns3:atemp>
          </ns3:TrackPointExtension>
        </extensions>
      </trkpt>
      <trkpt lat="43.11472557485103607177734375" lon="13.03009872324764728546142578125">
        <ele>557.4000244140625</ele>
        <time>2021-05-09T10:22:55.000Z</time>
        <extensions>
          <ns3:TrackPointExtension>
            <ns3:atemp>23.0</ns3:atemp>
          </ns3:TrackPointExtension>
        </extensions>
      </trkpt>
      <trkpt lat="43.114813752472400665283203125" lon="13.0303522758185863494873046875">
        <ele>555.5999755859375</ele>
        <time>2021-05-09T10:22:57.000Z</time>
        <extensions>
          <ns3:TrackPointExtension>
            <ns3:atemp>23.0</ns3:atemp>
          </ns3:TrackPointExtension>
        </extensions>
      </trkpt>
      <trkpt lat="43.1149047799408435821533203125" lon="13.03061035461723804473876953125">
        <ele>554</ele>
        <time>2021-05-09T10:22:59.000Z</time>
        <extensions>
          <ns3:TrackPointExtension>
            <ns3:atemp>23.0</ns3:atemp>
          </ns3:TrackPointExtension>
        </extensions>
      </trkpt>
      <trkpt lat="43.11507568694651126861572265625" lon="13.03114444948732852935791015625">
        <ele>552.20001220703125</ele>
        <time>2021-05-09T10:23:03.000Z</time>
        <extensions>
          <ns3:TrackPointExtension>
            <ns3:atemp>23.0</ns3:atemp>
          </ns3:TrackPointExtension>
        </extensions>
      </trkpt>
      <trkpt lat="43.11510602943599224090576171875" lon="13.03128543309867382049560546875">
        <ele>551</ele>
        <time>2021-05-09T10:23:04.000Z</time>
        <extensions>
          <ns3:TrackPointExtension>
            <ns3:atemp>23.0</ns3:atemp>
          </ns3:TrackPointExtension>
        </extensions>
      </trkpt>
      <trkpt lat="43.11513234861195087432861328125" lon="13.03142775781452655792236328125">
        <ele>549.5999755859375</ele>
        <time>2021-05-09T10:23:05.000Z</time>
        <extensions>
          <ns3:TrackPointExtension>
            <ns3:atemp>23.0</ns3:atemp>
          </ns3:TrackPointExtension>
        </extensions>
      </trkpt>
      <trkpt lat="43.1151498667895793914794921875" lon="13.03157142363488674163818359375">
        <ele>549</ele>
        <time>2021-05-09T10:23:06.000Z</time>
        <extensions>
          <ns3:TrackPointExtension>
            <ns3:atemp>23.0</ns3:atemp>
          </ns3:TrackPointExtension>
        </extensions>
      </trkpt>
      <trkpt lat="43.1151594221591949462890625" lon="13.03171324543654918670654296875">
        <ele>548.4000244140625</ele>
        <time>2021-05-09T10:23:07.000Z</time>
        <extensions>
          <ns3:TrackPointExtension>
            <ns3:atemp>23.0</ns3:atemp>
          </ns3:TrackPointExtension>
        </extensions>
      </trkpt>
      <trkpt lat="43.1151662953197956085205078125" lon="13.0318512953817844390869140625">
        <ele>547.5999755859375</ele>
        <time>2021-05-09T10:23:08.000Z</time>
        <extensions>
          <ns3:TrackPointExtension>
            <ns3:atemp>23.0</ns3:atemp>
          </ns3:TrackPointExtension>
        </extensions>
      </trkpt>
      <trkpt lat="43.11517073772847652435302734375" lon="13.031984902918338775634765625">
        <ele>546.79998779296875</ele>
        <time>2021-05-09T10:23:09.000Z</time>
        <extensions>
          <ns3:TrackPointExtension>
            <ns3:atemp>23.0</ns3:atemp>
          </ns3:TrackPointExtension>
        </extensions>
      </trkpt>
      <trkpt lat="43.11517191119492053985595703125" lon="13.03211264312267303466796875">
        <ele>545.79998779296875</ele>
        <time>2021-05-09T10:23:10.000Z</time>
        <extensions>
          <ns3:TrackPointExtension>
            <ns3:atemp>23.0</ns3:atemp>
          </ns3:TrackPointExtension>
        </extensions>
      </trkpt>
      <trkpt lat="43.115167804062366485595703125" lon="13.03235194645822048187255859375">
        <ele>544</ele>
        <time>2021-05-09T10:23:12.000Z</time>
        <extensions>
          <ns3:TrackPointExtension>
            <ns3:atemp>23.0</ns3:atemp>
          </ns3:TrackPointExtension>
        </extensions>
      </trkpt>
      <trkpt lat="43.11514508910477161407470703125" lon="13.0324660241603851318359375">
        <ele>543.4000244140625</ele>
        <time>2021-05-09T10:23:13.000Z</time>
        <extensions>
          <ns3:TrackPointExtension>
            <ns3:atemp>23.0</ns3:atemp>
          </ns3:TrackPointExtension>
        </extensions>
      </trkpt>
      <trkpt lat="43.115008883178234100341796875" lon="13.032633997499942779541015625">
        <ele>542.5999755859375</ele>
        <time>2021-05-09T10:23:15.000Z</time>
        <extensions>
          <ns3:TrackPointExtension>
            <ns3:atemp>23.0</ns3:atemp>
          </ns3:TrackPointExtension>
        </extensions>
      </trkpt>
      <trkpt lat="43.1149202026426792144775390625" lon="13.0327005498111248016357421875">
        <ele>542.4000244140625</ele>
        <time>2021-05-09T10:23:16.000Z</time>
        <extensions>
          <ns3:TrackPointExtension>
            <ns3:atemp>23.0</ns3:atemp>
          </ns3:TrackPointExtension>
        </extensions>
      </trkpt>
      <trkpt lat="43.11483420431613922119140625" lon="13.03277573548257350921630859375">
        <ele>542.20001220703125</ele>
        <time>2021-05-09T10:23:17.000Z</time>
        <extensions>
          <ns3:TrackPointExtension>
            <ns3:atemp>23.0</ns3:atemp>
          </ns3:TrackPointExtension>
        </extensions>
      </trkpt>
      <trkpt lat="43.11467603780329227447509765625" lon="13.0329687707126140594482421875">
        <ele>541.20001220703125</ele>
        <time>2021-05-09T10:23:19.000Z</time>
        <extensions>
          <ns3:TrackPointExtension>
            <ns3:atemp>23.0</ns3:atemp>
          </ns3:TrackPointExtension>
        </extensions>
      </trkpt>
      <trkpt lat="43.11455081216990947723388671875" lon="13.03319893777370452880859375">
        <ele>540.20001220703125</ele>
        <time>2021-05-09T10:23:21.000Z</time>
        <extensions>
          <ns3:TrackPointExtension>
            <ns3:atemp>23.0</ns3:atemp>
          </ns3:TrackPointExtension>
        </extensions>
      </trkpt>
      <trkpt lat="43.11445123516023159027099609375" lon="13.0334522388875484466552734375">
        <ele>539.4000244140625</ele>
        <time>2021-05-09T10:23:23.000Z</time>
        <extensions>
          <ns3:TrackPointExtension>
            <ns3:atemp>23.0</ns3:atemp>
          </ns3:TrackPointExtension>
        </extensions>
      </trkpt>
      <trkpt lat="43.1143998540937900543212890625" lon="13.03357712924480438232421875">
        <ele>538.4000244140625</ele>
        <time>2021-05-09T10:23:24.000Z</time>
        <extensions>
          <ns3:TrackPointExtension>
            <ns3:atemp>23.0</ns3:atemp>
          </ns3:TrackPointExtension>
        </extensions>
      </trkpt>
      <trkpt lat="43.1143431924283504486083984375" lon="13.03370453417301177978515625">
        <ele>537.4000244140625</ele>
        <time>2021-05-09T10:23:25.000Z</time>
        <extensions>
          <ns3:TrackPointExtension>
            <ns3:atemp>23.0</ns3:atemp>
          </ns3:TrackPointExtension>
        </extensions>
      </trkpt>
      <trkpt lat="43.1142774783074855804443359375" lon="13.03382716141641139984130859375">
        <ele>536.20001220703125</ele>
        <time>2021-05-09T10:23:26.000Z</time>
        <extensions>
          <ns3:TrackPointExtension>
            <ns3:atemp>23.0</ns3:atemp>
          </ns3:TrackPointExtension>
        </extensions>
      </trkpt>
      <trkpt lat="43.11420329846441745758056640625" lon="13.03394467569887638092041015625">
        <ele>535.4000244140625</ele>
        <time>2021-05-09T10:23:27.000Z</time>
        <extensions>
          <ns3:TrackPointExtension>
            <ns3:atemp>23.0</ns3:atemp>
          </ns3:TrackPointExtension>
        </extensions>
      </trkpt>
      <trkpt lat="43.114125765860080718994140625" lon="13.03406017832458019256591796875">
        <ele>534.79998779296875</ele>
        <time>2021-05-09T10:23:28.000Z</time>
        <extensions>
          <ns3:TrackPointExtension>
            <ns3:atemp>23.0</ns3:atemp>
          </ns3:TrackPointExtension>
        </extensions>
      </trkpt>
      <trkpt lat="43.11397430486977100372314453125" lon="13.03429654799401760101318359375">
        <ele>533.5999755859375</ele>
        <time>2021-05-09T10:23:30.000Z</time>
        <extensions>
          <ns3:TrackPointExtension>
            <ns3:atemp>23.0</ns3:atemp>
          </ns3:TrackPointExtension>
        </extensions>
      </trkpt>
      <trkpt lat="43.1137668527662754058837890625" lon="13.03466551937162876129150390625">
        <ele>532.20001220703125</ele>
        <time>2021-05-09T10:23:33.000Z</time>
        <extensions>
          <ns3:TrackPointExtension>
            <ns3:atemp>23.0</ns3:atemp>
          </ns3:TrackPointExtension>
        </extensions>
      </trkpt>
      <trkpt lat="43.11363793909549713134765625" lon="13.03489317186176776885986328125">
        <ele>530.79998779296875</ele>
        <time>2021-05-09T10:23:35.000Z</time>
        <extensions>
          <ns3:TrackPointExtension>
            <ns3:atemp>23.0</ns3:atemp>
          </ns3:TrackPointExtension>
        </extensions>
      </trkpt>
      <trkpt lat="43.1135207600891590118408203125" lon="13.0350984446704387664794921875">
        <ele>529.5999755859375</ele>
        <time>2021-05-09T10:23:37.000Z</time>
        <extensions>
          <ns3:TrackPointExtension>
            <ns3:atemp>23.0</ns3:atemp>
          </ns3:TrackPointExtension>
        </extensions>
      </trkpt>
      <trkpt lat="43.11346351169049739837646484375" lon="13.03518804721534252166748046875">
        <ele>529.20001220703125</ele>
        <time>2021-05-09T10:23:38.000Z</time>
        <extensions>
          <ns3:TrackPointExtension>
            <ns3:atemp>23.0</ns3:atemp>
          </ns3:TrackPointExtension>
        </extensions>
      </trkpt>
      <trkpt lat="43.11319830827414989471435546875" lon="13.035587780177593231201171875">
        <ele>528.79998779296875</ele>
        <time>2021-05-09T10:23:43.000Z</time>
        <extensions>
          <ns3:TrackPointExtension>
            <ns3:atemp>23.0</ns3:atemp>
          </ns3:TrackPointExtension>
        </extensions>
      </trkpt>
      <trkpt lat="43.11304894275963306427001953125" lon="13.03586446680128574371337890625">
        <ele>528.4000244140625</ele>
        <time>2021-05-09T10:23:46.000Z</time>
        <extensions>
          <ns3:TrackPointExtension>
            <ns3:atemp>23.0</ns3:atemp>
          </ns3:TrackPointExtension>
        </extensions>
      </trkpt>
      <trkpt lat="43.1130067817866802215576171875" lon="13.03596840240061283111572265625">
        <ele>528.4000244140625</ele>
        <time>2021-05-09T10:23:47.000Z</time>
        <extensions>
          <ns3:TrackPointExtension>
            <ns3:atemp>23.0</ns3:atemp>
          </ns3:TrackPointExtension>
        </extensions>
      </trkpt>
      <trkpt lat="43.112851716578006744384765625" lon="13.03650450892746448516845703125">
        <ele>527.79998779296875</ele>
        <time>2021-05-09T10:23:52.000Z</time>
        <extensions>
          <ns3:TrackPointExtension>
            <ns3:atemp>23.0</ns3:atemp>
          </ns3:TrackPointExtension>
        </extensions>
      </trkpt>
      <trkpt lat="43.11281458474695682525634765625" lon="13.03671506233513355255126953125">
        <ele>527.4000244140625</ele>
        <time>2021-05-09T10:23:54.000Z</time>
        <extensions>
          <ns3:TrackPointExtension>
            <ns3:atemp>23.0</ns3:atemp>
          </ns3:TrackPointExtension>
        </extensions>
      </trkpt>
      <trkpt lat="43.11276395805180072784423828125" lon="13.0369987897574901580810546875">
        <ele>526.5999755859375</ele>
        <time>2021-05-09T10:23:57.000Z</time>
        <extensions>
          <ns3:TrackPointExtension>
            <ns3:atemp>23.0</ns3:atemp>
          </ns3:TrackPointExtension>
        </extensions>
      </trkpt>
      <trkpt lat="43.1126916222274303436279296875" lon="13.0374383367598056793212890625">
        <ele>526.5999755859375</ele>
        <time>2021-05-09T10:24:03.000Z</time>
        <extensions>
          <ns3:TrackPointExtension>
            <ns3:atemp>23.0</ns3:atemp>
          </ns3:TrackPointExtension>
        </extensions>
      </trkpt>
      <trkpt lat="43.112751133739948272705078125" lon="13.03758275695145130157470703125">
        <ele>526.5999755859375</ele>
        <time>2021-05-09T10:24:06.000Z</time>
        <extensions>
          <ns3:TrackPointExtension>
            <ns3:atemp>23.0</ns3:atemp>
          </ns3:TrackPointExtension>
        </extensions>
      </trkpt>
      <trkpt lat="43.11282430775463581085205078125" lon="13.03765802644193172454833984375">
        <ele>526.5999755859375</ele>
        <time>2021-05-09T10:24:08.000Z</time>
        <extensions>
          <ns3:TrackPointExtension>
            <ns3:atemp>23.0</ns3:atemp>
          </ns3:TrackPointExtension>
        </extensions>
      </trkpt>
      <trkpt lat="43.1129420734941959381103515625" lon="13.03776808083057403564453125">
        <ele>526.5999755859375</ele>
        <time>2021-05-09T10:24:11.000Z</time>
        <extensions>
          <ns3:TrackPointExtension>
            <ns3:atemp>23.0</ns3:atemp>
          </ns3:TrackPointExtension>
        </extensions>
      </trkpt>
      <trkpt lat="43.1131378747522830963134765625" lon="13.0379283428192138671875">
        <ele>526.4000244140625</ele>
        <time>2021-05-09T10:24:16.000Z</time>
        <extensions>
          <ns3:TrackPointExtension>
            <ns3:atemp>23.0</ns3:atemp>
          </ns3:TrackPointExtension>
        </extensions>
      </trkpt>
      <trkpt lat="43.11317970044910907745361328125" lon="13.03795122541487216949462890625">
        <ele>526.4000244140625</ele>
        <time>2021-05-09T10:24:17.000Z</time>
        <extensions>
          <ns3:TrackPointExtension>
            <ns3:atemp>23.0</ns3:atemp>
          </ns3:TrackPointExtension>
        </extensions>
      </trkpt>
      <trkpt lat="43.113221190869808197021484375" lon="13.037977628409862518310546875">
        <ele>526.4000244140625</ele>
        <time>2021-05-09T10:24:18.000Z</time>
        <extensions>
          <ns3:TrackPointExtension>
            <ns3:atemp>23.0</ns3:atemp>
          </ns3:TrackPointExtension>
        </extensions>
      </trkpt>
      <trkpt lat="43.11326184310019016265869140625" lon="13.03800587542355060577392578125">
        <ele>526.20001220703125</ele>
        <time>2021-05-09T10:24:19.000Z</time>
        <extensions>
          <ns3:TrackPointExtension>
            <ns3:atemp>23.0</ns3:atemp>
          </ns3:TrackPointExtension>
        </extensions>
      </trkpt>
      <trkpt lat="43.1134087778627872467041015625" lon="13.03813428618013858795166015625">
        <ele>526.20001220703125</ele>
        <time>2021-05-09T10:24:23.000Z</time>
        <extensions>
          <ns3:TrackPointExtension>
            <ns3:atemp>23.0</ns3:atemp>
          </ns3:TrackPointExtension>
        </extensions>
      </trkpt>
      <trkpt lat="43.1136250309646129608154296875" lon="13.038378618657588958740234375">
        <ele>526.20001220703125</ele>
        <time>2021-05-09T10:24:30.000Z</time>
        <extensions>
          <ns3:TrackPointExtension>
            <ns3:atemp>23.0</ns3:atemp>
          </ns3:TrackPointExtension>
        </extensions>
      </trkpt>
      <trkpt lat="43.11379862017929553985595703125" lon="13.03862370550632476806640625">
        <ele>527.20001220703125</ele>
        <time>2021-05-09T10:24:36.000Z</time>
        <extensions>
          <ns3:TrackPointExtension>
            <ns3:atemp>23.0</ns3:atemp>
          </ns3:TrackPointExtension>
        </extensions>
      </trkpt>
      <trkpt lat="43.11382259242236614227294921875" lon="13.03866569884121417999267578125">
        <ele>527.5999755859375</ele>
        <time>2021-05-09T10:24:37.000Z</time>
        <extensions>
          <ns3:TrackPointExtension>
            <ns3:atemp>23.0</ns3:atemp>
          </ns3:TrackPointExtension>
        </extensions>
      </trkpt>
      <trkpt lat="43.11399961821734905242919921875" lon="13.03899929858744144439697265625">
        <ele>528.5999755859375</ele>
        <time>2021-05-09T10:24:45.000Z</time>
        <extensions>
          <ns3:TrackPointExtension>
            <ns3:atemp>23.0</ns3:atemp>
          </ns3:TrackPointExtension>
        </extensions>
      </trkpt>
      <trkpt lat="43.114060051739215850830078125" lon="13.03917598910629749298095703125">
        <ele>530</ele>
        <time>2021-05-09T10:24:49.000Z</time>
        <extensions>
          <ns3:TrackPointExtension>
            <ns3:atemp>23.0</ns3:atemp>
          </ns3:TrackPointExtension>
        </extensions>
      </trkpt>
      <trkpt lat="43.11408142559230327606201171875" lon="13.0392546951770782470703125">
        <ele>530.4000244140625</ele>
        <time>2021-05-09T10:24:51.000Z</time>
        <extensions>
          <ns3:TrackPointExtension>
            <ns3:atemp>23.0</ns3:atemp>
          </ns3:TrackPointExtension>
        </extensions>
      </trkpt>
      <trkpt lat="43.1141027994453907012939453125" lon="13.03933306597173213958740234375">
        <ele>530.79998779296875</ele>
        <time>2021-05-09T10:24:53.000Z</time>
        <extensions>
          <ns3:TrackPointExtension>
            <ns3:atemp>23.0</ns3:atemp>
          </ns3:TrackPointExtension>
        </extensions>
      </trkpt>
      <trkpt lat="43.114189803600311279296875" lon="13.03947798907756805419921875">
        <ele>531.79998779296875</ele>
        <time>2021-05-09T10:24:57.000Z</time>
        <extensions>
          <ns3:TrackPointExtension>
            <ns3:atemp>23.0</ns3:atemp>
          </ns3:TrackPointExtension>
        </extensions>
      </trkpt>
      <trkpt lat="43.11427370645105838775634765625" lon="13.03959332406520843505859375">
        <ele>533</ele>
        <time>2021-05-09T10:25:01.000Z</time>
        <extensions>
          <ns3:TrackPointExtension>
            <ns3:atemp>23.0</ns3:atemp>
          </ns3:TrackPointExtension>
        </extensions>
      </trkpt>
      <trkpt lat="43.114308826625347137451171875" lon="13.0396400950849056243896484375">
        <ele>533.20001220703125</ele>
        <time>2021-05-09T10:25:03.000Z</time>
        <extensions>
          <ns3:TrackPointExtension>
            <ns3:atemp>23.0</ns3:atemp>
          </ns3:TrackPointExtension>
        </extensions>
      </trkpt>
      <trkpt lat="43.11441309750080108642578125" lon="13.03974076174199581146240234375">
        <ele>533.5999755859375</ele>
        <time>2021-05-09T10:25:08.000Z</time>
        <extensions>
          <ns3:TrackPointExtension>
            <ns3:atemp>23.0</ns3:atemp>
          </ns3:TrackPointExtension>
        </extensions>
      </trkpt>
      <trkpt lat="43.11444989405572414398193359375" lon="13.03977764211595058441162109375">
        <ele>534.4000244140625</ele>
        <time>2021-05-09T10:25:10.000Z</time>
        <extensions>
          <ns3:TrackPointExtension>
            <ns3:atemp>23.0</ns3:atemp>
          </ns3:TrackPointExtension>
        </extensions>
      </trkpt>
      <trkpt lat="43.114538490772247314453125" lon="13.03985022939741611480712890625">
        <ele>535</ele>
        <time>2021-05-09T10:25:14.000Z</time>
        <extensions>
          <ns3:TrackPointExtension>
            <ns3:atemp>23.0</ns3:atemp>
          </ns3:TrackPointExtension>
        </extensions>
      </trkpt>
      <trkpt lat="43.1145604513585567474365234375" lon="13.03987361490726470947265625">
        <ele>535.4000244140625</ele>
        <time>2021-05-09T10:25:15.000Z</time>
        <extensions>
          <ns3:TrackPointExtension>
            <ns3:atemp>23.0</ns3:atemp>
          </ns3:TrackPointExtension>
        </extensions>
      </trkpt>
      <trkpt lat="43.114685006439685821533203125" lon="13.03995433263480663299560546875">
        <ele>536.79998779296875</ele>
        <time>2021-05-09T10:25:19.000Z</time>
        <extensions>
          <ns3:TrackPointExtension>
            <ns3:atemp>22.0</ns3:atemp>
          </ns3:TrackPointExtension>
        </extensions>
      </trkpt>
      <trkpt lat="43.11471895314753055572509765625" lon="13.03997528739273548126220703125">
        <ele>537.20001220703125</ele>
        <time>2021-05-09T10:25:20.000Z</time>
        <extensions>
          <ns3:TrackPointExtension>
            <ns3:atemp>22.0</ns3:atemp>
          </ns3:TrackPointExtension>
        </extensions>
      </trkpt>
      <trkpt lat="43.11479397118091583251953125" lon="13.04005055688321590423583984375">
        <ele>538</ele>
        <time>2021-05-09T10:25:23.000Z</time>
        <extensions>
          <ns3:TrackPointExtension>
            <ns3:atemp>22.0</ns3:atemp>
          </ns3:TrackPointExtension>
        </extensions>
      </trkpt>
      <trkpt lat="43.1148276664316654205322265625" lon="13.04010939784348011016845703125">
        <ele>538.5999755859375</ele>
        <time>2021-05-09T10:25:25.000Z</time>
        <extensions>
          <ns3:TrackPointExtension>
            <ns3:atemp>22.0</ns3:atemp>
          </ns3:TrackPointExtension>
        </extensions>
      </trkpt>
      <trkpt lat="43.1148353777825832366943359375" lon="13.0401480384171009063720703125">
        <ele>539.20001220703125</ele>
        <time>2021-05-09T10:25:26.000Z</time>
        <extensions>
          <ns3:TrackPointExtension>
            <ns3:atemp>22.0</ns3:atemp>
          </ns3:TrackPointExtension>
        </extensions>
      </trkpt>
      <trkpt lat="43.11483688652515411376953125" lon="13.0402187816798686981201171875">
        <ele>540.20001220703125</ele>
        <time>2021-05-09T10:25:28.000Z</time>
        <extensions>
          <ns3:TrackPointExtension>
            <ns3:atemp>22.0</ns3:atemp>
          </ns3:TrackPointExtension>
        </extensions>
      </trkpt>
      <trkpt lat="43.11482925899326801300048828125" lon="13.04025138728320598602294921875">
        <ele>541</ele>
        <time>2021-05-09T10:25:29.000Z</time>
        <extensions>
          <ns3:TrackPointExtension>
            <ns3:atemp>22.0</ns3:atemp>
          </ns3:TrackPointExtension>
        </extensions>
      </trkpt>
      <trkpt lat="43.114820457994937896728515625" lon="13.0402846634387969970703125">
        <ele>541.5999755859375</ele>
        <time>2021-05-09T10:25:30.000Z</time>
        <extensions>
          <ns3:TrackPointExtension>
            <ns3:atemp>22.0</ns3:atemp>
          </ns3:TrackPointExtension>
        </extensions>
      </trkpt>
      <trkpt lat="43.1148119084537029266357421875" lon="13.04031483829021453857421875">
        <ele>543</ele>
        <time>2021-05-09T10:25:31.000Z</time>
        <extensions>
          <ns3:TrackPointExtension>
            <ns3:atemp>22.0</ns3:atemp>
          </ns3:TrackPointExtension>
        </extensions>
      </trkpt>
      <trkpt lat="43.11481065116822719573974609375" lon="13.04038264788687229156494140625">
        <ele>544.5999755859375</ele>
        <time>2021-05-09T10:25:33.000Z</time>
        <extensions>
          <ns3:TrackPointExtension>
            <ns3:atemp>22.0</ns3:atemp>
          </ns3:TrackPointExtension>
        </extensions>
      </trkpt>
      <trkpt lat="43.11482657678425312042236328125" lon="13.04042187519371509552001953125">
        <ele>545</ele>
        <time>2021-05-09T10:25:34.000Z</time>
        <extensions>
          <ns3:TrackPointExtension>
            <ns3:atemp>22.0</ns3:atemp>
          </ns3:TrackPointExtension>
        </extensions>
      </trkpt>
      <trkpt lat="43.1148471124470233917236328125" lon="13.04044970311224460601806640625">
        <ele>545.79998779296875</ele>
        <time>2021-05-09T10:25:35.000Z</time>
        <extensions>
          <ns3:TrackPointExtension>
            <ns3:atemp>22.0</ns3:atemp>
          </ns3:TrackPointExtension>
        </extensions>
      </trkpt>
      <trkpt lat="43.11488558538258075714111328125" lon="13.04047937504947185516357421875">
        <ele>547</ele>
        <time>2021-05-09T10:25:37.000Z</time>
        <extensions>
          <ns3:TrackPointExtension>
            <ns3:atemp>22.0</ns3:atemp>
          </ns3:TrackPointExtension>
        </extensions>
      </trkpt>
      <trkpt lat="43.114908635616302490234375" lon="13.0404967255890369415283203125">
        <ele>547.4000244140625</ele>
        <time>2021-05-09T10:25:38.000Z</time>
        <extensions>
          <ns3:TrackPointExtension>
            <ns3:atemp>22.0</ns3:atemp>
          </ns3:TrackPointExtension>
        </extensions>
      </trkpt>
      <trkpt lat="43.11494912020862102508544921875" lon="13.0405282415449619293212890625">
        <ele>548.20001220703125</ele>
        <time>2021-05-09T10:25:40.000Z</time>
        <extensions>
          <ns3:TrackPointExtension>
            <ns3:atemp>22.0</ns3:atemp>
          </ns3:TrackPointExtension>
        </extensions>
      </trkpt>
      <trkpt lat="43.11500108800828456878662109375" lon="13.04056554101407527923583984375">
        <ele>548.5999755859375</ele>
        <time>2021-05-09T10:25:42.000Z</time>
        <extensions>
          <ns3:TrackPointExtension>
            <ns3:atemp>22.0</ns3:atemp>
          </ns3:TrackPointExtension>
        </extensions>
      </trkpt>
      <trkpt lat="43.11510032974183559417724609375" lon="13.0406291596591472625732421875">
        <ele>548.5999755859375</ele>
        <time>2021-05-09T10:25:45.000Z</time>
        <extensions>
          <ns3:TrackPointExtension>
            <ns3:atemp>22.0</ns3:atemp>
          </ns3:TrackPointExtension>
        </extensions>
      </trkpt>
      <trkpt lat="43.1151931174099445343017578125" lon="13.0406838096678256988525390625">
        <ele>548.79998779296875</ele>
        <time>2021-05-09T10:25:47.000Z</time>
        <extensions>
          <ns3:TrackPointExtension>
            <ns3:atemp>22.0</ns3:atemp>
          </ns3:TrackPointExtension>
        </extensions>
      </trkpt>
      <trkpt lat="43.11540207825601100921630859375" lon="13.04087064228951930999755859375">
        <ele>548.5999755859375</ele>
        <time>2021-05-09T10:25:51.000Z</time>
        <extensions>
          <ns3:TrackPointExtension>
            <ns3:atemp>22.0</ns3:atemp>
          </ns3:TrackPointExtension>
        </extensions>
      </trkpt>
      <trkpt lat="43.11553560197353363037109375" lon="13.0410341732203960418701171875">
        <ele>546.79998779296875</ele>
        <time>2021-05-09T10:25:54.000Z</time>
        <extensions>
          <ns3:TrackPointExtension>
            <ns3:atemp>22.0</ns3:atemp>
          </ns3:TrackPointExtension>
        </extensions>
      </trkpt>
      <trkpt lat="43.1156242825090885162353515625" lon="13.0411166511476039886474609375">
        <ele>545.4000244140625</ele>
        <time>2021-05-09T10:25:56.000Z</time>
        <extensions>
          <ns3:TrackPointExtension>
            <ns3:atemp>22.0</ns3:atemp>
          </ns3:TrackPointExtension>
        </extensions>
      </trkpt>
      <trkpt lat="43.115767277777194976806640625" lon="13.04127682931721210479736328125">
        <ele>544.5999755859375</ele>
        <time>2021-05-09T10:26:00.000Z</time>
        <extensions>
          <ns3:TrackPointExtension>
            <ns3:atemp>22.0</ns3:atemp>
          </ns3:TrackPointExtension>
        </extensions>
      </trkpt>
      <trkpt lat="43.11586895026266574859619140625" lon="13.0414889752864837646484375">
        <ele>544.5999755859375</ele>
        <time>2021-05-09T10:26:04.000Z</time>
        <extensions>
          <ns3:TrackPointExtension>
            <ns3:atemp>22.0</ns3:atemp>
          </ns3:TrackPointExtension>
        </extensions>
      </trkpt>
      <trkpt lat="43.11606206931173801422119140625" lon="13.0418854393064975738525390625">
        <ele>544.5999755859375</ele>
        <time>2021-05-09T10:26:10.000Z</time>
        <extensions>
          <ns3:TrackPointExtension>
            <ns3:atemp>22.0</ns3:atemp>
          </ns3:TrackPointExtension>
        </extensions>
      </trkpt>
      <trkpt lat="43.116265833377838134765625" lon="13.04232959635555744171142578125">
        <ele>544.20001220703125</ele>
        <time>2021-05-09T10:26:15.000Z</time>
        <extensions>
          <ns3:TrackPointExtension>
            <ns3:atemp>22.0</ns3:atemp>
          </ns3:TrackPointExtension>
        </extensions>
      </trkpt>
      <trkpt lat="43.11648015864193439483642578125" lon="13.0428389646112918853759765625">
        <ele>542.79998779296875</ele>
        <time>2021-05-09T10:26:19.000Z</time>
        <extensions>
          <ns3:TrackPointExtension>
            <ns3:atemp>22.0</ns3:atemp>
          </ns3:TrackPointExtension>
        </extensions>
      </trkpt>
      <trkpt lat="43.11660312116146087646484375" lon="13.04313342086970806121826171875">
        <ele>541</ele>
        <time>2021-05-09T10:26:21.000Z</time>
        <extensions>
          <ns3:TrackPointExtension>
            <ns3:atemp>22.0</ns3:atemp>
          </ns3:TrackPointExtension>
        </extensions>
      </trkpt>
      <trkpt lat="43.1166622973978519439697265625" lon="13.0432811938226222991943359375">
        <ele>539.4000244140625</ele>
        <time>2021-05-09T10:26:22.000Z</time>
        <extensions>
          <ns3:TrackPointExtension>
            <ns3:atemp>22.0</ns3:atemp>
          </ns3:TrackPointExtension>
        </extensions>
      </trkpt>
      <trkpt lat="43.1167256645858287811279296875" lon="13.0434267036616802215576171875">
        <ele>537.5999755859375</ele>
        <time>2021-05-09T10:26:23.000Z</time>
        <extensions>
          <ns3:TrackPointExtension>
            <ns3:atemp>22.0</ns3:atemp>
          </ns3:TrackPointExtension>
        </extensions>
      </trkpt>
      <trkpt lat="43.11679766513407230377197265625" lon="13.043568022549152374267578125">
        <ele>535.4000244140625</ele>
        <time>2021-05-09T10:26:24.000Z</time>
        <extensions>
          <ns3:TrackPointExtension>
            <ns3:atemp>22.0</ns3:atemp>
          </ns3:TrackPointExtension>
        </extensions>
      </trkpt>
      <trkpt lat="43.1168751977384090423583984375" lon="13.04369769059121608734130859375">
        <ele>533</ele>
        <time>2021-05-09T10:26:25.000Z</time>
        <extensions>
          <ns3:TrackPointExtension>
            <ns3:atemp>22.0</ns3:atemp>
          </ns3:TrackPointExtension>
        </extensions>
      </trkpt>
      <trkpt lat="43.1169556640088558197021484375" lon="13.0438129417598247528076171875">
        <ele>530.5999755859375</ele>
        <time>2021-05-09T10:26:26.000Z</time>
        <extensions>
          <ns3:TrackPointExtension>
            <ns3:atemp>22.0</ns3:atemp>
          </ns3:TrackPointExtension>
        </extensions>
      </trkpt>
      <trkpt lat="43.11703939922153949737548828125" lon="13.0439162068068981170654296875">
        <ele>528</ele>
        <time>2021-05-09T10:26:27.000Z</time>
        <extensions>
          <ns3:TrackPointExtension>
            <ns3:atemp>22.0</ns3:atemp>
          </ns3:TrackPointExtension>
        </extensions>
      </trkpt>
      <trkpt lat="43.11711986549198627471923828125" lon="13.044001199305057525634765625">
        <ele>525.79998779296875</ele>
        <time>2021-05-09T10:26:28.000Z</time>
        <extensions>
          <ns3:TrackPointExtension>
            <ns3:atemp>22.0</ns3:atemp>
          </ns3:TrackPointExtension>
        </extensions>
      </trkpt>
      <trkpt lat="43.11719697900116443634033203125" lon="13.04407839663326740264892578125">
        <ele>522</ele>
        <time>2021-05-09T10:26:29.000Z</time>
        <extensions>
          <ns3:TrackPointExtension>
            <ns3:atemp>22.0</ns3:atemp>
          </ns3:TrackPointExtension>
        </extensions>
      </trkpt>
      <trkpt lat="43.11726001091301441192626953125" lon="13.04415500722825527191162109375">
        <ele>521.20001220703125</ele>
        <time>2021-05-09T10:26:30.000Z</time>
        <extensions>
          <ns3:TrackPointExtension>
            <ns3:atemp>22.0</ns3:atemp>
          </ns3:TrackPointExtension>
        </extensions>
      </trkpt>
      <trkpt lat="43.1173117272555828094482421875" lon="13.04422994144260883331298828125">
        <ele>520.79998779296875</ele>
        <time>2021-05-09T10:26:31.000Z</time>
        <extensions>
          <ns3:TrackPointExtension>
            <ns3:atemp>22.0</ns3:atemp>
          </ns3:TrackPointExtension>
        </extensions>
      </trkpt>
      <trkpt lat="43.11735321767628192901611328125" lon="13.04429548792541027069091796875">
        <ele>520.5999755859375</ele>
        <time>2021-05-09T10:26:32.000Z</time>
        <extensions>
          <ns3:TrackPointExtension>
            <ns3:atemp>22.0</ns3:atemp>
          </ns3:TrackPointExtension>
        </extensions>
      </trkpt>
      <trkpt lat="43.11742513440549373626708984375" lon="13.04439774714410305023193359375">
        <ele>520.4000244140625</ele>
        <time>2021-05-09T10:26:34.000Z</time>
        <extensions>
          <ns3:TrackPointExtension>
            <ns3:atemp>22.0</ns3:atemp>
          </ns3:TrackPointExtension>
        </extensions>
      </trkpt>
      <trkpt lat="43.117478191852569580078125" lon="13.04447301663458347320556640625">
        <ele>520.4000244140625</ele>
        <time>2021-05-09T10:26:36.000Z</time>
        <extensions>
          <ns3:TrackPointExtension>
            <ns3:atemp>22.0</ns3:atemp>
          </ns3:TrackPointExtension>
        </extensions>
      </trkpt>
      <trkpt lat="43.1174967996776103973388671875" lon="13.04466680623590946197509765625">
        <ele>521.5999755859375</ele>
        <time>2021-05-09T10:26:40.000Z</time>
        <extensions>
          <ns3:TrackPointExtension>
            <ns3:atemp>22.0</ns3:atemp>
          </ns3:TrackPointExtension>
        </extensions>
      </trkpt>
      <trkpt lat="43.11750107444822788238525390625" lon="13.04471491836011409759521484375">
        <ele>522.79998779296875</ele>
        <time>2021-05-09T10:26:41.000Z</time>
        <extensions>
          <ns3:TrackPointExtension>
            <ns3:atemp>22.0</ns3:atemp>
          </ns3:TrackPointExtension>
        </extensions>
      </trkpt>
      <trkpt lat="43.11750979162752628326416015625" lon="13.04475934244692325592041015625">
        <ele>524</ele>
        <time>2021-05-09T10:26:42.000Z</time>
        <extensions>
          <ns3:TrackPointExtension>
            <ns3:atemp>22.0</ns3:atemp>
          </ns3:TrackPointExtension>
        </extensions>
      </trkpt>
      <trkpt lat="43.11752286739647388458251953125" lon="13.04480443708598613739013671875">
        <ele>525</ele>
        <time>2021-05-09T10:26:43.000Z</time>
        <extensions>
          <ns3:TrackPointExtension>
            <ns3:atemp>22.0</ns3:atemp>
          </ns3:TrackPointExtension>
        </extensions>
      </trkpt>
      <trkpt lat="43.11753912828862667083740234375" lon="13.04485321976244449615478515625">
        <ele>526</ele>
        <time>2021-05-09T10:26:44.000Z</time>
        <extensions>
          <ns3:TrackPointExtension>
            <ns3:atemp>22.0</ns3:atemp>
          </ns3:TrackPointExtension>
        </extensions>
      </trkpt>
      <trkpt lat="43.11755488626658916473388671875" lon="13.04490317590534687042236328125">
        <ele>527.20001220703125</ele>
        <time>2021-05-09T10:26:45.000Z</time>
        <extensions>
          <ns3:TrackPointExtension>
            <ns3:atemp>22.0</ns3:atemp>
          </ns3:TrackPointExtension>
        </extensions>
      </trkpt>
      <trkpt lat="43.117585144937038421630859375" lon="13.04499705322086811065673828125">
        <ele>529</ele>
        <time>2021-05-09T10:26:47.000Z</time>
        <extensions>
          <ns3:TrackPointExtension>
            <ns3:atemp>22.0</ns3:atemp>
          </ns3:TrackPointExtension>
        </extensions>
      </trkpt>
      <trkpt lat="43.11761020682752132415771484375" lon="13.04509143345057964324951171875">
        <ele>530.4000244140625</ele>
        <time>2021-05-09T10:26:49.000Z</time>
        <extensions>
          <ns3:TrackPointExtension>
            <ns3:atemp>22.0</ns3:atemp>
          </ns3:TrackPointExtension>
        </extensions>
      </trkpt>
      <trkpt lat="43.11762462370097637176513671875" lon="13.04514281451702117919921875">
        <ele>531</ele>
        <time>2021-05-09T10:26:50.000Z</time>
        <extensions>
          <ns3:TrackPointExtension>
            <ns3:atemp>22.0</ns3:atemp>
          </ns3:TrackPointExtension>
        </extensions>
      </trkpt>
      <trkpt lat="43.11765982769429683685302734375" lon="13.04524666629731655120849609375">
        <ele>531.4000244140625</ele>
        <time>2021-05-09T10:26:52.000Z</time>
        <extensions>
          <ns3:TrackPointExtension>
            <ns3:atemp>22.0</ns3:atemp>
          </ns3:TrackPointExtension>
        </extensions>
      </trkpt>
      <trkpt lat="43.11770617961883544921875" lon="13.04540944285690784454345703125">
        <ele>531.79998779296875</ele>
        <time>2021-05-09T10:26:55.000Z</time>
        <extensions>
          <ns3:TrackPointExtension>
            <ns3:atemp>22.0</ns3:atemp>
          </ns3:TrackPointExtension>
        </extensions>
      </trkpt>
      <trkpt lat="43.117768205702304840087890625" lon="13.04562871344387531280517578125">
        <ele>532</ele>
        <time>2021-05-09T10:26:59.000Z</time>
        <extensions>
          <ns3:TrackPointExtension>
            <ns3:atemp>22.0</ns3:atemp>
          </ns3:TrackPointExtension>
        </extensions>
      </trkpt>
      <trkpt lat="43.117872141301631927490234375" lon="13.04594990797340869903564453125">
        <ele>532.20001220703125</ele>
        <time>2021-05-09T10:27:05.000Z</time>
        <extensions>
          <ns3:TrackPointExtension>
            <ns3:atemp>22.0</ns3:atemp>
          </ns3:TrackPointExtension>
        </extensions>
      </trkpt>
      <trkpt lat="43.11788924038410186767578125" lon="13.0460039712488651275634765625">
        <ele>532.4000244140625</ele>
        <time>2021-05-09T10:27:06.000Z</time>
        <extensions>
          <ns3:TrackPointExtension>
            <ns3:atemp>22.0</ns3:atemp>
          </ns3:TrackPointExtension>
        </extensions>
      </trkpt>
      <trkpt lat="43.1179276295006275177001953125" lon="13.0461092479526996612548828125">
        <ele>532.5999755859375</ele>
        <time>2021-05-09T10:27:08.000Z</time>
        <extensions>
          <ns3:TrackPointExtension>
            <ns3:atemp>22.0</ns3:atemp>
          </ns3:TrackPointExtension>
        </extensions>
      </trkpt>
      <trkpt lat="43.11807774938642978668212890625" lon="13.046397082507610321044921875">
        <ele>532.79998779296875</ele>
        <time>2021-05-09T10:27:14.000Z</time>
        <extensions>
          <ns3:TrackPointExtension>
            <ns3:atemp>22.0</ns3:atemp>
          </ns3:TrackPointExtension>
        </extensions>
      </trkpt>
      <trkpt lat="43.11810784041881561279296875" lon="13.04644192568957805633544921875">
        <ele>532.79998779296875</ele>
        <time>2021-05-09T10:27:15.000Z</time>
        <extensions>
          <ns3:TrackPointExtension>
            <ns3:atemp>22.0</ns3:atemp>
          </ns3:TrackPointExtension>
        </extensions>
      </trkpt>
      <trkpt lat="43.1182055734097957611083984375" lon="13.04655742831528186798095703125">
        <ele>533</ele>
        <time>2021-05-09T10:27:18.000Z</time>
        <extensions>
          <ns3:TrackPointExtension>
            <ns3:atemp>22.0</ns3:atemp>
          </ns3:TrackPointExtension>
        </extensions>
      </trkpt>
      <trkpt lat="43.11824287287890911102294921875" lon="13.04659648798406124114990234375">
        <ele>533</ele>
        <time>2021-05-09T10:27:19.000Z</time>
        <extensions>
          <ns3:TrackPointExtension>
            <ns3:atemp>22.0</ns3:atemp>
          </ns3:TrackPointExtension>
        </extensions>
      </trkpt>
      <trkpt lat="43.11838234774768352508544921875" lon="13.0467207916080951690673828125">
        <ele>533</ele>
        <time>2021-05-09T10:27:22.000Z</time>
        <extensions>
          <ns3:TrackPointExtension>
            <ns3:atemp>22.0</ns3:atemp>
          </ns3:TrackPointExtension>
        </extensions>
      </trkpt>
      <trkpt lat="43.11849148012697696685791015625" lon="13.0468131601810455322265625">
        <ele>533</ele>
        <time>2021-05-09T10:27:24.000Z</time>
        <extensions>
          <ns3:TrackPointExtension>
            <ns3:atemp>22.0</ns3:atemp>
          </ns3:TrackPointExtension>
        </extensions>
      </trkpt>
      <trkpt lat="43.118802197277545928955078125" lon="13.04708473384380340576171875">
        <ele>531</ele>
        <time>2021-05-09T10:27:30.000Z</time>
        <extensions>
          <ns3:TrackPointExtension>
            <ns3:atemp>22.0</ns3:atemp>
          </ns3:TrackPointExtension>
        </extensions>
      </trkpt>
      <trkpt lat="43.118842430412769317626953125" lon="13.04713946767151355743408203125">
        <ele>530.5999755859375</ele>
        <time>2021-05-09T10:27:31.000Z</time>
        <extensions>
          <ns3:TrackPointExtension>
            <ns3:atemp>22.0</ns3:atemp>
          </ns3:TrackPointExtension>
        </extensions>
      </trkpt>
      <trkpt lat="43.1188835017383098602294921875" lon="13.04719445295631885528564453125">
        <ele>529.79998779296875</ele>
        <time>2021-05-09T10:27:32.000Z</time>
        <extensions>
          <ns3:TrackPointExtension>
            <ns3:atemp>22.0</ns3:atemp>
          </ns3:TrackPointExtension>
        </extensions>
      </trkpt>
      <trkpt lat="43.118928261101245880126953125" lon="13.047256730496883392333984375">
        <ele>529.4000244140625</ele>
        <time>2021-05-09T10:27:33.000Z</time>
        <extensions>
          <ns3:TrackPointExtension>
            <ns3:atemp>22.0</ns3:atemp>
          </ns3:TrackPointExtension>
        </extensions>
      </trkpt>
      <trkpt lat="43.11909221112728118896484375" lon="13.04750458337366580963134765625">
        <ele>529</ele>
        <time>2021-05-09T10:27:37.000Z</time>
        <extensions>
          <ns3:TrackPointExtension>
            <ns3:atemp>22.0</ns3:atemp>
          </ns3:TrackPointExtension>
        </extensions>
      </trkpt>
      <trkpt lat="43.11913638375699520111083984375" lon="13.04755822755396366119384765625">
        <ele>528.79998779296875</ele>
        <time>2021-05-09T10:27:38.000Z</time>
        <extensions>
          <ns3:TrackPointExtension>
            <ns3:atemp>22.0</ns3:atemp>
          </ns3:TrackPointExtension>
        </extensions>
      </trkpt>
      <trkpt lat="43.11936202459037303924560546875" lon="13.04783399216830730438232421875">
        <ele>528.79998779296875</ele>
        <time>2021-05-09T10:27:44.000Z</time>
        <extensions>
          <ns3:TrackPointExtension>
            <ns3:atemp>22.0</ns3:atemp>
          </ns3:TrackPointExtension>
        </extensions>
      </trkpt>
      <trkpt lat="43.1195577420294284820556640625" lon="13.0480776540935039520263671875">
        <ele>530.20001220703125</ele>
        <time>2021-05-09T10:27:50.000Z</time>
        <extensions>
          <ns3:TrackPointExtension>
            <ns3:atemp>22.0</ns3:atemp>
          </ns3:TrackPointExtension>
        </extensions>
      </trkpt>
      <trkpt lat="43.1195822171866893768310546875" lon="13.0481312982738018035888671875">
        <ele>530.5999755859375</ele>
        <time>2021-05-09T10:27:51.000Z</time>
        <extensions>
          <ns3:TrackPointExtension>
            <ns3:atemp>22.0</ns3:atemp>
          </ns3:TrackPointExtension>
        </extensions>
      </trkpt>
      <trkpt lat="43.11970652081072330474853515625" lon="13.0483696796000003814697265625">
        <ele>531</ele>
        <time>2021-05-09T10:27:55.000Z</time>
        <extensions>
          <ns3:TrackPointExtension>
            <ns3:atemp>22.0</ns3:atemp>
          </ns3:TrackPointExtension>
        </extensions>
      </trkpt>
      <trkpt lat="43.1197478435933589935302734375" lon="13.048411421477794647216796875">
        <ele>531</ele>
        <time>2021-05-09T10:27:56.000Z</time>
        <extensions>
          <ns3:TrackPointExtension>
            <ns3:atemp>22.0</ns3:atemp>
          </ns3:TrackPointExtension>
        </extensions>
      </trkpt>
      <trkpt lat="43.11978665180504322052001953125" lon="13.04846162907779216766357421875">
        <ele>531</ele>
        <time>2021-05-09T10:27:57.000Z</time>
        <extensions>
          <ns3:TrackPointExtension>
            <ns3:atemp>22.0</ns3:atemp>
          </ns3:TrackPointExtension>
        </extensions>
      </trkpt>
      <trkpt lat="43.11983610503375530242919921875" lon="13.0486087314784526824951171875">
        <ele>531</ele>
        <time>2021-05-09T10:27:59.000Z</time>
        <extensions>
          <ns3:TrackPointExtension>
            <ns3:atemp>22.0</ns3:atemp>
          </ns3:TrackPointExtension>
        </extensions>
      </trkpt>
      <trkpt lat="43.11995009891688823699951171875" lon="13.04885256104171276092529296875">
        <ele>530.20001220703125</ele>
        <time>2021-05-09T10:28:03.000Z</time>
        <extensions>
          <ns3:TrackPointExtension>
            <ns3:atemp>23.0</ns3:atemp>
          </ns3:TrackPointExtension>
        </extensions>
      </trkpt>
      <trkpt lat="43.11999284662306308746337890625" lon="13.048906959593296051025390625">
        <ele>529.79998779296875</ele>
        <time>2021-05-09T10:28:04.000Z</time>
        <extensions>
          <ns3:TrackPointExtension>
            <ns3:atemp>23.0</ns3:atemp>
          </ns3:TrackPointExtension>
        </extensions>
      </trkpt>
      <trkpt lat="43.120164088904857635498046875" lon="13.0491146631538867950439453125">
        <ele>529.20001220703125</ele>
        <time>2021-05-09T10:28:08.000Z</time>
        <extensions>
          <ns3:TrackPointExtension>
            <ns3:atemp>23.0</ns3:atemp>
          </ns3:TrackPointExtension>
        </extensions>
      </trkpt>
      <trkpt lat="43.120209686458110809326171875" lon="13.049167804419994354248046875">
        <ele>529</ele>
        <time>2021-05-09T10:28:09.000Z</time>
        <extensions>
          <ns3:TrackPointExtension>
            <ns3:atemp>23.0</ns3:atemp>
          </ns3:TrackPointExtension>
        </extensions>
      </trkpt>
      <trkpt lat="43.1202524341642856597900390625" lon="13.04922647774219512939453125">
        <ele>529</ele>
        <time>2021-05-09T10:28:10.000Z</time>
        <extensions>
          <ns3:TrackPointExtension>
            <ns3:atemp>23.0</ns3:atemp>
          </ns3:TrackPointExtension>
        </extensions>
      </trkpt>
      <trkpt lat="43.1204086728394031524658203125" lon="13.04941850714385509490966796875">
        <ele>528.79998779296875</ele>
        <time>2021-05-09T10:28:13.000Z</time>
        <extensions>
          <ns3:TrackPointExtension>
            <ns3:atemp>23.0</ns3:atemp>
          </ns3:TrackPointExtension>
        </extensions>
      </trkpt>
      <trkpt lat="43.12046944163739681243896484375" lon="13.04947785101830959320068359375">
        <ele>528.79998779296875</ele>
        <time>2021-05-09T10:28:14.000Z</time>
        <extensions>
          <ns3:TrackPointExtension>
            <ns3:atemp>23.0</ns3:atemp>
          </ns3:TrackPointExtension>
        </extensions>
      </trkpt>
      <trkpt lat="43.12073238193988800048828125" lon="13.049743138253688812255859375">
        <ele>528.5999755859375</ele>
        <time>2021-05-09T10:28:19.000Z</time>
        <extensions>
          <ns3:TrackPointExtension>
            <ns3:atemp>23.0</ns3:atemp>
          </ns3:TrackPointExtension>
        </extensions>
      </trkpt>
      <trkpt lat="43.120782673358917236328125" lon="13.04978664033114910125732421875">
        <ele>528.20001220703125</ele>
        <time>2021-05-09T10:28:20.000Z</time>
        <extensions>
          <ns3:TrackPointExtension>
            <ns3:atemp>23.0</ns3:atemp>
          </ns3:TrackPointExtension>
        </extensions>
      </trkpt>
      <trkpt lat="43.12083028256893157958984375" lon="13.0498254485428333282470703125">
        <ele>528</ele>
        <time>2021-05-09T10:28:21.000Z</time>
        <extensions>
          <ns3:TrackPointExtension>
            <ns3:atemp>23.0</ns3:atemp>
          </ns3:TrackPointExtension>
        </extensions>
      </trkpt>
      <trkpt lat="43.120953999459743499755859375" lon="13.04996073246002197265625">
        <ele>527.79998779296875</ele>
        <time>2021-05-09T10:28:24.000Z</time>
        <extensions>
          <ns3:TrackPointExtension>
            <ns3:atemp>23.0</ns3:atemp>
          </ns3:TrackPointExtension>
        </extensions>
      </trkpt>
      <trkpt lat="43.1212119944393634796142578125" lon="13.05027161724865436553955078125">
        <ele>527.4000244140625</ele>
        <time>2021-05-09T10:28:29.000Z</time>
        <extensions>
          <ns3:TrackPointExtension>
            <ns3:atemp>23.0</ns3:atemp>
          </ns3:TrackPointExtension>
        </extensions>
      </trkpt>
      <trkpt lat="43.1212699972093105316162109375" lon="13.05033934302628040313720703125">
        <ele>527.20001220703125</ele>
        <time>2021-05-09T10:28:30.000Z</time>
        <extensions>
          <ns3:TrackPointExtension>
            <ns3:atemp>23.0</ns3:atemp>
          </ns3:TrackPointExtension>
        </extensions>
      </trkpt>
      <trkpt lat="43.1215315125882625579833984375" lon="13.05066238157451152801513671875">
        <ele>526.5999755859375</ele>
        <time>2021-05-09T10:28:35.000Z</time>
        <extensions>
          <ns3:TrackPointExtension>
            <ns3:atemp>23.0</ns3:atemp>
          </ns3:TrackPointExtension>
        </extensions>
      </trkpt>
      <trkpt lat="43.121580965816974639892578125" lon="13.0507233180105686187744140625">
        <ele>526.20001220703125</ele>
        <time>2021-05-09T10:28:36.000Z</time>
        <extensions>
          <ns3:TrackPointExtension>
            <ns3:atemp>23.0</ns3:atemp>
          </ns3:TrackPointExtension>
        </extensions>
      </trkpt>
      <trkpt lat="43.12179856002330780029296875" lon="13.050997741520404815673828125">
        <ele>525</ele>
        <time>2021-05-09T10:28:40.000Z</time>
        <extensions>
          <ns3:TrackPointExtension>
            <ns3:atemp>23.0</ns3:atemp>
          </ns3:TrackPointExtension>
        </extensions>
      </trkpt>
      <trkpt lat="43.12196276150643825531005859375" lon="13.05115926079452037811279296875">
        <ele>523.5999755859375</ele>
        <time>2021-05-09T10:28:43.000Z</time>
        <extensions>
          <ns3:TrackPointExtension>
            <ns3:atemp>23.0</ns3:atemp>
          </ns3:TrackPointExtension>
        </extensions>
      </trkpt>
      <trkpt lat="43.12201824970543384552001953125" lon="13.05120636709034442901611328125">
        <ele>522.4000244140625</ele>
        <time>2021-05-09T10:28:44.000Z</time>
        <extensions>
          <ns3:TrackPointExtension>
            <ns3:atemp>23.0</ns3:atemp>
          </ns3:TrackPointExtension>
        </extensions>
      </trkpt>
      <trkpt lat="43.12207088805735111236572265625" lon="13.051253221929073333740234375">
        <ele>520.79998779296875</ele>
        <time>2021-05-09T10:28:45.000Z</time>
        <extensions>
          <ns3:TrackPointExtension>
            <ns3:atemp>23.0</ns3:atemp>
          </ns3:TrackPointExtension>
        </extensions>
      </trkpt>
      <trkpt lat="43.12212168239057064056396484375" lon="13.051295466721057891845703125">
        <ele>519.79998779296875</ele>
        <time>2021-05-09T10:28:46.000Z</time>
        <extensions>
          <ns3:TrackPointExtension>
            <ns3:atemp>23.0</ns3:atemp>
          </ns3:TrackPointExtension>
        </extensions>
      </trkpt>
      <trkpt lat="43.12217365019023418426513671875" lon="13.05133678950369358062744140625">
        <ele>518.4000244140625</ele>
        <time>2021-05-09T10:28:47.000Z</time>
        <extensions>
          <ns3:TrackPointExtension>
            <ns3:atemp>23.0</ns3:atemp>
          </ns3:TrackPointExtension>
        </extensions>
      </trkpt>
      <trkpt lat="43.122223354876041412353515625" lon="13.05137501098215579986572265625">
        <ele>517</ele>
        <time>2021-05-09T10:28:48.000Z</time>
        <extensions>
          <ns3:TrackPointExtension>
            <ns3:atemp>23.0</ns3:atemp>
          </ns3:TrackPointExtension>
        </extensions>
      </trkpt>
      <trkpt lat="43.12227188609540462493896484375" lon="13.05141624994575977325439453125">
        <ele>516</ele>
        <time>2021-05-09T10:28:49.000Z</time>
        <extensions>
          <ns3:TrackPointExtension>
            <ns3:atemp>23.0</ns3:atemp>
          </ns3:TrackPointExtension>
        </extensions>
      </trkpt>
      <trkpt lat="43.1223616562783718109130859375" lon="13.0515004880726337432861328125">
        <ele>514.79998779296875</ele>
        <time>2021-05-09T10:28:51.000Z</time>
        <extensions>
          <ns3:TrackPointExtension>
            <ns3:atemp>23.0</ns3:atemp>
          </ns3:TrackPointExtension>
        </extensions>
      </trkpt>
      <trkpt lat="43.12240499071776866912841796875" lon="13.05155002512037754058837890625">
        <ele>514.4000244140625</ele>
        <time>2021-05-09T10:28:52.000Z</time>
        <extensions>
          <ns3:TrackPointExtension>
            <ns3:atemp>23.0</ns3:atemp>
          </ns3:TrackPointExtension>
        </extensions>
      </trkpt>
      <trkpt lat="43.12244136817753314971923828125" lon="13.05161808617413043975830078125">
        <ele>513.20001220703125</ele>
        <time>2021-05-09T10:28:53.000Z</time>
        <extensions>
          <ns3:TrackPointExtension>
            <ns3:atemp>23.0</ns3:atemp>
          </ns3:TrackPointExtension>
        </extensions>
      </trkpt>
      <trkpt lat="43.12246517278254032135009765625" lon="13.05170140229165554046630859375">
        <ele>512.20001220703125</ele>
        <time>2021-05-09T10:28:54.000Z</time>
        <extensions>
          <ns3:TrackPointExtension>
            <ns3:atemp>23.0</ns3:atemp>
          </ns3:TrackPointExtension>
        </extensions>
      </trkpt>
      <trkpt lat="43.1224897317588329315185546875" lon="13.051789663732051849365234375">
        <ele>511</ele>
        <time>2021-05-09T10:28:55.000Z</time>
        <extensions>
          <ns3:TrackPointExtension>
            <ns3:atemp>23.0</ns3:atemp>
          </ns3:TrackPointExtension>
        </extensions>
      </trkpt>
      <trkpt lat="43.12256567180156707763671875" lon="13.0519722215831279754638671875">
        <ele>509.600006103515625</ele>
        <time>2021-05-09T10:28:57.000Z</time>
        <extensions>
          <ns3:TrackPointExtension>
            <ns3:atemp>23.0</ns3:atemp>
          </ns3:TrackPointExtension>
        </extensions>
      </trkpt>
      <trkpt lat="43.122614957392215728759765625" lon="13.0520622432231903076171875">
        <ele>508.600006103515625</ele>
        <time>2021-05-09T10:28:58.000Z</time>
        <extensions>
          <ns3:TrackPointExtension>
            <ns3:atemp>23.0</ns3:atemp>
          </ns3:TrackPointExtension>
        </extensions>
      </trkpt>
      <trkpt lat="43.1226711161434650421142578125" lon="13.05215033702552318572998046875">
        <ele>507.600006103515625</ele>
        <time>2021-05-09T10:28:59.000Z</time>
        <extensions>
          <ns3:TrackPointExtension>
            <ns3:atemp>23.0</ns3:atemp>
          </ns3:TrackPointExtension>
        </extensions>
      </trkpt>
      <trkpt lat="43.1227257661521434783935546875" lon="13.052234910428524017333984375">
        <ele>506.600006103515625</ele>
        <time>2021-05-09T10:29:00.000Z</time>
        <extensions>
          <ns3:TrackPointExtension>
            <ns3:atemp>23.0</ns3:atemp>
          </ns3:TrackPointExtension>
        </extensions>
      </trkpt>
      <trkpt lat="43.12277597375214099884033203125" lon="13.05231562815606594085693359375">
        <ele>505.399993896484375</ele>
        <time>2021-05-09T10:29:01.000Z</time>
        <extensions>
          <ns3:TrackPointExtension>
            <ns3:atemp>23.0</ns3:atemp>
          </ns3:TrackPointExtension>
        </extensions>
      </trkpt>
      <trkpt lat="43.1228253431618213653564453125" lon="13.0523976869881153106689453125">
        <ele>504</ele>
        <time>2021-05-09T10:29:02.000Z</time>
        <extensions>
          <ns3:TrackPointExtension>
            <ns3:atemp>23.0</ns3:atemp>
          </ns3:TrackPointExtension>
        </extensions>
      </trkpt>
      <trkpt lat="43.122869431972503662109375" lon="13.0524774827063083648681640625">
        <ele>502.600006103515625</ele>
        <time>2021-05-09T10:29:03.000Z</time>
        <extensions>
          <ns3:TrackPointExtension>
            <ns3:atemp>23.0</ns3:atemp>
          </ns3:TrackPointExtension>
        </extensions>
      </trkpt>
      <trkpt lat="43.12290471978485584259033203125" lon="13.052549399435520172119140625">
        <ele>500.79998779296875</ele>
        <time>2021-05-09T10:29:04.000Z</time>
        <extensions>
          <ns3:TrackPointExtension>
            <ns3:atemp>23.0</ns3:atemp>
          </ns3:TrackPointExtension>
        </extensions>
      </trkpt>
      <trkpt lat="43.1229416839778423309326171875" lon="13.0526186339557170867919921875">
        <ele>498.79998779296875</ele>
        <time>2021-05-09T10:29:05.000Z</time>
        <extensions>
          <ns3:TrackPointExtension>
            <ns3:atemp>23.0</ns3:atemp>
          </ns3:TrackPointExtension>
        </extensions>
      </trkpt>
      <trkpt lat="43.1229845993220806121826171875" lon="13.0526809953153133392333984375">
        <ele>497</ele>
        <time>2021-05-09T10:29:06.000Z</time>
        <extensions>
          <ns3:TrackPointExtension>
            <ns3:atemp>23.0</ns3:atemp>
          </ns3:TrackPointExtension>
        </extensions>
      </trkpt>
      <trkpt lat="43.12303648330271244049072265625" lon="13.05272634141147136688232421875">
        <ele>494.79998779296875</ele>
        <time>2021-05-09T10:29:07.000Z</time>
        <extensions>
          <ns3:TrackPointExtension>
            <ns3:atemp>23.0</ns3:atemp>
          </ns3:TrackPointExtension>
        </extensions>
      </trkpt>
      <trkpt lat="43.12309515662491321563720703125" lon="13.05274796672165393829345703125">
        <ele>492.79998779296875</ele>
        <time>2021-05-09T10:29:08.000Z</time>
        <extensions>
          <ns3:TrackPointExtension>
            <ns3:atemp>23.0</ns3:atemp>
          </ns3:TrackPointExtension>
        </extensions>
      </trkpt>
      <trkpt lat="43.12316170893609523773193359375" lon="13.05274243466556072235107421875">
        <ele>491.20001220703125</ele>
        <time>2021-05-09T10:29:09.000Z</time>
        <extensions>
          <ns3:TrackPointExtension>
            <ns3:atemp>23.0</ns3:atemp>
          </ns3:TrackPointExtension>
        </extensions>
      </trkpt>
      <trkpt lat="43.1232327036559581756591796875" lon="13.052716366946697235107421875">
        <ele>489.79998779296875</ele>
        <time>2021-05-09T10:29:10.000Z</time>
        <extensions>
          <ns3:TrackPointExtension>
            <ns3:atemp>23.0</ns3:atemp>
          </ns3:TrackPointExtension>
        </extensions>
      </trkpt>
      <trkpt lat="43.12331258319318294525146484375" lon="13.0526746250689029693603515625">
        <ele>488.600006103515625</ele>
        <time>2021-05-09T10:29:11.000Z</time>
        <extensions>
          <ns3:TrackPointExtension>
            <ns3:atemp>23.0</ns3:atemp>
          </ns3:TrackPointExtension>
        </extensions>
      </trkpt>
      <trkpt lat="43.12340361066162586212158203125" lon="13.05262508802115917205810546875">
        <ele>488</ele>
        <time>2021-05-09T10:29:12.000Z</time>
        <extensions>
          <ns3:TrackPointExtension>
            <ns3:atemp>23.0</ns3:atemp>
          </ns3:TrackPointExtension>
        </extensions>
      </trkpt>
      <trkpt lat="43.1235026009380817413330078125" lon="13.05257814936339855194091796875">
        <ele>487.399993896484375</ele>
        <time>2021-05-09T10:29:13.000Z</time>
        <extensions>
          <ns3:TrackPointExtension>
            <ns3:atemp>23.0</ns3:atemp>
          </ns3:TrackPointExtension>
        </extensions>
      </trkpt>
      <trkpt lat="43.12371709384024143218994140625" lon="13.0525126866996288299560546875">
        <ele>486.399993896484375</ele>
        <time>2021-05-09T10:29:15.000Z</time>
        <extensions>
          <ns3:TrackPointExtension>
            <ns3:atemp>23.0</ns3:atemp>
          </ns3:TrackPointExtension>
        </extensions>
      </trkpt>
      <trkpt lat="43.123935274779796600341796875" lon="13.0524981021881103515625">
        <ele>485</ele>
        <time>2021-05-09T10:29:17.000Z</time>
        <extensions>
          <ns3:TrackPointExtension>
            <ns3:atemp>22.0</ns3:atemp>
          </ns3:TrackPointExtension>
        </extensions>
      </trkpt>
      <trkpt lat="43.12414691783487796783447265625" lon="13.05252400226891040802001953125">
        <ele>483.20001220703125</ele>
        <time>2021-05-09T10:29:19.000Z</time>
        <extensions>
          <ns3:TrackPointExtension>
            <ns3:atemp>22.0</ns3:atemp>
          </ns3:TrackPointExtension>
        </extensions>
      </trkpt>
      <trkpt lat="43.1242547929286956787109375" lon="13.05254814215004444122314453125">
        <ele>481.79998779296875</ele>
        <time>2021-05-09T10:29:20.000Z</time>
        <extensions>
          <ns3:TrackPointExtension>
            <ns3:atemp>22.0</ns3:atemp>
          </ns3:TrackPointExtension>
        </extensions>
      </trkpt>
      <trkpt lat="43.12436182983219623565673828125" lon="13.05257714353501796722412109375">
        <ele>480.399993896484375</ele>
        <time>2021-05-09T10:29:21.000Z</time>
        <extensions>
          <ns3:TrackPointExtension>
            <ns3:atemp>22.0</ns3:atemp>
          </ns3:TrackPointExtension>
        </extensions>
      </trkpt>
      <trkpt lat="43.1244645081460475921630859375" lon="13.05260882712900638580322265625">
        <ele>479.20001220703125</ele>
        <time>2021-05-09T10:29:22.000Z</time>
        <extensions>
          <ns3:TrackPointExtension>
            <ns3:atemp>22.0</ns3:atemp>
          </ns3:TrackPointExtension>
        </extensions>
      </trkpt>
      <trkpt lat="43.12456852756440639495849609375" lon="13.0526367388665676116943359375">
        <ele>476.399993896484375</ele>
        <time>2021-05-09T10:29:23.000Z</time>
        <extensions>
          <ns3:TrackPointExtension>
            <ns3:atemp>22.0</ns3:atemp>
          </ns3:TrackPointExtension>
        </extensions>
      </trkpt>
      <trkpt lat="43.124772123992443084716796875" lon="13.052697591483592987060546875">
        <ele>474.399993896484375</ele>
        <time>2021-05-09T10:29:25.000Z</time>
        <extensions>
          <ns3:TrackPointExtension>
            <ns3:atemp>22.0</ns3:atemp>
          </ns3:TrackPointExtension>
        </extensions>
      </trkpt>
      <trkpt lat="43.12497689388692378997802734375" lon="13.0527678318321704864501953125">
        <ele>473</ele>
        <time>2021-05-09T10:29:27.000Z</time>
        <extensions>
          <ns3:TrackPointExtension>
            <ns3:atemp>22.0</ns3:atemp>
          </ns3:TrackPointExtension>
        </extensions>
      </trkpt>
      <trkpt lat="43.12507621943950653076171875" lon="13.05280328728258609771728515625">
        <ele>472.600006103515625</ele>
        <time>2021-05-09T10:29:28.000Z</time>
        <extensions>
          <ns3:TrackPointExtension>
            <ns3:atemp>22.0</ns3:atemp>
          </ns3:TrackPointExtension>
        </extensions>
      </trkpt>
      <trkpt lat="43.12526942230761051177978515625" lon="13.05286732502281665802001953125">
        <ele>471.600006103515625</ele>
        <time>2021-05-09T10:29:30.000Z</time>
        <extensions>
          <ns3:TrackPointExtension>
            <ns3:atemp>22.0</ns3:atemp>
          </ns3:TrackPointExtension>
        </extensions>
      </trkpt>
      <trkpt lat="43.12568415887653827667236328125" lon="13.052983917295932769775390625">
        <ele>470.600006103515625</ele>
        <time>2021-05-09T10:29:34.000Z</time>
        <extensions>
          <ns3:TrackPointExtension>
            <ns3:atemp>22.0</ns3:atemp>
          </ns3:TrackPointExtension>
        </extensions>
      </trkpt>
      <trkpt lat="43.12621154822409152984619140625" lon="13.05312775075435638427734375">
        <ele>469.399993896484375</ele>
        <time>2021-05-09T10:29:39.000Z</time>
        <extensions>
          <ns3:TrackPointExtension>
            <ns3:atemp>22.0</ns3:atemp>
          </ns3:TrackPointExtension>
        </extensions>
      </trkpt>
      <trkpt lat="43.12640030868351459503173828125" lon="13.05317125283181667327880859375">
        <ele>468</ele>
        <time>2021-05-09T10:29:41.000Z</time>
        <extensions>
          <ns3:TrackPointExtension>
            <ns3:atemp>22.0</ns3:atemp>
          </ns3:TrackPointExtension>
        </extensions>
      </trkpt>
      <trkpt lat="43.1264875642955303192138671875" lon="13.05319958366453647613525390625">
        <ele>467</ele>
        <time>2021-05-09T10:29:42.000Z</time>
        <extensions>
          <ns3:TrackPointExtension>
            <ns3:atemp>22.0</ns3:atemp>
          </ns3:TrackPointExtension>
        </extensions>
      </trkpt>
      <trkpt lat="43.1265687011182308197021484375" lon="13.053240068256855010986328125">
        <ele>465.79998779296875</ele>
        <time>2021-05-09T10:29:43.000Z</time>
        <extensions>
          <ns3:TrackPointExtension>
            <ns3:atemp>22.0</ns3:atemp>
          </ns3:TrackPointExtension>
        </extensions>
      </trkpt>
      <trkpt lat="43.126637935638427734375" lon="13.05329681374132633209228515625">
        <ele>465.20001220703125</ele>
        <time>2021-05-09T10:29:44.000Z</time>
        <extensions>
          <ns3:TrackPointExtension>
            <ns3:atemp>22.0</ns3:atemp>
          </ns3:TrackPointExtension>
        </extensions>
      </trkpt>
      <trkpt lat="43.12669585458934307098388671875" lon="13.0533609353005886077880859375">
        <ele>464.79998779296875</ele>
        <time>2021-05-09T10:29:45.000Z</time>
        <extensions>
          <ns3:TrackPointExtension>
            <ns3:atemp>22.0</ns3:atemp>
          </ns3:TrackPointExtension>
        </extensions>
      </trkpt>
      <trkpt lat="43.12683331780135631561279296875" lon="13.0535651184618473052978515625">
        <ele>464.600006103515625</ele>
        <time>2021-05-09T10:29:48.000Z</time>
        <extensions>
          <ns3:TrackPointExtension>
            <ns3:atemp>22.0</ns3:atemp>
          </ns3:TrackPointExtension>
        </extensions>
      </trkpt>
      <trkpt lat="43.1270630657672882080078125" lon="13.05406845174729824066162109375">
        <ele>465.79998779296875</ele>
        <time>2021-05-09T10:29:55.000Z</time>
        <extensions>
          <ns3:TrackPointExtension>
            <ns3:atemp>22.0</ns3:atemp>
          </ns3:TrackPointExtension>
        </extensions>
      </trkpt>
      <trkpt lat="43.12708921730518341064453125" lon="13.05412813089787960052490234375">
        <ele>466.399993896484375</ele>
        <time>2021-05-09T10:29:56.000Z</time>
        <extensions>
          <ns3:TrackPointExtension>
            <ns3:atemp>22.0</ns3:atemp>
          </ns3:TrackPointExtension>
        </extensions>
      </trkpt>
      <trkpt lat="43.12716121785342693328857421875" lon="13.05423793382942676544189453125">
        <ele>467.20001220703125</ele>
        <time>2021-05-09T10:29:59.000Z</time>
        <extensions>
          <ns3:TrackPointExtension>
            <ns3:atemp>22.0</ns3:atemp>
          </ns3:TrackPointExtension>
        </extensions>
      </trkpt>
      <trkpt lat="43.12716901302337646484375" lon="13.05426391772925853729248046875">
        <ele>467.79998779296875</ele>
        <time>2021-05-09T10:30:00.000Z</time>
        <extensions>
          <ns3:TrackPointExtension>
            <ns3:atemp>22.0</ns3:atemp>
          </ns3:TrackPointExtension>
        </extensions>
      </trkpt>
      <trkpt lat="43.1271569430828094482421875" lon="13.05431236512959003448486328125">
        <ele>468.399993896484375</ele>
        <time>2021-05-09T10:30:02.000Z</time>
        <extensions>
          <ns3:TrackPointExtension>
            <ns3:atemp>22.0</ns3:atemp>
          </ns3:TrackPointExtension>
        </extensions>
      </trkpt>
      <trkpt lat="43.12717773020267486572265625" lon="13.05436349473893642425537109375">
        <ele>469.20001220703125</ele>
        <time>2021-05-09T10:30:04.000Z</time>
        <extensions>
          <ns3:TrackPointExtension>
            <ns3:atemp>22.0</ns3:atemp>
          </ns3:TrackPointExtension>
        </extensions>
      </trkpt>
      <trkpt lat="43.1271966733038425445556640625" lon="13.0543872155249118804931640625">
        <ele>469.79998779296875</ele>
        <time>2021-05-09T10:30:05.000Z</time>
        <extensions>
          <ns3:TrackPointExtension>
            <ns3:atemp>22.0</ns3:atemp>
          </ns3:TrackPointExtension>
        </extensions>
      </trkpt>
      <trkpt lat="43.1272369064390659332275390625" lon="13.05443809367716312408447265625">
        <ele>470.399993896484375</ele>
        <time>2021-05-09T10:30:07.000Z</time>
        <extensions>
          <ns3:TrackPointExtension>
            <ns3:atemp>22.0</ns3:atemp>
          </ns3:TrackPointExtension>
        </extensions>
      </trkpt>
      <trkpt lat="43.12736657448112964630126953125" lon="13.0545620620250701904296875">
        <ele>470.79998779296875</ele>
        <time>2021-05-09T10:30:12.000Z</time>
        <extensions>
          <ns3:TrackPointExtension>
            <ns3:atemp>22.0</ns3:atemp>
          </ns3:TrackPointExtension>
        </extensions>
      </trkpt>
      <trkpt lat="43.127488531172275543212890625" lon="13.0547362379729747772216796875">
        <ele>471.20001220703125</ele>
        <time>2021-05-09T10:30:17.000Z</time>
        <extensions>
          <ns3:TrackPointExtension>
            <ns3:atemp>22.0</ns3:atemp>
          </ns3:TrackPointExtension>
        </extensions>
      </trkpt>
      <trkpt lat="43.1274990923702716827392578125" lon="13.05478745140135288238525390625">
        <ele>471.399993896484375</ele>
        <time>2021-05-09T10:30:18.000Z</time>
        <extensions>
          <ns3:TrackPointExtension>
            <ns3:atemp>22.0</ns3:atemp>
          </ns3:TrackPointExtension>
        </extensions>
      </trkpt>
      <trkpt lat="43.1275379844009876251220703125" lon="13.05500923655927181243896484375">
        <ele>471.79998779296875</ele>
        <time>2021-05-09T10:30:22.000Z</time>
        <extensions>
          <ns3:TrackPointExtension>
            <ns3:atemp>22.0</ns3:atemp>
          </ns3:TrackPointExtension>
        </extensions>
      </trkpt>
      <trkpt lat="43.12754913233220577239990234375" lon="13.0550636351108551025390625">
        <ele>472.20001220703125</ele>
        <time>2021-05-09T10:30:23.000Z</time>
        <extensions>
          <ns3:TrackPointExtension>
            <ns3:atemp>22.0</ns3:atemp>
          </ns3:TrackPointExtension>
        </extensions>
      </trkpt>
      <trkpt lat="43.12756665050983428955078125" lon="13.0551731027662754058837890625">
        <ele>473.20001220703125</ele>
        <time>2021-05-09T10:30:25.000Z</time>
        <extensions>
          <ns3:TrackPointExtension>
            <ns3:atemp>22.0</ns3:atemp>
          </ns3:TrackPointExtension>
        </extensions>
      </trkpt>
      <trkpt lat="43.12757712788879871368408203125" lon="13.0552284233272075653076171875">
        <ele>473.79998779296875</ele>
        <time>2021-05-09T10:30:26.000Z</time>
        <extensions>
          <ns3:TrackPointExtension>
            <ns3:atemp>22.0</ns3:atemp>
          </ns3:TrackPointExtension>
        </extensions>
      </trkpt>
      <trkpt lat="43.12761283479630947113037109375" lon="13.05532607249915599822998046875">
        <ele>474.399993896484375</ele>
        <time>2021-05-09T10:30:28.000Z</time>
        <extensions>
          <ns3:TrackPointExtension>
            <ns3:atemp>22.0</ns3:atemp>
          </ns3:TrackPointExtension>
        </extensions>
      </trkpt>
      <trkpt lat="43.12763161025941371917724609375" lon="13.0553685687482357025146484375">
        <ele>474.79998779296875</ele>
        <time>2021-05-09T10:30:29.000Z</time>
        <extensions>
          <ns3:TrackPointExtension>
            <ns3:atemp>22.0</ns3:atemp>
          </ns3:TrackPointExtension>
        </extensions>
      </trkpt>
      <trkpt lat="43.1276741065084934234619140625" lon="13.0554336123168468475341796875">
        <ele>475.399993896484375</ele>
        <time>2021-05-09T10:30:31.000Z</time>
        <extensions>
          <ns3:TrackPointExtension>
            <ns3:atemp>22.0</ns3:atemp>
          </ns3:TrackPointExtension>
        </extensions>
      </trkpt>
      <trkpt lat="43.1277228891849517822265625" lon="13.0554775334894657135009765625">
        <ele>476.79998779296875</ele>
        <time>2021-05-09T10:30:33.000Z</time>
        <extensions>
          <ns3:TrackPointExtension>
            <ns3:atemp>22.0</ns3:atemp>
          </ns3:TrackPointExtension>
        </extensions>
      </trkpt>
      <trkpt lat="43.1277451850473880767822265625" lon="13.05549957789480686187744140625">
        <ele>477.600006103515625</ele>
        <time>2021-05-09T10:30:34.000Z</time>
        <extensions>
          <ns3:TrackPointExtension>
            <ns3:atemp>22.0</ns3:atemp>
          </ns3:TrackPointExtension>
        </extensions>
      </trkpt>
      <trkpt lat="43.12776236794888973236083984375" lon="13.05552028119564056396484375">
        <ele>478.399993896484375</ele>
        <time>2021-05-09T10:30:35.000Z</time>
        <extensions>
          <ns3:TrackPointExtension>
            <ns3:atemp>22.0</ns3:atemp>
          </ns3:TrackPointExtension>
        </extensions>
      </trkpt>
      <trkpt lat="43.127789609134197235107421875" lon="13.05554131977260112762451171875">
        <ele>479.600006103515625</ele>
        <time>2021-05-09T10:30:37.000Z</time>
        <extensions>
          <ns3:TrackPointExtension>
            <ns3:atemp>22.0</ns3:atemp>
          </ns3:TrackPointExtension>
        </extensions>
      </trkpt>
      <trkpt lat="43.1277979910373687744140625" lon="13.05554919876158237457275390625">
        <ele>480.399993896484375</ele>
        <time>2021-05-09T10:30:38.000Z</time>
        <extensions>
          <ns3:TrackPointExtension>
            <ns3:atemp>22.0</ns3:atemp>
          </ns3:TrackPointExtension>
        </extensions>
      </trkpt>
      <trkpt lat="43.12780260108411312103271484375" lon="13.05555246770381927490234375">
        <ele>481</ele>
        <time>2021-05-09T10:30:39.000Z</time>
        <extensions>
          <ns3:TrackPointExtension>
            <ns3:atemp>22.0</ns3:atemp>
          </ns3:TrackPointExtension>
        </extensions>
      </trkpt>
      <trkpt lat="43.1278033554553985595703125" lon="13.05555104278028011322021484375">
        <ele>482.79998779296875</ele>
        <time>2021-05-09T10:30:41.000Z</time>
        <extensions>
          <ns3:TrackPointExtension>
            <ns3:atemp>22.0</ns3:atemp>
          </ns3:TrackPointExtension>
        </extensions>
      </trkpt>
      <trkpt lat="43.12780226580798625946044921875" lon="13.055552132427692413330078125">
        <ele>484</ele>
        <time>2021-05-09T10:30:43.000Z</time>
        <extensions>
          <ns3:TrackPointExtension>
            <ns3:atemp>22.0</ns3:atemp>
          </ns3:TrackPointExtension>
        </extensions>
      </trkpt>
      <trkpt lat="43.127801679074764251708984375" lon="13.05555322207510471343994140625">
        <ele>484.79998779296875</ele>
        <time>2021-05-09T10:30:44.000Z</time>
        <extensions>
          <ns3:TrackPointExtension>
            <ns3:atemp>22.0</ns3:atemp>
          </ns3:TrackPointExtension>
        </extensions>
      </trkpt>
      <trkpt lat="43.12780243344604969024658203125" lon="13.05555372498929500579833984375">
        <ele>485.399993896484375</ele>
        <time>2021-05-09T10:30:45.000Z</time>
        <extensions>
          <ns3:TrackPointExtension>
            <ns3:atemp>22.0</ns3:atemp>
          </ns3:TrackPointExtension>
        </extensions>
      </trkpt>
      <trkpt lat="43.12780025415122509002685546875" lon="13.05555380880832672119140625">
        <ele>486.399993896484375</ele>
        <time>2021-05-09T10:30:48.000Z</time>
        <extensions>
          <ns3:TrackPointExtension>
            <ns3:atemp>22.0</ns3:atemp>
          </ns3:TrackPointExtension>
        </extensions>
      </trkpt>
      <trkpt lat="43.12779857777059078216552734375" lon="13.05555422790348529815673828125">
        <ele>486.79998779296875</ele>
        <time>2021-05-09T10:30:53.000Z</time>
        <extensions>
          <ns3:TrackPointExtension>
            <ns3:atemp>22.0</ns3:atemp>
          </ns3:TrackPointExtension>
        </extensions>
      </trkpt>
      <trkpt lat="43.127799332141876220703125" lon="13.05555556900799274444580078125">
        <ele>486.600006103515625</ele>
        <time>2021-05-09T10:31:09.000Z</time>
        <extensions>
          <ns3:TrackPointExtension>
            <ns3:atemp>23.0</ns3:atemp>
          </ns3:TrackPointExtension>
        </extensions>
      </trkpt>
      <trkpt lat="43.12779790721833705902099609375" lon="13.055553473532199859619140625">
        <ele>486.399993896484375</ele>
        <time>2021-05-09T10:31:21.000Z</time>
        <extensions>
          <ns3:TrackPointExtension>
            <ns3:atemp>23.0</ns3:atemp>
          </ns3:TrackPointExtension>
        </extensions>
      </trkpt>
      <trkpt lat="43.1277988292276859283447265625" lon="13.05555355735123157501220703125">
        <ele>486.20001220703125</ele>
        <time>2021-05-09T10:31:37.000Z</time>
        <extensions>
          <ns3:TrackPointExtension>
            <ns3:atemp>23.0</ns3:atemp>
          </ns3:TrackPointExtension>
        </extensions>
      </trkpt>
      <trkpt lat="43.1278642080724239349365234375" lon="13.0556049384176731109619140625">
        <ele>486.20001220703125</ele>
        <time>2021-05-09T10:31:47.000Z</time>
        <extensions>
          <ns3:TrackPointExtension>
            <ns3:atemp>23.0</ns3:atemp>
          </ns3:TrackPointExtension>
        </extensions>
      </trkpt>
      <trkpt lat="43.12799119390547275543212890625" lon="13.0557709001004695892333984375">
        <ele>486.399993896484375</ele>
        <time>2021-05-09T10:31:52.000Z</time>
        <extensions>
          <ns3:TrackPointExtension>
            <ns3:atemp>23.0</ns3:atemp>
          </ns3:TrackPointExtension>
        </extensions>
      </trkpt>
      <trkpt lat="43.12801365740597248077392578125" lon="13.05579260922968387603759765625">
        <ele>486.399993896484375</ele>
        <time>2021-05-09T10:31:53.000Z</time>
        <extensions>
          <ns3:TrackPointExtension>
            <ns3:atemp>24.0</ns3:atemp>
          </ns3:TrackPointExtension>
        </extensions>
      </trkpt>
      <trkpt lat="43.12808096408843994140625" lon="13.0558253824710845947265625">
        <ele>486.600006103515625</ele>
        <time>2021-05-09T10:31:56.000Z</time>
        <extensions>
          <ns3:TrackPointExtension>
            <ns3:atemp>24.0</ns3:atemp>
          </ns3:TrackPointExtension>
        </extensions>
      </trkpt>
      <trkpt lat="43.1281069479882717132568359375" lon="13.05584457702934741973876953125">
        <ele>486.79998779296875</ele>
        <time>2021-05-09T10:31:57.000Z</time>
        <extensions>
          <ns3:TrackPointExtension>
            <ns3:atemp>24.0</ns3:atemp>
          </ns3:TrackPointExtension>
        </extensions>
      </trkpt>
      <trkpt lat="43.12818833626806735992431640625" lon="13.05591129697859287261962890625">
        <ele>488</ele>
        <time>2021-05-09T10:32:00.000Z</time>
        <extensions>
          <ns3:TrackPointExtension>
            <ns3:atemp>24.0</ns3:atemp>
          </ns3:TrackPointExtension>
        </extensions>
      </trkpt>
      <trkpt lat="43.1282588280737400054931640625" lon="13.05599033832550048828125">
        <ele>489.399993896484375</ele>
        <time>2021-05-09T10:32:03.000Z</time>
        <extensions>
          <ns3:TrackPointExtension>
            <ns3:atemp>24.0</ns3:atemp>
          </ns3:TrackPointExtension>
        </extensions>
      </trkpt>
      <trkpt lat="43.128325380384922027587890625" lon="13.05606753565371036529541015625">
        <ele>490.399993896484375</ele>
        <time>2021-05-09T10:32:06.000Z</time>
        <extensions>
          <ns3:TrackPointExtension>
            <ns3:atemp>24.0</ns3:atemp>
          </ns3:TrackPointExtension>
        </extensions>
      </trkpt>
      <trkpt lat="43.128395117819309234619140625" lon="13.05614800192415714263916015625">
        <ele>491.79998779296875</ele>
        <time>2021-05-09T10:32:09.000Z</time>
        <extensions>
          <ns3:TrackPointExtension>
            <ns3:atemp>24.0</ns3:atemp>
          </ns3:TrackPointExtension>
        </extensions>
      </trkpt>
      <trkpt lat="43.12841556966304779052734375" lon="13.05618010461330413818359375">
        <ele>492.399993896484375</ele>
        <time>2021-05-09T10:32:10.000Z</time>
        <extensions>
          <ns3:TrackPointExtension>
            <ns3:atemp>24.0</ns3:atemp>
          </ns3:TrackPointExtension>
        </extensions>
      </trkpt>
      <trkpt lat="43.12843677587807178497314453125" lon="13.05621254257857799530029296875">
        <ele>493</ele>
        <time>2021-05-09T10:32:11.000Z</time>
        <extensions>
          <ns3:TrackPointExtension>
            <ns3:atemp>24.0</ns3:atemp>
          </ns3:TrackPointExtension>
        </extensions>
      </trkpt>
      <trkpt lat="43.128479607403278350830078125" lon="13.05627490393817424774169921875">
        <ele>494.20001220703125</ele>
        <time>2021-05-09T10:32:13.000Z</time>
        <extensions>
          <ns3:TrackPointExtension>
            <ns3:atemp>24.0</ns3:atemp>
          </ns3:TrackPointExtension>
        </extensions>
      </trkpt>
      <trkpt lat="43.12852822244167327880859375" lon="13.05633039213716983795166015625">
        <ele>495.20001220703125</ele>
        <time>2021-05-09T10:32:15.000Z</time>
        <extensions>
          <ns3:TrackPointExtension>
            <ns3:atemp>24.0</ns3:atemp>
          </ns3:TrackPointExtension>
        </extensions>
      </trkpt>
      <trkpt lat="43.1285759992897510528564453125" lon="13.05638202466070652008056640625">
        <ele>496</ele>
        <time>2021-05-09T10:32:17.000Z</time>
        <extensions>
          <ns3:TrackPointExtension>
            <ns3:atemp>24.0</ns3:atemp>
          </ns3:TrackPointExtension>
        </extensions>
      </trkpt>
      <trkpt lat="43.128600977361202239990234375" lon="13.05640834383666515350341796875">
        <ele>496.399993896484375</ele>
        <time>2021-05-09T10:32:18.000Z</time>
        <extensions>
          <ns3:TrackPointExtension>
            <ns3:atemp>24.0</ns3:atemp>
          </ns3:TrackPointExtension>
        </extensions>
      </trkpt>
      <trkpt lat="43.12871329486370086669921875" lon="13.0565710365772247314453125">
        <ele>497.399993896484375</ele>
        <time>2021-05-09T10:32:23.000Z</time>
        <extensions>
          <ns3:TrackPointExtension>
            <ns3:atemp>24.0</ns3:atemp>
          </ns3:TrackPointExtension>
        </extensions>
      </trkpt>
      <trkpt lat="43.12873517163097858428955078125" lon="13.05660515092313289642333984375">
        <ele>497.600006103515625</ele>
        <time>2021-05-09T10:32:24.000Z</time>
        <extensions>
          <ns3:TrackPointExtension>
            <ns3:atemp>24.0</ns3:atemp>
          </ns3:TrackPointExtension>
        </extensions>
      </trkpt>
      <trkpt lat="43.128796108067035675048828125" lon="13.05668796412646770477294921875">
        <ele>498.399993896484375</ele>
        <time>2021-05-09T10:32:27.000Z</time>
        <extensions>
          <ns3:TrackPointExtension>
            <ns3:atemp>24.0</ns3:atemp>
          </ns3:TrackPointExtension>
        </extensions>
      </trkpt>
      <trkpt lat="43.12886961735785007476806640625" lon="13.05672727525234222412109375">
        <ele>499.399993896484375</ele>
        <time>2021-05-09T10:32:30.000Z</time>
        <extensions>
          <ns3:TrackPointExtension>
            <ns3:atemp>24.0</ns3:atemp>
          </ns3:TrackPointExtension>
        </extensions>
      </trkpt>
      <trkpt lat="43.1288958527147769927978515625" lon="13.05673934519290924072265625">
        <ele>499.600006103515625</ele>
        <time>2021-05-09T10:32:31.000Z</time>
        <extensions>
          <ns3:TrackPointExtension>
            <ns3:atemp>24.0</ns3:atemp>
          </ns3:TrackPointExtension>
        </extensions>
      </trkpt>
      <trkpt lat="43.1289743073284626007080078125" lon="13.0568357370793819427490234375">
        <ele>501</ele>
        <time>2021-05-09T10:32:35.000Z</time>
        <extensions>
          <ns3:TrackPointExtension>
            <ns3:atemp>24.0</ns3:atemp>
          </ns3:TrackPointExtension>
        </extensions>
      </trkpt>
      <trkpt lat="43.1289776600897312164306640625" lon="13.05696154944598674774169921875">
        <ele>502.20001220703125</ele>
        <time>2021-05-09T10:32:39.000Z</time>
        <extensions>
          <ns3:TrackPointExtension>
            <ns3:atemp>24.0</ns3:atemp>
          </ns3:TrackPointExtension>
        </extensions>
      </trkpt>
      <trkpt lat="43.1289810128509998321533203125" lon="13.057020641863346099853515625">
        <ele>503</ele>
        <time>2021-05-09T10:32:41.000Z</time>
        <extensions>
          <ns3:TrackPointExtension>
            <ns3:atemp>24.0</ns3:atemp>
          </ns3:TrackPointExtension>
        </extensions>
      </trkpt>
      <trkpt lat="43.1289887242019176483154296875" lon="13.05708266794681549072265625">
        <ele>503.399993896484375</ele>
        <time>2021-05-09T10:32:43.000Z</time>
        <extensions>
          <ns3:TrackPointExtension>
            <ns3:atemp>24.0</ns3:atemp>
          </ns3:TrackPointExtension>
        </extensions>
      </trkpt>
      <trkpt lat="43.1289924122393131256103515625" lon="13.05717788636684417724609375">
        <ele>504.600006103515625</ele>
        <time>2021-05-09T10:32:46.000Z</time>
        <extensions>
          <ns3:TrackPointExtension>
            <ns3:atemp>24.0</ns3:atemp>
          </ns3:TrackPointExtension>
        </extensions>
      </trkpt>
      <trkpt lat="43.12899836339056491851806640625" lon="13.057276792824268341064453125">
        <ele>505.79998779296875</ele>
        <time>2021-05-09T10:32:49.000Z</time>
        <extensions>
          <ns3:TrackPointExtension>
            <ns3:atemp>24.0</ns3:atemp>
          </ns3:TrackPointExtension>
        </extensions>
      </trkpt>
      <trkpt lat="43.12900657765567302703857421875" lon="13.05743244476616382598876953125">
        <ele>507.20001220703125</ele>
        <time>2021-05-09T10:32:53.000Z</time>
        <extensions>
          <ns3:TrackPointExtension>
            <ns3:atemp>24.0</ns3:atemp>
          </ns3:TrackPointExtension>
        </extensions>
      </trkpt>
      <trkpt lat="43.1290028057992458343505859375" lon="13.05754660628736019134521484375">
        <ele>508.20001220703125</ele>
        <time>2021-05-09T10:32:56.000Z</time>
        <extensions>
          <ns3:TrackPointExtension>
            <ns3:atemp>24.0</ns3:atemp>
          </ns3:TrackPointExtension>
        </extensions>
      </trkpt>
      <trkpt lat="43.1289969384670257568359375" lon="13.0575813911855220794677734375">
        <ele>508.399993896484375</ele>
        <time>2021-05-09T10:32:57.000Z</time>
        <extensions>
          <ns3:TrackPointExtension>
            <ns3:atemp>24.0</ns3:atemp>
          </ns3:TrackPointExtension>
        </extensions>
      </trkpt>
      <trkpt lat="43.12895871698856353759765625" lon="13.0577627755701541900634765625">
        <ele>509.399993896484375</ele>
        <time>2021-05-09T10:33:02.000Z</time>
        <extensions>
          <ns3:TrackPointExtension>
            <ns3:atemp>24.0</ns3:atemp>
          </ns3:TrackPointExtension>
        </extensions>
      </trkpt>
      <trkpt lat="43.1289352476596832275390625" lon="13.05790635757148265838623046875">
        <ele>510.600006103515625</ele>
        <time>2021-05-09T10:33:06.000Z</time>
        <extensions>
          <ns3:TrackPointExtension>
            <ns3:atemp>24.0</ns3:atemp>
          </ns3:TrackPointExtension>
        </extensions>
      </trkpt>
      <trkpt lat="43.1289203278720378875732421875" lon="13.05805890820920467376708984375">
        <ele>511.399993896484375</ele>
        <time>2021-05-09T10:33:10.000Z</time>
        <extensions>
          <ns3:TrackPointExtension>
            <ns3:atemp>24.0</ns3:atemp>
          </ns3:TrackPointExtension>
        </extensions>
      </trkpt>
      <trkpt lat="43.12891370616853237152099609375" lon="13.05813317187130451202392578125">
        <ele>511.79998779296875</ele>
        <time>2021-05-09T10:33:12.000Z</time>
        <extensions>
          <ns3:TrackPointExtension>
            <ns3:atemp>24.0</ns3:atemp>
          </ns3:TrackPointExtension>
        </extensions>
      </trkpt>
      <trkpt lat="43.12890063039958477020263671875" lon="13.058247081935405731201171875">
        <ele>513.20001220703125</ele>
        <time>2021-05-09T10:33:15.000Z</time>
        <extensions>
          <ns3:TrackPointExtension>
            <ns3:atemp>24.0</ns3:atemp>
          </ns3:TrackPointExtension>
        </extensions>
      </trkpt>
      <trkpt lat="43.1288935057818889617919921875" lon="13.058325536549091339111328125">
        <ele>514</ele>
        <time>2021-05-09T10:33:17.000Z</time>
        <extensions>
          <ns3:TrackPointExtension>
            <ns3:atemp>24.0</ns3:atemp>
          </ns3:TrackPointExtension>
        </extensions>
      </trkpt>
      <trkpt lat="43.1288857944309711456298828125" lon="13.05836476385593414306640625">
        <ele>514.20001220703125</ele>
        <time>2021-05-09T10:33:18.000Z</time>
        <extensions>
          <ns3:TrackPointExtension>
            <ns3:atemp>24.0</ns3:atemp>
          </ns3:TrackPointExtension>
        </extensions>
      </trkpt>
      <trkpt lat="43.1288445554673671722412109375" lon="13.05855712853372097015380859375">
        <ele>515.20001220703125</ele>
        <time>2021-05-09T10:33:23.000Z</time>
        <extensions>
          <ns3:TrackPointExtension>
            <ns3:atemp>25.0</ns3:atemp>
          </ns3:TrackPointExtension>
        </extensions>
      </trkpt>
      <trkpt lat="43.12884346581995487213134765625" lon="13.05866626091301441192626953125">
        <ele>516.20001220703125</ele>
        <time>2021-05-09T10:33:26.000Z</time>
        <extensions>
          <ns3:TrackPointExtension>
            <ns3:atemp>25.0</ns3:atemp>
          </ns3:TrackPointExtension>
        </extensions>
      </trkpt>
      <trkpt lat="43.12883726321160793304443359375" lon="13.058732561767101287841796875">
        <ele>517.79998779296875</ele>
        <time>2021-05-09T10:33:28.000Z</time>
        <extensions>
          <ns3:TrackPointExtension>
            <ns3:atemp>25.0</ns3:atemp>
          </ns3:TrackPointExtension>
        </extensions>
      </trkpt>
      <trkpt lat="43.128829635679721832275390625" lon="13.058766759932041168212890625">
        <ele>518.5999755859375</ele>
        <time>2021-05-09T10:33:29.000Z</time>
        <extensions>
          <ns3:TrackPointExtension>
            <ns3:atemp>25.0</ns3:atemp>
          </ns3:TrackPointExtension>
        </extensions>
      </trkpt>
      <trkpt lat="43.12882318161427974700927734375" lon="13.05880154483020305633544921875">
        <ele>519.4000244140625</ele>
        <time>2021-05-09T10:33:30.000Z</time>
        <extensions>
          <ns3:TrackPointExtension>
            <ns3:atemp>25.0</ns3:atemp>
          </ns3:TrackPointExtension>
        </extensions>
      </trkpt>
      <trkpt lat="43.12881211750209331512451171875" lon="13.0588695220649242401123046875">
        <ele>521.20001220703125</ele>
        <time>2021-05-09T10:33:32.000Z</time>
        <extensions>
          <ns3:TrackPointExtension>
            <ns3:atemp>25.0</ns3:atemp>
          </ns3:TrackPointExtension>
        </extensions>
      </trkpt>
      <trkpt lat="43.12880172394216060638427734375" lon="13.05893464945256710052490234375">
        <ele>523.20001220703125</ele>
        <time>2021-05-09T10:33:34.000Z</time>
        <extensions>
          <ns3:TrackPointExtension>
            <ns3:atemp>25.0</ns3:atemp>
          </ns3:TrackPointExtension>
        </extensions>
      </trkpt>
      <trkpt lat="43.12878479249775409698486328125" lon="13.05899550206959247589111328125">
        <ele>524.5999755859375</ele>
        <time>2021-05-09T10:33:36.000Z</time>
        <extensions>
          <ns3:TrackPointExtension>
            <ns3:atemp>25.0</ns3:atemp>
          </ns3:TrackPointExtension>
        </extensions>
      </trkpt>
      <trkpt lat="43.128766603767871856689453125" lon="13.05904864333570003509521484375">
        <ele>526</ele>
        <time>2021-05-09T10:33:38.000Z</time>
        <extensions>
          <ns3:TrackPointExtension>
            <ns3:atemp>25.0</ns3:atemp>
          </ns3:TrackPointExtension>
        </extensions>
      </trkpt>
      <trkpt lat="43.1287500075995922088623046875" lon="13.05909357033669948577880859375">
        <ele>527.4000244140625</ele>
        <time>2021-05-09T10:33:40.000Z</time>
        <extensions>
          <ns3:TrackPointExtension>
            <ns3:atemp>25.0</ns3:atemp>
          </ns3:TrackPointExtension>
        </extensions>
      </trkpt>
      <trkpt lat="43.12873299233615398406982421875" lon="13.05913832969963550567626953125">
        <ele>528.5999755859375</ele>
        <time>2021-05-09T10:33:42.000Z</time>
        <extensions>
          <ns3:TrackPointExtension>
            <ns3:atemp>25.0</ns3:atemp>
          </ns3:TrackPointExtension>
        </extensions>
      </trkpt>
      <trkpt lat="43.12872469425201416015625" lon="13.059164397418498992919921875">
        <ele>529</ele>
        <time>2021-05-09T10:33:43.000Z</time>
        <extensions>
          <ns3:TrackPointExtension>
            <ns3:atemp>25.0</ns3:atemp>
          </ns3:TrackPointExtension>
        </extensions>
      </trkpt>
      <trkpt lat="43.12871606089174747467041015625" lon="13.05919029749929904937744140625">
        <ele>529.5999755859375</ele>
        <time>2021-05-09T10:33:44.000Z</time>
        <extensions>
          <ns3:TrackPointExtension>
            <ns3:atemp>25.0</ns3:atemp>
          </ns3:TrackPointExtension>
        </extensions>
      </trkpt>
      <trkpt lat="43.1287080980837345123291015625" lon="13.05921636521816253662109375">
        <ele>530.79998779296875</ele>
        <time>2021-05-09T10:33:45.000Z</time>
        <extensions>
          <ns3:TrackPointExtension>
            <ns3:atemp>25.0</ns3:atemp>
          </ns3:TrackPointExtension>
        </extensions>
      </trkpt>
      <trkpt lat="43.12868957407772541046142578125" lon="13.0592778883874416351318359375">
        <ele>531.79998779296875</ele>
        <time>2021-05-09T10:33:47.000Z</time>
        <extensions>
          <ns3:TrackPointExtension>
            <ns3:atemp>25.0</ns3:atemp>
          </ns3:TrackPointExtension>
        </extensions>
      </trkpt>
      <trkpt lat="43.1286742351949214935302734375" lon="13.05933848954737186431884765625">
        <ele>533</ele>
        <time>2021-05-09T10:33:49.000Z</time>
        <extensions>
          <ns3:TrackPointExtension>
            <ns3:atemp>25.0</ns3:atemp>
          </ns3:TrackPointExtension>
        </extensions>
      </trkpt>
      <trkpt lat="43.12866409309208393096923828125" lon="13.059370256960391998291015625">
        <ele>533.4000244140625</ele>
        <time>2021-05-09T10:33:50.000Z</time>
        <extensions>
          <ns3:TrackPointExtension>
            <ns3:atemp>25.0</ns3:atemp>
          </ns3:TrackPointExtension>
        </extensions>
      </trkpt>
      <trkpt lat="43.12865504063665866851806640625" lon="13.05943354032933712005615234375">
        <ele>534.20001220703125</ele>
        <time>2021-05-09T10:33:52.000Z</time>
        <extensions>
          <ns3:TrackPointExtension>
            <ns3:atemp>25.0</ns3:atemp>
          </ns3:TrackPointExtension>
        </extensions>
      </trkpt>
      <trkpt lat="43.12865487299859523773193359375" lon="13.059539906680583953857421875">
        <ele>535.5999755859375</ele>
        <time>2021-05-09T10:33:55.000Z</time>
        <extensions>
          <ns3:TrackPointExtension>
            <ns3:atemp>25.0</ns3:atemp>
          </ns3:TrackPointExtension>
        </extensions>
      </trkpt>
      <trkpt lat="43.12864959239959716796875" lon="13.059617690742015838623046875">
        <ele>536.79998779296875</ele>
        <time>2021-05-09T10:33:58.000Z</time>
        <extensions>
          <ns3:TrackPointExtension>
            <ns3:atemp>25.0</ns3:atemp>
          </ns3:TrackPointExtension>
        </extensions>
      </trkpt>
      <trkpt lat="43.12864833511412143707275390625" lon="13.05962699465453624725341796875">
        <ele>537</ele>
        <time>2021-05-09T10:33:59.000Z</time>
        <extensions>
          <ns3:TrackPointExtension>
            <ns3:atemp>25.0</ns3:atemp>
          </ns3:TrackPointExtension>
        </extensions>
      </trkpt>
      <trkpt lat="43.12864716164767742156982421875" lon="13.05963085032999515533447265625">
        <ele>537.79998779296875</ele>
        <time>2021-05-09T10:34:02.000Z</time>
        <extensions>
          <ns3:TrackPointExtension>
            <ns3:atemp>25.0</ns3:atemp>
          </ns3:TrackPointExtension>
        </extensions>
      </trkpt>
      <trkpt lat="43.12864799983799457550048828125" lon="13.05963772349059581756591796875">
        <ele>539.4000244140625</ele>
        <time>2021-05-09T10:34:05.000Z</time>
        <extensions>
          <ns3:TrackPointExtension>
            <ns3:atemp>25.0</ns3:atemp>
          </ns3:TrackPointExtension>
        </extensions>
      </trkpt>
      <trkpt lat="43.12864766456186771392822265625" lon="13.05963872931897640228271484375">
        <ele>540.4000244140625</ele>
        <time>2021-05-09T10:34:08.000Z</time>
        <extensions>
          <ns3:TrackPointExtension>
            <ns3:atemp>25.0</ns3:atemp>
          </ns3:TrackPointExtension>
        </extensions>
      </trkpt>
      <trkpt lat="43.12864783219993114471435546875" lon="13.0596389807760715484619140625">
        <ele>540.4000244140625</ele>
        <time>2021-05-09T10:34:09.000Z</time>
        <extensions>
          <ns3:TrackPointExtension>
            <ns3:atemp>25.0</ns3:atemp>
          </ns3:TrackPointExtension>
        </extensions>
      </trkpt>
      <trkpt lat="43.12867934815585613250732421875" lon="13.05966605432331562042236328125">
        <ele>540.5999755859375</ele>
        <time>2021-05-09T10:34:13.000Z</time>
        <extensions>
          <ns3:TrackPointExtension>
            <ns3:atemp>25.0</ns3:atemp>
          </ns3:TrackPointExtension>
        </extensions>
      </trkpt>
      <trkpt lat="43.12871589325368404388427734375" lon="13.0597117356956005096435546875">
        <ele>540.5999755859375</ele>
        <time>2021-05-09T10:34:15.000Z</time>
        <extensions>
          <ns3:TrackPointExtension>
            <ns3:atemp>25.0</ns3:atemp>
          </ns3:TrackPointExtension>
        </extensions>
      </trkpt>
      <trkpt lat="43.12873148359358310699462890625" lon="13.059779293835163116455078125">
        <ele>540.5999755859375</ele>
        <time>2021-05-09T10:34:17.000Z</time>
        <extensions>
          <ns3:TrackPointExtension>
            <ns3:atemp>25.0</ns3:atemp>
          </ns3:TrackPointExtension>
        </extensions>
      </trkpt>
      <trkpt lat="43.12875009141862392425537109375" lon="13.059851042926311492919921875">
        <ele>540.5999755859375</ele>
        <time>2021-05-09T10:34:19.000Z</time>
        <extensions>
          <ns3:TrackPointExtension>
            <ns3:atemp>25.0</ns3:atemp>
          </ns3:TrackPointExtension>
        </extensions>
      </trkpt>
      <trkpt lat="43.12878646887838840484619140625" lon="13.0600258894264698028564453125">
        <ele>540.5999755859375</ele>
        <time>2021-05-09T10:34:24.000Z</time>
        <extensions>
          <ns3:TrackPointExtension>
            <ns3:atemp>25.0</ns3:atemp>
          </ns3:TrackPointExtension>
        </extensions>
      </trkpt>
      <trkpt lat="43.128801472485065460205078125" lon="13.060125298798084259033203125">
        <ele>541.79998779296875</ele>
        <time>2021-05-09T10:34:27.000Z</time>
        <extensions>
          <ns3:TrackPointExtension>
            <ns3:atemp>25.0</ns3:atemp>
          </ns3:TrackPointExtension>
        </extensions>
      </trkpt>
      <trkpt lat="43.12882058322429656982421875" lon="13.06019243784248828887939453125">
        <ele>542.79998779296875</ele>
        <time>2021-05-09T10:34:29.000Z</time>
        <extensions>
          <ns3:TrackPointExtension>
            <ns3:atemp>25.0</ns3:atemp>
          </ns3:TrackPointExtension>
        </extensions>
      </trkpt>
      <trkpt lat="43.12882603146135807037353515625" lon="13.0602295696735382080078125">
        <ele>543.20001220703125</ele>
        <time>2021-05-09T10:34:30.000Z</time>
        <extensions>
          <ns3:TrackPointExtension>
            <ns3:atemp>25.0</ns3:atemp>
          </ns3:TrackPointExtension>
        </extensions>
      </trkpt>
      <trkpt lat="43.128832988440990447998046875" lon="13.06030257605016231536865234375">
        <ele>544</ele>
        <time>2021-05-09T10:34:32.000Z</time>
        <extensions>
          <ns3:TrackPointExtension>
            <ns3:atemp>25.0</ns3:atemp>
          </ns3:TrackPointExtension>
        </extensions>
      </trkpt>
      <trkpt lat="43.128820918500423431396484375" lon="13.0603407137095928192138671875">
        <ele>544.4000244140625</ele>
        <time>2021-05-09T10:34:33.000Z</time>
        <extensions>
          <ns3:TrackPointExtension>
            <ns3:atemp>25.0</ns3:atemp>
          </ns3:TrackPointExtension>
        </extensions>
      </trkpt>
      <trkpt lat="43.1288011372089385986328125" lon="13.0603812821209430694580078125">
        <ele>544.5999755859375</ele>
        <time>2021-05-09T10:34:34.000Z</time>
        <extensions>
          <ns3:TrackPointExtension>
            <ns3:atemp>25.0</ns3:atemp>
          </ns3:TrackPointExtension>
        </extensions>
      </trkpt>
      <trkpt lat="43.12878428958356380462646484375" lon="13.06042109616100788116455078125">
        <ele>545</ele>
        <time>2021-05-09T10:34:35.000Z</time>
        <extensions>
          <ns3:TrackPointExtension>
            <ns3:atemp>25.0</ns3:atemp>
          </ns3:TrackPointExtension>
        </extensions>
      </trkpt>
      <trkpt lat="43.1287018954753875732421875" lon="13.0605301447212696075439453125">
        <ele>545.5999755859375</ele>
        <time>2021-05-09T10:34:39.000Z</time>
        <extensions>
          <ns3:TrackPointExtension>
            <ns3:atemp>25.0</ns3:atemp>
          </ns3:TrackPointExtension>
        </extensions>
      </trkpt>
      <trkpt lat="43.12864565290510654449462890625" lon="13.06058303453028202056884765625">
        <ele>546</ele>
        <time>2021-05-09T10:34:41.000Z</time>
        <extensions>
          <ns3:TrackPointExtension>
            <ns3:atemp>25.0</ns3:atemp>
          </ns3:TrackPointExtension>
        </extensions>
      </trkpt>
      <trkpt lat="43.12858982942998409271240234375" lon="13.0606981180608272552490234375">
        <ele>546.4000244140625</ele>
        <time>2021-05-09T10:34:44.000Z</time>
        <extensions>
          <ns3:TrackPointExtension>
            <ns3:atemp>25.0</ns3:atemp>
          </ns3:TrackPointExtension>
        </extensions>
      </trkpt>
      <trkpt lat="43.12856040894985198974609375" lon="13.06090674363076686859130859375">
        <ele>546.5999755859375</ele>
        <time>2021-05-09T10:34:49.000Z</time>
        <extensions>
          <ns3:TrackPointExtension>
            <ns3:atemp>25.0</ns3:atemp>
          </ns3:TrackPointExtension>
        </extensions>
      </trkpt>
      <trkpt lat="43.12861329875886440277099609375" lon="13.0611349828541278839111328125">
        <ele>547</ele>
        <time>2021-05-09T10:34:56.000Z</time>
        <extensions>
          <ns3:TrackPointExtension>
            <ns3:atemp>25.0</ns3:atemp>
          </ns3:TrackPointExtension>
        </extensions>
      </trkpt>
      <trkpt lat="43.1286185793578624725341796875" lon="13.06116767227649688720703125">
        <ele>547.20001220703125</ele>
        <time>2021-05-09T10:34:57.000Z</time>
        <extensions>
          <ns3:TrackPointExtension>
            <ns3:atemp>25.0</ns3:atemp>
          </ns3:TrackPointExtension>
        </extensions>
      </trkpt>
      <trkpt lat="43.12863257713615894317626953125" lon="13.06126448325812816619873046875">
        <ele>548.4000244140625</ele>
        <time>2021-05-09T10:35:00.000Z</time>
        <extensions>
          <ns3:TrackPointExtension>
            <ns3:atemp>25.0</ns3:atemp>
          </ns3:TrackPointExtension>
        </extensions>
      </trkpt>
      <trkpt lat="43.12863190658390522003173828125" lon="13.06136053986847400665283203125">
        <ele>549.79998779296875</ele>
        <time>2021-05-09T10:35:03.000Z</time>
        <extensions>
          <ns3:TrackPointExtension>
            <ns3:atemp>25.0</ns3:atemp>
          </ns3:TrackPointExtension>
        </extensions>
      </trkpt>
      <trkpt lat="43.1286246143281459808349609375" lon="13.06145894341170787811279296875">
        <ele>551.20001220703125</ele>
        <time>2021-05-09T10:35:06.000Z</time>
        <extensions>
          <ns3:TrackPointExtension>
            <ns3:atemp>25.0</ns3:atemp>
          </ns3:TrackPointExtension>
        </extensions>
      </trkpt>
      <trkpt lat="43.128631822764873504638671875" lon="13.061518706381320953369140625">
        <ele>552.20001220703125</ele>
        <time>2021-05-09T10:35:08.000Z</time>
        <extensions>
          <ns3:TrackPointExtension>
            <ns3:atemp>25.0</ns3:atemp>
          </ns3:TrackPointExtension>
        </extensions>
      </trkpt>
      <trkpt lat="43.1286356784403324127197265625" lon="13.061611913144588470458984375">
        <ele>553</ele>
        <time>2021-05-09T10:35:11.000Z</time>
        <extensions>
          <ns3:TrackPointExtension>
            <ns3:atemp>25.0</ns3:atemp>
          </ns3:TrackPointExtension>
        </extensions>
      </trkpt>
      <trkpt lat="43.1286437250673770904541015625" lon="13.06166932918131351470947265625">
        <ele>553.79998779296875</ele>
        <time>2021-05-09T10:35:13.000Z</time>
        <extensions>
          <ns3:TrackPointExtension>
            <ns3:atemp>25.0</ns3:atemp>
          </ns3:TrackPointExtension>
        </extensions>
      </trkpt>
      <trkpt lat="43.128642551600933074951171875" lon="13.061731271445751190185546875">
        <ele>554.79998779296875</ele>
        <time>2021-05-09T10:35:15.000Z</time>
        <extensions>
          <ns3:TrackPointExtension>
            <ns3:atemp>25.0</ns3:atemp>
          </ns3:TrackPointExtension>
        </extensions>
      </trkpt>
      <trkpt lat="43.12864146195352077484130859375" lon="13.06176471523940563201904296875">
        <ele>555.4000244140625</ele>
        <time>2021-05-09T10:35:16.000Z</time>
        <extensions>
          <ns3:TrackPointExtension>
            <ns3:atemp>25.0</ns3:atemp>
          </ns3:TrackPointExtension>
        </extensions>
      </trkpt>
      <trkpt lat="43.12864162959158420562744140625" lon="13.06183730252087116241455078125">
        <ele>556.5999755859375</ele>
        <time>2021-05-09T10:35:18.000Z</time>
        <extensions>
          <ns3:TrackPointExtension>
            <ns3:atemp>25.0</ns3:atemp>
          </ns3:TrackPointExtension>
        </extensions>
      </trkpt>
      <trkpt lat="43.12864758074283599853515625" lon="13.06189991533756256103515625">
        <ele>557.5999755859375</ele>
        <time>2021-05-09T10:35:20.000Z</time>
        <extensions>
          <ns3:TrackPointExtension>
            <ns3:atemp>25.0</ns3:atemp>
          </ns3:TrackPointExtension>
        </extensions>
      </trkpt>
      <trkpt lat="43.128657974302768707275390625" lon="13.0619252286851406097412109375">
        <ele>558.20001220703125</ele>
        <time>2021-05-09T10:35:21.000Z</time>
        <extensions>
          <ns3:TrackPointExtension>
            <ns3:atemp>25.0</ns3:atemp>
          </ns3:TrackPointExtension>
        </extensions>
      </trkpt>
      <trkpt lat="43.1286722235381603240966796875" lon="13.0619435012340545654296875">
        <ele>558.5999755859375</ele>
        <time>2021-05-09T10:35:22.000Z</time>
        <extensions>
          <ns3:TrackPointExtension>
            <ns3:atemp>25.0</ns3:atemp>
          </ns3:TrackPointExtension>
        </extensions>
      </trkpt>
      <trkpt lat="43.1287245266139507293701171875" lon="13.061968646943569183349609375">
        <ele>559.5999755859375</ele>
        <time>2021-05-09T10:35:24.000Z</time>
        <extensions>
          <ns3:TrackPointExtension>
            <ns3:atemp>25.0</ns3:atemp>
          </ns3:TrackPointExtension>
        </extensions>
      </trkpt>
      <trkpt lat="43.12874816358089447021484375" lon="13.06198297999799251556396484375">
        <ele>560.20001220703125</ele>
        <time>2021-05-09T10:35:25.000Z</time>
        <extensions>
          <ns3:TrackPointExtension>
            <ns3:atemp>25.0</ns3:atemp>
          </ns3:TrackPointExtension>
        </extensions>
      </trkpt>
      <trkpt lat="43.1287949346005916595458984375" lon="13.062004856765270233154296875">
        <ele>561.79998779296875</ele>
        <time>2021-05-09T10:35:27.000Z</time>
        <extensions>
          <ns3:TrackPointExtension>
            <ns3:atemp>25.0</ns3:atemp>
          </ns3:TrackPointExtension>
        </extensions>
      </trkpt>
      <trkpt lat="43.12884279526770114898681640625" lon="13.06203134357929229736328125">
        <ele>563</ele>
        <time>2021-05-09T10:35:29.000Z</time>
        <extensions>
          <ns3:TrackPointExtension>
            <ns3:atemp>25.0</ns3:atemp>
          </ns3:TrackPointExtension>
        </extensions>
      </trkpt>
      <trkpt lat="43.1288797594606876373291015625" lon="13.062059842050075531005859375">
        <ele>564</ele>
        <time>2021-05-09T10:35:31.000Z</time>
        <extensions>
          <ns3:TrackPointExtension>
            <ns3:atemp>25.0</ns3:atemp>
          </ns3:TrackPointExtension>
        </extensions>
      </trkpt>
      <trkpt lat="43.128940276801586151123046875" lon="13.06213066913187503814697265625">
        <ele>565.20001220703125</ele>
        <time>2021-05-09T10:35:34.000Z</time>
        <extensions>
          <ns3:TrackPointExtension>
            <ns3:atemp>25.0</ns3:atemp>
          </ns3:TrackPointExtension>
        </extensions>
      </trkpt>
      <trkpt lat="43.1289781630039215087890625" lon="13.06221482343971729278564453125">
        <ele>566.4000244140625</ele>
        <time>2021-05-09T10:35:37.000Z</time>
        <extensions>
          <ns3:TrackPointExtension>
            <ns3:atemp>25.0</ns3:atemp>
          </ns3:TrackPointExtension>
        </extensions>
      </trkpt>
      <trkpt lat="43.12900087796151638031005859375" lon="13.06230383925139904022216796875">
        <ele>567.5999755859375</ele>
        <time>2021-05-09T10:35:40.000Z</time>
        <extensions>
          <ns3:TrackPointExtension>
            <ns3:atemp>25.0</ns3:atemp>
          </ns3:TrackPointExtension>
        </extensions>
      </trkpt>
      <trkpt lat="43.129011355340480804443359375" lon="13.06235530413687229156494140625">
        <ele>569.4000244140625</ele>
        <time>2021-05-09T10:35:42.000Z</time>
        <extensions>
          <ns3:TrackPointExtension>
            <ns3:atemp>25.0</ns3:atemp>
          </ns3:TrackPointExtension>
        </extensions>
      </trkpt>
      <trkpt lat="43.12902837060391902923583984375" lon="13.06241062469780445098876953125">
        <ele>570.5999755859375</ele>
        <time>2021-05-09T10:35:44.000Z</time>
        <extensions>
          <ns3:TrackPointExtension>
            <ns3:atemp>25.0</ns3:atemp>
          </ns3:TrackPointExtension>
        </extensions>
      </trkpt>
      <trkpt lat="43.12903507612645626068115234375" lon="13.06245982646942138671875">
        <ele>571.5999755859375</ele>
        <time>2021-05-09T10:35:46.000Z</time>
        <extensions>
          <ns3:TrackPointExtension>
            <ns3:atemp>25.0</ns3:atemp>
          </ns3:TrackPointExtension>
        </extensions>
      </trkpt>
      <trkpt lat="43.12904831953346729278564453125" lon="13.0625099502503871917724609375">
        <ele>572.79998779296875</ele>
        <time>2021-05-09T10:35:48.000Z</time>
        <extensions>
          <ns3:TrackPointExtension>
            <ns3:atemp>25.0</ns3:atemp>
          </ns3:TrackPointExtension>
        </extensions>
      </trkpt>
      <trkpt lat="43.12906466424465179443359375" lon="13.06256652809679508209228515625">
        <ele>574</ele>
        <time>2021-05-09T10:35:50.000Z</time>
        <extensions>
          <ns3:TrackPointExtension>
            <ns3:atemp>25.0</ns3:atemp>
          </ns3:TrackPointExtension>
        </extensions>
      </trkpt>
      <trkpt lat="43.12909416854381561279296875" lon="13.06264833547174930572509765625">
        <ele>575.4000244140625</ele>
        <time>2021-05-09T10:35:53.000Z</time>
        <extensions>
          <ns3:TrackPointExtension>
            <ns3:atemp>25.0</ns3:atemp>
          </ns3:TrackPointExtension>
        </extensions>
      </trkpt>
      <trkpt lat="43.12910967506468296051025390625" lon="13.06270717643201351165771484375">
        <ele>576.4000244140625</ele>
        <time>2021-05-09T10:35:55.000Z</time>
        <extensions>
          <ns3:TrackPointExtension>
            <ns3:atemp>25.0</ns3:atemp>
          </ns3:TrackPointExtension>
        </extensions>
      </trkpt>
      <trkpt lat="43.12913666479289531707763671875" lon="13.06283843703567981719970703125">
        <ele>578</ele>
        <time>2021-05-09T10:35:58.000Z</time>
        <extensions>
          <ns3:TrackPointExtension>
            <ns3:atemp>25.0</ns3:atemp>
          </ns3:TrackPointExtension>
        </extensions>
      </trkpt>
      <trkpt lat="43.1291580386459827423095703125" lon="13.0629598908126354217529296875">
        <ele>579.20001220703125</ele>
        <time>2021-05-09T10:36:01.000Z</time>
        <extensions>
          <ns3:TrackPointExtension>
            <ns3:atemp>25.0</ns3:atemp>
          </ns3:TrackPointExtension>
        </extensions>
      </trkpt>
      <trkpt lat="43.12915225513279438018798828125" lon="13.0630339868366718292236328125">
        <ele>579.79998779296875</ele>
        <time>2021-05-09T10:36:03.000Z</time>
        <extensions>
          <ns3:TrackPointExtension>
            <ns3:atemp>25.0</ns3:atemp>
          </ns3:TrackPointExtension>
        </extensions>
      </trkpt>
      <trkpt lat="43.12911755405366420745849609375" lon="13.06310129351913928985595703125">
        <ele>580.20001220703125</ele>
        <time>2021-05-09T10:36:05.000Z</time>
        <extensions>
          <ns3:TrackPointExtension>
            <ns3:atemp>25.0</ns3:atemp>
          </ns3:TrackPointExtension>
        </extensions>
      </trkpt>
      <trkpt lat="43.12907941639423370361328125" lon="13.06315175257623195648193359375">
        <ele>580.4000244140625</ele>
        <time>2021-05-09T10:36:07.000Z</time>
        <extensions>
          <ns3:TrackPointExtension>
            <ns3:atemp>25.0</ns3:atemp>
          </ns3:TrackPointExtension>
        </extensions>
      </trkpt>
      <trkpt lat="43.1290452182292938232421875" lon="13.06321076117455959320068359375">
        <ele>580.79998779296875</ele>
        <time>2021-05-09T10:36:12.000Z</time>
        <extensions>
          <ns3:TrackPointExtension>
            <ns3:atemp>25.0</ns3:atemp>
          </ns3:TrackPointExtension>
        </extensions>
      </trkpt>
      <trkpt lat="43.12904513441026210784912109375" lon="13.063218891620635986328125">
        <ele>581.20001220703125</ele>
        <time>2021-05-09T10:36:16.000Z</time>
        <extensions>
          <ns3:TrackPointExtension>
            <ns3:atemp>25.0</ns3:atemp>
          </ns3:TrackPointExtension>
        </extensions>
      </trkpt>
      <trkpt lat="43.129046224057674407958984375" lon="13.06321981362998485565185546875">
        <ele>582.20001220703125</ele>
        <time>2021-05-09T10:36:22.000Z</time>
        <extensions>
          <ns3:TrackPointExtension>
            <ns3:atemp>25.0</ns3:atemp>
          </ns3:TrackPointExtension>
        </extensions>
      </trkpt>
      <trkpt lat="43.12904186546802520751953125" lon="13.0632465519011020660400390625">
        <ele>582.5999755859375</ele>
        <time>2021-05-09T10:36:25.000Z</time>
        <extensions>
          <ns3:TrackPointExtension>
            <ns3:atemp>25.0</ns3:atemp>
          </ns3:TrackPointExtension>
        </extensions>
      </trkpt>
      <trkpt lat="43.129038512706756591796875" lon="13.06328795850276947021484375">
        <ele>582.5999755859375</ele>
        <time>2021-05-09T10:36:27.000Z</time>
        <extensions>
          <ns3:TrackPointExtension>
            <ns3:atemp>25.0</ns3:atemp>
          </ns3:TrackPointExtension>
        </extensions>
      </trkpt>
      <trkpt lat="43.1290738843381404876708984375" lon="13.06333196349442005157470703125">
        <ele>582.5999755859375</ele>
        <time>2021-05-09T10:36:30.000Z</time>
        <extensions>
          <ns3:TrackPointExtension>
            <ns3:atemp>25.0</ns3:atemp>
          </ns3:TrackPointExtension>
        </extensions>
      </trkpt>
      <trkpt lat="43.1291560269892215728759765625" lon="13.0634312890470027923583984375">
        <ele>582.79998779296875</ele>
        <time>2021-05-09T10:36:36.000Z</time>
        <extensions>
          <ns3:TrackPointExtension>
            <ns3:atemp>25.0</ns3:atemp>
          </ns3:TrackPointExtension>
        </extensions>
      </trkpt>
      <trkpt lat="43.12918678857386112213134765625" lon="13.06344159878790378570556640625">
        <ele>583.20001220703125</ele>
        <time>2021-05-09T10:36:38.000Z</time>
        <extensions>
          <ns3:TrackPointExtension>
            <ns3:atemp>25.0</ns3:atemp>
          </ns3:TrackPointExtension>
        </extensions>
      </trkpt>
      <trkpt lat="43.12919282354414463043212890625" lon="13.06344143114984035491943359375">
        <ele>583.4000244140625</ele>
        <time>2021-05-09T10:36:40.000Z</time>
        <extensions>
          <ns3:TrackPointExtension>
            <ns3:atemp>25.0</ns3:atemp>
          </ns3:TrackPointExtension>
        </extensions>
      </trkpt>
      <trkpt lat="43.12919282354414463043212890625" lon="13.0634428560733795166015625">
        <ele>583.4000244140625</ele>
        <time>2021-05-09T10:36:41.000Z</time>
        <extensions>
          <ns3:TrackPointExtension>
            <ns3:atemp>25.0</ns3:atemp>
          </ns3:TrackPointExtension>
        </extensions>
      </trkpt>
      <trkpt lat="43.12923364341259002685546875" lon="13.06347043253481388092041015625">
        <ele>584</ele>
        <time>2021-05-09T10:36:47.000Z</time>
        <extensions>
          <ns3:TrackPointExtension>
            <ns3:atemp>25.0</ns3:atemp>
          </ns3:TrackPointExtension>
        </extensions>
      </trkpt>
      <trkpt lat="43.12925233505666255950927734375" lon="13.06349507533013820648193359375">
        <ele>584</ele>
        <time>2021-05-09T10:36:48.000Z</time>
        <extensions>
          <ns3:TrackPointExtension>
            <ns3:atemp>25.0</ns3:atemp>
          </ns3:TrackPointExtension>
        </extensions>
      </trkpt>
      <trkpt lat="43.1293622218072414398193359375" lon="13.06371417827904224395751953125">
        <ele>584.20001220703125</ele>
        <time>2021-05-09T10:36:54.000Z</time>
        <extensions>
          <ns3:TrackPointExtension>
            <ns3:atemp>25.0</ns3:atemp>
          </ns3:TrackPointExtension>
        </extensions>
      </trkpt>
      <trkpt lat="43.12950865365564823150634765625" lon="13.06399715133011341094970703125">
        <ele>584.20001220703125</ele>
        <time>2021-05-09T10:37:01.000Z</time>
        <extensions>
          <ns3:TrackPointExtension>
            <ns3:atemp>25.0</ns3:atemp>
          </ns3:TrackPointExtension>
        </extensions>
      </trkpt>
      <trkpt lat="43.1296594440937042236328125" lon="13.0642802082002162933349609375">
        <ele>584</ele>
        <time>2021-05-09T10:37:07.000Z</time>
        <extensions>
          <ns3:TrackPointExtension>
            <ns3:atemp>25.0</ns3:atemp>
          </ns3:TrackPointExtension>
        </extensions>
      </trkpt>
      <trkpt lat="43.12981610186398029327392578125" lon="13.064538873732089996337890625">
        <ele>584.4000244140625</ele>
        <time>2021-05-09T10:37:13.000Z</time>
        <extensions>
          <ns3:TrackPointExtension>
            <ns3:atemp>24.0</ns3:atemp>
          </ns3:TrackPointExtension>
        </extensions>
      </trkpt>
      <trkpt lat="43.129842840135097503662109375" lon="13.0645827949047088623046875">
        <ele>584.79998779296875</ele>
        <time>2021-05-09T10:37:14.000Z</time>
        <extensions>
          <ns3:TrackPointExtension>
            <ns3:atemp>24.0</ns3:atemp>
          </ns3:TrackPointExtension>
        </extensions>
      </trkpt>
      <trkpt lat="43.1299945525825023651123046875" lon="13.06486685760319232940673828125">
        <ele>585.79998779296875</ele>
        <time>2021-05-09T10:37:20.000Z</time>
        <extensions>
          <ns3:TrackPointExtension>
            <ns3:atemp>24.0</ns3:atemp>
          </ns3:TrackPointExtension>
        </extensions>
      </trkpt>
      <trkpt lat="43.1300210393965244293212890625" lon="13.064914382994174957275390625">
        <ele>586</ele>
        <time>2021-05-09T10:37:21.000Z</time>
        <extensions>
          <ns3:TrackPointExtension>
            <ns3:atemp>24.0</ns3:atemp>
          </ns3:TrackPointExtension>
        </extensions>
      </trkpt>
      <trkpt lat="43.1302121467888355255126953125" lon="13.06525611318647861480712890625">
        <ele>586.5999755859375</ele>
        <time>2021-05-09T10:37:28.000Z</time>
        <extensions>
          <ns3:TrackPointExtension>
            <ns3:atemp>24.0</ns3:atemp>
          </ns3:TrackPointExtension>
        </extensions>
      </trkpt>
      <trkpt lat="43.13023553229868412017822265625" lon="13.06530095636844635009765625">
        <ele>586.5999755859375</ele>
        <time>2021-05-09T10:37:29.000Z</time>
        <extensions>
          <ns3:TrackPointExtension>
            <ns3:atemp>24.0</ns3:atemp>
          </ns3:TrackPointExtension>
        </extensions>
      </trkpt>
      <trkpt lat="43.13038590364158153533935546875" lon="13.0655582807958126068115234375">
        <ele>587</ele>
        <time>2021-05-09T10:37:35.000Z</time>
        <extensions>
          <ns3:TrackPointExtension>
            <ns3:atemp>24.0</ns3:atemp>
          </ns3:TrackPointExtension>
        </extensions>
      </trkpt>
      <trkpt lat="43.130528815090656280517578125" lon="13.06582122109830379486083984375">
        <ele>587.5999755859375</ele>
        <time>2021-05-09T10:37:41.000Z</time>
        <extensions>
          <ns3:TrackPointExtension>
            <ns3:atemp>24.0</ns3:atemp>
          </ns3:TrackPointExtension>
        </extensions>
      </trkpt>
      <trkpt lat="43.1306094489991664886474609375" lon="13.06595331989228725433349609375">
        <ele>588.20001220703125</ele>
        <time>2021-05-09T10:37:44.000Z</time>
        <extensions>
          <ns3:TrackPointExtension>
            <ns3:atemp>24.0</ns3:atemp>
          </ns3:TrackPointExtension>
        </extensions>
      </trkpt>
      <trkpt lat="43.13072000630199909210205078125" lon="13.06602875702083110809326171875">
        <ele>588.5999755859375</ele>
        <time>2021-05-09T10:37:47.000Z</time>
        <extensions>
          <ns3:TrackPointExtension>
            <ns3:atemp>24.0</ns3:atemp>
          </ns3:TrackPointExtension>
        </extensions>
      </trkpt>
      <trkpt lat="43.1307609938085079193115234375" lon="13.0660410784184932708740234375">
        <ele>588.79998779296875</ele>
        <time>2021-05-09T10:37:48.000Z</time>
        <extensions>
          <ns3:TrackPointExtension>
            <ns3:atemp>24.0</ns3:atemp>
          </ns3:TrackPointExtension>
        </extensions>
      </trkpt>
      <trkpt lat="43.13092653639614582061767578125" lon="13.06602372787892818450927734375">
        <ele>590.20001220703125</ele>
        <time>2021-05-09T10:37:52.000Z</time>
        <extensions>
          <ns3:TrackPointExtension>
            <ns3:atemp>24.0</ns3:atemp>
          </ns3:TrackPointExtension>
        </extensions>
      </trkpt>
      <trkpt lat="43.13103281892836093902587890625" lon="13.0659435130655765533447265625">
        <ele>590.79998779296875</ele>
        <time>2021-05-09T10:37:55.000Z</time>
        <extensions>
          <ns3:TrackPointExtension>
            <ns3:atemp>24.0</ns3:atemp>
          </ns3:TrackPointExtension>
        </extensions>
      </trkpt>
      <trkpt lat="43.13110289163887500762939453125" lon="13.065879978239536285400390625">
        <ele>591.4000244140625</ele>
        <time>2021-05-09T10:37:57.000Z</time>
        <extensions>
          <ns3:TrackPointExtension>
            <ns3:atemp>24.0</ns3:atemp>
          </ns3:TrackPointExtension>
        </extensions>
      </trkpt>
      <trkpt lat="43.13113843090832233428955078125" lon="13.06585189886391162872314453125">
        <ele>591.4000244140625</ele>
        <time>2021-05-09T10:37:58.000Z</time>
        <extensions>
          <ns3:TrackPointExtension>
            <ns3:atemp>24.0</ns3:atemp>
          </ns3:TrackPointExtension>
        </extensions>
      </trkpt>
      <trkpt lat="43.1312786601483821868896484375" lon="13.06576925329864025115966796875">
        <ele>592.4000244140625</ele>
        <time>2021-05-09T10:38:02.000Z</time>
        <extensions>
          <ns3:TrackPointExtension>
            <ns3:atemp>24.0</ns3:atemp>
          </ns3:TrackPointExtension>
        </extensions>
      </trkpt>
      <trkpt lat="43.13136038370430469512939453125" lon="13.06574528105556964874267578125">
        <ele>593</ele>
        <time>2021-05-09T10:38:04.000Z</time>
        <extensions>
          <ns3:TrackPointExtension>
            <ns3:atemp>24.0</ns3:atemp>
          </ns3:TrackPointExtension>
        </extensions>
      </trkpt>
      <trkpt lat="43.13140514306724071502685546875" lon="13.06574041955173015594482421875">
        <ele>593.20001220703125</ele>
        <time>2021-05-09T10:38:05.000Z</time>
        <extensions>
          <ns3:TrackPointExtension>
            <ns3:atemp>24.0</ns3:atemp>
          </ns3:TrackPointExtension>
        </extensions>
      </trkpt>
      <trkpt lat="43.13145224936306476593017578125" lon="13.06574083864688873291015625">
        <ele>593.5999755859375</ele>
        <time>2021-05-09T10:38:06.000Z</time>
        <extensions>
          <ns3:TrackPointExtension>
            <ns3:atemp>24.0</ns3:atemp>
          </ns3:TrackPointExtension>
        </extensions>
      </trkpt>
      <trkpt lat="43.1315834261476993560791015625" lon="13.0657738633453845977783203125">
        <ele>595</ele>
        <time>2021-05-09T10:38:09.000Z</time>
        <extensions>
          <ns3:TrackPointExtension>
            <ns3:atemp>24.0</ns3:atemp>
          </ns3:TrackPointExtension>
        </extensions>
      </trkpt>
      <trkpt lat="43.131623826920986175537109375" lon="13.0657951533794403076171875">
        <ele>595.20001220703125</ele>
        <time>2021-05-09T10:38:10.000Z</time>
        <extensions>
          <ns3:TrackPointExtension>
            <ns3:atemp>24.0</ns3:atemp>
          </ns3:TrackPointExtension>
        </extensions>
      </trkpt>
      <trkpt lat="43.131701610982418060302734375" lon="13.06584401987493038177490234375">
        <ele>595.5999755859375</ele>
        <time>2021-05-09T10:38:12.000Z</time>
        <extensions>
          <ns3:TrackPointExtension>
            <ns3:atemp>24.0</ns3:atemp>
          </ns3:TrackPointExtension>
        </extensions>
      </trkpt>
      <trkpt lat="43.13173991627991199493408203125" lon="13.06587302125990390777587890625">
        <ele>596</ele>
        <time>2021-05-09T10:38:13.000Z</time>
        <extensions>
          <ns3:TrackPointExtension>
            <ns3:atemp>24.0</ns3:atemp>
          </ns3:TrackPointExtension>
        </extensions>
      </trkpt>
      <trkpt lat="43.1318576820194721221923828125" lon="13.0659461952745914459228515625">
        <ele>596.79998779296875</ele>
        <time>2021-05-09T10:38:16.000Z</time>
        <extensions>
          <ns3:TrackPointExtension>
            <ns3:atemp>24.0</ns3:atemp>
          </ns3:TrackPointExtension>
        </extensions>
      </trkpt>
      <trkpt lat="43.13193186186254024505615234375" lon="13.065992295742034912109375">
        <ele>597</ele>
        <time>2021-05-09T10:38:18.000Z</time>
        <extensions>
          <ns3:TrackPointExtension>
            <ns3:atemp>24.0</ns3:atemp>
          </ns3:TrackPointExtension>
        </extensions>
      </trkpt>
      <trkpt lat="43.13212414272129535675048828125" lon="13.066125400364398956298828125">
        <ele>598</ele>
        <time>2021-05-09T10:38:23.000Z</time>
        <extensions>
          <ns3:TrackPointExtension>
            <ns3:atemp>24.0</ns3:atemp>
          </ns3:TrackPointExtension>
        </extensions>
      </trkpt>
      <trkpt lat="43.132160604000091552734375" lon="13.06615264154970645904541015625">
        <ele>598.4000244140625</ele>
        <time>2021-05-09T10:38:24.000Z</time>
        <extensions>
          <ns3:TrackPointExtension>
            <ns3:atemp>24.0</ns3:atemp>
          </ns3:TrackPointExtension>
        </extensions>
      </trkpt>
      <trkpt lat="43.13227300532162189483642578125" lon="13.06624249555170536041259765625">
        <ele>599.20001220703125</ele>
        <time>2021-05-09T10:38:27.000Z</time>
        <extensions>
          <ns3:TrackPointExtension>
            <ns3:atemp>24.0</ns3:atemp>
          </ns3:TrackPointExtension>
        </extensions>
      </trkpt>
      <trkpt lat="43.1324167549610137939453125" lon="13.0663800425827503204345703125">
        <ele>600.20001220703125</ele>
        <time>2021-05-09T10:38:31.000Z</time>
        <extensions>
          <ns3:TrackPointExtension>
            <ns3:atemp>24.0</ns3:atemp>
          </ns3:TrackPointExtension>
        </extensions>
      </trkpt>
      <trkpt lat="43.13245036639273166656494140625" lon="13.066419102251529693603515625">
        <ele>600.4000244140625</ele>
        <time>2021-05-09T10:38:32.000Z</time>
        <extensions>
          <ns3:TrackPointExtension>
            <ns3:atemp>24.0</ns3:atemp>
          </ns3:TrackPointExtension>
        </extensions>
      </trkpt>
      <trkpt lat="43.13257559202611446380615234375" lon="13.06658380664885044097900390625">
        <ele>601.5999755859375</ele>
        <time>2021-05-09T10:38:36.000Z</time>
        <extensions>
          <ns3:TrackPointExtension>
            <ns3:atemp>24.0</ns3:atemp>
          </ns3:TrackPointExtension>
        </extensions>
      </trkpt>
      <trkpt lat="43.1326801143586635589599609375" lon="13.066764436662197113037109375">
        <ele>602.5999755859375</ele>
        <time>2021-05-09T10:38:40.000Z</time>
        <extensions>
          <ns3:TrackPointExtension>
            <ns3:atemp>24.0</ns3:atemp>
          </ns3:TrackPointExtension>
        </extensions>
      </trkpt>
      <trkpt lat="43.132702074944972991943359375" lon="13.066813051700592041015625">
        <ele>602.5999755859375</ele>
        <time>2021-05-09T10:38:41.000Z</time>
        <extensions>
          <ns3:TrackPointExtension>
            <ns3:atemp>24.0</ns3:atemp>
          </ns3:TrackPointExtension>
        </extensions>
      </trkpt>
      <trkpt lat="43.1328190863132476806640625" lon="13.06705017574131488800048828125">
        <ele>603.5999755859375</ele>
        <time>2021-05-09T10:38:46.000Z</time>
        <extensions>
          <ns3:TrackPointExtension>
            <ns3:atemp>24.0</ns3:atemp>
          </ns3:TrackPointExtension>
        </extensions>
      </trkpt>
      <trkpt lat="43.1328457407653331756591796875" lon="13.06709057651460170745849609375">
        <ele>603.79998779296875</ele>
        <time>2021-05-09T10:38:47.000Z</time>
        <extensions>
          <ns3:TrackPointExtension>
            <ns3:atemp>24.0</ns3:atemp>
          </ns3:TrackPointExtension>
        </extensions>
      </trkpt>
      <trkpt lat="43.13287231139838695526123046875" lon="13.06712645106017589569091796875">
        <ele>604.20001220703125</ele>
        <time>2021-05-09T10:38:48.000Z</time>
        <extensions>
          <ns3:TrackPointExtension>
            <ns3:atemp>24.0</ns3:atemp>
          </ns3:TrackPointExtension>
        </extensions>
      </trkpt>
      <trkpt lat="43.132974989712238311767578125" lon="13.067211695015430450439453125">
        <ele>605.20001220703125</ele>
        <time>2021-05-09T10:38:51.000Z</time>
        <extensions>
          <ns3:TrackPointExtension>
            <ns3:atemp>24.0</ns3:atemp>
          </ns3:TrackPointExtension>
        </extensions>
      </trkpt>
      <trkpt lat="43.13313097693026065826416015625" lon="13.0672963522374629974365234375">
        <ele>606.5999755859375</ele>
        <time>2021-05-09T10:38:55.000Z</time>
        <extensions>
          <ns3:TrackPointExtension>
            <ns3:atemp>24.0</ns3:atemp>
          </ns3:TrackPointExtension>
        </extensions>
      </trkpt>
      <trkpt lat="43.13329643569886684417724609375" lon="13.06738947518169879913330078125">
        <ele>607.79998779296875</ele>
        <time>2021-05-09T10:38:59.000Z</time>
        <extensions>
          <ns3:TrackPointExtension>
            <ns3:atemp>24.0</ns3:atemp>
          </ns3:TrackPointExtension>
        </extensions>
      </trkpt>
      <trkpt lat="43.13336315564811229705810546875" lon="13.06745703332126140594482421875">
        <ele>608.4000244140625</ele>
        <time>2021-05-09T10:39:01.000Z</time>
        <extensions>
          <ns3:TrackPointExtension>
            <ns3:atemp>24.0</ns3:atemp>
          </ns3:TrackPointExtension>
        </extensions>
      </trkpt>
      <trkpt lat="43.13342618755996227264404296875" lon="13.0675347335636615753173828125">
        <ele>608.79998779296875</ele>
        <time>2021-05-09T10:39:03.000Z</time>
        <extensions>
          <ns3:TrackPointExtension>
            <ns3:atemp>24.0</ns3:atemp>
          </ns3:TrackPointExtension>
        </extensions>
      </trkpt>
      <trkpt lat="43.1335260160267353057861328125" lon="13.06767546571791172027587890625">
        <ele>609.4000244140625</ele>
        <time>2021-05-09T10:39:06.000Z</time>
        <extensions>
          <ns3:TrackPointExtension>
            <ns3:atemp>24.0</ns3:atemp>
          </ns3:TrackPointExtension>
        </extensions>
      </trkpt>
      <trkpt lat="43.13362651504576206207275390625" lon="13.0678304471075534820556640625">
        <ele>610</ele>
        <time>2021-05-09T10:39:09.000Z</time>
        <extensions>
          <ns3:TrackPointExtension>
            <ns3:atemp>24.0</ns3:atemp>
          </ns3:TrackPointExtension>
        </extensions>
      </trkpt>
      <trkpt lat="43.13376146368682384490966796875" lon="13.06805131025612354278564453125">
        <ele>610.20001220703125</ele>
        <time>2021-05-09T10:39:13.000Z</time>
        <extensions>
          <ns3:TrackPointExtension>
            <ns3:atemp>24.0</ns3:atemp>
          </ns3:TrackPointExtension>
        </extensions>
      </trkpt>
      <trkpt lat="43.13403773121535778045654296875" lon="13.0685130693018436431884765625">
        <ele>610.20001220703125</ele>
        <time>2021-05-09T10:39:21.000Z</time>
        <extensions>
          <ns3:TrackPointExtension>
            <ns3:atemp>24.0</ns3:atemp>
          </ns3:TrackPointExtension>
        </extensions>
      </trkpt>
      <trkpt lat="43.1343209557235240936279296875" lon="13.06895471177995204925537109375">
        <ele>610.5999755859375</ele>
        <time>2021-05-09T10:39:29.000Z</time>
        <extensions>
          <ns3:TrackPointExtension>
            <ns3:atemp>24.0</ns3:atemp>
          </ns3:TrackPointExtension>
        </extensions>
      </trkpt>
      <trkpt lat="43.13449052162468433380126953125" lon="13.06911882944405078887939453125">
        <ele>610.5999755859375</ele>
        <time>2021-05-09T10:39:33.000Z</time>
        <extensions>
          <ns3:TrackPointExtension>
            <ns3:atemp>24.0</ns3:atemp>
          </ns3:TrackPointExtension>
        </extensions>
      </trkpt>
      <trkpt lat="43.134536035358905792236328125" lon="13.06914799846708774566650390625">
        <ele>610.79998779296875</ele>
        <time>2021-05-09T10:39:34.000Z</time>
        <extensions>
          <ns3:TrackPointExtension>
            <ns3:atemp>24.0</ns3:atemp>
          </ns3:TrackPointExtension>
        </extensions>
      </trkpt>
      <trkpt lat="43.134580962359905242919921875" lon="13.06918186135590076446533203125">
        <ele>611</ele>
        <time>2021-05-09T10:39:35.000Z</time>
        <extensions>
          <ns3:TrackPointExtension>
            <ns3:atemp>24.0</ns3:atemp>
          </ns3:TrackPointExtension>
        </extensions>
      </trkpt>
      <trkpt lat="43.1347346864640712738037109375" lon="13.0692778341472148895263671875">
        <ele>611.5999755859375</ele>
        <time>2021-05-09T10:39:38.000Z</time>
        <extensions>
          <ns3:TrackPointExtension>
            <ns3:atemp>24.0</ns3:atemp>
          </ns3:TrackPointExtension>
        </extensions>
      </trkpt>
      <trkpt lat="43.13478447496891021728515625" lon="13.06931043975055217742919921875">
        <ele>611.5999755859375</ele>
        <time>2021-05-09T10:39:39.000Z</time>
        <extensions>
          <ns3:TrackPointExtension>
            <ns3:atemp>24.0</ns3:atemp>
          </ns3:TrackPointExtension>
        </extensions>
      </trkpt>
      <trkpt lat="43.13483401201665401458740234375" lon="13.0693428777158260345458984375">
        <ele>611.79998779296875</ele>
        <time>2021-05-09T10:39:40.000Z</time>
        <extensions>
          <ns3:TrackPointExtension>
            <ns3:atemp>24.0</ns3:atemp>
          </ns3:TrackPointExtension>
        </extensions>
      </trkpt>
      <trkpt lat="43.13518839888274669647216796875" lon="13.069618307054042816162109375">
        <ele>612.20001220703125</ele>
        <time>2021-05-09T10:39:47.000Z</time>
        <extensions>
          <ns3:TrackPointExtension>
            <ns3:atemp>24.0</ns3:atemp>
          </ns3:TrackPointExtension>
        </extensions>
      </trkpt>
      <trkpt lat="43.135240115225315093994140625" lon="13.0696630664169788360595703125">
        <ele>612.20001220703125</ele>
        <time>2021-05-09T10:39:48.000Z</time>
        <extensions>
          <ns3:TrackPointExtension>
            <ns3:atemp>24.0</ns3:atemp>
          </ns3:TrackPointExtension>
        </extensions>
      </trkpt>
      <trkpt lat="43.13555200584232807159423828125" lon="13.069930113852024078369140625">
        <ele>612</ele>
        <time>2021-05-09T10:39:54.000Z</time>
        <extensions>
          <ns3:TrackPointExtension>
            <ns3:atemp>24.0</ns3:atemp>
          </ns3:TrackPointExtension>
        </extensions>
      </trkpt>
      <trkpt lat="43.1359396688640117645263671875" lon="13.07029522955417633056640625">
        <ele>611.20001220703125</ele>
        <time>2021-05-09T10:40:02.000Z</time>
        <extensions>
          <ns3:TrackPointExtension>
            <ns3:atemp>24.0</ns3:atemp>
          </ns3:TrackPointExtension>
        </extensions>
      </trkpt>
      <trkpt lat="43.13637510873377323150634765625" lon="13.07070552371442317962646484375">
        <ele>610.79998779296875</ele>
        <time>2021-05-09T10:40:11.000Z</time>
        <extensions>
          <ns3:TrackPointExtension>
            <ns3:atemp>24.0</ns3:atemp>
          </ns3:TrackPointExtension>
        </extensions>
      </trkpt>
      <trkpt lat="43.136568479239940643310546875" lon="13.07091641239821910858154296875">
        <ele>609.79998779296875</ele>
        <time>2021-05-09T10:40:15.000Z</time>
        <extensions>
          <ns3:TrackPointExtension>
            <ns3:atemp>24.0</ns3:atemp>
          </ns3:TrackPointExtension>
        </extensions>
      </trkpt>
      <trkpt lat="43.1367198564112186431884765625" lon="13.07108572684228420257568359375">
        <ele>608.79998779296875</ele>
        <time>2021-05-09T10:40:18.000Z</time>
        <extensions>
          <ns3:TrackPointExtension>
            <ns3:atemp>24.0</ns3:atemp>
          </ns3:TrackPointExtension>
        </extensions>
      </trkpt>
      <trkpt lat="43.13677039928734302520751953125" lon="13.07114548981189727783203125">
        <ele>608.5999755859375</ele>
        <time>2021-05-09T10:40:19.000Z</time>
        <extensions>
          <ns3:TrackPointExtension>
            <ns3:atemp>24.0</ns3:atemp>
          </ns3:TrackPointExtension>
        </extensions>
      </trkpt>
      <trkpt lat="43.13695446588099002838134765625" lon="13.07143994607031345367431640625">
        <ele>608</ele>
        <time>2021-05-09T10:40:23.000Z</time>
        <extensions>
          <ns3:TrackPointExtension>
            <ns3:atemp>24.0</ns3:atemp>
          </ns3:TrackPointExtension>
        </extensions>
      </trkpt>
      <trkpt lat="43.13705823384225368499755859375" lon="13.07171084918081760406494140625">
        <ele>607.4000244140625</ele>
        <time>2021-05-09T10:40:26.000Z</time>
        <extensions>
          <ns3:TrackPointExtension>
            <ns3:atemp>24.0</ns3:atemp>
          </ns3:TrackPointExtension>
        </extensions>
      </trkpt>
      <trkpt lat="43.13712202012538909912109375" lon="13.07189650833606719970703125">
        <ele>607.20001220703125</ele>
        <time>2021-05-09T10:40:28.000Z</time>
        <extensions>
          <ns3:TrackPointExtension>
            <ns3:atemp>24.0</ns3:atemp>
          </ns3:TrackPointExtension>
        </extensions>
      </trkpt>
      <trkpt lat="43.13714741729199886322021484375" lon="13.0719865299761295318603515625">
        <ele>606.79998779296875</ele>
        <time>2021-05-09T10:40:29.000Z</time>
        <extensions>
          <ns3:TrackPointExtension>
            <ns3:atemp>24.0</ns3:atemp>
          </ns3:TrackPointExtension>
        </extensions>
      </trkpt>
      <trkpt lat="43.13720525242388248443603515625" lon="13.0721655674278736114501953125">
        <ele>606.20001220703125</ele>
        <time>2021-05-09T10:40:31.000Z</time>
        <extensions>
          <ns3:TrackPointExtension>
            <ns3:atemp>24.0</ns3:atemp>
          </ns3:TrackPointExtension>
        </extensions>
      </trkpt>
      <trkpt lat="43.13723601400852203369140625" lon="13.07225651107728481292724609375">
        <ele>605.5999755859375</ele>
        <time>2021-05-09T10:40:32.000Z</time>
        <extensions>
          <ns3:TrackPointExtension>
            <ns3:atemp>24.0</ns3:atemp>
          </ns3:TrackPointExtension>
        </extensions>
      </trkpt>
      <trkpt lat="43.13726543448865413665771484375" lon="13.0723456107079982757568359375">
        <ele>604.79998779296875</ele>
        <time>2021-05-09T10:40:33.000Z</time>
        <extensions>
          <ns3:TrackPointExtension>
            <ns3:atemp>24.0</ns3:atemp>
          </ns3:TrackPointExtension>
        </extensions>
      </trkpt>
      <trkpt lat="43.1373451463878154754638671875" lon="13.0726191960275173187255859375">
        <ele>603.79998779296875</ele>
        <time>2021-05-09T10:40:36.000Z</time>
        <extensions>
          <ns3:TrackPointExtension>
            <ns3:atemp>24.0</ns3:atemp>
          </ns3:TrackPointExtension>
        </extensions>
      </trkpt>
      <trkpt lat="43.1373927555978298187255859375" lon="13.0727984011173248291015625">
        <ele>603.4000244140625</ele>
        <time>2021-05-09T10:40:38.000Z</time>
        <extensions>
          <ns3:TrackPointExtension>
            <ns3:atemp>24.0</ns3:atemp>
          </ns3:TrackPointExtension>
        </extensions>
      </trkpt>
      <trkpt lat="43.1374222598969936370849609375" lon="13.0728870816528797149658203125">
        <ele>603.4000244140625</ele>
        <time>2021-05-09T10:40:39.000Z</time>
        <extensions>
          <ns3:TrackPointExtension>
            <ns3:atemp>24.0</ns3:atemp>
          </ns3:TrackPointExtension>
        </extensions>
      </trkpt>
      <trkpt lat="43.1375308893620967864990234375" lon="13.07309939526021480560302734375">
        <ele>603</ele>
        <time>2021-05-09T10:40:42.000Z</time>
        <extensions>
          <ns3:TrackPointExtension>
            <ns3:atemp>24.0</ns3:atemp>
          </ns3:TrackPointExtension>
        </extensions>
      </trkpt>
      <trkpt lat="43.13765267841517925262451171875" lon="13.07326368056237697601318359375">
        <ele>602.5999755859375</ele>
        <time>2021-05-09T10:40:46.000Z</time>
        <extensions>
          <ns3:TrackPointExtension>
            <ns3:atemp>24.0</ns3:atemp>
          </ns3:TrackPointExtension>
        </extensions>
      </trkpt>
      <trkpt lat="43.13762987963855266571044921875" lon="13.07345881126821041107177734375">
        <ele>602.4000244140625</ele>
        <time>2021-05-09T10:40:49.000Z</time>
        <extensions>
          <ns3:TrackPointExtension>
            <ns3:atemp>23.0</ns3:atemp>
          </ns3:TrackPointExtension>
        </extensions>
      </trkpt>
      <trkpt lat="43.13760825432837009429931640625" lon="13.07352955453097820281982421875">
        <ele>602.20001220703125</ele>
        <time>2021-05-09T10:40:50.000Z</time>
        <extensions>
          <ns3:TrackPointExtension>
            <ns3:atemp>23.0</ns3:atemp>
          </ns3:TrackPointExtension>
        </extensions>
      </trkpt>
      <trkpt lat="43.13749342225492000579833984375" lon="13.073821328580379486083984375">
        <ele>602</ele>
        <time>2021-05-09T10:40:54.000Z</time>
        <extensions>
          <ns3:TrackPointExtension>
            <ns3:atemp>23.0</ns3:atemp>
          </ns3:TrackPointExtension>
        </extensions>
      </trkpt>
      <trkpt lat="43.1374262832105159759521484375" lon="13.0739586241543292999267578125">
        <ele>601.4000244140625</ele>
        <time>2021-05-09T10:40:56.000Z</time>
        <extensions>
          <ns3:TrackPointExtension>
            <ns3:atemp>23.0</ns3:atemp>
          </ns3:TrackPointExtension>
        </extensions>
      </trkpt>
      <trkpt lat="43.13741572201251983642578125" lon="13.07413187809288501739501953125">
        <ele>600.5999755859375</ele>
        <time>2021-05-09T10:40:58.000Z</time>
        <extensions>
          <ns3:TrackPointExtension>
            <ns3:atemp>23.0</ns3:atemp>
          </ns3:TrackPointExtension>
        </extensions>
      </trkpt>
      <trkpt lat="43.13742133788764476776123046875" lon="13.074222318828105926513671875">
        <ele>600.20001220703125</ele>
        <time>2021-05-09T10:40:59.000Z</time>
        <extensions>
          <ns3:TrackPointExtension>
            <ns3:atemp>23.0</ns3:atemp>
          </ns3:TrackPointExtension>
        </extensions>
      </trkpt>
      <trkpt lat="43.1374410353600978851318359375" lon="13.0743066407740116119384765625">
        <ele>600</ele>
        <time>2021-05-09T10:41:00.000Z</time>
        <extensions>
          <ns3:TrackPointExtension>
            <ns3:atemp>23.0</ns3:atemp>
          </ns3:TrackPointExtension>
        </extensions>
      </trkpt>
      <trkpt lat="43.13752627931535243988037109375" lon="13.07443547062575817108154296875">
        <ele>599.20001220703125</ele>
        <time>2021-05-09T10:41:02.000Z</time>
        <extensions>
          <ns3:TrackPointExtension>
            <ns3:atemp>23.0</ns3:atemp>
          </ns3:TrackPointExtension>
        </extensions>
      </trkpt>
      <trkpt lat="43.1377347372472286224365234375" lon="13.0744853429496288299560546875">
        <ele>597.5999755859375</ele>
        <time>2021-05-09T10:41:05.000Z</time>
        <extensions>
          <ns3:TrackPointExtension>
            <ns3:atemp>23.0</ns3:atemp>
          </ns3:TrackPointExtension>
        </extensions>
      </trkpt>
      <trkpt lat="43.1378772296011447906494140625" lon="13.07435399852693080902099609375">
        <ele>596.5999755859375</ele>
        <time>2021-05-09T10:41:07.000Z</time>
        <extensions>
          <ns3:TrackPointExtension>
            <ns3:atemp>23.0</ns3:atemp>
          </ns3:TrackPointExtension>
        </extensions>
      </trkpt>
      <trkpt lat="43.13794151879847049713134765625" lon="13.07427369989454746246337890625">
        <ele>596.20001220703125</ele>
        <time>2021-05-09T10:41:08.000Z</time>
        <extensions>
          <ns3:TrackPointExtension>
            <ns3:atemp>23.0</ns3:atemp>
          </ns3:TrackPointExtension>
        </extensions>
      </trkpt>
      <trkpt lat="43.13822331838309764862060546875" lon="13.07393037714064121246337890625">
        <ele>595.4000244140625</ele>
        <time>2021-05-09T10:41:12.000Z</time>
        <extensions>
          <ns3:TrackPointExtension>
            <ns3:atemp>23.0</ns3:atemp>
          </ns3:TrackPointExtension>
        </extensions>
      </trkpt>
      <trkpt lat="43.1383932195603847503662109375" lon="13.07377782650291919708251953125">
        <ele>593.79998779296875</ele>
        <time>2021-05-09T10:41:14.000Z</time>
        <extensions>
          <ns3:TrackPointExtension>
            <ns3:atemp>23.0</ns3:atemp>
          </ns3:TrackPointExtension>
        </extensions>
      </trkpt>
      <trkpt lat="43.13858776353299617767333984375" lon="13.07374647818505764007568359375">
        <ele>592.5999755859375</ele>
        <time>2021-05-09T10:41:16.000Z</time>
        <extensions>
          <ns3:TrackPointExtension>
            <ns3:atemp>23.0</ns3:atemp>
          </ns3:TrackPointExtension>
        </extensions>
      </trkpt>
      <trkpt lat="43.13879714347422122955322265625" lon="13.07382442988455295562744140625">
        <ele>591.4000244140625</ele>
        <time>2021-05-09T10:41:18.000Z</time>
        <extensions>
          <ns3:TrackPointExtension>
            <ns3:atemp>23.0</ns3:atemp>
          </ns3:TrackPointExtension>
        </extensions>
      </trkpt>
      <trkpt lat="43.13890225253999233245849609375" lon="13.07387824170291423797607421875">
        <ele>590.79998779296875</ele>
        <time>2021-05-09T10:41:19.000Z</time>
        <extensions>
          <ns3:TrackPointExtension>
            <ns3:atemp>23.0</ns3:atemp>
          </ns3:TrackPointExtension>
        </extensions>
      </trkpt>
      <trkpt lat="43.1390067748725414276123046875" lon="13.0739348195493221282958984375">
        <ele>590.20001220703125</ele>
        <time>2021-05-09T10:41:20.000Z</time>
        <extensions>
          <ns3:TrackPointExtension>
            <ns3:atemp>23.0</ns3:atemp>
          </ns3:TrackPointExtension>
        </extensions>
      </trkpt>
      <trkpt lat="43.13910610042512416839599609375" lon="13.07401302270591259002685546875">
        <ele>589.4000244140625</ele>
        <time>2021-05-09T10:41:21.000Z</time>
        <extensions>
          <ns3:TrackPointExtension>
            <ns3:atemp>23.0</ns3:atemp>
          </ns3:TrackPointExtension>
        </extensions>
      </trkpt>
      <trkpt lat="43.1391925178468227386474609375" lon="13.07411310262978076934814453125">
        <ele>588.20001220703125</ele>
        <time>2021-05-09T10:41:22.000Z</time>
        <extensions>
          <ns3:TrackPointExtension>
            <ns3:atemp>23.0</ns3:atemp>
          </ns3:TrackPointExtension>
        </extensions>
      </trkpt>
      <trkpt lat="43.1392697989940643310546875" lon="13.0742221511900424957275390625">
        <ele>587.20001220703125</ele>
        <time>2021-05-09T10:41:23.000Z</time>
        <extensions>
          <ns3:TrackPointExtension>
            <ns3:atemp>23.0</ns3:atemp>
          </ns3:TrackPointExtension>
        </extensions>
      </trkpt>
      <trkpt lat="43.13942042179405689239501953125" lon="13.07443312369287014007568359375">
        <ele>585</ele>
        <time>2021-05-09T10:41:25.000Z</time>
        <extensions>
          <ns3:TrackPointExtension>
            <ns3:atemp>23.0</ns3:atemp>
          </ns3:TrackPointExtension>
        </extensions>
      </trkpt>
      <trkpt lat="43.1395804323256015777587890625" lon="13.07461333461105823516845703125">
        <ele>583.20001220703125</ele>
        <time>2021-05-09T10:41:27.000Z</time>
        <extensions>
          <ns3:TrackPointExtension>
            <ns3:atemp>23.0</ns3:atemp>
          </ns3:TrackPointExtension>
        </extensions>
      </trkpt>
      <trkpt lat="43.1396682746708393096923828125" lon="13.07467837817966938018798828125">
        <ele>582</ele>
        <time>2021-05-09T10:41:28.000Z</time>
        <extensions>
          <ns3:TrackPointExtension>
            <ns3:atemp>23.0</ns3:atemp>
          </ns3:TrackPointExtension>
        </extensions>
      </trkpt>
      <trkpt lat="43.13976072706282138824462890625" lon="13.074723221361637115478515625">
        <ele>580.79998779296875</ele>
        <time>2021-05-09T10:41:29.000Z</time>
        <extensions>
          <ns3:TrackPointExtension>
            <ns3:atemp>23.0</ns3:atemp>
          </ns3:TrackPointExtension>
        </extensions>
      </trkpt>
      <trkpt lat="43.13985644839704036712646484375" lon="13.0747538991272449493408203125">
        <ele>578.20001220703125</ele>
        <time>2021-05-09T10:41:30.000Z</time>
        <extensions>
          <ns3:TrackPointExtension>
            <ns3:atemp>23.0</ns3:atemp>
          </ns3:TrackPointExtension>
        </extensions>
      </trkpt>
      <trkpt lat="43.13995384611189365386962890625" lon="13.074780218303203582763671875">
        <ele>577.20001220703125</ele>
        <time>2021-05-09T10:41:31.000Z</time>
        <extensions>
          <ns3:TrackPointExtension>
            <ns3:atemp>23.0</ns3:atemp>
          </ns3:TrackPointExtension>
        </extensions>
      </trkpt>
      <trkpt lat="43.140051662921905517578125" lon="13.0748078785836696624755859375">
        <ele>576.5999755859375</ele>
        <time>2021-05-09T10:41:32.000Z</time>
        <extensions>
          <ns3:TrackPointExtension>
            <ns3:atemp>23.0</ns3:atemp>
          </ns3:TrackPointExtension>
        </extensions>
      </trkpt>
      <trkpt lat="43.14045256935060024261474609375" lon="13.0749235488474369049072265625">
        <ele>575.79998779296875</ele>
        <time>2021-05-09T10:41:36.000Z</time>
        <extensions>
          <ns3:TrackPointExtension>
            <ns3:atemp>23.0</ns3:atemp>
          </ns3:TrackPointExtension>
        </extensions>
      </trkpt>
      <trkpt lat="43.1405493803322315216064453125" lon="13.0749701522290706634521484375">
        <ele>575.5999755859375</ele>
        <time>2021-05-09T10:41:37.000Z</time>
        <extensions>
          <ns3:TrackPointExtension>
            <ns3:atemp>23.0</ns3:atemp>
          </ns3:TrackPointExtension>
        </extensions>
      </trkpt>
      <trkpt lat="43.14064568839967250823974609375" lon="13.07502874173223972320556640625">
        <ele>575.5999755859375</ele>
        <time>2021-05-09T10:41:38.000Z</time>
        <extensions>
          <ns3:TrackPointExtension>
            <ns3:atemp>23.0</ns3:atemp>
          </ns3:TrackPointExtension>
        </extensions>
      </trkpt>
      <trkpt lat="43.14083646051585674285888671875" lon="13.07516000233590602874755859375">
        <ele>575.20001220703125</ele>
        <time>2021-05-09T10:41:40.000Z</time>
        <extensions>
          <ns3:TrackPointExtension>
            <ns3:atemp>23.0</ns3:atemp>
          </ns3:TrackPointExtension>
        </extensions>
      </trkpt>
      <trkpt lat="43.14113183878362178802490234375" lon="13.07538832537829875946044921875">
        <ele>574.4000244140625</ele>
        <time>2021-05-09T10:41:43.000Z</time>
        <extensions>
          <ns3:TrackPointExtension>
            <ns3:atemp>23.0</ns3:atemp>
          </ns3:TrackPointExtension>
        </extensions>
      </trkpt>
      <trkpt lat="43.14132713712751865386962890625" lon="13.07555210776627063751220703125">
        <ele>572.79998779296875</ele>
        <time>2021-05-09T10:41:45.000Z</time>
        <extensions>
          <ns3:TrackPointExtension>
            <ns3:atemp>23.0</ns3:atemp>
          </ns3:TrackPointExtension>
        </extensions>
      </trkpt>
      <trkpt lat="43.1417159736156463623046875" lon="13.07588587515056133270263671875">
        <ele>570.79998779296875</ele>
        <time>2021-05-09T10:41:49.000Z</time>
        <extensions>
          <ns3:TrackPointExtension>
            <ns3:atemp>23.0</ns3:atemp>
          </ns3:TrackPointExtension>
        </extensions>
      </trkpt>
      <trkpt lat="43.141802139580249786376953125" lon="13.07598092593252658843994140625">
        <ele>569.79998779296875</ele>
        <time>2021-05-09T10:41:50.000Z</time>
        <extensions>
          <ns3:TrackPointExtension>
            <ns3:atemp>23.0</ns3:atemp>
          </ns3:TrackPointExtension>
        </extensions>
      </trkpt>
      <trkpt lat="43.14187615178525447845458984375" lon="13.07608771137893199920654296875">
        <ele>568.20001220703125</ele>
        <time>2021-05-09T10:41:51.000Z</time>
        <extensions>
          <ns3:TrackPointExtension>
            <ns3:atemp>23.0</ns3:atemp>
          </ns3:TrackPointExtension>
        </extensions>
      </trkpt>
      <trkpt lat="43.1419404409825801849365234375" lon="13.07620371691882610321044921875">
        <ele>566.79998779296875</ele>
        <time>2021-05-09T10:41:52.000Z</time>
        <extensions>
          <ns3:TrackPointExtension>
            <ns3:atemp>23.0</ns3:atemp>
          </ns3:TrackPointExtension>
        </extensions>
      </trkpt>
      <trkpt lat="43.14199383370578289031982421875" lon="13.0763229914009571075439453125">
        <ele>565.79998779296875</ele>
        <time>2021-05-09T10:41:53.000Z</time>
        <extensions>
          <ns3:TrackPointExtension>
            <ns3:atemp>23.0</ns3:atemp>
          </ns3:TrackPointExtension>
        </extensions>
      </trkpt>
      <trkpt lat="43.14204060472548007965087890625" lon="13.07644126005470752716064453125">
        <ele>564.4000244140625</ele>
        <time>2021-05-09T10:41:54.000Z</time>
        <extensions>
          <ns3:TrackPointExtension>
            <ns3:atemp>23.0</ns3:atemp>
          </ns3:TrackPointExtension>
        </extensions>
      </trkpt>
      <trkpt lat="43.1421265192329883575439453125" lon="13.07667394168674945831298828125">
        <ele>563.20001220703125</ele>
        <time>2021-05-09T10:41:56.000Z</time>
        <extensions>
          <ns3:TrackPointExtension>
            <ns3:atemp>23.0</ns3:atemp>
          </ns3:TrackPointExtension>
        </extensions>
      </trkpt>
      <trkpt lat="43.14225333742797374725341796875" lon="13.07711197994649410247802734375">
        <ele>562.5999755859375</ele>
        <time>2021-05-09T10:42:00.000Z</time>
        <extensions>
          <ns3:TrackPointExtension>
            <ns3:atemp>23.0</ns3:atemp>
          </ns3:TrackPointExtension>
        </extensions>
      </trkpt>
      <trkpt lat="43.14237914979457855224609375" lon="13.07759729214012622833251953125">
        <ele>562.5999755859375</ele>
        <time>2021-05-09T10:42:05.000Z</time>
        <extensions>
          <ns3:TrackPointExtension>
            <ns3:atemp>23.0</ns3:atemp>
          </ns3:TrackPointExtension>
        </extensions>
      </trkpt>
      <trkpt lat="43.1424577720463275909423828125" lon="13.077871464192867279052734375">
        <ele>562.5999755859375</ele>
        <time>2021-05-09T10:42:09.000Z</time>
        <extensions>
          <ns3:TrackPointExtension>
            <ns3:atemp>23.0</ns3:atemp>
          </ns3:TrackPointExtension>
        </extensions>
      </trkpt>
      <trkpt lat="43.1424959935247898101806640625" lon="13.0780288763344287872314453125">
        <ele>563.5999755859375</ele>
        <time>2021-05-09T10:42:14.000Z</time>
        <extensions>
          <ns3:TrackPointExtension>
            <ns3:atemp>23.0</ns3:atemp>
          </ns3:TrackPointExtension>
        </extensions>
      </trkpt>
      <trkpt lat="43.14250043593347072601318359375" lon="13.0780305527150630950927734375">
        <ele>564.4000244140625</ele>
        <time>2021-05-09T10:42:17.000Z</time>
        <extensions>
          <ns3:TrackPointExtension>
            <ns3:atemp>23.0</ns3:atemp>
          </ns3:TrackPointExtension>
        </extensions>
      </trkpt>
      <trkpt lat="43.14249959774315357208251953125" lon="13.07802879251539707183837890625">
        <ele>564.79998779296875</ele>
        <time>2021-05-09T10:42:19.000Z</time>
        <extensions>
          <ns3:TrackPointExtension>
            <ns3:atemp>23.0</ns3:atemp>
          </ns3:TrackPointExtension>
        </extensions>
      </trkpt>
      <trkpt lat="43.14250127412378787994384765625" lon="13.07802661322057247161865234375">
        <ele>565</ele>
        <time>2021-05-09T10:42:55.000Z</time>
        <extensions>
          <ns3:TrackPointExtension>
            <ns3:atemp>23.0</ns3:atemp>
          </ns3:TrackPointExtension>
        </extensions>
      </trkpt>
      <trkpt lat="43.1425033695995807647705078125" lon="13.07802476920187473297119140625">
        <ele>565.5999755859375</ele>
        <time>2021-05-09T10:43:29.000Z</time>
        <extensions>
          <ns3:TrackPointExtension>
            <ns3:atemp>23.0</ns3:atemp>
          </ns3:TrackPointExtension>
        </extensions>
      </trkpt>
      <trkpt lat="43.14250244759023189544677734375" lon="13.0780241824686527252197265625">
        <ele>565.4000244140625</ele>
        <time>2021-05-09T10:43:48.000Z</time>
        <extensions>
          <ns3:TrackPointExtension>
            <ns3:atemp>24.0</ns3:atemp>
          </ns3:TrackPointExtension>
        </extensions>
      </trkpt>
      <trkpt lat="43.14250244759023189544677734375" lon="13.07802594266831874847412109375">
        <ele>565.20001220703125</ele>
        <time>2021-05-09T10:44:01.000Z</time>
        <extensions>
          <ns3:TrackPointExtension>
            <ns3:atemp>24.0</ns3:atemp>
          </ns3:TrackPointExtension>
        </extensions>
      </trkpt>
      <trkpt lat="43.14249523915350437164306640625" lon="13.07802133262157440185546875">
        <ele>565.20001220703125</ele>
        <time>2021-05-09T10:44:18.000Z</time>
        <extensions>
          <ns3:TrackPointExtension>
            <ns3:atemp>24.0</ns3:atemp>
          </ns3:TrackPointExtension>
        </extensions>
      </trkpt>
      <trkpt lat="43.1425177864730358123779296875" lon="13.07801873423159122467041015625">
        <ele>565.20001220703125</ele>
        <time>2021-05-09T10:44:35.000Z</time>
        <extensions>
          <ns3:TrackPointExtension>
            <ns3:atemp>25.0</ns3:atemp>
          </ns3:TrackPointExtension>
        </extensions>
      </trkpt>
      <trkpt lat="43.1426515616476535797119140625" lon="13.0779423750936985015869140625">
        <ele>565.20001220703125</ele>
        <time>2021-05-09T10:44:41.000Z</time>
        <extensions>
          <ns3:TrackPointExtension>
            <ns3:atemp>25.0</ns3:atemp>
          </ns3:TrackPointExtension>
        </extensions>
      </trkpt>
      <trkpt lat="43.1428691558539867401123046875" lon="13.0778431333601474761962890625">
        <ele>565</ele>
        <time>2021-05-09T10:44:47.000Z</time>
        <extensions>
          <ns3:TrackPointExtension>
            <ns3:atemp>25.0</ns3:atemp>
          </ns3:TrackPointExtension>
        </extensions>
      </trkpt>
      <trkpt lat="43.14290083944797515869140625" lon="13.0778183229267597198486328125">
        <ele>565</ele>
        <time>2021-05-09T10:44:48.000Z</time>
        <extensions>
          <ns3:TrackPointExtension>
            <ns3:atemp>25.0</ns3:atemp>
          </ns3:TrackPointExtension>
        </extensions>
      </trkpt>
      <trkpt lat="43.14299597404897212982177734375" lon="13.07766057550907135009765625">
        <ele>563.5999755859375</ele>
        <time>2021-05-09T10:44:52.000Z</time>
        <extensions>
          <ns3:TrackPointExtension>
            <ns3:atemp>25.0</ns3:atemp>
          </ns3:TrackPointExtension>
        </extensions>
      </trkpt>
      <trkpt lat="43.14304257743060588836669921875" lon="13.07746737264096736907958984375">
        <ele>562.4000244140625</ele>
        <time>2021-05-09T10:44:56.000Z</time>
        <extensions>
          <ns3:TrackPointExtension>
            <ns3:atemp>25.0</ns3:atemp>
          </ns3:TrackPointExtension>
        </extensions>
      </trkpt>
      <trkpt lat="43.143050037324428558349609375" lon="13.077359162271022796630859375">
        <ele>561.79998779296875</ele>
        <time>2021-05-09T10:44:58.000Z</time>
        <extensions>
          <ns3:TrackPointExtension>
            <ns3:atemp>25.0</ns3:atemp>
          </ns3:TrackPointExtension>
        </extensions>
      </trkpt>
      <trkpt lat="43.143054731190204620361328125" lon="13.0772483535110950469970703125">
        <ele>561.20001220703125</ele>
        <time>2021-05-09T10:45:00.000Z</time>
        <extensions>
          <ns3:TrackPointExtension>
            <ns3:atemp>25.0</ns3:atemp>
          </ns3:TrackPointExtension>
        </extensions>
      </trkpt>
      <trkpt lat="43.14306579530239105224609375" lon="13.077051378786563873291015625">
        <ele>560.20001220703125</ele>
        <time>2021-05-09T10:45:04.000Z</time>
        <extensions>
          <ns3:TrackPointExtension>
            <ns3:atemp>25.0</ns3:atemp>
          </ns3:TrackPointExtension>
        </extensions>
      </trkpt>
      <trkpt lat="43.1430686451494693756103515625" lon="13.07700418867170810699462890625">
        <ele>560</ele>
        <time>2021-05-09T10:45:05.000Z</time>
        <extensions>
          <ns3:TrackPointExtension>
            <ns3:atemp>25.0</ns3:atemp>
          </ns3:TrackPointExtension>
        </extensions>
      </trkpt>
      <trkpt lat="43.14307778142392635345458984375" lon="13.07685314677655696868896484375">
        <ele>559</ele>
        <time>2021-05-09T10:45:08.000Z</time>
        <extensions>
          <ns3:TrackPointExtension>
            <ns3:atemp>25.0</ns3:atemp>
          </ns3:TrackPointExtension>
        </extensions>
      </trkpt>
      <trkpt lat="43.14309136010706424713134765625" lon="13.07657696306705474853515625">
        <ele>558</ele>
        <time>2021-05-09T10:45:13.000Z</time>
        <extensions>
          <ns3:TrackPointExtension>
            <ns3:atemp>25.0</ns3:atemp>
          </ns3:TrackPointExtension>
        </extensions>
      </trkpt>
      <trkpt lat="43.14312740229070186614990234375" lon="13.07621427811682224273681640625">
        <ele>557</ele>
        <time>2021-05-09T10:45:19.000Z</time>
        <extensions>
          <ns3:TrackPointExtension>
            <ns3:atemp>25.0</ns3:atemp>
          </ns3:TrackPointExtension>
        </extensions>
      </trkpt>
      <trkpt lat="43.1431320123374462127685546875" lon="13.07615426369011402130126953125">
        <ele>556.79998779296875</ele>
        <time>2021-05-09T10:45:20.000Z</time>
        <extensions>
          <ns3:TrackPointExtension>
            <ns3:atemp>25.0</ns3:atemp>
          </ns3:TrackPointExtension>
        </extensions>
      </trkpt>
      <trkpt lat="43.14314818941056728363037109375" lon="13.07597271166741847991943359375">
        <ele>556</ele>
        <time>2021-05-09T10:45:23.000Z</time>
        <extensions>
          <ns3:TrackPointExtension>
            <ns3:atemp>25.0</ns3:atemp>
          </ns3:TrackPointExtension>
        </extensions>
      </trkpt>
      <trkpt lat="43.1431715749204158782958984375" lon="13.07568940334022045135498046875">
        <ele>554.79998779296875</ele>
        <time>2021-05-09T10:45:27.000Z</time>
        <extensions>
          <ns3:TrackPointExtension>
            <ns3:atemp>25.0</ns3:atemp>
          </ns3:TrackPointExtension>
        </extensions>
      </trkpt>
      <trkpt lat="43.14319848082959651947021484375" lon="13.07532831095159053802490234375">
        <ele>553.79998779296875</ele>
        <time>2021-05-09T10:45:31.000Z</time>
        <extensions>
          <ns3:TrackPointExtension>
            <ns3:atemp>25.0</ns3:atemp>
          </ns3:TrackPointExtension>
        </extensions>
      </trkpt>
      <trkpt lat="43.14320920966565608978271484375" lon="13.07523326016962528228759765625">
        <ele>553.4000244140625</ele>
        <time>2021-05-09T10:45:32.000Z</time>
        <extensions>
          <ns3:TrackPointExtension>
            <ns3:atemp>25.0</ns3:atemp>
          </ns3:TrackPointExtension>
        </extensions>
      </trkpt>
      <trkpt lat="43.1432258896529674530029296875" lon="13.075136281549930572509765625">
        <ele>553</ele>
        <time>2021-05-09T10:45:33.000Z</time>
        <extensions>
          <ns3:TrackPointExtension>
            <ns3:atemp>25.0</ns3:atemp>
          </ns3:TrackPointExtension>
        </extensions>
      </trkpt>
      <trkpt lat="43.14328012056648731231689453125" lon="13.07494576089084148406982421875">
        <ele>552.4000244140625</ele>
        <time>2021-05-09T10:45:35.000Z</time>
        <extensions>
          <ns3:TrackPointExtension>
            <ns3:atemp>25.0</ns3:atemp>
          </ns3:TrackPointExtension>
        </extensions>
      </trkpt>
      <trkpt lat="43.14330878667533397674560546875" lon="13.0748464353382587432861328125">
        <ele>552</ele>
        <time>2021-05-09T10:45:36.000Z</time>
        <extensions>
          <ns3:TrackPointExtension>
            <ns3:atemp>25.0</ns3:atemp>
          </ns3:TrackPointExtension>
        </extensions>
      </trkpt>
      <trkpt lat="43.14336754381656646728515625" lon="13.0746402405202388763427734375">
        <ele>551.20001220703125</ele>
        <time>2021-05-09T10:45:38.000Z</time>
        <extensions>
          <ns3:TrackPointExtension>
            <ns3:atemp>25.0</ns3:atemp>
          </ns3:TrackPointExtension>
        </extensions>
      </trkpt>
      <trkpt lat="43.14345530234277248382568359375" lon="13.07430907152593135833740234375">
        <ele>549.79998779296875</ele>
        <time>2021-05-09T10:45:41.000Z</time>
        <extensions>
          <ns3:TrackPointExtension>
            <ns3:atemp>25.0</ns3:atemp>
          </ns3:TrackPointExtension>
        </extensions>
      </trkpt>
      <trkpt lat="43.1434977985918521881103515625" lon="13.07407421059906482696533203125">
        <ele>548.5999755859375</ele>
        <time>2021-05-09T10:45:43.000Z</time>
        <extensions>
          <ns3:TrackPointExtension>
            <ns3:atemp>25.0</ns3:atemp>
          </ns3:TrackPointExtension>
        </extensions>
      </trkpt>
      <trkpt lat="43.14350089989602565765380859375" lon="13.07382744736969470977783203125">
        <ele>547.20001220703125</ele>
        <time>2021-05-09T10:45:45.000Z</time>
        <extensions>
          <ns3:TrackPointExtension>
            <ns3:atemp>25.0</ns3:atemp>
          </ns3:TrackPointExtension>
        </extensions>
      </trkpt>
      <trkpt lat="43.14348958432674407958984375" lon="13.0737041495740413665771484375">
        <ele>546.5999755859375</ele>
        <time>2021-05-09T10:45:46.000Z</time>
        <extensions>
          <ns3:TrackPointExtension>
            <ns3:atemp>25.0</ns3:atemp>
          </ns3:TrackPointExtension>
        </extensions>
      </trkpt>
      <trkpt lat="43.14347491599619388580322265625" lon="13.0735800974071025848388671875">
        <ele>546.20001220703125</ele>
        <time>2021-05-09T10:45:47.000Z</time>
        <extensions>
          <ns3:TrackPointExtension>
            <ns3:atemp>25.0</ns3:atemp>
          </ns3:TrackPointExtension>
        </extensions>
      </trkpt>
      <trkpt lat="43.14342797733843326568603515625" lon="13.073191009461879730224609375">
        <ele>544.79998779296875</ele>
        <time>2021-05-09T10:45:50.000Z</time>
        <extensions>
          <ns3:TrackPointExtension>
            <ns3:atemp>25.0</ns3:atemp>
          </ns3:TrackPointExtension>
        </extensions>
      </trkpt>
      <trkpt lat="43.1434005685150623321533203125" lon="13.07292136363685131072998046875">
        <ele>543.4000244140625</ele>
        <time>2021-05-09T10:45:52.000Z</time>
        <extensions>
          <ns3:TrackPointExtension>
            <ns3:atemp>25.0</ns3:atemp>
          </ns3:TrackPointExtension>
        </extensions>
      </trkpt>
      <trkpt lat="43.143390007317066192626953125" lon="13.07278624735772609710693359375">
        <ele>543</ele>
        <time>2021-05-09T10:45:53.000Z</time>
        <extensions>
          <ns3:TrackPointExtension>
            <ns3:atemp>25.0</ns3:atemp>
          </ns3:TrackPointExtension>
        </extensions>
      </trkpt>
      <trkpt lat="43.143368549644947052001953125" lon="13.07237151078879833221435546875">
        <ele>542</ele>
        <time>2021-05-09T10:45:56.000Z</time>
        <extensions>
          <ns3:TrackPointExtension>
            <ns3:atemp>25.0</ns3:atemp>
          </ns3:TrackPointExtension>
        </extensions>
      </trkpt>
      <trkpt lat="43.14336108975112438201904296875" lon="13.07208769954741001129150390625">
        <ele>540.79998779296875</ele>
        <time>2021-05-09T10:45:58.000Z</time>
        <extensions>
          <ns3:TrackPointExtension>
            <ns3:atemp>25.0</ns3:atemp>
          </ns3:TrackPointExtension>
        </extensions>
      </trkpt>
      <trkpt lat="43.14335606060922145843505859375" lon="13.071946464478969573974609375">
        <ele>540.20001220703125</ele>
        <time>2021-05-09T10:45:59.000Z</time>
        <extensions>
          <ns3:TrackPointExtension>
            <ns3:atemp>25.0</ns3:atemp>
          </ns3:TrackPointExtension>
        </extensions>
      </trkpt>
      <trkpt lat="43.14334818162024021148681640625" lon="13.07180489413440227508544921875">
        <ele>539.5999755859375</ele>
        <time>2021-05-09T10:46:00.000Z</time>
        <extensions>
          <ns3:TrackPointExtension>
            <ns3:atemp>25.0</ns3:atemp>
          </ns3:TrackPointExtension>
        </extensions>
      </trkpt>
      <trkpt lat="43.14331381581723690032958984375" lon="13.0715258605778217315673828125">
        <ele>538.5999755859375</ele>
        <time>2021-05-09T10:46:02.000Z</time>
        <extensions>
          <ns3:TrackPointExtension>
            <ns3:atemp>25.0</ns3:atemp>
          </ns3:TrackPointExtension>
        </extensions>
      </trkpt>
      <trkpt lat="43.14329034648835659027099609375" lon="13.07138529606163501739501953125">
        <ele>538</ele>
        <time>2021-05-09T10:46:03.000Z</time>
        <extensions>
          <ns3:TrackPointExtension>
            <ns3:atemp>25.0</ns3:atemp>
          </ns3:TrackPointExtension>
        </extensions>
      </trkpt>
      <trkpt lat="43.143268637359142303466796875" lon="13.07124397717416286468505859375">
        <ele>537.4000244140625</ele>
        <time>2021-05-09T10:46:04.000Z</time>
        <extensions>
          <ns3:TrackPointExtension>
            <ns3:atemp>25.0</ns3:atemp>
          </ns3:TrackPointExtension>
        </extensions>
      </trkpt>
      <trkpt lat="43.14322412945330142974853515625" lon="13.07095773518085479736328125">
        <ele>536.20001220703125</ele>
        <time>2021-05-09T10:46:06.000Z</time>
        <extensions>
          <ns3:TrackPointExtension>
            <ns3:atemp>25.0</ns3:atemp>
          </ns3:TrackPointExtension>
        </extensions>
      </trkpt>
      <trkpt lat="43.14317836426198482513427734375" lon="13.07066713459789752960205078125">
        <ele>535.20001220703125</ele>
        <time>2021-05-09T10:46:08.000Z</time>
        <extensions>
          <ns3:TrackPointExtension>
            <ns3:atemp>25.0</ns3:atemp>
          </ns3:TrackPointExtension>
        </extensions>
      </trkpt>
      <trkpt lat="43.14315967261791229248046875" lon="13.07038214989006519317626953125">
        <ele>533.79998779296875</ele>
        <time>2021-05-09T10:46:10.000Z</time>
        <extensions>
          <ns3:TrackPointExtension>
            <ns3:atemp>25.0</ns3:atemp>
          </ns3:TrackPointExtension>
        </extensions>
      </trkpt>
      <trkpt lat="43.14317417331039905548095703125" lon="13.0701039545238018035888671875">
        <ele>532.4000244140625</ele>
        <time>2021-05-09T10:46:12.000Z</time>
        <extensions>
          <ns3:TrackPointExtension>
            <ns3:atemp>25.0</ns3:atemp>
          </ns3:TrackPointExtension>
        </extensions>
      </trkpt>
      <trkpt lat="43.1431957148015499114990234375" lon="13.0698357336223125457763671875">
        <ele>531.20001220703125</ele>
        <time>2021-05-09T10:46:14.000Z</time>
        <extensions>
          <ns3:TrackPointExtension>
            <ns3:atemp>25.0</ns3:atemp>
          </ns3:TrackPointExtension>
        </extensions>
      </trkpt>
      <trkpt lat="43.14320552162826061248779296875" lon="13.0697036348283290863037109375">
        <ele>530.79998779296875</ele>
        <time>2021-05-09T10:46:15.000Z</time>
        <extensions>
          <ns3:TrackPointExtension>
            <ns3:atemp>25.0</ns3:atemp>
          </ns3:TrackPointExtension>
        </extensions>
      </trkpt>
      <trkpt lat="43.14322547055780887603759765625" lon="13.06944102980196475982666015625">
        <ele>530</ele>
        <time>2021-05-09T10:46:17.000Z</time>
        <extensions>
          <ns3:TrackPointExtension>
            <ns3:atemp>25.0</ns3:atemp>
          </ns3:TrackPointExtension>
        </extensions>
      </trkpt>
      <trkpt lat="43.14325279556214809417724609375" lon="13.06903886608779430389404296875">
        <ele>528.79998779296875</ele>
        <time>2021-05-09T10:46:20.000Z</time>
        <extensions>
          <ns3:TrackPointExtension>
            <ns3:atemp>25.0</ns3:atemp>
          </ns3:TrackPointExtension>
        </extensions>
      </trkpt>
      <trkpt lat="43.14326570369303226470947265625" lon="13.068914227187633514404296875">
        <ele>528.4000244140625</ele>
        <time>2021-05-09T10:46:21.000Z</time>
        <extensions>
          <ns3:TrackPointExtension>
            <ns3:atemp>25.0</ns3:atemp>
          </ns3:TrackPointExtension>
        </extensions>
      </trkpt>
      <trkpt lat="43.14328766427934169769287109375" lon="13.06880249641835689544677734375">
        <ele>528.4000244140625</ele>
        <time>2021-05-09T10:46:22.000Z</time>
        <extensions>
          <ns3:TrackPointExtension>
            <ns3:atemp>25.0</ns3:atemp>
          </ns3:TrackPointExtension>
        </extensions>
      </trkpt>
      <trkpt lat="43.1433901749551296234130859375" lon="13.0684765242040157318115234375">
        <ele>528</ele>
        <time>2021-05-09T10:46:25.000Z</time>
        <extensions>
          <ns3:TrackPointExtension>
            <ns3:atemp>25.0</ns3:atemp>
          </ns3:TrackPointExtension>
        </extensions>
      </trkpt>
      <trkpt lat="43.1434019096195697784423828125" lon="13.0683628655970096588134765625">
        <ele>527.5999755859375</ele>
        <time>2021-05-09T10:46:26.000Z</time>
        <extensions>
          <ns3:TrackPointExtension>
            <ns3:atemp>25.0</ns3:atemp>
          </ns3:TrackPointExtension>
        </extensions>
      </trkpt>
      <trkpt lat="43.1433281488716602325439453125" lon="13.06816044263541698455810546875">
        <ele>526.20001220703125</ele>
        <time>2021-05-09T10:46:28.000Z</time>
        <extensions>
          <ns3:TrackPointExtension>
            <ns3:atemp>25.0</ns3:atemp>
          </ns3:TrackPointExtension>
        </extensions>
      </trkpt>
      <trkpt lat="43.1431943736970424652099609375" lon="13.06806874461472034454345703125">
        <ele>525.4000244140625</ele>
        <time>2021-05-09T10:46:30.000Z</time>
        <extensions>
          <ns3:TrackPointExtension>
            <ns3:atemp>25.0</ns3:atemp>
          </ns3:TrackPointExtension>
        </extensions>
      </trkpt>
      <trkpt lat="43.14306688494980335235595703125" lon="13.067989535629749298095703125">
        <ele>525.20001220703125</ele>
        <time>2021-05-09T10:46:32.000Z</time>
        <extensions>
          <ns3:TrackPointExtension>
            <ns3:atemp>25.0</ns3:atemp>
          </ns3:TrackPointExtension>
        </extensions>
      </trkpt>
      <trkpt lat="43.1430103071033954620361328125" lon="13.0679437704384326934814453125">
        <ele>525.20001220703125</ele>
        <time>2021-05-09T10:46:33.000Z</time>
        <extensions>
          <ns3:TrackPointExtension>
            <ns3:atemp>25.0</ns3:atemp>
          </ns3:TrackPointExtension>
        </extensions>
      </trkpt>
      <trkpt lat="43.142956160008907318115234375" lon="13.0678995139896869659423828125">
        <ele>525</ele>
        <time>2021-05-09T10:46:34.000Z</time>
        <extensions>
          <ns3:TrackPointExtension>
            <ns3:atemp>25.0</ns3:atemp>
          </ns3:TrackPointExtension>
        </extensions>
      </trkpt>
      <trkpt lat="43.14275524578988552093505859375" lon="13.06773330084979534149169921875">
        <ele>525</ele>
        <time>2021-05-09T10:46:38.000Z</time>
        <extensions>
          <ns3:TrackPointExtension>
            <ns3:atemp>25.0</ns3:atemp>
          </ns3:TrackPointExtension>
        </extensions>
      </trkpt>
      <trkpt lat="43.14272574149072170257568359375" lon="13.067676387727260589599609375">
        <ele>525</ele>
        <time>2021-05-09T10:46:39.000Z</time>
        <extensions>
          <ns3:TrackPointExtension>
            <ns3:atemp>25.0</ns3:atemp>
          </ns3:TrackPointExtension>
        </extensions>
      </trkpt>
      <trkpt lat="43.14275943674147129058837890625" lon="13.0675447918474674224853515625">
        <ele>525.5999755859375</ele>
        <time>2021-05-09T10:46:41.000Z</time>
        <extensions>
          <ns3:TrackPointExtension>
            <ns3:atemp>25.0</ns3:atemp>
          </ns3:TrackPointExtension>
        </extensions>
      </trkpt>
      <trkpt lat="43.14293059520423412322998046875" lon="13.06735997088253498077392578125">
        <ele>526.20001220703125</ele>
        <time>2021-05-09T10:46:44.000Z</time>
        <extensions>
          <ns3:TrackPointExtension>
            <ns3:atemp>25.0</ns3:atemp>
          </ns3:TrackPointExtension>
        </extensions>
      </trkpt>
      <trkpt lat="43.1429932080209255218505859375" lon="13.0673003755509853363037109375">
        <ele>526.20001220703125</ele>
        <time>2021-05-09T10:46:45.000Z</time>
        <extensions>
          <ns3:TrackPointExtension>
            <ns3:atemp>25.0</ns3:atemp>
          </ns3:TrackPointExtension>
        </extensions>
      </trkpt>
      <trkpt lat="43.14329537563025951385498046875" lon="13.0669329129159450531005859375">
        <ele>526.4000244140625</ele>
        <time>2021-05-09T10:46:50.000Z</time>
        <extensions>
          <ns3:TrackPointExtension>
            <ns3:atemp>25.0</ns3:atemp>
          </ns3:TrackPointExtension>
        </extensions>
      </trkpt>
      <trkpt lat="43.14361430704593658447265625" lon="13.06656402535736560821533203125">
        <ele>525</ele>
        <time>2021-05-09T10:46:55.000Z</time>
        <extensions>
          <ns3:TrackPointExtension>
            <ns3:atemp>25.0</ns3:atemp>
          </ns3:TrackPointExtension>
        </extensions>
      </trkpt>
      <trkpt lat="43.14368915744125843048095703125" lon="13.06650250218808650970458984375">
        <ele>524.4000244140625</ele>
        <time>2021-05-09T10:46:56.000Z</time>
        <extensions>
          <ns3:TrackPointExtension>
            <ns3:atemp>25.0</ns3:atemp>
          </ns3:TrackPointExtension>
        </extensions>
      </trkpt>
      <trkpt lat="43.14376912079751491546630859375" lon="13.0664440803229808807373046875">
        <ele>524</ele>
        <time>2021-05-09T10:46:57.000Z</time>
        <extensions>
          <ns3:TrackPointExtension>
            <ns3:atemp>25.0</ns3:atemp>
          </ns3:TrackPointExtension>
        </extensions>
      </trkpt>
      <trkpt lat="43.14393742941319942474365234375" lon="13.0663377977907657623291015625">
        <ele>522.4000244140625</ele>
        <time>2021-05-09T10:46:59.000Z</time>
        <extensions>
          <ns3:TrackPointExtension>
            <ns3:atemp>25.0</ns3:atemp>
          </ns3:TrackPointExtension>
        </extensions>
      </trkpt>
      <trkpt lat="43.14409576356410980224609375" lon="13.06624911725521087646484375">
        <ele>521.20001220703125</ele>
        <time>2021-05-09T10:47:01.000Z</time>
        <extensions>
          <ns3:TrackPointExtension>
            <ns3:atemp>25.0</ns3:atemp>
          </ns3:TrackPointExtension>
        </extensions>
      </trkpt>
      <trkpt lat="43.144227527081966400146484375" lon="13.066157586872577667236328125">
        <ele>520.5999755859375</ele>
        <time>2021-05-09T10:47:03.000Z</time>
        <extensions>
          <ns3:TrackPointExtension>
            <ns3:atemp>25.0</ns3:atemp>
          </ns3:TrackPointExtension>
        </extensions>
      </trkpt>
      <trkpt lat="43.1442682631313800811767578125" lon="13.06609489023685455322265625">
        <ele>520</ele>
        <time>2021-05-09T10:47:04.000Z</time>
        <extensions>
          <ns3:TrackPointExtension>
            <ns3:atemp>25.0</ns3:atemp>
          </ns3:TrackPointExtension>
        </extensions>
      </trkpt>
      <trkpt lat="43.14428041689097881317138671875" lon="13.0660169385373592376708984375">
        <ele>519.20001220703125</ele>
        <time>2021-05-09T10:47:05.000Z</time>
        <extensions>
          <ns3:TrackPointExtension>
            <ns3:atemp>25.0</ns3:atemp>
          </ns3:TrackPointExtension>
        </extensions>
      </trkpt>
      <trkpt lat="43.1442642398178577423095703125" lon="13.06593387387692928314208984375">
        <ele>518.20001220703125</ele>
        <time>2021-05-09T10:47:06.000Z</time>
        <extensions>
          <ns3:TrackPointExtension>
            <ns3:atemp>25.0</ns3:atemp>
          </ns3:TrackPointExtension>
        </extensions>
      </trkpt>
      <trkpt lat="43.1442307122051715850830078125" lon="13.06585575453937053680419921875">
        <ele>517</ele>
        <time>2021-05-09T10:47:07.000Z</time>
        <extensions>
          <ns3:TrackPointExtension>
            <ns3:atemp>25.0</ns3:atemp>
          </ns3:TrackPointExtension>
        </extensions>
      </trkpt>
      <trkpt lat="43.144143037497997283935546875" lon="13.06570060551166534423828125">
        <ele>515.20001220703125</ele>
        <time>2021-05-09T10:47:09.000Z</time>
        <extensions>
          <ns3:TrackPointExtension>
            <ns3:atemp>25.0</ns3:atemp>
          </ns3:TrackPointExtension>
        </extensions>
      </trkpt>
      <trkpt lat="43.14408998005092144012451171875" lon="13.06561619974672794342041015625">
        <ele>514.4000244140625</ele>
        <time>2021-05-09T10:47:10.000Z</time>
        <extensions>
          <ns3:TrackPointExtension>
            <ns3:atemp>25.0</ns3:atemp>
          </ns3:TrackPointExtension>
        </extensions>
      </trkpt>
      <trkpt lat="43.14403180964291095733642578125" lon="13.06552265770733356475830078125">
        <ele>513.79998779296875</ele>
        <time>2021-05-09T10:47:11.000Z</time>
        <extensions>
          <ns3:TrackPointExtension>
            <ns3:atemp>25.0</ns3:atemp>
          </ns3:TrackPointExtension>
        </extensions>
      </trkpt>
      <trkpt lat="43.14390532672405242919921875" lon="13.06531378068029880523681640625">
        <ele>512.79998779296875</ele>
        <time>2021-05-09T10:47:13.000Z</time>
        <extensions>
          <ns3:TrackPointExtension>
            <ns3:atemp>25.0</ns3:atemp>
          </ns3:TrackPointExtension>
        </extensions>
      </trkpt>
    </trkseg>
  </trk>
</gpx>
